<?xml version='1.0' encoding='UTF-8'?><gpx version="1.1" creator="JPX - https://github.com/jenetics/jpx" xmlns="http://www.topografix.com/GPX/1/1"><trk><trkseg><trkpt lat="37.8523335" lon="12.492445"><ele>19.0</ele><time>2026-04-28T07:31:31.666Z</time></trkpt><trkpt lat="37.85229" lon="12.4923684"><ele>19.0</ele><time>2026-04-28T07:31:37.668Z</time></trkpt><trkpt lat="37.8522298" lon="12.4924033"><ele>19.0</ele><time>2026-04-28T07:31:39.667Z</time></trkpt><trkpt lat="37.8521601" lon="12.492485"><ele>19.0</ele><time>2026-04-28T07:31:41.667Z</time></trkpt><trkpt lat="37.8520725" lon="12.4926096"><ele>19.0</ele><time>2026-04-28T07:31:43.666Z</time></trkpt><trkpt lat="37.8520316" lon="12.4926859"><ele>19.0</ele><time>2026-04-28T07:31:44.668Z</time></trkpt><trkpt lat="37.8519772" lon="12.4928159"><ele>19.0</ele><time>2026-04-28T07:31:46.666Z</time></trkpt><trkpt lat="37.8519513" lon="12.4929133"><ele>19.0</ele><time>2026-04-28T07:31:49.666Z</time></trkpt><trkpt lat="37.8520055" lon="12.492957"><ele>19.0</ele><time>2026-04-28T07:31:52.666Z</time></trkpt><trkpt lat="37.8520931" lon="12.492971"><ele>19.0</ele><time>2026-04-28T07:31:54.666Z</time></trkpt><trkpt lat="37.8521935" lon="12.4929754"><ele>19.0</ele><time>2026-04-28T07:31:56.667Z</time></trkpt><trkpt lat="37.8522574" lon="12.4929747"><ele>19.0</ele><time>2026-04-28T07:31:57.667Z</time></trkpt><trkpt lat="37.8523706" lon="12.4929725"><ele>18.833333333333332</ele><time>2026-04-28T07:31:59.667Z</time></trkpt><trkpt lat="37.852437" lon="12.4929652"><ele>18.666666666666664</ele><time>2026-04-28T07:32:00.667Z</time></trkpt><trkpt lat="37.8525143" lon="12.4929502"><ele>18.5</ele><time>2026-04-28T07:32:01.667Z</time></trkpt><trkpt lat="37.8525986" lon="12.4929453"><ele>18.333333333333332</ele><time>2026-04-28T07:32:02.667Z</time></trkpt><trkpt lat="37.8526786" lon="12.49294"><ele>18.166666666666668</ele><time>2026-04-28T07:32:03.668Z</time></trkpt><trkpt lat="37.852761" lon="12.4929365"><ele>18.0</ele><time>2026-04-28T07:32:04.665Z</time></trkpt><trkpt lat="37.8528492" lon="12.4929462"><ele>17.6</ele><time>2026-04-28T07:32:05.667Z</time></trkpt><trkpt lat="37.8529453" lon="12.4929558"><ele>17.200000000000003</ele><time>2026-04-28T07:32:06.667Z</time></trkpt><trkpt lat="37.8530469" lon="12.492971"><ele>16.8</ele><time>2026-04-28T07:32:07.666Z</time></trkpt><trkpt lat="37.8531481" lon="12.4929922"><ele>16.400000000000002</ele><time>2026-04-28T07:32:08.666Z</time></trkpt><trkpt lat="37.8532559" lon="12.4930112"><ele>16.0</ele><time>2026-04-28T07:32:09.666Z</time></trkpt><trkpt lat="37.8533676" lon="12.493024"><ele>16.2</ele><time>2026-04-28T07:32:10.666Z</time></trkpt><trkpt lat="37.8534733" lon="12.4930389"><ele>16.400000000000002</ele><time>2026-04-28T07:32:11.667Z</time></trkpt><trkpt lat="37.8535741" lon="12.4930564"><ele>16.6</ele><time>2026-04-28T07:32:12.666Z</time></trkpt><trkpt lat="37.8536917" lon="12.4930782"><ele>16.8</ele><time>2026-04-28T07:32:13.665Z</time></trkpt><trkpt lat="37.8538098" lon="12.4931025"><ele>17.0</ele><time>2026-04-28T07:32:14.667Z</time></trkpt><trkpt lat="37.8539298" lon="12.4931201"><ele>17.0</ele><time>2026-04-28T07:32:15.668Z</time></trkpt><trkpt lat="37.8540531" lon="12.4931416"><ele>17.0</ele><time>2026-04-28T07:32:16.666Z</time></trkpt><trkpt lat="37.8541771" lon="12.4931603"><ele>17.0</ele><time>2026-04-28T07:32:17.667Z</time></trkpt><trkpt lat="37.8543011" lon="12.4931794"><ele>17.0</ele><time>2026-04-28T07:32:18.666Z</time></trkpt><trkpt lat="37.8545521" lon="12.4932075"><ele>16.75</ele><time>2026-04-28T07:32:20.667Z</time></trkpt><trkpt lat="37.8546806" lon="12.4932185"><ele>16.5</ele><time>2026-04-28T07:32:21.667Z</time></trkpt><trkpt lat="37.8548144" lon="12.4932385"><ele>16.25</ele><time>2026-04-28T07:32:22.666Z</time></trkpt><trkpt lat="37.8549482" lon="12.493256"><ele>16.0</ele><time>2026-04-28T07:32:23.667Z</time></trkpt><trkpt lat="37.8550873" lon="12.4932738"><ele>15.75</ele><time>2026-04-28T07:32:24.667Z</time></trkpt><trkpt lat="37.8552232" lon="12.4932875"><ele>15.5</ele><time>2026-04-28T07:32:25.666Z</time></trkpt><trkpt lat="37.8553622" lon="12.4932933"><ele>15.25</ele><time>2026-04-28T07:32:26.666Z</time></trkpt><trkpt lat="37.8555016" lon="12.4933003"><ele>15.0</ele><time>2026-04-28T07:32:27.667Z</time></trkpt><trkpt lat="37.8556335" lon="12.4933117"><ele>15.0</ele><time>2026-04-28T07:32:28.667Z</time></trkpt><trkpt lat="37.8557642" lon="12.4933373"><ele>15.0</ele><time>2026-04-28T07:32:29.666Z</time></trkpt><trkpt lat="37.855891" lon="12.4933849"><ele>15.0</ele><time>2026-04-28T07:32:30.667Z</time></trkpt><trkpt lat="37.8560183" lon="12.4934391"><ele>15.0</ele><time>2026-04-28T07:32:31.667Z</time></trkpt><trkpt lat="37.8561474" lon="12.4935096"><ele>15.0</ele><time>2026-04-28T07:32:32.666Z</time></trkpt><trkpt lat="37.8562783" lon="12.4935834"><ele>15.0</ele><time>2026-04-28T07:32:33.665Z</time></trkpt><trkpt lat="37.8564094" lon="12.493664"><ele>15.0</ele><time>2026-04-28T07:32:34.666Z</time></trkpt><trkpt lat="37.8566701" lon="12.4938426"><ele>15.666666666666668</ele><time>2026-04-28T07:32:36.666Z</time></trkpt><trkpt lat="37.8568003" lon="12.4939335"><ele>16.333333333333336</ele><time>2026-04-28T07:32:37.666Z</time></trkpt><trkpt lat="37.8569302" lon="12.4940278"><ele>17.0</ele><time>2026-04-28T07:32:38.667Z</time></trkpt><trkpt lat="37.8570658" lon="12.4941189"><ele>17.0</ele><time>2026-04-28T07:32:39.666Z</time></trkpt><trkpt lat="37.8571995" lon="12.4942102"><ele>17.0</ele><time>2026-04-28T07:32:40.666Z</time></trkpt><trkpt lat="37.8573366" lon="12.4943003"><ele>17.0</ele><time>2026-04-28T07:32:41.666Z</time></trkpt><trkpt lat="37.8574715" lon="12.4943851"><ele>17.0</ele><time>2026-04-28T07:32:42.666Z</time></trkpt><trkpt lat="37.8576104" lon="12.4944656"><ele>17.0</ele><time>2026-04-28T07:32:43.666Z</time></trkpt><trkpt lat="37.8578986" lon="12.4946075"><ele>17.333333333333336</ele><time>2026-04-28T07:32:45.666Z</time></trkpt><trkpt lat="37.8580431" lon="12.4946853"><ele>17.666666666666668</ele><time>2026-04-28T07:32:46.666Z</time></trkpt><trkpt lat="37.8581853" lon="12.4947521"><ele>18.0</ele><time>2026-04-28T07:32:47.668Z</time></trkpt><trkpt lat="37.8583216" lon="12.4948189"><ele>18.25</ele><time>2026-04-28T07:32:48.666Z</time></trkpt><trkpt lat="37.8584572" lon="12.4948817"><ele>18.5</ele><time>2026-04-28T07:32:49.666Z</time></trkpt><trkpt lat="37.8585856" lon="12.4949371"><ele>18.75</ele><time>2026-04-28T07:32:50.667Z</time></trkpt><trkpt lat="37.8587024" lon="12.4949805"><ele>19.0</ele><time>2026-04-28T07:32:51.667Z</time></trkpt><trkpt lat="37.8588009" lon="12.4950285"><ele>19.0</ele><time>2026-04-28T07:32:52.666Z</time></trkpt><trkpt lat="37.8588853" lon="12.4950719"><ele>19.0</ele><time>2026-04-28T07:32:53.666Z</time></trkpt><trkpt lat="37.8589572" lon="12.4951101"><ele>19.0</ele><time>2026-04-28T07:32:54.667Z</time></trkpt><trkpt lat="37.8590488" lon="12.4951723"><ele>19.0</ele><time>2026-04-28T07:32:56.667Z</time></trkpt><trkpt lat="37.8590445" lon="12.4952719"><ele>19.0</ele><time>2026-04-28T07:32:59.665Z</time></trkpt><trkpt lat="37.8589834" lon="12.4953815"><ele>19.333333333333332</ele><time>2026-04-28T07:33:01.668Z</time></trkpt><trkpt lat="37.8589337" lon="12.4954483"><ele>19.666666666666664</ele><time>2026-04-28T07:33:02.667Z</time></trkpt><trkpt lat="37.8588816" lon="12.495522"><ele>20.0</ele><time>2026-04-28T07:33:03.665Z</time></trkpt><trkpt lat="37.858821" lon="12.4956068"><ele>20.333333333333332</ele><time>2026-04-28T07:33:04.667Z</time></trkpt><trkpt lat="37.8587519" lon="12.4957007"><ele>20.666666666666668</ele><time>2026-04-28T07:33:05.667Z</time></trkpt><trkpt lat="37.858686" lon="12.4957992"><ele>21.0</ele><time>2026-04-28T07:33:06.666Z</time></trkpt><trkpt lat="37.8586152" lon="12.4958937"><ele>21.0</ele><time>2026-04-28T07:33:07.667Z</time></trkpt><trkpt lat="37.8585413" lon="12.495994"><ele>21.0</ele><time>2026-04-28T07:33:08.667Z</time></trkpt><trkpt lat="37.8584571" lon="12.4960906"><ele>21.0</ele><time>2026-04-28T07:33:09.667Z</time></trkpt><trkpt lat="37.8583778" lon="12.496208"><ele>21.0</ele><time>2026-04-28T07:33:10.667Z</time></trkpt><trkpt lat="37.8582932" lon="12.4963314"><ele>21.0</ele><time>2026-04-28T07:33:11.666Z</time></trkpt><trkpt lat="37.8582072" lon="12.4964579"><ele>21.0</ele><time>2026-04-28T07:33:12.666Z</time></trkpt><trkpt lat="37.8581092" lon="12.4965893"><ele>21.0</ele><time>2026-04-28T07:33:13.666Z</time></trkpt><trkpt lat="37.8580131" lon="12.4967147"><ele>21.0</ele><time>2026-04-28T07:33:14.666Z</time></trkpt><trkpt lat="37.8579208" lon="12.4968397"><ele>21.0</ele><time>2026-04-28T07:33:15.667Z</time></trkpt><trkpt lat="37.8578309" lon="12.4969647"><ele>21.0</ele><time>2026-04-28T07:33:16.667Z</time></trkpt><trkpt lat="37.8577378" lon="12.4970972"><ele>21.0</ele><time>2026-04-28T07:33:17.667Z</time></trkpt><trkpt lat="37.8576429" lon="12.4972353"><ele>21.0</ele><time>2026-04-28T07:33:18.666Z</time></trkpt><trkpt lat="37.8575442" lon="12.4973728"><ele>21.666666666666668</ele><time>2026-04-28T07:33:19.666Z</time></trkpt><trkpt lat="37.8574468" lon="12.4975196"><ele>22.333333333333336</ele><time>2026-04-28T07:33:20.666Z</time></trkpt><trkpt lat="37.8573491" lon="12.4976611"><ele>23.0</ele><time>2026-04-28T07:33:21.666Z</time></trkpt><trkpt lat="37.8572507" lon="12.4978047"><ele>24.333333333333336</ele><time>2026-04-28T07:33:22.667Z</time></trkpt><trkpt lat="37.8571528" lon="12.4979445"><ele>25.666666666666668</ele><time>2026-04-28T07:33:23.666Z</time></trkpt><trkpt lat="37.8570464" lon="12.4980901"><ele>27.0</ele><time>2026-04-28T07:33:24.667Z</time></trkpt><trkpt lat="37.8569516" lon="12.498233"><ele>27.0</ele><time>2026-04-28T07:33:25.667Z</time></trkpt><trkpt lat="37.8568526" lon="12.4983841"><ele>27.0</ele><time>2026-04-28T07:33:26.666Z</time></trkpt><trkpt lat="37.8567527" lon="12.4985283"><ele>27.0</ele><time>2026-04-28T07:33:27.666Z</time></trkpt><trkpt lat="37.8566551" lon="12.49868"><ele>27.75</ele><time>2026-04-28T07:33:28.667Z</time></trkpt><trkpt lat="37.8565592" lon="12.4988219"><ele>28.5</ele><time>2026-04-28T07:33:29.667Z</time></trkpt><trkpt lat="37.8564751" lon="12.4989563"><ele>29.25</ele><time>2026-04-28T07:33:30.666Z</time></trkpt><trkpt lat="37.856412" lon="12.4990602"><ele>30.0</ele><time>2026-04-28T07:33:31.667Z</time></trkpt><trkpt lat="37.8563687" lon="12.4991567"><ele>30.0</ele><time>2026-04-28T07:33:32.666Z</time></trkpt><trkpt lat="37.8563487" lon="12.4992542"><ele>30.0</ele><time>2026-04-28T07:33:33.667Z</time></trkpt><trkpt lat="37.8563576" lon="12.4993564"><ele>30.0</ele><time>2026-04-28T07:33:34.667Z</time></trkpt><trkpt lat="37.8563715" lon="12.4994766"><ele>30.0</ele><time>2026-04-28T07:33:35.666Z</time></trkpt><trkpt lat="37.8563758" lon="12.4995983"><ele>30.0</ele><time>2026-04-28T07:33:36.666Z</time></trkpt><trkpt lat="37.8563635" lon="12.4997204"><ele>30.4</ele><time>2026-04-28T07:33:37.666Z</time></trkpt><trkpt lat="37.8563289" lon="12.4998365"><ele>30.8</ele><time>2026-04-28T07:33:38.667Z</time></trkpt><trkpt lat="37.8562696" lon="12.4999502"><ele>31.200000000000003</ele><time>2026-04-28T07:33:39.666Z</time></trkpt><trkpt lat="37.8561891" lon="12.5000592"><ele>31.6</ele><time>2026-04-28T07:33:40.666Z</time></trkpt><trkpt lat="37.8560991" lon="12.5001596"><ele>32.0</ele><time>2026-04-28T07:33:41.667Z</time></trkpt><trkpt lat="37.8560103" lon="12.5002702"><ele>31.75</ele><time>2026-04-28T07:33:42.666Z</time></trkpt><trkpt lat="37.8559197" lon="12.5003885"><ele>31.5</ele><time>2026-04-28T07:33:43.666Z</time></trkpt><trkpt lat="37.8558206" lon="12.5005123"><ele>31.25</ele><time>2026-04-28T07:33:44.667Z</time></trkpt><trkpt lat="37.8557194" lon="12.5006383"><ele>31.0</ele><time>2026-04-28T07:33:45.666Z</time></trkpt><trkpt lat="37.8556127" lon="12.5007664"><ele>31.25</ele><time>2026-04-28T07:33:46.666Z</time></trkpt><trkpt lat="37.8555125" lon="12.5008932"><ele>31.5</ele><time>2026-04-28T07:33:47.666Z</time></trkpt><trkpt lat="37.8554085" lon="12.5010214"><ele>31.75</ele><time>2026-04-28T07:33:48.666Z</time></trkpt><trkpt lat="37.8553025" lon="12.5011539"><ele>32.0</ele><time>2026-04-28T07:33:49.666Z</time></trkpt><trkpt lat="37.8551937" lon="12.5012894"><ele>32.33333333333333</ele><time>2026-04-28T07:33:50.666Z</time></trkpt><trkpt lat="37.8550884" lon="12.5014191"><ele>32.666666666666664</ele><time>2026-04-28T07:33:51.666Z</time></trkpt><trkpt lat="37.8549789" lon="12.5015558"><ele>33.0</ele><time>2026-04-28T07:33:52.666Z</time></trkpt><trkpt lat="37.854868" lon="12.5016931"><ele>33.0</ele><time>2026-04-28T07:33:53.667Z</time></trkpt><trkpt lat="37.8547549" lon="12.5018349"><ele>33.0</ele><time>2026-04-28T07:33:54.666Z</time></trkpt><trkpt lat="37.8546449" lon="12.5019645"><ele>33.0</ele><time>2026-04-28T07:33:55.667Z</time></trkpt><trkpt lat="37.8545379" lon="12.5020964"><ele>32.75</ele><time>2026-04-28T07:33:56.667Z</time></trkpt><trkpt lat="37.8544331" lon="12.5022128"><ele>32.5</ele><time>2026-04-28T07:33:57.666Z</time></trkpt><trkpt lat="37.8543372" lon="12.5023172"><ele>32.25</ele><time>2026-04-28T07:33:58.667Z</time></trkpt><trkpt lat="37.8542369" lon="12.5024348"><ele>32.0</ele><time>2026-04-28T07:33:59.667Z</time></trkpt><trkpt lat="37.8541353" lon="12.502561"><ele>31.75</ele><time>2026-04-28T07:34:00.666Z</time></trkpt><trkpt lat="37.8540372" lon="12.502673"><ele>31.5</ele><time>2026-04-28T07:34:01.666Z</time></trkpt><trkpt lat="37.8539452" lon="12.5027747"><ele>31.25</ele><time>2026-04-28T07:34:02.666Z</time></trkpt><trkpt lat="37.8538631" lon="12.5028612"><ele>31.0</ele><time>2026-04-28T07:34:03.666Z</time></trkpt><trkpt lat="37.8537815" lon="12.502921"><ele>31.0</ele><time>2026-04-28T07:34:04.667Z</time></trkpt><trkpt lat="37.8536926" lon="12.502945"><ele>31.0</ele><time>2026-04-28T07:34:05.669Z</time></trkpt><trkpt lat="37.8535991" lon="12.5029335"><ele>31.0</ele><time>2026-04-28T07:34:06.666Z</time></trkpt><trkpt lat="37.8534988" lon="12.502913"><ele>31.0</ele><time>2026-04-28T07:34:07.666Z</time></trkpt><trkpt lat="37.8533868" lon="12.5029216"><ele>31.0</ele><time>2026-04-28T07:34:08.667Z</time></trkpt><trkpt lat="37.8532644" lon="12.5029592"><ele>31.75</ele><time>2026-04-28T07:34:09.666Z</time></trkpt><trkpt lat="37.8531421" lon="12.5030246"><ele>32.5</ele><time>2026-04-28T07:34:10.667Z</time></trkpt><trkpt lat="37.8530233" lon="12.5031039"><ele>33.25</ele><time>2026-04-28T07:34:11.666Z</time></trkpt><trkpt lat="37.8529024" lon="12.5031955"><ele>34.0</ele><time>2026-04-28T07:34:12.666Z</time></trkpt><trkpt lat="37.8527689" lon="12.5032959"><ele>34.0</ele><time>2026-04-28T07:34:13.667Z</time></trkpt><trkpt lat="37.8526292" lon="12.5033929"><ele>34.0</ele><time>2026-04-28T07:34:14.666Z</time></trkpt><trkpt lat="37.8524992" lon="12.5034856"><ele>34.0</ele><time>2026-04-28T07:34:15.666Z</time></trkpt><trkpt lat="37.8523709" lon="12.5035819"><ele>34.0</ele><time>2026-04-28T07:34:16.667Z</time></trkpt><trkpt lat="37.8522403" lon="12.5036697"><ele>34.0</ele><time>2026-04-28T07:34:17.666Z</time></trkpt><trkpt lat="37.8521102" lon="12.5037459"><ele>34.0</ele><time>2026-04-28T07:34:18.666Z</time></trkpt><trkpt lat="37.8519782" lon="12.503796"><ele>34.0</ele><time>2026-04-28T07:34:19.667Z</time></trkpt><trkpt lat="37.8518512" lon="12.5038508"><ele>34.25</ele><time>2026-04-28T07:34:20.667Z</time></trkpt><trkpt lat="37.8517361" lon="12.5039505"><ele>34.5</ele><time>2026-04-28T07:34:21.666Z</time></trkpt><trkpt lat="37.8516161" lon="12.5040631"><ele>34.75</ele><time>2026-04-28T07:34:22.667Z</time></trkpt><trkpt lat="37.8514983" lon="12.5041811"><ele>35.0</ele><time>2026-04-28T07:34:23.667Z</time></trkpt><trkpt lat="37.8513802" lon="12.5043074"><ele>35.0</ele><time>2026-04-28T07:34:24.668Z</time></trkpt><trkpt lat="37.8512509" lon="12.5044326"><ele>35.0</ele><time>2026-04-28T07:34:25.667Z</time></trkpt><trkpt lat="37.8511159" lon="12.5045651"><ele>35.0</ele><time>2026-04-28T07:34:26.666Z</time></trkpt><trkpt lat="37.8509833" lon="12.5046949"><ele>35.0</ele><time>2026-04-28T07:34:27.667Z</time></trkpt><trkpt lat="37.8508544" lon="12.5048299"><ele>35.0</ele><time>2026-04-28T07:34:28.667Z</time></trkpt><trkpt lat="37.8507192" lon="12.5049634"><ele>35.0</ele><time>2026-04-28T07:34:29.666Z</time></trkpt><trkpt lat="37.8505864" lon="12.5050995"><ele>35.0</ele><time>2026-04-28T07:34:30.667Z</time></trkpt><trkpt lat="37.8504531" lon="12.5052402"><ele>35.0</ele><time>2026-04-28T07:34:31.667Z</time></trkpt><trkpt lat="37.8503163" lon="12.5053762"><ele>35.0</ele><time>2026-04-28T07:34:32.667Z</time></trkpt><trkpt lat="37.8501841" lon="12.5055126"><ele>35.33333333333333</ele><time>2026-04-28T07:34:33.666Z</time></trkpt><trkpt lat="37.8500461" lon="12.5056528"><ele>35.666666666666664</ele><time>2026-04-28T07:34:34.667Z</time></trkpt><trkpt lat="37.8499071" lon="12.5057864"><ele>36.0</ele><time>2026-04-28T07:34:35.667Z</time></trkpt><trkpt lat="37.8497713" lon="12.5059251"><ele>36.0</ele><time>2026-04-28T07:34:36.667Z</time></trkpt><trkpt lat="37.8496404" lon="12.5060648"><ele>36.0</ele><time>2026-04-28T07:34:37.666Z</time></trkpt><trkpt lat="37.8495101" lon="12.5061954"><ele>36.0</ele><time>2026-04-28T07:34:38.666Z</time></trkpt><trkpt lat="37.8493865" lon="12.5063208"><ele>36.0</ele><time>2026-04-28T07:34:39.666Z</time></trkpt><trkpt lat="37.8492714" lon="12.5064423"><ele>36.0</ele><time>2026-04-28T07:34:40.666Z</time></trkpt><trkpt lat="37.8491591" lon="12.5065531"><ele>36.0</ele><time>2026-04-28T07:34:41.666Z</time></trkpt><trkpt lat="37.8490581" lon="12.5066488"><ele>36.0</ele><time>2026-04-28T07:34:42.668Z</time></trkpt><trkpt lat="37.8489664" lon="12.5067385"><ele>36.0</ele><time>2026-04-28T07:34:43.666Z</time></trkpt><trkpt lat="37.8488955" lon="12.5068131"><ele>36.0</ele><time>2026-04-28T07:34:44.666Z</time></trkpt><trkpt lat="37.8488456" lon="12.5068719"><ele>36.0</ele><time>2026-04-28T07:34:45.668Z</time></trkpt><trkpt lat="37.8488129" lon="12.5069879"><ele>36.0</ele><time>2026-04-28T07:34:47.666Z</time></trkpt><trkpt lat="37.848852" lon="12.5071644"><ele>36.0</ele><time>2026-04-28T07:34:49.667Z</time></trkpt><trkpt lat="37.8488885" lon="12.5072619"><ele>36.2</ele><time>2026-04-28T07:34:50.668Z</time></trkpt><trkpt lat="37.8489236" lon="12.5073695"><ele>36.400000000000006</ele><time>2026-04-28T07:34:51.666Z</time></trkpt><trkpt lat="37.8489658" lon="12.5074873"><ele>36.6</ele><time>2026-04-28T07:34:52.667Z</time></trkpt><trkpt lat="37.8490214" lon="12.5076176"><ele>36.800000000000004</ele><time>2026-04-28T07:34:53.666Z</time></trkpt><trkpt lat="37.8490826" lon="12.5077512"><ele>37.0</ele><time>2026-04-28T07:34:54.667Z</time></trkpt><trkpt lat="37.849144" lon="12.507886"><ele>37.25</ele><time>2026-04-28T07:34:55.666Z</time></trkpt><trkpt lat="37.8492184" lon="12.5080186"><ele>37.5</ele><time>2026-04-28T07:34:56.667Z</time></trkpt><trkpt lat="37.8492956" lon="12.508152"><ele>37.75</ele><time>2026-04-28T07:34:57.667Z</time></trkpt><trkpt lat="37.8493695" lon="12.5082833"><ele>38.0</ele><time>2026-04-28T07:34:58.666Z</time></trkpt><trkpt lat="37.8494478" lon="12.508399"><ele>38.199999999999996</ele><time>2026-04-28T07:34:59.667Z</time></trkpt><trkpt lat="37.8495188" lon="12.5085134"><ele>38.4</ele><time>2026-04-28T07:35:00.667Z</time></trkpt><trkpt lat="37.8495705" lon="12.5086383"><ele>38.599999999999994</ele><time>2026-04-28T07:35:01.667Z</time></trkpt><trkpt lat="37.8496046" lon="12.5087571"><ele>38.8</ele><time>2026-04-28T07:35:02.666Z</time></trkpt><trkpt lat="37.8496121" lon="12.5088836"><ele>39.0</ele><time>2026-04-28T07:35:03.667Z</time></trkpt><trkpt lat="37.849591" lon="12.5090144"><ele>39.0</ele><time>2026-04-28T07:35:04.667Z</time></trkpt><trkpt lat="37.8495473" lon="12.5091379"><ele>39.0</ele><time>2026-04-28T07:35:05.667Z</time></trkpt><trkpt lat="37.8494986" lon="12.5092587"><ele>39.0</ele><time>2026-04-28T07:35:06.666Z</time></trkpt><trkpt lat="37.849443" lon="12.5093761"><ele>39.0</ele><time>2026-04-28T07:35:07.666Z</time></trkpt><trkpt lat="37.8493837" lon="12.5094892"><ele>39.0</ele><time>2026-04-28T07:35:08.666Z</time></trkpt><trkpt lat="37.8493135" lon="12.5095884"><ele>39.333333333333336</ele><time>2026-04-28T07:35:09.666Z</time></trkpt><trkpt lat="37.8492484" lon="12.509686"><ele>39.666666666666664</ele><time>2026-04-28T07:35:10.667Z</time></trkpt><trkpt lat="37.8491964" lon="12.5097642"><ele>40.0</ele><time>2026-04-28T07:35:11.667Z</time></trkpt><trkpt lat="37.8491583" lon="12.5098285"><ele>40.33333333333333</ele><time>2026-04-28T07:35:12.666Z</time></trkpt><trkpt lat="37.8491192" lon="12.5099097"><ele>40.666666666666664</ele><time>2026-04-28T07:35:15.666Z</time></trkpt><trkpt lat="37.8491766" lon="12.5100335"><ele>41.0</ele><time>2026-04-28T07:35:18.666Z</time></trkpt><trkpt lat="37.8492253" lon="12.5100892"><ele>41.0</ele><time>2026-04-28T07:35:19.668Z</time></trkpt><trkpt lat="37.849282" lon="12.5101449"><ele>41.0</ele><time>2026-04-28T07:35:20.667Z</time></trkpt><trkpt lat="37.8493459" lon="12.5102032"><ele>41.0</ele><time>2026-04-28T07:35:21.666Z</time></trkpt><trkpt lat="37.8494205" lon="12.5102791"><ele>41.0</ele><time>2026-04-28T07:35:22.668Z</time></trkpt><trkpt lat="37.8495001" lon="12.510354"><ele>41.0</ele><time>2026-04-28T07:35:23.668Z</time></trkpt><trkpt lat="37.8495734" lon="12.5104267"><ele>41.0</ele><time>2026-04-28T07:35:24.667Z</time></trkpt><trkpt lat="37.8496511" lon="12.5105013"><ele>41.4</ele><time>2026-04-28T07:35:25.666Z</time></trkpt><trkpt lat="37.8497297" lon="12.5105732"><ele>41.8</ele><time>2026-04-28T07:35:26.666Z</time></trkpt><trkpt lat="37.8498118" lon="12.5106522"><ele>42.199999999999996</ele><time>2026-04-28T07:35:27.667Z</time></trkpt><trkpt lat="37.8498986" lon="12.5107396"><ele>42.599999999999994</ele><time>2026-04-28T07:35:28.666Z</time></trkpt><trkpt lat="37.8499927" lon="12.5108266"><ele>43.0</ele><time>2026-04-28T07:35:29.666Z</time></trkpt><trkpt lat="37.8500859" lon="12.5109212"><ele>43.0</ele><time>2026-04-28T07:35:30.666Z</time></trkpt><trkpt lat="37.8501809" lon="12.5110092"><ele>43.0</ele><time>2026-04-28T07:35:31.666Z</time></trkpt><trkpt lat="37.8502583" lon="12.5110871"><ele>43.0</ele><time>2026-04-28T07:35:32.666Z</time></trkpt><trkpt lat="37.8503378" lon="12.5111616"><ele>43.0</ele><time>2026-04-28T07:35:33.666Z</time></trkpt><trkpt lat="37.8504091" lon="12.511226"><ele>43.0</ele><time>2026-04-28T07:35:34.668Z</time></trkpt><trkpt lat="37.8504707" lon="12.5112822"><ele>43.5</ele><time>2026-04-28T07:35:35.666Z</time></trkpt><trkpt lat="37.8505593" lon="12.5113586"><ele>44.0</ele><time>2026-04-28T07:35:37.668Z</time></trkpt><trkpt lat="37.8506643" lon="12.5114698"><ele>44.5</ele><time>2026-04-28T07:35:41.666Z</time></trkpt><trkpt lat="37.8507408" lon="12.5115507"><ele>45.0</ele><time>2026-04-28T07:35:43.666Z</time></trkpt><trkpt lat="37.8508895" lon="12.511693"><ele>45.0</ele><time>2026-04-28T07:35:46.668Z</time></trkpt><trkpt lat="37.850949" lon="12.511754"><ele>45.0</ele><time>2026-04-28T07:35:47.667Z</time></trkpt><trkpt lat="37.851018" lon="12.511822"><ele>45.0</ele><time>2026-04-28T07:35:48.666Z</time></trkpt><trkpt lat="37.8510862" lon="12.5118851"><ele>45.0</ele><time>2026-04-28T07:35:49.668Z</time></trkpt><trkpt lat="37.851155" lon="12.5119544"><ele>45.0</ele><time>2026-04-28T07:35:50.668Z</time></trkpt><trkpt lat="37.8512301" lon="12.5120244"><ele>45.0</ele><time>2026-04-28T07:35:51.666Z</time></trkpt><trkpt lat="37.8513002" lon="12.5121027"><ele>44.8</ele><time>2026-04-28T07:35:52.667Z</time></trkpt><trkpt lat="37.85138" lon="12.5121777"><ele>44.6</ele><time>2026-04-28T07:35:53.667Z</time></trkpt><trkpt lat="37.8514635" lon="12.5122574"><ele>44.400000000000006</ele><time>2026-04-28T07:35:54.667Z</time></trkpt><trkpt lat="37.8515562" lon="12.5123421"><ele>44.2</ele><time>2026-04-28T07:35:55.667Z</time></trkpt><trkpt lat="37.8516536" lon="12.5124299"><ele>44.0</ele><time>2026-04-28T07:35:56.668Z</time></trkpt><trkpt lat="37.8517548" lon="12.5125223"><ele>43.75</ele><time>2026-04-28T07:35:57.666Z</time></trkpt><trkpt lat="37.8518597" lon="12.5126135"><ele>43.5</ele><time>2026-04-28T07:35:58.667Z</time></trkpt><trkpt lat="37.8519604" lon="12.5127067"><ele>43.25</ele><time>2026-04-28T07:35:59.667Z</time></trkpt><trkpt lat="37.8520605" lon="12.5127973"><ele>43.0</ele><time>2026-04-28T07:36:00.669Z</time></trkpt><trkpt lat="37.8521615" lon="12.5128869"><ele>43.5</ele><time>2026-04-28T07:36:01.667Z</time></trkpt><trkpt lat="37.8522626" lon="12.5129755"><ele>44.0</ele><time>2026-04-28T07:36:02.666Z</time></trkpt><trkpt lat="37.8523605" lon="12.5130552"><ele>44.5</ele><time>2026-04-28T07:36:03.668Z</time></trkpt><trkpt lat="37.8524568" lon="12.5131365"><ele>45.0</ele><time>2026-04-28T07:36:04.667Z</time></trkpt><trkpt lat="37.8525568" lon="12.5132177"><ele>45.0</ele><time>2026-04-28T07:36:05.667Z</time></trkpt><trkpt lat="37.8526557" lon="12.5132838"><ele>45.0</ele><time>2026-04-28T07:36:06.666Z</time></trkpt><trkpt lat="37.8527583" lon="12.5133481"><ele>45.0</ele><time>2026-04-28T07:36:07.667Z</time></trkpt><trkpt lat="37.852854" lon="12.5134023"><ele>45.0</ele><time>2026-04-28T07:36:08.668Z</time></trkpt><trkpt lat="37.8529462" lon="12.5134538"><ele>45.0</ele><time>2026-04-28T07:36:09.666Z</time></trkpt><trkpt lat="37.8530431" lon="12.5135013"><ele>45.0</ele><time>2026-04-28T07:36:10.667Z</time></trkpt><trkpt lat="37.8531484" lon="12.5135481"><ele>45.0</ele><time>2026-04-28T07:36:11.668Z</time></trkpt><trkpt lat="37.8532602" lon="12.5135978"><ele>45.0</ele><time>2026-04-28T07:36:12.669Z</time></trkpt><trkpt lat="37.8533825" lon="12.5136504"><ele>45.0</ele><time>2026-04-28T07:36:13.668Z</time></trkpt><trkpt lat="37.8535098" lon="12.5136947"><ele>44.75</ele><time>2026-04-28T07:36:14.668Z</time></trkpt><trkpt lat="37.8536394" lon="12.5137372"><ele>44.5</ele><time>2026-04-28T07:36:15.667Z</time></trkpt><trkpt lat="37.8537693" lon="12.5137788"><ele>44.25</ele><time>2026-04-28T07:36:16.667Z</time></trkpt><trkpt lat="37.8539061" lon="12.5138184"><ele>44.0</ele><time>2026-04-28T07:36:17.668Z</time></trkpt><trkpt lat="37.8540496" lon="12.513851"><ele>44.666666666666664</ele><time>2026-04-28T07:36:18.666Z</time></trkpt><trkpt lat="37.8541926" lon="12.5138901"><ele>45.333333333333336</ele><time>2026-04-28T07:36:19.667Z</time></trkpt><trkpt lat="37.8543444" lon="12.5139324"><ele>46.0</ele><time>2026-04-28T07:36:20.667Z</time></trkpt><trkpt lat="37.8544948" lon="12.5139751"><ele>46.0</ele><time>2026-04-28T07:36:21.667Z</time></trkpt><trkpt lat="37.8546449" lon="12.514019"><ele>46.0</ele><time>2026-04-28T07:36:22.668Z</time></trkpt><trkpt lat="37.8547982" lon="12.5140625"><ele>46.0</ele><time>2026-04-28T07:36:23.667Z</time></trkpt><trkpt lat="37.8549476" lon="12.5141023"><ele>46.0</ele><time>2026-04-28T07:36:24.666Z</time></trkpt><trkpt lat="37.8551011" lon="12.5141423"><ele>46.0</ele><time>2026-04-28T07:36:25.667Z</time></trkpt><trkpt lat="37.8552592" lon="12.5141801"><ele>46.0</ele><time>2026-04-28T07:36:26.667Z</time></trkpt><trkpt lat="37.8554122" lon="12.5142213"><ele>46.0</ele><time>2026-04-28T07:36:27.667Z</time></trkpt><trkpt lat="37.8555727" lon="12.5142642"><ele>46.0</ele><time>2026-04-28T07:36:28.667Z</time></trkpt><trkpt lat="37.8557337" lon="12.5143057"><ele>46.0</ele><time>2026-04-28T07:36:29.667Z</time></trkpt><trkpt lat="37.8558865" lon="12.5143489"><ele>46.25</ele><time>2026-04-28T07:36:30.666Z</time></trkpt><trkpt lat="37.8560351" lon="12.5144004"><ele>46.5</ele><time>2026-04-28T07:36:31.667Z</time></trkpt><trkpt lat="37.8561745" lon="12.5144394"><ele>46.75</ele><time>2026-04-28T07:36:32.668Z</time></trkpt><trkpt lat="37.8563089" lon="12.5144728"><ele>47.0</ele><time>2026-04-28T07:36:33.666Z</time></trkpt><trkpt lat="37.8564394" lon="12.5145061"><ele>47.0</ele><time>2026-04-28T07:36:34.667Z</time></trkpt><trkpt lat="37.8565648" lon="12.5145364"><ele>47.0</ele><time>2026-04-28T07:36:35.666Z</time></trkpt><trkpt lat="37.8566784" lon="12.5145635"><ele>47.0</ele><time>2026-04-28T07:36:36.666Z</time></trkpt><trkpt lat="37.8567805" lon="12.5145886"><ele>47.0</ele><time>2026-04-28T07:36:37.667Z</time></trkpt><trkpt lat="37.8568743" lon="12.5146142"><ele>47.0</ele><time>2026-04-28T07:36:38.667Z</time></trkpt><trkpt lat="37.8569634" lon="12.5146425"><ele>47.25</ele><time>2026-04-28T07:36:39.668Z</time></trkpt><trkpt lat="37.8570607" lon="12.5146717"><ele>47.5</ele><time>2026-04-28T07:36:40.668Z</time></trkpt><trkpt lat="37.8571707" lon="12.5147073"><ele>47.75</ele><time>2026-04-28T07:36:41.667Z</time></trkpt><trkpt lat="37.8572919" lon="12.5147441"><ele>48.0</ele><time>2026-04-28T07:36:42.666Z</time></trkpt><trkpt lat="37.8574168" lon="12.514782"><ele>48.0</ele><time>2026-04-28T07:36:43.668Z</time></trkpt><trkpt lat="37.8575501" lon="12.5148203"><ele>48.0</ele><time>2026-04-28T07:36:44.669Z</time></trkpt><trkpt lat="37.8576889" lon="12.5148542"><ele>48.0</ele><time>2026-04-28T07:36:45.668Z</time></trkpt><trkpt lat="37.8578363" lon="12.5149006"><ele>48.0</ele><time>2026-04-28T07:36:46.667Z</time></trkpt><trkpt lat="37.8579974" lon="12.5149492"><ele>47.666666666666664</ele><time>2026-04-28T07:36:47.668Z</time></trkpt><trkpt lat="37.8581577" lon="12.5149987"><ele>47.33333333333333</ele><time>2026-04-28T07:36:48.666Z</time></trkpt><trkpt lat="37.8583204" lon="12.5150415"><ele>47.0</ele><time>2026-04-28T07:36:49.666Z</time></trkpt><trkpt lat="37.8584853" lon="12.5150883"><ele>47.0</ele><time>2026-04-28T07:36:50.666Z</time></trkpt><trkpt lat="37.8586514" lon="12.515135"><ele>47.0</ele><time>2026-04-28T07:36:51.666Z</time></trkpt><trkpt lat="37.8588162" lon="12.5151796"><ele>47.0</ele><time>2026-04-28T07:36:52.666Z</time></trkpt><trkpt lat="37.858979" lon="12.5152183"><ele>47.0</ele><time>2026-04-28T07:36:53.667Z</time></trkpt><trkpt lat="37.8591402" lon="12.5152612"><ele>47.0</ele><time>2026-04-28T07:36:54.666Z</time></trkpt><trkpt lat="37.8593002" lon="12.515306"><ele>47.0</ele><time>2026-04-28T07:36:55.667Z</time></trkpt><trkpt lat="37.8594584" lon="12.5153483"><ele>47.5</ele><time>2026-04-28T07:36:56.668Z</time></trkpt><trkpt lat="37.8597593" lon="12.5154294"><ele>48.0</ele><time>2026-04-28T07:36:58.666Z</time></trkpt><trkpt lat="37.8599012" lon="12.515468"><ele>48.0</ele><time>2026-04-28T07:36:59.667Z</time></trkpt><trkpt lat="37.8600267" lon="12.5155008"><ele>48.0</ele><time>2026-04-28T07:37:00.667Z</time></trkpt><trkpt lat="37.8601363" lon="12.5155257"><ele>48.0</ele><time>2026-04-28T07:37:01.666Z</time></trkpt><trkpt lat="37.8602205" lon="12.5155451"><ele>48.0</ele><time>2026-04-28T07:37:02.667Z</time></trkpt><trkpt lat="37.8602891" lon="12.5155577"><ele>48.0</ele><time>2026-04-28T07:37:03.668Z</time></trkpt><trkpt lat="37.8603947" lon="12.5155561"><ele>48.0</ele><time>2026-04-28T07:37:05.667Z</time></trkpt><trkpt lat="37.8604774" lon="12.5155243"><ele>48.0</ele><time>2026-04-28T07:37:07.666Z</time></trkpt><trkpt lat="37.8605353" lon="12.5154892"><ele>48.0</ele><time>2026-04-28T07:37:09.668Z</time></trkpt><trkpt lat="37.860613" lon="12.5154539"><ele>48.0</ele><time>2026-04-28T07:37:13.667Z</time></trkpt><trkpt lat="37.8606967" lon="12.5154371"><ele>48.0</ele><time>2026-04-28T07:40:40.668Z</time></trkpt><trkpt lat="37.8607782" lon="12.515439"><ele>48.0</ele><time>2026-04-28T07:40:42.668Z</time></trkpt><trkpt lat="37.8608254" lon="12.5155188"><ele>48.0</ele><time>2026-04-28T07:40:44.667Z</time></trkpt><trkpt lat="37.8608582" lon="12.5156074"><ele>48.0</ele><time>2026-04-28T07:40:46.668Z</time></trkpt><trkpt lat="37.8609298" lon="12.5156788"><ele>48.0</ele><time>2026-04-28T07:40:48.667Z</time></trkpt><trkpt lat="37.8610342" lon="12.5157457"><ele>48.0</ele><time>2026-04-28T07:40:50.666Z</time></trkpt><trkpt lat="37.8611021" lon="12.5157895"><ele>48.0</ele><time>2026-04-28T07:40:51.668Z</time></trkpt><trkpt lat="37.8611874" lon="12.5158251"><ele>47.599999999999994</ele><time>2026-04-28T07:40:52.667Z</time></trkpt><trkpt lat="37.8612804" lon="12.5158548"><ele>47.199999999999996</ele><time>2026-04-28T07:40:53.667Z</time></trkpt><trkpt lat="37.8613811" lon="12.5158822"><ele>46.8</ele><time>2026-04-28T07:40:54.667Z</time></trkpt><trkpt lat="37.8614818" lon="12.5159123"><ele>46.4</ele><time>2026-04-28T07:40:55.668Z</time></trkpt><trkpt lat="37.8615871" lon="12.5159479"><ele>46.0</ele><time>2026-04-28T07:40:56.666Z</time></trkpt><trkpt lat="37.8617039" lon="12.515978"><ele>45.75</ele><time>2026-04-28T07:40:57.666Z</time></trkpt><trkpt lat="37.8618261" lon="12.5160122"><ele>45.5</ele><time>2026-04-28T07:40:58.668Z</time></trkpt><trkpt lat="37.8619495" lon="12.5160499"><ele>45.25</ele><time>2026-04-28T07:40:59.667Z</time></trkpt><trkpt lat="37.8620769" lon="12.5160815"><ele>45.0</ele><time>2026-04-28T07:41:00.667Z</time></trkpt><trkpt lat="37.8622115" lon="12.516116"><ele>45.0</ele><time>2026-04-28T07:41:01.667Z</time></trkpt><trkpt lat="37.8623464" lon="12.5161493"><ele>45.0</ele><time>2026-04-28T07:41:02.667Z</time></trkpt><trkpt lat="37.8624885" lon="12.5161891"><ele>45.0</ele><time>2026-04-28T07:41:03.667Z</time></trkpt><trkpt lat="37.8626221" lon="12.5162262"><ele>45.0</ele><time>2026-04-28T07:41:04.667Z</time></trkpt><trkpt lat="37.8627522" lon="12.5162596"><ele>46.0</ele><time>2026-04-28T07:41:05.668Z</time></trkpt><trkpt lat="37.8628727" lon="12.5162876"><ele>47.0</ele><time>2026-04-28T07:41:06.667Z</time></trkpt><trkpt lat="37.8629838" lon="12.5163197"><ele>48.0</ele><time>2026-04-28T07:41:07.667Z</time></trkpt><trkpt lat="37.8630931" lon="12.5163443"><ele>49.0</ele><time>2026-04-28T07:41:08.667Z</time></trkpt><trkpt lat="37.8632079" lon="12.5163778"><ele>49.0</ele><time>2026-04-28T07:41:09.668Z</time></trkpt><trkpt lat="37.8633301" lon="12.5164055"><ele>49.0</ele><time>2026-04-28T07:41:10.668Z</time></trkpt><trkpt lat="37.8634559" lon="12.5164355"><ele>49.0</ele><time>2026-04-28T07:41:11.667Z</time></trkpt><trkpt lat="37.8635865" lon="12.5164745"><ele>49.0</ele><time>2026-04-28T07:41:12.667Z</time></trkpt><trkpt lat="37.8637185" lon="12.5165104"><ele>48.75</ele><time>2026-04-28T07:41:13.668Z</time></trkpt><trkpt lat="37.863844" lon="12.5165422"><ele>48.5</ele><time>2026-04-28T07:41:14.669Z</time></trkpt><trkpt lat="37.8639684" lon="12.5165738"><ele>48.25</ele><time>2026-04-28T07:41:15.669Z</time></trkpt><trkpt lat="37.864099" lon="12.5165972"><ele>48.0</ele><time>2026-04-28T07:41:16.667Z</time></trkpt><trkpt lat="37.8642405" lon="12.5166297"><ele>47.75</ele><time>2026-04-28T07:41:17.667Z</time></trkpt><trkpt lat="37.8643781" lon="12.516667"><ele>47.5</ele><time>2026-04-28T07:41:18.668Z</time></trkpt><trkpt lat="37.86452" lon="12.5167142"><ele>47.25</ele><time>2026-04-28T07:41:19.668Z</time></trkpt><trkpt lat="37.8646684" lon="12.5167593"><ele>47.0</ele><time>2026-04-28T07:41:20.667Z</time></trkpt><trkpt lat="37.8648199" lon="12.5168068"><ele>47.0</ele><time>2026-04-28T07:41:21.668Z</time></trkpt><trkpt lat="37.8649787" lon="12.5168453"><ele>47.0</ele><time>2026-04-28T07:41:22.666Z</time></trkpt><trkpt lat="37.8651318" lon="12.5168863"><ele>47.0</ele><time>2026-04-28T07:41:23.668Z</time></trkpt><trkpt lat="37.8652842" lon="12.5169276"><ele>46.33333333333333</ele><time>2026-04-28T07:41:24.667Z</time></trkpt><trkpt lat="37.8654378" lon="12.516968"><ele>45.666666666666664</ele><time>2026-04-28T07:41:25.667Z</time></trkpt><trkpt lat="37.8655903" lon="12.5170113"><ele>45.0</ele><time>2026-04-28T07:41:26.668Z</time></trkpt><trkpt lat="37.8657445" lon="12.5170522"><ele>45.666666666666664</ele><time>2026-04-28T07:41:27.667Z</time></trkpt><trkpt lat="37.865903" lon="12.5170949"><ele>46.33333333333333</ele><time>2026-04-28T07:41:28.667Z</time></trkpt><trkpt lat="37.8660647" lon="12.5171331"><ele>47.0</ele><time>2026-04-28T07:41:29.667Z</time></trkpt><trkpt lat="37.8662287" lon="12.5171728"><ele>47.0</ele><time>2026-04-28T07:41:30.667Z</time></trkpt><trkpt lat="37.866392" lon="12.5172141"><ele>47.0</ele><time>2026-04-28T07:41:31.667Z</time></trkpt><trkpt lat="37.866568" lon="12.5172516"><ele>47.0</ele><time>2026-04-28T07:41:32.668Z</time></trkpt><trkpt lat="37.866738" lon="12.5172918"><ele>46.666666666666664</ele><time>2026-04-28T07:41:33.668Z</time></trkpt><trkpt lat="37.866916" lon="12.5173393"><ele>46.333333333333336</ele><time>2026-04-28T07:41:34.668Z</time></trkpt><trkpt lat="37.8670899" lon="12.5173838"><ele>46.0</ele><time>2026-04-28T07:41:35.667Z</time></trkpt><trkpt lat="37.8672626" lon="12.5174315"><ele>46.0</ele><time>2026-04-28T07:41:36.668Z</time></trkpt><trkpt lat="37.8674338" lon="12.5174785"><ele>46.0</ele><time>2026-04-28T07:41:37.668Z</time></trkpt><trkpt lat="37.8676057" lon="12.5175327"><ele>46.0</ele><time>2026-04-28T07:41:38.668Z</time></trkpt><trkpt lat="37.8677749" lon="12.5175942"><ele>46.0</ele><time>2026-04-28T07:41:39.668Z</time></trkpt><trkpt lat="37.867944" lon="12.5176515"><ele>46.0</ele><time>2026-04-28T07:41:40.668Z</time></trkpt><trkpt lat="37.8681131" lon="12.5177127"><ele>46.0</ele><time>2026-04-28T07:41:41.668Z</time></trkpt><trkpt lat="37.8682841" lon="12.5177704"><ele>46.333333333333336</ele><time>2026-04-28T07:41:42.667Z</time></trkpt><trkpt lat="37.8684556" lon="12.5178322"><ele>46.666666666666664</ele><time>2026-04-28T07:41:43.668Z</time></trkpt><trkpt lat="37.8686299" lon="12.5178953"><ele>47.0</ele><time>2026-04-28T07:41:44.668Z</time></trkpt><trkpt lat="37.8688022" lon="12.5179614"><ele>47.0</ele><time>2026-04-28T07:41:45.667Z</time></trkpt><trkpt lat="37.8689792" lon="12.5180201"><ele>47.0</ele><time>2026-04-28T07:41:46.667Z</time></trkpt><trkpt lat="37.8691605" lon="12.5180867"><ele>47.0</ele><time>2026-04-28T07:41:47.668Z</time></trkpt><trkpt lat="37.8693436" lon="12.5181556"><ele>46.33333333333333</ele><time>2026-04-28T07:41:48.667Z</time></trkpt><trkpt lat="37.8695217" lon="12.5182194"><ele>45.666666666666664</ele><time>2026-04-28T07:41:49.667Z</time></trkpt><trkpt lat="37.8697044" lon="12.5182808"><ele>45.0</ele><time>2026-04-28T07:41:50.667Z</time></trkpt><trkpt lat="37.8698874" lon="12.5183436"><ele>45.0</ele><time>2026-04-28T07:41:51.667Z</time></trkpt><trkpt lat="37.8700695" lon="12.518417"><ele>45.0</ele><time>2026-04-28T07:41:52.667Z</time></trkpt><trkpt lat="37.8702538" lon="12.5184849"><ele>45.0</ele><time>2026-04-28T07:41:53.668Z</time></trkpt><trkpt lat="37.8704453" lon="12.5185514"><ele>45.0</ele><time>2026-04-28T07:41:54.668Z</time></trkpt><trkpt lat="37.8706343" lon="12.5186225"><ele>45.0</ele><time>2026-04-28T07:41:55.668Z</time></trkpt><trkpt lat="37.8708284" lon="12.5186927"><ele>45.0</ele><time>2026-04-28T07:41:56.667Z</time></trkpt><trkpt lat="37.8710248" lon="12.5187621"><ele>45.0</ele><time>2026-04-28T07:41:57.667Z</time></trkpt><trkpt lat="37.8712221" lon="12.5188358"><ele>45.0</ele><time>2026-04-28T07:41:58.667Z</time></trkpt><trkpt lat="37.8714098" lon="12.5189011"><ele>45.0</ele><time>2026-04-28T07:41:59.667Z</time></trkpt><trkpt lat="37.8715902" lon="12.5189721"><ele>45.0</ele><time>2026-04-28T07:42:00.667Z</time></trkpt><trkpt lat="37.8717585" lon="12.5190475"><ele>45.0</ele><time>2026-04-28T07:42:01.667Z</time></trkpt><trkpt lat="37.8719118" lon="12.5191214"><ele>45.0</ele><time>2026-04-28T07:42:02.668Z</time></trkpt><trkpt lat="37.8720596" lon="12.519203"><ele>45.333333333333336</ele><time>2026-04-28T07:42:03.667Z</time></trkpt><trkpt lat="37.8722027" lon="12.5192865"><ele>45.66666666666667</ele><time>2026-04-28T07:42:04.667Z</time></trkpt><trkpt lat="37.8723467" lon="12.519365"><ele>46.0</ele><time>2026-04-28T07:42:05.667Z</time></trkpt><trkpt lat="37.8724943" lon="12.5194517"><ele>45.333333333333336</ele><time>2026-04-28T07:42:06.668Z</time></trkpt><trkpt lat="37.8726454" lon="12.5195394"><ele>44.666666666666664</ele><time>2026-04-28T07:42:07.668Z</time></trkpt><trkpt lat="37.8727895" lon="12.5196218"><ele>44.0</ele><time>2026-04-28T07:42:08.667Z</time></trkpt><trkpt lat="37.8729328" lon="12.5197076"><ele>45.33333333333333</ele><time>2026-04-28T07:42:09.667Z</time></trkpt><trkpt lat="37.8730709" lon="12.5197899"><ele>46.666666666666664</ele><time>2026-04-28T07:42:10.668Z</time></trkpt><trkpt lat="37.8732065" lon="12.5198755"><ele>48.0</ele><time>2026-04-28T07:42:11.668Z</time></trkpt><trkpt lat="37.8733436" lon="12.5199699"><ele>46.666666666666664</ele><time>2026-04-28T07:42:12.667Z</time></trkpt><trkpt lat="37.8734833" lon="12.520071"><ele>45.33333333333333</ele><time>2026-04-28T07:42:13.667Z</time></trkpt><trkpt lat="37.8736305" lon="12.5201716"><ele>44.0</ele><time>2026-04-28T07:42:14.669Z</time></trkpt><trkpt lat="37.8737785" lon="12.5202745"><ele>44.0</ele><time>2026-04-28T07:42:15.669Z</time></trkpt><trkpt lat="37.8739326" lon="12.5203833"><ele>44.0</ele><time>2026-04-28T07:42:16.667Z</time></trkpt><trkpt lat="37.8740833" lon="12.5204945"><ele>44.0</ele><time>2026-04-28T07:42:17.667Z</time></trkpt><trkpt lat="37.8742381" lon="12.5206163"><ele>42.666666666666664</ele><time>2026-04-28T07:42:18.668Z</time></trkpt><trkpt lat="37.8743874" lon="12.5207541"><ele>41.333333333333336</ele><time>2026-04-28T07:42:19.667Z</time></trkpt><trkpt lat="37.8745335" lon="12.5209019"><ele>40.0</ele><time>2026-04-28T07:42:20.667Z</time></trkpt><trkpt lat="37.8746793" lon="12.5210641"><ele>40.0</ele><time>2026-04-28T07:42:21.667Z</time></trkpt><trkpt lat="37.8748204" lon="12.5212311"><ele>40.0</ele><time>2026-04-28T07:42:22.668Z</time></trkpt><trkpt lat="37.8749647" lon="12.521412"><ele>40.0</ele><time>2026-04-28T07:42:23.668Z</time></trkpt><trkpt lat="37.8751114" lon="12.5215883"><ele>39.333333333333336</ele><time>2026-04-28T07:42:24.667Z</time></trkpt><trkpt lat="37.8752632" lon="12.5217687"><ele>38.666666666666664</ele><time>2026-04-28T07:42:25.667Z</time></trkpt><trkpt lat="37.8754302" lon="12.5219148"><ele>38.0</ele><time>2026-04-28T07:42:26.668Z</time></trkpt><trkpt lat="37.8756091" lon="12.5220274"><ele>40.33333333333333</ele><time>2026-04-28T07:42:27.668Z</time></trkpt><trkpt lat="37.8757979" lon="12.5221131"><ele>42.666666666666664</ele><time>2026-04-28T07:42:28.668Z</time></trkpt><trkpt lat="37.8759965" lon="12.522173"><ele>45.0</ele><time>2026-04-28T07:42:29.668Z</time></trkpt><trkpt lat="37.8762027" lon="12.5222079"><ele>45.0</ele><time>2026-04-28T07:42:30.667Z</time></trkpt><trkpt lat="37.876412" lon="12.5222336"><ele>45.0</ele><time>2026-04-28T07:42:31.668Z</time></trkpt><trkpt lat="37.8768296" lon="12.5222799"><ele>46.0</ele><time>2026-04-28T07:42:33.667Z</time></trkpt><trkpt lat="37.8770393" lon="12.5223069"><ele>47.0</ele><time>2026-04-28T07:42:34.668Z</time></trkpt><trkpt lat="37.8772506" lon="12.5223252"><ele>48.0</ele><time>2026-04-28T07:42:35.667Z</time></trkpt><trkpt lat="37.8774521" lon="12.522348"><ele>48.0</ele><time>2026-04-28T07:42:36.667Z</time></trkpt><trkpt lat="37.8778338" lon="12.5223935"><ele>48.0</ele><time>2026-04-28T07:42:38.667Z</time></trkpt><trkpt lat="37.8780231" lon="12.5224129"><ele>48.0</ele><time>2026-04-28T07:42:39.669Z</time></trkpt><trkpt lat="37.8782088" lon="12.5224308"><ele>48.0</ele><time>2026-04-28T07:42:40.667Z</time></trkpt><trkpt lat="37.8783894" lon="12.5224474"><ele>48.0</ele><time>2026-04-28T07:42:41.668Z</time></trkpt><trkpt lat="37.8785631" lon="12.5224654"><ele>46.333333333333336</ele><time>2026-04-28T07:42:42.669Z</time></trkpt><trkpt lat="37.8787319" lon="12.522487"><ele>44.66666666666667</ele><time>2026-04-28T07:42:43.667Z</time></trkpt><trkpt lat="37.8789013" lon="12.5225373"><ele>43.0</ele><time>2026-04-28T07:42:44.668Z</time></trkpt><trkpt lat="37.8790627" lon="12.5226209"><ele>43.0</ele><time>2026-04-28T07:42:45.668Z</time></trkpt><trkpt lat="37.8792202" lon="12.5227267"><ele>43.0</ele><time>2026-04-28T07:42:46.667Z</time></trkpt><trkpt lat="37.8793802" lon="12.5228497"><ele>43.0</ele><time>2026-04-28T07:42:47.667Z</time></trkpt><trkpt lat="37.8795448" lon="12.5229826"><ele>41.333333333333336</ele><time>2026-04-28T07:42:48.667Z</time></trkpt><trkpt lat="37.8797138" lon="12.5231202"><ele>39.666666666666664</ele><time>2026-04-28T07:42:49.667Z</time></trkpt><trkpt lat="37.8798832" lon="12.5232608"><ele>38.0</ele><time>2026-04-28T07:42:50.667Z</time></trkpt><trkpt lat="37.8800546" lon="12.5234051"><ele>37.33333333333333</ele><time>2026-04-28T07:42:51.667Z</time></trkpt><trkpt lat="37.8802296" lon="12.5235519"><ele>36.666666666666664</ele><time>2026-04-28T07:42:52.668Z</time></trkpt><trkpt lat="37.8804114" lon="12.5236949"><ele>36.0</ele><time>2026-04-28T07:42:53.667Z</time></trkpt><trkpt lat="37.8805871" lon="12.5238452"><ele>36.0</ele><time>2026-04-28T07:42:54.668Z</time></trkpt><trkpt lat="37.880768" lon="12.5239992"><ele>36.0</ele><time>2026-04-28T07:42:55.667Z</time></trkpt><trkpt lat="37.8809501" lon="12.5241539"><ele>36.0</ele><time>2026-04-28T07:42:56.667Z</time></trkpt><trkpt lat="37.8811327" lon="12.5243056"><ele>31.666666666666668</ele><time>2026-04-28T07:42:57.668Z</time></trkpt><trkpt lat="37.8813147" lon="12.5244634"><ele>27.333333333333336</ele><time>2026-04-28T07:42:58.668Z</time></trkpt><trkpt lat="37.8814937" lon="12.5246197"><ele>23.0</ele><time>2026-04-28T07:42:59.667Z</time></trkpt><trkpt lat="37.8816741" lon="12.524763"><ele>22.0</ele><time>2026-04-28T07:43:00.668Z</time></trkpt><trkpt lat="37.881857" lon="12.5249027"><ele>21.0</ele><time>2026-04-28T07:43:01.667Z</time></trkpt><trkpt lat="37.8820412" lon="12.5250398"><ele>20.0</ele><time>2026-04-28T07:43:02.668Z</time></trkpt><trkpt lat="37.8822254" lon="12.5251508"><ele>20.0</ele><time>2026-04-28T07:43:03.667Z</time></trkpt><trkpt lat="37.8824235" lon="12.5252488"><ele>20.0</ele><time>2026-04-28T07:43:04.668Z</time></trkpt><trkpt lat="37.8828287" lon="12.5253654"><ele>20.0</ele><time>2026-04-28T07:43:06.668Z</time></trkpt><trkpt lat="37.8830332" lon="12.5253935"><ele>20.0</ele><time>2026-04-28T07:43:07.667Z</time></trkpt><trkpt lat="37.8832413" lon="12.5254258"><ele>20.0</ele><time>2026-04-28T07:43:08.667Z</time></trkpt><trkpt lat="37.8836564" lon="12.5254835"><ele>20.0</ele><time>2026-04-28T07:43:10.669Z</time></trkpt><trkpt lat="37.8838598" lon="12.5255103"><ele>20.0</ele><time>2026-04-28T07:43:11.667Z</time></trkpt><trkpt lat="37.8840605" lon="12.5255482"><ele>20.0</ele><time>2026-04-28T07:43:12.667Z</time></trkpt><trkpt lat="37.8842649" lon="12.5255803"><ele>21.666666666666668</ele><time>2026-04-28T07:43:13.67Z</time></trkpt><trkpt lat="37.8844598" lon="12.5256041"><ele>23.333333333333336</ele><time>2026-04-28T07:43:14.667Z</time></trkpt><trkpt lat="37.8846432" lon="12.5256321"><ele>25.0</ele><time>2026-04-28T07:43:15.669Z</time></trkpt><trkpt lat="37.8848121" lon="12.5256525"><ele>25.0</ele><time>2026-04-28T07:43:16.668Z</time></trkpt><trkpt lat="37.8849613" lon="12.5256724"><ele>25.0</ele><time>2026-04-28T07:43:17.668Z</time></trkpt><trkpt lat="37.8850945" lon="12.525693"><ele>25.0</ele><time>2026-04-28T07:43:18.667Z</time></trkpt><trkpt lat="37.8852886" lon="12.5257621"><ele>26.6</ele><time>2026-04-28T07:43:20.669Z</time></trkpt><trkpt lat="37.8853622" lon="12.525835"><ele>28.2</ele><time>2026-04-28T07:43:21.667Z</time></trkpt><trkpt lat="37.88543" lon="12.5259203"><ele>29.799999999999997</ele><time>2026-04-28T07:43:22.667Z</time></trkpt><trkpt lat="37.8854702" lon="12.5260635"><ele>31.4</ele><time>2026-04-28T07:43:23.668Z</time></trkpt><trkpt lat="37.8854939" lon="12.5262049"><ele>33.0</ele><time>2026-04-28T07:43:24.667Z</time></trkpt><trkpt lat="37.8855028" lon="12.5263651"><ele>33.75</ele><time>2026-04-28T07:43:25.668Z</time></trkpt><trkpt lat="37.8854987" lon="12.5265352"><ele>34.5</ele><time>2026-04-28T07:43:26.669Z</time></trkpt><trkpt lat="37.8854714" lon="12.526705"><ele>35.25</ele><time>2026-04-28T07:43:27.667Z</time></trkpt><trkpt lat="37.8854297" lon="12.5268636"><ele>36.0</ele><time>2026-04-28T07:43:28.67Z</time></trkpt><trkpt lat="37.8853602" lon="12.5269967"><ele>35.0</ele><time>2026-04-28T07:43:29.667Z</time></trkpt><trkpt lat="37.8852711" lon="12.5271094"><ele>34.0</ele><time>2026-04-28T07:43:30.669Z</time></trkpt><trkpt lat="37.8851613" lon="12.5272231"><ele>33.0</ele><time>2026-04-28T07:43:31.667Z</time></trkpt><trkpt lat="37.8850361" lon="12.5273234"><ele>32.0</ele><time>2026-04-28T07:43:32.667Z</time></trkpt><trkpt lat="37.8849001" lon="12.5274237"><ele>32.0</ele><time>2026-04-28T07:43:33.667Z</time></trkpt><trkpt lat="37.8847656" lon="12.5275252"><ele>32.0</ele><time>2026-04-28T07:43:34.667Z</time></trkpt><trkpt lat="37.8846329" lon="12.527628"><ele>32.0</ele><time>2026-04-28T07:43:35.668Z</time></trkpt><trkpt lat="37.8844944" lon="12.5277174"><ele>32.0</ele><time>2026-04-28T07:43:36.667Z</time></trkpt><trkpt lat="37.8843568" lon="12.5278096"><ele>32.0</ele><time>2026-04-28T07:43:37.669Z</time></trkpt><trkpt lat="37.8842345" lon="12.5278923"><ele>32.0</ele><time>2026-04-28T07:43:38.669Z</time></trkpt><trkpt lat="37.8841422" lon="12.5279616"><ele>32.0</ele><time>2026-04-28T07:43:39.669Z</time></trkpt><trkpt lat="37.8840652" lon="12.5280357"><ele>30.6</ele><time>2026-04-28T07:43:40.669Z</time></trkpt><trkpt lat="37.8840026" lon="12.5281224"><ele>29.200000000000003</ele><time>2026-04-28T07:43:41.668Z</time></trkpt><trkpt lat="37.8839538" lon="12.5282363"><ele>27.8</ele><time>2026-04-28T07:43:42.668Z</time></trkpt><trkpt lat="37.8839287" lon="12.5283794"><ele>26.4</ele><time>2026-04-28T07:43:43.668Z</time></trkpt><trkpt lat="37.8839234" lon="12.5285376"><ele>25.0</ele><time>2026-04-28T07:43:44.669Z</time></trkpt><trkpt lat="37.8839262" lon="12.5286994"><ele>25.75</ele><time>2026-04-28T07:43:45.668Z</time></trkpt><trkpt lat="37.8839298" lon="12.5288639"><ele>26.5</ele><time>2026-04-28T07:43:46.668Z</time></trkpt><trkpt lat="37.8839393" lon="12.5290295"><ele>27.25</ele><time>2026-04-28T07:43:47.667Z</time></trkpt><trkpt lat="37.8839438" lon="12.5291853"><ele>28.0</ele><time>2026-04-28T07:43:48.668Z</time></trkpt><trkpt lat="37.8839522" lon="12.5293325"><ele>28.0</ele><time>2026-04-28T07:43:49.668Z</time></trkpt><trkpt lat="37.8839631" lon="12.5294734"><ele>28.0</ele><time>2026-04-28T07:43:50.669Z</time></trkpt><trkpt lat="37.8839805" lon="12.529628"><ele>28.0</ele><time>2026-04-28T07:43:51.667Z</time></trkpt><trkpt lat="37.8839882" lon="12.5297962"><ele>28.0</ele><time>2026-04-28T07:43:52.668Z</time></trkpt><trkpt lat="37.8839843" lon="12.5299737"><ele>28.666666666666668</ele><time>2026-04-28T07:43:53.667Z</time></trkpt><trkpt lat="37.8839869" lon="12.5301679"><ele>29.333333333333336</ele><time>2026-04-28T07:43:54.668Z</time></trkpt><trkpt lat="37.8839921" lon="12.5303701"><ele>30.0</ele><time>2026-04-28T07:43:55.669Z</time></trkpt><trkpt lat="37.8839984" lon="12.5305782"><ele>30.0</ele><time>2026-04-28T07:43:56.669Z</time></trkpt><trkpt lat="37.8840103" lon="12.5307821"><ele>30.0</ele><time>2026-04-28T07:43:57.667Z</time></trkpt><trkpt lat="37.8840313" lon="12.530985"><ele>30.0</ele><time>2026-04-28T07:43:58.668Z</time></trkpt><trkpt lat="37.8840616" lon="12.5311895"><ele>29.333333333333336</ele><time>2026-04-28T07:43:59.668Z</time></trkpt><trkpt lat="37.8841082" lon="12.5313951"><ele>28.666666666666668</ele><time>2026-04-28T07:44:00.667Z</time></trkpt><trkpt lat="37.8841589" lon="12.5315997"><ele>28.0</ele><time>2026-04-28T07:44:01.669Z</time></trkpt><trkpt lat="37.8842613" lon="12.5320227"><ele>30.0</ele><time>2026-04-28T07:44:03.667Z</time></trkpt><trkpt lat="37.8843052" lon="12.5322191"><ele>32.0</ele><time>2026-04-28T07:44:04.668Z</time></trkpt><trkpt lat="37.8843496" lon="12.5324075"><ele>34.0</ele><time>2026-04-28T07:44:05.668Z</time></trkpt><trkpt lat="37.8843751" lon="12.5325906"><ele>34.0</ele><time>2026-04-28T07:44:06.667Z</time></trkpt><trkpt lat="37.8843696" lon="12.5327758"><ele>34.0</ele><time>2026-04-28T07:44:07.669Z</time></trkpt><trkpt lat="37.8843382" lon="12.5329608"><ele>34.0</ele><time>2026-04-28T07:44:08.668Z</time></trkpt><trkpt lat="37.8842909" lon="12.533156"><ele>34.0</ele><time>2026-04-28T07:44:09.668Z</time></trkpt><trkpt lat="37.8842354" lon="12.533355"><ele>34.0</ele><time>2026-04-28T07:44:10.669Z</time></trkpt><trkpt lat="37.884172" lon="12.533566"><ele>34.0</ele><time>2026-04-28T07:44:11.667Z</time></trkpt><trkpt lat="37.8841067" lon="12.5337847"><ele>34.0</ele><time>2026-04-28T07:44:12.67Z</time></trkpt><trkpt lat="37.8840414" lon="12.5340125"><ele>34.0</ele><time>2026-04-28T07:44:13.667Z</time></trkpt><trkpt lat="37.8839778" lon="12.5342435"><ele>34.0</ele><time>2026-04-28T07:44:14.669Z</time></trkpt><trkpt lat="37.8839118" lon="12.5344651"><ele>35.0</ele><time>2026-04-28T07:44:15.668Z</time></trkpt><trkpt lat="37.8838473" lon="12.5346848"><ele>36.0</ele><time>2026-04-28T07:44:16.668Z</time></trkpt><trkpt lat="37.8837107" lon="12.5351355"><ele>36.0</ele><time>2026-04-28T07:44:18.668Z</time></trkpt><trkpt lat="37.8836391" lon="12.5353636"><ele>36.0</ele><time>2026-04-28T07:44:19.667Z</time></trkpt><trkpt lat="37.8835736" lon="12.5355967"><ele>36.0</ele><time>2026-04-28T07:44:20.668Z</time></trkpt><trkpt lat="37.883511" lon="12.5358368"><ele>37.333333333333336</ele><time>2026-04-28T07:44:21.668Z</time></trkpt><trkpt lat="37.8834649" lon="12.5360784"><ele>38.66666666666667</ele><time>2026-04-28T07:44:22.669Z</time></trkpt><trkpt lat="37.8834228" lon="12.5363148"><ele>40.0</ele><time>2026-04-28T07:44:23.668Z</time></trkpt><trkpt lat="37.8833819" lon="12.5365428"><ele>36.0</ele><time>2026-04-28T07:44:24.667Z</time></trkpt><trkpt lat="37.8833414" lon="12.5367812"><ele>32.0</ele><time>2026-04-28T07:44:25.667Z</time></trkpt><trkpt lat="37.8832996" lon="12.5370174"><ele>28.0</ele><time>2026-04-28T07:44:26.669Z</time></trkpt><trkpt lat="37.8832559" lon="12.5372564"><ele>27.666666666666668</ele><time>2026-04-28T07:44:27.669Z</time></trkpt><trkpt lat="37.883214" lon="12.5374976"><ele>27.333333333333336</ele><time>2026-04-28T07:44:28.669Z</time></trkpt><trkpt lat="37.8831707" lon="12.5377389"><ele>27.0</ele><time>2026-04-28T07:44:29.667Z</time></trkpt><trkpt lat="37.8831274" lon="12.5379801"><ele>28.666666666666664</ele><time>2026-04-28T07:44:30.669Z</time></trkpt><trkpt lat="37.883087" lon="12.5382224"><ele>30.333333333333332</ele><time>2026-04-28T07:44:31.669Z</time></trkpt><trkpt lat="37.8830456" lon="12.5384647"><ele>32.0</ele><time>2026-04-28T07:44:32.669Z</time></trkpt><trkpt lat="37.8830052" lon="12.5387031"><ele>35.0</ele><time>2026-04-28T07:44:33.668Z</time></trkpt><trkpt lat="37.8829625" lon="12.5389405"><ele>38.0</ele><time>2026-04-28T07:44:34.667Z</time></trkpt><trkpt lat="37.8829244" lon="12.5391745"><ele>41.0</ele><time>2026-04-28T07:44:35.667Z</time></trkpt><trkpt lat="37.8828869" lon="12.539413"><ele>42.33333333333333</ele><time>2026-04-28T07:44:36.668Z</time></trkpt><trkpt lat="37.8828454" lon="12.5396508"><ele>43.666666666666664</ele><time>2026-04-28T07:44:37.667Z</time></trkpt><trkpt lat="37.8828037" lon="12.5398835"><ele>45.0</ele><time>2026-04-28T07:44:38.667Z</time></trkpt><trkpt lat="37.8827648" lon="12.5401064"><ele>45.0</ele><time>2026-04-28T07:44:39.668Z</time></trkpt><trkpt lat="37.8827318" lon="12.5403168"><ele>45.0</ele><time>2026-04-28T07:44:40.669Z</time></trkpt><trkpt lat="37.8827045" lon="12.5404857"><ele>45.0</ele><time>2026-04-28T07:44:41.668Z</time></trkpt><trkpt lat="37.8826846" lon="12.5406256"><ele>45.0</ele><time>2026-04-28T07:44:42.668Z</time></trkpt><trkpt lat="37.882672" lon="12.5407448"><ele>45.0</ele><time>2026-04-28T07:44:43.667Z</time></trkpt><trkpt lat="37.8826568" lon="12.5408614"><ele>45.0</ele><time>2026-04-28T07:44:44.668Z</time></trkpt><trkpt lat="37.882638" lon="12.5409794"><ele>45.0</ele><time>2026-04-28T07:44:45.668Z</time></trkpt><trkpt lat="37.8826148" lon="12.5411175"><ele>45.0</ele><time>2026-04-28T07:44:46.667Z</time></trkpt><trkpt lat="37.8825969" lon="12.5412614"><ele>45.0</ele><time>2026-04-28T07:44:47.668Z</time></trkpt><trkpt lat="37.882587" lon="12.541411"><ele>44.25</ele><time>2026-04-28T07:44:48.669Z</time></trkpt><trkpt lat="37.8825855" lon="12.5415601"><ele>43.5</ele><time>2026-04-28T07:44:49.668Z</time></trkpt><trkpt lat="37.882594" lon="12.5417215"><ele>42.75</ele><time>2026-04-28T07:44:50.67Z</time></trkpt><trkpt lat="37.8826071" lon="12.5418934"><ele>42.0</ele><time>2026-04-28T07:44:51.668Z</time></trkpt><trkpt lat="37.8826179" lon="12.5420768"><ele>40.0</ele><time>2026-04-28T07:44:52.667Z</time></trkpt><trkpt lat="37.8826267" lon="12.5422698"><ele>38.0</ele><time>2026-04-28T07:44:53.667Z</time></trkpt><trkpt lat="37.8826366" lon="12.5424744"><ele>36.0</ele><time>2026-04-28T07:44:54.667Z</time></trkpt><trkpt lat="37.8826378" lon="12.542673"><ele>36.333333333333336</ele><time>2026-04-28T07:44:55.668Z</time></trkpt><trkpt lat="37.8826437" lon="12.542886"><ele>36.66666666666667</ele><time>2026-04-28T07:44:56.667Z</time></trkpt><trkpt lat="37.8826493" lon="12.5430962"><ele>37.0</ele><time>2026-04-28T07:44:57.668Z</time></trkpt><trkpt lat="37.8826555" lon="12.5433167"><ele>37.0</ele><time>2026-04-28T07:44:58.668Z</time></trkpt><trkpt lat="37.8826595" lon="12.5435433"><ele>37.0</ele><time>2026-04-28T07:44:59.668Z</time></trkpt><trkpt lat="37.882665" lon="12.5437765"><ele>37.0</ele><time>2026-04-28T07:45:00.668Z</time></trkpt><trkpt lat="37.8826696" lon="12.5440065"><ele>37.0</ele><time>2026-04-28T07:45:01.669Z</time></trkpt><trkpt lat="37.8826779" lon="12.544232"><ele>37.0</ele><time>2026-04-28T07:45:02.668Z</time></trkpt><trkpt lat="37.8826914" lon="12.5444473"><ele>37.0</ele><time>2026-04-28T07:45:03.669Z</time></trkpt><trkpt lat="37.8826965" lon="12.5446463"><ele>37.0</ele><time>2026-04-28T07:45:04.669Z</time></trkpt><trkpt lat="37.8827076" lon="12.5448409"><ele>37.0</ele><time>2026-04-28T07:45:05.668Z</time></trkpt><trkpt lat="37.8827198" lon="12.545038"><ele>37.0</ele><time>2026-04-28T07:45:06.667Z</time></trkpt><trkpt lat="37.8827332" lon="12.5452365"><ele>36.66666666666667</ele><time>2026-04-28T07:45:07.668Z</time></trkpt><trkpt lat="37.8827469" lon="12.5454332"><ele>36.333333333333336</ele><time>2026-04-28T07:45:08.669Z</time></trkpt><trkpt lat="37.8827538" lon="12.5456383"><ele>36.0</ele><time>2026-04-28T07:45:09.668Z</time></trkpt><trkpt lat="37.8827407" lon="12.5458365"><ele>36.0</ele><time>2026-04-28T07:45:10.667Z</time></trkpt><trkpt lat="37.882711" lon="12.546045"><ele>36.0</ele><time>2026-04-28T07:45:11.669Z</time></trkpt><trkpt lat="37.8826547" lon="12.5462561"><ele>36.0</ele><time>2026-04-28T07:45:12.667Z</time></trkpt><trkpt lat="37.8825833" lon="12.5464578"><ele>34.333333333333336</ele><time>2026-04-28T07:45:13.669Z</time></trkpt><trkpt lat="37.882505" lon="12.5466737"><ele>32.66666666666667</ele><time>2026-04-28T07:45:14.668Z</time></trkpt><trkpt lat="37.8824232" lon="12.5468907"><ele>31.0</ele><time>2026-04-28T07:45:15.668Z</time></trkpt><trkpt lat="37.8823389" lon="12.5471191"><ele>30.333333333333336</ele><time>2026-04-28T07:45:16.668Z</time></trkpt><trkpt lat="37.8822405" lon="12.547353"><ele>29.666666666666664</ele><time>2026-04-28T07:45:17.668Z</time></trkpt><trkpt lat="37.882151" lon="12.5475952"><ele>29.0</ele><time>2026-04-28T07:45:18.669Z</time></trkpt><trkpt lat="37.8820591" lon="12.5478401"><ele>29.666666666666664</ele><time>2026-04-28T07:45:19.667Z</time></trkpt><trkpt lat="37.8819664" lon="12.5480902"><ele>30.333333333333336</ele><time>2026-04-28T07:45:20.669Z</time></trkpt><trkpt lat="37.881877" lon="12.5483254"><ele>31.0</ele><time>2026-04-28T07:45:21.669Z</time></trkpt><trkpt lat="37.8817946" lon="12.5485589"><ele>28.666666666666668</ele><time>2026-04-28T07:45:22.669Z</time></trkpt><trkpt lat="37.8817081" lon="12.5487882"><ele>26.333333333333336</ele><time>2026-04-28T07:45:23.667Z</time></trkpt><trkpt lat="37.8816223" lon="12.5490117"><ele>24.0</ele><time>2026-04-28T07:45:24.667Z</time></trkpt><trkpt lat="37.8815442" lon="12.5492321"><ele>24.0</ele><time>2026-04-28T07:45:25.669Z</time></trkpt><trkpt lat="37.8814637" lon="12.5494384"><ele>24.0</ele><time>2026-04-28T07:45:26.668Z</time></trkpt><trkpt lat="37.8813841" lon="12.5496471"><ele>24.0</ele><time>2026-04-28T07:45:27.668Z</time></trkpt><trkpt lat="37.8813043" lon="12.5498577"><ele>24.666666666666664</ele><time>2026-04-28T07:45:28.668Z</time></trkpt><trkpt lat="37.8812208" lon="12.5500667"><ele>25.333333333333332</ele><time>2026-04-28T07:45:29.668Z</time></trkpt><trkpt lat="37.8811459" lon="12.5502782"><ele>26.0</ele><time>2026-04-28T07:45:30.668Z</time></trkpt><trkpt lat="37.881071" lon="12.5504961"><ele>26.0</ele><time>2026-04-28T07:45:31.668Z</time></trkpt><trkpt lat="37.8809929" lon="12.5507114"><ele>26.0</ele><time>2026-04-28T07:45:32.668Z</time></trkpt><trkpt lat="37.8809132" lon="12.5509273"><ele>26.0</ele><time>2026-04-28T07:45:33.669Z</time></trkpt><trkpt lat="37.880825" lon="12.5511414"><ele>25.666666666666664</ele><time>2026-04-28T07:45:34.668Z</time></trkpt><trkpt lat="37.8807445" lon="12.5513695"><ele>25.333333333333336</ele><time>2026-04-28T07:45:35.668Z</time></trkpt><trkpt lat="37.8806624" lon="12.551601"><ele>25.0</ele><time>2026-04-28T07:45:36.668Z</time></trkpt><trkpt lat="37.8805728" lon="12.5518266"><ele>24.666666666666668</ele><time>2026-04-28T07:45:37.668Z</time></trkpt><trkpt lat="37.8804877" lon="12.5520555"><ele>24.333333333333336</ele><time>2026-04-28T07:45:38.668Z</time></trkpt><trkpt lat="37.8804024" lon="12.552293"><ele>24.0</ele><time>2026-04-28T07:45:39.667Z</time></trkpt><trkpt lat="37.8803156" lon="12.5525129"><ele>24.0</ele><time>2026-04-28T07:45:40.667Z</time></trkpt><trkpt lat="37.8802328" lon="12.5527305"><ele>24.0</ele><time>2026-04-28T07:45:41.668Z</time></trkpt><trkpt lat="37.8801467" lon="12.5529364"><ele>24.0</ele><time>2026-04-28T07:45:42.67Z</time></trkpt><trkpt lat="37.880065" lon="12.5531461"><ele>24.333333333333336</ele><time>2026-04-28T07:45:43.667Z</time></trkpt><trkpt lat="37.8799891" lon="12.5533537"><ele>24.666666666666668</ele><time>2026-04-28T07:45:44.67Z</time></trkpt><trkpt lat="37.8799083" lon="12.5535705"><ele>25.0</ele><time>2026-04-28T07:45:45.669Z</time></trkpt><trkpt lat="37.8798289" lon="12.5537877"><ele>25.333333333333336</ele><time>2026-04-28T07:45:46.667Z</time></trkpt><trkpt lat="37.87975" lon="12.5540015"><ele>25.666666666666664</ele><time>2026-04-28T07:45:47.668Z</time></trkpt><trkpt lat="37.8796666" lon="12.5542283"><ele>26.0</ele><time>2026-04-28T07:45:48.669Z</time></trkpt><trkpt lat="37.8795876" lon="12.554459"><ele>26.0</ele><time>2026-04-28T07:45:49.669Z</time></trkpt><trkpt lat="37.8795049" lon="12.5546781"><ele>26.0</ele><time>2026-04-28T07:45:50.669Z</time></trkpt><trkpt lat="37.8794281" lon="12.554892"><ele>26.0</ele><time>2026-04-28T07:45:51.669Z</time></trkpt><trkpt lat="37.8793506" lon="12.5551018"><ele>26.0</ele><time>2026-04-28T07:45:52.667Z</time></trkpt><trkpt lat="37.8792741" lon="12.5553136"><ele>26.0</ele><time>2026-04-28T07:45:53.668Z</time></trkpt><trkpt lat="37.8791982" lon="12.5555217"><ele>26.0</ele><time>2026-04-28T07:45:54.668Z</time></trkpt><trkpt lat="37.8791237" lon="12.5557344"><ele>26.0</ele><time>2026-04-28T07:45:55.668Z</time></trkpt><trkpt lat="37.8790478" lon="12.5559479"><ele>26.0</ele><time>2026-04-28T07:45:56.667Z</time></trkpt><trkpt lat="37.8789644" lon="12.55616"><ele>26.0</ele><time>2026-04-28T07:45:57.669Z</time></trkpt><trkpt lat="37.8788836" lon="12.5563756"><ele>26.333333333333332</ele><time>2026-04-28T07:45:58.669Z</time></trkpt><trkpt lat="37.878799" lon="12.5565932"><ele>26.666666666666664</ele><time>2026-04-28T07:45:59.668Z</time></trkpt><trkpt lat="37.8787161" lon="12.5568105"><ele>27.0</ele><time>2026-04-28T07:46:00.668Z</time></trkpt><trkpt lat="37.8786364" lon="12.5570293"><ele>27.0</ele><time>2026-04-28T07:46:01.669Z</time></trkpt><trkpt lat="37.8785577" lon="12.5572452"><ele>27.0</ele><time>2026-04-28T07:46:02.669Z</time></trkpt><trkpt lat="37.8784819" lon="12.5574589"><ele>27.0</ele><time>2026-04-28T07:46:03.668Z</time></trkpt><trkpt lat="37.8784078" lon="12.5576764"><ele>27.333333333333336</ele><time>2026-04-28T07:46:04.669Z</time></trkpt><trkpt lat="37.8783313" lon="12.5578686"><ele>27.666666666666668</ele><time>2026-04-28T07:46:05.668Z</time></trkpt><trkpt lat="37.8782588" lon="12.5580492"><ele>28.0</ele><time>2026-04-28T07:46:06.668Z</time></trkpt><trkpt lat="37.8781872" lon="12.5582294"><ele>28.0</ele><time>2026-04-28T07:46:07.669Z</time></trkpt><trkpt lat="37.8781176" lon="12.5584147"><ele>28.0</ele><time>2026-04-28T07:46:08.668Z</time></trkpt><trkpt lat="37.8780503" lon="12.5586018"><ele>28.0</ele><time>2026-04-28T07:46:09.668Z</time></trkpt><trkpt lat="37.8779823" lon="12.558783"><ele>30.0</ele><time>2026-04-28T07:46:10.668Z</time></trkpt><trkpt lat="37.8779141" lon="12.558964"><ele>32.0</ele><time>2026-04-28T07:46:11.668Z</time></trkpt><trkpt lat="37.8778446" lon="12.5591431"><ele>34.0</ele><time>2026-04-28T07:46:12.668Z</time></trkpt><trkpt lat="37.8777702" lon="12.5593317"><ele>34.0</ele><time>2026-04-28T07:46:13.668Z</time></trkpt><trkpt lat="37.8776973" lon="12.5595329"><ele>34.0</ele><time>2026-04-28T07:46:14.669Z</time></trkpt><trkpt lat="37.8776213" lon="12.5597382"><ele>34.0</ele><time>2026-04-28T07:46:15.669Z</time></trkpt><trkpt lat="37.8775425" lon="12.5599486"><ele>33.66666666666667</ele><time>2026-04-28T07:46:16.668Z</time></trkpt><trkpt lat="37.8774595" lon="12.5601563"><ele>33.333333333333336</ele><time>2026-04-28T07:46:17.667Z</time></trkpt><trkpt lat="37.8773721" lon="12.5603696"><ele>33.0</ele><time>2026-04-28T07:46:18.667Z</time></trkpt><trkpt lat="37.8772881" lon="12.5605932"><ele>33.0</ele><time>2026-04-28T07:46:19.668Z</time></trkpt><trkpt lat="37.8772058" lon="12.5608198"><ele>33.0</ele><time>2026-04-28T07:46:20.668Z</time></trkpt><trkpt lat="37.8771156" lon="12.5610491"><ele>33.0</ele><time>2026-04-28T07:46:21.668Z</time></trkpt><trkpt lat="37.8770272" lon="12.5612885"><ele>33.666666666666664</ele><time>2026-04-28T07:46:22.669Z</time></trkpt><trkpt lat="37.8769369" lon="12.561525"><ele>34.33333333333333</ele><time>2026-04-28T07:46:23.669Z</time></trkpt><trkpt lat="37.8768438" lon="12.5617603"><ele>35.0</ele><time>2026-04-28T07:46:24.668Z</time></trkpt><trkpt lat="37.8767477" lon="12.5620016"><ele>35.33333333333333</ele><time>2026-04-28T07:46:25.667Z</time></trkpt><trkpt lat="37.8766582" lon="12.5622456"><ele>35.666666666666664</ele><time>2026-04-28T07:46:26.669Z</time></trkpt><trkpt lat="37.8765664" lon="12.562491"><ele>36.0</ele><time>2026-04-28T07:46:27.667Z</time></trkpt><trkpt lat="37.8764663" lon="12.5627377"><ele>37.0</ele><time>2026-04-28T07:46:28.669Z</time></trkpt><trkpt lat="37.8763768" lon="12.5629879"><ele>38.0</ele><time>2026-04-28T07:46:29.669Z</time></trkpt><trkpt lat="37.8762831" lon="12.5632356"><ele>39.0</ele><time>2026-04-28T07:46:30.668Z</time></trkpt><trkpt lat="37.8761884" lon="12.5634844"><ele>38.666666666666664</ele><time>2026-04-28T07:46:31.668Z</time></trkpt><trkpt lat="37.8760953" lon="12.5637363"><ele>38.33333333333333</ele><time>2026-04-28T07:46:32.668Z</time></trkpt><trkpt lat="37.8760056" lon="12.563987"><ele>38.0</ele><time>2026-04-28T07:46:33.667Z</time></trkpt><trkpt lat="37.8759195" lon="12.5642329"><ele>37.0</ele><time>2026-04-28T07:46:34.668Z</time></trkpt><trkpt lat="37.8758253" lon="12.564474"><ele>36.0</ele><time>2026-04-28T07:46:35.668Z</time></trkpt><trkpt lat="37.8757289" lon="12.5647125"><ele>35.0</ele><time>2026-04-28T07:46:36.669Z</time></trkpt><trkpt lat="37.8756343" lon="12.5649555"><ele>35.0</ele><time>2026-04-28T07:46:37.667Z</time></trkpt><trkpt lat="37.8755397" lon="12.5651879"><ele>35.0</ele><time>2026-04-28T07:46:38.668Z</time></trkpt><trkpt lat="37.8754521" lon="12.5654344"><ele>35.0</ele><time>2026-04-28T07:46:39.667Z</time></trkpt><trkpt lat="37.8753673" lon="12.5656672"><ele>35.666666666666664</ele><time>2026-04-28T07:46:40.669Z</time></trkpt><trkpt lat="37.8752811" lon="12.5659001"><ele>36.333333333333336</ele><time>2026-04-28T07:46:41.668Z</time></trkpt><trkpt lat="37.8751934" lon="12.566128"><ele>37.0</ele><time>2026-04-28T07:46:42.667Z</time></trkpt><trkpt lat="37.8751047" lon="12.5663627"><ele>37.0</ele><time>2026-04-28T07:46:43.667Z</time></trkpt><trkpt lat="37.8750149" lon="12.5665961"><ele>37.0</ele><time>2026-04-28T07:46:44.67Z</time></trkpt><trkpt lat="37.8749247" lon="12.5668258"><ele>37.0</ele><time>2026-04-28T07:46:45.669Z</time></trkpt><trkpt lat="37.8748415" lon="12.5670607"><ele>37.66666666666667</ele><time>2026-04-28T07:46:46.668Z</time></trkpt><trkpt lat="37.8747537" lon="12.5672931"><ele>38.333333333333336</ele><time>2026-04-28T07:46:47.668Z</time></trkpt><trkpt lat="37.8746664" lon="12.5675239"><ele>39.0</ele><time>2026-04-28T07:46:48.669Z</time></trkpt><trkpt lat="37.8745767" lon="12.5677592"><ele>39.0</ele><time>2026-04-28T07:46:49.668Z</time></trkpt><trkpt lat="37.8744855" lon="12.5679946"><ele>39.0</ele><time>2026-04-28T07:46:50.669Z</time></trkpt><trkpt lat="37.8743994" lon="12.5682284"><ele>39.0</ele><time>2026-04-28T07:46:51.668Z</time></trkpt><trkpt lat="37.8743158" lon="12.5684657"><ele>38.0</ele><time>2026-04-28T07:46:52.668Z</time></trkpt><trkpt lat="37.8742311" lon="12.5686981"><ele>37.0</ele><time>2026-04-28T07:46:53.669Z</time></trkpt><trkpt lat="37.8741457" lon="12.5689354"><ele>36.0</ele><time>2026-04-28T07:46:54.669Z</time></trkpt><trkpt lat="37.8740583" lon="12.5691711"><ele>36.0</ele><time>2026-04-28T07:46:55.669Z</time></trkpt><trkpt lat="37.8739696" lon="12.5694143"><ele>36.0</ele><time>2026-04-28T07:46:56.668Z</time></trkpt><trkpt lat="37.8738827" lon="12.5696575"><ele>36.0</ele><time>2026-04-28T07:46:57.669Z</time></trkpt><trkpt lat="37.8737893" lon="12.5698985"><ele>37.333333333333336</ele><time>2026-04-28T07:46:58.667Z</time></trkpt><trkpt lat="37.8736967" lon="12.5701344"><ele>38.66666666666667</ele><time>2026-04-28T07:46:59.668Z</time></trkpt><trkpt lat="37.8736069" lon="12.5703728"><ele>40.0</ele><time>2026-04-28T07:47:00.668Z</time></trkpt><trkpt lat="37.8735187" lon="12.5705993"><ele>40.66666666666667</ele><time>2026-04-28T07:47:01.668Z</time></trkpt><trkpt lat="37.8734295" lon="12.5708259"><ele>41.333333333333336</ele><time>2026-04-28T07:47:02.668Z</time></trkpt><trkpt lat="37.8733343" lon="12.5710449"><ele>42.0</ele><time>2026-04-28T07:47:03.669Z</time></trkpt><trkpt lat="37.8732438" lon="12.5712697"><ele>42.666666666666664</ele><time>2026-04-28T07:47:04.667Z</time></trkpt><trkpt lat="37.8731583" lon="12.5714993"><ele>43.33333333333333</ele><time>2026-04-28T07:47:05.668Z</time></trkpt><trkpt lat="37.8730644" lon="12.5717317"><ele>44.0</ele><time>2026-04-28T07:47:06.668Z</time></trkpt><trkpt lat="37.8729782" lon="12.5719645"><ele>44.33333333333333</ele><time>2026-04-28T07:47:07.668Z</time></trkpt><trkpt lat="37.8728922" lon="12.5722016"><ele>44.666666666666664</ele><time>2026-04-28T07:47:08.669Z</time></trkpt><trkpt lat="37.8728088" lon="12.5724449"><ele>45.0</ele><time>2026-04-28T07:47:09.668Z</time></trkpt><trkpt lat="37.8727228" lon="12.5726791"><ele>44.333333333333336</ele><time>2026-04-28T07:47:10.668Z</time></trkpt><trkpt lat="37.8726397" lon="12.5729122"><ele>43.66666666666667</ele><time>2026-04-28T07:47:11.668Z</time></trkpt><trkpt lat="37.8725561" lon="12.5731418"><ele>43.0</ele><time>2026-04-28T07:47:12.669Z</time></trkpt><trkpt lat="37.8724716" lon="12.5733769"><ele>42.66666666666667</ele><time>2026-04-28T07:47:13.669Z</time></trkpt><trkpt lat="37.8723856" lon="12.5736073"><ele>42.333333333333336</ele><time>2026-04-28T07:47:14.668Z</time></trkpt><trkpt lat="37.8722971" lon="12.5738419"><ele>42.0</ele><time>2026-04-28T07:47:15.669Z</time></trkpt><trkpt lat="37.8722084" lon="12.5740734"><ele>42.666666666666664</ele><time>2026-04-28T07:47:16.667Z</time></trkpt><trkpt lat="37.8721239" lon="12.5743048"><ele>43.33333333333333</ele><time>2026-04-28T07:47:17.668Z</time></trkpt><trkpt lat="37.8720404" lon="12.5745299"><ele>44.0</ele><time>2026-04-28T07:47:18.669Z</time></trkpt><trkpt lat="37.8719599" lon="12.5747475"><ele>44.0</ele><time>2026-04-28T07:47:19.667Z</time></trkpt><trkpt lat="37.8718851" lon="12.5749506"><ele>44.0</ele><time>2026-04-28T07:47:20.668Z</time></trkpt><trkpt lat="37.8718158" lon="12.5751446"><ele>44.0</ele><time>2026-04-28T07:47:21.668Z</time></trkpt><trkpt lat="37.8717459" lon="12.575323"><ele>44.25</ele><time>2026-04-28T07:47:22.669Z</time></trkpt><trkpt lat="37.8716805" lon="12.5754877"><ele>44.5</ele><time>2026-04-28T07:47:23.669Z</time></trkpt><trkpt lat="37.8716223" lon="12.5756433"><ele>44.75</ele><time>2026-04-28T07:47:24.668Z</time></trkpt><trkpt lat="37.8715754" lon="12.5757813"><ele>45.0</ele><time>2026-04-28T07:47:25.669Z</time></trkpt><trkpt lat="37.8715459" lon="12.5759146"><ele>45.0</ele><time>2026-04-28T07:47:26.668Z</time></trkpt><trkpt lat="37.8715413" lon="12.576049"><ele>45.0</ele><time>2026-04-28T07:47:27.669Z</time></trkpt><trkpt lat="37.8715681" lon="12.5761824"><ele>45.0</ele><time>2026-04-28T07:47:28.669Z</time></trkpt><trkpt lat="37.8716177" lon="12.5763169"><ele>45.0</ele><time>2026-04-28T07:47:29.668Z</time></trkpt><trkpt lat="37.871678" lon="12.5764654"><ele>45.333333333333336</ele><time>2026-04-28T07:47:30.669Z</time></trkpt><trkpt lat="37.8717462" lon="12.5766284"><ele>45.66666666666667</ele><time>2026-04-28T07:47:31.668Z</time></trkpt><trkpt lat="37.8718121" lon="12.576804"><ele>46.0</ele><time>2026-04-28T07:47:32.668Z</time></trkpt><trkpt lat="37.8718681" lon="12.5769996"><ele>46.0</ele><time>2026-04-28T07:47:33.669Z</time></trkpt><trkpt lat="37.8719161" lon="12.5772002"><ele>46.0</ele><time>2026-04-28T07:47:34.667Z</time></trkpt><trkpt lat="37.8719581" lon="12.5774015"><ele>46.0</ele><time>2026-04-28T07:47:35.669Z</time></trkpt><trkpt lat="37.8719997" lon="12.5776133"><ele>46.0</ele><time>2026-04-28T07:47:36.668Z</time></trkpt><trkpt lat="37.8720462" lon="12.5778345"><ele>46.0</ele><time>2026-04-28T07:47:37.669Z</time></trkpt><trkpt lat="37.8720955" lon="12.5780556"><ele>46.0</ele><time>2026-04-28T07:47:38.668Z</time></trkpt><trkpt lat="37.8721432" lon="12.578283"><ele>46.333333333333336</ele><time>2026-04-28T07:47:39.668Z</time></trkpt><trkpt lat="37.8721881" lon="12.5785127"><ele>46.666666666666664</ele><time>2026-04-28T07:47:40.669Z</time></trkpt><trkpt lat="37.8722346" lon="12.5787443"><ele>47.0</ele><time>2026-04-28T07:47:41.668Z</time></trkpt><trkpt lat="37.8722816" lon="12.578975"><ele>47.0</ele><time>2026-04-28T07:47:42.669Z</time></trkpt><trkpt lat="37.8723258" lon="12.5792021"><ele>47.0</ele><time>2026-04-28T07:47:43.669Z</time></trkpt><trkpt lat="37.8723668" lon="12.5794306"><ele>47.0</ele><time>2026-04-28T07:47:44.669Z</time></trkpt><trkpt lat="37.8724138" lon="12.579649"><ele>47.666666666666664</ele><time>2026-04-28T07:47:45.668Z</time></trkpt><trkpt lat="37.8724579" lon="12.5798727"><ele>48.33333333333333</ele><time>2026-04-28T07:47:46.669Z</time></trkpt><trkpt lat="37.8725037" lon="12.5800881"><ele>49.0</ele><time>2026-04-28T07:47:47.668Z</time></trkpt><trkpt lat="37.872551" lon="12.5803116"><ele>49.0</ele><time>2026-04-28T07:47:48.668Z</time></trkpt><trkpt lat="37.8725923" lon="12.5805321"><ele>49.0</ele><time>2026-04-28T07:47:49.668Z</time></trkpt><trkpt lat="37.8726332" lon="12.580745"><ele>49.0</ele><time>2026-04-28T07:47:50.669Z</time></trkpt><trkpt lat="37.8726725" lon="12.5809551"><ele>48.666666666666664</ele><time>2026-04-28T07:47:51.669Z</time></trkpt><trkpt lat="37.8727106" lon="12.5811688"><ele>48.33333333333333</ele><time>2026-04-28T07:47:52.668Z</time></trkpt><trkpt lat="37.8727562" lon="12.5813803"><ele>48.0</ele><time>2026-04-28T07:47:53.669Z</time></trkpt><trkpt lat="37.8728108" lon="12.5815933"><ele>48.0</ele><time>2026-04-28T07:47:54.668Z</time></trkpt><trkpt lat="37.8728733" lon="12.5818054"><ele>48.0</ele><time>2026-04-28T07:47:55.669Z</time></trkpt><trkpt lat="37.8729412" lon="12.5820229"><ele>48.0</ele><time>2026-04-28T07:47:56.669Z</time></trkpt><trkpt lat="37.8730208" lon="12.5822406"><ele>48.0</ele><time>2026-04-28T07:47:57.668Z</time></trkpt><trkpt lat="37.8730938" lon="12.5824539"><ele>48.0</ele><time>2026-04-28T07:47:58.669Z</time></trkpt><trkpt lat="37.8731674" lon="12.5826672"><ele>48.0</ele><time>2026-04-28T07:47:59.668Z</time></trkpt><trkpt lat="37.8732347" lon="12.5828816"><ele>48.0</ele><time>2026-04-28T07:48:00.669Z</time></trkpt><trkpt lat="37.8733044" lon="12.5830889"><ele>48.0</ele><time>2026-04-28T07:48:01.667Z</time></trkpt><trkpt lat="37.8733743" lon="12.5832866"><ele>48.0</ele><time>2026-04-28T07:48:02.668Z</time></trkpt><trkpt lat="37.8734417" lon="12.5834861"><ele>48.33333333333333</ele><time>2026-04-28T07:48:03.668Z</time></trkpt><trkpt lat="37.8735076" lon="12.5836794"><ele>48.666666666666664</ele><time>2026-04-28T07:48:04.668Z</time></trkpt><trkpt lat="37.8735651" lon="12.5838591"><ele>49.0</ele><time>2026-04-28T07:48:05.667Z</time></trkpt><trkpt lat="37.8736298" lon="12.5840282"><ele>49.0</ele><time>2026-04-28T07:48:06.669Z</time></trkpt><trkpt lat="37.8737207" lon="12.584179"><ele>49.0</ele><time>2026-04-28T07:48:07.668Z</time></trkpt><trkpt lat="37.87384" lon="12.5843009"><ele>49.0</ele><time>2026-04-28T07:48:08.668Z</time></trkpt><trkpt lat="37.8739821" lon="12.5843922"><ele>49.0</ele><time>2026-04-28T07:48:09.668Z</time></trkpt><trkpt lat="37.8741419" lon="12.5844651"><ele>49.0</ele><time>2026-04-28T07:48:10.669Z</time></trkpt><trkpt lat="37.8743184" lon="12.5845324"><ele>49.0</ele><time>2026-04-28T07:48:11.668Z</time></trkpt><trkpt lat="37.8745015" lon="12.5845961"><ele>49.666666666666664</ele><time>2026-04-28T07:48:12.668Z</time></trkpt><trkpt lat="37.8746824" lon="12.5846763"><ele>50.33333333333333</ele><time>2026-04-28T07:48:13.669Z</time></trkpt><trkpt lat="37.874849" lon="12.5847961"><ele>51.0</ele><time>2026-04-28T07:48:14.669Z</time></trkpt><trkpt lat="37.8750052" lon="12.5849431"><ele>51.0</ele><time>2026-04-28T07:48:15.668Z</time></trkpt><trkpt lat="37.8751604" lon="12.5851123"><ele>51.0</ele><time>2026-04-28T07:48:16.669Z</time></trkpt><trkpt lat="37.8753094" lon="12.5852893"><ele>51.0</ele><time>2026-04-28T07:48:17.668Z</time></trkpt><trkpt lat="37.8754563" lon="12.5854643"><ele>51.33333333333333</ele><time>2026-04-28T07:48:18.669Z</time></trkpt><trkpt lat="37.8756041" lon="12.5856397"><ele>51.666666666666664</ele><time>2026-04-28T07:48:19.668Z</time></trkpt><trkpt lat="37.8757504" lon="12.5858175"><ele>52.0</ele><time>2026-04-28T07:48:20.669Z</time></trkpt><trkpt lat="37.8760486" lon="12.586181"><ele>52.33333333333333</ele><time>2026-04-28T07:48:22.668Z</time></trkpt><trkpt lat="37.8761978" lon="12.5863616"><ele>52.66666666666667</ele><time>2026-04-28T07:48:23.669Z</time></trkpt><trkpt lat="37.8763482" lon="12.5865412"><ele>53.0</ele><time>2026-04-28T07:48:24.668Z</time></trkpt><trkpt lat="37.876494" lon="12.5867234"><ele>53.0</ele><time>2026-04-28T07:48:25.669Z</time></trkpt><trkpt lat="37.876646" lon="12.5868951"><ele>53.0</ele><time>2026-04-28T07:48:26.669Z</time></trkpt><trkpt lat="37.8768063" lon="12.5870599"><ele>53.0</ele><time>2026-04-28T07:48:27.668Z</time></trkpt><trkpt lat="37.8769679" lon="12.58721"><ele>53.66666666666667</ele><time>2026-04-28T07:48:28.668Z</time></trkpt><trkpt lat="37.8771239" lon="12.5873577"><ele>54.33333333333333</ele><time>2026-04-28T07:48:29.668Z</time></trkpt><trkpt lat="37.8772756" lon="12.5875047"><ele>55.0</ele><time>2026-04-28T07:48:30.668Z</time></trkpt><trkpt lat="37.8774238" lon="12.5876457"><ele>55.0</ele><time>2026-04-28T07:48:31.668Z</time></trkpt><trkpt lat="37.8775688" lon="12.5877977"><ele>55.0</ele><time>2026-04-28T07:48:32.668Z</time></trkpt><trkpt lat="37.8777106" lon="12.5879626"><ele>55.0</ele><time>2026-04-28T07:48:33.669Z</time></trkpt><trkpt lat="37.8778469" lon="12.5881292"><ele>55.0</ele><time>2026-04-28T07:48:34.668Z</time></trkpt><trkpt lat="37.8779789" lon="12.5883099"><ele>55.0</ele><time>2026-04-28T07:48:35.67Z</time></trkpt><trkpt lat="37.878116" lon="12.5884803"><ele>55.0</ele><time>2026-04-28T07:48:36.668Z</time></trkpt><trkpt lat="37.8782505" lon="12.5886533"><ele>55.0</ele><time>2026-04-28T07:48:37.668Z</time></trkpt><trkpt lat="37.878384" lon="12.5888265"><ele>55.0</ele><time>2026-04-28T07:48:38.669Z</time></trkpt><trkpt lat="37.8785189" lon="12.5890011"><ele>55.0</ele><time>2026-04-28T07:48:39.668Z</time></trkpt><trkpt lat="37.87865" lon="12.5891774"><ele>55.0</ele><time>2026-04-28T07:48:40.669Z</time></trkpt><trkpt lat="37.8787797" lon="12.589359"><ele>55.0</ele><time>2026-04-28T07:48:41.668Z</time></trkpt><trkpt lat="37.8788955" lon="12.589548"><ele>55.0</ele><time>2026-04-28T07:48:42.669Z</time></trkpt><trkpt lat="37.8790049" lon="12.5897522"><ele>54.33333333333333</ele><time>2026-04-28T07:48:43.669Z</time></trkpt><trkpt lat="37.8791042" lon="12.5899739"><ele>53.66666666666667</ele><time>2026-04-28T07:48:44.668Z</time></trkpt><trkpt lat="37.8792021" lon="12.5901995"><ele>53.0</ele><time>2026-04-28T07:48:45.669Z</time></trkpt><trkpt lat="37.8793113" lon="12.590426"><ele>54.66666666666667</ele><time>2026-04-28T07:48:46.669Z</time></trkpt><trkpt lat="37.8794093" lon="12.5906502"><ele>56.33333333333333</ele><time>2026-04-28T07:48:47.67Z</time></trkpt><trkpt lat="37.879518" lon="12.5908589"><ele>58.0</ele><time>2026-04-28T07:48:48.67Z</time></trkpt><trkpt lat="37.8796468" lon="12.5910501"><ele>58.0</ele><time>2026-04-28T07:48:49.668Z</time></trkpt><trkpt lat="37.8797993" lon="12.5912222"><ele>58.0</ele><time>2026-04-28T07:48:50.668Z</time></trkpt><trkpt lat="37.8799601" lon="12.5913784"><ele>58.0</ele><time>2026-04-28T07:48:51.668Z</time></trkpt><trkpt lat="37.8801235" lon="12.5915317"><ele>58.33333333333333</ele><time>2026-04-28T07:48:52.669Z</time></trkpt><trkpt lat="37.880287" lon="12.5916787"><ele>58.66666666666667</ele><time>2026-04-28T07:48:53.668Z</time></trkpt><trkpt lat="37.8804497" lon="12.5918198"><ele>59.0</ele><time>2026-04-28T07:48:54.669Z</time></trkpt><trkpt lat="37.8806098" lon="12.5919648"><ele>59.0</ele><time>2026-04-28T07:48:55.669Z</time></trkpt><trkpt lat="37.8807694" lon="12.5921084"><ele>59.0</ele><time>2026-04-28T07:48:56.668Z</time></trkpt><trkpt lat="37.8809311" lon="12.5922508"><ele>59.0</ele><time>2026-04-28T07:48:57.669Z</time></trkpt><trkpt lat="37.881088" lon="12.5924013"><ele>59.0</ele><time>2026-04-28T07:48:58.668Z</time></trkpt><trkpt lat="37.8812459" lon="12.5925507"><ele>59.0</ele><time>2026-04-28T07:48:59.668Z</time></trkpt><trkpt lat="37.8814085" lon="12.5927039"><ele>59.0</ele><time>2026-04-28T07:49:00.669Z</time></trkpt><trkpt lat="37.8815708" lon="12.592853"><ele>59.333333333333336</ele><time>2026-04-28T07:49:01.669Z</time></trkpt><trkpt lat="37.8817297" lon="12.5930077"><ele>59.66666666666667</ele><time>2026-04-28T07:49:02.668Z</time></trkpt><trkpt lat="37.8818918" lon="12.5931622"><ele>60.0</ele><time>2026-04-28T07:49:03.669Z</time></trkpt><trkpt lat="37.8820569" lon="12.5933192"><ele>60.33333333333333</ele><time>2026-04-28T07:49:04.668Z</time></trkpt><trkpt lat="37.882226" lon="12.5934802"><ele>60.666666666666664</ele><time>2026-04-28T07:49:05.669Z</time></trkpt><trkpt lat="37.8823903" lon="12.593639"><ele>61.0</ele><time>2026-04-28T07:49:06.669Z</time></trkpt><trkpt lat="37.8825563" lon="12.5937935"><ele>61.33333333333333</ele><time>2026-04-28T07:49:07.668Z</time></trkpt><trkpt lat="37.8827219" lon="12.5939521"><ele>61.66666666666667</ele><time>2026-04-28T07:49:08.67Z</time></trkpt><trkpt lat="37.8828926" lon="12.5941037"><ele>62.0</ele><time>2026-04-28T07:49:09.669Z</time></trkpt><trkpt lat="37.8830583" lon="12.594257"><ele>62.0</ele><time>2026-04-28T07:49:10.668Z</time></trkpt><trkpt lat="37.8832245" lon="12.5944112"><ele>62.0</ele><time>2026-04-28T07:49:11.669Z</time></trkpt><trkpt lat="37.8833926" lon="12.5945618"><ele>62.0</ele><time>2026-04-28T07:49:12.668Z</time></trkpt><trkpt lat="37.8835552" lon="12.5947153"><ele>62.66666666666667</ele><time>2026-04-28T07:49:13.668Z</time></trkpt><trkpt lat="37.8837187" lon="12.5948699"><ele>63.33333333333333</ele><time>2026-04-28T07:49:14.669Z</time></trkpt><trkpt lat="37.8838767" lon="12.5950412"><ele>64.0</ele><time>2026-04-28T07:49:15.669Z</time></trkpt><trkpt lat="37.884033" lon="12.5952197"><ele>64.33333333333333</ele><time>2026-04-28T07:49:16.668Z</time></trkpt><trkpt lat="37.8841814" lon="12.5954049"><ele>64.66666666666667</ele><time>2026-04-28T07:49:17.669Z</time></trkpt><trkpt lat="37.8843338" lon="12.5955884"><ele>65.0</ele><time>2026-04-28T07:49:18.67Z</time></trkpt><trkpt lat="37.8844819" lon="12.5957759"><ele>65.0</ele><time>2026-04-28T07:49:19.668Z</time></trkpt><trkpt lat="37.884639" lon="12.595958"><ele>65.0</ele><time>2026-04-28T07:49:20.669Z</time></trkpt><trkpt lat="37.8847926" lon="12.5961407"><ele>65.0</ele><time>2026-04-28T07:49:21.669Z</time></trkpt><trkpt lat="37.8849495" lon="12.5963205"><ele>66.33333333333334</ele><time>2026-04-28T07:49:22.669Z</time></trkpt><trkpt lat="37.8851047" lon="12.5965026"><ele>67.66666666666667</ele><time>2026-04-28T07:49:23.668Z</time></trkpt><trkpt lat="37.8852513" lon="12.5966749"><ele>69.0</ele><time>2026-04-28T07:49:24.668Z</time></trkpt><trkpt lat="37.8854017" lon="12.5968457"><ele>68.0</ele><time>2026-04-28T07:49:25.669Z</time></trkpt><trkpt lat="37.8855515" lon="12.5970182"><ele>67.0</ele><time>2026-04-28T07:49:26.668Z</time></trkpt><trkpt lat="37.8856997" lon="12.5971956"><ele>66.0</ele><time>2026-04-28T07:49:27.668Z</time></trkpt><trkpt lat="37.8858468" lon="12.5973808"><ele>66.66666666666667</ele><time>2026-04-28T07:49:28.668Z</time></trkpt><trkpt lat="37.8859916" lon="12.5975599"><ele>67.33333333333334</ele><time>2026-04-28T07:49:29.669Z</time></trkpt><trkpt lat="37.8861381" lon="12.5977454"><ele>68.0</ele><time>2026-04-28T07:49:30.669Z</time></trkpt><trkpt lat="37.886286" lon="12.5979286"><ele>68.0</ele><time>2026-04-28T07:49:31.669Z</time></trkpt><trkpt lat="37.8864388" lon="12.5981091"><ele>68.0</ele><time>2026-04-28T07:49:32.669Z</time></trkpt><trkpt lat="37.8865933" lon="12.5982878"><ele>68.0</ele><time>2026-04-28T07:49:33.669Z</time></trkpt><trkpt lat="37.8867419" lon="12.5984689"><ele>68.0</ele><time>2026-04-28T07:49:34.668Z</time></trkpt><trkpt lat="37.886896" lon="12.5986463"><ele>68.0</ele><time>2026-04-28T07:49:35.668Z</time></trkpt><trkpt lat="37.8870505" lon="12.5988281"><ele>68.0</ele><time>2026-04-28T07:49:36.668Z</time></trkpt><trkpt lat="37.887201" lon="12.5990064"><ele>68.66666666666667</ele><time>2026-04-28T07:49:37.669Z</time></trkpt><trkpt lat="37.8873583" lon="12.5991818"><ele>69.33333333333333</ele><time>2026-04-28T07:49:38.668Z</time></trkpt><trkpt lat="37.8875093" lon="12.5993591"><ele>70.0</ele><time>2026-04-28T07:49:39.668Z</time></trkpt><trkpt lat="37.8876612" lon="12.5995469"><ele>70.66666666666666</ele><time>2026-04-28T07:49:40.67Z</time></trkpt><trkpt lat="37.8878035" lon="12.5997319"><ele>71.33333333333333</ele><time>2026-04-28T07:49:41.669Z</time></trkpt><trkpt lat="37.8879383" lon="12.5999259"><ele>72.0</ele><time>2026-04-28T07:49:42.668Z</time></trkpt><trkpt lat="37.8880691" lon="12.600126"><ele>72.0</ele><time>2026-04-28T07:49:43.669Z</time></trkpt><trkpt lat="37.8881961" lon="12.6003261"><ele>72.0</ele><time>2026-04-28T07:49:44.668Z</time></trkpt><trkpt lat="37.8883259" lon="12.600524"><ele>72.0</ele><time>2026-04-28T07:49:45.668Z</time></trkpt><trkpt lat="37.8884578" lon="12.6007218"><ele>72.66666666666667</ele><time>2026-04-28T07:49:46.669Z</time></trkpt><trkpt lat="37.888588" lon="12.6009256"><ele>73.33333333333334</ele><time>2026-04-28T07:49:47.67Z</time></trkpt><trkpt lat="37.8887246" lon="12.6011311"><ele>74.0</ele><time>2026-04-28T07:49:48.669Z</time></trkpt><trkpt lat="37.888859" lon="12.601341"><ele>74.0</ele><time>2026-04-28T07:49:49.668Z</time></trkpt><trkpt lat="37.888988" lon="12.6015586"><ele>74.0</ele><time>2026-04-28T07:49:50.669Z</time></trkpt><trkpt lat="37.8891177" lon="12.6017747"><ele>74.0</ele><time>2026-04-28T07:49:51.669Z</time></trkpt><trkpt lat="37.8892555" lon="12.6019953"><ele>74.0</ele><time>2026-04-28T07:49:52.669Z</time></trkpt><trkpt lat="37.8893869" lon="12.6022179"><ele>74.0</ele><time>2026-04-28T07:49:53.668Z</time></trkpt><trkpt lat="37.8895172" lon="12.6024358"><ele>74.0</ele><time>2026-04-28T07:49:54.668Z</time></trkpt><trkpt lat="37.8896444" lon="12.6026462"><ele>74.0</ele><time>2026-04-28T07:49:55.668Z</time></trkpt><trkpt lat="37.889771" lon="12.602866"><ele>74.0</ele><time>2026-04-28T07:49:56.669Z</time></trkpt><trkpt lat="37.8898995" lon="12.6030744"><ele>74.0</ele><time>2026-04-28T07:49:57.668Z</time></trkpt><trkpt lat="37.8900399" lon="12.6032782"><ele>74.33333333333334</ele><time>2026-04-28T07:49:58.669Z</time></trkpt><trkpt lat="37.8901894" lon="12.6034734"><ele>74.66666666666667</ele><time>2026-04-28T07:49:59.669Z</time></trkpt><trkpt lat="37.8903472" lon="12.6036635"><ele>75.0</ele><time>2026-04-28T07:50:00.669Z</time></trkpt><trkpt lat="37.8905122" lon="12.6038445"><ele>75.0</ele><time>2026-04-28T07:50:01.669Z</time></trkpt><trkpt lat="37.890669" lon="12.6040261"><ele>75.0</ele><time>2026-04-28T07:50:02.668Z</time></trkpt><trkpt lat="37.8908199" lon="12.6041981"><ele>75.0</ele><time>2026-04-28T07:50:03.668Z</time></trkpt><trkpt lat="37.8909657" lon="12.6043576"><ele>75.0</ele><time>2026-04-28T07:50:04.67Z</time></trkpt><trkpt lat="37.8911189" lon="12.6044999"><ele>75.0</ele><time>2026-04-28T07:50:05.668Z</time></trkpt><trkpt lat="37.8912938" lon="12.604617"><ele>75.0</ele><time>2026-04-28T07:50:06.669Z</time></trkpt><trkpt lat="37.891483" lon="12.604695"><ele>75.0</ele><time>2026-04-28T07:50:07.669Z</time></trkpt><trkpt lat="37.8916882" lon="12.604741"><ele>75.0</ele><time>2026-04-28T07:50:08.67Z</time></trkpt><trkpt lat="37.8919007" lon="12.604764"><ele>75.0</ele><time>2026-04-28T07:50:09.669Z</time></trkpt><trkpt lat="37.8921212" lon="12.6047777"><ele>75.33333333333333</ele><time>2026-04-28T07:50:10.669Z</time></trkpt><trkpt lat="37.8923425" lon="12.6047928"><ele>75.66666666666666</ele><time>2026-04-28T07:50:11.668Z</time></trkpt><trkpt lat="37.8925636" lon="12.6048063"><ele>76.0</ele><time>2026-04-28T07:50:12.669Z</time></trkpt><trkpt lat="37.8927823" lon="12.6048214"><ele>78.0</ele><time>2026-04-28T07:50:13.668Z</time></trkpt><trkpt lat="37.8930089" lon="12.6048409"><ele>80.0</ele><time>2026-04-28T07:50:14.669Z</time></trkpt><trkpt lat="37.8932307" lon="12.6048626"><ele>79.33333333333334</ele><time>2026-04-28T07:50:15.669Z</time></trkpt><trkpt lat="37.8934504" lon="12.6048868"><ele>78.66666666666667</ele><time>2026-04-28T07:50:16.668Z</time></trkpt><trkpt lat="37.8936724" lon="12.6049079"><ele>78.0</ele><time>2026-04-28T07:50:17.668Z</time></trkpt><trkpt lat="37.8938928" lon="12.6049262"><ele>78.0</ele><time>2026-04-28T07:50:18.668Z</time></trkpt><trkpt lat="37.8941151" lon="12.604938"><ele>78.0</ele><time>2026-04-28T07:50:19.668Z</time></trkpt><trkpt lat="37.8943289" lon="12.6049522"><ele>78.0</ele><time>2026-04-28T07:50:20.669Z</time></trkpt><trkpt lat="37.8945371" lon="12.6049669"><ele>78.66666666666667</ele><time>2026-04-28T07:50:21.669Z</time></trkpt><trkpt lat="37.8947417" lon="12.6049811"><ele>79.33333333333334</ele><time>2026-04-28T07:50:22.669Z</time></trkpt><trkpt lat="37.8949452" lon="12.6049962"><ele>80.0</ele><time>2026-04-28T07:50:23.668Z</time></trkpt><trkpt lat="37.8951466" lon="12.6050091"><ele>81.0</ele><time>2026-04-28T07:50:24.669Z</time></trkpt><trkpt lat="37.8953457" lon="12.6050308"><ele>82.0</ele><time>2026-04-28T07:50:25.668Z</time></trkpt><trkpt lat="37.8955479" lon="12.605047"><ele>83.0</ele><time>2026-04-28T07:50:26.668Z</time></trkpt><trkpt lat="37.8957508" lon="12.6050618"><ele>83.33333333333334</ele><time>2026-04-28T07:50:27.669Z</time></trkpt><trkpt lat="37.8959534" lon="12.6050803"><ele>83.66666666666667</ele><time>2026-04-28T07:50:28.668Z</time></trkpt><trkpt lat="37.8961591" lon="12.6050905"><ele>84.0</ele><time>2026-04-28T07:50:29.669Z</time></trkpt><trkpt lat="37.8963604" lon="12.6051067"><ele>84.0</ele><time>2026-04-28T07:50:30.668Z</time></trkpt><trkpt lat="37.896554" lon="12.6051234"><ele>84.0</ele><time>2026-04-28T07:50:31.668Z</time></trkpt><trkpt lat="37.8967367" lon="12.6051443"><ele>84.0</ele><time>2026-04-28T07:50:32.669Z</time></trkpt><trkpt lat="37.8969163" lon="12.605182"><ele>84.33333333333333</ele><time>2026-04-28T07:50:33.669Z</time></trkpt><trkpt lat="37.8971005" lon="12.6052403"><ele>84.66666666666666</ele><time>2026-04-28T07:50:34.668Z</time></trkpt><trkpt lat="37.8972874" lon="12.6053051"><ele>85.0</ele><time>2026-04-28T07:50:35.669Z</time></trkpt><trkpt lat="37.8974756" lon="12.6053788"><ele>84.33333333333333</ele><time>2026-04-28T07:50:36.669Z</time></trkpt><trkpt lat="37.8976596" lon="12.6054531"><ele>83.66666666666667</ele><time>2026-04-28T07:50:37.67Z</time></trkpt><trkpt lat="37.8978349" lon="12.6055414"><ele>83.0</ele><time>2026-04-28T07:50:38.669Z</time></trkpt><trkpt lat="37.8980134" lon="12.605641"><ele>83.0</ele><time>2026-04-28T07:50:39.669Z</time></trkpt><trkpt lat="37.8981974" lon="12.6057459"><ele>83.0</ele><time>2026-04-28T07:50:40.669Z</time></trkpt><trkpt lat="37.8983862" lon="12.6058624"><ele>83.0</ele><time>2026-04-28T07:50:41.668Z</time></trkpt><trkpt lat="37.898577" lon="12.6059895"><ele>83.0</ele><time>2026-04-28T07:50:42.669Z</time></trkpt><trkpt lat="37.8987713" lon="12.6061131"><ele>83.0</ele><time>2026-04-28T07:50:43.668Z</time></trkpt><trkpt lat="37.8989655" lon="12.6062301"><ele>83.0</ele><time>2026-04-28T07:50:44.669Z</time></trkpt><trkpt lat="37.8991532" lon="12.6063507"><ele>81.66666666666667</ele><time>2026-04-28T07:50:45.669Z</time></trkpt><trkpt lat="37.8993252" lon="12.6064731"><ele>80.33333333333333</ele><time>2026-04-28T07:50:46.67Z</time></trkpt><trkpt lat="37.8994866" lon="12.6066187"><ele>79.0</ele><time>2026-04-28T07:50:47.669Z</time></trkpt><trkpt lat="37.8996444" lon="12.6067792"><ele>79.0</ele><time>2026-04-28T07:50:48.669Z</time></trkpt><trkpt lat="37.8997903" lon="12.6069471"><ele>79.0</ele><time>2026-04-28T07:50:49.669Z</time></trkpt><trkpt lat="37.899939" lon="12.6071231"><ele>79.0</ele><time>2026-04-28T07:50:50.668Z</time></trkpt><trkpt lat="37.9000924" lon="12.6073024"><ele>78.66666666666666</ele><time>2026-04-28T07:50:51.668Z</time></trkpt><trkpt lat="37.9002453" lon="12.6074792"><ele>78.33333333333333</ele><time>2026-04-28T07:50:52.669Z</time></trkpt><trkpt lat="37.9003973" lon="12.6076559"><ele>78.0</ele><time>2026-04-28T07:50:53.668Z</time></trkpt><trkpt lat="37.9005517" lon="12.6078309"><ele>78.0</ele><time>2026-04-28T07:50:54.668Z</time></trkpt><trkpt lat="37.9006991" lon="12.6080098"><ele>78.0</ele><time>2026-04-28T07:50:55.669Z</time></trkpt><trkpt lat="37.9008343" lon="12.6081943"><ele>78.0</ele><time>2026-04-28T07:50:56.67Z</time></trkpt><trkpt lat="37.9009641" lon="12.6083898"><ele>78.0</ele><time>2026-04-28T07:50:57.669Z</time></trkpt><trkpt lat="37.9010921" lon="12.6085881"><ele>78.0</ele><time>2026-04-28T07:50:58.669Z</time></trkpt><trkpt lat="37.9012148" lon="12.6087973"><ele>78.0</ele><time>2026-04-28T07:50:59.669Z</time></trkpt><trkpt lat="37.9013445" lon="12.6089984"><ele>77.66666666666667</ele><time>2026-04-28T07:51:00.669Z</time></trkpt><trkpt lat="37.901473" lon="12.6092012"><ele>77.33333333333334</ele><time>2026-04-28T07:51:01.668Z</time></trkpt><trkpt lat="37.901604" lon="12.6094065"><ele>77.0</ele><time>2026-04-28T07:51:02.668Z</time></trkpt><trkpt lat="37.9017321" lon="12.6096133"><ele>77.33333333333334</ele><time>2026-04-28T07:51:03.669Z</time></trkpt><trkpt lat="37.9018639" lon="12.6098225"><ele>77.66666666666667</ele><time>2026-04-28T07:51:04.669Z</time></trkpt><trkpt lat="37.9019966" lon="12.6100346"><ele>78.0</ele><time>2026-04-28T07:51:05.669Z</time></trkpt><trkpt lat="37.9021266" lon="12.6102454"><ele>77.0</ele><time>2026-04-28T07:51:06.67Z</time></trkpt><trkpt lat="37.9022547" lon="12.6104562"><ele>76.0</ele><time>2026-04-28T07:51:07.668Z</time></trkpt><trkpt lat="37.9023758" lon="12.6106593"><ele>75.0</ele><time>2026-04-28T07:51:08.669Z</time></trkpt><trkpt lat="37.9024955" lon="12.6108502"><ele>75.0</ele><time>2026-04-28T07:51:09.669Z</time></trkpt><trkpt lat="37.9026095" lon="12.6110366"><ele>75.0</ele><time>2026-04-28T07:51:10.669Z</time></trkpt><trkpt lat="37.9027215" lon="12.6112118"><ele>75.0</ele><time>2026-04-28T07:51:11.668Z</time></trkpt><trkpt lat="37.902823" lon="12.6113772"><ele>75.66666666666667</ele><time>2026-04-28T07:51:12.669Z</time></trkpt><trkpt lat="37.9029202" lon="12.6115337"><ele>76.33333333333334</ele><time>2026-04-28T07:51:13.669Z</time></trkpt><trkpt lat="37.9030149" lon="12.6116894"><ele>77.0</ele><time>2026-04-28T07:51:14.669Z</time></trkpt><trkpt lat="37.9031015" lon="12.6118277"><ele>77.0</ele><time>2026-04-28T07:51:15.668Z</time></trkpt><trkpt lat="37.9031868" lon="12.6119594"><ele>77.0</ele><time>2026-04-28T07:51:16.67Z</time></trkpt><trkpt lat="37.9032651" lon="12.6120823"><ele>77.0</ele><time>2026-04-28T07:51:17.669Z</time></trkpt><trkpt lat="37.9033316" lon="12.6121948"><ele>77.0</ele><time>2026-04-28T07:51:18.669Z</time></trkpt><trkpt lat="37.9033883" lon="12.6123019"><ele>76.4</ele><time>2026-04-28T07:51:19.669Z</time></trkpt><trkpt lat="37.9034438" lon="12.6124073"><ele>75.80000000000001</ele><time>2026-04-28T07:51:20.669Z</time></trkpt><trkpt lat="37.9035017" lon="12.6125176"><ele>75.2</ele><time>2026-04-28T07:51:21.669Z</time></trkpt><trkpt lat="37.9035524" lon="12.6126303"><ele>74.60000000000001</ele><time>2026-04-28T07:51:22.668Z</time></trkpt><trkpt lat="37.9036043" lon="12.612736"><ele>74.0</ele><time>2026-04-28T07:51:23.668Z</time></trkpt><trkpt lat="37.9036546" lon="12.6128456"><ele>74.0</ele><time>2026-04-28T07:51:24.669Z</time></trkpt><trkpt lat="37.903702" lon="12.6129519"><ele>74.0</ele><time>2026-04-28T07:51:25.671Z</time></trkpt><trkpt lat="37.9037454" lon="12.6130519"><ele>74.0</ele><time>2026-04-28T07:51:26.669Z</time></trkpt><trkpt lat="37.903779" lon="12.6131437"><ele>74.0</ele><time>2026-04-28T07:51:27.669Z</time></trkpt><trkpt lat="37.9038101" lon="12.6132275"><ele>74.0</ele><time>2026-04-28T07:51:28.668Z</time></trkpt><trkpt lat="37.9038411" lon="12.6133433"><ele>74.0</ele><time>2026-04-28T07:51:30.669Z</time></trkpt><trkpt lat="37.9038791" lon="12.6134613"><ele>74.0</ele><time>2026-04-28T07:51:32.669Z</time></trkpt><trkpt lat="37.9039061" lon="12.6135367"><ele>74.0</ele><time>2026-04-28T07:51:33.668Z</time></trkpt><trkpt lat="37.9039404" lon="12.6136273"><ele>74.0</ele><time>2026-04-28T07:51:34.668Z</time></trkpt><trkpt lat="37.9039737" lon="12.613736"><ele>74.0</ele><time>2026-04-28T07:51:35.668Z</time></trkpt><trkpt lat="37.9040102" lon="12.6138629"><ele>74.0</ele><time>2026-04-28T07:51:36.669Z</time></trkpt><trkpt lat="37.9040494" lon="12.6140063"><ele>74.5</ele><time>2026-04-28T07:51:37.669Z</time></trkpt><trkpt lat="37.9040896" lon="12.6141518"><ele>75.0</ele><time>2026-04-28T07:51:38.669Z</time></trkpt><trkpt lat="37.9041319" lon="12.614304"><ele>75.5</ele><time>2026-04-28T07:51:39.668Z</time></trkpt><trkpt lat="37.9041817" lon="12.6144721"><ele>76.0</ele><time>2026-04-28T07:51:40.669Z</time></trkpt><trkpt lat="37.9042434" lon="12.6146598"><ele>75.66666666666666</ele><time>2026-04-28T07:51:41.67Z</time></trkpt><trkpt lat="37.9043067" lon="12.6148535"><ele>75.33333333333333</ele><time>2026-04-28T07:51:42.669Z</time></trkpt><trkpt lat="37.9043688" lon="12.6150511"><ele>75.0</ele><time>2026-04-28T07:51:43.669Z</time></trkpt><trkpt lat="37.9044326" lon="12.615262"><ele>75.0</ele><time>2026-04-28T07:51:44.668Z</time></trkpt><trkpt lat="37.9044981" lon="12.6154856"><ele>75.0</ele><time>2026-04-28T07:51:45.669Z</time></trkpt><trkpt lat="37.9045627" lon="12.6157115"><ele>75.0</ele><time>2026-04-28T07:51:46.668Z</time></trkpt><trkpt lat="37.9046343" lon="12.615946"><ele>75.0</ele><time>2026-04-28T07:51:47.669Z</time></trkpt><trkpt lat="37.9047055" lon="12.6161841"><ele>75.0</ele><time>2026-04-28T07:51:48.668Z</time></trkpt><trkpt lat="37.9047776" lon="12.6164269"><ele>75.0</ele><time>2026-04-28T07:51:49.669Z</time></trkpt><trkpt lat="37.9048548" lon="12.6166728"><ele>75.0</ele><time>2026-04-28T07:51:50.668Z</time></trkpt><trkpt lat="37.9049386" lon="12.6169227"><ele>75.0</ele><time>2026-04-28T07:51:51.669Z</time></trkpt><trkpt lat="37.905028" lon="12.6171715"><ele>75.0</ele><time>2026-04-28T07:51:52.669Z</time></trkpt><trkpt lat="37.9051269" lon="12.6174193"><ele>75.66666666666667</ele><time>2026-04-28T07:51:53.669Z</time></trkpt><trkpt lat="37.9052256" lon="12.6176618"><ele>76.33333333333334</ele><time>2026-04-28T07:51:54.67Z</time></trkpt><trkpt lat="37.9053191" lon="12.6178974"><ele>77.0</ele><time>2026-04-28T07:51:55.669Z</time></trkpt><trkpt lat="37.9053996" lon="12.6181339"><ele>77.0</ele><time>2026-04-28T07:51:56.67Z</time></trkpt><trkpt lat="37.9054658" lon="12.618374"><ele>77.0</ele><time>2026-04-28T07:51:57.669Z</time></trkpt><trkpt lat="37.905522" lon="12.6186165"><ele>77.0</ele><time>2026-04-28T07:51:58.67Z</time></trkpt><trkpt lat="37.9055803" lon="12.6188634"><ele>77.0</ele><time>2026-04-28T07:51:59.669Z</time></trkpt><trkpt lat="37.9056397" lon="12.6191137"><ele>77.0</ele><time>2026-04-28T07:52:00.669Z</time></trkpt><trkpt lat="37.9057004" lon="12.6193618"><ele>77.0</ele><time>2026-04-28T07:52:01.669Z</time></trkpt><trkpt lat="37.9057605" lon="12.6196096"><ele>76.66666666666667</ele><time>2026-04-28T07:52:02.669Z</time></trkpt><trkpt lat="37.9058255" lon="12.6198549"><ele>76.33333333333333</ele><time>2026-04-28T07:52:03.669Z</time></trkpt><trkpt lat="37.9058964" lon="12.6200986"><ele>76.0</ele><time>2026-04-28T07:52:04.669Z</time></trkpt><trkpt lat="37.9059674" lon="12.6203485"><ele>76.0</ele><time>2026-04-28T07:52:05.669Z</time></trkpt><trkpt lat="37.9060423" lon="12.6206017"><ele>76.0</ele><time>2026-04-28T07:52:06.669Z</time></trkpt><trkpt lat="37.9061174" lon="12.6208557"><ele>76.0</ele><time>2026-04-28T07:52:07.668Z</time></trkpt><trkpt lat="37.9061935" lon="12.6211006"><ele>76.0</ele><time>2026-04-28T07:52:08.67Z</time></trkpt><trkpt lat="37.9062723" lon="12.6213512"><ele>76.0</ele><time>2026-04-28T07:52:09.669Z</time></trkpt><trkpt lat="37.9063493" lon="12.6216019"><ele>76.0</ele><time>2026-04-28T07:52:10.669Z</time></trkpt><trkpt lat="37.9064922" lon="12.6220537"><ele>75.5</ele><time>2026-04-28T07:52:12.489Z</time></trkpt><trkpt lat="37.9065796" lon="12.6223447"><ele>75.0</ele><time>2026-04-28T07:52:13.672Z</time></trkpt><trkpt lat="37.9066556" lon="12.6225945"><ele>75.33333333333333</ele><time>2026-04-28T07:52:14.669Z</time></trkpt><trkpt lat="37.9067307" lon="12.6228398"><ele>75.66666666666666</ele><time>2026-04-28T07:52:15.669Z</time></trkpt><trkpt lat="37.906806" lon="12.6230895"><ele>76.0</ele><time>2026-04-28T07:52:16.671Z</time></trkpt><trkpt lat="37.9068822" lon="12.6233368"><ele>76.0</ele><time>2026-04-28T07:52:17.67Z</time></trkpt><trkpt lat="37.906957" lon="12.6235825"><ele>76.0</ele><time>2026-04-28T07:52:18.67Z</time></trkpt><trkpt lat="37.9070318" lon="12.6238296"><ele>76.0</ele><time>2026-04-28T07:52:19.67Z</time></trkpt><trkpt lat="37.907107" lon="12.6240756"><ele>76.0</ele><time>2026-04-28T07:52:20.669Z</time></trkpt><trkpt lat="37.9071809" lon="12.6243205"><ele>76.0</ele><time>2026-04-28T07:52:21.669Z</time></trkpt><trkpt lat="37.9072558" lon="12.624563"><ele>76.0</ele><time>2026-04-28T07:52:22.67Z</time></trkpt><trkpt lat="37.9073288" lon="12.6248104"><ele>76.33333333333333</ele><time>2026-04-28T07:52:23.669Z</time></trkpt><trkpt lat="37.9074016" lon="12.6250559"><ele>76.66666666666667</ele><time>2026-04-28T07:52:24.669Z</time></trkpt><trkpt lat="37.9074731" lon="12.6253025"><ele>77.0</ele><time>2026-04-28T07:52:25.669Z</time></trkpt><trkpt lat="37.9075468" lon="12.6255471"><ele>77.33333333333334</ele><time>2026-04-28T07:52:26.669Z</time></trkpt><trkpt lat="37.9076265" lon="12.6257913"><ele>77.66666666666667</ele><time>2026-04-28T07:52:27.669Z</time></trkpt><trkpt lat="37.9077078" lon="12.6260333"><ele>78.0</ele><time>2026-04-28T07:52:28.668Z</time></trkpt><trkpt lat="37.9077925" lon="12.6262748"><ele>78.0</ele><time>2026-04-28T07:52:29.668Z</time></trkpt><trkpt lat="37.9078827" lon="12.6265149"><ele>78.0</ele><time>2026-04-28T07:52:30.669Z</time></trkpt><trkpt lat="37.9079747" lon="12.6267531"><ele>78.0</ele><time>2026-04-28T07:52:31.669Z</time></trkpt><trkpt lat="37.9080761" lon="12.6269826"><ele>78.0</ele><time>2026-04-28T07:52:32.67Z</time></trkpt><trkpt lat="37.9081749" lon="12.6272184"><ele>78.0</ele><time>2026-04-28T07:52:33.669Z</time></trkpt><trkpt lat="37.908269" lon="12.6274524"><ele>78.0</ele><time>2026-04-28T07:52:34.669Z</time></trkpt><trkpt lat="37.9083618" lon="12.6276874"><ele>79.33333333333333</ele><time>2026-04-28T07:52:35.67Z</time></trkpt><trkpt lat="37.9084568" lon="12.6279198"><ele>80.66666666666666</ele><time>2026-04-28T07:52:36.67Z</time></trkpt><trkpt lat="37.9085516" lon="12.6281496"><ele>82.0</ele><time>2026-04-28T07:52:37.669Z</time></trkpt><trkpt lat="37.9086451" lon="12.6283842"><ele>82.0</ele><time>2026-04-28T07:52:38.67Z</time></trkpt><trkpt lat="37.9087358" lon="12.6286109"><ele>82.0</ele><time>2026-04-28T07:52:39.669Z</time></trkpt><trkpt lat="37.9088286" lon="12.6288378"><ele>82.0</ele><time>2026-04-28T07:52:40.669Z</time></trkpt><trkpt lat="37.9089188" lon="12.6290652"><ele>82.0</ele><time>2026-04-28T07:52:41.669Z</time></trkpt><trkpt lat="37.9090122" lon="12.6292956"><ele>82.0</ele><time>2026-04-28T07:52:42.669Z</time></trkpt><trkpt lat="37.909108" lon="12.6295166"><ele>82.0</ele><time>2026-04-28T07:52:43.669Z</time></trkpt><trkpt lat="37.9092147" lon="12.6297343"><ele>82.0</ele><time>2026-04-28T07:52:44.67Z</time></trkpt><trkpt lat="37.9093362" lon="12.6299453"><ele>82.0</ele><time>2026-04-28T07:52:45.669Z</time></trkpt><trkpt lat="37.9094606" lon="12.6301509"><ele>82.0</ele><time>2026-04-28T07:52:46.669Z</time></trkpt><trkpt lat="37.9095919" lon="12.6303539"><ele>81.66666666666666</ele><time>2026-04-28T07:52:47.669Z</time></trkpt><trkpt lat="37.9097221" lon="12.6305586"><ele>81.33333333333333</ele><time>2026-04-28T07:52:48.668Z</time></trkpt><trkpt lat="37.9098501" lon="12.6307577"><ele>81.0</ele><time>2026-04-28T07:52:49.668Z</time></trkpt><trkpt lat="37.9099711" lon="12.6309486"><ele>81.66666666666667</ele><time>2026-04-28T07:52:50.669Z</time></trkpt><trkpt lat="37.9100807" lon="12.6311455"><ele>82.33333333333334</ele><time>2026-04-28T07:52:51.67Z</time></trkpt><trkpt lat="37.9101794" lon="12.6313577"><ele>83.0</ele><time>2026-04-28T07:52:52.668Z</time></trkpt><trkpt lat="37.9102683" lon="12.6315741"><ele>83.0</ele><time>2026-04-28T07:52:53.669Z</time></trkpt><trkpt lat="37.9103516" lon="12.6317947"><ele>83.0</ele><time>2026-04-28T07:52:54.668Z</time></trkpt><trkpt lat="37.9104294" lon="12.6320171"><ele>83.0</ele><time>2026-04-28T07:52:55.669Z</time></trkpt><trkpt lat="37.9105121" lon="12.6322441"><ele>83.0</ele><time>2026-04-28T07:52:56.668Z</time></trkpt><trkpt lat="37.910599" lon="12.6324829"><ele>83.0</ele><time>2026-04-28T07:52:57.669Z</time></trkpt><trkpt lat="37.9106798" lon="12.6327132"><ele>83.0</ele><time>2026-04-28T07:52:58.668Z</time></trkpt><trkpt lat="37.9107652" lon="12.6329379"><ele>83.33333333333334</ele><time>2026-04-28T07:52:59.669Z</time></trkpt><trkpt lat="37.9108672" lon="12.6331648"><ele>83.66666666666667</ele><time>2026-04-28T07:53:00.669Z</time></trkpt><trkpt lat="37.9109752" lon="12.6333783"><ele>84.0</ele><time>2026-04-28T07:53:01.67Z</time></trkpt><trkpt lat="37.9110872" lon="12.6335884"><ele>83.33333333333333</ele><time>2026-04-28T07:53:02.669Z</time></trkpt><trkpt lat="37.9112011" lon="12.6337956"><ele>82.66666666666666</ele><time>2026-04-28T07:53:03.67Z</time></trkpt><trkpt lat="37.9113147" lon="12.6340075"><ele>82.0</ele><time>2026-04-28T07:53:04.669Z</time></trkpt><trkpt lat="37.9114308" lon="12.6342161"><ele>82.0</ele><time>2026-04-28T07:53:05.67Z</time></trkpt><trkpt lat="37.9115422" lon="12.6344323"><ele>82.0</ele><time>2026-04-28T07:53:06.67Z</time></trkpt><trkpt lat="37.911637" lon="12.6346565"><ele>82.0</ele><time>2026-04-28T07:53:07.669Z</time></trkpt><trkpt lat="37.9117234" lon="12.6348924"><ele>82.33333333333333</ele><time>2026-04-28T07:53:08.669Z</time></trkpt><trkpt lat="37.9118024" lon="12.6351282"><ele>82.66666666666667</ele><time>2026-04-28T07:53:09.67Z</time></trkpt><trkpt lat="37.9118768" lon="12.6353658"><ele>83.0</ele><time>2026-04-28T07:53:10.67Z</time></trkpt><trkpt lat="37.9119538" lon="12.6356044"><ele>83.0</ele><time>2026-04-28T07:53:11.67Z</time></trkpt><trkpt lat="37.9120317" lon="12.6358391"><ele>83.0</ele><time>2026-04-28T07:53:12.67Z</time></trkpt><trkpt lat="37.9121103" lon="12.6360794"><ele>83.0</ele><time>2026-04-28T07:53:13.67Z</time></trkpt><trkpt lat="37.9121842" lon="12.6363105"><ele>82.66666666666667</ele><time>2026-04-28T07:53:14.669Z</time></trkpt><trkpt lat="37.9122587" lon="12.6365455"><ele>82.33333333333333</ele><time>2026-04-28T07:53:15.669Z</time></trkpt><trkpt lat="37.9123302" lon="12.6367739"><ele>82.0</ele><time>2026-04-28T07:53:16.669Z</time></trkpt><trkpt lat="37.9124005" lon="12.6370054"><ele>81.66666666666666</ele><time>2026-04-28T07:53:17.669Z</time></trkpt><trkpt lat="37.9124719" lon="12.6372363"><ele>81.33333333333333</ele><time>2026-04-28T07:53:18.67Z</time></trkpt><trkpt lat="37.9125429" lon="12.6374719"><ele>81.0</ele><time>2026-04-28T07:53:19.67Z</time></trkpt><trkpt lat="37.912615" lon="12.6377071"><ele>81.33333333333333</ele><time>2026-04-28T07:53:20.669Z</time></trkpt><trkpt lat="37.912694" lon="12.6379429"><ele>81.66666666666666</ele><time>2026-04-28T07:53:21.669Z</time></trkpt><trkpt lat="37.912772" lon="12.6381709"><ele>82.0</ele><time>2026-04-28T07:53:22.668Z</time></trkpt><trkpt lat="37.9128647" lon="12.6384009"><ele>82.0</ele><time>2026-04-28T07:53:23.669Z</time></trkpt><trkpt lat="37.9129684" lon="12.6386274"><ele>82.0</ele><time>2026-04-28T07:53:24.67Z</time></trkpt><trkpt lat="37.9130742" lon="12.6388416"><ele>82.0</ele><time>2026-04-28T07:53:25.67Z</time></trkpt><trkpt lat="37.9131782" lon="12.6390618"><ele>82.33333333333333</ele><time>2026-04-28T07:53:26.67Z</time></trkpt><trkpt lat="37.91328" lon="12.6392809"><ele>82.66666666666667</ele><time>2026-04-28T07:53:27.67Z</time></trkpt><trkpt lat="37.9133805" lon="12.639502"><ele>83.0</ele><time>2026-04-28T07:53:28.669Z</time></trkpt><trkpt lat="37.9134826" lon="12.6397181"><ele>83.66666666666667</ele><time>2026-04-28T07:53:29.669Z</time></trkpt><trkpt lat="37.9135909" lon="12.6399329"><ele>84.33333333333333</ele><time>2026-04-28T07:53:30.668Z</time></trkpt><trkpt lat="37.9137081" lon="12.6401319"><ele>85.0</ele><time>2026-04-28T07:53:31.669Z</time></trkpt><trkpt lat="37.9138322" lon="12.6403314"><ele>85.33333333333333</ele><time>2026-04-28T07:53:32.669Z</time></trkpt><trkpt lat="37.9139521" lon="12.6405279"><ele>85.66666666666667</ele><time>2026-04-28T07:53:33.669Z</time></trkpt><trkpt lat="37.9140752" lon="12.6407297"><ele>86.0</ele><time>2026-04-28T07:53:34.669Z</time></trkpt><trkpt lat="37.914189" lon="12.640938"><ele>86.33333333333334</ele><time>2026-04-28T07:53:35.668Z</time></trkpt><trkpt lat="37.9143014" lon="12.6411479"><ele>86.66666666666667</ele><time>2026-04-28T07:53:36.669Z</time></trkpt><trkpt lat="37.9144109" lon="12.6413603"><ele>87.0</ele><time>2026-04-28T07:53:37.668Z</time></trkpt><trkpt lat="37.9145124" lon="12.6415809"><ele>87.0</ele><time>2026-04-28T07:53:38.669Z</time></trkpt><trkpt lat="37.9146089" lon="12.6418027"><ele>87.0</ele><time>2026-04-28T07:53:39.669Z</time></trkpt><trkpt lat="37.9147094" lon="12.6420208"><ele>87.0</ele><time>2026-04-28T07:53:40.669Z</time></trkpt><trkpt lat="37.9148144" lon="12.6422358"><ele>86.66666666666667</ele><time>2026-04-28T07:53:41.668Z</time></trkpt><trkpt lat="37.9149159" lon="12.6424538"><ele>86.33333333333334</ele><time>2026-04-28T07:53:42.669Z</time></trkpt><trkpt lat="37.9150148" lon="12.6426766"><ele>86.0</ele><time>2026-04-28T07:53:43.668Z</time></trkpt><trkpt lat="37.9151154" lon="12.6428951"><ele>86.66666666666667</ele><time>2026-04-28T07:53:44.669Z</time></trkpt><trkpt lat="37.9152182" lon="12.6431214"><ele>87.33333333333333</ele><time>2026-04-28T07:53:45.669Z</time></trkpt><trkpt lat="37.9153135" lon="12.6433491"><ele>88.0</ele><time>2026-04-28T07:53:46.67Z</time></trkpt><trkpt lat="37.9154112" lon="12.6435752"><ele>88.0</ele><time>2026-04-28T07:53:47.669Z</time></trkpt><trkpt lat="37.9155049" lon="12.643795"><ele>88.0</ele><time>2026-04-28T07:53:48.669Z</time></trkpt><trkpt lat="37.9156007" lon="12.6440207"><ele>88.0</ele><time>2026-04-28T07:53:49.67Z</time></trkpt><trkpt lat="37.9156882" lon="12.6442486"><ele>88.33333333333333</ele><time>2026-04-28T07:53:50.67Z</time></trkpt><trkpt lat="37.9157731" lon="12.6444838"><ele>88.66666666666667</ele><time>2026-04-28T07:53:51.67Z</time></trkpt><trkpt lat="37.9158512" lon="12.6447183"><ele>89.0</ele><time>2026-04-28T07:53:52.669Z</time></trkpt><trkpt lat="37.9159315" lon="12.6449585"><ele>89.66666666666667</ele><time>2026-04-28T07:53:53.67Z</time></trkpt><trkpt lat="37.9160109" lon="12.6452014"><ele>90.33333333333333</ele><time>2026-04-28T07:53:54.669Z</time></trkpt><trkpt lat="37.9160944" lon="12.6454488"><ele>91.0</ele><time>2026-04-28T07:53:55.669Z</time></trkpt><trkpt lat="37.9161784" lon="12.6456955"><ele>91.0</ele><time>2026-04-28T07:53:56.669Z</time></trkpt><trkpt lat="37.9162644" lon="12.6459382"><ele>91.0</ele><time>2026-04-28T07:53:57.669Z</time></trkpt><trkpt lat="37.9163565" lon="12.6461779"><ele>91.0</ele><time>2026-04-28T07:53:58.67Z</time></trkpt><trkpt lat="37.9164473" lon="12.6464207"><ele>91.0</ele><time>2026-04-28T07:53:59.67Z</time></trkpt><trkpt lat="37.9165362" lon="12.6466672"><ele>91.0</ele><time>2026-04-28T07:54:00.669Z</time></trkpt><trkpt lat="37.9166216" lon="12.6469139"><ele>91.0</ele><time>2026-04-28T07:54:01.67Z</time></trkpt><trkpt lat="37.9167111" lon="12.647158"><ele>91.33333333333333</ele><time>2026-04-28T07:54:02.67Z</time></trkpt><trkpt lat="37.9168039" lon="12.6473972"><ele>91.66666666666667</ele><time>2026-04-28T07:54:03.67Z</time></trkpt><trkpt lat="37.9168922" lon="12.6476316"><ele>92.0</ele><time>2026-04-28T07:54:04.67Z</time></trkpt><trkpt lat="37.9169855" lon="12.6478699"><ele>92.0</ele><time>2026-04-28T07:54:05.669Z</time></trkpt><trkpt lat="37.9170721" lon="12.6481041"><ele>92.0</ele><time>2026-04-28T07:54:06.67Z</time></trkpt><trkpt lat="37.9171644" lon="12.6483445"><ele>92.0</ele><time>2026-04-28T07:54:07.669Z</time></trkpt><trkpt lat="37.9172498" lon="12.6485746"><ele>91.33333333333334</ele><time>2026-04-28T07:54:08.67Z</time></trkpt><trkpt lat="37.9173354" lon="12.6488063"><ele>90.66666666666667</ele><time>2026-04-28T07:54:09.67Z</time></trkpt><trkpt lat="37.9174219" lon="12.6490391"><ele>90.0</ele><time>2026-04-28T07:54:10.669Z</time></trkpt><trkpt lat="37.9175038" lon="12.6492804"><ele>91.0</ele><time>2026-04-28T07:54:11.67Z</time></trkpt><trkpt lat="37.9175831" lon="12.6495176"><ele>92.0</ele><time>2026-04-28T07:54:12.669Z</time></trkpt><trkpt lat="37.9176581" lon="12.6497589"><ele>93.0</ele><time>2026-04-28T07:54:13.669Z</time></trkpt><trkpt lat="37.9177332" lon="12.6500011"><ele>93.0</ele><time>2026-04-28T07:54:14.67Z</time></trkpt><trkpt lat="37.9178082" lon="12.6502365"><ele>93.0</ele><time>2026-04-28T07:54:15.67Z</time></trkpt><trkpt lat="37.9178805" lon="12.6504775"><ele>93.0</ele><time>2026-04-28T07:54:16.669Z</time></trkpt><trkpt lat="37.9179535" lon="12.6507153"><ele>93.33333333333333</ele><time>2026-04-28T07:54:17.669Z</time></trkpt><trkpt lat="37.9180322" lon="12.6509612"><ele>93.66666666666666</ele><time>2026-04-28T07:54:18.67Z</time></trkpt><trkpt lat="37.9181086" lon="12.6512045"><ele>94.0</ele><time>2026-04-28T07:54:19.67Z</time></trkpt><trkpt lat="37.9181822" lon="12.6514529"><ele>94.0</ele><time>2026-04-28T07:54:20.671Z</time></trkpt><trkpt lat="37.9182572" lon="12.6517018"><ele>94.0</ele><time>2026-04-28T07:54:21.67Z</time></trkpt><trkpt lat="37.9183347" lon="12.6519504"><ele>94.0</ele><time>2026-04-28T07:54:22.669Z</time></trkpt><trkpt lat="37.9184177" lon="12.6522033"><ele>95.0</ele><time>2026-04-28T07:54:23.671Z</time></trkpt><trkpt lat="37.9184959" lon="12.6524516"><ele>96.0</ele><time>2026-04-28T07:54:24.669Z</time></trkpt><trkpt lat="37.918573" lon="12.6526984"><ele>97.0</ele><time>2026-04-28T07:54:25.669Z</time></trkpt><trkpt lat="37.9186468" lon="12.652943"><ele>97.0</ele><time>2026-04-28T07:54:26.669Z</time></trkpt><trkpt lat="37.9187233" lon="12.6531905"><ele>97.0</ele><time>2026-04-28T07:54:27.669Z</time></trkpt><trkpt lat="37.918802" lon="12.6534375"><ele>97.0</ele><time>2026-04-28T07:54:28.67Z</time></trkpt><trkpt lat="37.9188847" lon="12.6536846"><ele>96.66666666666667</ele><time>2026-04-28T07:54:29.67Z</time></trkpt><trkpt lat="37.9189737" lon="12.6539287"><ele>96.33333333333334</ele><time>2026-04-28T07:54:30.669Z</time></trkpt><trkpt lat="37.9190637" lon="12.6541692"><ele>96.0</ele><time>2026-04-28T07:54:31.67Z</time></trkpt><trkpt lat="37.9191605" lon="12.6544127"><ele>97.33333333333334</ele><time>2026-04-28T07:54:32.67Z</time></trkpt><trkpt lat="37.9192546" lon="12.6546595"><ele>98.66666666666667</ele><time>2026-04-28T07:54:33.67Z</time></trkpt><trkpt lat="37.9193604" lon="12.6549051"><ele>100.0</ele><time>2026-04-28T07:54:34.669Z</time></trkpt><trkpt lat="37.9194794" lon="12.6551285"><ele>99.66666666666667</ele><time>2026-04-28T07:54:35.669Z</time></trkpt><trkpt lat="37.9196132" lon="12.6553368"><ele>99.33333333333334</ele><time>2026-04-28T07:54:36.669Z</time></trkpt><trkpt lat="37.9197586" lon="12.6555372"><ele>99.0</ele><time>2026-04-28T07:54:37.67Z</time></trkpt><trkpt lat="37.9199111" lon="12.6557297"><ele>99.0</ele><time>2026-04-28T07:54:38.669Z</time></trkpt><trkpt lat="37.9200654" lon="12.6559209"><ele>99.0</ele><time>2026-04-28T07:54:39.669Z</time></trkpt><trkpt lat="37.9202167" lon="12.6561121"><ele>99.0</ele><time>2026-04-28T07:54:40.669Z</time></trkpt><trkpt lat="37.9203649" lon="12.6563015"><ele>99.66666666666666</ele><time>2026-04-28T07:54:41.669Z</time></trkpt><trkpt lat="37.9205167" lon="12.6564891"><ele>100.33333333333333</ele><time>2026-04-28T07:54:42.67Z</time></trkpt><trkpt lat="37.9206644" lon="12.6566779"><ele>101.0</ele><time>2026-04-28T07:54:43.669Z</time></trkpt><trkpt lat="37.9208097" lon="12.656864"><ele>101.66666666666666</ele><time>2026-04-28T07:54:44.669Z</time></trkpt><trkpt lat="37.9209506" lon="12.6570366"><ele>102.33333333333334</ele><time>2026-04-28T07:54:45.669Z</time></trkpt><trkpt lat="37.9210815" lon="12.6572019"><ele>103.0</ele><time>2026-04-28T07:54:46.669Z</time></trkpt><trkpt lat="37.921205" lon="12.6573608"><ele>103.0</ele><time>2026-04-28T07:54:47.67Z</time></trkpt><trkpt lat="37.9213192" lon="12.6575074"><ele>103.0</ele><time>2026-04-28T07:54:48.669Z</time></trkpt><trkpt lat="37.9214257" lon="12.6576401"><ele>103.0</ele><time>2026-04-28T07:54:49.67Z</time></trkpt><trkpt lat="37.9215133" lon="12.6577618"><ele>103.0</ele><time>2026-04-28T07:54:50.67Z</time></trkpt><trkpt lat="37.9215949" lon="12.6578636"><ele>103.4</ele><time>2026-04-28T07:54:51.669Z</time></trkpt><trkpt lat="37.9216608" lon="12.657944"><ele>103.80000000000001</ele><time>2026-04-28T07:54:52.669Z</time></trkpt><trkpt lat="37.9217135" lon="12.6580108"><ele>104.2</ele><time>2026-04-28T07:54:53.669Z</time></trkpt><trkpt lat="37.9217823" lon="12.6580887"><ele>104.6</ele><time>2026-04-28T07:54:55.669Z</time></trkpt><trkpt lat="37.9218492" lon="12.6581555"><ele>105.0</ele><time>2026-04-28T07:54:57.669Z</time></trkpt><trkpt lat="37.9219487" lon="12.6582752"><ele>105.4</ele><time>2026-04-28T07:54:59.67Z</time></trkpt><trkpt lat="37.9220052" lon="12.6583552"><ele>105.8</ele><time>2026-04-28T07:55:00.67Z</time></trkpt><trkpt lat="37.922073" lon="12.6584488"><ele>106.19999999999999</ele><time>2026-04-28T07:55:01.671Z</time></trkpt><trkpt lat="37.9221583" lon="12.658559"><ele>106.6</ele><time>2026-04-28T07:55:02.669Z</time></trkpt><trkpt lat="37.9222517" lon="12.6586852"><ele>107.0</ele><time>2026-04-28T07:55:03.67Z</time></trkpt><trkpt lat="37.922358" lon="12.6588147"><ele>107.0</ele><time>2026-04-28T07:55:04.669Z</time></trkpt><trkpt lat="37.9224657" lon="12.658953"><ele>107.0</ele><time>2026-04-28T07:55:05.669Z</time></trkpt><trkpt lat="37.9225863" lon="12.6591085"><ele>107.0</ele><time>2026-04-28T07:55:06.67Z</time></trkpt><trkpt lat="37.9227184" lon="12.6592758"><ele>108.33333333333333</ele><time>2026-04-28T07:55:07.67Z</time></trkpt><trkpt lat="37.9228553" lon="12.659443"><ele>109.66666666666666</ele><time>2026-04-28T07:55:08.669Z</time></trkpt><trkpt lat="37.922991" lon="12.6596151"><ele>111.0</ele><time>2026-04-28T07:55:09.669Z</time></trkpt><trkpt lat="37.9231307" lon="12.6597931"><ele>111.66666666666666</ele><time>2026-04-28T07:55:10.669Z</time></trkpt><trkpt lat="37.92326" lon="12.6599668"><ele>112.33333333333333</ele><time>2026-04-28T07:55:11.669Z</time></trkpt><trkpt lat="37.9233902" lon="12.6601317"><ele>113.0</ele><time>2026-04-28T07:55:12.67Z</time></trkpt><trkpt lat="37.923511" lon="12.6602884"><ele>114.0</ele><time>2026-04-28T07:55:13.669Z</time></trkpt><trkpt lat="37.9236272" lon="12.6604374"><ele>115.0</ele><time>2026-04-28T07:55:14.67Z</time></trkpt><trkpt lat="37.9237415" lon="12.6605884"><ele>116.0</ele><time>2026-04-28T07:55:15.669Z</time></trkpt><trkpt lat="37.9238519" lon="12.660726"><ele>116.0</ele><time>2026-04-28T07:55:16.669Z</time></trkpt><trkpt lat="37.9239614" lon="12.6608624"><ele>116.0</ele><time>2026-04-28T07:55:17.67Z</time></trkpt><trkpt lat="37.9240639" lon="12.6609957"><ele>116.0</ele><time>2026-04-28T07:55:18.67Z</time></trkpt><trkpt lat="37.9241672" lon="12.6611153"><ele>116.0</ele><time>2026-04-28T07:55:19.669Z</time></trkpt><trkpt lat="37.9242819" lon="12.661225"><ele>116.5</ele><time>2026-04-28T07:55:20.669Z</time></trkpt><trkpt lat="37.9244012" lon="12.6613167"><ele>117.0</ele><time>2026-04-28T07:55:21.67Z</time></trkpt><trkpt lat="37.9245189" lon="12.6613952"><ele>117.5</ele><time>2026-04-28T07:55:22.67Z</time></trkpt><trkpt lat="37.9246322" lon="12.6614724"><ele>118.0</ele><time>2026-04-28T07:55:23.669Z</time></trkpt><trkpt lat="37.924745" lon="12.6615382"><ele>118.0</ele><time>2026-04-28T07:55:24.669Z</time></trkpt><trkpt lat="37.9248667" lon="12.6616061"><ele>118.0</ele><time>2026-04-28T07:55:25.67Z</time></trkpt><trkpt lat="37.9249931" lon="12.6616756"><ele>118.0</ele><time>2026-04-28T07:55:26.669Z</time></trkpt><trkpt lat="37.9251292" lon="12.6617478"><ele>118.0</ele><time>2026-04-28T07:55:27.669Z</time></trkpt><trkpt lat="37.9252789" lon="12.6618195"><ele>118.66666666666667</ele><time>2026-04-28T07:55:28.669Z</time></trkpt><trkpt lat="37.9254307" lon="12.6619"><ele>119.33333333333334</ele><time>2026-04-28T07:55:29.669Z</time></trkpt><trkpt lat="37.9255875" lon="12.6619872"><ele>120.0</ele><time>2026-04-28T07:55:30.671Z</time></trkpt><trkpt lat="37.9257472" lon="12.6620781"><ele>121.0</ele><time>2026-04-28T07:55:31.67Z</time></trkpt><trkpt lat="37.9259103" lon="12.6621724"><ele>122.0</ele><time>2026-04-28T07:55:32.67Z</time></trkpt><trkpt lat="37.9260722" lon="12.6622781"><ele>123.0</ele><time>2026-04-28T07:55:33.67Z</time></trkpt><trkpt lat="37.9262405" lon="12.6623807"><ele>123.0</ele><time>2026-04-28T07:55:34.669Z</time></trkpt><trkpt lat="37.9264121" lon="12.6624787"><ele>123.0</ele><time>2026-04-28T07:55:35.67Z</time></trkpt><trkpt lat="37.9265887" lon="12.6625788"><ele>123.0</ele><time>2026-04-28T07:55:36.67Z</time></trkpt><trkpt lat="37.9267668" lon="12.6626854"><ele>125.0</ele><time>2026-04-28T07:55:37.669Z</time></trkpt><trkpt lat="37.926947" lon="12.6627904"><ele>127.0</ele><time>2026-04-28T07:55:38.669Z</time></trkpt><trkpt lat="37.92713" lon="12.6629007"><ele>129.0</ele><time>2026-04-28T07:55:39.669Z</time></trkpt><trkpt lat="37.9273107" lon="12.6630056"><ele>129.0</ele><time>2026-04-28T07:55:40.669Z</time></trkpt><trkpt lat="37.9274982" lon="12.6631129"><ele>129.0</ele><time>2026-04-28T07:55:41.67Z</time></trkpt><trkpt lat="37.9276875" lon="12.6632204"><ele>129.0</ele><time>2026-04-28T07:55:42.669Z</time></trkpt><trkpt lat="37.9278772" lon="12.6633251"><ele>130.0</ele><time>2026-04-28T07:55:43.67Z</time></trkpt><trkpt lat="37.9280651" lon="12.6634326"><ele>131.0</ele><time>2026-04-28T07:55:44.669Z</time></trkpt><trkpt lat="37.9282474" lon="12.6635483"><ele>132.0</ele><time>2026-04-28T07:55:45.669Z</time></trkpt><trkpt lat="37.9284106" lon="12.6636834"><ele>133.66666666666666</ele><time>2026-04-28T07:55:46.67Z</time></trkpt><trkpt lat="37.928571" lon="12.663843"><ele>135.33333333333331</ele><time>2026-04-28T07:55:47.669Z</time></trkpt><trkpt lat="37.9287147" lon="12.6640109"><ele>137.0</ele><time>2026-04-28T07:55:48.669Z</time></trkpt><trkpt lat="37.9288553" lon="12.6641815"><ele>137.0</ele><time>2026-04-28T07:55:49.67Z</time></trkpt><trkpt lat="37.9289952" lon="12.6643543"><ele>137.0</ele><time>2026-04-28T07:55:50.669Z</time></trkpt><trkpt lat="37.9291338" lon="12.6645241"><ele>137.0</ele><time>2026-04-28T07:55:51.67Z</time></trkpt><trkpt lat="37.9292641" lon="12.6646834"><ele>138.0</ele><time>2026-04-28T07:55:52.67Z</time></trkpt><trkpt lat="37.9293838" lon="12.6648441"><ele>139.0</ele><time>2026-04-28T07:55:53.67Z</time></trkpt><trkpt lat="37.9295003" lon="12.6650038"><ele>140.0</ele><time>2026-04-28T07:55:54.67Z</time></trkpt><trkpt lat="37.9296341" lon="12.6651573"><ele>138.33333333333331</ele><time>2026-04-28T07:55:55.67Z</time></trkpt><trkpt lat="37.9297854" lon="12.665304"><ele>136.66666666666666</ele><time>2026-04-28T07:55:56.669Z</time></trkpt><trkpt lat="37.9299521" lon="12.6654393"><ele>135.0</ele><time>2026-04-28T07:55:57.67Z</time></trkpt><trkpt lat="37.9301316" lon="12.6655661"><ele>135.0</ele><time>2026-04-28T07:55:58.67Z</time></trkpt><trkpt lat="37.9303202" lon="12.6656817"><ele>135.0</ele><time>2026-04-28T07:55:59.669Z</time></trkpt><trkpt lat="37.9305114" lon="12.6657896"><ele>135.0</ele><time>2026-04-28T07:56:00.669Z</time></trkpt><trkpt lat="37.9307061" lon="12.6658778"><ele>134.33333333333334</ele><time>2026-04-28T07:56:01.669Z</time></trkpt><trkpt lat="37.9309022" lon="12.6659572"><ele>133.66666666666669</ele><time>2026-04-28T07:56:02.669Z</time></trkpt><trkpt lat="37.9311094" lon="12.6660186"><ele>133.0</ele><time>2026-04-28T07:56:03.671Z</time></trkpt><trkpt lat="37.931316" lon="12.6660822"><ele>132.66666666666669</ele><time>2026-04-28T07:56:04.67Z</time></trkpt><trkpt lat="37.9315158" lon="12.6661394"><ele>132.33333333333334</ele><time>2026-04-28T07:56:05.669Z</time></trkpt><trkpt lat="37.931717" lon="12.6661992"><ele>132.0</ele><time>2026-04-28T07:56:06.671Z</time></trkpt><trkpt lat="37.9319203" lon="12.6662563"><ele>132.66666666666666</ele><time>2026-04-28T07:56:07.67Z</time></trkpt><trkpt lat="37.9321239" lon="12.6663113"><ele>133.33333333333331</ele><time>2026-04-28T07:56:08.67Z</time></trkpt><trkpt lat="37.9323297" lon="12.6663681"><ele>134.0</ele><time>2026-04-28T07:56:09.669Z</time></trkpt><trkpt lat="37.9325332" lon="12.6664291"><ele>134.66666666666666</ele><time>2026-04-28T07:56:10.669Z</time></trkpt><trkpt lat="37.9327384" lon="12.6664907"><ele>135.33333333333334</ele><time>2026-04-28T07:56:11.67Z</time></trkpt><trkpt lat="37.9329435" lon="12.666551"><ele>136.0</ele><time>2026-04-28T07:56:12.669Z</time></trkpt><trkpt lat="37.9331478" lon="12.6666053"><ele>136.0</ele><time>2026-04-28T07:56:13.67Z</time></trkpt><trkpt lat="37.9333565" lon="12.6666633"><ele>136.0</ele><time>2026-04-28T07:56:14.67Z</time></trkpt><trkpt lat="37.9335611" lon="12.666722"><ele>136.0</ele><time>2026-04-28T07:56:15.669Z</time></trkpt><trkpt lat="37.933766" lon="12.6667875"><ele>139.0</ele><time>2026-04-28T07:56:16.671Z</time></trkpt><trkpt lat="37.9339676" lon="12.6668495"><ele>142.0</ele><time>2026-04-28T07:56:17.669Z</time></trkpt><trkpt lat="37.93417" lon="12.6669144"><ele>145.0</ele><time>2026-04-28T07:56:18.67Z</time></trkpt><trkpt lat="37.9343602" lon="12.6669827"><ele>147.66666666666669</ele><time>2026-04-28T07:56:19.669Z</time></trkpt><trkpt lat="37.9345345" lon="12.6670443"><ele>150.33333333333334</ele><time>2026-04-28T07:56:20.669Z</time></trkpt><trkpt lat="37.9346829" lon="12.6671071"><ele>153.0</ele><time>2026-04-28T07:56:21.669Z</time></trkpt><trkpt lat="37.9348085" lon="12.667193"><ele>153.0</ele><time>2026-04-28T07:56:22.67Z</time></trkpt><trkpt lat="37.9349089" lon="12.6673005"><ele>153.0</ele><time>2026-04-28T07:56:23.67Z</time></trkpt><trkpt lat="37.9349905" lon="12.6674353"><ele>153.0</ele><time>2026-04-28T07:56:24.67Z</time></trkpt><trkpt lat="37.9350652" lon="12.6675893"><ele>153.0</ele><time>2026-04-28T07:56:25.669Z</time></trkpt><trkpt lat="37.9351406" lon="12.6677682"><ele>154.0</ele><time>2026-04-28T07:56:26.67Z</time></trkpt><trkpt lat="37.9352228" lon="12.6679556"><ele>155.0</ele><time>2026-04-28T07:56:27.669Z</time></trkpt><trkpt lat="37.9353025" lon="12.6681534"><ele>156.0</ele><time>2026-04-28T07:56:28.669Z</time></trkpt><trkpt lat="37.9353765" lon="12.6683562"><ele>156.0</ele><time>2026-04-28T07:56:29.671Z</time></trkpt><trkpt lat="37.9354356" lon="12.6685614"><ele>156.0</ele><time>2026-04-28T07:56:30.669Z</time></trkpt><trkpt lat="37.935487" lon="12.6687631"><ele>156.0</ele><time>2026-04-28T07:56:31.669Z</time></trkpt><trkpt lat="37.9355367" lon="12.668967"><ele>155.66666666666666</ele><time>2026-04-28T07:56:32.671Z</time></trkpt><trkpt lat="37.9355942" lon="12.6691831"><ele>155.33333333333331</ele><time>2026-04-28T07:56:33.669Z</time></trkpt><trkpt lat="37.9356707" lon="12.6693834"><ele>155.0</ele><time>2026-04-28T07:56:34.67Z</time></trkpt><trkpt lat="37.935767" lon="12.6695916"><ele>153.0</ele><time>2026-04-28T07:56:35.67Z</time></trkpt><trkpt lat="37.9358792" lon="12.6697864"><ele>151.0</ele><time>2026-04-28T07:56:36.669Z</time></trkpt><trkpt lat="37.9360028" lon="12.6699803"><ele>149.0</ele><time>2026-04-28T07:56:37.669Z</time></trkpt><trkpt lat="37.9361438" lon="12.6701762"><ele>146.66666666666666</ele><time>2026-04-28T07:56:38.669Z</time></trkpt><trkpt lat="37.9362889" lon="12.6703592"><ele>144.33333333333334</ele><time>2026-04-28T07:56:39.67Z</time></trkpt><trkpt lat="37.9364408" lon="12.6705423"><ele>142.0</ele><time>2026-04-28T07:56:40.669Z</time></trkpt><trkpt lat="37.9365999" lon="12.6707225"><ele>142.0</ele><time>2026-04-28T07:56:41.671Z</time></trkpt><trkpt lat="37.9367599" lon="12.6709036"><ele>142.0</ele><time>2026-04-28T07:56:42.67Z</time></trkpt><trkpt lat="37.9369206" lon="12.6710855"><ele>142.0</ele><time>2026-04-28T07:56:43.669Z</time></trkpt><trkpt lat="37.9370789" lon="12.6712606"><ele>141.66666666666669</ele><time>2026-04-28T07:56:44.67Z</time></trkpt><trkpt lat="37.9372374" lon="12.6714333"><ele>141.33333333333334</ele><time>2026-04-28T07:56:45.67Z</time></trkpt><trkpt lat="37.9373996" lon="12.671608"><ele>141.0</ele><time>2026-04-28T07:56:46.672Z</time></trkpt><trkpt lat="37.9375645" lon="12.6717764"><ele>141.0</ele><time>2026-04-28T07:56:47.669Z</time></trkpt><trkpt lat="37.9377356" lon="12.6719347"><ele>141.0</ele><time>2026-04-28T07:56:48.671Z</time></trkpt><trkpt lat="37.9379079" lon="12.6720957"><ele>141.0</ele><time>2026-04-28T07:56:49.671Z</time></trkpt><trkpt lat="37.9380783" lon="12.6722505"><ele>141.33333333333334</ele><time>2026-04-28T07:56:50.67Z</time></trkpt><trkpt lat="37.9382471" lon="12.6724095"><ele>141.66666666666669</ele><time>2026-04-28T07:56:51.67Z</time></trkpt><trkpt lat="37.9384243" lon="12.6725707"><ele>142.0</ele><time>2026-04-28T07:56:52.67Z</time></trkpt><trkpt lat="37.9385977" lon="12.6727358"><ele>140.0</ele><time>2026-04-28T07:56:53.67Z</time></trkpt><trkpt lat="37.9387734" lon="12.6728981"><ele>138.0</ele><time>2026-04-28T07:56:54.669Z</time></trkpt><trkpt lat="37.9389515" lon="12.6730562"><ele>136.0</ele><time>2026-04-28T07:56:55.671Z</time></trkpt><trkpt lat="37.9391277" lon="12.6732193"><ele>136.33333333333334</ele><time>2026-04-28T07:56:56.669Z</time></trkpt><trkpt lat="37.9393053" lon="12.6733794"><ele>136.66666666666666</ele><time>2026-04-28T07:56:57.67Z</time></trkpt><trkpt lat="37.9394853" lon="12.6735417"><ele>137.0</ele><time>2026-04-28T07:56:58.67Z</time></trkpt><trkpt lat="37.9396644" lon="12.6737044"><ele>136.33333333333331</ele><time>2026-04-28T07:56:59.67Z</time></trkpt><trkpt lat="37.939838" lon="12.6738655"><ele>135.66666666666666</ele><time>2026-04-28T07:57:00.669Z</time></trkpt><trkpt lat="37.940015" lon="12.6740254"><ele>135.0</ele><time>2026-04-28T07:57:01.669Z</time></trkpt><trkpt lat="37.9401842" lon="12.6741816"><ele>135.0</ele><time>2026-04-28T07:57:02.67Z</time></trkpt><trkpt lat="37.940353" lon="12.6743354"><ele>135.0</ele><time>2026-04-28T07:57:03.67Z</time></trkpt><trkpt lat="37.9405094" lon="12.6744883"><ele>135.0</ele><time>2026-04-28T07:57:04.67Z</time></trkpt><trkpt lat="37.9406494" lon="12.6746429"><ele>135.0</ele><time>2026-04-28T07:57:05.669Z</time></trkpt><trkpt lat="37.9407723" lon="12.6748298"><ele>135.0</ele><time>2026-04-28T07:57:06.67Z</time></trkpt><trkpt lat="37.9408771" lon="12.6750379"><ele>135.0</ele><time>2026-04-28T07:57:07.671Z</time></trkpt><trkpt lat="37.9409753" lon="12.6752685"><ele>135.0</ele><time>2026-04-28T07:57:08.671Z</time></trkpt><trkpt lat="37.9410692" lon="12.6755099"><ele>135.0</ele><time>2026-04-28T07:57:09.669Z</time></trkpt><trkpt lat="37.9411677" lon="12.6757666"><ele>135.0</ele><time>2026-04-28T07:57:10.669Z</time></trkpt><trkpt lat="37.9412714" lon="12.6760233"><ele>134.0</ele><time>2026-04-28T07:57:11.67Z</time></trkpt><trkpt lat="37.9413731" lon="12.6762837"><ele>133.0</ele><time>2026-04-28T07:57:12.669Z</time></trkpt><trkpt lat="37.9414795" lon="12.6765471"><ele>133.0</ele><time>2026-04-28T07:57:13.671Z</time></trkpt><trkpt lat="37.9415802" lon="12.6768126"><ele>133.0</ele><time>2026-04-28T07:57:14.669Z</time></trkpt><trkpt lat="37.9416828" lon="12.677084"><ele>134.0</ele><time>2026-04-28T07:57:15.67Z</time></trkpt><trkpt lat="37.9417892" lon="12.6773541"><ele>135.0</ele><time>2026-04-28T07:57:16.669Z</time></trkpt><trkpt lat="37.9418849" lon="12.677611"><ele>135.66666666666666</ele><time>2026-04-28T07:57:17.671Z</time></trkpt><trkpt lat="37.9419778" lon="12.6778648"><ele>136.33333333333331</ele><time>2026-04-28T07:57:18.67Z</time></trkpt><trkpt lat="37.9420739" lon="12.6781102"><ele>137.0</ele><time>2026-04-28T07:57:19.67Z</time></trkpt><trkpt lat="37.9421635" lon="12.6783463"><ele>137.0</ele><time>2026-04-28T07:57:20.67Z</time></trkpt><trkpt lat="37.9422466" lon="12.6785659"><ele>137.0</ele><time>2026-04-28T07:57:21.671Z</time></trkpt><trkpt lat="37.9423275" lon="12.6787717"><ele>137.0</ele><time>2026-04-28T07:57:22.67Z</time></trkpt><trkpt lat="37.9424035" lon="12.6789822"><ele>137.0</ele><time>2026-04-28T07:57:23.669Z</time></trkpt><trkpt lat="37.9424852" lon="12.6791844"><ele>137.0</ele><time>2026-04-28T07:57:24.669Z</time></trkpt><trkpt lat="37.9425683" lon="12.679375"><ele>137.0</ele><time>2026-04-28T07:57:25.669Z</time></trkpt><trkpt lat="37.9426562" lon="12.6795591"><ele>138.33333333333331</ele><time>2026-04-28T07:57:26.671Z</time></trkpt><trkpt lat="37.9427502" lon="12.679744"><ele>139.66666666666666</ele><time>2026-04-28T07:57:27.67Z</time></trkpt><trkpt lat="37.9428399" lon="12.6799362"><ele>141.0</ele><time>2026-04-28T07:57:28.669Z</time></trkpt><trkpt lat="37.9429234" lon="12.6801336"><ele>142.33333333333334</ele><time>2026-04-28T07:57:29.671Z</time></trkpt><trkpt lat="37.9429922" lon="12.6803371"><ele>143.66666666666669</ele><time>2026-04-28T07:57:30.669Z</time></trkpt><trkpt lat="37.9430404" lon="12.6805481"><ele>145.0</ele><time>2026-04-28T07:57:31.67Z</time></trkpt><trkpt lat="37.9430649" lon="12.6807729"><ele>145.0</ele><time>2026-04-28T07:57:32.67Z</time></trkpt><trkpt lat="37.9430784" lon="12.6810014"><ele>145.0</ele><time>2026-04-28T07:57:33.67Z</time></trkpt><trkpt lat="37.9430866" lon="12.6812373"><ele>145.0</ele><time>2026-04-28T07:57:34.67Z</time></trkpt><trkpt lat="37.9430913" lon="12.6814783"><ele>145.0</ele><time>2026-04-28T07:57:35.669Z</time></trkpt><trkpt lat="37.9431012" lon="12.6817139"><ele>145.0</ele><time>2026-04-28T07:57:36.671Z</time></trkpt><trkpt lat="37.9431149" lon="12.6819424"><ele>145.0</ele><time>2026-04-28T07:57:37.669Z</time></trkpt><trkpt lat="37.9431277" lon="12.6821638"><ele>146.0</ele><time>2026-04-28T07:57:38.669Z</time></trkpt><trkpt lat="37.9431324" lon="12.6823653"><ele>147.0</ele><time>2026-04-28T07:57:39.669Z</time></trkpt><trkpt lat="37.9431139" lon="12.6825544"><ele>148.0</ele><time>2026-04-28T07:57:40.671Z</time></trkpt><trkpt lat="37.9430647" lon="12.6827311"><ele>149.0</ele><time>2026-04-28T07:57:41.669Z</time></trkpt><trkpt lat="37.9429931" lon="12.6829108"><ele>150.0</ele><time>2026-04-28T07:57:42.669Z</time></trkpt><trkpt lat="37.942896" lon="12.683084"><ele>151.0</ele><time>2026-04-28T07:57:43.671Z</time></trkpt><trkpt lat="37.942774" lon="12.6832474"><ele>151.0</ele><time>2026-04-28T07:57:44.669Z</time></trkpt><trkpt lat="37.9426434" lon="12.6834078"><ele>151.0</ele><time>2026-04-28T07:57:45.669Z</time></trkpt><trkpt lat="37.9425178" lon="12.683563"><ele>151.0</ele><time>2026-04-28T07:57:46.67Z</time></trkpt><trkpt lat="37.9424134" lon="12.6837232"><ele>153.66666666666669</ele><time>2026-04-28T07:57:47.669Z</time></trkpt><trkpt lat="37.9423379" lon="12.6839059"><ele>156.33333333333334</ele><time>2026-04-28T07:57:48.67Z</time></trkpt><trkpt lat="37.9422838" lon="12.6841001"><ele>159.0</ele><time>2026-04-28T07:57:49.67Z</time></trkpt><trkpt lat="37.942258" lon="12.6843173"><ele>160.0</ele><time>2026-04-28T07:57:50.67Z</time></trkpt><trkpt lat="37.9422457" lon="12.6845608"><ele>161.0</ele><time>2026-04-28T07:57:51.669Z</time></trkpt><trkpt lat="37.9422413" lon="12.6848163"><ele>162.0</ele><time>2026-04-28T07:57:52.671Z</time></trkpt><trkpt lat="37.942238" lon="12.6850704"><ele>162.0</ele><time>2026-04-28T07:57:53.67Z</time></trkpt><trkpt lat="37.94223" lon="12.6853299"><ele>162.0</ele><time>2026-04-28T07:57:54.669Z</time></trkpt><trkpt lat="37.942227" lon="12.6855949"><ele>162.0</ele><time>2026-04-28T07:57:55.671Z</time></trkpt><trkpt lat="37.9422195" lon="12.6858647"><ele>161.66666666666666</ele><time>2026-04-28T07:57:56.67Z</time></trkpt><trkpt lat="37.9422091" lon="12.6861265"><ele>161.33333333333331</ele><time>2026-04-28T07:57:57.67Z</time></trkpt><trkpt lat="37.9422038" lon="12.6863888"><ele>161.0</ele><time>2026-04-28T07:57:58.67Z</time></trkpt><trkpt lat="37.9421999" lon="12.6866337"><ele>161.0</ele><time>2026-04-28T07:57:59.671Z</time></trkpt><trkpt lat="37.9421953" lon="12.6868788"><ele>161.0</ele><time>2026-04-28T07:58:00.669Z</time></trkpt><trkpt lat="37.942184" lon="12.6871299"><ele>161.0</ele><time>2026-04-28T07:58:01.67Z</time></trkpt><trkpt lat="37.9421737" lon="12.6873705"><ele>160.66666666666666</ele><time>2026-04-28T07:58:02.669Z</time></trkpt><trkpt lat="37.9421673" lon="12.6876115"><ele>160.33333333333334</ele><time>2026-04-28T07:58:03.67Z</time></trkpt><trkpt lat="37.9421605" lon="12.6878591"><ele>160.0</ele><time>2026-04-28T07:58:04.67Z</time></trkpt><trkpt lat="37.9421534" lon="12.68811"><ele>160.33333333333334</ele><time>2026-04-28T07:58:05.669Z</time></trkpt><trkpt lat="37.9421455" lon="12.6883616"><ele>160.66666666666666</ele><time>2026-04-28T07:58:06.669Z</time></trkpt><trkpt lat="37.9421375" lon="12.6886178"><ele>161.0</ele><time>2026-04-28T07:58:07.669Z</time></trkpt><trkpt lat="37.9421277" lon="12.6888656"><ele>161.0</ele><time>2026-04-28T07:58:08.67Z</time></trkpt><trkpt lat="37.9421068" lon="12.689109"><ele>161.0</ele><time>2026-04-28T07:58:09.67Z</time></trkpt><trkpt lat="37.9420664" lon="12.68934"><ele>161.0</ele><time>2026-04-28T07:58:10.67Z</time></trkpt><trkpt lat="37.9420203" lon="12.6895703"><ele>159.66666666666666</ele><time>2026-04-28T07:58:11.669Z</time></trkpt><trkpt lat="37.9419782" lon="12.6898021"><ele>158.33333333333334</ele><time>2026-04-28T07:58:12.669Z</time></trkpt><trkpt lat="37.9419482" lon="12.6900444"><ele>157.0</ele><time>2026-04-28T07:58:13.67Z</time></trkpt><trkpt lat="37.9419308" lon="12.6902902"><ele>156.0</ele><time>2026-04-28T07:58:14.67Z</time></trkpt><trkpt lat="37.9419244" lon="12.6905436"><ele>155.0</ele><time>2026-04-28T07:58:15.669Z</time></trkpt><trkpt lat="37.9419149" lon="12.6907976"><ele>154.0</ele><time>2026-04-28T07:58:16.669Z</time></trkpt><trkpt lat="37.9419082" lon="12.6910468"><ele>154.66666666666669</ele><time>2026-04-28T07:58:17.669Z</time></trkpt><trkpt lat="37.9419042" lon="12.691284"><ele>155.33333333333334</ele><time>2026-04-28T07:58:18.671Z</time></trkpt><trkpt lat="37.941906" lon="12.6915063"><ele>156.0</ele><time>2026-04-28T07:58:19.669Z</time></trkpt><trkpt lat="37.9419156" lon="12.6917055"><ele>156.0</ele><time>2026-04-28T07:58:20.67Z</time></trkpt><trkpt lat="37.9419616" lon="12.6918974"><ele>156.0</ele><time>2026-04-28T07:58:21.669Z</time></trkpt><trkpt lat="37.9420349" lon="12.6920801"><ele>156.0</ele><time>2026-04-28T07:58:22.67Z</time></trkpt><trkpt lat="37.942134" lon="12.6922461"><ele>157.0</ele><time>2026-04-28T07:58:23.67Z</time></trkpt><trkpt lat="37.9422615" lon="12.6923954"><ele>158.0</ele><time>2026-04-28T07:58:24.67Z</time></trkpt><trkpt lat="37.9423981" lon="12.692521"><ele>159.0</ele><time>2026-04-28T07:58:25.669Z</time></trkpt><trkpt lat="37.9425338" lon="12.6926337"><ele>158.66666666666666</ele><time>2026-04-28T07:58:26.669Z</time></trkpt><trkpt lat="37.9426618" lon="12.6927535"><ele>158.33333333333331</ele><time>2026-04-28T07:58:27.669Z</time></trkpt><trkpt lat="37.9427902" lon="12.6928806"><ele>158.0</ele><time>2026-04-28T07:58:28.67Z</time></trkpt><trkpt lat="37.9429136" lon="12.6930002"><ele>158.0</ele><time>2026-04-28T07:58:29.67Z</time></trkpt><trkpt lat="37.9430342" lon="12.6931364"><ele>158.0</ele><time>2026-04-28T07:58:30.67Z</time></trkpt><trkpt lat="37.9431326" lon="12.6932995"><ele>158.0</ele><time>2026-04-28T07:58:31.67Z</time></trkpt><trkpt lat="37.9432183" lon="12.6935001"><ele>157.33333333333331</ele><time>2026-04-28T07:58:32.67Z</time></trkpt><trkpt lat="37.9433019" lon="12.6937073"><ele>156.66666666666666</ele><time>2026-04-28T07:58:33.67Z</time></trkpt><trkpt lat="37.9433789" lon="12.693924"><ele>156.0</ele><time>2026-04-28T07:58:34.67Z</time></trkpt><trkpt lat="37.9434505" lon="12.6941307"><ele>155.5</ele><time>2026-04-28T07:58:35.576Z</time></trkpt><trkpt lat="37.9435478" lon="12.6943993"><ele>155.0</ele><time>2026-04-28T07:58:36.705Z</time></trkpt><trkpt lat="37.94371" lon="12.6948507"><ele>155.0</ele><time>2026-04-28T07:58:38.669Z</time></trkpt><trkpt lat="37.9437891" lon="12.6950666"><ele>155.0</ele><time>2026-04-28T07:58:39.671Z</time></trkpt><trkpt lat="37.9438617" lon="12.6952638"><ele>155.0</ele><time>2026-04-28T07:58:40.669Z</time></trkpt><trkpt lat="37.9439301" lon="12.6954379"><ele>156.0</ele><time>2026-04-28T07:58:41.669Z</time></trkpt><trkpt lat="37.9439936" lon="12.6955923"><ele>157.0</ele><time>2026-04-28T07:58:42.669Z</time></trkpt><trkpt lat="37.944049" lon="12.6957292"><ele>158.0</ele><time>2026-04-28T07:58:43.67Z</time></trkpt><trkpt lat="37.944101" lon="12.695847"><ele>159.0</ele><time>2026-04-28T07:58:44.669Z</time></trkpt><trkpt lat="37.9441507" lon="12.6959507"><ele>159.0</ele><time>2026-04-28T07:58:45.669Z</time></trkpt><trkpt lat="37.9442101" lon="12.6960385"><ele>159.0</ele><time>2026-04-28T07:58:46.67Z</time></trkpt><trkpt lat="37.944277" lon="12.6961142"><ele>159.0</ele><time>2026-04-28T07:58:47.669Z</time></trkpt><trkpt lat="37.9443474" lon="12.6961856"><ele>159.0</ele><time>2026-04-28T07:58:48.669Z</time></trkpt><trkpt lat="37.9444079" lon="12.6962531"><ele>159.0</ele><time>2026-04-28T07:58:49.669Z</time></trkpt><trkpt lat="37.9444598" lon="12.696314"><ele>159.0</ele><time>2026-04-28T07:58:50.67Z</time></trkpt><trkpt lat="37.9445327" lon="12.69641"><ele>160.0</ele><time>2026-04-28T07:58:52.669Z</time></trkpt><trkpt lat="37.944589" lon="12.6964576"><ele>161.0</ele><time>2026-04-28T07:58:54.669Z</time></trkpt><trkpt lat="37.9446717" lon="12.696439"><ele>162.0</ele><time>2026-04-28T07:58:57.669Z</time></trkpt><trkpt lat="37.944768" lon="12.6963453"><ele>163.0</ele><time>2026-04-28T07:58:59.671Z</time></trkpt><trkpt lat="37.944816" lon="12.6962872"><ele>164.0</ele><time>2026-04-28T07:59:00.669Z</time></trkpt><trkpt lat="37.9448727" lon="12.6962135"><ele>165.0</ele><time>2026-04-28T07:59:01.67Z</time></trkpt><trkpt lat="37.9449421" lon="12.696123"><ele>165.25</ele><time>2026-04-28T07:59:02.669Z</time></trkpt><trkpt lat="37.9450168" lon="12.6960328"><ele>165.5</ele><time>2026-04-28T07:59:03.671Z</time></trkpt><trkpt lat="37.9450943" lon="12.6959294"><ele>165.75</ele><time>2026-04-28T07:59:04.67Z</time></trkpt><trkpt lat="37.9451773" lon="12.695813"><ele>166.0</ele><time>2026-04-28T07:59:05.669Z</time></trkpt><trkpt lat="37.9452657" lon="12.6956824"><ele>166.0</ele><time>2026-04-28T07:59:06.67Z</time></trkpt><trkpt lat="37.9453606" lon="12.6955465"><ele>166.0</ele><time>2026-04-28T07:59:07.669Z</time></trkpt><trkpt lat="37.9454606" lon="12.6954138"><ele>166.0</ele><time>2026-04-28T07:59:08.669Z</time></trkpt><trkpt lat="37.9455564" lon="12.6952809"><ele>166.0</ele><time>2026-04-28T07:59:09.669Z</time></trkpt><trkpt lat="37.9456595" lon="12.6951406"><ele>165.33333333333334</ele><time>2026-04-28T07:59:10.671Z</time></trkpt><trkpt lat="37.9457683" lon="12.6949952"><ele>164.66666666666666</ele><time>2026-04-28T07:59:11.67Z</time></trkpt><trkpt lat="37.9458706" lon="12.6948467"><ele>164.0</ele><time>2026-04-28T07:59:12.67Z</time></trkpt><trkpt lat="37.9459826" lon="12.6946959"><ele>164.0</ele><time>2026-04-28T07:59:13.67Z</time></trkpt><trkpt lat="37.9461" lon="12.6945456"><ele>164.0</ele><time>2026-04-28T07:59:14.669Z</time></trkpt><trkpt lat="37.9462188" lon="12.6943906"><ele>164.0</ele><time>2026-04-28T07:59:15.67Z</time></trkpt><trkpt lat="37.9463381" lon="12.6942333"><ele>162.66666666666666</ele><time>2026-04-28T07:59:16.669Z</time></trkpt><trkpt lat="37.9464582" lon="12.694079"><ele>161.33333333333334</ele><time>2026-04-28T07:59:17.67Z</time></trkpt><trkpt lat="37.9465744" lon="12.693929"><ele>160.0</ele><time>2026-04-28T07:59:18.67Z</time></trkpt><trkpt lat="37.946685" lon="12.6937734"><ele>159.0</ele><time>2026-04-28T07:59:19.671Z</time></trkpt><trkpt lat="37.9467974" lon="12.6936223"><ele>158.0</ele><time>2026-04-28T07:59:20.671Z</time></trkpt><trkpt lat="37.9469055" lon="12.6934774"><ele>157.0</ele><time>2026-04-28T07:59:21.67Z</time></trkpt><trkpt lat="37.9470111" lon="12.6933328"><ele>155.66666666666669</ele><time>2026-04-28T07:59:22.672Z</time></trkpt><trkpt lat="37.947117" lon="12.6931892"><ele>154.33333333333334</ele><time>2026-04-28T07:59:23.669Z</time></trkpt><trkpt lat="37.9472204" lon="12.6930523"><ele>153.0</ele><time>2026-04-28T07:59:24.671Z</time></trkpt><trkpt lat="37.9473276" lon="12.6929121"><ele>153.0</ele><time>2026-04-28T07:59:25.669Z</time></trkpt><trkpt lat="37.9474283" lon="12.6927724"><ele>153.0</ele><time>2026-04-28T07:59:26.669Z</time></trkpt><trkpt lat="37.9475354" lon="12.6926354"><ele>153.0</ele><time>2026-04-28T07:59:27.67Z</time></trkpt><trkpt lat="37.9476395" lon="12.6924974"><ele>153.5</ele><time>2026-04-28T07:59:28.669Z</time></trkpt><trkpt lat="37.9477409" lon="12.6923654"><ele>154.0</ele><time>2026-04-28T07:59:29.669Z</time></trkpt><trkpt lat="37.9478414" lon="12.6922278"><ele>154.5</ele><time>2026-04-28T07:59:30.67Z</time></trkpt><trkpt lat="37.947943" lon="12.6920921"><ele>155.0</ele><time>2026-04-28T07:59:31.671Z</time></trkpt><trkpt lat="37.9480445" lon="12.6919535"><ele>154.0</ele><time>2026-04-28T07:59:32.67Z</time></trkpt><trkpt lat="37.9481463" lon="12.6918234"><ele>153.0</ele><time>2026-04-28T07:59:33.67Z</time></trkpt><trkpt lat="37.9482426" lon="12.6916933"><ele>152.0</ele><time>2026-04-28T07:59:34.669Z</time></trkpt><trkpt lat="37.9483334" lon="12.6915716"><ele>151.0</ele><time>2026-04-28T07:59:35.67Z</time></trkpt><trkpt lat="37.9484144" lon="12.6914579"><ele>150.8</ele><time>2026-04-28T07:59:36.669Z</time></trkpt><trkpt lat="37.9484856" lon="12.6913585"><ele>150.6</ele><time>2026-04-28T07:59:37.67Z</time></trkpt><trkpt lat="37.9485538" lon="12.6912732"><ele>150.4</ele><time>2026-04-28T07:59:38.669Z</time></trkpt><trkpt lat="37.9486183" lon="12.691189"><ele>150.2</ele><time>2026-04-28T07:59:39.671Z</time></trkpt><trkpt lat="37.9486829" lon="12.6911076"><ele>150.0</ele><time>2026-04-28T07:59:40.669Z</time></trkpt><trkpt lat="37.9487516" lon="12.69102"><ele>150.5</ele><time>2026-04-28T07:59:41.67Z</time></trkpt><trkpt lat="37.9488173" lon="12.6909237"><ele>151.0</ele><time>2026-04-28T07:59:42.671Z</time></trkpt><trkpt lat="37.948898" lon="12.6908102"><ele>151.5</ele><time>2026-04-28T07:59:43.669Z</time></trkpt><trkpt lat="37.9489762" lon="12.6906842"><ele>152.0</ele><time>2026-04-28T07:59:44.671Z</time></trkpt><trkpt lat="37.9490675" lon="12.6905565"><ele>152.0</ele><time>2026-04-28T07:59:45.67Z</time></trkpt><trkpt lat="37.9491709" lon="12.6904188"><ele>152.0</ele><time>2026-04-28T07:59:46.671Z</time></trkpt><trkpt lat="37.9492812" lon="12.6902815"><ele>152.0</ele><time>2026-04-28T07:59:47.67Z</time></trkpt><trkpt lat="37.9493893" lon="12.6901502"><ele>151.66666666666666</ele><time>2026-04-28T07:59:48.671Z</time></trkpt><trkpt lat="37.9494991" lon="12.6900114"><ele>151.33333333333334</ele><time>2026-04-28T07:59:49.671Z</time></trkpt><trkpt lat="37.949608" lon="12.6898739"><ele>151.0</ele><time>2026-04-28T07:59:50.671Z</time></trkpt><trkpt lat="37.9497124" lon="12.6897305"><ele>151.0</ele><time>2026-04-28T07:59:51.669Z</time></trkpt><trkpt lat="37.9498262" lon="12.6895769"><ele>151.0</ele><time>2026-04-28T07:59:52.67Z</time></trkpt><trkpt lat="37.9499405" lon="12.6894213"><ele>151.0</ele><time>2026-04-28T07:59:53.669Z</time></trkpt><trkpt lat="37.950048" lon="12.6892704"><ele>151.33333333333334</ele><time>2026-04-28T07:59:54.671Z</time></trkpt><trkpt lat="37.9501555" lon="12.6891213"><ele>151.66666666666666</ele><time>2026-04-28T07:59:55.669Z</time></trkpt><trkpt lat="37.9502652" lon="12.6889734"><ele>152.0</ele><time>2026-04-28T07:59:56.669Z</time></trkpt><trkpt lat="37.9503802" lon="12.6888206"><ele>152.0</ele><time>2026-04-28T07:59:57.671Z</time></trkpt><trkpt lat="37.9504971" lon="12.6886669"><ele>152.0</ele><time>2026-04-28T07:59:58.671Z</time></trkpt><trkpt lat="37.9506193" lon="12.6885084"><ele>152.0</ele><time>2026-04-28T07:59:59.671Z</time></trkpt><trkpt lat="37.9507403" lon="12.6883453"><ele>151.66666666666666</ele><time>2026-04-28T08:00:00.669Z</time></trkpt><trkpt lat="37.9508623" lon="12.6881838"><ele>151.33333333333334</ele><time>2026-04-28T08:00:01.672Z</time></trkpt><trkpt lat="37.950988" lon="12.6880227"><ele>151.0</ele><time>2026-04-28T08:00:02.67Z</time></trkpt><trkpt lat="37.9511131" lon="12.6878568"><ele>152.0</ele><time>2026-04-28T08:00:03.671Z</time></trkpt><trkpt lat="37.9512357" lon="12.6876888"><ele>153.0</ele><time>2026-04-28T08:00:04.671Z</time></trkpt><trkpt lat="37.9513565" lon="12.6875191"><ele>154.0</ele><time>2026-04-28T08:00:05.671Z</time></trkpt><trkpt lat="37.9514797" lon="12.6873495"><ele>154.0</ele><time>2026-04-28T08:00:06.67Z</time></trkpt><trkpt lat="37.9516021" lon="12.6871717"><ele>154.0</ele><time>2026-04-28T08:00:07.67Z</time></trkpt><trkpt lat="37.9517283" lon="12.6869956"><ele>154.0</ele><time>2026-04-28T08:00:08.669Z</time></trkpt><trkpt lat="37.9518652" lon="12.686815"><ele>154.66666666666669</ele><time>2026-04-28T08:00:09.67Z</time></trkpt><trkpt lat="37.9520083" lon="12.6866324"><ele>155.33333333333334</ele><time>2026-04-28T08:00:10.67Z</time></trkpt><trkpt lat="37.9521592" lon="12.6864503"><ele>156.0</ele><time>2026-04-28T08:00:11.671Z</time></trkpt><trkpt lat="37.9523115" lon="12.6862607"><ele>156.33333333333334</ele><time>2026-04-28T08:00:12.669Z</time></trkpt><trkpt lat="37.952453" lon="12.6860743"><ele>156.66666666666669</ele><time>2026-04-28T08:00:13.67Z</time></trkpt><trkpt lat="37.9525998" lon="12.685876"><ele>157.0</ele><time>2026-04-28T08:00:14.67Z</time></trkpt><trkpt lat="37.9527461" lon="12.6856805"><ele>157.33333333333334</ele><time>2026-04-28T08:00:15.671Z</time></trkpt><trkpt lat="37.9528895" lon="12.6854852"><ele>157.66666666666666</ele><time>2026-04-28T08:00:16.67Z</time></trkpt><trkpt lat="37.9530271" lon="12.6853021"><ele>158.0</ele><time>2026-04-28T08:00:17.67Z</time></trkpt><trkpt lat="37.9531634" lon="12.6851216"><ele>158.33333333333331</ele><time>2026-04-28T08:00:18.671Z</time></trkpt><trkpt lat="37.9532981" lon="12.6849415"><ele>158.66666666666666</ele><time>2026-04-28T08:00:19.67Z</time></trkpt><trkpt lat="37.9534317" lon="12.6847648"><ele>159.0</ele><time>2026-04-28T08:00:20.669Z</time></trkpt><trkpt lat="37.9535715" lon="12.684583"><ele>161.0</ele><time>2026-04-28T08:00:21.67Z</time></trkpt><trkpt lat="37.9537005" lon="12.6844027"><ele>163.0</ele><time>2026-04-28T08:00:22.67Z</time></trkpt><trkpt lat="37.9538333" lon="12.6842161"><ele>165.0</ele><time>2026-04-28T08:00:23.671Z</time></trkpt><trkpt lat="37.9539661" lon="12.6840469"><ele>165.0</ele><time>2026-04-28T08:00:24.67Z</time></trkpt><trkpt lat="37.9540999" lon="12.683893"><ele>165.0</ele><time>2026-04-28T08:00:25.67Z</time></trkpt><trkpt lat="37.9542387" lon="12.6837397"><ele>165.0</ele><time>2026-04-28T08:00:26.669Z</time></trkpt><trkpt lat="37.9543831" lon="12.683595"><ele>166.0</ele><time>2026-04-28T08:00:27.671Z</time></trkpt><trkpt lat="37.9545263" lon="12.6834593"><ele>167.0</ele><time>2026-04-28T08:00:28.67Z</time></trkpt><trkpt lat="37.9546747" lon="12.6833319"><ele>168.0</ele><time>2026-04-28T08:00:29.669Z</time></trkpt><trkpt lat="37.9548305" lon="12.6832127"><ele>168.0</ele><time>2026-04-28T08:00:30.671Z</time></trkpt><trkpt lat="37.9549852" lon="12.6830938"><ele>168.0</ele><time>2026-04-28T08:00:31.67Z</time></trkpt><trkpt lat="37.9551405" lon="12.6829726"><ele>168.0</ele><time>2026-04-28T08:00:32.67Z</time></trkpt><trkpt lat="37.9553014" lon="12.682842"><ele>166.0</ele><time>2026-04-28T08:00:33.671Z</time></trkpt><trkpt lat="37.9554647" lon="12.6827105"><ele>164.0</ele><time>2026-04-28T08:00:34.67Z</time></trkpt><trkpt lat="37.9556272" lon="12.6825741"><ele>162.0</ele><time>2026-04-28T08:00:35.671Z</time></trkpt><trkpt lat="37.9557911" lon="12.6824436"><ele>162.33333333333334</ele><time>2026-04-28T08:00:36.67Z</time></trkpt><trkpt lat="37.9559538" lon="12.6823104"><ele>162.66666666666669</ele><time>2026-04-28T08:00:37.67Z</time></trkpt><trkpt lat="37.9561184" lon="12.6821767"><ele>163.0</ele><time>2026-04-28T08:00:38.67Z</time></trkpt><trkpt lat="37.9562813" lon="12.6820462"><ele>163.66666666666669</ele><time>2026-04-28T08:00:39.67Z</time></trkpt><trkpt lat="37.9564376" lon="12.6819249"><ele>164.33333333333334</ele><time>2026-04-28T08:00:40.671Z</time></trkpt><trkpt lat="37.9565844" lon="12.6818097"><ele>165.0</ele><time>2026-04-28T08:00:41.671Z</time></trkpt><trkpt lat="37.9567327" lon="12.681692"><ele>165.0</ele><time>2026-04-28T08:00:42.67Z</time></trkpt><trkpt lat="37.9568807" lon="12.6815735"><ele>165.0</ele><time>2026-04-28T08:00:43.669Z</time></trkpt><trkpt lat="37.9570331" lon="12.6814617"><ele>165.0</ele><time>2026-04-28T08:00:44.67Z</time></trkpt><trkpt lat="37.9571856" lon="12.6813383"><ele>165.0</ele><time>2026-04-28T08:00:45.67Z</time></trkpt><trkpt lat="37.9573362" lon="12.6812162"><ele>165.0</ele><time>2026-04-28T08:00:46.669Z</time></trkpt><trkpt lat="37.957485" lon="12.6810968"><ele>165.0</ele><time>2026-04-28T08:00:47.671Z</time></trkpt><trkpt lat="37.9576329" lon="12.6809736"><ele>167.66666666666666</ele><time>2026-04-28T08:00:48.67Z</time></trkpt><trkpt lat="37.9577817" lon="12.6808538"><ele>170.33333333333331</ele><time>2026-04-28T08:00:49.67Z</time></trkpt><trkpt lat="37.9579283" lon="12.680734"><ele>173.0</ele><time>2026-04-28T08:00:50.67Z</time></trkpt><trkpt lat="37.9580736" lon="12.6806173"><ele>173.0</ele><time>2026-04-28T08:00:51.671Z</time></trkpt><trkpt lat="37.958219" lon="12.6804867"><ele>173.0</ele><time>2026-04-28T08:00:52.671Z</time></trkpt><trkpt lat="37.958366" lon="12.680366"><ele>173.0</ele><time>2026-04-28T08:00:53.67Z</time></trkpt><trkpt lat="37.9585081" lon="12.6802284"><ele>173.66666666666666</ele><time>2026-04-28T08:00:54.67Z</time></trkpt><trkpt lat="37.9586509" lon="12.6800926"><ele>174.33333333333334</ele><time>2026-04-28T08:00:55.67Z</time></trkpt><trkpt lat="37.9587935" lon="12.6799614"><ele>175.0</ele><time>2026-04-28T08:00:56.67Z</time></trkpt><trkpt lat="37.9589336" lon="12.6798233"><ele>175.0</ele><time>2026-04-28T08:00:57.671Z</time></trkpt><trkpt lat="37.9590706" lon="12.6796904"><ele>175.0</ele><time>2026-04-28T08:00:58.67Z</time></trkpt><trkpt lat="37.9592022" lon="12.6795566"><ele>175.0</ele><time>2026-04-28T08:00:59.671Z</time></trkpt><trkpt lat="37.9593294" lon="12.6794106"><ele>176.66666666666669</ele><time>2026-04-28T08:01:00.67Z</time></trkpt><trkpt lat="37.959441" lon="12.6792558"><ele>178.33333333333334</ele><time>2026-04-28T08:01:01.671Z</time></trkpt><trkpt lat="37.9595344" lon="12.679096"><ele>180.0</ele><time>2026-04-28T08:01:02.67Z</time></trkpt><trkpt lat="37.9596081" lon="12.6789339"><ele>180.0</ele><time>2026-04-28T08:01:03.67Z</time></trkpt><trkpt lat="37.959664" lon="12.678778"><ele>180.0</ele><time>2026-04-28T08:01:04.671Z</time></trkpt><trkpt lat="37.9597111" lon="12.678639"><ele>180.0</ele><time>2026-04-28T08:01:05.67Z</time></trkpt><trkpt lat="37.9597583" lon="12.6785123"><ele>180.0</ele><time>2026-04-28T08:01:06.671Z</time></trkpt><trkpt lat="37.9597956" lon="12.6784004"><ele>180.6</ele><time>2026-04-28T08:01:07.672Z</time></trkpt><trkpt lat="37.9598364" lon="12.6783195"><ele>181.2</ele><time>2026-04-28T08:01:08.67Z</time></trkpt><trkpt lat="37.9599324" lon="12.6782415"><ele>181.8</ele><time>2026-04-28T08:01:10.67Z</time></trkpt><trkpt lat="37.9600592" lon="12.6782786"><ele>182.4</ele><time>2026-04-28T08:01:12.671Z</time></trkpt><trkpt lat="37.9601474" lon="12.6783303"><ele>183.0</ele><time>2026-04-28T08:01:13.671Z</time></trkpt><trkpt lat="37.9602399" lon="12.6783842"><ele>183.25</ele><time>2026-04-28T08:01:14.67Z</time></trkpt><trkpt lat="37.9603454" lon="12.6784463"><ele>183.5</ele><time>2026-04-28T08:01:15.67Z</time></trkpt><trkpt lat="37.9604582" lon="12.6785213"><ele>183.75</ele><time>2026-04-28T08:01:16.67Z</time></trkpt><trkpt lat="37.9605864" lon="12.6785961"><ele>184.0</ele><time>2026-04-28T08:01:17.67Z</time></trkpt><trkpt lat="37.960715" lon="12.6786771"><ele>183.25</ele><time>2026-04-28T08:01:18.671Z</time></trkpt><trkpt lat="37.9608462" lon="12.6787613"><ele>182.5</ele><time>2026-04-28T08:01:19.67Z</time></trkpt><trkpt lat="37.9609798" lon="12.6788403"><ele>181.75</ele><time>2026-04-28T08:01:20.67Z</time></trkpt><trkpt lat="37.9611046" lon="12.67892"><ele>181.0</ele><time>2026-04-28T08:01:21.67Z</time></trkpt><trkpt lat="37.9612244" lon="12.678999"><ele>181.0</ele><time>2026-04-28T08:01:22.669Z</time></trkpt><trkpt lat="37.961349" lon="12.6790769"><ele>181.0</ele><time>2026-04-28T08:01:23.67Z</time></trkpt><trkpt lat="37.9614744" lon="12.679155"><ele>181.0</ele><time>2026-04-28T08:01:24.672Z</time></trkpt><trkpt lat="37.9616034" lon="12.6792403"><ele>181.0</ele><time>2026-04-28T08:01:25.671Z</time></trkpt><trkpt lat="37.9617394" lon="12.6793297"><ele>181.66666666666669</ele><time>2026-04-28T08:01:26.67Z</time></trkpt><trkpt lat="37.9618796" lon="12.6794126"><ele>182.33333333333334</ele><time>2026-04-28T08:01:27.67Z</time></trkpt><trkpt lat="37.9620291" lon="12.6795017"><ele>183.0</ele><time>2026-04-28T08:01:28.67Z</time></trkpt><trkpt lat="37.9621679" lon="12.6795888"><ele>181.66666666666666</ele><time>2026-04-28T08:01:29.672Z</time></trkpt><trkpt lat="37.9623138" lon="12.6796809"><ele>180.33333333333331</ele><time>2026-04-28T08:01:30.67Z</time></trkpt><trkpt lat="37.962454" lon="12.6797599"><ele>179.0</ele><time>2026-04-28T08:01:31.671Z</time></trkpt><trkpt lat="37.9626042" lon="12.6798449"><ele>179.0</ele><time>2026-04-28T08:01:32.67Z</time></trkpt><trkpt lat="37.9627499" lon="12.679919"><ele>179.0</ele><time>2026-04-28T08:01:33.671Z</time></trkpt><trkpt lat="37.9629046" lon="12.679975"><ele>179.0</ele><time>2026-04-28T08:01:34.67Z</time></trkpt><trkpt lat="37.9630625" lon="12.6800334"><ele>179.0</ele><time>2026-04-28T08:01:35.67Z</time></trkpt><trkpt lat="37.9632256" lon="12.6800899"><ele>179.0</ele><time>2026-04-28T08:01:36.67Z</time></trkpt><trkpt lat="37.9633934" lon="12.6801474"><ele>179.0</ele><time>2026-04-28T08:01:37.671Z</time></trkpt><trkpt lat="37.9635635" lon="12.6802065"><ele>178.66666666666666</ele><time>2026-04-28T08:01:38.671Z</time></trkpt><trkpt lat="37.9637339" lon="12.680263"><ele>178.33333333333334</ele><time>2026-04-28T08:01:39.67Z</time></trkpt><trkpt lat="37.963908" lon="12.6803233"><ele>178.0</ele><time>2026-04-28T08:01:40.67Z</time></trkpt><trkpt lat="37.9640823" lon="12.6803723"><ele>180.0</ele><time>2026-04-28T08:01:41.671Z</time></trkpt><trkpt lat="37.964253" lon="12.6804313"><ele>182.0</ele><time>2026-04-28T08:01:42.67Z</time></trkpt><trkpt lat="37.9644195" lon="12.6804833"><ele>184.0</ele><time>2026-04-28T08:01:43.671Z</time></trkpt><trkpt lat="37.9645848" lon="12.6805377"><ele>184.0</ele><time>2026-04-28T08:01:44.67Z</time></trkpt><trkpt lat="37.9647509" lon="12.6806011"><ele>184.0</ele><time>2026-04-28T08:01:45.671Z</time></trkpt><trkpt lat="37.9649218" lon="12.6806652"><ele>184.0</ele><time>2026-04-28T08:01:46.671Z</time></trkpt><trkpt lat="37.9650819" lon="12.6807235"><ele>185.33333333333334</ele><time>2026-04-28T08:01:47.67Z</time></trkpt><trkpt lat="37.9652513" lon="12.6807626"><ele>186.66666666666666</ele><time>2026-04-28T08:01:48.67Z</time></trkpt><trkpt lat="37.9654266" lon="12.6807748"><ele>188.0</ele><time>2026-04-28T08:01:49.669Z</time></trkpt><trkpt lat="37.9656101" lon="12.6807839"><ele>188.0</ele><time>2026-04-28T08:01:50.67Z</time></trkpt><trkpt lat="37.9657938" lon="12.6807861"><ele>188.0</ele><time>2026-04-28T08:01:51.67Z</time></trkpt><trkpt lat="37.9659738" lon="12.6807871"><ele>188.0</ele><time>2026-04-28T08:01:52.67Z</time></trkpt><trkpt lat="37.9661436" lon="12.680782"><ele>189.75</ele><time>2026-04-28T08:01:53.67Z</time></trkpt><trkpt lat="37.9662926" lon="12.6807662"><ele>191.5</ele><time>2026-04-28T08:01:54.669Z</time></trkpt><trkpt lat="37.9664317" lon="12.6807325"><ele>193.25</ele><time>2026-04-28T08:01:55.67Z</time></trkpt><trkpt lat="37.9665642" lon="12.6806778"><ele>195.0</ele><time>2026-04-28T08:01:56.67Z</time></trkpt><trkpt lat="37.9666936" lon="12.6806005"><ele>197.33333333333331</ele><time>2026-04-28T08:01:57.67Z</time></trkpt><trkpt lat="37.9668236" lon="12.6805134"><ele>199.66666666666666</ele><time>2026-04-28T08:01:58.671Z</time></trkpt><trkpt lat="37.9669654" lon="12.6804224"><ele>202.0</ele><time>2026-04-28T08:01:59.67Z</time></trkpt><trkpt lat="37.9671117" lon="12.6803289"><ele>202.66666666666666</ele><time>2026-04-28T08:02:00.671Z</time></trkpt><trkpt lat="37.9672642" lon="12.6802351"><ele>203.33333333333331</ele><time>2026-04-28T08:02:01.67Z</time></trkpt><trkpt lat="37.9674235" lon="12.6801482"><ele>204.0</ele><time>2026-04-28T08:02:02.67Z</time></trkpt><trkpt lat="37.9675821" lon="12.6800592"><ele>204.0</ele><time>2026-04-28T08:02:03.67Z</time></trkpt><trkpt lat="37.9677241" lon="12.6799833"><ele>204.0</ele><time>2026-04-28T08:02:04.67Z</time></trkpt><trkpt lat="37.9678604" lon="12.6798985"><ele>204.0</ele><time>2026-04-28T08:02:05.669Z</time></trkpt><trkpt lat="37.9679852" lon="12.6798499"><ele>204.0</ele><time>2026-04-28T08:02:06.669Z</time></trkpt><trkpt lat="37.9681014" lon="12.6798384"><ele>204.0</ele><time>2026-04-28T08:02:07.671Z</time></trkpt><trkpt lat="37.9682292" lon="12.6798487"><ele>204.0</ele><time>2026-04-28T08:02:08.67Z</time></trkpt><trkpt lat="37.9683669" lon="12.6798674"><ele>204.0</ele><time>2026-04-28T08:02:09.672Z</time></trkpt><trkpt lat="37.9685191" lon="12.6798922"><ele>204.0</ele><time>2026-04-28T08:02:10.67Z</time></trkpt><trkpt lat="37.968672" lon="12.6799162"><ele>204.0</ele><time>2026-04-28T08:02:11.67Z</time></trkpt><trkpt lat="37.9688149" lon="12.6799474"><ele>204.0</ele><time>2026-04-28T08:02:12.67Z</time></trkpt><trkpt lat="37.9689387" lon="12.6800027"><ele>204.0</ele><time>2026-04-28T08:02:13.67Z</time></trkpt><trkpt lat="37.9690401" lon="12.6800834"><ele>204.0</ele><time>2026-04-28T08:02:14.67Z</time></trkpt><trkpt lat="37.9691169" lon="12.6801912"><ele>204.75</ele><time>2026-04-28T08:02:15.67Z</time></trkpt><trkpt lat="37.9691651" lon="12.6803298"><ele>205.5</ele><time>2026-04-28T08:02:16.67Z</time></trkpt><trkpt lat="37.96918" lon="12.6804969"><ele>206.25</ele><time>2026-04-28T08:02:17.669Z</time></trkpt><trkpt lat="37.969182" lon="12.6806962"><ele>207.0</ele><time>2026-04-28T08:02:18.67Z</time></trkpt><trkpt lat="37.9691692" lon="12.6809017"><ele>208.0</ele><time>2026-04-28T08:02:19.67Z</time></trkpt><trkpt lat="37.9691448" lon="12.6811159"><ele>209.0</ele><time>2026-04-28T08:02:20.67Z</time></trkpt><trkpt lat="37.9691026" lon="12.681306"><ele>210.0</ele><time>2026-04-28T08:02:21.67Z</time></trkpt><trkpt lat="37.9690657" lon="12.6814807"><ele>210.0</ele><time>2026-04-28T08:02:22.67Z</time></trkpt><trkpt lat="37.9690591" lon="12.6816439"><ele>210.0</ele><time>2026-04-28T08:02:23.671Z</time></trkpt><trkpt lat="37.9690887" lon="12.6817938"><ele>210.0</ele><time>2026-04-28T08:02:24.67Z</time></trkpt><trkpt lat="37.9691493" lon="12.6819352"><ele>210.0</ele><time>2026-04-28T08:02:25.67Z</time></trkpt><trkpt lat="37.9692322" lon="12.6820649"><ele>209.33333333333331</ele><time>2026-04-28T08:02:26.67Z</time></trkpt><trkpt lat="37.9693366" lon="12.6822014"><ele>208.66666666666666</ele><time>2026-04-28T08:02:27.67Z</time></trkpt><trkpt lat="37.9694585" lon="12.682332"><ele>208.0</ele><time>2026-04-28T08:02:28.67Z</time></trkpt><trkpt lat="37.9695688" lon="12.6824626"><ele>208.0</ele><time>2026-04-28T08:02:29.671Z</time></trkpt><trkpt lat="37.9696564" lon="12.682578"><ele>208.0</ele><time>2026-04-28T08:02:30.67Z</time></trkpt><trkpt lat="37.9697198" lon="12.6826975"><ele>208.0</ele><time>2026-04-28T08:02:31.67Z</time></trkpt><trkpt lat="37.9697697" lon="12.6828376"><ele>208.0</ele><time>2026-04-28T08:02:32.67Z</time></trkpt><trkpt lat="37.9698092" lon="12.6829981"><ele>209.5</ele><time>2026-04-28T08:02:33.67Z</time></trkpt><trkpt lat="37.9698498" lon="12.6831654"><ele>211.0</ele><time>2026-04-28T08:02:34.67Z</time></trkpt><trkpt lat="37.9698908" lon="12.6833385"><ele>212.5</ele><time>2026-04-28T08:02:35.67Z</time></trkpt><trkpt lat="37.969926" lon="12.683527"><ele>214.0</ele><time>2026-04-28T08:02:36.672Z</time></trkpt><trkpt lat="37.9699734" lon="12.6837194"><ele>212.66666666666666</ele><time>2026-04-28T08:02:37.671Z</time></trkpt><trkpt lat="37.9700213" lon="12.6839106"><ele>211.33333333333331</ele><time>2026-04-28T08:02:38.67Z</time></trkpt><trkpt lat="37.9700672" lon="12.6840976"><ele>210.0</ele><time>2026-04-28T08:02:39.671Z</time></trkpt><trkpt lat="37.9701192" lon="12.6842902"><ele>213.66666666666669</ele><time>2026-04-28T08:02:40.67Z</time></trkpt><trkpt lat="37.9701729" lon="12.6844711"><ele>217.33333333333334</ele><time>2026-04-28T08:02:41.67Z</time></trkpt><trkpt lat="37.9702288" lon="12.6846642"><ele>221.0</ele><time>2026-04-28T08:02:42.67Z</time></trkpt><trkpt lat="37.9702864" lon="12.6848485"><ele>221.0</ele><time>2026-04-28T08:02:43.671Z</time></trkpt><trkpt lat="37.9703441" lon="12.6850312"><ele>221.0</ele><time>2026-04-28T08:02:44.672Z</time></trkpt><trkpt lat="37.9704036" lon="12.685216"><ele>221.0</ele><time>2026-04-28T08:02:45.67Z</time></trkpt><trkpt lat="37.9704602" lon="12.685397"><ele>223.33333333333334</ele><time>2026-04-28T08:02:46.671Z</time></trkpt><trkpt lat="37.9705256" lon="12.6855813"><ele>225.66666666666669</ele><time>2026-04-28T08:02:47.67Z</time></trkpt><trkpt lat="37.9705854" lon="12.6857694"><ele>228.0</ele><time>2026-04-28T08:02:48.67Z</time></trkpt><trkpt lat="37.9706419" lon="12.6859615"><ele>230.0</ele><time>2026-04-28T08:02:49.67Z</time></trkpt><trkpt lat="37.970712" lon="12.6861599"><ele>232.0</ele><time>2026-04-28T08:02:50.67Z</time></trkpt><trkpt lat="37.9707795" lon="12.6863552"><ele>234.0</ele><time>2026-04-28T08:02:51.67Z</time></trkpt><trkpt lat="37.970845" lon="12.68655"><ele>232.66666666666669</ele><time>2026-04-28T08:02:52.671Z</time></trkpt><trkpt lat="37.9709064" lon="12.6867535"><ele>231.33333333333334</ele><time>2026-04-28T08:02:53.67Z</time></trkpt><trkpt lat="37.9709685" lon="12.6869524"><ele>230.0</ele><time>2026-04-28T08:02:54.67Z</time></trkpt><trkpt lat="37.9710249" lon="12.68716"><ele>230.0</ele><time>2026-04-28T08:02:55.671Z</time></trkpt><trkpt lat="37.9710923" lon="12.6873532"><ele>230.0</ele><time>2026-04-28T08:02:56.67Z</time></trkpt><trkpt lat="37.9711698" lon="12.6875442"><ele>230.0</ele><time>2026-04-28T08:02:57.67Z</time></trkpt><trkpt lat="37.9712632" lon="12.6877187"><ele>232.25</ele><time>2026-04-28T08:02:58.671Z</time></trkpt><trkpt lat="37.9713624" lon="12.6878752"><ele>234.5</ele><time>2026-04-28T08:02:59.67Z</time></trkpt><trkpt lat="37.9714552" lon="12.6880173"><ele>236.75</ele><time>2026-04-28T08:03:00.669Z</time></trkpt><trkpt lat="37.9715434" lon="12.688126"><ele>239.0</ele><time>2026-04-28T08:03:01.67Z</time></trkpt><trkpt lat="37.9716434" lon="12.688207"><ele>237.0</ele><time>2026-04-28T08:03:02.67Z</time></trkpt><trkpt lat="37.9717597" lon="12.6882589"><ele>234.99999999999997</ele><time>2026-04-28T08:03:03.67Z</time></trkpt><trkpt lat="37.971876" lon="12.6883015"><ele>232.99999999999997</ele><time>2026-04-28T08:03:04.67Z</time></trkpt><trkpt lat="37.9719714" lon="12.6883517"><ele>231.0</ele><time>2026-04-28T08:03:05.67Z</time></trkpt><trkpt lat="37.9720361" lon="12.6884249"><ele>229.0</ele><time>2026-04-28T08:03:06.67Z</time></trkpt><trkpt lat="37.972071" lon="12.6885245"><ele>229.5</ele><time>2026-04-28T08:03:07.671Z</time></trkpt><trkpt lat="37.9720761" lon="12.6886426"><ele>230.0</ele><time>2026-04-28T08:03:08.671Z</time></trkpt><trkpt lat="37.972053" lon="12.6887769"><ele>230.5</ele><time>2026-04-28T08:03:09.67Z</time></trkpt><trkpt lat="37.9720073" lon="12.6889321"><ele>231.0</ele><time>2026-04-28T08:03:10.67Z</time></trkpt><trkpt lat="37.9719439" lon="12.6891041"><ele>231.0</ele><time>2026-04-28T08:03:11.67Z</time></trkpt><trkpt lat="37.971863" lon="12.6892989"><ele>231.0</ele><time>2026-04-28T08:03:12.67Z</time></trkpt><trkpt lat="37.9717835" lon="12.6894915"><ele>231.0</ele><time>2026-04-28T08:03:13.669Z</time></trkpt><trkpt lat="37.971715" lon="12.6896704"><ele>232.20000000000002</ele><time>2026-04-28T08:03:14.67Z</time></trkpt><trkpt lat="37.9716583" lon="12.6898276"><ele>233.40000000000003</ele><time>2026-04-28T08:03:15.67Z</time></trkpt><trkpt lat="37.9716238" lon="12.6899699"><ele>234.6</ele><time>2026-04-28T08:03:16.671Z</time></trkpt><trkpt lat="37.9716172" lon="12.6900993"><ele>235.8</ele><time>2026-04-28T08:03:17.671Z</time></trkpt><trkpt lat="37.9716481" lon="12.6902103"><ele>237.0</ele><time>2026-04-28T08:03:18.671Z</time></trkpt><trkpt lat="37.971714" lon="12.690306"><ele>239.0</ele><time>2026-04-28T08:03:19.671Z</time></trkpt><trkpt lat="37.9718082" lon="12.6903817"><ele>241.0</ele><time>2026-04-28T08:03:20.671Z</time></trkpt><trkpt lat="37.9719302" lon="12.6904325"><ele>243.0</ele><time>2026-04-28T08:03:21.67Z</time></trkpt><trkpt lat="37.9720682" lon="12.6904557"><ele>245.0</ele><time>2026-04-28T08:03:22.671Z</time></trkpt><trkpt lat="37.9722158" lon="12.6904657"><ele>245.0</ele><time>2026-04-28T08:03:23.67Z</time></trkpt><trkpt lat="37.9723801" lon="12.6904637"><ele>245.0</ele><time>2026-04-28T08:03:24.671Z</time></trkpt><trkpt lat="37.9725482" lon="12.6904611"><ele>245.0</ele><time>2026-04-28T08:03:25.67Z</time></trkpt><trkpt lat="37.9727115" lon="12.6904617"><ele>246.0</ele><time>2026-04-28T08:03:26.67Z</time></trkpt><trkpt lat="37.9728702" lon="12.6904588"><ele>247.0</ele><time>2026-04-28T08:03:27.67Z</time></trkpt><trkpt lat="37.9730198" lon="12.6904485"><ele>248.0</ele><time>2026-04-28T08:03:28.67Z</time></trkpt><trkpt lat="37.9731456" lon="12.6904528"><ele>249.0</ele><time>2026-04-28T08:03:29.671Z</time></trkpt><trkpt lat="37.9732562" lon="12.6904832"><ele>248.2</ele><time>2026-04-28T08:03:30.67Z</time></trkpt><trkpt lat="37.9733568" lon="12.6905344"><ele>247.39999999999998</ele><time>2026-04-28T08:03:31.671Z</time></trkpt><trkpt lat="37.973446" lon="12.6906014"><ele>246.6</ele><time>2026-04-28T08:03:32.67Z</time></trkpt><trkpt lat="37.9735267" lon="12.6906872"><ele>245.8</ele><time>2026-04-28T08:03:33.671Z</time></trkpt><trkpt lat="37.9736136" lon="12.6907891"><ele>245.0</ele><time>2026-04-28T08:03:34.671Z</time></trkpt><trkpt lat="37.9737056" lon="12.6909031"><ele>245.0</ele><time>2026-04-28T08:03:35.67Z</time></trkpt><trkpt lat="37.9738001" lon="12.6910123"><ele>245.0</ele><time>2026-04-28T08:03:36.671Z</time></trkpt><trkpt lat="37.9738904" lon="12.6911061"><ele>245.0</ele><time>2026-04-28T08:03:37.671Z</time></trkpt><trkpt lat="37.9739831" lon="12.6911763"><ele>245.0</ele><time>2026-04-28T08:03:38.67Z</time></trkpt><trkpt lat="37.9740857" lon="12.6912209"><ele>248.75</ele><time>2026-04-28T08:03:39.67Z</time></trkpt><trkpt lat="37.9741956" lon="12.6912416"><ele>252.5</ele><time>2026-04-28T08:03:40.67Z</time></trkpt><trkpt lat="37.9743098" lon="12.6912475"><ele>256.25</ele><time>2026-04-28T08:03:41.671Z</time></trkpt><trkpt lat="37.974425" lon="12.6912556"><ele>260.0</ele><time>2026-04-28T08:03:42.67Z</time></trkpt><trkpt lat="37.974537" lon="12.6912652"><ele>260.0</ele><time>2026-04-28T08:03:43.671Z</time></trkpt><trkpt lat="37.9746521" lon="12.6912842"><ele>260.0</ele><time>2026-04-28T08:03:44.67Z</time></trkpt><trkpt lat="37.9747665" lon="12.6913079"><ele>260.0</ele><time>2026-04-28T08:03:45.67Z</time></trkpt><trkpt lat="37.9748801" lon="12.6913346"><ele>260.0</ele><time>2026-04-28T08:03:46.671Z</time></trkpt><trkpt lat="37.9749966" lon="12.6913691"><ele>258.5</ele><time>2026-04-28T08:03:47.671Z</time></trkpt><trkpt lat="37.9751143" lon="12.6914076"><ele>257.0</ele><time>2026-04-28T08:03:48.67Z</time></trkpt><trkpt lat="37.9752341" lon="12.6914509"><ele>255.5</ele><time>2026-04-28T08:03:49.67Z</time></trkpt><trkpt lat="37.9753551" lon="12.6914981"><ele>254.0</ele><time>2026-04-28T08:03:50.67Z</time></trkpt><trkpt lat="37.9754796" lon="12.6915476"><ele>254.0</ele><time>2026-04-28T08:03:51.67Z</time></trkpt><trkpt lat="37.9755979" lon="12.6916096"><ele>254.0</ele><time>2026-04-28T08:03:52.67Z</time></trkpt><trkpt lat="37.9757015" lon="12.6916937"><ele>254.0</ele><time>2026-04-28T08:03:53.67Z</time></trkpt><trkpt lat="37.9758051" lon="12.6917838"><ele>254.0</ele><time>2026-04-28T08:03:54.67Z</time></trkpt><trkpt lat="37.9759165" lon="12.6918678"><ele>255.75</ele><time>2026-04-28T08:03:55.67Z</time></trkpt><trkpt lat="37.9760258" lon="12.6919472"><ele>257.5</ele><time>2026-04-28T08:03:56.67Z</time></trkpt><trkpt lat="37.976135" lon="12.6920156"><ele>259.25</ele><time>2026-04-28T08:03:57.67Z</time></trkpt><trkpt lat="37.976247" lon="12.6920819"><ele>261.0</ele><time>2026-04-28T08:03:58.67Z</time></trkpt><trkpt lat="37.9763547" lon="12.6921441"><ele>261.0</ele><time>2026-04-28T08:03:59.671Z</time></trkpt><trkpt lat="37.9764636" lon="12.6922093"><ele>261.0</ele><time>2026-04-28T08:04:00.671Z</time></trkpt><trkpt lat="37.9765688" lon="12.6922698"><ele>261.0</ele><time>2026-04-28T08:04:01.671Z</time></trkpt><trkpt lat="37.9766721" lon="12.6923439"><ele>261.0</ele><time>2026-04-28T08:04:02.67Z</time></trkpt><trkpt lat="37.9767746" lon="12.6924202"><ele>259.6</ele><time>2026-04-28T08:04:03.67Z</time></trkpt><trkpt lat="37.976877" lon="12.6924944"><ele>258.20000000000005</ele><time>2026-04-28T08:04:04.67Z</time></trkpt><trkpt lat="37.9769764" lon="12.692563"><ele>256.79999999999995</ele><time>2026-04-28T08:04:05.671Z</time></trkpt><trkpt lat="37.9770701" lon="12.6926143"><ele>255.39999999999998</ele><time>2026-04-28T08:04:06.671Z</time></trkpt><trkpt lat="37.9771652" lon="12.6926415"><ele>254.0</ele><time>2026-04-28T08:04:07.671Z</time></trkpt><trkpt lat="37.9772694" lon="12.692667"><ele>254.0</ele><time>2026-04-28T08:04:08.671Z</time></trkpt><trkpt lat="37.9773799" lon="12.6926776"><ele>253.99999999999997</ele><time>2026-04-28T08:04:09.67Z</time></trkpt><trkpt lat="37.977491" lon="12.6926887"><ele>253.99999999999997</ele><time>2026-04-28T08:04:10.671Z</time></trkpt><trkpt lat="37.9775996" lon="12.6927061"><ele>254.0</ele><time>2026-04-28T08:04:11.671Z</time></trkpt><trkpt lat="37.9776879" lon="12.6927264"><ele>254.0</ele><time>2026-04-28T08:04:12.671Z</time></trkpt><trkpt lat="37.9777617" lon="12.6927581"><ele>252.6</ele><time>2026-04-28T08:04:13.67Z</time></trkpt><trkpt lat="37.9778166" lon="12.6928151"><ele>251.2</ele><time>2026-04-28T08:04:14.671Z</time></trkpt><trkpt lat="37.9778563" lon="12.692907"><ele>249.79999999999998</ele><time>2026-04-28T08:04:15.67Z</time></trkpt><trkpt lat="37.977891" lon="12.6930271"><ele>248.39999999999998</ele><time>2026-04-28T08:04:16.67Z</time></trkpt><trkpt lat="37.9779259" lon="12.6931706"><ele>247.0</ele><time>2026-04-28T08:04:17.671Z</time></trkpt><trkpt lat="37.9779563" lon="12.693312"><ele>247.0</ele><time>2026-04-28T08:04:18.67Z</time></trkpt><trkpt lat="37.9779958" lon="12.6934404"><ele>247.0</ele><time>2026-04-28T08:04:19.671Z</time></trkpt><trkpt lat="37.9780406" lon="12.6935436"><ele>247.0</ele><time>2026-04-28T08:04:20.67Z</time></trkpt><trkpt lat="37.9781163" lon="12.6936219"><ele>247.0</ele><time>2026-04-28T08:04:21.67Z</time></trkpt><trkpt lat="37.9782149" lon="12.6936837"><ele>247.0</ele><time>2026-04-28T08:04:22.67Z</time></trkpt><trkpt lat="37.9783241" lon="12.6937315"><ele>248.5</ele><time>2026-04-28T08:04:23.67Z</time></trkpt><trkpt lat="37.9784237" lon="12.6937536"><ele>250.0</ele><time>2026-04-28T08:04:24.672Z</time></trkpt><trkpt lat="37.9785438" lon="12.6937485"><ele>251.5</ele><time>2026-04-28T08:04:25.67Z</time></trkpt><trkpt lat="37.978672" lon="12.6937136"><ele>253.0</ele><time>2026-04-28T08:04:26.673Z</time></trkpt><trkpt lat="37.9787971" lon="12.6936685"><ele>253.0</ele><time>2026-04-28T08:04:27.671Z</time></trkpt><trkpt lat="37.9789138" lon="12.6936153"><ele>253.0</ele><time>2026-04-28T08:04:28.671Z</time></trkpt><trkpt lat="37.9790084" lon="12.6935454"><ele>253.0</ele><time>2026-04-28T08:04:29.67Z</time></trkpt><trkpt lat="37.97909" lon="12.6934624"><ele>253.0</ele><time>2026-04-28T08:04:30.67Z</time></trkpt><trkpt lat="37.979153" lon="12.6933674"><ele>253.0</ele><time>2026-04-28T08:04:31.671Z</time></trkpt><trkpt lat="37.9792086" lon="12.6932761"><ele>251.4</ele><time>2026-04-28T08:04:32.67Z</time></trkpt><trkpt lat="37.9792611" lon="12.6931951"><ele>249.8</ele><time>2026-04-28T08:04:33.67Z</time></trkpt><trkpt lat="37.9793244" lon="12.6931249"><ele>248.2</ele><time>2026-04-28T08:04:34.672Z</time></trkpt><trkpt lat="37.9794047" lon="12.69307"><ele>246.6</ele><time>2026-04-28T08:04:35.67Z</time></trkpt><trkpt lat="37.9795035" lon="12.6930353"><ele>245.0</ele><time>2026-04-28T08:04:36.671Z</time></trkpt><trkpt lat="37.9796203" lon="12.6930083"><ele>245.0</ele><time>2026-04-28T08:04:37.67Z</time></trkpt><trkpt lat="37.9797402" lon="12.6929906"><ele>245.0</ele><time>2026-04-28T08:04:38.671Z</time></trkpt><trkpt lat="37.9798675" lon="12.6929751"><ele>245.0</ele><time>2026-04-28T08:04:39.67Z</time></trkpt><trkpt lat="37.9800006" lon="12.6929676"><ele>245.0</ele><time>2026-04-28T08:04:40.671Z</time></trkpt><trkpt lat="37.9801403" lon="12.6929796"><ele>245.33333333333334</ele><time>2026-04-28T08:04:41.67Z</time></trkpt><trkpt lat="37.9802899" lon="12.6930074"><ele>245.66666666666669</ele><time>2026-04-28T08:04:42.671Z</time></trkpt><trkpt lat="37.9804424" lon="12.6930419"><ele>246.0</ele><time>2026-04-28T08:04:43.67Z</time></trkpt><trkpt lat="37.9805975" lon="12.6930819"><ele>246.0</ele><time>2026-04-28T08:04:44.67Z</time></trkpt><trkpt lat="37.9807504" lon="12.6931213"><ele>246.0</ele><time>2026-04-28T08:04:45.67Z</time></trkpt><trkpt lat="37.9808988" lon="12.6931595"><ele>246.0</ele><time>2026-04-28T08:04:46.67Z</time></trkpt><trkpt lat="37.9810383" lon="12.6931993"><ele>246.5</ele><time>2026-04-28T08:04:47.671Z</time></trkpt><trkpt lat="37.9811724" lon="12.6932409"><ele>247.0</ele><time>2026-04-28T08:04:48.671Z</time></trkpt><trkpt lat="37.981298" lon="12.6932953"><ele>247.5</ele><time>2026-04-28T08:04:49.67Z</time></trkpt><trkpt lat="37.9814015" lon="12.6933593"><ele>248.0</ele><time>2026-04-28T08:04:50.67Z</time></trkpt><trkpt lat="37.9815012" lon="12.6934422"><ele>248.0</ele><time>2026-04-28T08:04:51.671Z</time></trkpt><trkpt lat="37.9815842" lon="12.6935316"><ele>248.0</ele><time>2026-04-28T08:04:52.671Z</time></trkpt><trkpt lat="37.9816609" lon="12.693632"><ele>248.0</ele><time>2026-04-28T08:04:53.672Z</time></trkpt><trkpt lat="37.981742" lon="12.6937334"><ele>248.0</ele><time>2026-04-28T08:04:54.671Z</time></trkpt><trkpt lat="37.9818324" lon="12.6938431"><ele>250.5</ele><time>2026-04-28T08:04:55.671Z</time></trkpt><trkpt lat="37.9819288" lon="12.6939555"><ele>253.0</ele><time>2026-04-28T08:04:56.671Z</time></trkpt><trkpt lat="37.982027" lon="12.6940734"><ele>255.5</ele><time>2026-04-28T08:04:57.671Z</time></trkpt><trkpt lat="37.9821242" lon="12.6942116"><ele>258.0</ele><time>2026-04-28T08:04:58.67Z</time></trkpt><trkpt lat="37.9822194" lon="12.6943489"><ele>257.5</ele><time>2026-04-28T08:04:59.671Z</time></trkpt><trkpt lat="37.9823216" lon="12.6944843"><ele>257.0</ele><time>2026-04-28T08:05:00.673Z</time></trkpt><trkpt lat="37.9824237" lon="12.6945953"><ele>256.5</ele><time>2026-04-28T08:05:01.671Z</time></trkpt><trkpt lat="37.9825352" lon="12.6946888"><ele>256.0</ele><time>2026-04-28T08:05:02.67Z</time></trkpt><trkpt lat="37.9826625" lon="12.6947523"><ele>257.25</ele><time>2026-04-28T08:05:03.67Z</time></trkpt><trkpt lat="37.9827977" lon="12.6948127"><ele>258.5</ele><time>2026-04-28T08:05:04.67Z</time></trkpt><trkpt lat="37.9829343" lon="12.6948867"><ele>259.75</ele><time>2026-04-28T08:05:05.672Z</time></trkpt><trkpt lat="37.9830663" lon="12.6949722"><ele>261.0</ele><time>2026-04-28T08:05:06.67Z</time></trkpt><trkpt lat="37.9831881" lon="12.6950769"><ele>261.0</ele><time>2026-04-28T08:05:07.671Z</time></trkpt><trkpt lat="37.9833062" lon="12.6951896"><ele>261.0</ele><time>2026-04-28T08:05:08.671Z</time></trkpt><trkpt lat="37.983427" lon="12.695297"><ele>261.0</ele><time>2026-04-28T08:05:09.671Z</time></trkpt><trkpt lat="37.9835524" lon="12.6953864"><ele>261.0</ele><time>2026-04-28T08:05:10.67Z</time></trkpt><trkpt lat="37.9836829" lon="12.6954587"><ele>261.0</ele><time>2026-04-28T08:05:11.671Z</time></trkpt><trkpt lat="37.9838273" lon="12.6955053"><ele>261.0</ele><time>2026-04-28T08:05:12.67Z</time></trkpt><trkpt lat="37.9839828" lon="12.6955549"><ele>261.0</ele><time>2026-04-28T08:05:13.671Z</time></trkpt><trkpt lat="37.9841515" lon="12.6955977"><ele>262.0</ele><time>2026-04-28T08:05:14.671Z</time></trkpt><trkpt lat="37.9843292" lon="12.6956445"><ele>263.0</ele><time>2026-04-28T08:05:15.671Z</time></trkpt><trkpt lat="37.9845023" lon="12.6956971"><ele>264.0</ele><time>2026-04-28T08:05:16.671Z</time></trkpt><trkpt lat="37.9848498" lon="12.6958239"><ele>266.0</ele><time>2026-04-28T08:05:18.671Z</time></trkpt><trkpt lat="37.9850262" lon="12.6959098"><ele>268.0</ele><time>2026-04-28T08:05:19.67Z</time></trkpt><trkpt lat="37.9851966" lon="12.6959948"><ele>270.0</ele><time>2026-04-28T08:05:20.671Z</time></trkpt><trkpt lat="37.9853455" lon="12.6960801"><ele>269.6</ele><time>2026-04-28T08:05:21.67Z</time></trkpt><trkpt lat="37.9854693" lon="12.6961526"><ele>269.2</ele><time>2026-04-28T08:05:22.671Z</time></trkpt><trkpt lat="37.9855642" lon="12.6962076"><ele>268.8</ele><time>2026-04-28T08:05:23.671Z</time></trkpt><trkpt lat="37.9856363" lon="12.6962736"><ele>268.4</ele><time>2026-04-28T08:05:24.671Z</time></trkpt><trkpt lat="37.9856922" lon="12.6963555"><ele>268.0</ele><time>2026-04-28T08:05:25.67Z</time></trkpt><trkpt lat="37.9857333" lon="12.6964633"><ele>268.0</ele><time>2026-04-28T08:05:26.67Z</time></trkpt><trkpt lat="37.9857592" lon="12.6965851"><ele>268.0</ele><time>2026-04-28T08:05:27.67Z</time></trkpt><trkpt lat="37.9857692" lon="12.6967016"><ele>268.0</ele><time>2026-04-28T08:05:28.671Z</time></trkpt><trkpt lat="37.9857497" lon="12.6968091"><ele>268.0</ele><time>2026-04-28T08:05:29.671Z</time></trkpt><trkpt lat="37.9856182" lon="12.6969738"><ele>270.3333333333333</ele><time>2026-04-28T08:05:31.672Z</time></trkpt><trkpt lat="37.9855144" lon="12.6970184"><ele>272.6666666666667</ele><time>2026-04-28T08:05:32.672Z</time></trkpt><trkpt lat="37.985387" lon="12.6970425"><ele>275.0</ele><time>2026-04-28T08:05:33.67Z</time></trkpt><trkpt lat="37.9851101" lon="12.6970616"><ele>274.83333333333337</ele><time>2026-04-28T08:05:35.671Z</time></trkpt><trkpt lat="37.9849993" lon="12.6970624"><ele>274.6666666666667</ele><time>2026-04-28T08:05:36.67Z</time></trkpt><trkpt lat="37.9849123" lon="12.6970748"><ele>274.5</ele><time>2026-04-28T08:05:37.671Z</time></trkpt><trkpt lat="37.9848379" lon="12.6971127"><ele>274.3333333333333</ele><time>2026-04-28T08:05:38.671Z</time></trkpt><trkpt lat="37.9847782" lon="12.6971773"><ele>274.16666666666663</ele><time>2026-04-28T08:05:39.67Z</time></trkpt><trkpt lat="37.9847442" lon="12.6972657"><ele>274.0</ele><time>2026-04-28T08:05:40.672Z</time></trkpt><trkpt lat="37.9847424" lon="12.6973744"><ele>274.0</ele><time>2026-04-28T08:05:41.671Z</time></trkpt><trkpt lat="37.984758" lon="12.6974762"><ele>274.0</ele><time>2026-04-28T08:05:42.671Z</time></trkpt><trkpt lat="37.984847" lon="12.6975781"><ele>274.0</ele><time>2026-04-28T08:05:43.671Z</time></trkpt><trkpt lat="37.9849468" lon="12.6976689"><ele>274.0</ele><time>2026-04-28T08:05:44.67Z</time></trkpt><trkpt lat="37.9850686" lon="12.6977606"><ele>276.3333333333333</ele><time>2026-04-28T08:05:45.67Z</time></trkpt><trkpt lat="37.985236" lon="12.6978675"><ele>278.6666666666667</ele><time>2026-04-28T08:05:46.956Z</time></trkpt><trkpt lat="37.985433" lon="12.6980107"><ele>281.0</ele><time>2026-04-28T08:05:48.673Z</time></trkpt><trkpt lat="37.985522" lon="12.6980917"><ele>281.0</ele><time>2026-04-28T08:05:49.672Z</time></trkpt><trkpt lat="37.9855872" lon="12.6981822"><ele>281.0</ele><time>2026-04-28T08:05:50.671Z</time></trkpt><trkpt lat="37.9856247" lon="12.6982913"><ele>281.0</ele><time>2026-04-28T08:05:51.671Z</time></trkpt><trkpt lat="37.9856335" lon="12.6984217"><ele>281.0</ele><time>2026-04-28T08:05:52.672Z</time></trkpt><trkpt lat="37.9856133" lon="12.6985671"><ele>281.0</ele><time>2026-04-28T08:05:53.671Z</time></trkpt><trkpt lat="37.9855661" lon="12.6987175"><ele>281.6666666666667</ele><time>2026-04-28T08:05:54.672Z</time></trkpt><trkpt lat="37.9855282" lon="12.6988554"><ele>282.33333333333337</ele><time>2026-04-28T08:05:55.671Z</time></trkpt><trkpt lat="37.9855126" lon="12.6989681"><ele>283.0</ele><time>2026-04-28T08:05:56.653Z</time></trkpt><trkpt lat="37.9855203" lon="12.6990628"><ele>283.6666666666667</ele><time>2026-04-28T08:05:57.671Z</time></trkpt><trkpt lat="37.9855582" lon="12.6991283"><ele>284.3333333333333</ele><time>2026-04-28T08:05:58.67Z</time></trkpt><trkpt lat="37.9856153" lon="12.699162"><ele>285.0</ele><time>2026-04-28T08:05:59.672Z</time></trkpt><trkpt lat="37.9856936" lon="12.699145"><ele>285.0</ele><time>2026-04-28T08:06:00.67Z</time></trkpt><trkpt lat="37.9857864" lon="12.6991038"><ele>285.0</ele><time>2026-04-28T08:06:01.671Z</time></trkpt><trkpt lat="37.9858732" lon="12.6990536"><ele>285.0</ele><time>2026-04-28T08:06:02.671Z</time></trkpt><trkpt lat="37.9859753" lon="12.6989999"><ele>285.0</ele><time>2026-04-28T08:06:03.671Z</time></trkpt><trkpt lat="37.9860884" lon="12.6989342"><ele>285.0</ele><time>2026-04-28T08:06:04.67Z</time></trkpt><trkpt lat="37.9861943" lon="12.6988723"><ele>287.25</ele><time>2026-04-28T08:06:05.67Z</time></trkpt><trkpt lat="37.986308" lon="12.6988028"><ele>289.5</ele><time>2026-04-28T08:06:06.67Z</time></trkpt><trkpt lat="37.9864131" lon="12.6987418"><ele>291.75</ele><time>2026-04-28T08:06:07.671Z</time></trkpt><trkpt lat="37.9865191" lon="12.698681"><ele>294.0</ele><time>2026-04-28T08:06:08.67Z</time></trkpt><trkpt lat="37.986627" lon="12.6986273"><ele>294.0</ele><time>2026-04-28T08:06:09.67Z</time></trkpt><trkpt lat="37.9867331" lon="12.6985831"><ele>294.0</ele><time>2026-04-28T08:06:10.671Z</time></trkpt><trkpt lat="37.9868408" lon="12.6985518"><ele>294.0</ele><time>2026-04-28T08:06:11.67Z</time></trkpt><trkpt lat="37.9869545" lon="12.6985207"><ele>294.0</ele><time>2026-04-28T08:06:12.672Z</time></trkpt><trkpt lat="37.9870724" lon="12.6984932"><ele>294.0</ele><time>2026-04-28T08:06:13.672Z</time></trkpt><trkpt lat="37.9871959" lon="12.6984585"><ele>294.0</ele><time>2026-04-28T08:06:14.671Z</time></trkpt><trkpt lat="37.9873212" lon="12.698425"><ele>294.0</ele><time>2026-04-28T08:06:15.671Z</time></trkpt><trkpt lat="37.9874482" lon="12.6983947"><ele>294.0</ele><time>2026-04-28T08:06:16.672Z</time></trkpt><trkpt lat="37.9875754" lon="12.6983874"><ele>295.5</ele><time>2026-04-28T08:06:17.671Z</time></trkpt><trkpt lat="37.9876896" lon="12.6984148"><ele>297.0</ele><time>2026-04-28T08:06:18.671Z</time></trkpt><trkpt lat="37.987808" lon="12.698477"><ele>298.5</ele><time>2026-04-28T08:06:19.672Z</time></trkpt><trkpt lat="37.9879287" lon="12.6985744"><ele>300.0</ele><time>2026-04-28T08:06:20.672Z</time></trkpt><trkpt lat="37.9880478" lon="12.6986836"><ele>301.3333333333333</ele><time>2026-04-28T08:06:21.673Z</time></trkpt><trkpt lat="37.9881715" lon="12.6988031"><ele>302.66666666666663</ele><time>2026-04-28T08:06:22.673Z</time></trkpt><trkpt lat="37.9882928" lon="12.6989291"><ele>304.0</ele><time>2026-04-28T08:06:23.672Z</time></trkpt><trkpt lat="37.9884127" lon="12.6990692"><ele>305.0</ele><time>2026-04-28T08:06:24.671Z</time></trkpt><trkpt lat="37.9885198" lon="12.6992361"><ele>306.0</ele><time>2026-04-28T08:06:25.671Z</time></trkpt><trkpt lat="37.9886224" lon="12.6994151"><ele>307.0</ele><time>2026-04-28T08:06:26.67Z</time></trkpt><trkpt lat="37.9887269" lon="12.6995965"><ele>308.66666666666663</ele><time>2026-04-28T08:06:27.672Z</time></trkpt><trkpt lat="37.9888222" lon="12.6997667"><ele>310.3333333333333</ele><time>2026-04-28T08:06:28.75Z</time></trkpt><trkpt lat="37.9889692" lon="12.7000011"><ele>312.0</ele><time>2026-04-28T08:06:30.671Z</time></trkpt><trkpt lat="37.9890728" lon="12.7000945"><ele>313.75</ele><time>2026-04-28T08:06:31.67Z</time></trkpt><trkpt lat="37.9891848" lon="12.7001542"><ele>315.5</ele><time>2026-04-28T08:06:32.671Z</time></trkpt><trkpt lat="37.9893037" lon="12.7001602"><ele>317.25</ele><time>2026-04-28T08:06:33.671Z</time></trkpt><trkpt lat="37.9894041" lon="12.7001238"><ele>319.0</ele><time>2026-04-28T08:06:34.67Z</time></trkpt><trkpt lat="37.9895025" lon="12.7000563"><ele>319.0</ele><time>2026-04-28T08:06:35.671Z</time></trkpt><trkpt lat="37.989625" lon="12.7000082"><ele>319.0</ele><time>2026-04-28T08:06:36.891Z</time></trkpt><trkpt lat="37.9897482" lon="12.6999796"><ele>319.0</ele><time>2026-04-28T08:06:37.987Z</time></trkpt><trkpt lat="37.9899843" lon="12.6999788"><ele>321.25</ele><time>2026-04-28T08:06:39.671Z</time></trkpt><trkpt lat="37.9901205" lon="12.6999817"><ele>323.5</ele><time>2026-04-28T08:06:40.672Z</time></trkpt><trkpt lat="37.9902595" lon="12.6999742"><ele>325.75</ele><time>2026-04-28T08:06:41.67Z</time></trkpt><trkpt lat="37.9903844" lon="12.6999498"><ele>328.0</ele><time>2026-04-28T08:06:42.67Z</time></trkpt><trkpt lat="37.990512" lon="12.6998937"><ele>328.0</ele><time>2026-04-28T08:06:43.67Z</time></trkpt><trkpt lat="37.9906429" lon="12.6998081"><ele>328.0</ele><time>2026-04-28T08:06:44.67Z</time></trkpt><trkpt lat="37.9907729" lon="12.6996914"><ele>328.0</ele><time>2026-04-28T08:06:45.671Z</time></trkpt><trkpt lat="37.9908698" lon="12.6995713"><ele>328.0</ele><time>2026-04-28T08:06:46.67Z</time></trkpt><trkpt lat="37.9909485" lon="12.6994576"><ele>328.5</ele><time>2026-04-28T08:06:47.67Z</time></trkpt><trkpt lat="37.9910139" lon="12.699373"><ele>329.0</ele><time>2026-04-28T08:06:48.671Z</time></trkpt><trkpt lat="37.9910902" lon="12.699322"><ele>329.5</ele><time>2026-04-28T08:06:49.672Z</time></trkpt><trkpt lat="37.9911747" lon="12.6993015"><ele>330.0</ele><time>2026-04-28T08:06:50.67Z</time></trkpt><trkpt lat="37.9912569" lon="12.6993154"><ele>330.5</ele><time>2026-04-28T08:06:51.67Z</time></trkpt><trkpt lat="37.9913403" lon="12.6993256"><ele>331.0</ele><time>2026-04-28T08:06:52.67Z</time></trkpt><trkpt lat="37.9914036" lon="12.6994479"><ele>332.6</ele><time>2026-04-28T08:06:53.671Z</time></trkpt><trkpt lat="37.9914776" lon="12.699542"><ele>334.20000000000005</ele><time>2026-04-28T08:06:54.671Z</time></trkpt><trkpt lat="37.9915675" lon="12.6996071"><ele>335.79999999999995</ele><time>2026-04-28T08:06:55.671Z</time></trkpt><trkpt lat="37.9916504" lon="12.6996045"><ele>337.4</ele><time>2026-04-28T08:06:56.671Z</time></trkpt><trkpt lat="37.991748" lon="12.6995708"><ele>339.0</ele><time>2026-04-28T08:06:57.671Z</time></trkpt><trkpt lat="37.9918346" lon="12.6995062"><ele>338.79999999999995</ele><time>2026-04-28T08:06:58.67Z</time></trkpt><trkpt lat="37.9919327" lon="12.6994135"><ele>338.59999999999997</ele><time>2026-04-28T08:06:59.671Z</time></trkpt><trkpt lat="37.9920296" lon="12.6993199"><ele>338.4</ele><time>2026-04-28T08:07:00.67Z</time></trkpt><trkpt lat="37.9921189" lon="12.6992528"><ele>338.2</ele><time>2026-04-28T08:07:01.672Z</time></trkpt><trkpt lat="37.9922065" lon="12.6992253"><ele>338.0</ele><time>2026-04-28T08:07:02.672Z</time></trkpt><trkpt lat="37.9922993" lon="12.6992386"><ele>338.0</ele><time>2026-04-28T08:07:03.67Z</time></trkpt><trkpt lat="37.9923914" lon="12.6992831"><ele>338.0</ele><time>2026-04-28T08:07:04.671Z</time></trkpt><trkpt lat="37.9924969" lon="12.6993575"><ele>338.0</ele><time>2026-04-28T08:07:05.672Z</time></trkpt><trkpt lat="37.9927442" lon="12.6995733"><ele>341.75</ele><time>2026-04-28T08:07:07.672Z</time></trkpt><trkpt lat="37.9928773" lon="12.6996651"><ele>345.5</ele><time>2026-04-28T08:07:08.67Z</time></trkpt><trkpt lat="37.9930128" lon="12.6997217"><ele>349.25</ele><time>2026-04-28T08:07:09.672Z</time></trkpt><trkpt lat="37.9931515" lon="12.6997441"><ele>353.0</ele><time>2026-04-28T08:07:10.671Z</time></trkpt><trkpt lat="37.9932807" lon="12.6997466"><ele>353.59999999999997</ele><time>2026-04-28T08:07:11.671Z</time></trkpt><trkpt lat="37.9934037" lon="12.699734"><ele>354.2</ele><time>2026-04-28T08:07:12.672Z</time></trkpt><trkpt lat="37.9935215" lon="12.6997155"><ele>354.8</ele><time>2026-04-28T08:07:13.67Z</time></trkpt><trkpt lat="37.9936221" lon="12.6996911"><ele>355.4</ele><time>2026-04-28T08:07:14.672Z</time></trkpt><trkpt lat="37.993709" lon="12.6996728"><ele>356.0</ele><time>2026-04-28T08:07:15.67Z</time></trkpt><trkpt lat="37.9937899" lon="12.6996626"><ele>356.0</ele><time>2026-04-28T08:07:16.671Z</time></trkpt><trkpt lat="37.9938617" lon="12.6996575"><ele>356.0</ele><time>2026-04-28T08:07:17.671Z</time></trkpt><trkpt lat="37.9939564" lon="12.6996525"><ele>356.0</ele><time>2026-04-28T08:07:19.671Z</time></trkpt><trkpt lat="37.9940268" lon="12.6996659"><ele>356.0</ele><time>2026-04-28T08:07:21.671Z</time></trkpt><trkpt lat="37.994115" lon="12.6997001"><ele>356.0</ele><time>2026-04-28T08:07:24.671Z</time></trkpt><trkpt lat="37.9941974" lon="12.699754"><ele>356.0</ele><time>2026-04-28T08:07:27.672Z</time></trkpt><trkpt lat="37.9942607" lon="12.6998287"><ele>355.0</ele><time>2026-04-28T08:07:30.671Z</time></trkpt><trkpt lat="37.9942921" lon="12.6998995"><ele>354.0</ele><time>2026-04-28T08:07:32.67Z</time></trkpt><trkpt lat="37.9943362" lon="12.7000248"><ele>353.0</ele><time>2026-04-28T08:07:35.671Z</time></trkpt><trkpt lat="37.9943558" lon="12.700201"><ele>352.0</ele><time>2026-04-28T08:07:37.672Z</time></trkpt><trkpt lat="37.9943442" lon="12.7003235"><ele>351.0</ele><time>2026-04-28T08:07:38.671Z</time></trkpt><trkpt lat="37.9943307" lon="12.7004669"><ele>354.20000000000005</ele><time>2026-04-28T08:07:39.672Z</time></trkpt><trkpt lat="37.9943268" lon="12.7006021"><ele>357.40000000000003</ele><time>2026-04-28T08:07:40.671Z</time></trkpt><trkpt lat="37.9943423" lon="12.7007381"><ele>360.6</ele><time>2026-04-28T08:07:41.671Z</time></trkpt><trkpt lat="37.9943828" lon="12.7008644"><ele>363.8</ele><time>2026-04-28T08:07:42.672Z</time></trkpt><trkpt lat="37.9944519" lon="12.7009562"><ele>367.0</ele><time>2026-04-28T08:07:43.672Z</time></trkpt><trkpt lat="37.994534" lon="12.7010051"><ele>367.0</ele><time>2026-04-28T08:07:44.67Z</time></trkpt><trkpt lat="37.9946273" lon="12.7010071"><ele>367.0</ele><time>2026-04-28T08:07:45.672Z</time></trkpt><trkpt lat="37.9947244" lon="12.7009857"><ele>367.0</ele><time>2026-04-28T08:07:46.672Z</time></trkpt><trkpt lat="37.994817" lon="12.7009429"><ele>367.0</ele><time>2026-04-28T08:07:47.671Z</time></trkpt><trkpt lat="37.9949086" lon="12.7009019"><ele>367.0</ele><time>2026-04-28T08:07:48.671Z</time></trkpt><trkpt lat="37.9950014" lon="12.7008708"><ele>367.5</ele><time>2026-04-28T08:07:49.67Z</time></trkpt><trkpt lat="37.9950998" lon="12.7008562"><ele>368.0</ele><time>2026-04-28T08:07:50.67Z</time></trkpt><trkpt lat="37.9952119" lon="12.7008585"><ele>368.5</ele><time>2026-04-28T08:07:51.671Z</time></trkpt><trkpt lat="37.9953375" lon="12.7008877"><ele>369.0</ele><time>2026-04-28T08:07:52.671Z</time></trkpt><trkpt lat="37.995468" lon="12.7009374"><ele>369.0</ele><time>2026-04-28T08:07:53.672Z</time></trkpt><trkpt lat="37.9956068" lon="12.7010046"><ele>369.0</ele><time>2026-04-28T08:07:54.671Z</time></trkpt><trkpt lat="37.9957592" lon="12.7010987"><ele>369.0</ele><time>2026-04-28T08:07:55.672Z</time></trkpt><trkpt lat="37.9959215" lon="12.70122"><ele>371.3333333333333</ele><time>2026-04-28T08:07:56.671Z</time></trkpt><trkpt lat="37.9960782" lon="12.7013716"><ele>373.66666666666663</ele><time>2026-04-28T08:07:57.67Z</time></trkpt><trkpt lat="37.9962271" lon="12.7015207"><ele>376.0</ele><time>2026-04-28T08:07:58.67Z</time></trkpt><trkpt lat="37.996369" lon="12.7016639"><ele>376.0</ele><time>2026-04-28T08:07:59.67Z</time></trkpt><trkpt lat="37.9964959" lon="12.7017817"><ele>376.0</ele><time>2026-04-28T08:08:00.67Z</time></trkpt><trkpt lat="37.9966204" lon="12.7018697"><ele>376.0</ele><time>2026-04-28T08:08:01.671Z</time></trkpt><trkpt lat="37.9967581" lon="12.7019185"><ele>376.0</ele><time>2026-04-28T08:08:02.671Z</time></trkpt><trkpt lat="37.9969137" lon="12.7019414"><ele>377.25</ele><time>2026-04-28T08:08:03.672Z</time></trkpt><trkpt lat="37.9970767" lon="12.7019448"><ele>378.5</ele><time>2026-04-28T08:08:04.671Z</time></trkpt><trkpt lat="37.9972255" lon="12.7019381"><ele>379.75</ele><time>2026-04-28T08:08:05.671Z</time></trkpt><trkpt lat="37.9973576" lon="12.7019113"><ele>381.0</ele><time>2026-04-28T08:08:06.671Z</time></trkpt><trkpt lat="37.997485" lon="12.701848"><ele>384.0</ele><time>2026-04-28T08:08:07.672Z</time></trkpt><trkpt lat="37.9976071" lon="12.7017523"><ele>387.0</ele><time>2026-04-28T08:08:08.671Z</time></trkpt><trkpt lat="37.9977217" lon="12.7016258"><ele>390.0</ele><time>2026-04-28T08:08:09.67Z</time></trkpt><trkpt lat="37.9978256" lon="12.7014878"><ele>393.0</ele><time>2026-04-28T08:08:10.671Z</time></trkpt><trkpt lat="37.9979262" lon="12.7013569"><ele>393.0</ele><time>2026-04-28T08:08:11.671Z</time></trkpt><trkpt lat="37.9980203" lon="12.7012633"><ele>393.0</ele><time>2026-04-28T08:08:12.67Z</time></trkpt><trkpt lat="37.9981099" lon="12.7011991"><ele>393.0</ele><time>2026-04-28T08:08:13.672Z</time></trkpt><trkpt lat="37.9981902" lon="12.701177"><ele>393.0</ele><time>2026-04-28T08:08:14.671Z</time></trkpt><trkpt lat="37.9982717" lon="12.7011978"><ele>393.0</ele><time>2026-04-28T08:08:15.672Z</time></trkpt><trkpt lat="37.998353" lon="12.7012774"><ele>393.33333333333337</ele><time>2026-04-28T08:08:16.671Z</time></trkpt><trkpt lat="37.9984437" lon="12.7013899"><ele>393.6666666666667</ele><time>2026-04-28T08:08:17.671Z</time></trkpt><trkpt lat="37.9985528" lon="12.7015416"><ele>394.0</ele><time>2026-04-28T08:08:18.671Z</time></trkpt><trkpt lat="37.9986626" lon="12.7017073"><ele>394.0</ele><time>2026-04-28T08:08:19.671Z</time></trkpt><trkpt lat="37.9987788" lon="12.7018702"><ele>394.0</ele><time>2026-04-28T08:08:20.671Z</time></trkpt><trkpt lat="37.998887" lon="12.7020206"><ele>394.0</ele><time>2026-04-28T08:08:21.67Z</time></trkpt><trkpt lat="37.9989905" lon="12.7021659"><ele>396.75</ele><time>2026-04-28T08:08:22.672Z</time></trkpt><trkpt lat="37.99908" lon="12.7022969"><ele>399.5</ele><time>2026-04-28T08:08:23.671Z</time></trkpt><trkpt lat="37.9991673" lon="12.7024071"><ele>402.25</ele><time>2026-04-28T08:08:24.672Z</time></trkpt><trkpt lat="37.9992538" lon="12.7024788"><ele>405.0</ele><time>2026-04-28T08:08:25.671Z</time></trkpt><trkpt lat="37.9993553" lon="12.7025057"><ele>405.5</ele><time>2026-04-28T08:08:26.671Z</time></trkpt><trkpt lat="37.9994685" lon="12.7024996"><ele>406.0</ele><time>2026-04-28T08:08:27.671Z</time></trkpt><trkpt lat="37.9995876" lon="12.702463"><ele>406.5</ele><time>2026-04-28T08:08:28.672Z</time></trkpt><trkpt lat="37.9997017" lon="12.7024342"><ele>407.0</ele><time>2026-04-28T08:08:29.67Z</time></trkpt><trkpt lat="37.9998072" lon="12.702437"><ele>407.0</ele><time>2026-04-28T08:08:30.671Z</time></trkpt><trkpt lat="37.9999199" lon="12.7024757"><ele>407.0</ele><time>2026-04-28T08:08:31.672Z</time></trkpt><trkpt lat="38.0000357" lon="12.7025298"><ele>407.0</ele><time>2026-04-28T08:08:32.671Z</time></trkpt><trkpt lat="38.0001415" lon="12.7025985"><ele>407.0</ele><time>2026-04-28T08:08:33.672Z</time></trkpt><trkpt lat="38.0002295" lon="12.7026748"><ele>407.99999999999994</ele><time>2026-04-28T08:08:34.67Z</time></trkpt><trkpt lat="38.000291" lon="12.7027558"><ele>409.0</ele><time>2026-04-28T08:08:35.67Z</time></trkpt><trkpt lat="38.0003402" lon="12.7028378"><ele>410.0</ele><time>2026-04-28T08:08:36.672Z</time></trkpt><trkpt lat="38.0003829" lon="12.7029189"><ele>411.0</ele><time>2026-04-28T08:08:37.671Z</time></trkpt><trkpt lat="38.0004137" lon="12.7029963"><ele>411.99999999999994</ele><time>2026-04-28T08:08:38.672Z</time></trkpt><trkpt lat="38.000435" lon="12.7030867"><ele>413.0</ele><time>2026-04-28T08:08:39.673Z</time></trkpt><trkpt lat="38.0004415" lon="12.7031867"><ele>412.99999999999994</ele><time>2026-04-28T08:08:40.671Z</time></trkpt><trkpt lat="38.0004223" lon="12.703285"><ele>413.0</ele><time>2026-04-28T08:08:41.672Z</time></trkpt><trkpt lat="38.0003908" lon="12.7033721"><ele>413.0</ele><time>2026-04-28T08:08:42.671Z</time></trkpt><trkpt lat="38.0003507" lon="12.7034708"><ele>413.0</ele><time>2026-04-28T08:08:43.671Z</time></trkpt><trkpt lat="38.000309" lon="12.7035672"><ele>412.99999999999994</ele><time>2026-04-28T08:08:44.671Z</time></trkpt><trkpt lat="38.0002755" lon="12.7036684"><ele>413.0</ele><time>2026-04-28T08:08:45.672Z</time></trkpt><trkpt lat="38.0002445" lon="12.7037656"><ele>412.99999999999994</ele><time>2026-04-28T08:08:46.671Z</time></trkpt><trkpt lat="38.0002231" lon="12.7038621"><ele>413.0</ele><time>2026-04-28T08:08:47.671Z</time></trkpt><trkpt lat="38.0002055" lon="12.7039652"><ele>413.0</ele><time>2026-04-28T08:08:48.67Z</time></trkpt><trkpt lat="38.0001934" lon="12.7040682"><ele>413.0</ele><time>2026-04-28T08:08:49.67Z</time></trkpt><trkpt lat="38.0001988" lon="12.7041808"><ele>412.99999999999994</ele><time>2026-04-28T08:08:50.671Z</time></trkpt><trkpt lat="38.00021" lon="12.7042916"><ele>413.0</ele><time>2026-04-28T08:08:51.672Z</time></trkpt><trkpt lat="38.0002269" lon="12.704404"><ele>413.3333333333333</ele><time>2026-04-28T08:08:52.672Z</time></trkpt><trkpt lat="38.0002502" lon="12.7045094"><ele>413.66666666666663</ele><time>2026-04-28T08:08:53.671Z</time></trkpt><trkpt lat="38.0002657" lon="12.7046206"><ele>414.0</ele><time>2026-04-28T08:08:54.671Z</time></trkpt><trkpt lat="38.000282" lon="12.7047321"><ele>414.33333333333337</ele><time>2026-04-28T08:08:55.672Z</time></trkpt><trkpt lat="38.0002896" lon="12.7048455"><ele>414.6666666666667</ele><time>2026-04-28T08:08:56.67Z</time></trkpt><trkpt lat="38.0002956" lon="12.7049643"><ele>415.0</ele><time>2026-04-28T08:08:57.671Z</time></trkpt><trkpt lat="38.0002943" lon="12.7050883"><ele>415.0</ele><time>2026-04-28T08:08:58.67Z</time></trkpt><trkpt lat="38.0002824" lon="12.705216"><ele>415.0</ele><time>2026-04-28T08:08:59.671Z</time></trkpt><trkpt lat="38.0002681" lon="12.7053424"><ele>415.0</ele><time>2026-04-28T08:09:00.67Z</time></trkpt><trkpt lat="38.0002496" lon="12.7054725"><ele>415.0</ele><time>2026-04-28T08:09:01.67Z</time></trkpt><trkpt lat="38.0002134" lon="12.7056013"><ele>415.0</ele><time>2026-04-28T08:09:02.671Z</time></trkpt><trkpt lat="38.0001712" lon="12.7057292"><ele>413.5</ele><time>2026-04-28T08:09:03.672Z</time></trkpt><trkpt lat="38.0001315" lon="12.7058623"><ele>412.0</ele><time>2026-04-28T08:09:04.671Z</time></trkpt><trkpt lat="38.0000932" lon="12.7059926"><ele>410.5</ele><time>2026-04-28T08:09:05.671Z</time></trkpt><trkpt lat="38.0000657" lon="12.7061362"><ele>409.0</ele><time>2026-04-28T08:09:06.67Z</time></trkpt><trkpt lat="38.000057" lon="12.7062856"><ele>409.4</ele><time>2026-04-28T08:09:07.671Z</time></trkpt><trkpt lat="38.0000614" lon="12.7064268"><ele>409.79999999999995</ele><time>2026-04-28T08:09:08.671Z</time></trkpt><trkpt lat="38.0000793" lon="12.706566"><ele>410.20000000000005</ele><time>2026-04-28T08:09:09.672Z</time></trkpt><trkpt lat="38.0001116" lon="12.7066965"><ele>410.6</ele><time>2026-04-28T08:09:10.67Z</time></trkpt><trkpt lat="38.0001551" lon="12.7068156"><ele>411.0</ele><time>2026-04-28T08:09:11.672Z</time></trkpt><trkpt lat="38.0002181" lon="12.7069238"><ele>411.0</ele><time>2026-04-28T08:09:12.671Z</time></trkpt><trkpt lat="38.0002997" lon="12.7070256"><ele>411.0</ele><time>2026-04-28T08:09:13.671Z</time></trkpt><trkpt lat="38.0003917" lon="12.7071139"><ele>411.0</ele><time>2026-04-28T08:09:14.671Z</time></trkpt><trkpt lat="38.000487" lon="12.7072021"><ele>411.0</ele><time>2026-04-28T08:09:15.672Z</time></trkpt><trkpt lat="38.000577" lon="12.7072957"><ele>411.0</ele><time>2026-04-28T08:09:16.672Z</time></trkpt><trkpt lat="38.0006569" lon="12.7073893"><ele>411.0</ele><time>2026-04-28T08:09:17.671Z</time></trkpt><trkpt lat="38.0007263" lon="12.7074924"><ele>411.0</ele><time>2026-04-28T08:09:18.672Z</time></trkpt><trkpt lat="38.0007884" lon="12.7076089"><ele>411.0</ele><time>2026-04-28T08:09:19.67Z</time></trkpt><trkpt lat="38.0008503" lon="12.707729"><ele>411.0</ele><time>2026-04-28T08:09:20.67Z</time></trkpt><trkpt lat="38.0009145" lon="12.7078549"><ele>409.6</ele><time>2026-04-28T08:09:21.671Z</time></trkpt><trkpt lat="38.000986" lon="12.7079726"><ele>408.20000000000005</ele><time>2026-04-28T08:09:22.67Z</time></trkpt><trkpt lat="38.0010657" lon="12.7080737"><ele>406.79999999999995</ele><time>2026-04-28T08:09:23.671Z</time></trkpt><trkpt lat="38.0011539" lon="12.7081507"><ele>405.4</ele><time>2026-04-28T08:09:24.67Z</time></trkpt><trkpt lat="38.0012555" lon="12.7081964"><ele>404.0</ele><time>2026-04-28T08:09:25.671Z</time></trkpt><trkpt lat="38.0013751" lon="12.7082107"><ele>404.0</ele><time>2026-04-28T08:09:26.672Z</time></trkpt><trkpt lat="38.0014997" lon="12.7081996"><ele>404.0</ele><time>2026-04-28T08:09:27.671Z</time></trkpt><trkpt lat="38.0016281" lon="12.7081927"><ele>404.0</ele><time>2026-04-28T08:09:28.671Z</time></trkpt><trkpt lat="38.0017541" lon="12.7082048"><ele>404.0</ele><time>2026-04-28T08:09:29.671Z</time></trkpt><trkpt lat="38.0018739" lon="12.7082202"><ele>401.0</ele><time>2026-04-28T08:09:30.67Z</time></trkpt><trkpt lat="38.0019912" lon="12.7082425"><ele>398.0</ele><time>2026-04-28T08:09:31.671Z</time></trkpt><trkpt lat="38.0020968" lon="12.7082766"><ele>395.0</ele><time>2026-04-28T08:09:32.671Z</time></trkpt><trkpt lat="38.0022032" lon="12.7083265"><ele>392.0</ele><time>2026-04-28T08:09:33.67Z</time></trkpt><trkpt lat="38.002303" lon="12.708393"><ele>392.0</ele><time>2026-04-28T08:09:34.672Z</time></trkpt><trkpt lat="38.002405" lon="12.7084563"><ele>392.0</ele><time>2026-04-28T08:09:35.67Z</time></trkpt><trkpt lat="38.0025059" lon="12.7085186"><ele>392.0</ele><time>2026-04-28T08:09:36.67Z</time></trkpt><trkpt lat="38.0026155" lon="12.7085611"><ele>392.0</ele><time>2026-04-28T08:09:37.671Z</time></trkpt><trkpt lat="38.0027309" lon="12.7085866"><ele>391.75</ele><time>2026-04-28T08:09:38.671Z</time></trkpt><trkpt lat="38.0028518" lon="12.7086006"><ele>391.5</ele><time>2026-04-28T08:09:39.67Z</time></trkpt><trkpt lat="38.0029758" lon="12.7086199"><ele>391.25</ele><time>2026-04-28T08:09:40.671Z</time></trkpt><trkpt lat="38.0030985" lon="12.7086362"><ele>391.0</ele><time>2026-04-28T08:09:41.67Z</time></trkpt><trkpt lat="38.0032125" lon="12.7086562"><ele>391.0</ele><time>2026-04-28T08:09:42.671Z</time></trkpt><trkpt lat="38.0033108" lon="12.7086806"><ele>391.0</ele><time>2026-04-28T08:09:43.67Z</time></trkpt><trkpt lat="38.0033938" lon="12.7087199"><ele>391.0</ele><time>2026-04-28T08:09:44.672Z</time></trkpt><trkpt lat="38.0034668" lon="12.7087797"><ele>391.0</ele><time>2026-04-28T08:09:45.671Z</time></trkpt><trkpt lat="38.0035315" lon="12.7088563"><ele>391.0</ele><time>2026-04-28T08:09:46.671Z</time></trkpt><trkpt lat="38.00358" lon="12.7089486"><ele>388.8</ele><time>2026-04-28T08:09:47.672Z</time></trkpt><trkpt lat="38.0036243" lon="12.7090535"><ele>386.6</ele><time>2026-04-28T08:09:48.672Z</time></trkpt><trkpt lat="38.0036545" lon="12.7091693"><ele>384.4</ele><time>2026-04-28T08:09:49.671Z</time></trkpt><trkpt lat="38.003672" lon="12.7092988"><ele>382.2</ele><time>2026-04-28T08:09:50.671Z</time></trkpt><trkpt lat="38.0036698" lon="12.7094295"><ele>380.0</ele><time>2026-04-28T08:09:51.671Z</time></trkpt><trkpt lat="38.003667" lon="12.7095693"><ele>379.0</ele><time>2026-04-28T08:09:52.671Z</time></trkpt><trkpt lat="38.0036653" lon="12.7097165"><ele>378.0</ele><time>2026-04-28T08:09:53.672Z</time></trkpt><trkpt lat="38.0036664" lon="12.7098652"><ele>377.0</ele><time>2026-04-28T08:09:54.671Z</time></trkpt><trkpt lat="38.003683" lon="12.7100122"><ele>376.0</ele><time>2026-04-28T08:09:55.671Z</time></trkpt><trkpt lat="38.0037151" lon="12.7101522"><ele>375.8</ele><time>2026-04-28T08:09:56.67Z</time></trkpt><trkpt lat="38.0037541" lon="12.7102836"><ele>375.6</ele><time>2026-04-28T08:09:57.671Z</time></trkpt><trkpt lat="38.0037924" lon="12.7104032"><ele>375.4</ele><time>2026-04-28T08:09:58.671Z</time></trkpt><trkpt lat="38.0038339" lon="12.7105225"><ele>375.2</ele><time>2026-04-28T08:09:59.671Z</time></trkpt><trkpt lat="38.0038636" lon="12.7106436"><ele>375.0</ele><time>2026-04-28T08:10:00.673Z</time></trkpt><trkpt lat="38.0038833" lon="12.7107639"><ele>375.0</ele><time>2026-04-28T08:10:01.671Z</time></trkpt><trkpt lat="38.0038895" lon="12.7108802"><ele>375.0</ele><time>2026-04-28T08:10:02.671Z</time></trkpt><trkpt lat="38.0038862" lon="12.7109831"><ele>375.0</ele><time>2026-04-28T08:10:03.671Z</time></trkpt><trkpt lat="38.003876" lon="12.7110925"><ele>375.0</ele><time>2026-04-28T08:10:04.672Z</time></trkpt><trkpt lat="38.0038499" lon="12.7112084"><ele>375.0</ele><time>2026-04-28T08:10:05.671Z</time></trkpt><trkpt lat="38.0038086" lon="12.7113346"><ele>374.0</ele><time>2026-04-28T08:10:06.672Z</time></trkpt><trkpt lat="38.0037632" lon="12.7114652"><ele>373.0</ele><time>2026-04-28T08:10:07.672Z</time></trkpt><trkpt lat="38.0037207" lon="12.7116143"><ele>372.0</ele><time>2026-04-28T08:10:08.67Z</time></trkpt><trkpt lat="38.0036922" lon="12.7117727"><ele>371.0</ele><time>2026-04-28T08:10:09.672Z</time></trkpt><trkpt lat="38.0036824" lon="12.7119407"><ele>370.5</ele><time>2026-04-28T08:10:10.671Z</time></trkpt><trkpt lat="38.0036778" lon="12.7121074"><ele>370.0</ele><time>2026-04-28T08:10:11.671Z</time></trkpt><trkpt lat="38.0036786" lon="12.7122788"><ele>369.5</ele><time>2026-04-28T08:10:12.673Z</time></trkpt><trkpt lat="38.0036843" lon="12.712456"><ele>369.0</ele><time>2026-04-28T08:10:13.672Z</time></trkpt><trkpt lat="38.0036917" lon="12.7126329"><ele>368.0</ele><time>2026-04-28T08:10:14.672Z</time></trkpt><trkpt lat="38.0037069" lon="12.7128026"><ele>367.0</ele><time>2026-04-28T08:10:15.673Z</time></trkpt><trkpt lat="38.0037319" lon="12.7129653"><ele>366.0</ele><time>2026-04-28T08:10:16.672Z</time></trkpt><trkpt lat="38.0037609" lon="12.7131187"><ele>365.0</ele><time>2026-04-28T08:10:17.671Z</time></trkpt><trkpt lat="38.0037844" lon="12.7132668"><ele>365.0</ele><time>2026-04-28T08:10:18.672Z</time></trkpt><trkpt lat="38.0037967" lon="12.7134105"><ele>365.0</ele><time>2026-04-28T08:10:19.671Z</time></trkpt><trkpt lat="38.0037916" lon="12.7135508"><ele>365.0</ele><time>2026-04-28T08:10:20.672Z</time></trkpt><trkpt lat="38.003779" lon="12.7136894"><ele>365.0</ele><time>2026-04-28T08:10:21.671Z</time></trkpt><trkpt lat="38.0037543" lon="12.7138323"><ele>363.5</ele><time>2026-04-28T08:10:22.672Z</time></trkpt><trkpt lat="38.0037195" lon="12.713972"><ele>362.0</ele><time>2026-04-28T08:10:23.671Z</time></trkpt><trkpt lat="38.0036731" lon="12.7141142"><ele>360.5</ele><time>2026-04-28T08:10:24.671Z</time></trkpt><trkpt lat="38.003619" lon="12.7142626"><ele>359.0</ele><time>2026-04-28T08:10:25.671Z</time></trkpt><trkpt lat="38.0035604" lon="12.7144074"><ele>357.75</ele><time>2026-04-28T08:10:26.671Z</time></trkpt><trkpt lat="38.0035106" lon="12.7145564"><ele>356.5</ele><time>2026-04-28T08:10:27.671Z</time></trkpt><trkpt lat="38.003474" lon="12.714705"><ele>355.25</ele><time>2026-04-28T08:10:28.672Z</time></trkpt><trkpt lat="38.0034518" lon="12.714853"><ele>354.0</ele><time>2026-04-28T08:10:29.671Z</time></trkpt><trkpt lat="38.0034346" lon="12.7150015"><ele>354.0</ele><time>2026-04-28T08:10:30.67Z</time></trkpt><trkpt lat="38.0034237" lon="12.7151571"><ele>354.0</ele><time>2026-04-28T08:10:31.672Z</time></trkpt><trkpt lat="38.0034137" lon="12.7153039"><ele>354.0</ele><time>2026-04-28T08:10:32.67Z</time></trkpt><trkpt lat="38.0034075" lon="12.7154501"><ele>354.0</ele><time>2026-04-28T08:10:33.67Z</time></trkpt><trkpt lat="38.0034057" lon="12.715586"><ele>353.5</ele><time>2026-04-28T08:10:34.672Z</time></trkpt><trkpt lat="38.0034007" lon="12.715716"><ele>353.0</ele><time>2026-04-28T08:10:35.671Z</time></trkpt><trkpt lat="38.0033964" lon="12.7158418"><ele>352.5</ele><time>2026-04-28T08:10:36.672Z</time></trkpt><trkpt lat="38.003393" lon="12.7159548"><ele>352.0</ele><time>2026-04-28T08:10:37.671Z</time></trkpt><trkpt lat="38.0033847" lon="12.7160514"><ele>351.5</ele><time>2026-04-28T08:10:38.672Z</time></trkpt><trkpt lat="38.003373" lon="12.7161427"><ele>351.0</ele><time>2026-04-28T08:10:39.671Z</time></trkpt><trkpt lat="38.0033391" lon="12.7162654"><ele>351.0</ele><time>2026-04-28T08:10:41.672Z</time></trkpt><trkpt lat="38.0033067" lon="12.7163367"><ele>351.0</ele><time>2026-04-28T08:10:43.671Z</time></trkpt><trkpt lat="38.0033702" lon="12.7163865"><ele>351.0</ele><time>2026-04-28T08:17:40.672Z</time></trkpt><trkpt lat="38.0034341" lon="12.7163279"><ele>351.0</ele><time>2026-04-28T08:17:42.671Z</time></trkpt><trkpt lat="38.0034996" lon="12.7162148"><ele>351.0</ele><time>2026-04-28T08:17:44.673Z</time></trkpt><trkpt lat="38.003558" lon="12.7160621"><ele>351.0</ele><time>2026-04-28T08:17:46.671Z</time></trkpt><trkpt lat="38.0035947" lon="12.7159704"><ele>351.0</ele><time>2026-04-28T08:17:47.673Z</time></trkpt><trkpt lat="38.0036344" lon="12.7158688"><ele>351.0</ele><time>2026-04-28T08:17:48.673Z</time></trkpt><trkpt lat="38.0036753" lon="12.7157597"><ele>351.0</ele><time>2026-04-28T08:17:49.673Z</time></trkpt><trkpt lat="38.0037173" lon="12.7156429"><ele>351.0</ele><time>2026-04-28T08:17:50.672Z</time></trkpt><trkpt lat="38.0037596" lon="12.7155295"><ele>351.0</ele><time>2026-04-28T08:17:51.673Z</time></trkpt><trkpt lat="38.003808" lon="12.715413"><ele>351.0</ele><time>2026-04-28T08:17:52.672Z</time></trkpt><trkpt lat="38.0038572" lon="12.7152978"><ele>351.0</ele><time>2026-04-28T08:17:53.671Z</time></trkpt><trkpt lat="38.0039126" lon="12.7151705"><ele>351.0</ele><time>2026-04-28T08:17:54.672Z</time></trkpt><trkpt lat="38.0039641" lon="12.7150397"><ele>351.0</ele><time>2026-04-28T08:17:55.673Z</time></trkpt><trkpt lat="38.0040131" lon="12.714899"><ele>351.75</ele><time>2026-04-28T08:17:56.671Z</time></trkpt><trkpt lat="38.0040633" lon="12.7147623"><ele>352.5</ele><time>2026-04-28T08:17:57.673Z</time></trkpt><trkpt lat="38.0041173" lon="12.7146258"><ele>353.25</ele><time>2026-04-28T08:17:58.673Z</time></trkpt><trkpt lat="38.0041724" lon="12.7144889"><ele>354.0</ele><time>2026-04-28T08:17:59.672Z</time></trkpt><trkpt lat="38.0042238" lon="12.7143448"><ele>352.5</ele><time>2026-04-28T08:18:00.672Z</time></trkpt><trkpt lat="38.0042756" lon="12.7142009"><ele>351.0</ele><time>2026-04-28T08:18:01.672Z</time></trkpt><trkpt lat="38.0043281" lon="12.7140587"><ele>349.5</ele><time>2026-04-28T08:18:02.672Z</time></trkpt><trkpt lat="38.0043814" lon="12.7139167"><ele>348.0</ele><time>2026-04-28T08:18:03.672Z</time></trkpt><trkpt lat="38.0044346" lon="12.7137714"><ele>348.0</ele><time>2026-04-28T08:18:04.673Z</time></trkpt><trkpt lat="38.004485" lon="12.7136236"><ele>348.0</ele><time>2026-04-28T08:18:05.673Z</time></trkpt><trkpt lat="38.0045358" lon="12.7134722"><ele>348.0</ele><time>2026-04-28T08:18:06.671Z</time></trkpt><trkpt lat="38.0045843" lon="12.7133184"><ele>348.0</ele><time>2026-04-28T08:18:07.672Z</time></trkpt><trkpt lat="38.0046276" lon="12.7131636"><ele>348.5</ele><time>2026-04-28T08:18:08.671Z</time></trkpt><trkpt lat="38.0046631" lon="12.7130082"><ele>349.0</ele><time>2026-04-28T08:18:09.672Z</time></trkpt><trkpt lat="38.0046996" lon="12.712847"><ele>349.5</ele><time>2026-04-28T08:18:10.674Z</time></trkpt><trkpt lat="38.0047343" lon="12.7126964"><ele>350.0</ele><time>2026-04-28T08:18:11.672Z</time></trkpt><trkpt lat="38.0047692" lon="12.712545"><ele>351.0</ele><time>2026-04-28T08:18:12.672Z</time></trkpt><trkpt lat="38.0048048" lon="12.7123924"><ele>352.0</ele><time>2026-04-28T08:18:13.672Z</time></trkpt><trkpt lat="38.004848" lon="12.712244"><ele>353.0</ele><time>2026-04-28T08:18:14.672Z</time></trkpt><trkpt lat="38.0048894" lon="12.7120937"><ele>354.0</ele><time>2026-04-28T08:18:15.673Z</time></trkpt><trkpt lat="38.0049346" lon="12.7119389"><ele>353.5</ele><time>2026-04-28T08:18:16.671Z</time></trkpt><trkpt lat="38.0049759" lon="12.7117871"><ele>353.0</ele><time>2026-04-28T08:18:17.672Z</time></trkpt><trkpt lat="38.0050233" lon="12.7116386"><ele>352.5</ele><time>2026-04-28T08:18:18.671Z</time></trkpt><trkpt lat="38.0050784" lon="12.7114975"><ele>352.0</ele><time>2026-04-28T08:18:19.673Z</time></trkpt><trkpt lat="38.0051296" lon="12.7113602"><ele>352.0</ele><time>2026-04-28T08:18:20.671Z</time></trkpt><trkpt lat="38.0051678" lon="12.7112272"><ele>352.0</ele><time>2026-04-28T08:18:21.673Z</time></trkpt><trkpt lat="38.0051894" lon="12.7110916"><ele>352.0</ele><time>2026-04-28T08:18:22.672Z</time></trkpt><trkpt lat="38.0052004" lon="12.710944"><ele>352.0</ele><time>2026-04-28T08:18:23.673Z</time></trkpt><trkpt lat="38.0052111" lon="12.7107946"><ele>352.0</ele><time>2026-04-28T08:18:24.673Z</time></trkpt><trkpt lat="38.0052183" lon="12.7106335"><ele>352.0</ele><time>2026-04-28T08:18:25.672Z</time></trkpt><trkpt lat="38.0052156" lon="12.7104695"><ele>352.0</ele><time>2026-04-28T08:18:26.672Z</time></trkpt><trkpt lat="38.0052197" lon="12.7102963"><ele>352.0</ele><time>2026-04-28T08:18:27.673Z</time></trkpt><trkpt lat="38.0052306" lon="12.7101145"><ele>352.0</ele><time>2026-04-28T08:18:28.673Z</time></trkpt><trkpt lat="38.005242" lon="12.7099284"><ele>352.0</ele><time>2026-04-28T08:18:29.672Z</time></trkpt><trkpt lat="38.0052504" lon="12.7097361"><ele>352.0</ele><time>2026-04-28T08:18:30.672Z</time></trkpt><trkpt lat="38.0052637" lon="12.7095443"><ele>351.3333333333333</ele><time>2026-04-28T08:18:31.672Z</time></trkpt><trkpt lat="38.0052798" lon="12.7093564"><ele>350.6666666666667</ele><time>2026-04-28T08:18:32.672Z</time></trkpt><trkpt lat="38.0052954" lon="12.7091639"><ele>350.0</ele><time>2026-04-28T08:18:33.671Z</time></trkpt><trkpt lat="38.0053096" lon="12.7089754"><ele>350.0</ele><time>2026-04-28T08:18:34.673Z</time></trkpt><trkpt lat="38.0053153" lon="12.7087897"><ele>350.0</ele><time>2026-04-28T08:18:35.672Z</time></trkpt><trkpt lat="38.005326" lon="12.7086025"><ele>350.0</ele><time>2026-04-28T08:18:36.672Z</time></trkpt><trkpt lat="38.0053391" lon="12.7084146"><ele>350.0</ele><time>2026-04-28T08:18:37.673Z</time></trkpt><trkpt lat="38.0053497" lon="12.7082285"><ele>349.33333333333337</ele><time>2026-04-28T08:18:38.672Z</time></trkpt><trkpt lat="38.0053554" lon="12.7080362"><ele>348.6666666666667</ele><time>2026-04-28T08:18:39.671Z</time></trkpt><trkpt lat="38.0053598" lon="12.7078389"><ele>348.0</ele><time>2026-04-28T08:18:40.672Z</time></trkpt><trkpt lat="38.0053594" lon="12.7076399"><ele>346.0</ele><time>2026-04-28T08:18:41.673Z</time></trkpt><trkpt lat="38.0053634" lon="12.7074431"><ele>344.0</ele><time>2026-04-28T08:18:42.671Z</time></trkpt><trkpt lat="38.0053675" lon="12.7072513"><ele>342.0</ele><time>2026-04-28T08:18:43.672Z</time></trkpt><trkpt lat="38.005369" lon="12.7070562"><ele>340.25</ele><time>2026-04-28T08:18:44.672Z</time></trkpt><trkpt lat="38.0053694" lon="12.7068635"><ele>338.5</ele><time>2026-04-28T08:18:45.672Z</time></trkpt><trkpt lat="38.0053716" lon="12.7066745"><ele>336.75</ele><time>2026-04-28T08:18:46.672Z</time></trkpt><trkpt lat="38.0053657" lon="12.7064863"><ele>335.0</ele><time>2026-04-28T08:18:47.672Z</time></trkpt><trkpt lat="38.0053608" lon="12.7063005"><ele>335.0</ele><time>2026-04-28T08:18:48.672Z</time></trkpt><trkpt lat="38.0053575" lon="12.706121"><ele>335.0</ele><time>2026-04-28T08:18:49.671Z</time></trkpt><trkpt lat="38.0053524" lon="12.7059365"><ele>335.0</ele><time>2026-04-28T08:18:50.674Z</time></trkpt><trkpt lat="38.005342" lon="12.7057638"><ele>335.0</ele><time>2026-04-28T08:18:51.672Z</time></trkpt><trkpt lat="38.0053311" lon="12.7056013"><ele>333.75</ele><time>2026-04-28T08:18:52.673Z</time></trkpt><trkpt lat="38.0053306" lon="12.7054392"><ele>332.5</ele><time>2026-04-28T08:18:53.673Z</time></trkpt><trkpt lat="38.0053213" lon="12.7052888"><ele>331.25</ele><time>2026-04-28T08:18:54.673Z</time></trkpt><trkpt lat="38.0053212" lon="12.7051455"><ele>330.0</ele><time>2026-04-28T08:18:55.671Z</time></trkpt><trkpt lat="38.0053252" lon="12.7050259"><ele>330.0</ele><time>2026-04-28T08:18:56.674Z</time></trkpt><trkpt lat="38.0053435" lon="12.7049085"><ele>330.0</ele><time>2026-04-28T08:18:58.672Z</time></trkpt><trkpt lat="38.0054116" lon="12.7049217"><ele>330.0</ele><time>2026-04-28T08:19:00.671Z</time></trkpt><trkpt lat="38.0054813" lon="12.7050492"><ele>330.0</ele><time>2026-04-28T08:19:02.672Z</time></trkpt><trkpt lat="38.0055219" lon="12.7051522"><ele>330.0</ele><time>2026-04-28T08:19:03.672Z</time></trkpt><trkpt lat="38.0055675" lon="12.7052656"><ele>330.0</ele><time>2026-04-28T08:19:04.672Z</time></trkpt><trkpt lat="38.0056254" lon="12.7053839"><ele>330.0</ele><time>2026-04-28T08:19:05.672Z</time></trkpt><trkpt lat="38.0056935" lon="12.705513"><ele>330.0</ele><time>2026-04-28T08:19:06.672Z</time></trkpt><trkpt lat="38.0057664" lon="12.7056517"><ele>330.0</ele><time>2026-04-28T08:19:07.673Z</time></trkpt><trkpt lat="38.005837" lon="12.7058029"><ele>327.5</ele><time>2026-04-28T08:19:08.673Z</time></trkpt><trkpt lat="38.0059109" lon="12.705956"><ele>325.0</ele><time>2026-04-28T08:19:09.673Z</time></trkpt><trkpt lat="38.0059816" lon="12.706098"><ele>322.5</ele><time>2026-04-28T08:19:10.672Z</time></trkpt><trkpt lat="38.0060522" lon="12.706234"><ele>320.0</ele><time>2026-04-28T08:19:11.672Z</time></trkpt><trkpt lat="38.0061384" lon="12.7063416"><ele>320.0</ele><time>2026-04-28T08:19:12.671Z</time></trkpt><trkpt lat="38.0062378" lon="12.7064366"><ele>320.0</ele><time>2026-04-28T08:19:13.672Z</time></trkpt><trkpt lat="38.0063513" lon="12.7065265"><ele>320.0</ele><time>2026-04-28T08:19:14.672Z</time></trkpt><trkpt lat="38.00647" lon="12.7066303"><ele>320.0</ele><time>2026-04-28T08:19:15.673Z</time></trkpt><trkpt lat="38.0065934" lon="12.7067399"><ele>316.33333333333337</ele><time>2026-04-28T08:19:16.671Z</time></trkpt><trkpt lat="38.0067219" lon="12.7068582"><ele>312.6666666666667</ele><time>2026-04-28T08:19:17.672Z</time></trkpt><trkpt lat="38.0068526" lon="12.706975"><ele>309.0</ele><time>2026-04-28T08:19:18.672Z</time></trkpt><trkpt lat="38.0069789" lon="12.7071019"><ele>309.0</ele><time>2026-04-28T08:19:19.672Z</time></trkpt><trkpt lat="38.0071056" lon="12.7072242"><ele>309.0</ele><time>2026-04-28T08:19:20.672Z</time></trkpt><trkpt lat="38.0072325" lon="12.7073492"><ele>309.0</ele><time>2026-04-28T08:19:21.673Z</time></trkpt><trkpt lat="38.0073654" lon="12.707459"><ele>304.6666666666667</ele><time>2026-04-28T08:19:22.671Z</time></trkpt><trkpt lat="38.0075087" lon="12.7075502"><ele>300.33333333333337</ele><time>2026-04-28T08:19:23.673Z</time></trkpt><trkpt lat="38.0076618" lon="12.7076232"><ele>296.0</ele><time>2026-04-28T08:19:24.673Z</time></trkpt><trkpt lat="38.007827" lon="12.7076917"><ele>295.33333333333337</ele><time>2026-04-28T08:19:25.671Z</time></trkpt><trkpt lat="38.0079999" lon="12.7077603"><ele>294.6666666666667</ele><time>2026-04-28T08:19:26.672Z</time></trkpt><trkpt lat="38.0081664" lon="12.7078199"><ele>294.0</ele><time>2026-04-28T08:19:27.672Z</time></trkpt><trkpt lat="38.0083328" lon="12.7078806"><ele>294.0</ele><time>2026-04-28T08:19:28.672Z</time></trkpt><trkpt lat="38.00849" lon="12.7079476"><ele>294.0</ele><time>2026-04-28T08:19:29.673Z</time></trkpt><trkpt lat="38.0086414" lon="12.7080037"><ele>294.0</ele><time>2026-04-28T08:19:30.672Z</time></trkpt><trkpt lat="38.0087928" lon="12.7080778"><ele>294.0</ele><time>2026-04-28T08:19:31.673Z</time></trkpt><trkpt lat="38.0089375" lon="12.7081712"><ele>294.0</ele><time>2026-04-28T08:19:32.672Z</time></trkpt><trkpt lat="38.0090769" lon="12.7082717"><ele>294.0</ele><time>2026-04-28T08:19:33.672Z</time></trkpt><trkpt lat="38.009219" lon="12.7083753"><ele>294.0</ele><time>2026-04-28T08:19:34.673Z</time></trkpt><trkpt lat="38.0093575" lon="12.7084979"><ele>294.0</ele><time>2026-04-28T08:19:35.673Z</time></trkpt><trkpt lat="38.0094936" lon="12.7086336"><ele>294.0</ele><time>2026-04-28T08:19:36.672Z</time></trkpt><trkpt lat="38.009618" lon="12.7087739"><ele>294.0</ele><time>2026-04-28T08:19:37.673Z</time></trkpt><trkpt lat="38.009721" lon="12.7089096"><ele>294.0</ele><time>2026-04-28T08:19:38.673Z</time></trkpt><trkpt lat="38.0098177" lon="12.7090427"><ele>294.0</ele><time>2026-04-28T08:19:39.673Z</time></trkpt><trkpt lat="38.0098981" lon="12.7091899"><ele>294.0</ele><time>2026-04-28T08:19:40.672Z</time></trkpt><trkpt lat="38.0099635" lon="12.7093556"><ele>287.5</ele><time>2026-04-28T08:19:41.673Z</time></trkpt><trkpt lat="38.0100901" lon="12.7097009"><ele>281.0</ele><time>2026-04-28T08:19:43.672Z</time></trkpt><trkpt lat="38.0101766" lon="12.7098718"><ele>281.0</ele><time>2026-04-28T08:19:44.672Z</time></trkpt><trkpt lat="38.0102716" lon="12.7100222"><ele>281.0</ele><time>2026-04-28T08:19:45.672Z</time></trkpt><trkpt lat="38.0103771" lon="12.7101576"><ele>281.0</ele><time>2026-04-28T08:19:46.672Z</time></trkpt><trkpt lat="38.0104948" lon="12.7102714"><ele>281.0</ele><time>2026-04-28T08:19:47.672Z</time></trkpt><trkpt lat="38.0106148" lon="12.710365"><ele>281.0</ele><time>2026-04-28T08:19:48.672Z</time></trkpt><trkpt lat="38.0107355" lon="12.7104484"><ele>281.0</ele><time>2026-04-28T08:19:49.672Z</time></trkpt><trkpt lat="38.0108583" lon="12.7105153"><ele>281.0</ele><time>2026-04-28T08:19:50.673Z</time></trkpt><trkpt lat="38.0109828" lon="12.7105545"><ele>277.33333333333337</ele><time>2026-04-28T08:19:51.672Z</time></trkpt><trkpt lat="38.0111127" lon="12.7105793"><ele>273.6666666666667</ele><time>2026-04-28T08:19:52.672Z</time></trkpt><trkpt lat="38.0113677" lon="12.7106113"><ele>270.0</ele><time>2026-04-28T08:19:54.673Z</time></trkpt><trkpt lat="38.0114866" lon="12.7106235"><ele>270.0</ele><time>2026-04-28T08:19:55.673Z</time></trkpt><trkpt lat="38.0115948" lon="12.7106445"><ele>270.0</ele><time>2026-04-28T08:19:56.673Z</time></trkpt><trkpt lat="38.0117014" lon="12.7106913"><ele>270.0</ele><time>2026-04-28T08:19:57.671Z</time></trkpt><trkpt lat="38.0117992" lon="12.7107517"><ele>270.0</ele><time>2026-04-28T08:19:58.673Z</time></trkpt><trkpt lat="38.0118875" lon="12.7108463"><ele>270.0</ele><time>2026-04-28T08:19:59.673Z</time></trkpt><trkpt lat="38.01196" lon="12.7109532"><ele>269.0</ele><time>2026-04-28T08:20:00.672Z</time></trkpt><trkpt lat="38.0120212" lon="12.7110684"><ele>268.0</ele><time>2026-04-28T08:20:01.672Z</time></trkpt><trkpt lat="38.0120734" lon="12.7111705"><ele>267.0</ele><time>2026-04-28T08:20:02.671Z</time></trkpt><trkpt lat="38.0121187" lon="12.71126"><ele>266.0</ele><time>2026-04-28T08:20:03.672Z</time></trkpt><trkpt lat="38.012161" lon="12.711322"><ele>265.0</ele><time>2026-04-28T08:20:04.671Z</time></trkpt><trkpt lat="38.0122566" lon="12.7113826"><ele>265.0</ele><time>2026-04-28T08:20:06.672Z</time></trkpt><trkpt lat="38.0123505" lon="12.7113365"><ele>265.0</ele><time>2026-04-28T08:20:08.672Z</time></trkpt><trkpt lat="38.0124578" lon="12.711283"><ele>265.0</ele><time>2026-04-28T08:20:10.673Z</time></trkpt><trkpt lat="38.0125721" lon="12.7113654"><ele>265.0</ele><time>2026-04-28T08:20:12.672Z</time></trkpt><trkpt lat="38.0126307" lon="12.7114483"><ele>265.0</ele><time>2026-04-28T08:20:13.673Z</time></trkpt><trkpt lat="38.0126873" lon="12.7115416"><ele>262.5</ele><time>2026-04-28T08:20:14.673Z</time></trkpt><trkpt lat="38.0127551" lon="12.7116424"><ele>260.0</ele><time>2026-04-28T08:20:15.672Z</time></trkpt><trkpt lat="38.0128426" lon="12.7117297"><ele>257.5</ele><time>2026-04-28T08:20:16.673Z</time></trkpt><trkpt lat="38.0129433" lon="12.7118102"><ele>255.0</ele><time>2026-04-28T08:20:17.673Z</time></trkpt><trkpt lat="38.0130464" lon="12.7118917"><ele>256.25</ele><time>2026-04-28T08:20:18.672Z</time></trkpt><trkpt lat="38.013141" lon="12.7119812"><ele>257.5</ele><time>2026-04-28T08:20:19.671Z</time></trkpt><trkpt lat="38.0132208" lon="12.7120884"><ele>258.75</ele><time>2026-04-28T08:20:20.673Z</time></trkpt><trkpt lat="38.0132898" lon="12.7122234"><ele>260.0</ele><time>2026-04-28T08:20:21.672Z</time></trkpt><trkpt lat="38.0133403" lon="12.712382"><ele>256.5</ele><time>2026-04-28T08:20:22.673Z</time></trkpt><trkpt lat="38.0133864" lon="12.7125608"><ele>253.0</ele><time>2026-04-28T08:20:23.673Z</time></trkpt><trkpt lat="38.0134298" lon="12.7127397"><ele>249.5</ele><time>2026-04-28T08:20:24.672Z</time></trkpt><trkpt lat="38.013459" lon="12.7129283"><ele>246.0</ele><time>2026-04-28T08:20:25.672Z</time></trkpt><trkpt lat="38.0134682" lon="12.7131221"><ele>246.0</ele><time>2026-04-28T08:20:26.672Z</time></trkpt><trkpt lat="38.0134664" lon="12.7133163"><ele>246.0</ele><time>2026-04-28T08:20:27.671Z</time></trkpt><trkpt lat="38.0134911" lon="12.7135099"><ele>246.0</ele><time>2026-04-28T08:20:28.672Z</time></trkpt><trkpt lat="38.0135314" lon="12.7136992"><ele>246.0</ele><time>2026-04-28T08:20:29.672Z</time></trkpt><trkpt lat="38.0135951" lon="12.7138919"><ele>246.0</ele><time>2026-04-28T08:20:30.673Z</time></trkpt><trkpt lat="38.0136597" lon="12.7140718"><ele>246.0</ele><time>2026-04-28T08:20:31.673Z</time></trkpt><trkpt lat="38.0137269" lon="12.7142475"><ele>243.75</ele><time>2026-04-28T08:20:32.673Z</time></trkpt><trkpt lat="38.0137845" lon="12.7144191"><ele>241.5</ele><time>2026-04-28T08:20:33.672Z</time></trkpt><trkpt lat="38.013817" lon="12.7145824"><ele>239.25</ele><time>2026-04-28T08:20:34.673Z</time></trkpt><trkpt lat="38.0138176" lon="12.7147546"><ele>237.0</ele><time>2026-04-28T08:20:35.672Z</time></trkpt><trkpt lat="38.0137903" lon="12.714941"><ele>237.0</ele><time>2026-04-28T08:20:36.673Z</time></trkpt><trkpt lat="38.0137501" lon="12.7151357"><ele>237.0</ele><time>2026-04-28T08:20:37.672Z</time></trkpt><trkpt lat="38.0137003" lon="12.7153349"><ele>237.0</ele><time>2026-04-28T08:20:38.672Z</time></trkpt><trkpt lat="38.0136556" lon="12.715533"><ele>234.66666666666669</ele><time>2026-04-28T08:20:39.673Z</time></trkpt><trkpt lat="38.0136092" lon="12.71572"><ele>232.33333333333334</ele><time>2026-04-28T08:20:40.672Z</time></trkpt><trkpt lat="38.0135571" lon="12.7159098"><ele>230.0</ele><time>2026-04-28T08:20:41.673Z</time></trkpt><trkpt lat="38.0135115" lon="12.7160932"><ele>228.33333333333334</ele><time>2026-04-28T08:20:42.673Z</time></trkpt><trkpt lat="38.013465" lon="12.7162748"><ele>226.66666666666669</ele><time>2026-04-28T08:20:43.673Z</time></trkpt><trkpt lat="38.0134168" lon="12.7164552"><ele>225.0</ele><time>2026-04-28T08:20:44.673Z</time></trkpt><trkpt lat="38.0133699" lon="12.7166361"><ele>225.0</ele><time>2026-04-28T08:20:45.672Z</time></trkpt><trkpt lat="38.0133223" lon="12.7168224"><ele>225.0</ele><time>2026-04-28T08:20:46.671Z</time></trkpt><trkpt lat="38.0132773" lon="12.7170086"><ele>225.0</ele><time>2026-04-28T08:20:47.672Z</time></trkpt><trkpt lat="38.0132353" lon="12.7171991"><ele>224.66666666666669</ele><time>2026-04-28T08:20:48.672Z</time></trkpt><trkpt lat="38.013194" lon="12.7173941"><ele>224.33333333333334</ele><time>2026-04-28T08:20:49.672Z</time></trkpt><trkpt lat="38.0131578" lon="12.717587"><ele>224.0</ele><time>2026-04-28T08:20:50.672Z</time></trkpt><trkpt lat="38.0131246" lon="12.7177792"><ele>223.25</ele><time>2026-04-28T08:20:51.672Z</time></trkpt><trkpt lat="38.0130915" lon="12.7179665"><ele>222.5</ele><time>2026-04-28T08:20:52.673Z</time></trkpt><trkpt lat="38.0130604" lon="12.7181472"><ele>221.75</ele><time>2026-04-28T08:20:53.672Z</time></trkpt><trkpt lat="38.0130314" lon="12.718303"><ele>221.0</ele><time>2026-04-28T08:20:54.673Z</time></trkpt><trkpt lat="38.0130161" lon="12.7184413"><ele>221.0</ele><time>2026-04-28T08:20:55.673Z</time></trkpt><trkpt lat="38.0130076" lon="12.7185581"><ele>221.00000000000003</ele><time>2026-04-28T08:20:56.672Z</time></trkpt><trkpt lat="38.0130069" lon="12.7186747"><ele>221.00000000000003</ele><time>2026-04-28T08:20:57.672Z</time></trkpt><trkpt lat="38.0130064" lon="12.7187952"><ele>221.0</ele><time>2026-04-28T08:20:58.674Z</time></trkpt><trkpt lat="38.0130143" lon="12.7189279"><ele>221.0</ele><time>2026-04-28T08:20:59.673Z</time></trkpt><trkpt lat="38.0130264" lon="12.7190561"><ele>219.8</ele><time>2026-04-28T08:21:00.672Z</time></trkpt><trkpt lat="38.0130359" lon="12.7191819"><ele>218.60000000000002</ele><time>2026-04-28T08:21:01.673Z</time></trkpt><trkpt lat="38.0130592" lon="12.7193024"><ele>217.4</ele><time>2026-04-28T08:21:02.673Z</time></trkpt><trkpt lat="38.0131246" lon="12.7194457"><ele>216.2</ele><time>2026-04-28T08:21:03.672Z</time></trkpt><trkpt lat="38.0131958" lon="12.7195693"><ele>215.0</ele><time>2026-04-28T08:21:04.672Z</time></trkpt><trkpt lat="38.0132836" lon="12.7196877"><ele>211.75</ele><time>2026-04-28T08:21:05.672Z</time></trkpt><trkpt lat="38.0133711" lon="12.7198064"><ele>208.5</ele><time>2026-04-28T08:21:06.673Z</time></trkpt><trkpt lat="38.0134588" lon="12.7199191"><ele>205.25</ele><time>2026-04-28T08:21:07.672Z</time></trkpt><trkpt lat="38.0135433" lon="12.7200427"><ele>202.0</ele><time>2026-04-28T08:21:08.673Z</time></trkpt><trkpt lat="38.0136266" lon="12.7201561"><ele>202.6</ele><time>2026-04-28T08:21:09.673Z</time></trkpt><trkpt lat="38.0137004" lon="12.720259"><ele>203.2</ele><time>2026-04-28T08:21:10.672Z</time></trkpt><trkpt lat="38.0137716" lon="12.7203497"><ele>203.8</ele><time>2026-04-28T08:21:11.672Z</time></trkpt><trkpt lat="38.013846" lon="12.7204346"><ele>204.4</ele><time>2026-04-28T08:21:12.672Z</time></trkpt><trkpt lat="38.0139101" lon="12.7205337"><ele>205.0</ele><time>2026-04-28T08:21:13.673Z</time></trkpt><trkpt lat="38.0139836" lon="12.7206354"><ele>205.0</ele><time>2026-04-28T08:21:14.673Z</time></trkpt><trkpt lat="38.0140488" lon="12.720752"><ele>205.0</ele><time>2026-04-28T08:21:15.673Z</time></trkpt><trkpt lat="38.0141071" lon="12.7208877"><ele>205.0</ele><time>2026-04-28T08:21:16.673Z</time></trkpt><trkpt lat="38.0141412" lon="12.7210247"><ele>205.0</ele><time>2026-04-28T08:21:17.673Z</time></trkpt><trkpt lat="38.014165" lon="12.7211727"><ele>204.75</ele><time>2026-04-28T08:21:18.673Z</time></trkpt><trkpt lat="38.0141611" lon="12.7213036"><ele>204.5</ele><time>2026-04-28T08:21:19.673Z</time></trkpt><trkpt lat="38.0141464" lon="12.7214471"><ele>204.25</ele><time>2026-04-28T08:21:20.672Z</time></trkpt><trkpt lat="38.0141317" lon="12.7215967"><ele>204.0</ele><time>2026-04-28T08:21:21.672Z</time></trkpt><trkpt lat="38.0141149" lon="12.7217659"><ele>205.5</ele><time>2026-04-28T08:21:22.673Z</time></trkpt><trkpt lat="38.0140967" lon="12.7219371"><ele>207.0</ele><time>2026-04-28T08:21:23.672Z</time></trkpt><trkpt lat="38.0140713" lon="12.7221168"><ele>208.5</ele><time>2026-04-28T08:21:24.673Z</time></trkpt><trkpt lat="38.0140486" lon="12.7222926"><ele>210.0</ele><time>2026-04-28T08:21:25.673Z</time></trkpt><trkpt lat="38.0140231" lon="12.7224556"><ele>210.0</ele><time>2026-04-28T08:21:26.672Z</time></trkpt><trkpt lat="38.013997" lon="12.72261"><ele>210.0</ele><time>2026-04-28T08:21:27.672Z</time></trkpt><trkpt lat="38.0139717" lon="12.722759"><ele>210.0</ele><time>2026-04-28T08:21:28.673Z</time></trkpt><trkpt lat="38.0139503" lon="12.7229059"><ele>210.0</ele><time>2026-04-28T08:21:29.672Z</time></trkpt><trkpt lat="38.0139279" lon="12.7230624"><ele>210.25</ele><time>2026-04-28T08:21:30.672Z</time></trkpt><trkpt lat="38.0138955" lon="12.7232081"><ele>210.5</ele><time>2026-04-28T08:21:31.673Z</time></trkpt><trkpt lat="38.013873" lon="12.7233633"><ele>210.75</ele><time>2026-04-28T08:21:32.673Z</time></trkpt><trkpt lat="38.013855" lon="12.7235228"><ele>211.0</ele><time>2026-04-28T08:21:33.673Z</time></trkpt><trkpt lat="38.0138325" lon="12.7236729"><ele>211.0</ele><time>2026-04-28T08:21:34.672Z</time></trkpt><trkpt lat="38.0138087" lon="12.7238218"><ele>211.0</ele><time>2026-04-28T08:21:35.673Z</time></trkpt><trkpt lat="38.0137866" lon="12.7239708"><ele>211.0</ele><time>2026-04-28T08:21:36.672Z</time></trkpt><trkpt lat="38.0137651" lon="12.724111"><ele>211.0</ele><time>2026-04-28T08:21:37.673Z</time></trkpt><trkpt lat="38.0137411" lon="12.7242697"><ele>210.25</ele><time>2026-04-28T08:21:38.673Z</time></trkpt><trkpt lat="38.0137149" lon="12.7244387"><ele>209.5</ele><time>2026-04-28T08:21:39.672Z</time></trkpt><trkpt lat="38.0136877" lon="12.7246103"><ele>208.75</ele><time>2026-04-28T08:21:40.673Z</time></trkpt><trkpt lat="38.0136575" lon="12.7247865"><ele>208.0</ele><time>2026-04-28T08:21:41.674Z</time></trkpt><trkpt lat="38.013625" lon="12.7249683"><ele>208.0</ele><time>2026-04-28T08:21:42.672Z</time></trkpt><trkpt lat="38.0135948" lon="12.725151"><ele>208.0</ele><time>2026-04-28T08:21:43.672Z</time></trkpt><trkpt lat="38.0135585" lon="12.7253268"><ele>208.0</ele><time>2026-04-28T08:21:44.672Z</time></trkpt><trkpt lat="38.0135288" lon="12.7255092"><ele>208.0</ele><time>2026-04-28T08:21:45.672Z</time></trkpt><trkpt lat="38.0134968" lon="12.7256954"><ele>206.66666666666666</ele><time>2026-04-28T08:21:46.672Z</time></trkpt><trkpt lat="38.0134642" lon="12.7258909"><ele>205.33333333333331</ele><time>2026-04-28T08:21:47.673Z</time></trkpt><trkpt lat="38.0134316" lon="12.7260911"><ele>204.0</ele><time>2026-04-28T08:21:48.672Z</time></trkpt><trkpt lat="38.0133991" lon="12.72629"><ele>204.0</ele><time>2026-04-28T08:21:49.672Z</time></trkpt><trkpt lat="38.0133634" lon="12.7264865"><ele>204.0</ele><time>2026-04-28T08:21:50.673Z</time></trkpt><trkpt lat="38.0133289" lon="12.7266894"><ele>204.0</ele><time>2026-04-28T08:21:51.673Z</time></trkpt><trkpt lat="38.0132968" lon="12.7269008"><ele>204.33333333333331</ele><time>2026-04-28T08:21:52.673Z</time></trkpt><trkpt lat="38.0132624" lon="12.7271193"><ele>204.66666666666666</ele><time>2026-04-28T08:21:53.672Z</time></trkpt><trkpt lat="38.013228" lon="12.727337"><ele>205.0</ele><time>2026-04-28T08:21:54.672Z</time></trkpt><trkpt lat="38.0131924" lon="12.7275553"><ele>205.0</ele><time>2026-04-28T08:21:55.673Z</time></trkpt><trkpt lat="38.0131579" lon="12.7277756"><ele>205.0</ele><time>2026-04-28T08:21:56.673Z</time></trkpt><trkpt lat="38.0131255" lon="12.7279925"><ele>205.0</ele><time>2026-04-28T08:21:57.673Z</time></trkpt><trkpt lat="38.0130941" lon="12.7282018"><ele>205.0</ele><time>2026-04-28T08:21:58.672Z</time></trkpt><trkpt lat="38.013061" lon="12.7284005"><ele>205.0</ele><time>2026-04-28T08:21:59.672Z</time></trkpt><trkpt lat="38.0130327" lon="12.728596"><ele>205.0</ele><time>2026-04-28T08:22:00.673Z</time></trkpt><trkpt lat="38.0130007" lon="12.7287862"><ele>204.33333333333331</ele><time>2026-04-28T08:22:01.672Z</time></trkpt><trkpt lat="38.0129733" lon="12.7289846"><ele>203.66666666666669</ele><time>2026-04-28T08:22:02.673Z</time></trkpt><trkpt lat="38.012942" lon="12.7291791"><ele>203.0</ele><time>2026-04-28T08:22:03.672Z</time></trkpt><trkpt lat="38.012911" lon="12.7293698"><ele>201.66666666666669</ele><time>2026-04-28T08:22:04.674Z</time></trkpt><trkpt lat="38.0128771" lon="12.7295643"><ele>200.33333333333331</ele><time>2026-04-28T08:22:05.672Z</time></trkpt><trkpt lat="38.0128447" lon="12.7297603"><ele>199.0</ele><time>2026-04-28T08:22:06.674Z</time></trkpt><trkpt lat="38.0128081" lon="12.7299611"><ele>199.0</ele><time>2026-04-28T08:22:07.672Z</time></trkpt><trkpt lat="38.0127711" lon="12.7301633"><ele>199.0</ele><time>2026-04-28T08:22:08.672Z</time></trkpt><trkpt lat="38.0127458" lon="12.7303654"><ele>199.0</ele><time>2026-04-28T08:22:09.673Z</time></trkpt><trkpt lat="38.0127312" lon="12.730564"><ele>198.33333333333331</ele><time>2026-04-28T08:22:10.673Z</time></trkpt><trkpt lat="38.0127296" lon="12.7307581"><ele>197.66666666666669</ele><time>2026-04-28T08:22:11.672Z</time></trkpt><trkpt lat="38.0127548" lon="12.7309579"><ele>197.0</ele><time>2026-04-28T08:22:12.673Z</time></trkpt><trkpt lat="38.0127905" lon="12.7311576"><ele>196.66666666666669</ele><time>2026-04-28T08:22:13.673Z</time></trkpt><trkpt lat="38.0128323" lon="12.7313666"><ele>196.33333333333331</ele><time>2026-04-28T08:22:14.673Z</time></trkpt><trkpt lat="38.0128757" lon="12.7315767"><ele>196.0</ele><time>2026-04-28T08:22:15.672Z</time></trkpt><trkpt lat="38.0129251" lon="12.7317926"><ele>197.0</ele><time>2026-04-28T08:22:16.672Z</time></trkpt><trkpt lat="38.0129843" lon="12.7320053"><ele>198.0</ele><time>2026-04-28T08:22:17.672Z</time></trkpt><trkpt lat="38.013053" lon="12.7322147"><ele>199.0</ele><time>2026-04-28T08:22:18.673Z</time></trkpt><trkpt lat="38.0131321" lon="12.7324144"><ele>199.0</ele><time>2026-04-28T08:22:19.672Z</time></trkpt><trkpt lat="38.0132188" lon="12.7326088"><ele>199.0</ele><time>2026-04-28T08:22:20.674Z</time></trkpt><trkpt lat="38.0133041" lon="12.7328066"><ele>199.0</ele><time>2026-04-28T08:22:21.672Z</time></trkpt><trkpt lat="38.0133874" lon="12.7330115"><ele>198.0</ele><time>2026-04-28T08:22:22.672Z</time></trkpt><trkpt lat="38.0134659" lon="12.7332284"><ele>197.0</ele><time>2026-04-28T08:22:23.673Z</time></trkpt><trkpt lat="38.0135414" lon="12.7334453"><ele>196.0</ele><time>2026-04-28T08:22:24.673Z</time></trkpt><trkpt lat="38.0136191" lon="12.7336728"><ele>196.0</ele><time>2026-04-28T08:22:25.673Z</time></trkpt><trkpt lat="38.0136955" lon="12.7339127"><ele>196.0</ele><time>2026-04-28T08:22:26.674Z</time></trkpt><trkpt lat="38.0137705" lon="12.7341614"><ele>196.0</ele><time>2026-04-28T08:22:27.674Z</time></trkpt><trkpt lat="38.0138441" lon="12.734428"><ele>195.33333333333331</ele><time>2026-04-28T08:22:28.673Z</time></trkpt><trkpt lat="38.0139219" lon="12.7346912"><ele>194.66666666666669</ele><time>2026-04-28T08:22:29.673Z</time></trkpt><trkpt lat="38.0140038" lon="12.7349519"><ele>194.0</ele><time>2026-04-28T08:22:30.672Z</time></trkpt><trkpt lat="38.0140817" lon="12.7352079"><ele>192.66666666666669</ele><time>2026-04-28T08:22:31.672Z</time></trkpt><trkpt lat="38.0141597" lon="12.7354672"><ele>191.33333333333334</ele><time>2026-04-28T08:22:32.672Z</time></trkpt><trkpt lat="38.0142391" lon="12.7357286"><ele>190.0</ele><time>2026-04-28T08:22:33.673Z</time></trkpt><trkpt lat="38.014318" lon="12.7359916"><ele>191.5</ele><time>2026-04-28T08:22:34.673Z</time></trkpt><trkpt lat="38.0144001" lon="12.7362594"><ele>193.0</ele><time>2026-04-28T08:22:35.673Z</time></trkpt><trkpt lat="38.0144818" lon="12.7365275"><ele>193.0</ele><time>2026-04-28T08:22:36.672Z</time></trkpt><trkpt lat="38.0145623" lon="12.7367939"><ele>193.0</ele><time>2026-04-28T08:22:37.674Z</time></trkpt><trkpt lat="38.0146428" lon="12.7370529"><ele>193.0</ele><time>2026-04-28T08:22:38.673Z</time></trkpt><trkpt lat="38.0147245" lon="12.7373068"><ele>194.33333333333331</ele><time>2026-04-28T08:22:39.672Z</time></trkpt><trkpt lat="38.0148161" lon="12.7375578"><ele>195.66666666666669</ele><time>2026-04-28T08:22:40.672Z</time></trkpt><trkpt lat="38.0149092" lon="12.7377996"><ele>197.0</ele><time>2026-04-28T08:22:41.672Z</time></trkpt><trkpt lat="38.0149969" lon="12.7380256"><ele>197.0</ele><time>2026-04-28T08:22:42.673Z</time></trkpt><trkpt lat="38.0150949" lon="12.7382521"><ele>197.0</ele><time>2026-04-28T08:22:43.674Z</time></trkpt><trkpt lat="38.0151859" lon="12.738484"><ele>197.0</ele><time>2026-04-28T08:22:44.672Z</time></trkpt><trkpt lat="38.0152632" lon="12.7387259"><ele>198.33333333333334</ele><time>2026-04-28T08:22:45.673Z</time></trkpt><trkpt lat="38.0153331" lon="12.7389769"><ele>199.66666666666669</ele><time>2026-04-28T08:22:46.672Z</time></trkpt><trkpt lat="38.0153966" lon="12.739222"><ele>201.0</ele><time>2026-04-28T08:22:47.672Z</time></trkpt><trkpt lat="38.0154464" lon="12.7394588"><ele>201.33333333333331</ele><time>2026-04-28T08:22:48.673Z</time></trkpt><trkpt lat="38.0154932" lon="12.7396819"><ele>201.66666666666666</ele><time>2026-04-28T08:22:49.673Z</time></trkpt><trkpt lat="38.015538" lon="12.7398721"><ele>202.0</ele><time>2026-04-28T08:22:50.673Z</time></trkpt><trkpt lat="38.0155919" lon="12.7400333"><ele>202.0</ele><time>2026-04-28T08:22:51.674Z</time></trkpt><trkpt lat="38.0156703" lon="12.7401741"><ele>202.0</ele><time>2026-04-28T08:22:52.672Z</time></trkpt><trkpt lat="38.0157834" lon="12.7402802"><ele>202.0</ele><time>2026-04-28T08:22:53.673Z</time></trkpt><trkpt lat="38.0159199" lon="12.7403629"><ele>202.0</ele><time>2026-04-28T08:22:54.674Z</time></trkpt><trkpt lat="38.0160774" lon="12.7404258"><ele>204.33333333333331</ele><time>2026-04-28T08:22:55.674Z</time></trkpt><trkpt lat="38.0162429" lon="12.7404702"><ele>206.66666666666669</ele><time>2026-04-28T08:22:56.672Z</time></trkpt><trkpt lat="38.0164204" lon="12.7405128"><ele>209.0</ele><time>2026-04-28T08:22:57.673Z</time></trkpt><trkpt lat="38.0165908" lon="12.7405582"><ele>208.25</ele><time>2026-04-28T08:22:58.674Z</time></trkpt><trkpt lat="38.0167417" lon="12.7405987"><ele>207.5</ele><time>2026-04-28T08:22:59.672Z</time></trkpt><trkpt lat="38.0168691" lon="12.7406452"><ele>206.75</ele><time>2026-04-28T08:23:00.673Z</time></trkpt><trkpt lat="38.0169695" lon="12.7407006"><ele>206.0</ele><time>2026-04-28T08:23:01.674Z</time></trkpt><trkpt lat="38.0170434" lon="12.7407846"><ele>206.0</ele><time>2026-04-28T08:23:02.673Z</time></trkpt><trkpt lat="38.0171003" lon="12.7409021"><ele>206.0</ele><time>2026-04-28T08:23:03.673Z</time></trkpt><trkpt lat="38.0171417" lon="12.7410595"><ele>206.0</ele><time>2026-04-28T08:23:04.673Z</time></trkpt><trkpt lat="38.0171669" lon="12.7412413"><ele>206.0</ele><time>2026-04-28T08:23:05.674Z</time></trkpt><trkpt lat="38.017163" lon="12.7414419"><ele>206.33333333333334</ele><time>2026-04-28T08:23:06.672Z</time></trkpt><trkpt lat="38.0171388" lon="12.7416626"><ele>206.66666666666669</ele><time>2026-04-28T08:23:07.673Z</time></trkpt><trkpt lat="38.0170978" lon="12.7418785"><ele>207.0</ele><time>2026-04-28T08:23:08.672Z</time></trkpt><trkpt lat="38.0170507" lon="12.7421016"><ele>207.0</ele><time>2026-04-28T08:23:09.672Z</time></trkpt><trkpt lat="38.0169329" lon="12.7425673"><ele>207.0</ele><time>2026-04-28T08:23:11.672Z</time></trkpt><trkpt lat="38.0168728" lon="12.7428079"><ele>206.33333333333331</ele><time>2026-04-28T08:23:12.673Z</time></trkpt><trkpt lat="38.0168094" lon="12.7430455"><ele>205.66666666666666</ele><time>2026-04-28T08:23:13.672Z</time></trkpt><trkpt lat="38.0167492" lon="12.7432813"><ele>205.0</ele><time>2026-04-28T08:23:14.673Z</time></trkpt><trkpt lat="38.0166837" lon="12.7435065"><ele>207.0</ele><time>2026-04-28T08:23:15.672Z</time></trkpt><trkpt lat="38.0166357" lon="12.743718"><ele>209.0</ele><time>2026-04-28T08:23:16.672Z</time></trkpt><trkpt lat="38.016615" lon="12.7439178"><ele>211.0</ele><time>2026-04-28T08:23:17.673Z</time></trkpt><trkpt lat="38.0166221" lon="12.7441131"><ele>210.66666666666666</ele><time>2026-04-28T08:23:18.673Z</time></trkpt><trkpt lat="38.0166642" lon="12.7443091"><ele>210.33333333333331</ele><time>2026-04-28T08:23:19.672Z</time></trkpt><trkpt lat="38.0167251" lon="12.7445279"><ele>210.0</ele><time>2026-04-28T08:23:20.673Z</time></trkpt><trkpt lat="38.0167809" lon="12.7447645"><ele>212.0</ele><time>2026-04-28T08:23:21.673Z</time></trkpt><trkpt lat="38.0168247" lon="12.7450049"><ele>214.0</ele><time>2026-04-28T08:23:22.673Z</time></trkpt><trkpt lat="38.0168572" lon="12.7452438"><ele>216.0</ele><time>2026-04-28T08:23:23.673Z</time></trkpt><trkpt lat="38.0168822" lon="12.7454956"><ele>217.0</ele><time>2026-04-28T08:23:24.673Z</time></trkpt><trkpt lat="38.0169008" lon="12.74575"><ele>218.0</ele><time>2026-04-28T08:23:25.672Z</time></trkpt><trkpt lat="38.0169222" lon="12.7459923"><ele>219.0</ele><time>2026-04-28T08:23:26.673Z</time></trkpt><trkpt lat="38.0169401" lon="12.7462273"><ele>220.33333333333331</ele><time>2026-04-28T08:23:27.672Z</time></trkpt><trkpt lat="38.0169596" lon="12.7464601"><ele>221.66666666666666</ele><time>2026-04-28T08:23:28.673Z</time></trkpt><trkpt lat="38.0169768" lon="12.746691"><ele>223.0</ele><time>2026-04-28T08:23:29.674Z</time></trkpt><trkpt lat="38.0169927" lon="12.7469086"><ele>224.0</ele><time>2026-04-28T08:23:30.673Z</time></trkpt><trkpt lat="38.0170005" lon="12.7471247"><ele>225.0</ele><time>2026-04-28T08:23:31.674Z</time></trkpt><trkpt lat="38.0170166" lon="12.7473397"><ele>226.0</ele><time>2026-04-28T08:23:32.673Z</time></trkpt><trkpt lat="38.0170313" lon="12.7475434"><ele>226.66666666666666</ele><time>2026-04-28T08:23:33.675Z</time></trkpt><trkpt lat="38.0170508" lon="12.7477335"><ele>227.33333333333331</ele><time>2026-04-28T08:23:34.674Z</time></trkpt><trkpt lat="38.0170792" lon="12.7479181"><ele>228.0</ele><time>2026-04-28T08:23:35.673Z</time></trkpt><trkpt lat="38.0171186" lon="12.7481026"><ele>228.0</ele><time>2026-04-28T08:23:36.672Z</time></trkpt><trkpt lat="38.0171811" lon="12.7482775"><ele>228.0</ele><time>2026-04-28T08:23:37.673Z</time></trkpt><trkpt lat="38.0172596" lon="12.7484527"><ele>228.0</ele><time>2026-04-28T08:23:38.672Z</time></trkpt><trkpt lat="38.0173465" lon="12.7486334"><ele>227.66666666666669</ele><time>2026-04-28T08:23:39.673Z</time></trkpt><trkpt lat="38.0174343" lon="12.7488079"><ele>227.33333333333334</ele><time>2026-04-28T08:23:40.672Z</time></trkpt><trkpt lat="38.0175242" lon="12.7489937"><ele>227.0</ele><time>2026-04-28T08:23:41.672Z</time></trkpt><trkpt lat="38.0176173" lon="12.7491807"><ele>225.0</ele><time>2026-04-28T08:23:42.673Z</time></trkpt><trkpt lat="38.017708" lon="12.7493638"><ele>223.0</ele><time>2026-04-28T08:23:43.673Z</time></trkpt><trkpt lat="38.0177953" lon="12.7495515"><ele>221.0</ele><time>2026-04-28T08:23:44.672Z</time></trkpt><trkpt lat="38.0178885" lon="12.7497453"><ele>220.33333333333334</ele><time>2026-04-28T08:23:45.673Z</time></trkpt><trkpt lat="38.0179762" lon="12.7499392"><ele>219.66666666666669</ele><time>2026-04-28T08:23:46.673Z</time></trkpt><trkpt lat="38.0180645" lon="12.7501436"><ele>219.0</ele><time>2026-04-28T08:23:47.674Z</time></trkpt><trkpt lat="38.0181493" lon="12.7503438"><ele>218.66666666666669</ele><time>2026-04-28T08:23:48.673Z</time></trkpt><trkpt lat="38.0182345" lon="12.7505522"><ele>218.33333333333334</ele><time>2026-04-28T08:23:49.674Z</time></trkpt><trkpt lat="38.0183215" lon="12.7507675"><ele>218.0</ele><time>2026-04-28T08:23:50.673Z</time></trkpt><trkpt lat="38.0184052" lon="12.7509774"><ele>216.66666666666669</ele><time>2026-04-28T08:23:51.673Z</time></trkpt><trkpt lat="38.0184895" lon="12.7511897"><ele>215.33333333333331</ele><time>2026-04-28T08:23:52.673Z</time></trkpt><trkpt lat="38.0185768" lon="12.7514048"><ele>214.0</ele><time>2026-04-28T08:23:53.672Z</time></trkpt><trkpt lat="38.0186637" lon="12.7516171"><ele>214.0</ele><time>2026-04-28T08:23:54.673Z</time></trkpt><trkpt lat="38.0187439" lon="12.7518214"><ele>214.0</ele><time>2026-04-28T08:23:55.672Z</time></trkpt><trkpt lat="38.0188198" lon="12.7520172"><ele>214.0</ele><time>2026-04-28T08:23:56.673Z</time></trkpt><trkpt lat="38.0188946" lon="12.752216"><ele>214.66666666666666</ele><time>2026-04-28T08:23:57.674Z</time></trkpt><trkpt lat="38.0189673" lon="12.7524129"><ele>215.33333333333331</ele><time>2026-04-28T08:23:58.673Z</time></trkpt><trkpt lat="38.0190391" lon="12.7526021"><ele>216.0</ele><time>2026-04-28T08:23:59.673Z</time></trkpt><trkpt lat="38.0191039" lon="12.7527897"><ele>216.25</ele><time>2026-04-28T08:24:00.674Z</time></trkpt><trkpt lat="38.0191644" lon="12.7529622"><ele>216.5</ele><time>2026-04-28T08:24:01.673Z</time></trkpt><trkpt lat="38.0192207" lon="12.7531367"><ele>216.75</ele><time>2026-04-28T08:24:02.673Z</time></trkpt><trkpt lat="38.019262" lon="12.7533048"><ele>217.0</ele><time>2026-04-28T08:24:03.673Z</time></trkpt><trkpt lat="38.0192929" lon="12.7534738"><ele>217.6</ele><time>2026-04-28T08:24:04.673Z</time></trkpt><trkpt lat="38.0193123" lon="12.7536306"><ele>218.2</ele><time>2026-04-28T08:24:05.673Z</time></trkpt><trkpt lat="38.0193204" lon="12.7537794"><ele>218.8</ele><time>2026-04-28T08:24:06.674Z</time></trkpt><trkpt lat="38.019319" lon="12.7539164"><ele>219.4</ele><time>2026-04-28T08:24:07.672Z</time></trkpt><trkpt lat="38.0193099" lon="12.7540404"><ele>220.0</ele><time>2026-04-28T08:24:08.673Z</time></trkpt><trkpt lat="38.0192963" lon="12.7541666"><ele>220.0</ele><time>2026-04-28T08:24:09.674Z</time></trkpt><trkpt lat="38.01927" lon="12.7542939"><ele>220.0</ele><time>2026-04-28T08:24:10.674Z</time></trkpt><trkpt lat="38.019241" lon="12.7544352"><ele>220.0</ele><time>2026-04-28T08:24:11.673Z</time></trkpt><trkpt lat="38.0192005" lon="12.7545796"><ele>220.0</ele><time>2026-04-28T08:24:12.674Z</time></trkpt><trkpt lat="38.0191627" lon="12.7547513"><ele>223.0</ele><time>2026-04-28T08:24:13.672Z</time></trkpt><trkpt lat="38.0191193" lon="12.7549317"><ele>226.0</ele><time>2026-04-28T08:24:14.672Z</time></trkpt><trkpt lat="38.0190773" lon="12.7551169"><ele>229.0</ele><time>2026-04-28T08:24:15.672Z</time></trkpt><trkpt lat="38.0190418" lon="12.7553126"><ele>229.66666666666666</ele><time>2026-04-28T08:24:16.673Z</time></trkpt><trkpt lat="38.0190117" lon="12.7555182"><ele>230.33333333333331</ele><time>2026-04-28T08:24:17.672Z</time></trkpt><trkpt lat="38.0189885" lon="12.7557336"><ele>231.0</ele><time>2026-04-28T08:24:18.672Z</time></trkpt><trkpt lat="38.0189679" lon="12.7559565"><ele>231.33333333333331</ele><time>2026-04-28T08:24:19.673Z</time></trkpt><trkpt lat="38.0189606" lon="12.7561888"><ele>231.66666666666666</ele><time>2026-04-28T08:24:20.674Z</time></trkpt><trkpt lat="38.0189643" lon="12.7564254"><ele>232.0</ele><time>2026-04-28T08:24:21.673Z</time></trkpt><trkpt lat="38.0189788" lon="12.7566678"><ele>231.66666666666666</ele><time>2026-04-28T08:24:22.673Z</time></trkpt><trkpt lat="38.0190019" lon="12.7569159"><ele>231.33333333333331</ele><time>2026-04-28T08:24:23.674Z</time></trkpt><trkpt lat="38.0190366" lon="12.7571681"><ele>231.0</ele><time>2026-04-28T08:24:24.672Z</time></trkpt><trkpt lat="38.0190818" lon="12.7574167"><ele>231.0</ele><time>2026-04-28T08:24:25.672Z</time></trkpt><trkpt lat="38.019139" lon="12.7576498"><ele>231.0</ele><time>2026-04-28T08:24:26.673Z</time></trkpt><trkpt lat="38.0191975" lon="12.7578659"><ele>231.0</ele><time>2026-04-28T08:24:27.672Z</time></trkpt><trkpt lat="38.0192489" lon="12.758058"><ele>232.0</ele><time>2026-04-28T08:24:28.672Z</time></trkpt><trkpt lat="38.019317" lon="12.7582442"><ele>233.0</ele><time>2026-04-28T08:24:29.673Z</time></trkpt><trkpt lat="38.0193906" lon="12.7584367"><ele>234.0</ele><time>2026-04-28T08:24:30.674Z</time></trkpt><trkpt lat="38.0194582" lon="12.7586312"><ele>235.66666666666669</ele><time>2026-04-28T08:24:31.672Z</time></trkpt><trkpt lat="38.0195368" lon="12.758836"><ele>237.33333333333334</ele><time>2026-04-28T08:24:32.673Z</time></trkpt><trkpt lat="38.0196148" lon="12.7590447"><ele>239.0</ele><time>2026-04-28T08:24:33.673Z</time></trkpt><trkpt lat="38.0196935" lon="12.7592621"><ele>241.33333333333334</ele><time>2026-04-28T08:24:34.672Z</time></trkpt><trkpt lat="38.0197771" lon="12.7594783"><ele>243.66666666666669</ele><time>2026-04-28T08:24:35.674Z</time></trkpt><trkpt lat="38.0198602" lon="12.7596904"><ele>246.0</ele><time>2026-04-28T08:24:36.672Z</time></trkpt><trkpt lat="38.0199425" lon="12.759906"><ele>246.0</ele><time>2026-04-28T08:24:37.673Z</time></trkpt><trkpt lat="38.0200259" lon="12.7601243"><ele>246.0</ele><time>2026-04-28T08:24:38.672Z</time></trkpt><trkpt lat="38.0201136" lon="12.7603454"><ele>246.0</ele><time>2026-04-28T08:24:39.673Z</time></trkpt><trkpt lat="38.0202032" lon="12.7605763"><ele>246.0</ele><time>2026-04-28T08:24:40.674Z</time></trkpt><trkpt lat="38.0202922" lon="12.760813"><ele>246.0</ele><time>2026-04-28T08:24:41.673Z</time></trkpt><trkpt lat="38.0203877" lon="12.7610605"><ele>246.0</ele><time>2026-04-28T08:24:42.673Z</time></trkpt><trkpt lat="38.0204836" lon="12.7613175"><ele>246.0</ele><time>2026-04-28T08:24:43.673Z</time></trkpt><trkpt lat="38.0205769" lon="12.7615785"><ele>246.0</ele><time>2026-04-28T08:24:44.673Z</time></trkpt><trkpt lat="38.0206683" lon="12.7618336"><ele>246.0</ele><time>2026-04-28T08:24:45.672Z</time></trkpt><trkpt lat="38.0207638" lon="12.7620866"><ele>242.66666666666669</ele><time>2026-04-28T08:24:46.674Z</time></trkpt><trkpt lat="38.0208521" lon="12.7623411"><ele>239.33333333333334</ele><time>2026-04-28T08:24:47.672Z</time></trkpt><trkpt lat="38.0209512" lon="12.7625838"><ele>236.0</ele><time>2026-04-28T08:24:48.673Z</time></trkpt><trkpt lat="38.021047" lon="12.7628241"><ele>236.0</ele><time>2026-04-28T08:24:49.672Z</time></trkpt><trkpt lat="38.0211583" lon="12.7630503"><ele>236.0</ele><time>2026-04-28T08:24:50.673Z</time></trkpt><trkpt lat="38.0212748" lon="12.7632675"><ele>236.0</ele><time>2026-04-28T08:24:51.673Z</time></trkpt><trkpt lat="38.0214078" lon="12.7634802"><ele>235.0</ele><time>2026-04-28T08:24:52.673Z</time></trkpt><trkpt lat="38.0215495" lon="12.7636901"><ele>234.0</ele><time>2026-04-28T08:24:53.674Z</time></trkpt><trkpt lat="38.0217032" lon="12.763903"><ele>233.0</ele><time>2026-04-28T08:24:54.674Z</time></trkpt><trkpt lat="38.021854" lon="12.7641152"><ele>229.0</ele><time>2026-04-28T08:24:55.673Z</time></trkpt><trkpt lat="38.0220102" lon="12.7643202"><ele>225.0</ele><time>2026-04-28T08:24:56.673Z</time></trkpt><trkpt lat="38.0221643" lon="12.7645284"><ele>221.5</ele><time>2026-04-28T08:24:57.673Z</time></trkpt><trkpt lat="38.0223193" lon="12.7647398"><ele>218.0</ele><time>2026-04-28T08:24:58.673Z</time></trkpt><trkpt lat="38.0224782" lon="12.7649495"><ele>216.0</ele><time>2026-04-28T08:24:59.675Z</time></trkpt><trkpt lat="38.0226352" lon="12.7651629"><ele>214.0</ele><time>2026-04-28T08:25:00.672Z</time></trkpt><trkpt lat="38.0227972" lon="12.7653806"><ele>214.0</ele><time>2026-04-28T08:25:01.672Z</time></trkpt><trkpt lat="38.0229591" lon="12.7656019"><ele>214.0</ele><time>2026-04-28T08:25:02.674Z</time></trkpt><trkpt lat="38.0231205" lon="12.7658269"><ele>216.0</ele><time>2026-04-28T08:25:03.674Z</time></trkpt><trkpt lat="38.0232819" lon="12.7660551"><ele>218.0</ele><time>2026-04-28T08:25:04.674Z</time></trkpt><trkpt lat="38.0234491" lon="12.7662903"><ele>218.0</ele><time>2026-04-28T08:25:05.672Z</time></trkpt><trkpt lat="38.0236167" lon="12.7665204"><ele>218.0</ele><time>2026-04-28T08:25:06.672Z</time></trkpt><trkpt lat="38.0237819" lon="12.7667457"><ele>219.0</ele><time>2026-04-28T08:25:07.673Z</time></trkpt><trkpt lat="38.0239391" lon="12.7669708"><ele>220.0</ele><time>2026-04-28T08:25:08.673Z</time></trkpt><trkpt lat="38.0240994" lon="12.7671922"><ele>218.0</ele><time>2026-04-28T08:25:09.673Z</time></trkpt><trkpt lat="38.0242536" lon="12.7674139"><ele>216.0</ele><time>2026-04-28T08:25:10.673Z</time></trkpt><trkpt lat="38.0243966" lon="12.7676484"><ele>216.5</ele><time>2026-04-28T08:25:11.672Z</time></trkpt><trkpt lat="38.0245321" lon="12.7678925"><ele>217.0</ele><time>2026-04-28T08:25:12.674Z</time></trkpt><trkpt lat="38.0246502" lon="12.7681542"><ele>217.0</ele><time>2026-04-28T08:25:13.673Z</time></trkpt><trkpt lat="38.0247432" lon="12.7684288"><ele>217.0</ele><time>2026-04-28T08:25:14.674Z</time></trkpt><trkpt lat="38.024819" lon="12.7687124"><ele>218.5</ele><time>2026-04-28T08:25:15.674Z</time></trkpt><trkpt lat="38.0248839" lon="12.7690019"><ele>220.0</ele><time>2026-04-28T08:25:16.673Z</time></trkpt><trkpt lat="38.0249429" lon="12.7692905"><ele>215.0</ele><time>2026-04-28T08:25:17.673Z</time></trkpt><trkpt lat="38.0250033" lon="12.7695756"><ele>210.0</ele><time>2026-04-28T08:25:18.674Z</time></trkpt><trkpt lat="38.0250726" lon="12.7698507"><ele>210.0</ele><time>2026-04-28T08:25:19.673Z</time></trkpt><trkpt lat="38.0251597" lon="12.7701096"><ele>210.0</ele><time>2026-04-28T08:25:20.672Z</time></trkpt><trkpt lat="38.02526" lon="12.7703556"><ele>210.0</ele><time>2026-04-28T08:25:21.673Z</time></trkpt><trkpt lat="38.025371" lon="12.7705995"><ele>211.0</ele><time>2026-04-28T08:25:22.673Z</time></trkpt><trkpt lat="38.025489" lon="12.7708352"><ele>212.0</ele><time>2026-04-28T08:25:23.674Z</time></trkpt><trkpt lat="38.0256116" lon="12.7710768"><ele>213.0</ele><time>2026-04-28T08:25:24.673Z</time></trkpt><trkpt lat="38.0257348" lon="12.7713262"><ele>211.33333333333331</ele><time>2026-04-28T08:25:25.675Z</time></trkpt><trkpt lat="38.0258467" lon="12.7715566"><ele>209.66666666666666</ele><time>2026-04-28T08:25:26.673Z</time></trkpt><trkpt lat="38.025963" lon="12.7717883"><ele>208.0</ele><time>2026-04-28T08:25:27.673Z</time></trkpt><trkpt lat="38.0260708" lon="12.7720206"><ele>208.0</ele><time>2026-04-28T08:25:28.673Z</time></trkpt><trkpt lat="38.0261619" lon="12.7722626"><ele>208.0</ele><time>2026-04-28T08:25:29.673Z</time></trkpt><trkpt lat="38.0262242" lon="12.7725136"><ele>208.0</ele><time>2026-04-28T08:25:30.674Z</time></trkpt><trkpt lat="38.0262577" lon="12.7727878"><ele>207.0</ele><time>2026-04-28T08:25:31.672Z</time></trkpt><trkpt lat="38.0262693" lon="12.7730703"><ele>206.0</ele><time>2026-04-28T08:25:32.673Z</time></trkpt><trkpt lat="38.0262625" lon="12.7733568"><ele>205.0</ele><time>2026-04-28T08:25:33.673Z</time></trkpt><trkpt lat="38.0262496" lon="12.7736427"><ele>203.33333333333331</ele><time>2026-04-28T08:25:34.673Z</time></trkpt><trkpt lat="38.0262404" lon="12.7739284"><ele>201.66666666666669</ele><time>2026-04-28T08:25:35.672Z</time></trkpt><trkpt lat="38.026229" lon="12.7742116"><ele>200.0</ele><time>2026-04-28T08:25:36.674Z</time></trkpt><trkpt lat="38.0262215" lon="12.7744923"><ele>199.0</ele><time>2026-04-28T08:25:37.674Z</time></trkpt><trkpt lat="38.0262086" lon="12.7747781"><ele>198.0</ele><time>2026-04-28T08:25:38.673Z</time></trkpt><trkpt lat="38.0261946" lon="12.7750645"><ele>198.0</ele><time>2026-04-28T08:25:39.674Z</time></trkpt><trkpt lat="38.0261788" lon="12.7753471"><ele>198.0</ele><time>2026-04-28T08:25:40.674Z</time></trkpt><trkpt lat="38.0261674" lon="12.7756271"><ele>198.0</ele><time>2026-04-28T08:25:41.672Z</time></trkpt><trkpt lat="38.0261565" lon="12.7759106"><ele>195.66666666666666</ele><time>2026-04-28T08:25:42.673Z</time></trkpt><trkpt lat="38.0261456" lon="12.7761886"><ele>193.33333333333331</ele><time>2026-04-28T08:25:43.673Z</time></trkpt><trkpt lat="38.0261297" lon="12.7764559"><ele>191.0</ele><time>2026-04-28T08:25:44.673Z</time></trkpt><trkpt lat="38.0261163" lon="12.7767251"><ele>189.33333333333331</ele><time>2026-04-28T08:25:45.673Z</time></trkpt><trkpt lat="38.0260956" lon="12.7769868"><ele>187.66666666666666</ele><time>2026-04-28T08:25:46.673Z</time></trkpt><trkpt lat="38.0260704" lon="12.777255"><ele>186.0</ele><time>2026-04-28T08:25:47.673Z</time></trkpt><trkpt lat="38.0260353" lon="12.777524"><ele>185.33333333333334</ele><time>2026-04-28T08:25:48.674Z</time></trkpt><trkpt lat="38.0259988" lon="12.7777987"><ele>184.66666666666669</ele><time>2026-04-28T08:25:49.674Z</time></trkpt><trkpt lat="38.02596" lon="12.7780772"><ele>184.0</ele><time>2026-04-28T08:25:50.674Z</time></trkpt><trkpt lat="38.0259152" lon="12.7783596"><ele>182.5</ele><time>2026-04-28T08:25:51.673Z</time></trkpt><trkpt lat="38.0258637" lon="12.7786391"><ele>181.0</ele><time>2026-04-28T08:25:52.674Z</time></trkpt><trkpt lat="38.0258073" lon="12.7789184"><ele>185.0</ele><time>2026-04-28T08:25:53.673Z</time></trkpt><trkpt lat="38.0257514" lon="12.7792028"><ele>189.0</ele><time>2026-04-28T08:25:54.672Z</time></trkpt><trkpt lat="38.0256925" lon="12.7794811"><ele>189.0</ele><time>2026-04-28T08:25:55.674Z</time></trkpt><trkpt lat="38.0256328" lon="12.779758"><ele>189.0</ele><time>2026-04-28T08:25:56.674Z</time></trkpt><trkpt lat="38.0255728" lon="12.7800415"><ele>186.0</ele><time>2026-04-28T08:25:57.672Z</time></trkpt><trkpt lat="38.0255146" lon="12.7803228"><ele>183.0</ele><time>2026-04-28T08:25:58.673Z</time></trkpt><trkpt lat="38.025451" lon="12.7806003"><ele>183.0</ele><time>2026-04-28T08:25:59.673Z</time></trkpt><trkpt lat="38.0253915" lon="12.7808693"><ele>183.0</ele><time>2026-04-28T08:26:00.672Z</time></trkpt><trkpt lat="38.025322" lon="12.7811339"><ele>183.0</ele><time>2026-04-28T08:26:01.674Z</time></trkpt><trkpt lat="38.0252395" lon="12.7813902"><ele>181.33333333333334</ele><time>2026-04-28T08:26:02.675Z</time></trkpt><trkpt lat="38.0251475" lon="12.7816313"><ele>179.66666666666669</ele><time>2026-04-28T08:26:03.673Z</time></trkpt><trkpt lat="38.0250467" lon="12.7818737"><ele>178.0</ele><time>2026-04-28T08:26:04.673Z</time></trkpt><trkpt lat="38.0249295" lon="12.7821075"><ele>176.0</ele><time>2026-04-28T08:26:05.674Z</time></trkpt><trkpt lat="38.0248029" lon="12.7823351"><ele>174.0</ele><time>2026-04-28T08:26:06.673Z</time></trkpt><trkpt lat="38.0246663" lon="12.7825542"><ele>172.0</ele><time>2026-04-28T08:26:07.673Z</time></trkpt><trkpt lat="38.0245142" lon="12.7827658"><ele>172.0</ele><time>2026-04-28T08:26:08.674Z</time></trkpt><trkpt lat="38.0243544" lon="12.7829614"><ele>172.0</ele><time>2026-04-28T08:26:09.673Z</time></trkpt><trkpt lat="38.0241819" lon="12.7831467"><ele>172.0</ele><time>2026-04-28T08:26:10.673Z</time></trkpt><trkpt lat="38.0240129" lon="12.7833296"><ele>176.5</ele><time>2026-04-28T08:26:11.673Z</time></trkpt><trkpt lat="38.0238437" lon="12.7835201"><ele>181.0</ele><time>2026-04-28T08:26:12.674Z</time></trkpt><trkpt lat="38.0236733" lon="12.7837079"><ele>181.0</ele><time>2026-04-28T08:26:13.673Z</time></trkpt><trkpt lat="38.0235078" lon="12.7838985"><ele>181.0</ele><time>2026-04-28T08:26:14.673Z</time></trkpt><trkpt lat="38.0233385" lon="12.7840885"><ele>181.0</ele><time>2026-04-28T08:26:15.673Z</time></trkpt><trkpt lat="38.0231653" lon="12.7842738"><ele>183.66666666666669</ele><time>2026-04-28T08:26:16.674Z</time></trkpt><trkpt lat="38.0229967" lon="12.7844628"><ele>186.33333333333334</ele><time>2026-04-28T08:26:17.673Z</time></trkpt><trkpt lat="38.022833" lon="12.7846494"><ele>189.0</ele><time>2026-04-28T08:26:18.672Z</time></trkpt><trkpt lat="38.0226646" lon="12.784837"><ele>189.0</ele><time>2026-04-28T08:26:19.673Z</time></trkpt><trkpt lat="38.022498" lon="12.7850261"><ele>189.0</ele><time>2026-04-28T08:26:20.673Z</time></trkpt><trkpt lat="38.0223328" lon="12.7852205"><ele>189.0</ele><time>2026-04-28T08:26:21.672Z</time></trkpt><trkpt lat="38.0221666" lon="12.785412"><ele>190.0</ele><time>2026-04-28T08:26:22.674Z</time></trkpt><trkpt lat="38.0220015" lon="12.7856011"><ele>191.0</ele><time>2026-04-28T08:26:23.673Z</time></trkpt><trkpt lat="38.0218417" lon="12.7857938"><ele>192.0</ele><time>2026-04-28T08:26:24.673Z</time></trkpt><trkpt lat="38.0216981" lon="12.7860071"><ele>191.66666666666666</ele><time>2026-04-28T08:26:25.674Z</time></trkpt><trkpt lat="38.0215777" lon="12.7862334"><ele>191.33333333333331</ele><time>2026-04-28T08:26:26.674Z</time></trkpt><trkpt lat="38.021493" lon="12.786478"><ele>191.0</ele><time>2026-04-28T08:26:27.673Z</time></trkpt><trkpt lat="38.0214196" lon="12.7867453"><ele>192.66666666666666</ele><time>2026-04-28T08:26:28.673Z</time></trkpt><trkpt lat="38.021376" lon="12.7870163"><ele>194.33333333333331</ele><time>2026-04-28T08:26:29.673Z</time></trkpt><trkpt lat="38.0213549" lon="12.7872941"><ele>196.0</ele><time>2026-04-28T08:26:30.673Z</time></trkpt><trkpt lat="38.021365" lon="12.7875608"><ele>202.33333333333331</ele><time>2026-04-28T08:26:31.672Z</time></trkpt><trkpt lat="38.0213964" lon="12.7878278"><ele>208.66666666666669</ele><time>2026-04-28T08:26:32.674Z</time></trkpt><trkpt lat="38.0214582" lon="12.7880847"><ele>215.0</ele><time>2026-04-28T08:26:33.673Z</time></trkpt><trkpt lat="38.0215413" lon="12.7883311"><ele>214.33333333333334</ele><time>2026-04-28T08:26:34.673Z</time></trkpt><trkpt lat="38.0216494" lon="12.7885623"><ele>213.66666666666669</ele><time>2026-04-28T08:26:35.673Z</time></trkpt><trkpt lat="38.021789" lon="12.788775"><ele>213.0</ele><time>2026-04-28T08:26:36.673Z</time></trkpt><trkpt lat="38.0219479" lon="12.7889644"><ele>213.0</ele><time>2026-04-28T08:26:37.672Z</time></trkpt><trkpt lat="38.0221179" lon="12.7891278"><ele>213.0</ele><time>2026-04-28T08:26:38.673Z</time></trkpt><trkpt lat="38.0222975" lon="12.7892833"><ele>213.0</ele><time>2026-04-28T08:26:39.673Z</time></trkpt><trkpt lat="38.0224833" lon="12.7894328"><ele>212.66666666666669</ele><time>2026-04-28T08:26:40.674Z</time></trkpt><trkpt lat="38.0226672" lon="12.7895778"><ele>212.33333333333334</ele><time>2026-04-28T08:26:41.673Z</time></trkpt><trkpt lat="38.0228474" lon="12.7897182"><ele>212.0</ele><time>2026-04-28T08:26:42.675Z</time></trkpt><trkpt lat="38.0230158" lon="12.7898562"><ele>212.0</ele><time>2026-04-28T08:26:43.674Z</time></trkpt><trkpt lat="38.0231856" lon="12.7899938"><ele>212.0</ele><time>2026-04-28T08:26:44.674Z</time></trkpt><trkpt lat="38.0233499" lon="12.7901242"><ele>212.0</ele><time>2026-04-28T08:26:45.674Z</time></trkpt><trkpt lat="38.0235171" lon="12.7902618"><ele>213.33333333333334</ele><time>2026-04-28T08:26:46.674Z</time></trkpt><trkpt lat="38.023682" lon="12.7903929"><ele>214.66666666666669</ele><time>2026-04-28T08:26:47.673Z</time></trkpt><trkpt lat="38.0238486" lon="12.7905291"><ele>216.0</ele><time>2026-04-28T08:26:48.673Z</time></trkpt><trkpt lat="38.0240095" lon="12.7906722"><ele>215.0</ele><time>2026-04-28T08:26:49.673Z</time></trkpt><trkpt lat="38.0241607" lon="12.7908183"><ele>214.0</ele><time>2026-04-28T08:26:50.675Z</time></trkpt><trkpt lat="38.0243103" lon="12.7909763"><ele>213.0</ele><time>2026-04-28T08:26:51.672Z</time></trkpt><trkpt lat="38.02444" lon="12.7911446"><ele>213.0</ele><time>2026-04-28T08:26:52.673Z</time></trkpt><trkpt lat="38.0245599" lon="12.7913331"><ele>213.0</ele><time>2026-04-28T08:26:53.673Z</time></trkpt><trkpt lat="38.0246721" lon="12.7915272"><ele>213.0</ele><time>2026-04-28T08:26:54.674Z</time></trkpt><trkpt lat="38.0247735" lon="12.7917359"><ele>216.0</ele><time>2026-04-28T08:26:55.673Z</time></trkpt><trkpt lat="38.0248636" lon="12.7919527"><ele>219.0</ele><time>2026-04-28T08:26:56.673Z</time></trkpt><trkpt lat="38.024935" lon="12.7921759"><ele>222.0</ele><time>2026-04-28T08:26:57.672Z</time></trkpt><trkpt lat="38.0249902" lon="12.7924155"><ele>213.33333333333331</ele><time>2026-04-28T08:26:58.674Z</time></trkpt><trkpt lat="38.0250378" lon="12.7926604"><ele>204.66666666666666</ele><time>2026-04-28T08:26:59.673Z</time></trkpt><trkpt lat="38.0250719" lon="12.7929113"><ele>196.0</ele><time>2026-04-28T08:27:00.673Z</time></trkpt><trkpt lat="38.0251104" lon="12.7931661"><ele>194.0</ele><time>2026-04-28T08:27:01.673Z</time></trkpt><trkpt lat="38.0251451" lon="12.7934197"><ele>192.0</ele><time>2026-04-28T08:27:02.673Z</time></trkpt><trkpt lat="38.025191" lon="12.7936751"><ele>190.0</ele><time>2026-04-28T08:27:03.674Z</time></trkpt><trkpt lat="38.0252359" lon="12.7939204"><ele>189.33333333333334</ele><time>2026-04-28T08:27:04.673Z</time></trkpt><trkpt lat="38.0252865" lon="12.7941579"><ele>188.66666666666666</ele><time>2026-04-28T08:27:05.674Z</time></trkpt><trkpt lat="38.025369" lon="12.7943808"><ele>188.0</ele><time>2026-04-28T08:27:06.673Z</time></trkpt><trkpt lat="38.0254693" lon="12.7945844"><ele>193.66666666666666</ele><time>2026-04-28T08:27:07.674Z</time></trkpt><trkpt lat="38.0255824" lon="12.7947657"><ele>199.33333333333331</ele><time>2026-04-28T08:27:08.674Z</time></trkpt><trkpt lat="38.0256998" lon="12.7949388"><ele>205.0</ele><time>2026-04-28T08:27:09.673Z</time></trkpt><trkpt lat="38.0257954" lon="12.7951224"><ele>198.0</ele><time>2026-04-28T08:27:10.673Z</time></trkpt><trkpt lat="38.0258692" lon="12.7953277"><ele>191.0</ele><time>2026-04-28T08:27:11.673Z</time></trkpt><trkpt lat="38.0259255" lon="12.7955565"><ele>184.0</ele><time>2026-04-28T08:27:12.673Z</time></trkpt><trkpt lat="38.0259626" lon="12.7958033"><ele>186.0</ele><time>2026-04-28T08:27:13.673Z</time></trkpt><trkpt lat="38.0259935" lon="12.7960541"><ele>188.0</ele><time>2026-04-28T08:27:14.674Z</time></trkpt><trkpt lat="38.026028" lon="12.7963115"><ele>190.0</ele><time>2026-04-28T08:27:15.673Z</time></trkpt><trkpt lat="38.0260692" lon="12.7965622"><ele>190.0</ele><time>2026-04-28T08:27:16.674Z</time></trkpt><trkpt lat="38.0261222" lon="12.7968035"><ele>190.0</ele><time>2026-04-28T08:27:17.673Z</time></trkpt><trkpt lat="38.0261906" lon="12.7970345"><ele>190.0</ele><time>2026-04-28T08:27:18.674Z</time></trkpt><trkpt lat="38.0262579" lon="12.7972499"><ele>193.66666666666669</ele><time>2026-04-28T08:27:19.673Z</time></trkpt><trkpt lat="38.0263175" lon="12.7974388"><ele>197.33333333333334</ele><time>2026-04-28T08:27:20.672Z</time></trkpt><trkpt lat="38.0263656" lon="12.7976286"><ele>201.0</ele><time>2026-04-28T08:27:21.673Z</time></trkpt><trkpt lat="38.0263868" lon="12.797827"><ele>201.33333333333331</ele><time>2026-04-28T08:27:22.674Z</time></trkpt><trkpt lat="38.026385" lon="12.7980465"><ele>201.66666666666666</ele><time>2026-04-28T08:27:23.672Z</time></trkpt><trkpt lat="38.0263687" lon="12.7982801"><ele>202.0</ele><time>2026-04-28T08:27:24.674Z</time></trkpt><trkpt lat="38.0263547" lon="12.7985245"><ele>201.33333333333331</ele><time>2026-04-28T08:27:25.674Z</time></trkpt><trkpt lat="38.0263517" lon="12.7987655"><ele>200.66666666666669</ele><time>2026-04-28T08:27:26.672Z</time></trkpt><trkpt lat="38.0263662" lon="12.7990151"><ele>200.0</ele><time>2026-04-28T08:27:27.673Z</time></trkpt><trkpt lat="38.0263985" lon="12.799256"><ele>202.0</ele><time>2026-04-28T08:27:28.673Z</time></trkpt><trkpt lat="38.0264412" lon="12.7994925"><ele>204.0</ele><time>2026-04-28T08:27:29.674Z</time></trkpt><trkpt lat="38.0264981" lon="12.7997245"><ele>206.0</ele><time>2026-04-28T08:27:30.674Z</time></trkpt><trkpt lat="38.0265722" lon="12.7999545"><ele>191.0</ele><time>2026-04-28T08:27:31.673Z</time></trkpt><trkpt lat="38.0266482" lon="12.8001757"><ele>176.0</ele><time>2026-04-28T08:27:32.674Z</time></trkpt><trkpt lat="38.0267251" lon="12.8003879"><ele>161.0</ele><time>2026-04-28T08:27:33.673Z</time></trkpt><trkpt lat="38.0267967" lon="12.8005875"><ele>161.0</ele><time>2026-04-28T08:27:34.674Z</time></trkpt><trkpt lat="38.026869" lon="12.8007726"><ele>161.0</ele><time>2026-04-28T08:27:35.674Z</time></trkpt><trkpt lat="38.0269465" lon="12.800928"><ele>161.0</ele><time>2026-04-28T08:27:36.673Z</time></trkpt><trkpt lat="38.0270353" lon="12.8010745"><ele>165.0</ele><time>2026-04-28T08:27:37.674Z</time></trkpt><trkpt lat="38.027152" lon="12.8011959"><ele>169.0</ele><time>2026-04-28T08:27:38.673Z</time></trkpt><trkpt lat="38.0272876" lon="12.8012873"><ele>173.0</ele><time>2026-04-28T08:27:39.674Z</time></trkpt><trkpt lat="38.0274423" lon="12.8013549"><ele>167.0</ele><time>2026-04-28T08:27:40.674Z</time></trkpt><trkpt lat="38.0276016" lon="12.8014106"><ele>161.0</ele><time>2026-04-28T08:27:41.673Z</time></trkpt><trkpt lat="38.0277665" lon="12.8014677"><ele>155.0</ele><time>2026-04-28T08:27:42.673Z</time></trkpt><trkpt lat="38.0279198" lon="12.8015364"><ele>155.0</ele><time>2026-04-28T08:27:43.674Z</time></trkpt><trkpt lat="38.0280767" lon="12.8016232"><ele>155.0</ele><time>2026-04-28T08:27:44.673Z</time></trkpt><trkpt lat="38.0282148" lon="12.8017296"><ele>155.0</ele><time>2026-04-28T08:27:45.673Z</time></trkpt><trkpt lat="38.0283582" lon="12.801858"><ele>154.33333333333331</ele><time>2026-04-28T08:27:46.673Z</time></trkpt><trkpt lat="38.0284915" lon="12.8020066"><ele>153.66666666666666</ele><time>2026-04-28T08:27:47.673Z</time></trkpt><trkpt lat="38.0286079" lon="12.8021704"><ele>153.0</ele><time>2026-04-28T08:27:48.673Z</time></trkpt><trkpt lat="38.0287087" lon="12.8023491"><ele>153.0</ele><time>2026-04-28T08:27:49.674Z</time></trkpt><trkpt lat="38.0287941" lon="12.802547"><ele>153.0</ele><time>2026-04-28T08:27:50.673Z</time></trkpt><trkpt lat="38.028867" lon="12.802755"><ele>153.0</ele><time>2026-04-28T08:27:51.675Z</time></trkpt><trkpt lat="38.0289457" lon="12.8029611"><ele>157.66666666666666</ele><time>2026-04-28T08:27:52.674Z</time></trkpt><trkpt lat="38.0290354" lon="12.8031517"><ele>162.33333333333331</ele><time>2026-04-28T08:27:53.675Z</time></trkpt><trkpt lat="38.029148" lon="12.8033489"><ele>167.0</ele><time>2026-04-28T08:27:54.674Z</time></trkpt><trkpt lat="38.0292531" lon="12.8035093"><ele>159.75</ele><time>2026-04-28T08:27:55.673Z</time></trkpt><trkpt lat="38.0293453" lon="12.8036671"><ele>152.5</ele><time>2026-04-28T08:27:56.674Z</time></trkpt><trkpt lat="38.0294139" lon="12.8038199"><ele>145.25</ele><time>2026-04-28T08:27:57.675Z</time></trkpt><trkpt lat="38.0294642" lon="12.8039817"><ele>138.0</ele><time>2026-04-28T08:27:58.675Z</time></trkpt><trkpt lat="38.0294863" lon="12.8041629"><ele>142.0</ele><time>2026-04-28T08:27:59.674Z</time></trkpt><trkpt lat="38.0294914" lon="12.8043664"><ele>146.0</ele><time>2026-04-28T08:28:00.674Z</time></trkpt><trkpt lat="38.0294955" lon="12.8045899"><ele>150.0</ele><time>2026-04-28T08:28:01.673Z</time></trkpt><trkpt lat="38.029518" lon="12.8048274"><ele>150.0</ele><time>2026-04-28T08:28:02.673Z</time></trkpt><trkpt lat="38.0295806" lon="12.8050614"><ele>150.0</ele><time>2026-04-28T08:28:03.673Z</time></trkpt><trkpt lat="38.0296708" lon="12.8052806"><ele>150.0</ele><time>2026-04-28T08:28:04.674Z</time></trkpt><trkpt lat="38.0297825" lon="12.8054852"><ele>145.66666666666666</ele><time>2026-04-28T08:28:05.673Z</time></trkpt><trkpt lat="38.0299019" lon="12.8056847"><ele>141.33333333333331</ele><time>2026-04-28T08:28:06.674Z</time></trkpt><trkpt lat="38.0300246" lon="12.8058764"><ele>137.0</ele><time>2026-04-28T08:28:07.673Z</time></trkpt><trkpt lat="38.0301412" lon="12.8060632"><ele>137.0</ele><time>2026-04-28T08:28:08.673Z</time></trkpt><trkpt lat="38.0302561" lon="12.8062546"><ele>137.0</ele><time>2026-04-28T08:28:09.673Z</time></trkpt><trkpt lat="38.0303608" lon="12.8064469"><ele>137.0</ele><time>2026-04-28T08:28:10.674Z</time></trkpt><trkpt lat="38.0304494" lon="12.8066541"><ele>142.66666666666666</ele><time>2026-04-28T08:28:11.673Z</time></trkpt><trkpt lat="38.030521" lon="12.8068779"><ele>148.33333333333334</ele><time>2026-04-28T08:28:12.673Z</time></trkpt><trkpt lat="38.0305782" lon="12.8071033"><ele>154.0</ele><time>2026-04-28T08:28:13.674Z</time></trkpt><trkpt lat="38.0306213" lon="12.8073346"><ele>154.0</ele><time>2026-04-28T08:28:14.673Z</time></trkpt><trkpt lat="38.0306618" lon="12.8075614"><ele>154.0</ele><time>2026-04-28T08:28:15.673Z</time></trkpt><trkpt lat="38.0307143" lon="12.807771"><ele>154.0</ele><time>2026-04-28T08:28:16.674Z</time></trkpt><trkpt lat="38.0307916" lon="12.807958"><ele>142.66666666666669</ele><time>2026-04-28T08:28:17.674Z</time></trkpt><trkpt lat="38.0308975" lon="12.8081283"><ele>131.33333333333334</ele><time>2026-04-28T08:28:18.673Z</time></trkpt><trkpt lat="38.0310273" lon="12.8082855"><ele>120.0</ele><time>2026-04-28T08:28:19.673Z</time></trkpt><trkpt lat="38.0311734" lon="12.8084161"><ele>123.75</ele><time>2026-04-28T08:28:20.674Z</time></trkpt><trkpt lat="38.0313098" lon="12.8085309"><ele>127.5</ele><time>2026-04-28T08:28:21.674Z</time></trkpt><trkpt lat="38.0314314" lon="12.8086421"><ele>131.25</ele><time>2026-04-28T08:28:22.673Z</time></trkpt><trkpt lat="38.0315289" lon="12.8087393"><ele>135.0</ele><time>2026-04-28T08:28:23.674Z</time></trkpt><trkpt lat="38.0316102" lon="12.8088443"><ele>130.0</ele><time>2026-04-28T08:28:24.674Z</time></trkpt><trkpt lat="38.0316616" lon="12.8089742"><ele>125.0</ele><time>2026-04-28T08:28:25.674Z</time></trkpt><trkpt lat="38.0316751" lon="12.8091348"><ele>120.0</ele><time>2026-04-28T08:28:26.673Z</time></trkpt><trkpt lat="38.0316535" lon="12.8093023"><ele>115.0</ele><time>2026-04-28T08:28:27.674Z</time></trkpt><trkpt lat="38.0315977" lon="12.8094397"><ele>115.0</ele><time>2026-04-28T08:28:28.674Z</time></trkpt><trkpt lat="38.031512" lon="12.8095483"><ele>115.0</ele><time>2026-04-28T08:28:29.673Z</time></trkpt><trkpt lat="38.0313941" lon="12.8096327"><ele>115.0</ele><time>2026-04-28T08:28:30.673Z</time></trkpt><trkpt lat="38.0312632" lon="12.8097094"><ele>115.0</ele><time>2026-04-28T08:28:31.673Z</time></trkpt><trkpt lat="38.0311351" lon="12.8098182"><ele>115.0</ele><time>2026-04-28T08:28:32.674Z</time></trkpt><trkpt lat="38.0310277" lon="12.8099505"><ele>115.0</ele><time>2026-04-28T08:28:33.675Z</time></trkpt><trkpt lat="38.0309388" lon="12.8101054"><ele>115.0</ele><time>2026-04-28T08:28:34.673Z</time></trkpt><trkpt lat="38.0308533" lon="12.8102659"><ele>132.0</ele><time>2026-04-28T08:28:35.673Z</time></trkpt><trkpt lat="38.030773" lon="12.8104404"><ele>149.0</ele><time>2026-04-28T08:28:36.675Z</time></trkpt><trkpt lat="38.0307127" lon="12.8106267"><ele>166.0</ele><time>2026-04-28T08:28:37.674Z</time></trkpt><trkpt lat="38.0306757" lon="12.8108106"><ele>166.33333333333334</ele><time>2026-04-28T08:28:38.674Z</time></trkpt><trkpt lat="38.0306504" lon="12.8110258"><ele>166.66666666666666</ele><time>2026-04-28T08:28:39.674Z</time></trkpt><trkpt lat="38.030647" lon="12.811227"><ele>167.0</ele><time>2026-04-28T08:28:40.673Z</time></trkpt><trkpt lat="38.0306509" lon="12.8114164"><ele>132.5</ele><time>2026-04-28T08:28:41.674Z</time></trkpt><trkpt lat="38.0309769" lon="12.8116567"><ele>98.0</ele><time>2026-04-28T08:28:42.673Z</time></trkpt><trkpt lat="38.0310225" lon="12.8119003"><ele>98.0</ele><time>2026-04-28T08:28:43.674Z</time></trkpt><trkpt lat="38.0310577" lon="12.8121458"><ele>98.0</ele><time>2026-04-28T08:28:44.673Z</time></trkpt><trkpt lat="38.031076" lon="12.8123835"><ele>98.0</ele><time>2026-04-28T08:28:45.673Z</time></trkpt><trkpt lat="38.0310828" lon="12.8126091"><ele>97.0</ele><time>2026-04-28T08:28:46.674Z</time></trkpt><trkpt lat="38.0310717" lon="12.812832"><ele>96.0</ele><time>2026-04-28T08:28:47.674Z</time></trkpt><trkpt lat="38.0310418" lon="12.8130508"><ele>95.0</ele><time>2026-04-28T08:28:48.674Z</time></trkpt><trkpt lat="38.0310092" lon="12.8132745"><ele>95.0</ele><time>2026-04-28T08:28:49.674Z</time></trkpt><trkpt lat="38.0309729" lon="12.8134825"><ele>95.0</ele><time>2026-04-28T08:28:50.673Z</time></trkpt><trkpt lat="38.030937" lon="12.8136956"><ele>95.0</ele><time>2026-04-28T08:28:51.673Z</time></trkpt><trkpt lat="38.0309148" lon="12.8139597"><ele>95.0</ele><time>2026-04-28T08:28:52.673Z</time></trkpt><trkpt lat="38.0308862" lon="12.8141874"><ele>95.0</ele><time>2026-04-28T08:28:53.674Z</time></trkpt><trkpt lat="38.0308633" lon="12.8143844"><ele>95.0</ele><time>2026-04-28T08:28:54.676Z</time></trkpt><trkpt lat="38.030973" lon="12.8146097"><ele>97.33333333333334</ele><time>2026-04-28T08:28:55.675Z</time></trkpt><trkpt lat="38.0310798" lon="12.8148404"><ele>99.66666666666667</ele><time>2026-04-28T08:28:56.674Z</time></trkpt><trkpt lat="38.0311734" lon="12.8150677"><ele>102.0</ele><time>2026-04-28T08:28:57.674Z</time></trkpt><trkpt lat="38.0313853" lon="12.8152524"><ele>109.66666666666666</ele><time>2026-04-28T08:28:58.673Z</time></trkpt><trkpt lat="38.0315486" lon="12.815424"><ele>117.33333333333333</ele><time>2026-04-28T08:28:59.673Z</time></trkpt><trkpt lat="38.0317359" lon="12.815588"><ele>125.0</ele><time>2026-04-28T08:29:00.674Z</time></trkpt><trkpt lat="38.031898" lon="12.8157312"><ele>116.33333333333333</ele><time>2026-04-28T08:29:01.674Z</time></trkpt><trkpt lat="38.0320338" lon="12.8158572"><ele>107.66666666666666</ele><time>2026-04-28T08:29:02.673Z</time></trkpt><trkpt lat="38.0321478" lon="12.8159831"><ele>99.0</ele><time>2026-04-28T08:29:03.673Z</time></trkpt><trkpt lat="38.032238" lon="12.8161432"><ele>99.0</ele><time>2026-04-28T08:29:04.674Z</time></trkpt><trkpt lat="38.032312" lon="12.8165384"><ele>99.0</ele><time>2026-04-28T08:29:06.675Z</time></trkpt><trkpt lat="38.0322898" lon="12.816789"><ele>93.0</ele><time>2026-04-28T08:29:07.675Z</time></trkpt><trkpt lat="38.0322695" lon="12.8170329"><ele>87.0</ele><time>2026-04-28T08:29:08.674Z</time></trkpt><trkpt lat="38.0321721" lon="12.8173531"><ele>87.0</ele><time>2026-04-28T08:29:09.675Z</time></trkpt><trkpt lat="38.032114" lon="12.8176258"><ele>87.0</ele><time>2026-04-28T08:29:10.673Z</time></trkpt><trkpt lat="38.0320725" lon="12.8178988"><ele>87.0</ele><time>2026-04-28T08:29:11.674Z</time></trkpt><trkpt lat="38.0320453" lon="12.8181523"><ele>81.33333333333333</ele><time>2026-04-28T08:29:12.674Z</time></trkpt><trkpt lat="38.032024" lon="12.8183922"><ele>75.66666666666666</ele><time>2026-04-28T08:29:13.674Z</time></trkpt><trkpt lat="38.0320023" lon="12.8186303"><ele>70.0</ele><time>2026-04-28T08:29:14.674Z</time></trkpt><trkpt lat="38.0319324" lon="12.819092"><ele>68.0</ele><time>2026-04-28T08:29:16.673Z</time></trkpt><trkpt lat="38.0318789" lon="12.8193234"><ele>66.0</ele><time>2026-04-28T08:29:17.673Z</time></trkpt><trkpt lat="38.0318295" lon="12.8195597"><ele>64.0</ele><time>2026-04-28T08:29:18.673Z</time></trkpt><trkpt lat="38.031782" lon="12.8197937"><ele>64.0</ele><time>2026-04-28T08:29:19.673Z</time></trkpt><trkpt lat="38.0317311" lon="12.8200187"><ele>64.0</ele><time>2026-04-28T08:29:20.674Z</time></trkpt><trkpt lat="38.031669" lon="12.8202429"><ele>64.0</ele><time>2026-04-28T08:29:21.674Z</time></trkpt><trkpt lat="38.031587" lon="12.8204628"><ele>66.66666666666666</ele><time>2026-04-28T08:29:22.674Z</time></trkpt><trkpt lat="38.0315015" lon="12.8206818"><ele>69.33333333333333</ele><time>2026-04-28T08:29:23.673Z</time></trkpt><trkpt lat="38.0313837" lon="12.8208928"><ele>72.0</ele><time>2026-04-28T08:29:24.675Z</time></trkpt><trkpt lat="38.0312742" lon="12.8211217"><ele>67.5</ele><time>2026-04-28T08:29:25.673Z</time></trkpt><trkpt lat="38.0311875" lon="12.8213711"><ele>63.0</ele><time>2026-04-28T08:29:26.674Z</time></trkpt><trkpt lat="38.0311272" lon="12.821905"><ele>63.0</ele><time>2026-04-28T08:29:28.674Z</time></trkpt><trkpt lat="38.0311609" lon="12.8221636"><ele>63.0</ele><time>2026-04-28T08:29:29.674Z</time></trkpt><trkpt lat="38.0312296" lon="12.8223865"><ele>63.0</ele><time>2026-04-28T08:29:30.673Z</time></trkpt><trkpt lat="38.0313282" lon="12.8225641"><ele>63.66666666666667</ele><time>2026-04-28T08:29:31.673Z</time></trkpt><trkpt lat="38.0314469" lon="12.8227066"><ele>64.33333333333334</ele><time>2026-04-28T08:29:32.674Z</time></trkpt><trkpt lat="38.0315822" lon="12.8228109"><ele>65.0</ele><time>2026-04-28T08:29:33.673Z</time></trkpt><trkpt lat="38.0317386" lon="12.8228747"><ele>65.0</ele><time>2026-04-28T08:29:34.673Z</time></trkpt><trkpt lat="38.0318872" lon="12.8229254"><ele>65.0</ele><time>2026-04-28T08:29:35.673Z</time></trkpt><trkpt lat="38.0320266" lon="12.8229773"><ele>65.0</ele><time>2026-04-28T08:29:36.674Z</time></trkpt><trkpt lat="38.0321651" lon="12.8230319"><ele>65.0</ele><time>2026-04-28T08:29:37.673Z</time></trkpt><trkpt lat="38.0323053" lon="12.8230875"><ele>65.0</ele><time>2026-04-28T08:29:38.673Z</time></trkpt><trkpt lat="38.0324408" lon="12.8231388"><ele>65.0</ele><time>2026-04-28T08:29:39.674Z</time></trkpt><trkpt lat="38.0327153" lon="12.8232591"><ele>65.0</ele><time>2026-04-28T08:29:41.673Z</time></trkpt><trkpt lat="38.0328564" lon="12.8233269"><ele>63.66666666666667</ele><time>2026-04-28T08:29:42.673Z</time></trkpt><trkpt lat="38.0330061" lon="12.8234122"><ele>62.33333333333333</ele><time>2026-04-28T08:29:43.674Z</time></trkpt><trkpt lat="38.0331564" lon="12.8235044"><ele>61.0</ele><time>2026-04-28T08:29:44.673Z</time></trkpt><trkpt lat="38.0333045" lon="12.8235973"><ele>61.666666666666664</ele><time>2026-04-28T08:29:45.674Z</time></trkpt><trkpt lat="38.0334492" lon="12.823711"><ele>62.33333333333333</ele><time>2026-04-28T08:29:46.675Z</time></trkpt><trkpt lat="38.0335946" lon="12.823827"><ele>63.0</ele><time>2026-04-28T08:29:47.674Z</time></trkpt><trkpt lat="38.0337387" lon="12.8239514"><ele>63.0</ele><time>2026-04-28T08:29:48.673Z</time></trkpt><trkpt lat="38.0338781" lon="12.8240843"><ele>63.0</ele><time>2026-04-28T08:29:49.675Z</time></trkpt><trkpt lat="38.0340195" lon="12.824216"><ele>63.0</ele><time>2026-04-28T08:29:50.674Z</time></trkpt><trkpt lat="38.0341601" lon="12.8243539"><ele>63.33333333333333</ele><time>2026-04-28T08:29:51.673Z</time></trkpt><trkpt lat="38.0342944" lon="12.8244993"><ele>63.666666666666664</ele><time>2026-04-28T08:29:52.673Z</time></trkpt><trkpt lat="38.0344299" lon="12.8246457"><ele>64.0</ele><time>2026-04-28T08:29:53.674Z</time></trkpt><trkpt lat="38.0345687" lon="12.8247906"><ele>64.0</ele><time>2026-04-28T08:29:54.673Z</time></trkpt><trkpt lat="38.0347076" lon="12.8249322"><ele>64.0</ele><time>2026-04-28T08:29:55.674Z</time></trkpt><trkpt lat="38.0348427" lon="12.8250738"><ele>64.0</ele><time>2026-04-28T08:29:56.674Z</time></trkpt><trkpt lat="38.0349814" lon="12.8252133"><ele>63.666666666666664</ele><time>2026-04-28T08:29:57.674Z</time></trkpt><trkpt lat="38.035114" lon="12.8253504"><ele>63.33333333333333</ele><time>2026-04-28T08:29:58.673Z</time></trkpt><trkpt lat="38.0352452" lon="12.8254898"><ele>63.0</ele><time>2026-04-28T08:29:59.673Z</time></trkpt><trkpt lat="38.0353753" lon="12.8256341"><ele>63.0</ele><time>2026-04-28T08:30:00.673Z</time></trkpt><trkpt lat="38.0355067" lon="12.8257795"><ele>63.0</ele><time>2026-04-28T08:30:01.673Z</time></trkpt><trkpt lat="38.0357592" lon="12.8260934"><ele>62.0</ele><time>2026-04-28T08:30:03.674Z</time></trkpt><trkpt lat="38.0358805" lon="12.8262608"><ele>61.0</ele><time>2026-04-28T08:30:04.675Z</time></trkpt><trkpt lat="38.0359986" lon="12.8264313"><ele>60.0</ele><time>2026-04-28T08:30:05.674Z</time></trkpt><trkpt lat="38.0361149" lon="12.8265992"><ele>60.0</ele><time>2026-04-28T08:30:06.675Z</time></trkpt><trkpt lat="38.036228" lon="12.8267694"><ele>60.0</ele><time>2026-04-28T08:30:07.675Z</time></trkpt><trkpt lat="38.036344" lon="12.8269422"><ele>60.0</ele><time>2026-04-28T08:30:08.674Z</time></trkpt><trkpt lat="38.0364523" lon="12.8271211"><ele>59.33333333333333</ele><time>2026-04-28T08:30:09.673Z</time></trkpt><trkpt lat="38.0365691" lon="12.8272957"><ele>58.666666666666664</ele><time>2026-04-28T08:30:10.674Z</time></trkpt><trkpt lat="38.0366862" lon="12.8274719"><ele>58.0</ele><time>2026-04-28T08:30:11.673Z</time></trkpt><trkpt lat="38.0368028" lon="12.8276558"><ele>62.0</ele><time>2026-04-28T08:30:12.673Z</time></trkpt><trkpt lat="38.0369221" lon="12.8278308"><ele>66.0</ele><time>2026-04-28T08:30:13.674Z</time></trkpt><trkpt lat="38.0370385" lon="12.8280067"><ele>70.0</ele><time>2026-04-28T08:30:14.673Z</time></trkpt><trkpt lat="38.0371547" lon="12.8281818"><ele>70.0</ele><time>2026-04-28T08:30:15.674Z</time></trkpt><trkpt lat="38.0372664" lon="12.8283566"><ele>70.0</ele><time>2026-04-28T08:30:16.673Z</time></trkpt><trkpt lat="38.0373809" lon="12.8285342"><ele>70.0</ele><time>2026-04-28T08:30:17.675Z</time></trkpt><trkpt lat="38.0374952" lon="12.8287073"><ele>70.33333333333333</ele><time>2026-04-28T08:30:18.673Z</time></trkpt><trkpt lat="38.037611" lon="12.8288834"><ele>70.66666666666667</ele><time>2026-04-28T08:30:19.674Z</time></trkpt><trkpt lat="38.0377189" lon="12.8290648"><ele>71.0</ele><time>2026-04-28T08:30:20.673Z</time></trkpt><trkpt lat="38.0378206" lon="12.8292467"><ele>73.0</ele><time>2026-04-28T08:30:21.673Z</time></trkpt><trkpt lat="38.0379231" lon="12.8294364"><ele>75.0</ele><time>2026-04-28T08:30:22.674Z</time></trkpt><trkpt lat="38.0380204" lon="12.8296305"><ele>77.0</ele><time>2026-04-28T08:30:23.674Z</time></trkpt><trkpt lat="38.0381033" lon="12.8298338"><ele>77.0</ele><time>2026-04-28T08:30:24.673Z</time></trkpt><trkpt lat="38.0381928" lon="12.8300345"><ele>77.0</ele><time>2026-04-28T08:30:25.675Z</time></trkpt><trkpt lat="38.0382802" lon="12.8302349"><ele>77.0</ele><time>2026-04-28T08:30:26.673Z</time></trkpt><trkpt lat="38.0383664" lon="12.830444"><ele>75.66666666666667</ele><time>2026-04-28T08:30:27.674Z</time></trkpt><trkpt lat="38.0384437" lon="12.8306537"><ele>74.33333333333333</ele><time>2026-04-28T08:30:28.674Z</time></trkpt><trkpt lat="38.0385192" lon="12.8308574"><ele>73.0</ele><time>2026-04-28T08:30:29.673Z</time></trkpt><trkpt lat="38.0385882" lon="12.8310636"><ele>72.66666666666666</ele><time>2026-04-28T08:30:30.674Z</time></trkpt><trkpt lat="38.0386527" lon="12.8312786"><ele>72.33333333333333</ele><time>2026-04-28T08:30:31.674Z</time></trkpt><trkpt lat="38.0387151" lon="12.8314924"><ele>72.0</ele><time>2026-04-28T08:30:32.673Z</time></trkpt><trkpt lat="38.0387814" lon="12.831715"><ele>73.33333333333333</ele><time>2026-04-28T08:30:33.675Z</time></trkpt><trkpt lat="38.0388439" lon="12.831941"><ele>74.66666666666666</ele><time>2026-04-28T08:30:34.674Z</time></trkpt><trkpt lat="38.0389035" lon="12.832165"><ele>76.0</ele><time>2026-04-28T08:30:35.673Z</time></trkpt><trkpt lat="38.0389676" lon="12.8323986"><ele>76.0</ele><time>2026-04-28T08:30:36.673Z</time></trkpt><trkpt lat="38.039034" lon="12.8326295"><ele>76.0</ele><time>2026-04-28T08:30:37.674Z</time></trkpt><trkpt lat="38.0391136" lon="12.8328468"><ele>76.0</ele><time>2026-04-28T08:30:38.674Z</time></trkpt><trkpt lat="38.0391997" lon="12.8330578"><ele>77.0</ele><time>2026-04-28T08:30:39.674Z</time></trkpt><trkpt lat="38.0392944" lon="12.8332671"><ele>78.0</ele><time>2026-04-28T08:30:40.674Z</time></trkpt><trkpt lat="38.0394022" lon="12.8334673"><ele>79.0</ele><time>2026-04-28T08:30:41.674Z</time></trkpt><trkpt lat="38.039514" lon="12.8336566"><ele>79.0</ele><time>2026-04-28T08:30:42.673Z</time></trkpt><trkpt lat="38.0396341" lon="12.833846"><ele>79.0</ele><time>2026-04-28T08:30:43.673Z</time></trkpt><trkpt lat="38.0397547" lon="12.8340302"><ele>79.0</ele><time>2026-04-28T08:30:44.675Z</time></trkpt><trkpt lat="38.0398719" lon="12.8342113"><ele>79.66666666666666</ele><time>2026-04-28T08:30:45.673Z</time></trkpt><trkpt lat="38.0399854" lon="12.834395"><ele>80.33333333333333</ele><time>2026-04-28T08:30:46.675Z</time></trkpt><trkpt lat="38.0400987" lon="12.834591"><ele>81.0</ele><time>2026-04-28T08:30:47.675Z</time></trkpt><trkpt lat="38.040202" lon="12.8347901"><ele>81.0</ele><time>2026-04-28T08:30:48.674Z</time></trkpt><trkpt lat="38.0403058" lon="12.8349957"><ele>81.0</ele><time>2026-04-28T08:30:49.674Z</time></trkpt><trkpt lat="38.0404005" lon="12.8352045"><ele>81.0</ele><time>2026-04-28T08:30:50.675Z</time></trkpt><trkpt lat="38.0404844" lon="12.8354064"><ele>82.0</ele><time>2026-04-28T08:30:51.673Z</time></trkpt><trkpt lat="38.0405686" lon="12.8356128"><ele>83.0</ele><time>2026-04-28T08:30:52.673Z</time></trkpt><trkpt lat="38.0406498" lon="12.8358208"><ele>84.0</ele><time>2026-04-28T08:30:53.674Z</time></trkpt><trkpt lat="38.040734" lon="12.8360235"><ele>80.66666666666667</ele><time>2026-04-28T08:30:54.674Z</time></trkpt><trkpt lat="38.040818" lon="12.8362408"><ele>77.33333333333334</ele><time>2026-04-28T08:30:55.674Z</time></trkpt><trkpt lat="38.0409049" lon="12.8364467"><ele>74.0</ele><time>2026-04-28T08:30:56.673Z</time></trkpt><trkpt lat="38.0409928" lon="12.8366575"><ele>73.33333333333334</ele><time>2026-04-28T08:30:57.673Z</time></trkpt><trkpt lat="38.0410837" lon="12.8368632"><ele>72.66666666666667</ele><time>2026-04-28T08:30:58.673Z</time></trkpt><trkpt lat="38.0411656" lon="12.8370595"><ele>72.0</ele><time>2026-04-28T08:30:59.675Z</time></trkpt><trkpt lat="38.0412473" lon="12.8372575"><ele>72.0</ele><time>2026-04-28T08:31:00.674Z</time></trkpt><trkpt lat="38.0413333" lon="12.8374581"><ele>72.0</ele><time>2026-04-28T08:31:01.674Z</time></trkpt><trkpt lat="38.0414161" lon="12.8376571"><ele>72.0</ele><time>2026-04-28T08:31:02.674Z</time></trkpt><trkpt lat="38.0415034" lon="12.8378597"><ele>71.0</ele><time>2026-04-28T08:31:03.674Z</time></trkpt><trkpt lat="38.0415909" lon="12.8380592"><ele>70.0</ele><time>2026-04-28T08:31:04.674Z</time></trkpt><trkpt lat="38.0416755" lon="12.8382595"><ele>69.0</ele><time>2026-04-28T08:31:05.673Z</time></trkpt><trkpt lat="38.0417606" lon="12.8384634"><ele>70.66666666666667</ele><time>2026-04-28T08:31:06.673Z</time></trkpt><trkpt lat="38.0418471" lon="12.8386659"><ele>72.33333333333334</ele><time>2026-04-28T08:31:07.674Z</time></trkpt><trkpt lat="38.0419329" lon="12.8388703"><ele>74.0</ele><time>2026-04-28T08:31:08.673Z</time></trkpt><trkpt lat="38.0420216" lon="12.8390713"><ele>74.0</ele><time>2026-04-28T08:31:09.673Z</time></trkpt><trkpt lat="38.0421072" lon="12.8392737"><ele>74.0</ele><time>2026-04-28T08:31:10.673Z</time></trkpt><trkpt lat="38.0421961" lon="12.8394768"><ele>74.0</ele><time>2026-04-28T08:31:11.674Z</time></trkpt><trkpt lat="38.0422839" lon="12.8396757"><ele>76.33333333333334</ele><time>2026-04-28T08:31:12.676Z</time></trkpt><trkpt lat="38.0423687" lon="12.8398804"><ele>78.66666666666667</ele><time>2026-04-28T08:31:13.673Z</time></trkpt><trkpt lat="38.0424574" lon="12.8400833"><ele>81.0</ele><time>2026-04-28T08:31:14.674Z</time></trkpt><trkpt lat="38.0425472" lon="12.8402929"><ele>81.0</ele><time>2026-04-28T08:31:15.674Z</time></trkpt><trkpt lat="38.0426335" lon="12.8404991"><ele>81.0</ele><time>2026-04-28T08:31:16.673Z</time></trkpt><trkpt lat="38.0427211" lon="12.8406992"><ele>81.0</ele><time>2026-04-28T08:31:17.675Z</time></trkpt><trkpt lat="38.0428031" lon="12.8409033"><ele>85.66666666666667</ele><time>2026-04-28T08:31:18.673Z</time></trkpt><trkpt lat="38.0428834" lon="12.8411199"><ele>90.33333333333334</ele><time>2026-04-28T08:31:19.673Z</time></trkpt><trkpt lat="38.042955" lon="12.8413288"><ele>95.0</ele><time>2026-04-28T08:31:20.675Z</time></trkpt><trkpt lat="38.0430167" lon="12.8415398"><ele>95.0</ele><time>2026-04-28T08:31:21.673Z</time></trkpt><trkpt lat="38.0430737" lon="12.8417573"><ele>95.0</ele><time>2026-04-28T08:31:22.674Z</time></trkpt><trkpt lat="38.0431222" lon="12.8419735"><ele>95.0</ele><time>2026-04-28T08:31:23.673Z</time></trkpt><trkpt lat="38.0431636" lon="12.8421886"><ele>97.33333333333334</ele><time>2026-04-28T08:31:24.674Z</time></trkpt><trkpt lat="38.0431972" lon="12.842405"><ele>99.66666666666667</ele><time>2026-04-28T08:31:25.674Z</time></trkpt><trkpt lat="38.0432264" lon="12.8426116"><ele>102.0</ele><time>2026-04-28T08:31:26.673Z</time></trkpt><trkpt lat="38.0432494" lon="12.8428185"><ele>103.33333333333334</ele><time>2026-04-28T08:31:27.674Z</time></trkpt><trkpt lat="38.0432604" lon="12.843018"><ele>104.66666666666667</ele><time>2026-04-28T08:31:28.673Z</time></trkpt><trkpt lat="38.0432658" lon="12.8432143"><ele>106.0</ele><time>2026-04-28T08:31:29.674Z</time></trkpt><trkpt lat="38.0432647" lon="12.8434095"><ele>105.75</ele><time>2026-04-28T08:31:30.675Z</time></trkpt><trkpt lat="38.0432588" lon="12.8435979"><ele>105.5</ele><time>2026-04-28T08:31:31.675Z</time></trkpt><trkpt lat="38.043245" lon="12.8437808"><ele>105.25</ele><time>2026-04-28T08:31:32.673Z</time></trkpt><trkpt lat="38.0432321" lon="12.843965"><ele>105.0</ele><time>2026-04-28T08:31:33.675Z</time></trkpt><trkpt lat="38.0432163" lon="12.8441432"><ele>105.25</ele><time>2026-04-28T08:31:34.673Z</time></trkpt><trkpt lat="38.0431964" lon="12.8443312"><ele>105.5</ele><time>2026-04-28T08:31:35.673Z</time></trkpt><trkpt lat="38.0431732" lon="12.844509"><ele>105.75</ele><time>2026-04-28T08:31:36.673Z</time></trkpt><trkpt lat="38.0431418" lon="12.8446898"><ele>106.0</ele><time>2026-04-28T08:31:37.673Z</time></trkpt><trkpt lat="38.043103" lon="12.8448663"><ele>106.0</ele><time>2026-04-28T08:31:38.674Z</time></trkpt><trkpt lat="38.0430651" lon="12.8450375"><ele>106.0</ele><time>2026-04-28T08:31:39.675Z</time></trkpt><trkpt lat="38.0430274" lon="12.8452074"><ele>106.0</ele><time>2026-04-28T08:31:40.673Z</time></trkpt><trkpt lat="38.0429801" lon="12.8453833"><ele>106.0</ele><time>2026-04-28T08:31:41.674Z</time></trkpt><trkpt lat="38.0429252" lon="12.8455451"><ele>106.75</ele><time>2026-04-28T08:31:42.674Z</time></trkpt><trkpt lat="38.042864" lon="12.8457063"><ele>107.5</ele><time>2026-04-28T08:31:43.674Z</time></trkpt><trkpt lat="38.0428011" lon="12.8458712"><ele>108.25</ele><time>2026-04-28T08:31:44.674Z</time></trkpt><trkpt lat="38.0427331" lon="12.8460318"><ele>109.0</ele><time>2026-04-28T08:31:45.675Z</time></trkpt><trkpt lat="38.0426595" lon="12.8461881"><ele>109.25</ele><time>2026-04-28T08:31:46.674Z</time></trkpt><trkpt lat="38.0425894" lon="12.8463493"><ele>109.5</ele><time>2026-04-28T08:31:47.674Z</time></trkpt><trkpt lat="38.0425207" lon="12.846507"><ele>109.75</ele><time>2026-04-28T08:31:48.674Z</time></trkpt><trkpt lat="38.0424512" lon="12.8466619"><ele>110.0</ele><time>2026-04-28T08:31:49.674Z</time></trkpt><trkpt lat="38.0423798" lon="12.8468208"><ele>111.75</ele><time>2026-04-28T08:31:50.673Z</time></trkpt><trkpt lat="38.0423099" lon="12.8469771"><ele>113.5</ele><time>2026-04-28T08:31:51.673Z</time></trkpt><trkpt lat="38.0422358" lon="12.8471239"><ele>115.25</ele><time>2026-04-28T08:31:52.674Z</time></trkpt><trkpt lat="38.042166" lon="12.8472853"><ele>117.0</ele><time>2026-04-28T08:31:53.673Z</time></trkpt><trkpt lat="38.0421001" lon="12.8474428"><ele>117.0</ele><time>2026-04-28T08:31:54.674Z</time></trkpt><trkpt lat="38.0420307" lon="12.8476031"><ele>117.0</ele><time>2026-04-28T08:31:55.674Z</time></trkpt><trkpt lat="38.0419611" lon="12.8477573"><ele>117.0</ele><time>2026-04-28T08:31:56.674Z</time></trkpt><trkpt lat="38.0418911" lon="12.8479151"><ele>117.0</ele><time>2026-04-28T08:31:57.674Z</time></trkpt><trkpt lat="38.0418253" lon="12.8480691"><ele>117.25</ele><time>2026-04-28T08:31:58.674Z</time></trkpt><trkpt lat="38.0417583" lon="12.8482199"><ele>117.5</ele><time>2026-04-28T08:31:59.674Z</time></trkpt><trkpt lat="38.0416876" lon="12.8483733"><ele>117.75</ele><time>2026-04-28T08:32:00.674Z</time></trkpt><trkpt lat="38.0416252" lon="12.8485157"><ele>118.0</ele><time>2026-04-28T08:32:01.675Z</time></trkpt><trkpt lat="38.0415586" lon="12.8486647"><ele>120.0</ele><time>2026-04-28T08:32:02.675Z</time></trkpt><trkpt lat="38.0414947" lon="12.8488157"><ele>122.0</ele><time>2026-04-28T08:32:03.673Z</time></trkpt><trkpt lat="38.0414288" lon="12.8489636"><ele>124.0</ele><time>2026-04-28T08:32:04.674Z</time></trkpt><trkpt lat="38.0413674" lon="12.8491078"><ele>126.0</ele><time>2026-04-28T08:32:05.673Z</time></trkpt><trkpt lat="38.0413113" lon="12.8492469"><ele>125.75</ele><time>2026-04-28T08:32:06.673Z</time></trkpt><trkpt lat="38.0412492" lon="12.8493837"><ele>125.5</ele><time>2026-04-28T08:32:07.674Z</time></trkpt><trkpt lat="38.0411777" lon="12.8495175"><ele>125.25</ele><time>2026-04-28T08:32:08.675Z</time></trkpt><trkpt lat="38.0411185" lon="12.8496548"><ele>125.0</ele><time>2026-04-28T08:32:09.674Z</time></trkpt><trkpt lat="38.0410569" lon="12.8497922"><ele>125.0</ele><time>2026-04-28T08:32:10.675Z</time></trkpt><trkpt lat="38.040994" lon="12.8499303"><ele>125.0</ele><time>2026-04-28T08:32:11.673Z</time></trkpt><trkpt lat="38.0409314" lon="12.8500649"><ele>125.0</ele><time>2026-04-28T08:32:12.675Z</time></trkpt><trkpt lat="38.04087" lon="12.850207"><ele>125.0</ele><time>2026-04-28T08:32:13.674Z</time></trkpt><trkpt lat="38.0408065" lon="12.8503431"><ele>126.75</ele><time>2026-04-28T08:32:14.675Z</time></trkpt><trkpt lat="38.0407441" lon="12.850483"><ele>128.5</ele><time>2026-04-28T08:32:15.673Z</time></trkpt><trkpt lat="38.0406868" lon="12.8506185"><ele>130.25</ele><time>2026-04-28T08:32:16.673Z</time></trkpt><trkpt lat="38.0406172" lon="12.8507556"><ele>132.0</ele><time>2026-04-28T08:32:17.674Z</time></trkpt><trkpt lat="38.0405463" lon="12.8508976"><ele>132.5</ele><time>2026-04-28T08:32:18.674Z</time></trkpt><trkpt lat="38.0404793" lon="12.8510469"><ele>133.0</ele><time>2026-04-28T08:32:19.674Z</time></trkpt><trkpt lat="38.0404135" lon="12.8512001"><ele>133.5</ele><time>2026-04-28T08:32:20.674Z</time></trkpt><trkpt lat="38.0403405" lon="12.8513595"><ele>134.0</ele><time>2026-04-28T08:32:21.676Z</time></trkpt><trkpt lat="38.0402692" lon="12.8515184"><ele>134.0</ele><time>2026-04-28T08:32:22.674Z</time></trkpt><trkpt lat="38.0401974" lon="12.8516776"><ele>134.0</ele><time>2026-04-28T08:32:23.674Z</time></trkpt><trkpt lat="38.0401231" lon="12.8518445"><ele>134.0</ele><time>2026-04-28T08:32:24.673Z</time></trkpt><trkpt lat="38.0400499" lon="12.8520117"><ele>134.0</ele><time>2026-04-28T08:32:25.673Z</time></trkpt><trkpt lat="38.0399796" lon="12.8521926"><ele>137.0</ele><time>2026-04-28T08:32:26.674Z</time></trkpt><trkpt lat="38.0399135" lon="12.8523713"><ele>140.0</ele><time>2026-04-28T08:32:27.675Z</time></trkpt><trkpt lat="38.0398488" lon="12.8525589"><ele>143.0</ele><time>2026-04-28T08:32:28.674Z</time></trkpt><trkpt lat="38.0397884" lon="12.8527534"><ele>144.33333333333331</ele><time>2026-04-28T08:32:29.676Z</time></trkpt><trkpt lat="38.0397298" lon="12.8529601"><ele>145.66666666666666</ele><time>2026-04-28T08:32:30.675Z</time></trkpt><trkpt lat="38.0396734" lon="12.853162"><ele>147.0</ele><time>2026-04-28T08:32:31.675Z</time></trkpt><trkpt lat="38.0396283" lon="12.8533707"><ele>147.66666666666666</ele><time>2026-04-28T08:32:32.673Z</time></trkpt><trkpt lat="38.039589" lon="12.8535871"><ele>148.33333333333331</ele><time>2026-04-28T08:32:33.674Z</time></trkpt><trkpt lat="38.0395572" lon="12.8538059"><ele>149.0</ele><time>2026-04-28T08:32:34.674Z</time></trkpt><trkpt lat="38.0395369" lon="12.8540213"><ele>149.0</ele><time>2026-04-28T08:32:35.675Z</time></trkpt><trkpt lat="38.039521" lon="12.8542391"><ele>149.0</ele><time>2026-04-28T08:32:36.674Z</time></trkpt><trkpt lat="38.0395189" lon="12.8544636"><ele>149.0</ele><time>2026-04-28T08:32:37.674Z</time></trkpt><trkpt lat="38.0395142" lon="12.8546831"><ele>148.66666666666666</ele><time>2026-04-28T08:32:38.673Z</time></trkpt><trkpt lat="38.0395103" lon="12.8549056"><ele>148.33333333333334</ele><time>2026-04-28T08:32:39.675Z</time></trkpt><trkpt lat="38.0395085" lon="12.8551229"><ele>148.0</ele><time>2026-04-28T08:32:40.675Z</time></trkpt><trkpt lat="38.0395088" lon="12.8553456"><ele>149.0</ele><time>2026-04-28T08:32:41.673Z</time></trkpt><trkpt lat="38.0395093" lon="12.8555648"><ele>150.0</ele><time>2026-04-28T08:32:42.674Z</time></trkpt><trkpt lat="38.039514" lon="12.8557852"><ele>151.0</ele><time>2026-04-28T08:32:43.676Z</time></trkpt><trkpt lat="38.0395206" lon="12.8560086"><ele>151.66666666666669</ele><time>2026-04-28T08:32:44.673Z</time></trkpt><trkpt lat="38.0395282" lon="12.8562287"><ele>152.33333333333334</ele><time>2026-04-28T08:32:45.673Z</time></trkpt><trkpt lat="38.0395393" lon="12.8564442"><ele>153.0</ele><time>2026-04-28T08:32:46.675Z</time></trkpt><trkpt lat="38.0395465" lon="12.8566569"><ele>154.33333333333334</ele><time>2026-04-28T08:32:47.674Z</time></trkpt><trkpt lat="38.0395656" lon="12.8568644"><ele>155.66666666666669</ele><time>2026-04-28T08:32:48.674Z</time></trkpt><trkpt lat="38.0395928" lon="12.857069"><ele>157.0</ele><time>2026-04-28T08:32:49.675Z</time></trkpt><trkpt lat="38.0396192" lon="12.8572712"><ele>157.0</ele><time>2026-04-28T08:32:50.674Z</time></trkpt><trkpt lat="38.0396437" lon="12.8574741"><ele>157.0</ele><time>2026-04-28T08:32:51.673Z</time></trkpt><trkpt lat="38.0396752" lon="12.8576813"><ele>157.0</ele><time>2026-04-28T08:32:52.673Z</time></trkpt><trkpt lat="38.0397062" lon="12.8578908"><ele>157.66666666666669</ele><time>2026-04-28T08:32:53.674Z</time></trkpt><trkpt lat="38.0397407" lon="12.8581014"><ele>158.33333333333334</ele><time>2026-04-28T08:32:54.675Z</time></trkpt><trkpt lat="38.0397714" lon="12.8583173"><ele>159.0</ele><time>2026-04-28T08:32:55.674Z</time></trkpt><trkpt lat="38.0397993" lon="12.8585331"><ele>159.33333333333334</ele><time>2026-04-28T08:32:56.675Z</time></trkpt><trkpt lat="38.0398279" lon="12.8587476"><ele>159.66666666666669</ele><time>2026-04-28T08:32:57.674Z</time></trkpt><trkpt lat="38.0398511" lon="12.8589553"><ele>160.0</ele><time>2026-04-28T08:32:58.674Z</time></trkpt><trkpt lat="38.0398697" lon="12.8591661"><ele>161.33333333333334</ele><time>2026-04-28T08:32:59.675Z</time></trkpt><trkpt lat="38.0398922" lon="12.8593808"><ele>162.66666666666666</ele><time>2026-04-28T08:33:00.674Z</time></trkpt><trkpt lat="38.0399096" lon="12.859592"><ele>164.0</ele><time>2026-04-28T08:33:01.675Z</time></trkpt><trkpt lat="38.0399264" lon="12.8598184"><ele>164.0</ele><time>2026-04-28T08:33:02.673Z</time></trkpt><trkpt lat="38.0399432" lon="12.86004"><ele>164.0</ele><time>2026-04-28T08:33:03.674Z</time></trkpt><trkpt lat="38.0399579" lon="12.8602683"><ele>164.0</ele><time>2026-04-28T08:33:04.675Z</time></trkpt><trkpt lat="38.0399692" lon="12.8605017"><ele>165.33333333333331</ele><time>2026-04-28T08:33:05.675Z</time></trkpt><trkpt lat="38.0399731" lon="12.8607398"><ele>166.66666666666666</ele><time>2026-04-28T08:33:06.675Z</time></trkpt><trkpt lat="38.0399691" lon="12.8609805"><ele>168.0</ele><time>2026-04-28T08:33:07.674Z</time></trkpt><trkpt lat="38.0399661" lon="12.8612223"><ele>168.0</ele><time>2026-04-28T08:33:08.675Z</time></trkpt><trkpt lat="38.0399629" lon="12.8614605"><ele>168.0</ele><time>2026-04-28T08:33:09.673Z</time></trkpt><trkpt lat="38.0399549" lon="12.8616992"><ele>168.0</ele><time>2026-04-28T08:33:10.675Z</time></trkpt><trkpt lat="38.039946" lon="12.8619328"><ele>168.33333333333334</ele><time>2026-04-28T08:33:11.675Z</time></trkpt><trkpt lat="38.0399434" lon="12.8621646"><ele>168.66666666666669</ele><time>2026-04-28T08:33:12.674Z</time></trkpt><trkpt lat="38.0399383" lon="12.8624034"><ele>169.0</ele><time>2026-04-28T08:33:13.674Z</time></trkpt><trkpt lat="38.0399372" lon="12.8626319"><ele>169.0</ele><time>2026-04-28T08:33:14.675Z</time></trkpt><trkpt lat="38.0399331" lon="12.8628672"><ele>169.0</ele><time>2026-04-28T08:33:15.674Z</time></trkpt><trkpt lat="38.0399211" lon="12.8631082"><ele>169.0</ele><time>2026-04-28T08:33:16.674Z</time></trkpt><trkpt lat="38.0399047" lon="12.8633506"><ele>169.0</ele><time>2026-04-28T08:33:17.673Z</time></trkpt><trkpt lat="38.0398788" lon="12.8635852"><ele>169.0</ele><time>2026-04-28T08:33:18.673Z</time></trkpt><trkpt lat="38.0398442" lon="12.8638174"><ele>169.0</ele><time>2026-04-28T08:33:19.675Z</time></trkpt><trkpt lat="38.0397787" lon="12.8640383"><ele>169.0</ele><time>2026-04-28T08:33:20.673Z</time></trkpt><trkpt lat="38.0397165" lon="12.8642709"><ele>169.0</ele><time>2026-04-28T08:33:21.674Z</time></trkpt><trkpt lat="38.0396591" lon="12.864494"><ele>169.0</ele><time>2026-04-28T08:33:22.673Z</time></trkpt><trkpt lat="38.0395855" lon="12.8647037"><ele>168.66666666666669</ele><time>2026-04-28T08:33:23.674Z</time></trkpt><trkpt lat="38.039514" lon="12.8649073"><ele>168.33333333333334</ele><time>2026-04-28T08:33:24.675Z</time></trkpt><trkpt lat="38.0394305" lon="12.8651098"><ele>168.0</ele><time>2026-04-28T08:33:25.674Z</time></trkpt><trkpt lat="38.0393315" lon="12.8652985"><ele>167.33333333333334</ele><time>2026-04-28T08:33:26.675Z</time></trkpt><trkpt lat="38.0392307" lon="12.8654905"><ele>166.66666666666669</ele><time>2026-04-28T08:33:27.674Z</time></trkpt><trkpt lat="38.0391182" lon="12.865678"><ele>166.0</ele><time>2026-04-28T08:33:28.674Z</time></trkpt><trkpt lat="38.0389994" lon="12.865861"><ele>168.0</ele><time>2026-04-28T08:33:29.674Z</time></trkpt><trkpt lat="38.0388736" lon="12.8660326"><ele>170.0</ele><time>2026-04-28T08:33:30.674Z</time></trkpt><trkpt lat="38.0387424" lon="12.8661995"><ele>172.0</ele><time>2026-04-28T08:33:31.676Z</time></trkpt><trkpt lat="38.0386008" lon="12.8663609"><ele>172.0</ele><time>2026-04-28T08:33:32.674Z</time></trkpt><trkpt lat="38.0384574" lon="12.8665108"><ele>172.0</ele><time>2026-04-28T08:33:33.675Z</time></trkpt><trkpt lat="38.0382995" lon="12.8666658"><ele>172.0</ele><time>2026-04-28T08:33:34.675Z</time></trkpt><trkpt lat="38.0381377" lon="12.8668197"><ele>173.0</ele><time>2026-04-28T08:33:35.673Z</time></trkpt><trkpt lat="38.0379711" lon="12.8669899"><ele>174.0</ele><time>2026-04-28T08:33:36.675Z</time></trkpt><trkpt lat="38.037797" lon="12.8671662"><ele>175.0</ele><time>2026-04-28T08:33:37.674Z</time></trkpt><trkpt lat="38.0376141" lon="12.8673434"><ele>176.0</ele><time>2026-04-28T08:33:38.674Z</time></trkpt><trkpt lat="38.0374261" lon="12.8675192"><ele>177.0</ele><time>2026-04-28T08:33:39.674Z</time></trkpt><trkpt lat="38.0372315" lon="12.867697"><ele>177.0</ele><time>2026-04-28T08:33:40.675Z</time></trkpt><trkpt lat="38.0370327" lon="12.8678767"><ele>177.0</ele><time>2026-04-28T08:33:41.674Z</time></trkpt><trkpt lat="38.0368314" lon="12.8680581"><ele>187.0</ele><time>2026-04-28T08:33:42.675Z</time></trkpt><trkpt lat="38.0366277" lon="12.8682452"><ele>197.0</ele><time>2026-04-28T08:33:43.674Z</time></trkpt><trkpt lat="38.0364281" lon="12.8684266"><ele>188.0</ele><time>2026-04-28T08:33:44.675Z</time></trkpt><trkpt lat="38.0362308" lon="12.8686004"><ele>179.0</ele><time>2026-04-28T08:33:45.675Z</time></trkpt><trkpt lat="38.0360379" lon="12.8687654"><ele>179.0</ele><time>2026-04-28T08:33:46.675Z</time></trkpt><trkpt lat="38.0358484" lon="12.8689137"><ele>179.0</ele><time>2026-04-28T08:33:47.675Z</time></trkpt><trkpt lat="38.035664" lon="12.8690453"><ele>179.0</ele><time>2026-04-28T08:33:48.675Z</time></trkpt><trkpt lat="38.0354882" lon="12.8691619"><ele>175.33333333333331</ele><time>2026-04-28T08:33:49.675Z</time></trkpt><trkpt lat="38.0353123" lon="12.8692817"><ele>171.66666666666666</ele><time>2026-04-28T08:33:50.674Z</time></trkpt><trkpt lat="38.0351498" lon="12.8693969"><ele>168.0</ele><time>2026-04-28T08:33:51.674Z</time></trkpt><trkpt lat="38.0349894" lon="12.869509"><ele>177.66666666666669</ele><time>2026-04-28T08:33:52.675Z</time></trkpt><trkpt lat="38.0348273" lon="12.8696188"><ele>187.33333333333334</ele><time>2026-04-28T08:33:53.674Z</time></trkpt><trkpt lat="38.0346639" lon="12.8697404"><ele>197.0</ele><time>2026-04-28T08:33:54.674Z</time></trkpt><trkpt lat="38.0345052" lon="12.8698679"><ele>197.0</ele><time>2026-04-28T08:33:55.673Z</time></trkpt><trkpt lat="38.0343597" lon="12.8699884"><ele>197.0</ele><time>2026-04-28T08:33:56.674Z</time></trkpt><trkpt lat="38.0342195" lon="12.8701029"><ele>197.0</ele><time>2026-04-28T08:33:57.674Z</time></trkpt><trkpt lat="38.0340931" lon="12.8702358"><ele>199.33333333333334</ele><time>2026-04-28T08:33:58.675Z</time></trkpt><trkpt lat="38.0339707" lon="12.8703635"><ele>201.66666666666669</ele><time>2026-04-28T08:33:59.673Z</time></trkpt><trkpt lat="38.0338562" lon="12.8704865"><ele>204.0</ele><time>2026-04-28T08:34:00.674Z</time></trkpt><trkpt lat="38.0337429" lon="12.8706121"><ele>204.0</ele><time>2026-04-28T08:34:01.674Z</time></trkpt><trkpt lat="38.0336302" lon="12.8707297"><ele>204.0</ele><time>2026-04-28T08:34:02.675Z</time></trkpt><trkpt lat="38.0335173" lon="12.8708495"><ele>204.0</ele><time>2026-04-28T08:34:03.674Z</time></trkpt><trkpt lat="38.0333962" lon="12.8709673"><ele>204.0</ele><time>2026-04-28T08:34:04.674Z</time></trkpt><trkpt lat="38.0332779" lon="12.8710643"><ele>196.0</ele><time>2026-04-28T08:34:05.674Z</time></trkpt><trkpt lat="38.0331562" lon="12.8711462"><ele>188.0</ele><time>2026-04-28T08:34:06.673Z</time></trkpt><trkpt lat="38.0330267" lon="12.8712037"><ele>180.0</ele><time>2026-04-28T08:34:07.674Z</time></trkpt><trkpt lat="38.0329114" lon="12.8712295"><ele>172.0</ele><time>2026-04-28T08:34:08.675Z</time></trkpt><trkpt lat="38.032791" lon="12.8712312"><ele>172.0</ele><time>2026-04-28T08:34:09.675Z</time></trkpt><trkpt lat="38.032673" lon="12.8712074"><ele>172.0</ele><time>2026-04-28T08:34:10.675Z</time></trkpt><trkpt lat="38.0325556" lon="12.8711754"><ele>172.0</ele><time>2026-04-28T08:34:11.674Z</time></trkpt><trkpt lat="38.0324421" lon="12.8711526"><ele>172.0</ele><time>2026-04-28T08:34:12.674Z</time></trkpt><trkpt lat="38.0323228" lon="12.8711242"><ele>177.25</ele><time>2026-04-28T08:34:13.674Z</time></trkpt><trkpt lat="38.0322064" lon="12.8711242"><ele>182.5</ele><time>2026-04-28T08:34:14.675Z</time></trkpt><trkpt lat="38.0320896" lon="12.8711349"><ele>187.75</ele><time>2026-04-28T08:34:15.674Z</time></trkpt><trkpt lat="38.0319738" lon="12.8711637"><ele>193.0</ele><time>2026-04-28T08:34:16.674Z</time></trkpt><trkpt lat="38.0318611" lon="12.8712047"><ele>193.0</ele><time>2026-04-28T08:34:17.674Z</time></trkpt><trkpt lat="38.031755" lon="12.8712613"><ele>193.0</ele><time>2026-04-28T08:34:18.674Z</time></trkpt><trkpt lat="38.0316569" lon="12.8713363"><ele>193.0</ele><time>2026-04-28T08:34:19.675Z</time></trkpt><trkpt lat="38.031571" lon="12.871439"><ele>193.0</ele><time>2026-04-28T08:34:20.675Z</time></trkpt><trkpt lat="38.031501" lon="12.8715541"><ele>197.4</ele><time>2026-04-28T08:34:21.674Z</time></trkpt><trkpt lat="38.0314543" lon="12.8716791"><ele>201.8</ele><time>2026-04-28T08:34:22.674Z</time></trkpt><trkpt lat="38.0314173" lon="12.8718176"><ele>206.2</ele><time>2026-04-28T08:34:23.674Z</time></trkpt><trkpt lat="38.0313965" lon="12.8719578"><ele>210.6</ele><time>2026-04-28T08:34:24.675Z</time></trkpt><trkpt lat="38.0313776" lon="12.8720963"><ele>215.0</ele><time>2026-04-28T08:34:25.674Z</time></trkpt><trkpt lat="38.0313607" lon="12.8722356"><ele>215.0</ele><time>2026-04-28T08:34:26.674Z</time></trkpt><trkpt lat="38.0313423" lon="12.872386"><ele>215.0</ele><time>2026-04-28T08:34:27.674Z</time></trkpt><trkpt lat="38.0313249" lon="12.8725367"><ele>215.0</ele><time>2026-04-28T08:34:28.674Z</time></trkpt><trkpt lat="38.0313087" lon="12.8726812"><ele>215.0</ele><time>2026-04-28T08:34:29.675Z</time></trkpt><trkpt lat="38.0312918" lon="12.8728303"><ele>211.0</ele><time>2026-04-28T08:34:30.675Z</time></trkpt><trkpt lat="38.031278" lon="12.8729811"><ele>207.0</ele><time>2026-04-28T08:34:31.675Z</time></trkpt><trkpt lat="38.0312637" lon="12.8731393"><ele>203.0</ele><time>2026-04-28T08:34:32.674Z</time></trkpt><trkpt lat="38.031248" lon="12.8732893"><ele>199.0</ele><time>2026-04-28T08:34:33.674Z</time></trkpt><trkpt lat="38.0312189" lon="12.8734358"><ele>196.6</ele><time>2026-04-28T08:34:34.675Z</time></trkpt><trkpt lat="38.0311938" lon="12.8735759"><ele>194.2</ele><time>2026-04-28T08:34:35.674Z</time></trkpt><trkpt lat="38.0311608" lon="12.8737051"><ele>191.79999999999998</ele><time>2026-04-28T08:34:36.674Z</time></trkpt><trkpt lat="38.031114" lon="12.873834"><ele>189.39999999999998</ele><time>2026-04-28T08:34:37.674Z</time></trkpt><trkpt lat="38.0310635" lon="12.8739512"><ele>187.0</ele><time>2026-04-28T08:34:38.674Z</time></trkpt><trkpt lat="38.0309976" lon="12.8740452"><ele>187.0</ele><time>2026-04-28T08:34:39.675Z</time></trkpt><trkpt lat="38.0308944" lon="12.874136"><ele>187.0</ele><time>2026-04-28T08:34:40.674Z</time></trkpt><trkpt lat="38.0307933" lon="12.8742104"><ele>187.0</ele><time>2026-04-28T08:34:41.674Z</time></trkpt><trkpt lat="38.0306684" lon="12.8742698"><ele>187.0</ele><time>2026-04-28T08:34:42.674Z</time></trkpt><trkpt lat="38.0305127" lon="12.8743306"><ele>176.0</ele><time>2026-04-28T08:34:43.674Z</time></trkpt><trkpt lat="38.0303239" lon="12.8743835"><ele>165.0</ele><time>2026-04-28T08:34:44.674Z</time></trkpt><trkpt lat="38.0301262" lon="12.8744329"><ele>154.0</ele><time>2026-04-28T08:34:45.674Z</time></trkpt><trkpt lat="38.0299019" lon="12.8744695"><ele>154.0</ele><time>2026-04-28T08:34:46.674Z</time></trkpt><trkpt lat="38.0296748" lon="12.874498"><ele>154.0</ele><time>2026-04-28T08:34:47.675Z</time></trkpt><trkpt lat="38.0294518" lon="12.8745204"><ele>154.0</ele><time>2026-04-28T08:34:48.674Z</time></trkpt><trkpt lat="38.0292295" lon="12.8745378"><ele>154.0</ele><time>2026-04-28T08:34:49.674Z</time></trkpt><trkpt lat="38.0290109" lon="12.8745541"><ele>154.0</ele><time>2026-04-28T08:34:50.674Z</time></trkpt><trkpt lat="38.0287946" lon="12.874579"><ele>155.0</ele><time>2026-04-28T08:34:51.675Z</time></trkpt><trkpt lat="38.0285841" lon="12.8746126"><ele>156.0</ele><time>2026-04-28T08:34:52.675Z</time></trkpt><trkpt lat="38.0283788" lon="12.8746612"><ele>157.0</ele><time>2026-04-28T08:34:53.674Z</time></trkpt><trkpt lat="38.0281715" lon="12.8747013"><ele>157.0</ele><time>2026-04-28T08:34:54.674Z</time></trkpt><trkpt lat="38.0279684" lon="12.8747427"><ele>157.0</ele><time>2026-04-28T08:34:55.675Z</time></trkpt><trkpt lat="38.0277733" lon="12.8747804"><ele>157.0</ele><time>2026-04-28T08:34:56.674Z</time></trkpt><trkpt lat="38.0275742" lon="12.8747894"><ele>156.66666666666669</ele><time>2026-04-28T08:34:57.676Z</time></trkpt><trkpt lat="38.0273834" lon="12.8747831"><ele>156.33333333333334</ele><time>2026-04-28T08:34:58.674Z</time></trkpt><trkpt lat="38.0271851" lon="12.8747645"><ele>156.0</ele><time>2026-04-28T08:34:59.674Z</time></trkpt><trkpt lat="38.0269929" lon="12.8747642"><ele>159.0</ele><time>2026-04-28T08:35:00.676Z</time></trkpt><trkpt lat="38.0266325" lon="12.8748526"><ele>162.0</ele><time>2026-04-28T08:35:02.674Z</time></trkpt><trkpt lat="38.0264679" lon="12.8749362"><ele>162.0</ele><time>2026-04-28T08:35:03.674Z</time></trkpt><trkpt lat="38.0263017" lon="12.8750253"><ele>162.0</ele><time>2026-04-28T08:35:04.674Z</time></trkpt><trkpt lat="38.0261305" lon="12.875096"><ele>162.0</ele><time>2026-04-28T08:35:05.675Z</time></trkpt><trkpt lat="38.025958" lon="12.8751578"><ele>146.0</ele><time>2026-04-28T08:35:06.674Z</time></trkpt><trkpt lat="38.0257696" lon="12.8751573"><ele>130.0</ele><time>2026-04-28T08:35:07.675Z</time></trkpt><trkpt lat="38.0255742" lon="12.8751649"><ele>114.0</ele><time>2026-04-28T08:35:08.674Z</time></trkpt><trkpt lat="38.0253836" lon="12.8751919"><ele>114.0</ele><time>2026-04-28T08:35:09.676Z</time></trkpt><trkpt lat="38.0251878" lon="12.8752364"><ele>114.0</ele><time>2026-04-28T08:35:10.675Z</time></trkpt><trkpt lat="38.0249949" lon="12.8752714"><ele>114.0</ele><time>2026-04-28T08:35:11.675Z</time></trkpt><trkpt lat="38.0248033" lon="12.8753107"><ele>114.0</ele><time>2026-04-28T08:35:12.675Z</time></trkpt><trkpt lat="38.0246077" lon="12.8753431"><ele>114.0</ele><time>2026-04-28T08:35:13.674Z</time></trkpt><trkpt lat="38.0244133" lon="12.8753693"><ele>114.0</ele><time>2026-04-28T08:35:14.676Z</time></trkpt><trkpt lat="38.0242164" lon="12.8753861"><ele>115.33333333333334</ele><time>2026-04-28T08:35:15.674Z</time></trkpt><trkpt lat="38.0240098" lon="12.8753931"><ele>116.66666666666667</ele><time>2026-04-28T08:35:16.674Z</time></trkpt><trkpt lat="38.0238046" lon="12.875388"><ele>118.0</ele><time>2026-04-28T08:35:17.675Z</time></trkpt><trkpt lat="38.0234114" lon="12.8753753"><ele>120.33333333333334</ele><time>2026-04-28T08:35:19.674Z</time></trkpt><trkpt lat="38.0232244" lon="12.8753591"><ele>122.66666666666666</ele><time>2026-04-28T08:35:20.674Z</time></trkpt><trkpt lat="38.023047" lon="12.8753479"><ele>125.0</ele><time>2026-04-28T08:35:21.674Z</time></trkpt><trkpt lat="38.0228763" lon="12.8753356"><ele>125.0</ele><time>2026-04-28T08:35:22.675Z</time></trkpt><trkpt lat="38.0227172" lon="12.8753264"><ele>125.0</ele><time>2026-04-28T08:35:23.675Z</time></trkpt><trkpt lat="38.0225675" lon="12.8753283"><ele>125.0</ele><time>2026-04-28T08:35:24.675Z</time></trkpt><trkpt lat="38.0224258" lon="12.8753549"><ele>127.25</ele><time>2026-04-28T08:35:25.675Z</time></trkpt><trkpt lat="38.0222911" lon="12.875395"><ele>129.5</ele><time>2026-04-28T08:35:26.676Z</time></trkpt><trkpt lat="38.0221831" lon="12.8754754"><ele>131.75</ele><time>2026-04-28T08:35:27.674Z</time></trkpt><trkpt lat="38.0220846" lon="12.8755577"><ele>134.0</ele><time>2026-04-28T08:35:28.674Z</time></trkpt><trkpt lat="38.0219991" lon="12.8756668"><ele>134.0</ele><time>2026-04-28T08:35:29.674Z</time></trkpt><trkpt lat="38.0219188" lon="12.8757774"><ele>134.0</ele><time>2026-04-28T08:35:30.674Z</time></trkpt><trkpt lat="38.021843" lon="12.8758973"><ele>134.0</ele><time>2026-04-28T08:35:31.675Z</time></trkpt><trkpt lat="38.0217568" lon="12.8760201"><ele>134.0</ele><time>2026-04-28T08:35:32.675Z</time></trkpt><trkpt lat="38.0216771" lon="12.8761384"><ele>134.0</ele><time>2026-04-28T08:35:33.675Z</time></trkpt><trkpt lat="38.0215947" lon="12.8762524"><ele>134.0</ele><time>2026-04-28T08:35:34.674Z</time></trkpt><trkpt lat="38.0215163" lon="12.8763707"><ele>134.0</ele><time>2026-04-28T08:35:35.675Z</time></trkpt><trkpt lat="38.0214362" lon="12.876493"><ele>134.0</ele><time>2026-04-28T08:35:36.674Z</time></trkpt><trkpt lat="38.0213563" lon="12.8766157"><ele>134.0</ele><time>2026-04-28T08:35:37.674Z</time></trkpt><trkpt lat="38.0212771" lon="12.8767347"><ele>134.0</ele><time>2026-04-28T08:35:38.675Z</time></trkpt><trkpt lat="38.0211959" lon="12.8768582"><ele>134.0</ele><time>2026-04-28T08:35:39.674Z</time></trkpt><trkpt lat="38.0211081" lon="12.8769971"><ele>134.0</ele><time>2026-04-28T08:35:40.674Z</time></trkpt><trkpt lat="38.021031" lon="12.8771187"><ele>132.75</ele><time>2026-04-28T08:35:41.675Z</time></trkpt><trkpt lat="38.0209525" lon="12.8772406"><ele>131.5</ele><time>2026-04-28T08:35:42.675Z</time></trkpt><trkpt lat="38.0208737" lon="12.8773583"><ele>130.25</ele><time>2026-04-28T08:35:43.675Z</time></trkpt><trkpt lat="38.0207876" lon="12.8774693"><ele>129.0</ele><time>2026-04-28T08:35:44.675Z</time></trkpt><trkpt lat="38.0207104" lon="12.8775895"><ele>125.0</ele><time>2026-04-28T08:35:45.675Z</time></trkpt><trkpt lat="38.0206354" lon="12.8777082"><ele>121.0</ele><time>2026-04-28T08:35:46.675Z</time></trkpt><trkpt lat="38.0205561" lon="12.8778246"><ele>117.0</ele><time>2026-04-28T08:35:47.675Z</time></trkpt><trkpt lat="38.0204792" lon="12.8779426"><ele>113.0</ele><time>2026-04-28T08:35:48.675Z</time></trkpt><trkpt lat="38.0203966" lon="12.8780561"><ele>113.0</ele><time>2026-04-28T08:35:49.675Z</time></trkpt><trkpt lat="38.0203215" lon="12.8781659"><ele>113.0</ele><time>2026-04-28T08:35:50.674Z</time></trkpt><trkpt lat="38.0202436" lon="12.8782901"><ele>113.0</ele><time>2026-04-28T08:35:51.675Z</time></trkpt><trkpt lat="38.0201706" lon="12.878405"><ele>113.0</ele><time>2026-04-28T08:35:52.676Z</time></trkpt><trkpt lat="38.0200919" lon="12.8785066"><ele>111.0</ele><time>2026-04-28T08:35:53.674Z</time></trkpt><trkpt lat="38.0200168" lon="12.8786148"><ele>109.0</ele><time>2026-04-28T08:35:54.675Z</time></trkpt><trkpt lat="38.0199436" lon="12.8787231"><ele>107.0</ele><time>2026-04-28T08:35:55.676Z</time></trkpt><trkpt lat="38.0198698" lon="12.8788399"><ele>105.0</ele><time>2026-04-28T08:35:56.675Z</time></trkpt><trkpt lat="38.0197944" lon="12.8789514"><ele>107.5</ele><time>2026-04-28T08:35:57.674Z</time></trkpt><trkpt lat="38.0197268" lon="12.8790659"><ele>110.0</ele><time>2026-04-28T08:35:58.675Z</time></trkpt><trkpt lat="38.0196543" lon="12.8791823"><ele>112.5</ele><time>2026-04-28T08:35:59.675Z</time></trkpt><trkpt lat="38.019587" lon="12.8793012"><ele>115.0</ele><time>2026-04-28T08:36:00.675Z</time></trkpt><trkpt lat="38.0195287" lon="12.8794215"><ele>115.0</ele><time>2026-04-28T08:36:01.674Z</time></trkpt><trkpt lat="38.0194723" lon="12.8795436"><ele>115.0</ele><time>2026-04-28T08:36:02.675Z</time></trkpt><trkpt lat="38.0194256" lon="12.8796654"><ele>115.0</ele><time>2026-04-28T08:36:03.676Z</time></trkpt><trkpt lat="38.0193805" lon="12.8797885"><ele>115.0</ele><time>2026-04-28T08:36:04.674Z</time></trkpt><trkpt lat="38.0193443" lon="12.8799029"><ele>115.0</ele><time>2026-04-28T08:36:05.675Z</time></trkpt><trkpt lat="38.0193002" lon="12.8800231"><ele>113.6</ele><time>2026-04-28T08:36:06.674Z</time></trkpt><trkpt lat="38.0192596" lon="12.8801368"><ele>112.2</ele><time>2026-04-28T08:36:07.674Z</time></trkpt><trkpt lat="38.0192174" lon="12.8802618"><ele>110.80000000000001</ele><time>2026-04-28T08:36:08.674Z</time></trkpt><trkpt lat="38.0191795" lon="12.8803705"><ele>109.4</ele><time>2026-04-28T08:36:09.676Z</time></trkpt><trkpt lat="38.0191389" lon="12.880484"><ele>108.0</ele><time>2026-04-28T08:36:10.674Z</time></trkpt><trkpt lat="38.0191023" lon="12.8805953"><ele>109.80000000000001</ele><time>2026-04-28T08:36:11.675Z</time></trkpt><trkpt lat="38.0190615" lon="12.8807045"><ele>111.60000000000001</ele><time>2026-04-28T08:36:12.674Z</time></trkpt><trkpt lat="38.0190179" lon="12.8808123"><ele>113.39999999999999</ele><time>2026-04-28T08:36:13.674Z</time></trkpt><trkpt lat="38.0189781" lon="12.8809398"><ele>115.19999999999999</ele><time>2026-04-28T08:36:14.676Z</time></trkpt><trkpt lat="38.0189407" lon="12.8810594"><ele>117.0</ele><time>2026-04-28T08:36:15.674Z</time></trkpt><trkpt lat="38.0188979" lon="12.88118"><ele>117.0</ele><time>2026-04-28T08:36:16.675Z</time></trkpt><trkpt lat="38.018855" lon="12.881307"><ele>116.99999999999999</ele><time>2026-04-28T08:36:17.674Z</time></trkpt><trkpt lat="38.0188159" lon="12.8814327"><ele>116.99999999999999</ele><time>2026-04-28T08:36:18.674Z</time></trkpt><trkpt lat="38.0187719" lon="12.8815626"><ele>117.0</ele><time>2026-04-28T08:36:19.674Z</time></trkpt><trkpt lat="38.0187272" lon="12.8816894"><ele>117.0</ele><time>2026-04-28T08:36:20.675Z</time></trkpt><trkpt lat="38.018683" lon="12.8818151"><ele>115.6</ele><time>2026-04-28T08:36:21.674Z</time></trkpt><trkpt lat="38.0186433" lon="12.8819351"><ele>114.19999999999999</ele><time>2026-04-28T08:36:22.674Z</time></trkpt><trkpt lat="38.0186088" lon="12.8820551"><ele>112.8</ele><time>2026-04-28T08:36:23.675Z</time></trkpt><trkpt lat="38.0185586" lon="12.8821713"><ele>111.4</ele><time>2026-04-28T08:36:24.675Z</time></trkpt><trkpt lat="38.0185238" lon="12.8822975"><ele>110.0</ele><time>2026-04-28T08:36:25.675Z</time></trkpt><trkpt lat="38.0184683" lon="12.8824207"><ele>110.0</ele><time>2026-04-28T08:36:26.674Z</time></trkpt><trkpt lat="38.0184165" lon="12.8825444"><ele>110.0</ele><time>2026-04-28T08:36:27.675Z</time></trkpt><trkpt lat="38.0183778" lon="12.8826658"><ele>110.0</ele><time>2026-04-28T08:36:28.675Z</time></trkpt><trkpt lat="38.0183398" lon="12.8827877"><ele>110.0</ele><time>2026-04-28T08:36:29.675Z</time></trkpt><trkpt lat="38.0183031" lon="12.8828997"><ele>110.0</ele><time>2026-04-28T08:36:30.675Z</time></trkpt><trkpt lat="38.018261" lon="12.8830154"><ele>109.4</ele><time>2026-04-28T08:36:31.675Z</time></trkpt><trkpt lat="38.018225" lon="12.8831232"><ele>108.8</ele><time>2026-04-28T08:36:32.675Z</time></trkpt><trkpt lat="38.0181833" lon="12.8832413"><ele>108.19999999999999</ele><time>2026-04-28T08:36:33.674Z</time></trkpt><trkpt lat="38.0181468" lon="12.883351"><ele>107.6</ele><time>2026-04-28T08:36:34.675Z</time></trkpt><trkpt lat="38.0181066" lon="12.8834624"><ele>107.0</ele><time>2026-04-28T08:36:35.675Z</time></trkpt><trkpt lat="38.0180682" lon="12.8835779"><ele>107.0</ele><time>2026-04-28T08:36:36.674Z</time></trkpt><trkpt lat="38.0180312" lon="12.8836887"><ele>106.99999999999999</ele><time>2026-04-28T08:36:37.676Z</time></trkpt><trkpt lat="38.0179932" lon="12.8838053"><ele>106.99999999999999</ele><time>2026-04-28T08:36:38.675Z</time></trkpt><trkpt lat="38.0179562" lon="12.8839205"><ele>107.0</ele><time>2026-04-28T08:36:39.675Z</time></trkpt><trkpt lat="38.0179163" lon="12.8840317"><ele>107.0</ele><time>2026-04-28T08:36:40.676Z</time></trkpt><trkpt lat="38.0178723" lon="12.8841483"><ele>107.0</ele><time>2026-04-28T08:36:41.675Z</time></trkpt><trkpt lat="38.0178411" lon="12.8842629"><ele>106.99999999999999</ele><time>2026-04-28T08:36:42.674Z</time></trkpt><trkpt lat="38.017798" lon="12.8843732"><ele>106.99999999999999</ele><time>2026-04-28T08:36:43.675Z</time></trkpt><trkpt lat="38.0177597" lon="12.8844799"><ele>107.0</ele><time>2026-04-28T08:36:44.675Z</time></trkpt><trkpt lat="38.0177275" lon="12.884585"><ele>107.0</ele><time>2026-04-28T08:36:45.677Z</time></trkpt><trkpt lat="38.017698" lon="12.8846936"><ele>105.16666666666666</ele><time>2026-04-28T08:36:46.674Z</time></trkpt><trkpt lat="38.0176674" lon="12.8847945"><ele>103.33333333333333</ele><time>2026-04-28T08:36:47.675Z</time></trkpt><trkpt lat="38.0176475" lon="12.8848939"><ele>101.5</ele><time>2026-04-28T08:36:48.674Z</time></trkpt><trkpt lat="38.0176338" lon="12.884996"><ele>99.66666666666666</ele><time>2026-04-28T08:36:49.674Z</time></trkpt><trkpt lat="38.0176228" lon="12.8850934"><ele>97.83333333333333</ele><time>2026-04-28T08:36:50.675Z</time></trkpt><trkpt lat="38.017614" lon="12.8851905"><ele>96.0</ele><time>2026-04-28T08:36:51.674Z</time></trkpt><trkpt lat="38.0176079" lon="12.8852769"><ele>95.0</ele><time>2026-04-28T08:36:52.675Z</time></trkpt><trkpt lat="38.0175911" lon="12.8854242"><ele>94.0</ele><time>2026-04-28T08:36:54.676Z</time></trkpt><trkpt lat="38.017575" lon="12.8855565"><ele>93.0</ele><time>2026-04-28T08:36:56.674Z</time></trkpt><trkpt lat="38.0175622" lon="12.8856923"><ele>92.0</ele><time>2026-04-28T08:36:58.674Z</time></trkpt><trkpt lat="38.0175491" lon="12.8858345"><ele>91.0</ele><time>2026-04-28T08:37:00.674Z</time></trkpt><trkpt lat="38.0175288" lon="12.8859797"><ele>91.19999999999999</ele><time>2026-04-28T08:37:02.674Z</time></trkpt><trkpt lat="38.0175089" lon="12.8861403"><ele>91.39999999999999</ele><time>2026-04-28T08:37:04.676Z</time></trkpt><trkpt lat="38.0175006" lon="12.8862916"><ele>91.6</ele><time>2026-04-28T08:37:06.674Z</time></trkpt><trkpt lat="38.0175005" lon="12.8864138"><ele>91.8</ele><time>2026-04-28T08:37:08.675Z</time></trkpt><trkpt lat="38.0174907" lon="12.886494"><ele>92.0</ele><time>2026-04-28T08:37:10.675Z</time></trkpt><trkpt lat="38.0174765" lon="12.8866187"><ele>91.83333333333334</ele><time>2026-04-28T08:37:19.674Z</time></trkpt><trkpt lat="38.0174411" lon="12.8867637"><ele>91.66666666666667</ele><time>2026-04-28T08:37:21.674Z</time></trkpt><trkpt lat="38.0174242" lon="12.8868547"><ele>91.5</ele><time>2026-04-28T08:37:22.676Z</time></trkpt><trkpt lat="38.0174101" lon="12.8869407"><ele>91.33333333333333</ele><time>2026-04-28T08:37:23.675Z</time></trkpt><trkpt lat="38.0173914" lon="12.8870275"><ele>91.16666666666666</ele><time>2026-04-28T08:37:24.675Z</time></trkpt><trkpt lat="38.0173512" lon="12.8871619"><ele>91.0</ele><time>2026-04-28T08:37:26.675Z</time></trkpt><trkpt lat="38.0172794" lon="12.8872998"><ele>91.0</ele><time>2026-04-28T08:37:28.674Z</time></trkpt><trkpt lat="38.0172664" lon="12.8873901"><ele>91.0</ele><time>2026-04-28T08:37:29.675Z</time></trkpt><trkpt lat="38.017262" lon="12.8874876"><ele>91.0</ele><time>2026-04-28T08:37:30.675Z</time></trkpt><trkpt lat="38.0172553" lon="12.8875949"><ele>91.0</ele><time>2026-04-28T08:37:31.676Z</time></trkpt><trkpt lat="38.0172448" lon="12.8876994"><ele>91.0</ele><time>2026-04-28T08:37:32.675Z</time></trkpt><trkpt lat="38.0172371" lon="12.8878153"><ele>91.0</ele><time>2026-04-28T08:37:33.675Z</time></trkpt><trkpt lat="38.0172292" lon="12.8879317"><ele>90.33333333333333</ele><time>2026-04-28T08:37:34.674Z</time></trkpt><trkpt lat="38.0172228" lon="12.8880391"><ele>89.66666666666666</ele><time>2026-04-28T08:37:35.675Z</time></trkpt><trkpt lat="38.0172132" lon="12.8881432"><ele>89.0</ele><time>2026-04-28T08:37:36.676Z</time></trkpt><trkpt lat="38.0171962" lon="12.8882455"><ele>88.33333333333333</ele><time>2026-04-28T08:37:37.675Z</time></trkpt><trkpt lat="38.0171807" lon="12.8883404"><ele>87.66666666666667</ele><time>2026-04-28T08:37:38.675Z</time></trkpt><trkpt lat="38.0171637" lon="12.8884295"><ele>87.0</ele><time>2026-04-28T08:37:39.676Z</time></trkpt><trkpt lat="38.01715" lon="12.8885123"><ele>86.0</ele><time>2026-04-28T08:37:40.675Z</time></trkpt><trkpt lat="38.0171173" lon="12.8886035"><ele>85.0</ele><time>2026-04-28T08:37:41.675Z</time></trkpt><trkpt lat="38.0170802" lon="12.8886983"><ele>84.0</ele><time>2026-04-28T08:37:42.674Z</time></trkpt><trkpt lat="38.0170514" lon="12.888797"><ele>83.0</ele><time>2026-04-28T08:37:43.675Z</time></trkpt><trkpt lat="38.0170152" lon="12.8889008"><ele>82.0</ele><time>2026-04-28T08:37:44.675Z</time></trkpt><trkpt lat="38.0169847" lon="12.8889945"><ele>81.0</ele><time>2026-04-28T08:37:45.674Z</time></trkpt><trkpt lat="38.0169434" lon="12.8890874"><ele>81.0</ele><time>2026-04-28T08:37:46.674Z</time></trkpt><trkpt lat="38.016894" lon="12.8891717"><ele>81.0</ele><time>2026-04-28T08:37:47.675Z</time></trkpt><trkpt lat="38.0168505" lon="12.8892504"><ele>81.0</ele><time>2026-04-28T08:37:48.674Z</time></trkpt><trkpt lat="38.0168141" lon="12.8893211"><ele>81.0</ele><time>2026-04-28T08:37:49.674Z</time></trkpt><trkpt lat="38.016772" lon="12.8893853"><ele>81.0</ele><time>2026-04-28T08:37:50.675Z</time></trkpt><trkpt lat="38.0167311" lon="12.8894473"><ele>81.0</ele><time>2026-04-28T08:37:51.674Z</time></trkpt><trkpt lat="38.0166951" lon="12.8895157"><ele>81.0</ele><time>2026-04-28T08:37:52.675Z</time></trkpt><trkpt lat="38.0166546" lon="12.8895843"><ele>81.16666666666667</ele><time>2026-04-28T08:37:53.676Z</time></trkpt><trkpt lat="38.0166189" lon="12.8896542"><ele>81.33333333333333</ele><time>2026-04-28T08:37:54.675Z</time></trkpt><trkpt lat="38.016539" lon="12.8897854"><ele>81.5</ele><time>2026-04-28T08:37:56.674Z</time></trkpt><trkpt lat="38.0164947" lon="12.8898573"><ele>81.66666666666666</ele><time>2026-04-28T08:37:57.675Z</time></trkpt><trkpt lat="38.0164499" lon="12.8899271"><ele>81.83333333333333</ele><time>2026-04-28T08:37:58.675Z</time></trkpt><trkpt lat="38.0164045" lon="12.8900062"><ele>82.0</ele><time>2026-04-28T08:37:59.675Z</time></trkpt><trkpt lat="38.0163581" lon="12.8900876"><ele>81.5</ele><time>2026-04-28T08:38:00.675Z</time></trkpt><trkpt lat="38.0163163" lon="12.8901755"><ele>81.0</ele><time>2026-04-28T08:38:01.674Z</time></trkpt><trkpt lat="38.0162726" lon="12.8902656"><ele>80.5</ele><time>2026-04-28T08:38:02.674Z</time></trkpt><trkpt lat="38.0162366" lon="12.890351"><ele>80.0</ele><time>2026-04-28T08:38:03.677Z</time></trkpt><trkpt lat="38.016197" lon="12.8904468"><ele>79.5</ele><time>2026-04-28T08:38:04.675Z</time></trkpt><trkpt lat="38.0161612" lon="12.8905403"><ele>79.0</ele><time>2026-04-28T08:38:05.675Z</time></trkpt><trkpt lat="38.0161308" lon="12.8906358"><ele>79.0</ele><time>2026-04-28T08:38:06.675Z</time></trkpt><trkpt lat="38.0161012" lon="12.8907317"><ele>79.0</ele><time>2026-04-28T08:38:07.676Z</time></trkpt><trkpt lat="38.0160791" lon="12.8908256"><ele>79.0</ele><time>2026-04-28T08:38:08.675Z</time></trkpt><trkpt lat="38.0160573" lon="12.8909204"><ele>79.0</ele><time>2026-04-28T08:38:09.676Z</time></trkpt><trkpt lat="38.0160376" lon="12.8910086"><ele>79.0</ele><time>2026-04-28T08:38:10.674Z</time></trkpt><trkpt lat="38.016013" lon="12.8911036"><ele>79.0</ele><time>2026-04-28T08:38:11.677Z</time></trkpt><trkpt lat="38.015989" lon="12.8912031"><ele>78.5</ele><time>2026-04-28T08:38:12.674Z</time></trkpt><trkpt lat="38.0159656" lon="12.8913078"><ele>78.0</ele><time>2026-04-28T08:38:13.674Z</time></trkpt><trkpt lat="38.0159405" lon="12.8914138"><ele>77.5</ele><time>2026-04-28T08:38:14.675Z</time></trkpt><trkpt lat="38.0159172" lon="12.8915236"><ele>77.0</ele><time>2026-04-28T08:38:15.676Z</time></trkpt><trkpt lat="38.0159029" lon="12.8916284"><ele>76.5</ele><time>2026-04-28T08:38:16.676Z</time></trkpt><trkpt lat="38.0158824" lon="12.8917334"><ele>76.0</ele><time>2026-04-28T08:38:17.676Z</time></trkpt><trkpt lat="38.0158636" lon="12.8918399"><ele>76.0</ele><time>2026-04-28T08:38:18.674Z</time></trkpt><trkpt lat="38.0158423" lon="12.8919519"><ele>76.0</ele><time>2026-04-28T08:38:19.674Z</time></trkpt><trkpt lat="38.0158153" lon="12.892056"><ele>76.0</ele><time>2026-04-28T08:38:20.676Z</time></trkpt><trkpt lat="38.0157895" lon="12.8921692"><ele>76.0</ele><time>2026-04-28T08:38:21.674Z</time></trkpt><trkpt lat="38.0157629" lon="12.8922759"><ele>76.0</ele><time>2026-04-28T08:38:22.676Z</time></trkpt><trkpt lat="38.0157378" lon="12.8923817"><ele>76.0</ele><time>2026-04-28T08:38:23.677Z</time></trkpt><trkpt lat="38.0157106" lon="12.8924853"><ele>76.6</ele><time>2026-04-28T08:38:24.676Z</time></trkpt><trkpt lat="38.0156845" lon="12.892596"><ele>77.19999999999999</ele><time>2026-04-28T08:38:25.676Z</time></trkpt><trkpt lat="38.0156589" lon="12.892709"><ele>77.80000000000001</ele><time>2026-04-28T08:38:26.675Z</time></trkpt><trkpt lat="38.0156322" lon="12.8928151"><ele>78.4</ele><time>2026-04-28T08:38:27.675Z</time></trkpt><trkpt lat="38.0156029" lon="12.8929203"><ele>79.0</ele><time>2026-04-28T08:38:28.675Z</time></trkpt><trkpt lat="38.0155723" lon="12.8930362"><ele>79.0</ele><time>2026-04-28T08:38:29.675Z</time></trkpt><trkpt lat="38.0155466" lon="12.8931479"><ele>79.0</ele><time>2026-04-28T08:38:30.675Z</time></trkpt><trkpt lat="38.015521" lon="12.8932675"><ele>79.0</ele><time>2026-04-28T08:38:31.675Z</time></trkpt><trkpt lat="38.0154885" lon="12.8934893"><ele>79.0</ele><time>2026-04-28T08:38:33.675Z</time></trkpt><trkpt lat="38.0154819" lon="12.8936028"><ele>78.60000000000001</ele><time>2026-04-28T08:38:34.675Z</time></trkpt><trkpt lat="38.0154931" lon="12.893714"><ele>78.2</ele><time>2026-04-28T08:38:35.675Z</time></trkpt><trkpt lat="38.0155196" lon="12.8938317"><ele>77.80000000000001</ele><time>2026-04-28T08:38:36.675Z</time></trkpt><trkpt lat="38.0155577" lon="12.8939612"><ele>77.4</ele><time>2026-04-28T08:38:37.675Z</time></trkpt><trkpt lat="38.0156036" lon="12.8940982"><ele>77.0</ele><time>2026-04-28T08:38:38.675Z</time></trkpt><trkpt lat="38.0156571" lon="12.8942453"><ele>77.5</ele><time>2026-04-28T08:38:39.675Z</time></trkpt><trkpt lat="38.0157101" lon="12.8944013"><ele>78.0</ele><time>2026-04-28T08:38:40.677Z</time></trkpt><trkpt lat="38.0157645" lon="12.8945607"><ele>78.5</ele><time>2026-04-28T08:38:41.674Z</time></trkpt><trkpt lat="38.0158055" lon="12.8947313"><ele>79.0</ele><time>2026-04-28T08:38:42.675Z</time></trkpt><trkpt lat="38.0158378" lon="12.8949025"><ele>79.0</ele><time>2026-04-28T08:38:43.674Z</time></trkpt><trkpt lat="38.0158575" lon="12.8950813"><ele>79.0</ele><time>2026-04-28T08:38:44.675Z</time></trkpt><trkpt lat="38.0158664" lon="12.8952692"><ele>79.0</ele><time>2026-04-28T08:38:45.676Z</time></trkpt><trkpt lat="38.0158686" lon="12.8954637"><ele>79.0</ele><time>2026-04-28T08:38:46.676Z</time></trkpt><trkpt lat="38.0158615" lon="12.8956624"><ele>74.33333333333333</ele><time>2026-04-28T08:38:47.674Z</time></trkpt><trkpt lat="38.0158456" lon="12.895868"><ele>69.66666666666667</ele><time>2026-04-28T08:38:48.676Z</time></trkpt><trkpt lat="38.0158401" lon="12.8960781"><ele>65.0</ele><time>2026-04-28T08:38:49.674Z</time></trkpt><trkpt lat="38.0158295" lon="12.8965285"><ele>47.0</ele><time>2026-04-28T08:38:51.675Z</time></trkpt><trkpt lat="38.0158167" lon="12.8967549"><ele>29.0</ele><time>2026-04-28T08:38:52.675Z</time></trkpt><trkpt lat="38.0158045" lon="12.8969712"><ele>11.0</ele><time>2026-04-28T08:38:53.674Z</time></trkpt><trkpt lat="38.0157986" lon="12.8971854"><ele>11.0</ele><time>2026-04-28T08:38:54.675Z</time></trkpt><trkpt lat="38.0157985" lon="12.8973892"><ele>11.0</ele><time>2026-04-28T08:38:55.675Z</time></trkpt><trkpt lat="38.0157967" lon="12.8976019"><ele>11.0</ele><time>2026-04-28T08:38:56.674Z</time></trkpt><trkpt lat="38.0157894" lon="12.8978158"><ele>12.333333333333332</ele><time>2026-04-28T08:38:57.676Z</time></trkpt><trkpt lat="38.0157807" lon="12.8980342"><ele>13.666666666666666</ele><time>2026-04-28T08:38:58.675Z</time></trkpt><trkpt lat="38.015776" lon="12.898269"><ele>15.0</ele><time>2026-04-28T08:38:59.675Z</time></trkpt><trkpt lat="38.0157698" lon="12.8985104"><ele>15.333333333333332</ele><time>2026-04-28T08:39:00.675Z</time></trkpt><trkpt lat="38.0157598" lon="12.898763"><ele>15.666666666666666</ele><time>2026-04-28T08:39:01.675Z</time></trkpt><trkpt lat="38.0157543" lon="12.8990303"><ele>16.0</ele><time>2026-04-28T08:39:02.675Z</time></trkpt><trkpt lat="38.0157505" lon="12.8993075"><ele>17.0</ele><time>2026-04-28T08:39:03.674Z</time></trkpt><trkpt lat="38.0157349" lon="12.8995794"><ele>18.0</ele><time>2026-04-28T08:39:04.675Z</time></trkpt><trkpt lat="38.0157256" lon="12.8998513"><ele>19.0</ele><time>2026-04-28T08:39:05.675Z</time></trkpt><trkpt lat="38.015716" lon="12.9001213"><ele>22.333333333333332</ele><time>2026-04-28T08:39:06.677Z</time></trkpt><trkpt lat="38.0157032" lon="12.9003964"><ele>25.666666666666664</ele><time>2026-04-28T08:39:07.674Z</time></trkpt><trkpt lat="38.0156901" lon="12.9006751"><ele>29.0</ele><time>2026-04-28T08:39:08.675Z</time></trkpt><trkpt lat="38.0156628" lon="12.9009485"><ele>35.0</ele><time>2026-04-28T08:39:09.675Z</time></trkpt><trkpt lat="38.0156328" lon="12.9012214"><ele>41.0</ele><time>2026-04-28T08:39:10.675Z</time></trkpt><trkpt lat="38.0156097" lon="12.9015008"><ele>47.0</ele><time>2026-04-28T08:39:11.674Z</time></trkpt><trkpt lat="38.0155828" lon="12.9017739"><ele>53.0</ele><time>2026-04-28T08:39:12.674Z</time></trkpt><trkpt lat="38.015555" lon="12.9020493"><ele>59.0</ele><time>2026-04-28T08:39:13.676Z</time></trkpt><trkpt lat="38.015524" lon="12.9023212"><ele>65.0</ele><time>2026-04-28T08:39:14.674Z</time></trkpt><trkpt lat="38.015487" lon="12.90258"><ele>69.0</ele><time>2026-04-28T08:39:15.674Z</time></trkpt><trkpt lat="38.0154498" lon="12.9028497"><ele>73.0</ele><time>2026-04-28T08:39:16.674Z</time></trkpt><trkpt lat="38.0154068" lon="12.9031235"><ele>77.0</ele><time>2026-04-28T08:39:17.676Z</time></trkpt><trkpt lat="38.0153546" lon="12.9034049"><ele>78.5</ele><time>2026-04-28T08:39:18.675Z</time></trkpt><trkpt lat="38.0152987" lon="12.9036804"><ele>80.0</ele><time>2026-04-28T08:39:19.675Z</time></trkpt><trkpt lat="38.0152361" lon="12.9039638"><ele>81.5</ele><time>2026-04-28T08:39:20.676Z</time></trkpt><trkpt lat="38.0151682" lon="12.904251"><ele>83.0</ele><time>2026-04-28T08:39:21.676Z</time></trkpt><trkpt lat="38.0151004" lon="12.9045388"><ele>83.0</ele><time>2026-04-28T08:39:22.674Z</time></trkpt><trkpt lat="38.0150382" lon="12.9048133"><ele>83.0</ele><time>2026-04-28T08:39:23.676Z</time></trkpt><trkpt lat="38.0149747" lon="12.9050834"><ele>83.0</ele><time>2026-04-28T08:39:24.676Z</time></trkpt><trkpt lat="38.0149217" lon="12.9053618"><ele>83.0</ele><time>2026-04-28T08:39:25.675Z</time></trkpt><trkpt lat="38.0148755" lon="12.9056325"><ele>83.0</ele><time>2026-04-28T08:39:26.675Z</time></trkpt><trkpt lat="38.0148376" lon="12.9058997"><ele>83.0</ele><time>2026-04-28T08:39:27.675Z</time></trkpt><trkpt lat="38.0148042" lon="12.9061668"><ele>83.0</ele><time>2026-04-28T08:39:28.676Z</time></trkpt><trkpt lat="38.0147794" lon="12.9064377"><ele>83.0</ele><time>2026-04-28T08:39:29.675Z</time></trkpt><trkpt lat="38.0147572" lon="12.9067066"><ele>83.0</ele><time>2026-04-28T08:39:30.675Z</time></trkpt><trkpt lat="38.0147427" lon="12.9069741"><ele>83.33333333333334</ele><time>2026-04-28T08:39:31.674Z</time></trkpt><trkpt lat="38.0147351" lon="12.9072418"><ele>83.66666666666667</ele><time>2026-04-28T08:39:32.674Z</time></trkpt><trkpt lat="38.0147343" lon="12.9075088"><ele>84.0</ele><time>2026-04-28T08:39:33.676Z</time></trkpt><trkpt lat="38.0147379" lon="12.9077677"><ele>84.0</ele><time>2026-04-28T08:39:34.675Z</time></trkpt><trkpt lat="38.0147452" lon="12.9080275"><ele>84.0</ele><time>2026-04-28T08:39:35.675Z</time></trkpt><trkpt lat="38.0147552" lon="12.9082908"><ele>84.0</ele><time>2026-04-28T08:39:36.676Z</time></trkpt><trkpt lat="38.0147715" lon="12.9085564"><ele>84.0</ele><time>2026-04-28T08:39:37.675Z</time></trkpt><trkpt lat="38.0147903" lon="12.9088235"><ele>84.0</ele><time>2026-04-28T08:39:38.675Z</time></trkpt><trkpt lat="38.0148108" lon="12.9090898"><ele>84.0</ele><time>2026-04-28T08:39:39.676Z</time></trkpt><trkpt lat="38.0148309" lon="12.9093584"><ele>84.33333333333333</ele><time>2026-04-28T08:39:40.675Z</time></trkpt><trkpt lat="38.0148528" lon="12.9096234"><ele>84.66666666666666</ele><time>2026-04-28T08:39:41.675Z</time></trkpt><trkpt lat="38.0148746" lon="12.9098873"><ele>85.0</ele><time>2026-04-28T08:39:42.675Z</time></trkpt><trkpt lat="38.0148936" lon="12.9101514"><ele>84.0</ele><time>2026-04-28T08:39:43.675Z</time></trkpt><trkpt lat="38.0149141" lon="12.9104162"><ele>83.0</ele><time>2026-04-28T08:39:44.675Z</time></trkpt><trkpt lat="38.014927" lon="12.9106778"><ele>82.0</ele><time>2026-04-28T08:39:45.674Z</time></trkpt><trkpt lat="38.0149392" lon="12.9109353"><ele>81.66666666666666</ele><time>2026-04-28T08:39:46.677Z</time></trkpt><trkpt lat="38.0149493" lon="12.9111925"><ele>81.33333333333333</ele><time>2026-04-28T08:39:47.674Z</time></trkpt><trkpt lat="38.0149562" lon="12.9114529"><ele>81.0</ele><time>2026-04-28T08:39:48.676Z</time></trkpt><trkpt lat="38.0149618" lon="12.9117172"><ele>78.66666666666667</ele><time>2026-04-28T08:39:49.676Z</time></trkpt><trkpt lat="38.0149621" lon="12.9119963"><ele>76.33333333333334</ele><time>2026-04-28T08:39:50.675Z</time></trkpt><trkpt lat="38.0149561" lon="12.9122771"><ele>74.0</ele><time>2026-04-28T08:39:51.674Z</time></trkpt><trkpt lat="38.0149358" lon="12.9125413"><ele>69.33333333333334</ele><time>2026-04-28T08:39:52.674Z</time></trkpt><trkpt lat="38.0149152" lon="12.9128102"><ele>64.66666666666667</ele><time>2026-04-28T08:39:53.676Z</time></trkpt><trkpt lat="38.0149005" lon="12.9130722"><ele>60.0</ele><time>2026-04-28T08:39:54.676Z</time></trkpt><trkpt lat="38.0148724" lon="12.9133417"><ele>59.33333333333333</ele><time>2026-04-28T08:39:55.676Z</time></trkpt><trkpt lat="38.0148374" lon="12.9136021"><ele>58.666666666666664</ele><time>2026-04-28T08:39:56.675Z</time></trkpt><trkpt lat="38.0147925" lon="12.9138612"><ele>58.0</ele><time>2026-04-28T08:39:57.675Z</time></trkpt><trkpt lat="38.0147517" lon="12.9141265"><ele>63.33333333333333</ele><time>2026-04-28T08:39:58.675Z</time></trkpt><trkpt lat="38.0147047" lon="12.9143857"><ele>68.66666666666667</ele><time>2026-04-28T08:39:59.675Z</time></trkpt><trkpt lat="38.014654" lon="12.9146444"><ele>74.0</ele><time>2026-04-28T08:40:00.675Z</time></trkpt><trkpt lat="38.0145975" lon="12.9148972"><ele>76.0</ele><time>2026-04-28T08:40:01.676Z</time></trkpt><trkpt lat="38.0145423" lon="12.9151595"><ele>78.0</ele><time>2026-04-28T08:40:02.675Z</time></trkpt><trkpt lat="38.0144751" lon="12.9154132"><ele>80.0</ele><time>2026-04-28T08:40:03.675Z</time></trkpt><trkpt lat="38.0144024" lon="12.9156612"><ele>80.0</ele><time>2026-04-28T08:40:04.675Z</time></trkpt><trkpt lat="38.0143247" lon="12.9158976"><ele>80.0</ele><time>2026-04-28T08:40:05.675Z</time></trkpt><trkpt lat="38.0142444" lon="12.9161468"><ele>80.0</ele><time>2026-04-28T08:40:06.675Z</time></trkpt><trkpt lat="38.014164" lon="12.916395"><ele>82.0</ele><time>2026-04-28T08:40:07.675Z</time></trkpt><trkpt lat="38.0140823" lon="12.9166311"><ele>84.0</ele><time>2026-04-28T08:40:08.675Z</time></trkpt><trkpt lat="38.0139963" lon="12.916872"><ele>86.0</ele><time>2026-04-28T08:40:09.675Z</time></trkpt><trkpt lat="38.0139052" lon="12.9171091"><ele>87.33333333333334</ele><time>2026-04-28T08:40:10.676Z</time></trkpt><trkpt lat="38.0138106" lon="12.9173476"><ele>88.66666666666667</ele><time>2026-04-28T08:40:11.675Z</time></trkpt><trkpt lat="38.0137148" lon="12.9175907"><ele>90.0</ele><time>2026-04-28T08:40:12.675Z</time></trkpt><trkpt lat="38.0136125" lon="12.9178257"><ele>90.0</ele><time>2026-04-28T08:40:13.676Z</time></trkpt><trkpt lat="38.0135225" lon="12.9180678"><ele>90.0</ele><time>2026-04-28T08:40:14.675Z</time></trkpt><trkpt lat="38.0133409" lon="12.9185478"><ele>92.33333333333334</ele><time>2026-04-28T08:40:16.674Z</time></trkpt><trkpt lat="38.0132552" lon="12.9187889"><ele>94.66666666666667</ele><time>2026-04-28T08:40:17.675Z</time></trkpt><trkpt lat="38.0131778" lon="12.9190238"><ele>97.0</ele><time>2026-04-28T08:40:18.675Z</time></trkpt><trkpt lat="38.0130969" lon="12.9192641"><ele>98.0</ele><time>2026-04-28T08:40:19.675Z</time></trkpt><trkpt lat="38.0130236" lon="12.9195025"><ele>99.0</ele><time>2026-04-28T08:40:20.675Z</time></trkpt><trkpt lat="38.0129542" lon="12.9197449"><ele>100.0</ele><time>2026-04-28T08:40:21.675Z</time></trkpt><trkpt lat="38.0128895" lon="12.9199794"><ele>101.0</ele><time>2026-04-28T08:40:22.676Z</time></trkpt><trkpt lat="38.0128221" lon="12.9202227"><ele>102.0</ele><time>2026-04-28T08:40:23.675Z</time></trkpt><trkpt lat="38.0127591" lon="12.9204611"><ele>103.0</ele><time>2026-04-28T08:40:24.675Z</time></trkpt><trkpt lat="38.0126929" lon="12.9207043"><ele>102.66666666666667</ele><time>2026-04-28T08:40:25.674Z</time></trkpt><trkpt lat="38.0126314" lon="12.9209432"><ele>102.33333333333334</ele><time>2026-04-28T08:40:26.676Z</time></trkpt><trkpt lat="38.0125676" lon="12.9211809"><ele>102.0</ele><time>2026-04-28T08:40:27.675Z</time></trkpt><trkpt lat="38.0125052" lon="12.9214181"><ele>104.33333333333334</ele><time>2026-04-28T08:40:28.675Z</time></trkpt><trkpt lat="38.0124392" lon="12.9216582"><ele>106.66666666666667</ele><time>2026-04-28T08:40:29.675Z</time></trkpt><trkpt lat="38.0123752" lon="12.9218976"><ele>109.0</ele><time>2026-04-28T08:40:30.676Z</time></trkpt><trkpt lat="38.0123076" lon="12.9221302"><ele>109.0</ele><time>2026-04-28T08:40:31.676Z</time></trkpt><trkpt lat="38.0122467" lon="12.9223736"><ele>109.0</ele><time>2026-04-28T08:40:32.675Z</time></trkpt><trkpt lat="38.0121768" lon="12.9226058"><ele>109.0</ele><time>2026-04-28T08:40:33.675Z</time></trkpt><trkpt lat="38.012113" lon="12.9228427"><ele>109.0</ele><time>2026-04-28T08:40:34.675Z</time></trkpt><trkpt lat="38.0120451" lon="12.9230816"><ele>109.0</ele><time>2026-04-28T08:40:35.675Z</time></trkpt><trkpt lat="38.0119645" lon="12.9233075"><ele>109.0</ele><time>2026-04-28T08:40:36.675Z</time></trkpt><trkpt lat="38.0118928" lon="12.9235372"><ele>109.33333333333334</ele><time>2026-04-28T08:40:37.675Z</time></trkpt><trkpt lat="38.0118209" lon="12.9237698"><ele>109.66666666666666</ele><time>2026-04-28T08:40:38.674Z</time></trkpt><trkpt lat="38.0117471" lon="12.9239993"><ele>110.0</ele><time>2026-04-28T08:40:39.676Z</time></trkpt><trkpt lat="38.0116716" lon="12.9242294"><ele>111.66666666666666</ele><time>2026-04-28T08:40:40.676Z</time></trkpt><trkpt lat="38.0115992" lon="12.9244523"><ele>113.33333333333334</ele><time>2026-04-28T08:40:41.675Z</time></trkpt><trkpt lat="38.0115155" lon="12.9246811"><ele>115.0</ele><time>2026-04-28T08:40:42.675Z</time></trkpt><trkpt lat="38.0114244" lon="12.9249048"><ele>113.33333333333334</ele><time>2026-04-28T08:40:43.676Z</time></trkpt><trkpt lat="38.0113286" lon="12.9251253"><ele>111.66666666666666</ele><time>2026-04-28T08:40:44.676Z</time></trkpt><trkpt lat="38.011234" lon="12.9253416"><ele>110.0</ele><time>2026-04-28T08:40:45.675Z</time></trkpt><trkpt lat="38.011136" lon="12.9255516"><ele>110.0</ele><time>2026-04-28T08:40:46.675Z</time></trkpt><trkpt lat="38.0110268" lon="12.9257553"><ele>110.0</ele><time>2026-04-28T08:40:47.675Z</time></trkpt><trkpt lat="38.0109208" lon="12.9259643"><ele>110.0</ele><time>2026-04-28T08:40:48.676Z</time></trkpt><trkpt lat="38.0108169" lon="12.926155"><ele>112.66666666666666</ele><time>2026-04-28T08:40:49.675Z</time></trkpt><trkpt lat="38.0107056" lon="12.9263383"><ele>115.33333333333334</ele><time>2026-04-28T08:40:50.675Z</time></trkpt><trkpt lat="38.010601" lon="12.9265119"><ele>118.0</ele><time>2026-04-28T08:40:51.676Z</time></trkpt><trkpt lat="38.0105009" lon="12.9266795"><ele>119.0</ele><time>2026-04-28T08:40:52.677Z</time></trkpt><trkpt lat="38.0104039" lon="12.9268193"><ele>120.0</ele><time>2026-04-28T08:40:53.674Z</time></trkpt><trkpt lat="38.0103091" lon="12.9269467"><ele>121.0</ele><time>2026-04-28T08:40:54.676Z</time></trkpt><trkpt lat="38.0102176" lon="12.927049"><ele>122.0</ele><time>2026-04-28T08:40:55.676Z</time></trkpt><trkpt lat="38.0101074" lon="12.9271356"><ele>122.0</ele><time>2026-04-28T08:40:56.675Z</time></trkpt><trkpt lat="38.0100025" lon="12.9271723"><ele>121.99999999999999</ele><time>2026-04-28T08:40:57.676Z</time></trkpt><trkpt lat="38.0098916" lon="12.9271873"><ele>121.99999999999999</ele><time>2026-04-28T08:40:58.675Z</time></trkpt><trkpt lat="38.0097798" lon="12.9271756"><ele>122.0</ele><time>2026-04-28T08:40:59.675Z</time></trkpt><trkpt lat="38.0096822" lon="12.927136"><ele>122.0</ele><time>2026-04-28T08:41:00.674Z</time></trkpt><trkpt lat="38.009592" lon="12.9270705"><ele>122.19999999999999</ele><time>2026-04-28T08:41:01.675Z</time></trkpt><trkpt lat="38.0095083" lon="12.9269915"><ele>122.39999999999999</ele><time>2026-04-28T08:41:02.674Z</time></trkpt><trkpt lat="38.0094267" lon="12.9269011"><ele>122.60000000000001</ele><time>2026-04-28T08:41:03.675Z</time></trkpt><trkpt lat="38.0093548" lon="12.9268113"><ele>122.80000000000001</ele><time>2026-04-28T08:41:04.675Z</time></trkpt><trkpt lat="38.0093077" lon="12.9266875"><ele>123.0</ele><time>2026-04-28T08:41:05.674Z</time></trkpt><trkpt lat="38.0092665" lon="12.92659"><ele>122.83333333333333</ele><time>2026-04-28T08:41:06.676Z</time></trkpt><trkpt lat="38.0092368" lon="12.926485"><ele>122.66666666666666</ele><time>2026-04-28T08:41:07.676Z</time></trkpt><trkpt lat="38.0092106" lon="12.9263817"><ele>122.5</ele><time>2026-04-28T08:41:08.675Z</time></trkpt><trkpt lat="38.0091829" lon="12.926281"><ele>122.33333333333333</ele><time>2026-04-28T08:41:09.675Z</time></trkpt><trkpt lat="38.0091382" lon="12.9262037"><ele>122.16666666666666</ele><time>2026-04-28T08:41:10.675Z</time></trkpt><trkpt lat="38.009088" lon="12.9261449"><ele>122.0</ele><time>2026-04-28T08:41:11.675Z</time></trkpt><trkpt lat="38.008989" lon="12.9260796"><ele>122.0</ele><time>2026-04-28T08:41:13.675Z</time></trkpt><trkpt lat="38.0089227" lon="12.9260723"><ele>121.99999999999999</ele><time>2026-04-28T08:41:14.675Z</time></trkpt><trkpt lat="38.0088449" lon="12.9260899"><ele>121.99999999999999</ele><time>2026-04-28T08:41:15.676Z</time></trkpt><trkpt lat="38.0087481" lon="12.9261274"><ele>122.0</ele><time>2026-04-28T08:41:16.674Z</time></trkpt><trkpt lat="38.0086518" lon="12.9261799"><ele>122.0</ele><time>2026-04-28T08:41:17.676Z</time></trkpt><trkpt lat="38.0085417" lon="12.9262376"><ele>122.0</ele><time>2026-04-28T08:41:18.675Z</time></trkpt><trkpt lat="38.0084312" lon="12.9263039"><ele>122.0</ele><time>2026-04-28T08:41:19.674Z</time></trkpt><trkpt lat="38.0083068" lon="12.9263905"><ele>122.0</ele><time>2026-04-28T08:41:20.675Z</time></trkpt><trkpt lat="38.0081774" lon="12.926494"><ele>122.0</ele><time>2026-04-28T08:41:21.675Z</time></trkpt><trkpt lat="38.0080389" lon="12.9266071"><ele>123.0</ele><time>2026-04-28T08:41:22.674Z</time></trkpt><trkpt lat="38.0079052" lon="12.9267296"><ele>124.0</ele><time>2026-04-28T08:41:23.675Z</time></trkpt><trkpt lat="38.00776" lon="12.9268535"><ele>125.0</ele><time>2026-04-28T08:41:24.675Z</time></trkpt><trkpt lat="38.0076151" lon="12.926979"><ele>126.33333333333333</ele><time>2026-04-28T08:41:25.677Z</time></trkpt><trkpt lat="38.0074666" lon="12.9271123"><ele>127.66666666666666</ele><time>2026-04-28T08:41:26.675Z</time></trkpt><trkpt lat="38.0073142" lon="12.9272485"><ele>129.0</ele><time>2026-04-28T08:41:27.675Z</time></trkpt><trkpt lat="38.0071765" lon="12.9273809"><ele>129.0</ele><time>2026-04-28T08:41:28.675Z</time></trkpt><trkpt lat="38.0070394" lon="12.927505"><ele>129.0</ele><time>2026-04-28T08:41:29.676Z</time></trkpt><trkpt lat="38.0069095" lon="12.9276221"><ele>129.0</ele><time>2026-04-28T08:41:30.676Z</time></trkpt><trkpt lat="38.0067702" lon="12.9277362"><ele>130.0</ele><time>2026-04-28T08:41:31.675Z</time></trkpt><trkpt lat="38.0066271" lon="12.9278618"><ele>131.0</ele><time>2026-04-28T08:41:32.675Z</time></trkpt><trkpt lat="38.0064793" lon="12.9279808"><ele>132.0</ele><time>2026-04-28T08:41:33.675Z</time></trkpt><trkpt lat="38.0063395" lon="12.9281107"><ele>132.0</ele><time>2026-04-28T08:41:34.676Z</time></trkpt><trkpt lat="38.0061932" lon="12.9282409"><ele>132.0</ele><time>2026-04-28T08:41:35.675Z</time></trkpt><trkpt lat="38.0060425" lon="12.9283782"><ele>132.0</ele><time>2026-04-28T08:41:36.674Z</time></trkpt><trkpt lat="38.0058941" lon="12.9285108"><ele>132.66666666666666</ele><time>2026-04-28T08:41:37.675Z</time></trkpt><trkpt lat="38.0057449" lon="12.9286499"><ele>133.33333333333331</ele><time>2026-04-28T08:41:38.675Z</time></trkpt><trkpt lat="38.005587" lon="12.9287828"><ele>134.0</ele><time>2026-04-28T08:41:39.675Z</time></trkpt><trkpt lat="38.0054351" lon="12.9289053"><ele>134.0</ele><time>2026-04-28T08:41:40.676Z</time></trkpt><trkpt lat="38.0052781" lon="12.9290254"><ele>134.0</ele><time>2026-04-28T08:41:41.676Z</time></trkpt><trkpt lat="38.0051176" lon="12.9291469"><ele>134.0</ele><time>2026-04-28T08:41:42.675Z</time></trkpt><trkpt lat="38.0049495" lon="12.9292672"><ele>134.0</ele><time>2026-04-28T08:41:43.675Z</time></trkpt><trkpt lat="38.0047786" lon="12.9293947"><ele>134.0</ele><time>2026-04-28T08:41:44.676Z</time></trkpt><trkpt lat="38.0046053" lon="12.9295171"><ele>134.0</ele><time>2026-04-28T08:41:45.676Z</time></trkpt><trkpt lat="38.0044327" lon="12.9296466"><ele>134.0</ele><time>2026-04-28T08:41:46.676Z</time></trkpt><trkpt lat="38.0042569" lon="12.9297688"><ele>134.0</ele><time>2026-04-28T08:41:47.675Z</time></trkpt><trkpt lat="38.0040788" lon="12.9298876"><ele>134.0</ele><time>2026-04-28T08:41:48.675Z</time></trkpt><trkpt lat="38.0039145" lon="12.9300071"><ele>133.66666666666666</ele><time>2026-04-28T08:41:49.675Z</time></trkpt><trkpt lat="38.0037416" lon="12.9301293"><ele>133.33333333333334</ele><time>2026-04-28T08:41:50.674Z</time></trkpt><trkpt lat="38.0035797" lon="12.9302533"><ele>133.0</ele><time>2026-04-28T08:41:51.675Z</time></trkpt><trkpt lat="38.0034175" lon="12.9303858"><ele>134.66666666666669</ele><time>2026-04-28T08:41:52.676Z</time></trkpt><trkpt lat="38.0032709" lon="12.93053"><ele>136.33333333333334</ele><time>2026-04-28T08:41:53.675Z</time></trkpt><trkpt lat="38.0031384" lon="12.9306807"><ele>138.0</ele><time>2026-04-28T08:41:54.675Z</time></trkpt><trkpt lat="38.0029996" lon="12.9308471"><ele>137.66666666666666</ele><time>2026-04-28T08:41:55.675Z</time></trkpt><trkpt lat="38.0028571" lon="12.9310206"><ele>137.33333333333331</ele><time>2026-04-28T08:41:56.676Z</time></trkpt><trkpt lat="38.0027186" lon="12.9311857"><ele>137.0</ele><time>2026-04-28T08:41:57.676Z</time></trkpt><trkpt lat="38.0025809" lon="12.9313495"><ele>138.66666666666666</ele><time>2026-04-28T08:41:58.675Z</time></trkpt><trkpt lat="38.0024448" lon="12.9315121"><ele>140.33333333333334</ele><time>2026-04-28T08:41:59.676Z</time></trkpt><trkpt lat="38.0023085" lon="12.9316746"><ele>142.0</ele><time>2026-04-28T08:42:00.676Z</time></trkpt><trkpt lat="38.0021806" lon="12.9318271"><ele>142.0</ele><time>2026-04-28T08:42:01.676Z</time></trkpt><trkpt lat="38.0020613" lon="12.9319672"><ele>142.0</ele><time>2026-04-28T08:42:02.675Z</time></trkpt><trkpt lat="38.0019392" lon="12.9321117"><ele>142.0</ele><time>2026-04-28T08:42:03.676Z</time></trkpt><trkpt lat="38.0018167" lon="12.9322593"><ele>142.0</ele><time>2026-04-28T08:42:04.674Z</time></trkpt><trkpt lat="38.0017012" lon="12.9324001"><ele>142.0</ele><time>2026-04-28T08:42:05.676Z</time></trkpt><trkpt lat="38.0015853" lon="12.9325385"><ele>142.0</ele><time>2026-04-28T08:42:06.676Z</time></trkpt><trkpt lat="38.001465" lon="12.932681"><ele>141.33333333333334</ele><time>2026-04-28T08:42:07.676Z</time></trkpt><trkpt lat="38.001342" lon="12.932825"><ele>140.66666666666666</ele><time>2026-04-28T08:42:08.676Z</time></trkpt><trkpt lat="38.0012151" lon="12.9329653"><ele>140.0</ele><time>2026-04-28T08:42:09.676Z</time></trkpt><trkpt lat="38.0010889" lon="12.9330922"><ele>140.0</ele><time>2026-04-28T08:42:10.675Z</time></trkpt><trkpt lat="38.0009549" lon="12.9332002"><ele>140.0</ele><time>2026-04-28T08:42:11.676Z</time></trkpt><trkpt lat="38.0008213" lon="12.9332899"><ele>140.0</ele><time>2026-04-28T08:42:12.676Z</time></trkpt><trkpt lat="38.000683" lon="12.9333574"><ele>140.25</ele><time>2026-04-28T08:42:13.675Z</time></trkpt><trkpt lat="38.0005366" lon="12.9334189"><ele>140.5</ele><time>2026-04-28T08:42:14.676Z</time></trkpt><trkpt lat="38.0003965" lon="12.9334571"><ele>140.75</ele><time>2026-04-28T08:42:15.675Z</time></trkpt><trkpt lat="38.0002499" lon="12.9334903"><ele>141.0</ele><time>2026-04-28T08:42:16.676Z</time></trkpt><trkpt lat="38.0000942" lon="12.9335151"><ele>141.0</ele><time>2026-04-28T08:42:17.676Z</time></trkpt><trkpt lat="37.9999397" lon="12.9335396"><ele>141.0</ele><time>2026-04-28T08:42:18.674Z</time></trkpt><trkpt lat="37.9997852" lon="12.9335709"><ele>141.0</ele><time>2026-04-28T08:42:19.677Z</time></trkpt><trkpt lat="37.9996353" lon="12.9336047"><ele>141.0</ele><time>2026-04-28T08:42:20.677Z</time></trkpt><trkpt lat="37.9994992" lon="12.9336627"><ele>141.0</ele><time>2026-04-28T08:42:21.674Z</time></trkpt><trkpt lat="37.9993822" lon="12.9337514"><ele>141.0</ele><time>2026-04-28T08:42:22.674Z</time></trkpt><trkpt lat="37.9992834" lon="12.933853"><ele>141.0</ele><time>2026-04-28T08:42:23.676Z</time></trkpt><trkpt lat="37.9991944" lon="12.9339715"><ele>141.75</ele><time>2026-04-28T08:42:24.675Z</time></trkpt><trkpt lat="37.9991266" lon="12.9341087"><ele>142.5</ele><time>2026-04-28T08:42:25.675Z</time></trkpt><trkpt lat="37.9990691" lon="12.9342533"><ele>143.25</ele><time>2026-04-28T08:42:26.677Z</time></trkpt><trkpt lat="37.9990321" lon="12.9344134"><ele>144.0</ele><time>2026-04-28T08:42:27.675Z</time></trkpt><trkpt lat="37.9990067" lon="12.9345797"><ele>144.75</ele><time>2026-04-28T08:42:28.676Z</time></trkpt><trkpt lat="37.9989821" lon="12.9347527"><ele>145.5</ele><time>2026-04-28T08:42:29.675Z</time></trkpt><trkpt lat="37.9989576" lon="12.9349254"><ele>146.25</ele><time>2026-04-28T08:42:30.675Z</time></trkpt><trkpt lat="37.9989363" lon="12.9350978"><ele>147.0</ele><time>2026-04-28T08:42:31.675Z</time></trkpt><trkpt lat="37.9989137" lon="12.935268"><ele>147.5</ele><time>2026-04-28T08:42:32.675Z</time></trkpt><trkpt lat="37.99889" lon="12.9354411"><ele>148.0</ele><time>2026-04-28T08:42:33.675Z</time></trkpt><trkpt lat="37.9988695" lon="12.9356128"><ele>148.5</ele><time>2026-04-28T08:42:34.675Z</time></trkpt><trkpt lat="37.9988466" lon="12.9357845"><ele>149.0</ele><time>2026-04-28T08:42:35.675Z</time></trkpt><trkpt lat="37.9988168" lon="12.9359502"><ele>149.0</ele><time>2026-04-28T08:42:36.676Z</time></trkpt><trkpt lat="37.9987693" lon="12.9360978"><ele>149.0</ele><time>2026-04-28T08:42:37.677Z</time></trkpt><trkpt lat="37.9986995" lon="12.9362368"><ele>149.0</ele><time>2026-04-28T08:42:38.675Z</time></trkpt><trkpt lat="37.9986211" lon="12.936361"><ele>149.0</ele><time>2026-04-28T08:42:39.675Z</time></trkpt><trkpt lat="37.9985269" lon="12.9364772"><ele>149.0</ele><time>2026-04-28T08:42:40.676Z</time></trkpt><trkpt lat="37.9984244" lon="12.9365902"><ele>149.0</ele><time>2026-04-28T08:42:41.675Z</time></trkpt><trkpt lat="37.9983132" lon="12.936694"><ele>149.0</ele><time>2026-04-28T08:42:42.675Z</time></trkpt><trkpt lat="37.9981926" lon="12.9368064"><ele>149.0</ele><time>2026-04-28T08:42:43.675Z</time></trkpt><trkpt lat="37.9980543" lon="12.9369094"><ele>148.25</ele><time>2026-04-28T08:42:44.676Z</time></trkpt><trkpt lat="37.9979381" lon="12.9370138"><ele>147.5</ele><time>2026-04-28T08:42:45.675Z</time></trkpt><trkpt lat="37.9978223" lon="12.9371185"><ele>146.75</ele><time>2026-04-28T08:42:46.677Z</time></trkpt><trkpt lat="37.9977016" lon="12.9372276"><ele>146.0</ele><time>2026-04-28T08:42:47.675Z</time></trkpt><trkpt lat="37.9975783" lon="12.9373303"><ele>148.0</ele><time>2026-04-28T08:42:48.675Z</time></trkpt><trkpt lat="37.9974614" lon="12.9374329"><ele>150.0</ele><time>2026-04-28T08:42:49.676Z</time></trkpt><trkpt lat="37.9973428" lon="12.9375373"><ele>152.0</ele><time>2026-04-28T08:42:50.675Z</time></trkpt><trkpt lat="37.9972227" lon="12.937649"><ele>154.0</ele><time>2026-04-28T08:42:51.676Z</time></trkpt><trkpt lat="37.997093" lon="12.9377499"><ele>154.25</ele><time>2026-04-28T08:42:52.677Z</time></trkpt><trkpt lat="37.9969674" lon="12.9378578"><ele>154.5</ele><time>2026-04-28T08:42:53.675Z</time></trkpt><trkpt lat="37.9968505" lon="12.9379644"><ele>154.75</ele><time>2026-04-28T08:42:54.675Z</time></trkpt><trkpt lat="37.9967279" lon="12.9380756"><ele>155.0</ele><time>2026-04-28T08:42:55.676Z</time></trkpt><trkpt lat="37.9966208" lon="12.9381941"><ele>155.0</ele><time>2026-04-28T08:42:56.675Z</time></trkpt><trkpt lat="37.9965099" lon="12.9383262"><ele>155.0</ele><time>2026-04-28T08:42:57.676Z</time></trkpt><trkpt lat="37.9964359" lon="12.93846"><ele>155.0</ele><time>2026-04-28T08:42:58.676Z</time></trkpt><trkpt lat="37.996345" lon="12.9386161"><ele>155.0</ele><time>2026-04-28T08:42:59.675Z</time></trkpt><trkpt lat="37.996257" lon="12.9387703"><ele>155.75</ele><time>2026-04-28T08:43:00.676Z</time></trkpt><trkpt lat="37.9961775" lon="12.9389233"><ele>156.5</ele><time>2026-04-28T08:43:01.675Z</time></trkpt><trkpt lat="37.996102" lon="12.9390903"><ele>157.25</ele><time>2026-04-28T08:43:02.675Z</time></trkpt><trkpt lat="37.9960295" lon="12.9392384"><ele>158.0</ele><time>2026-04-28T08:43:03.675Z</time></trkpt><trkpt lat="37.995958" lon="12.9394164"><ele>158.0</ele><time>2026-04-28T08:43:04.675Z</time></trkpt><trkpt lat="37.995887" lon="12.9395808"><ele>158.0</ele><time>2026-04-28T08:43:05.675Z</time></trkpt><trkpt lat="37.9958178" lon="12.9397525"><ele>158.0</ele><time>2026-04-28T08:43:06.675Z</time></trkpt><trkpt lat="37.995749" lon="12.9399213"><ele>158.0</ele><time>2026-04-28T08:43:07.675Z</time></trkpt><trkpt lat="37.9956841" lon="12.9400974"><ele>153.0</ele><time>2026-04-28T08:43:08.675Z</time></trkpt><trkpt lat="37.9956189" lon="12.9402703"><ele>148.0</ele><time>2026-04-28T08:43:09.675Z</time></trkpt><trkpt lat="37.9955469" lon="12.9404447"><ele>143.0</ele><time>2026-04-28T08:43:10.675Z</time></trkpt><trkpt lat="37.99548" lon="12.9406077"><ele>143.0</ele><time>2026-04-28T08:43:11.676Z</time></trkpt><trkpt lat="37.9954095" lon="12.9407722"><ele>143.0</ele><time>2026-04-28T08:43:12.675Z</time></trkpt><trkpt lat="37.9953303" lon="12.9409305"><ele>143.0</ele><time>2026-04-28T08:43:13.675Z</time></trkpt><trkpt lat="37.9952691" lon="12.9410942"><ele>143.0</ele><time>2026-04-28T08:43:14.676Z</time></trkpt><trkpt lat="37.995198" lon="12.9412547"><ele>144.0</ele><time>2026-04-28T08:43:15.675Z</time></trkpt><trkpt lat="37.9951418" lon="12.9414241"><ele>145.0</ele><time>2026-04-28T08:43:16.676Z</time></trkpt><trkpt lat="37.9950983" lon="12.9415987"><ele>146.0</ele><time>2026-04-28T08:43:17.675Z</time></trkpt><trkpt lat="37.995058" lon="12.941776"><ele>147.0</ele><time>2026-04-28T08:43:18.675Z</time></trkpt><trkpt lat="37.995031" lon="12.9419601"><ele>150.25</ele><time>2026-04-28T08:43:19.676Z</time></trkpt><trkpt lat="37.9950114" lon="12.9421409"><ele>153.5</ele><time>2026-04-28T08:43:20.675Z</time></trkpt><trkpt lat="37.9950023" lon="12.9423186"><ele>156.75</ele><time>2026-04-28T08:43:21.675Z</time></trkpt><trkpt lat="37.9950014" lon="12.9424954"><ele>160.0</ele><time>2026-04-28T08:43:22.677Z</time></trkpt><trkpt lat="37.9950096" lon="12.9426708"><ele>163.0</ele><time>2026-04-28T08:43:23.675Z</time></trkpt><trkpt lat="37.9950158" lon="12.9428302"><ele>166.0</ele><time>2026-04-28T08:43:24.675Z</time></trkpt><trkpt lat="37.9950326" lon="12.942995"><ele>169.0</ele><time>2026-04-28T08:43:25.675Z</time></trkpt><trkpt lat="37.9950536" lon="12.9431523"><ele>172.0</ele><time>2026-04-28T08:43:26.676Z</time></trkpt><trkpt lat="37.9950735" lon="12.9433015"><ele>173.0</ele><time>2026-04-28T08:43:27.675Z</time></trkpt><trkpt lat="37.99509" lon="12.943439"><ele>174.0</ele><time>2026-04-28T08:43:28.675Z</time></trkpt><trkpt lat="37.9951041" lon="12.9435685"><ele>175.0</ele><time>2026-04-28T08:43:29.676Z</time></trkpt><trkpt lat="37.9951034" lon="12.9436982"><ele>176.0</ele><time>2026-04-28T08:43:30.675Z</time></trkpt><trkpt lat="37.9950847" lon="12.9438196"><ele>177.0</ele><time>2026-04-28T08:43:31.676Z</time></trkpt><trkpt lat="37.9950442" lon="12.943946"><ele>177.2</ele><time>2026-04-28T08:43:32.675Z</time></trkpt><trkpt lat="37.9949927" lon="12.9440567"><ele>177.39999999999998</ele><time>2026-04-28T08:43:33.675Z</time></trkpt><trkpt lat="37.9949272" lon="12.9441587"><ele>177.60000000000002</ele><time>2026-04-28T08:43:34.677Z</time></trkpt><trkpt lat="37.99485" lon="12.9442535"><ele>177.8</ele><time>2026-04-28T08:43:35.675Z</time></trkpt><trkpt lat="37.9947705" lon="12.9443411"><ele>178.0</ele><time>2026-04-28T08:43:36.675Z</time></trkpt><trkpt lat="37.9947007" lon="12.9444239"><ele>178.0</ele><time>2026-04-28T08:43:37.676Z</time></trkpt><trkpt lat="37.9946294" lon="12.9445035"><ele>178.0</ele><time>2026-04-28T08:43:38.675Z</time></trkpt><trkpt lat="37.9945634" lon="12.9445851"><ele>178.0</ele><time>2026-04-28T08:43:39.677Z</time></trkpt><trkpt lat="37.9944911" lon="12.9446579"><ele>178.0</ele><time>2026-04-28T08:43:40.675Z</time></trkpt><trkpt lat="37.9944207" lon="12.9447301"><ele>178.0</ele><time>2026-04-28T08:43:41.676Z</time></trkpt><trkpt lat="37.9943513" lon="12.9447985"><ele>178.0</ele><time>2026-04-28T08:43:42.675Z</time></trkpt><trkpt lat="37.9942761" lon="12.9448691"><ele>178.0</ele><time>2026-04-28T08:43:43.676Z</time></trkpt><trkpt lat="37.9941906" lon="12.9449514"><ele>178.0</ele><time>2026-04-28T08:43:44.675Z</time></trkpt><trkpt lat="37.9941086" lon="12.9450346"><ele>178.0</ele><time>2026-04-28T08:43:45.676Z</time></trkpt><trkpt lat="37.9940182" lon="12.9451162"><ele>178.0</ele><time>2026-04-28T08:43:46.676Z</time></trkpt><trkpt lat="37.9939272" lon="12.9452071"><ele>179.75</ele><time>2026-04-28T08:43:47.675Z</time></trkpt><trkpt lat="37.9938346" lon="12.9452998"><ele>181.5</ele><time>2026-04-28T08:43:48.675Z</time></trkpt><trkpt lat="37.9937319" lon="12.9454039"><ele>183.25</ele><time>2026-04-28T08:43:49.675Z</time></trkpt><trkpt lat="37.9936281" lon="12.9455069"><ele>185.0</ele><time>2026-04-28T08:43:50.676Z</time></trkpt><trkpt lat="37.9935373" lon="12.9456039"><ele>185.0</ele><time>2026-04-28T08:43:51.676Z</time></trkpt><trkpt lat="37.9934484" lon="12.9456999"><ele>185.0</ele><time>2026-04-28T08:43:52.677Z</time></trkpt><trkpt lat="37.9933582" lon="12.945796"><ele>185.0</ele><time>2026-04-28T08:43:53.675Z</time></trkpt><trkpt lat="37.993253" lon="12.9459034"><ele>185.0</ele><time>2026-04-28T08:43:54.677Z</time></trkpt><trkpt lat="37.9931438" lon="12.9460047"><ele>186.25</ele><time>2026-04-28T08:43:55.675Z</time></trkpt><trkpt lat="37.9930381" lon="12.9461127"><ele>187.5</ele><time>2026-04-28T08:43:56.675Z</time></trkpt><trkpt lat="37.9929483" lon="12.9462093"><ele>188.75</ele><time>2026-04-28T08:43:57.677Z</time></trkpt><trkpt lat="37.9928662" lon="12.9462992"><ele>190.0</ele><time>2026-04-28T08:43:58.675Z</time></trkpt><trkpt lat="37.9927826" lon="12.9463902"><ele>190.0</ele><time>2026-04-28T08:43:59.675Z</time></trkpt><trkpt lat="37.9927133" lon="12.9464899"><ele>190.0</ele><time>2026-04-28T08:44:00.676Z</time></trkpt><trkpt lat="37.9926322" lon="12.9465943"><ele>190.0</ele><time>2026-04-28T08:44:01.675Z</time></trkpt><trkpt lat="37.992554" lon="12.9467053"><ele>190.0</ele><time>2026-04-28T08:44:02.675Z</time></trkpt><trkpt lat="37.9924795" lon="12.946819"><ele>190.25</ele><time>2026-04-28T08:44:03.675Z</time></trkpt><trkpt lat="37.9924071" lon="12.9469296"><ele>190.5</ele><time>2026-04-28T08:44:04.676Z</time></trkpt><trkpt lat="37.9923378" lon="12.9470501"><ele>190.75</ele><time>2026-04-28T08:44:05.675Z</time></trkpt><trkpt lat="37.9922655" lon="12.9471656"><ele>191.0</ele><time>2026-04-28T08:44:06.675Z</time></trkpt><trkpt lat="37.9921922" lon="12.9472799"><ele>191.0</ele><time>2026-04-28T08:44:07.675Z</time></trkpt><trkpt lat="37.9921259" lon="12.9473893"><ele>191.0</ele><time>2026-04-28T08:44:08.676Z</time></trkpt><trkpt lat="37.9920616" lon="12.9474885"><ele>191.0</ele><time>2026-04-28T08:44:09.676Z</time></trkpt><trkpt lat="37.9919912" lon="12.9475908"><ele>191.0</ele><time>2026-04-28T08:44:10.676Z</time></trkpt><trkpt lat="37.9919254" lon="12.9476883"><ele>191.0</ele><time>2026-04-28T08:44:11.675Z</time></trkpt><trkpt lat="37.991844" lon="12.9477777"><ele>189.8</ele><time>2026-04-28T08:44:12.675Z</time></trkpt><trkpt lat="37.9917582" lon="12.9478453"><ele>188.60000000000002</ele><time>2026-04-28T08:44:13.675Z</time></trkpt><trkpt lat="37.9916666" lon="12.9478951"><ele>187.4</ele><time>2026-04-28T08:44:14.675Z</time></trkpt><trkpt lat="37.9915668" lon="12.9479477"><ele>186.2</ele><time>2026-04-28T08:44:15.675Z</time></trkpt><trkpt lat="37.9914666" lon="12.947991"><ele>185.0</ele><time>2026-04-28T08:44:16.676Z</time></trkpt><trkpt lat="37.9913771" lon="12.9480324"><ele>185.0</ele><time>2026-04-28T08:44:17.676Z</time></trkpt><trkpt lat="37.9912873" lon="12.9480675"><ele>185.0</ele><time>2026-04-28T08:44:18.677Z</time></trkpt><trkpt lat="37.9911938" lon="12.9481019"><ele>185.0</ele><time>2026-04-28T08:44:19.676Z</time></trkpt><trkpt lat="37.9910991" lon="12.9481458"><ele>185.0</ele><time>2026-04-28T08:44:20.676Z</time></trkpt><trkpt lat="37.9909941" lon="12.9481808"><ele>185.0</ele><time>2026-04-28T08:44:21.676Z</time></trkpt><trkpt lat="37.9908879" lon="12.9482272"><ele>184.6</ele><time>2026-04-28T08:44:22.675Z</time></trkpt><trkpt lat="37.990779" lon="12.9482658"><ele>184.2</ele><time>2026-04-28T08:44:23.675Z</time></trkpt><trkpt lat="37.9906741" lon="12.9483095"><ele>183.8</ele><time>2026-04-28T08:44:24.676Z</time></trkpt><trkpt lat="37.9905809" lon="12.9483491"><ele>183.4</ele><time>2026-04-28T08:44:25.675Z</time></trkpt><trkpt lat="37.9904801" lon="12.9483937"><ele>183.0</ele><time>2026-04-28T08:44:26.676Z</time></trkpt><trkpt lat="37.9903755" lon="12.9484376"><ele>181.60000000000002</ele><time>2026-04-28T08:44:27.677Z</time></trkpt><trkpt lat="37.9902678" lon="12.9484889"><ele>180.20000000000002</ele><time>2026-04-28T08:44:28.676Z</time></trkpt><trkpt lat="37.9901589" lon="12.9485298"><ele>178.8</ele><time>2026-04-28T08:44:29.677Z</time></trkpt><trkpt lat="37.99006" lon="12.9485739"><ele>177.4</ele><time>2026-04-28T08:44:30.677Z</time></trkpt><trkpt lat="37.9899615" lon="12.948612"><ele>176.0</ele><time>2026-04-28T08:44:31.675Z</time></trkpt><trkpt lat="37.9898683" lon="12.9486518"><ele>176.0</ele><time>2026-04-28T08:44:32.676Z</time></trkpt><trkpt lat="37.9897711" lon="12.9486916"><ele>176.0</ele><time>2026-04-28T08:44:33.675Z</time></trkpt><trkpt lat="37.9896701" lon="12.9487232"><ele>176.0</ele><time>2026-04-28T08:44:34.675Z</time></trkpt><trkpt lat="37.9895791" lon="12.9487563"><ele>176.0</ele><time>2026-04-28T08:44:35.676Z</time></trkpt><trkpt lat="37.9894959" lon="12.9487941"><ele>176.0</ele><time>2026-04-28T08:44:36.675Z</time></trkpt><trkpt lat="37.9893317" lon="12.948859"><ele>176.0</ele><time>2026-04-28T08:44:38.676Z</time></trkpt><trkpt lat="37.989262" lon="12.9488916"><ele>176.0</ele><time>2026-04-28T08:44:39.675Z</time></trkpt><trkpt lat="37.9891871" lon="12.9489284"><ele>176.0</ele><time>2026-04-28T08:44:40.676Z</time></trkpt><trkpt lat="37.9891037" lon="12.9489641"><ele>176.0</ele><time>2026-04-28T08:44:41.676Z</time></trkpt><trkpt lat="37.9890116" lon="12.949"><ele>176.0</ele><time>2026-04-28T08:44:42.675Z</time></trkpt><trkpt lat="37.9889114" lon="12.9490402"><ele>176.0</ele><time>2026-04-28T08:44:43.676Z</time></trkpt><trkpt lat="37.9888013" lon="12.9490959"><ele>177.0</ele><time>2026-04-28T08:44:44.676Z</time></trkpt><trkpt lat="37.9886966" lon="12.9491654"><ele>178.0</ele><time>2026-04-28T08:44:45.676Z</time></trkpt><trkpt lat="37.9885919" lon="12.9492387"><ele>179.0</ele><time>2026-04-28T08:44:46.675Z</time></trkpt><trkpt lat="37.9884928" lon="12.9493276"><ele>180.0</ele><time>2026-04-28T08:44:47.676Z</time></trkpt><trkpt lat="37.9883931" lon="12.9494164"><ele>181.0</ele><time>2026-04-28T08:44:48.676Z</time></trkpt><trkpt lat="37.9883" lon="12.9495031"><ele>182.0</ele><time>2026-04-28T08:44:49.676Z</time></trkpt><trkpt lat="37.9882069" lon="12.9495984"><ele>183.0</ele><time>2026-04-28T08:44:50.675Z</time></trkpt><trkpt lat="37.9881241" lon="12.949681"><ele>184.0</ele><time>2026-04-28T08:44:51.676Z</time></trkpt><trkpt lat="37.9880447" lon="12.9497614"><ele>185.0</ele><time>2026-04-28T08:44:52.675Z</time></trkpt><trkpt lat="37.9879653" lon="12.9498399"><ele>185.0</ele><time>2026-04-28T08:44:53.675Z</time></trkpt><trkpt lat="37.9878875" lon="12.9499137"><ele>185.0</ele><time>2026-04-28T08:44:54.676Z</time></trkpt><trkpt lat="37.987822" lon="12.949964"><ele>185.0</ele><time>2026-04-28T08:44:55.677Z</time></trkpt><trkpt lat="37.9877511" lon="12.950009"><ele>185.0</ele><time>2026-04-28T08:44:56.676Z</time></trkpt><trkpt lat="37.9876955" lon="12.9500476"><ele>185.0</ele><time>2026-04-28T08:44:57.675Z</time></trkpt><trkpt lat="37.9875918" lon="12.9501095"><ele>185.0</ele><time>2026-04-28T08:44:59.675Z</time></trkpt><trkpt lat="37.9874864" lon="12.9501865"><ele>187.2</ele><time>2026-04-28T08:45:01.676Z</time></trkpt><trkpt lat="37.9873714" lon="12.9502589"><ele>189.4</ele><time>2026-04-28T08:45:03.675Z</time></trkpt><trkpt lat="37.9873035" lon="12.9503014"><ele>191.60000000000002</ele><time>2026-04-28T08:45:04.675Z</time></trkpt><trkpt lat="37.9872257" lon="12.9503472"><ele>193.8</ele><time>2026-04-28T08:45:05.676Z</time></trkpt><trkpt lat="37.9871411" lon="12.9504004"><ele>196.0</ele><time>2026-04-28T08:45:06.676Z</time></trkpt><trkpt lat="37.9870496" lon="12.9504542"><ele>196.0</ele><time>2026-04-28T08:45:07.676Z</time></trkpt><trkpt lat="37.9869459" lon="12.9505159"><ele>196.0</ele><time>2026-04-28T08:45:08.676Z</time></trkpt><trkpt lat="37.9868485" lon="12.9505747"><ele>196.0</ele><time>2026-04-28T08:45:09.675Z</time></trkpt><trkpt lat="37.9867503" lon="12.9506305"><ele>196.0</ele><time>2026-04-28T08:45:10.676Z</time></trkpt><trkpt lat="37.9866499" lon="12.9506879"><ele>196.0</ele><time>2026-04-28T08:45:11.677Z</time></trkpt><trkpt lat="37.9864523" lon="12.9507795"><ele>196.60000000000002</ele><time>2026-04-28T08:45:13.675Z</time></trkpt><trkpt lat="37.986361" lon="12.9508252"><ele>197.2</ele><time>2026-04-28T08:45:14.675Z</time></trkpt><trkpt lat="37.9862741" lon="12.9508854"><ele>197.8</ele><time>2026-04-28T08:45:15.676Z</time></trkpt><trkpt lat="37.9861763" lon="12.9509302"><ele>198.39999999999998</ele><time>2026-04-28T08:45:16.677Z</time></trkpt><trkpt lat="37.9860894" lon="12.9509749"><ele>199.0</ele><time>2026-04-28T08:45:17.676Z</time></trkpt><trkpt lat="37.9859874" lon="12.9510086"><ele>200.6</ele><time>2026-04-28T08:45:18.675Z</time></trkpt><trkpt lat="37.9858988" lon="12.9510334"><ele>202.2</ele><time>2026-04-28T08:45:19.676Z</time></trkpt><trkpt lat="37.9858079" lon="12.9510462"><ele>203.79999999999998</ele><time>2026-04-28T08:45:20.676Z</time></trkpt><trkpt lat="37.9857219" lon="12.9510399"><ele>205.39999999999998</ele><time>2026-04-28T08:45:21.676Z</time></trkpt><trkpt lat="37.9855489" lon="12.951007"><ele>207.0</ele><time>2026-04-28T08:45:23.676Z</time></trkpt><trkpt lat="37.9854683" lon="12.9509893"><ele>206.66666666666666</ele><time>2026-04-28T08:45:24.676Z</time></trkpt><trkpt lat="37.985391" lon="12.9509652"><ele>206.33333333333331</ele><time>2026-04-28T08:45:25.676Z</time></trkpt><trkpt lat="37.9853215" lon="12.9509405"><ele>206.0</ele><time>2026-04-28T08:45:26.675Z</time></trkpt><trkpt lat="37.9852493" lon="12.9509021"><ele>205.66666666666666</ele><time>2026-04-28T08:45:27.676Z</time></trkpt><trkpt lat="37.9851829" lon="12.9508552"><ele>205.33333333333331</ele><time>2026-04-28T08:45:28.676Z</time></trkpt><trkpt lat="37.9851155" lon="12.9507724"><ele>205.0</ele><time>2026-04-28T08:45:30.676Z</time></trkpt><trkpt lat="37.9850613" lon="12.9506703"><ele>205.0</ele><time>2026-04-28T08:45:32.676Z</time></trkpt><trkpt lat="37.9850229" lon="12.950579"><ele>205.0</ele><time>2026-04-28T08:45:34.675Z</time></trkpt><trkpt lat="37.9849543" lon="12.9505065"><ele>205.0</ele><time>2026-04-28T08:45:36.675Z</time></trkpt><trkpt lat="37.9848607" lon="12.9504731"><ele>205.0</ele><time>2026-04-28T08:45:38.676Z</time></trkpt><trkpt lat="37.9847634" lon="12.9504776"><ele>205.0</ele><time>2026-04-28T08:45:40.676Z</time></trkpt><trkpt lat="37.9846802" lon="12.9505511"><ele>206.57142857142858</ele><time>2026-04-28T08:45:42.676Z</time></trkpt><trkpt lat="37.9846611" lon="12.9506333"><ele>208.14285714285714</ele><time>2026-04-28T08:45:43.677Z</time></trkpt><trkpt lat="37.9846473" lon="12.9507215"><ele>209.71428571428572</ele><time>2026-04-28T08:45:44.677Z</time></trkpt><trkpt lat="37.9846326" lon="12.9508133"><ele>211.28571428571428</ele><time>2026-04-28T08:45:45.676Z</time></trkpt><trkpt lat="37.9846081" lon="12.9509096"><ele>212.85714285714283</ele><time>2026-04-28T08:45:46.675Z</time></trkpt><trkpt lat="37.984579" lon="12.9510025"><ele>214.42857142857142</ele><time>2026-04-28T08:45:47.675Z</time></trkpt><trkpt lat="37.9845393" lon="12.9510859"><ele>216.0</ele><time>2026-04-28T08:45:48.676Z</time></trkpt><trkpt lat="37.9844973" lon="12.9511597"><ele>216.5</ele><time>2026-04-28T08:45:49.675Z</time></trkpt><trkpt lat="37.9844446" lon="12.9512444"><ele>217.0</ele><time>2026-04-28T08:45:50.675Z</time></trkpt><trkpt lat="37.9843868" lon="12.951329"><ele>217.5</ele><time>2026-04-28T08:45:51.676Z</time></trkpt><trkpt lat="37.9843306" lon="12.9514089"><ele>218.0</ele><time>2026-04-28T08:45:52.677Z</time></trkpt><trkpt lat="37.9842697" lon="12.9514973"><ele>218.5</ele><time>2026-04-28T08:45:53.675Z</time></trkpt><trkpt lat="37.9842071" lon="12.9515922"><ele>219.0</ele><time>2026-04-28T08:45:54.676Z</time></trkpt><trkpt lat="37.9841417" lon="12.9516874"><ele>221.6</ele><time>2026-04-28T08:45:55.676Z</time></trkpt><trkpt lat="37.9840698" lon="12.9517821"><ele>224.2</ele><time>2026-04-28T08:45:56.677Z</time></trkpt><trkpt lat="37.9839987" lon="12.951878"><ele>226.79999999999998</ele><time>2026-04-28T08:45:57.677Z</time></trkpt><trkpt lat="37.9839351" lon="12.9519744"><ele>229.39999999999998</ele><time>2026-04-28T08:45:58.675Z</time></trkpt><trkpt lat="37.9838861" lon="12.9520603"><ele>232.0</ele><time>2026-04-28T08:45:59.678Z</time></trkpt><trkpt lat="37.9838276" lon="12.9521462"><ele>232.0</ele><time>2026-04-28T08:46:00.675Z</time></trkpt><trkpt lat="37.9837723" lon="12.952231"><ele>232.0</ele><time>2026-04-28T08:46:01.675Z</time></trkpt><trkpt lat="37.9837222" lon="12.952316"><ele>232.0</ele><time>2026-04-28T08:46:02.676Z</time></trkpt><trkpt lat="37.9836663" lon="12.9524123"><ele>232.0</ele><time>2026-04-28T08:46:03.676Z</time></trkpt><trkpt lat="37.9835981" lon="12.9525121"><ele>232.0</ele><time>2026-04-28T08:46:04.675Z</time></trkpt><trkpt lat="37.983521" lon="12.9526187"><ele>233.0</ele><time>2026-04-28T08:46:05.676Z</time></trkpt><trkpt lat="37.9834474" lon="12.9527172"><ele>234.0</ele><time>2026-04-28T08:46:06.675Z</time></trkpt><trkpt lat="37.9833665" lon="12.9528113"><ele>235.0</ele><time>2026-04-28T08:46:07.677Z</time></trkpt><trkpt lat="37.9832903" lon="12.9528844"><ele>236.0</ele><time>2026-04-28T08:46:08.676Z</time></trkpt><trkpt lat="37.9832073" lon="12.9529263"><ele>237.0</ele><time>2026-04-28T08:46:09.676Z</time></trkpt><trkpt lat="37.9831122" lon="12.952954"><ele>238.39999999999998</ele><time>2026-04-28T08:46:10.675Z</time></trkpt><trkpt lat="37.9830192" lon="12.9529531"><ele>239.79999999999998</ele><time>2026-04-28T08:46:11.677Z</time></trkpt><trkpt lat="37.9829205" lon="12.9529284"><ele>241.2</ele><time>2026-04-28T08:46:12.676Z</time></trkpt><trkpt lat="37.9828254" lon="12.9528788"><ele>242.6</ele><time>2026-04-28T08:46:13.675Z</time></trkpt><trkpt lat="37.98272" lon="12.9528146"><ele>244.0</ele><time>2026-04-28T08:46:14.676Z</time></trkpt><trkpt lat="37.9826198" lon="12.9527519"><ele>243.99999999999997</ele><time>2026-04-28T08:46:15.675Z</time></trkpt><trkpt lat="37.9825378" lon="12.9526932"><ele>244.0</ele><time>2026-04-28T08:46:16.676Z</time></trkpt><trkpt lat="37.9824741" lon="12.952649"><ele>244.0</ele><time>2026-04-28T08:46:17.675Z</time></trkpt><trkpt lat="37.9824142" lon="12.9526148"><ele>244.0</ele><time>2026-04-28T08:46:18.675Z</time></trkpt><trkpt lat="37.982339" lon="12.9525831"><ele>243.99999999999997</ele><time>2026-04-28T08:46:20.677Z</time></trkpt><trkpt lat="37.9822737" lon="12.9525457"><ele>244.0</ele><time>2026-04-28T08:46:32.675Z</time></trkpt><trkpt lat="37.9822014" lon="12.9524941"><ele>244.16666666666666</ele><time>2026-04-28T08:46:34.675Z</time></trkpt><trkpt lat="37.9821432" lon="12.9524463"><ele>244.33333333333331</ele><time>2026-04-28T08:46:38.676Z</time></trkpt><trkpt lat="37.9820725" lon="12.9523607"><ele>244.5</ele><time>2026-04-28T08:46:46.675Z</time></trkpt><trkpt lat="37.9820026" lon="12.9522916"><ele>244.66666666666669</ele><time>2026-04-28T08:46:48.676Z</time></trkpt><trkpt lat="37.9819175" lon="12.9522186"><ele>244.83333333333334</ele><time>2026-04-28T08:46:50.675Z</time></trkpt><trkpt lat="37.9818474" lon="12.9521798"><ele>245.0</ele><time>2026-04-28T08:46:52.677Z</time></trkpt><trkpt lat="37.9817698" lon="12.9520984"><ele>245.0</ele><time>2026-04-28T08:46:54.676Z</time></trkpt><trkpt lat="37.9816962" lon="12.9519697"><ele>245.0</ele><time>2026-04-28T08:46:56.676Z</time></trkpt><trkpt lat="37.9816633" lon="12.9518942"><ele>245.0</ele><time>2026-04-28T08:46:57.675Z</time></trkpt><trkpt lat="37.9816262" lon="12.9518072"><ele>245.0</ele><time>2026-04-28T08:46:58.676Z</time></trkpt><trkpt lat="37.9815887" lon="12.9517112"><ele>245.0</ele><time>2026-04-28T08:46:59.675Z</time></trkpt><trkpt lat="37.9815491" lon="12.9516033"><ele>245.66666666666669</ele><time>2026-04-28T08:47:00.677Z</time></trkpt><trkpt lat="37.9815059" lon="12.9515033"><ele>246.33333333333334</ele><time>2026-04-28T08:47:01.675Z</time></trkpt><trkpt lat="37.9814668" lon="12.9514093"><ele>247.0</ele><time>2026-04-28T08:47:02.676Z</time></trkpt><trkpt lat="37.9814243" lon="12.9513112"><ele>247.66666666666669</ele><time>2026-04-28T08:47:03.676Z</time></trkpt><trkpt lat="37.9813869" lon="12.9512167"><ele>248.33333333333334</ele><time>2026-04-28T08:47:04.676Z</time></trkpt><trkpt lat="37.9813558" lon="12.9511193"><ele>249.0</ele><time>2026-04-28T08:47:05.675Z</time></trkpt><trkpt lat="37.9813318" lon="12.95101"><ele>249.0</ele><time>2026-04-28T08:47:06.676Z</time></trkpt><trkpt lat="37.9813111" lon="12.9508918"><ele>248.99999999999997</ele><time>2026-04-28T08:47:07.675Z</time></trkpt><trkpt lat="37.9813069" lon="12.950765"><ele>248.99999999999997</ele><time>2026-04-28T08:47:08.677Z</time></trkpt><trkpt lat="37.9813018" lon="12.950639"><ele>249.0</ele><time>2026-04-28T08:47:09.675Z</time></trkpt><trkpt lat="37.9812921" lon="12.9505044"><ele>249.0</ele><time>2026-04-28T08:47:10.675Z</time></trkpt><trkpt lat="37.9812809" lon="12.9503678"><ele>246.79999999999998</ele><time>2026-04-28T08:47:11.675Z</time></trkpt><trkpt lat="37.9812651" lon="12.9502334"><ele>244.59999999999997</ele><time>2026-04-28T08:47:12.676Z</time></trkpt><trkpt lat="37.9812471" lon="12.9501001"><ele>242.4</ele><time>2026-04-28T08:47:13.676Z</time></trkpt><trkpt lat="37.9812226" lon="12.9499741"><ele>240.2</ele><time>2026-04-28T08:47:14.675Z</time></trkpt><trkpt lat="37.9811906" lon="12.9498502"><ele>238.0</ele><time>2026-04-28T08:47:15.677Z</time></trkpt><trkpt lat="37.9811512" lon="12.9497258"><ele>237.2</ele><time>2026-04-28T08:47:16.677Z</time></trkpt><trkpt lat="37.9811034" lon="12.9496054"><ele>236.4</ele><time>2026-04-28T08:47:17.675Z</time></trkpt><trkpt lat="37.9810548" lon="12.9494732"><ele>235.59999999999997</ele><time>2026-04-28T08:47:18.675Z</time></trkpt><trkpt lat="37.9809999" lon="12.9493456"><ele>234.79999999999998</ele><time>2026-04-28T08:47:19.677Z</time></trkpt><trkpt lat="37.9809445" lon="12.9492202"><ele>234.0</ele><time>2026-04-28T08:47:20.675Z</time></trkpt><trkpt lat="37.9808917" lon="12.9490929"><ele>235.6</ele><time>2026-04-28T08:47:21.676Z</time></trkpt><trkpt lat="37.980842" lon="12.9489686"><ele>237.2</ele><time>2026-04-28T08:47:22.676Z</time></trkpt><trkpt lat="37.9807955" lon="12.9488409"><ele>238.79999999999998</ele><time>2026-04-28T08:47:23.675Z</time></trkpt><trkpt lat="37.9807528" lon="12.9487233"><ele>240.39999999999998</ele><time>2026-04-28T08:47:24.676Z</time></trkpt><trkpt lat="37.9807122" lon="12.9486054"><ele>242.0</ele><time>2026-04-28T08:47:25.675Z</time></trkpt><trkpt lat="37.9806689" lon="12.9484846"><ele>239.8</ele><time>2026-04-28T08:47:26.677Z</time></trkpt><trkpt lat="37.9806235" lon="12.9483662"><ele>237.6</ele><time>2026-04-28T08:47:27.675Z</time></trkpt><trkpt lat="37.9805842" lon="12.9482438"><ele>235.40000000000003</ele><time>2026-04-28T08:47:28.677Z</time></trkpt><trkpt lat="37.98054" lon="12.9481318"><ele>233.20000000000002</ele><time>2026-04-28T08:47:29.676Z</time></trkpt><trkpt lat="37.9805005" lon="12.9480189"><ele>231.0</ele><time>2026-04-28T08:47:30.676Z</time></trkpt><trkpt lat="37.9804634" lon="12.9479052"><ele>231.0</ele><time>2026-04-28T08:47:31.676Z</time></trkpt><trkpt lat="37.9804375" lon="12.9478007"><ele>231.0</ele><time>2026-04-28T08:47:32.676Z</time></trkpt><trkpt lat="37.9804223" lon="12.9477021"><ele>231.0</ele><time>2026-04-28T08:47:33.676Z</time></trkpt><trkpt lat="37.9804124" lon="12.9476173"><ele>231.0</ele><time>2026-04-28T08:47:34.676Z</time></trkpt><trkpt lat="37.9804162" lon="12.9475374"><ele>231.0</ele><time>2026-04-28T08:47:35.675Z</time></trkpt><trkpt lat="37.9804103" lon="12.9474008"><ele>231.0</ele><time>2026-04-28T08:47:37.677Z</time></trkpt><trkpt lat="37.9803362" lon="12.9473"><ele>231.0</ele><time>2026-04-28T08:47:39.676Z</time></trkpt><trkpt lat="37.9802103" lon="12.9472451"><ele>231.00000000000003</ele><time>2026-04-28T08:47:41.676Z</time></trkpt><trkpt lat="37.9801377" lon="12.9472099"><ele>231.00000000000003</ele><time>2026-04-28T08:47:42.676Z</time></trkpt><trkpt lat="37.9800544" lon="12.9471615"><ele>231.0</ele><time>2026-04-28T08:47:43.678Z</time></trkpt><trkpt lat="37.979972" lon="12.9471085"><ele>231.0</ele><time>2026-04-28T08:47:44.676Z</time></trkpt><trkpt lat="37.9798822" lon="12.9470532"><ele>231.0</ele><time>2026-04-28T08:47:45.676Z</time></trkpt><trkpt lat="37.9797866" lon="12.9470015"><ele>231.00000000000003</ele><time>2026-04-28T08:47:46.677Z</time></trkpt><trkpt lat="37.979689" lon="12.9469542"><ele>231.00000000000003</ele><time>2026-04-28T08:47:47.675Z</time></trkpt><trkpt lat="37.9795956" lon="12.9469108"><ele>231.0</ele><time>2026-04-28T08:47:48.675Z</time></trkpt><trkpt lat="37.9794956" lon="12.9468867"><ele>231.0</ele><time>2026-04-28T08:47:49.677Z</time></trkpt><trkpt lat="37.9793958" lon="12.9468742"><ele>231.0</ele><time>2026-04-28T08:47:50.675Z</time></trkpt><trkpt lat="37.979292" lon="12.9468672"><ele>231.00000000000003</ele><time>2026-04-28T08:47:51.677Z</time></trkpt><trkpt lat="37.9791885" lon="12.9468458"><ele>231.00000000000003</ele><time>2026-04-28T08:47:52.676Z</time></trkpt><trkpt lat="37.9790903" lon="12.946815"><ele>231.0</ele><time>2026-04-28T08:47:53.676Z</time></trkpt><trkpt lat="37.9790045" lon="12.9467781"><ele>231.0</ele><time>2026-04-28T08:47:54.675Z</time></trkpt><trkpt lat="37.9789151" lon="12.9467323"><ele>229.0</ele><time>2026-04-28T08:47:55.676Z</time></trkpt><trkpt lat="37.9788329" lon="12.9466814"><ele>227.0</ele><time>2026-04-28T08:47:56.676Z</time></trkpt><trkpt lat="37.9787632" lon="12.9466396"><ele>225.0</ele><time>2026-04-28T08:47:57.676Z</time></trkpt><trkpt lat="37.9786822" lon="12.9465882"><ele>223.0</ele><time>2026-04-28T08:47:59.676Z</time></trkpt><trkpt lat="37.9786169" lon="12.9465528"><ele>221.0</ele><time>2026-04-28T08:48:01.676Z</time></trkpt><trkpt lat="37.9785352" lon="12.9465116"><ele>219.0</ele><time>2026-04-28T08:48:03.676Z</time></trkpt><trkpt lat="37.9784197" lon="12.9464599"><ele>220.0</ele><time>2026-04-28T08:48:05.677Z</time></trkpt><trkpt lat="37.9783018" lon="12.9464139"><ele>221.0</ele><time>2026-04-28T08:48:07.675Z</time></trkpt><trkpt lat="37.9782395" lon="12.9463793"><ele>222.0</ele><time>2026-04-28T08:48:08.676Z</time></trkpt><trkpt lat="37.9781846" lon="12.9463372"><ele>223.0</ele><time>2026-04-28T08:48:09.676Z</time></trkpt><trkpt lat="37.978127" lon="12.9462945"><ele>224.0</ele><time>2026-04-28T08:48:10.677Z</time></trkpt><trkpt lat="37.9780813" lon="12.946234"><ele>225.0</ele><time>2026-04-28T08:48:11.676Z</time></trkpt><trkpt lat="37.9780421" lon="12.9461566"><ele>225.0</ele><time>2026-04-28T08:48:12.675Z</time></trkpt><trkpt lat="37.9779896" lon="12.9460743"><ele>225.0</ele><time>2026-04-28T08:48:13.675Z</time></trkpt><trkpt lat="37.9779488" lon="12.9459926"><ele>225.0</ele><time>2026-04-28T08:48:14.676Z</time></trkpt><trkpt lat="37.9779131" lon="12.9459092"><ele>225.0</ele><time>2026-04-28T08:48:15.675Z</time></trkpt><trkpt lat="37.9778846" lon="12.945813"><ele>225.0</ele><time>2026-04-28T08:48:16.675Z</time></trkpt><trkpt lat="37.9778608" lon="12.9457068"><ele>225.0</ele><time>2026-04-28T08:48:17.676Z</time></trkpt><trkpt lat="37.9778403" lon="12.9455935"><ele>222.0</ele><time>2026-04-28T08:48:18.677Z</time></trkpt><trkpt lat="37.9778123" lon="12.9454806"><ele>219.0</ele><time>2026-04-28T08:48:19.675Z</time></trkpt><trkpt lat="37.977783" lon="12.945364"><ele>216.0</ele><time>2026-04-28T08:48:20.677Z</time></trkpt><trkpt lat="37.9777536" lon="12.9452473"><ele>213.0</ele><time>2026-04-28T08:48:21.676Z</time></trkpt><trkpt lat="37.9777248" lon="12.9451299"><ele>210.0</ele><time>2026-04-28T08:48:22.677Z</time></trkpt><trkpt lat="37.9776917" lon="12.9450131"><ele>209.6</ele><time>2026-04-28T08:48:23.676Z</time></trkpt><trkpt lat="37.9776567" lon="12.944904"><ele>209.2</ele><time>2026-04-28T08:48:24.677Z</time></trkpt><trkpt lat="37.9776171" lon="12.9447947"><ele>208.8</ele><time>2026-04-28T08:48:25.677Z</time></trkpt><trkpt lat="37.977573" lon="12.9446899"><ele>208.4</ele><time>2026-04-28T08:48:26.677Z</time></trkpt><trkpt lat="37.9775252" lon="12.9445788"><ele>208.0</ele><time>2026-04-28T08:48:27.675Z</time></trkpt><trkpt lat="37.9774667" lon="12.9444714"><ele>208.0</ele><time>2026-04-28T08:48:28.676Z</time></trkpt><trkpt lat="37.9774094" lon="12.944371"><ele>208.0</ele><time>2026-04-28T08:48:29.676Z</time></trkpt><trkpt lat="37.9773485" lon="12.9442764"><ele>208.0</ele><time>2026-04-28T08:48:30.677Z</time></trkpt><trkpt lat="37.9772922" lon="12.9441844"><ele>208.0</ele><time>2026-04-28T08:48:31.675Z</time></trkpt><trkpt lat="37.9772402" lon="12.9440914"><ele>208.0</ele><time>2026-04-28T08:48:32.677Z</time></trkpt><trkpt lat="37.9771923" lon="12.9439989"><ele>206.0</ele><time>2026-04-28T08:48:33.677Z</time></trkpt><trkpt lat="37.9771346" lon="12.9439075"><ele>204.0</ele><time>2026-04-28T08:48:34.676Z</time></trkpt><trkpt lat="37.9770774" lon="12.9438158"><ele>202.0</ele><time>2026-04-28T08:48:35.675Z</time></trkpt><trkpt lat="37.9770194" lon="12.9437216"><ele>200.0</ele><time>2026-04-28T08:48:36.677Z</time></trkpt><trkpt lat="37.9769552" lon="12.9436208"><ele>198.0</ele><time>2026-04-28T08:48:37.677Z</time></trkpt><trkpt lat="37.9768923" lon="12.943522"><ele>198.0</ele><time>2026-04-28T08:48:38.676Z</time></trkpt><trkpt lat="37.9768328" lon="12.9434209"><ele>198.0</ele><time>2026-04-28T08:48:39.675Z</time></trkpt><trkpt lat="37.9767705" lon="12.9433204"><ele>198.0</ele><time>2026-04-28T08:48:40.678Z</time></trkpt><trkpt lat="37.976701" lon="12.9432226"><ele>198.0</ele><time>2026-04-28T08:48:41.677Z</time></trkpt><trkpt lat="37.9766399" lon="12.943106"><ele>198.0</ele><time>2026-04-28T08:48:42.676Z</time></trkpt><trkpt lat="37.9765744" lon="12.9430024"><ele>197.8</ele><time>2026-04-28T08:48:43.675Z</time></trkpt><trkpt lat="37.9765116" lon="12.9428942"><ele>197.60000000000002</ele><time>2026-04-28T08:48:44.676Z</time></trkpt><trkpt lat="37.9764514" lon="12.9427949"><ele>197.39999999999998</ele><time>2026-04-28T08:48:45.678Z</time></trkpt><trkpt lat="37.9763995" lon="12.9427022"><ele>197.2</ele><time>2026-04-28T08:48:46.676Z</time></trkpt><trkpt lat="37.9763544" lon="12.9426102"><ele>197.0</ele><time>2026-04-28T08:48:47.676Z</time></trkpt><trkpt lat="37.9763108" lon="12.9425116"><ele>195.00000000000003</ele><time>2026-04-28T08:48:48.676Z</time></trkpt><trkpt lat="37.9762787" lon="12.9424114"><ele>193.0</ele><time>2026-04-28T08:48:49.676Z</time></trkpt><trkpt lat="37.9762592" lon="12.9423101"><ele>191.0</ele><time>2026-04-28T08:48:50.675Z</time></trkpt><trkpt lat="37.9762574" lon="12.9422029"><ele>189.0</ele><time>2026-04-28T08:48:51.675Z</time></trkpt><trkpt lat="37.9762619" lon="12.9420957"><ele>187.0</ele><time>2026-04-28T08:48:52.677Z</time></trkpt><trkpt lat="37.9762754" lon="12.9419872"><ele>185.0</ele><time>2026-04-28T08:48:53.676Z</time></trkpt><trkpt lat="37.976294" lon="12.9418715"><ele>185.0</ele><time>2026-04-28T08:48:54.677Z</time></trkpt><trkpt lat="37.9763206" lon="12.9417618"><ele>185.0</ele><time>2026-04-28T08:48:55.676Z</time></trkpt><trkpt lat="37.9763559" lon="12.9416599"><ele>185.0</ele><time>2026-04-28T08:48:56.676Z</time></trkpt><trkpt lat="37.9763989" lon="12.9415581"><ele>185.0</ele><time>2026-04-28T08:48:57.676Z</time></trkpt><trkpt lat="37.9764443" lon="12.9414584"><ele>185.0</ele><time>2026-04-28T08:48:58.677Z</time></trkpt><trkpt lat="37.9764947" lon="12.9413586"><ele>184.4</ele><time>2026-04-28T08:48:59.677Z</time></trkpt><trkpt lat="37.9765432" lon="12.9412624"><ele>183.8</ele><time>2026-04-28T08:49:00.676Z</time></trkpt><trkpt lat="37.9765927" lon="12.9411737"><ele>183.2</ele><time>2026-04-28T08:49:01.678Z</time></trkpt><trkpt lat="37.9766455" lon="12.9410702"><ele>182.6</ele><time>2026-04-28T08:49:02.675Z</time></trkpt><trkpt lat="37.976688" lon="12.9409594"><ele>182.0</ele><time>2026-04-28T08:49:03.676Z</time></trkpt><trkpt lat="37.9767304" lon="12.9408542"><ele>179.8</ele><time>2026-04-28T08:49:04.676Z</time></trkpt><trkpt lat="37.97676" lon="12.9407431"><ele>177.6</ele><time>2026-04-28T08:49:05.676Z</time></trkpt><trkpt lat="37.9767731" lon="12.94063"><ele>175.4</ele><time>2026-04-28T08:49:06.677Z</time></trkpt><trkpt lat="37.9767797" lon="12.9405166"><ele>173.20000000000002</ele><time>2026-04-28T08:49:07.675Z</time></trkpt><trkpt lat="37.9767888" lon="12.9403902"><ele>171.0</ele><time>2026-04-28T08:49:08.676Z</time></trkpt><trkpt lat="37.9767841" lon="12.9402692"><ele>171.0</ele><time>2026-04-28T08:49:09.677Z</time></trkpt><trkpt lat="37.9767818" lon="12.9401402"><ele>171.0</ele><time>2026-04-28T08:49:10.676Z</time></trkpt><trkpt lat="37.9767842" lon="12.9400129"><ele>171.0</ele><time>2026-04-28T08:49:11.676Z</time></trkpt><trkpt lat="37.9767926" lon="12.9398898"><ele>171.0</ele><time>2026-04-28T08:49:12.675Z</time></trkpt><trkpt lat="37.9768026" lon="12.9397674"><ele>171.0</ele><time>2026-04-28T08:49:13.677Z</time></trkpt><trkpt lat="37.9768236" lon="12.9396462"><ele>171.20000000000002</ele><time>2026-04-28T08:49:14.676Z</time></trkpt><trkpt lat="37.9768598" lon="12.9395241"><ele>171.4</ele><time>2026-04-28T08:49:15.677Z</time></trkpt><trkpt lat="37.9769051" lon="12.9394013"><ele>171.6</ele><time>2026-04-28T08:49:16.677Z</time></trkpt><trkpt lat="37.9769592" lon="12.9392986"><ele>171.8</ele><time>2026-04-28T08:49:17.676Z</time></trkpt><trkpt lat="37.9770206" lon="12.9392058"><ele>172.0</ele><time>2026-04-28T08:49:18.676Z</time></trkpt><trkpt lat="37.9770939" lon="12.9391303"><ele>172.0</ele><time>2026-04-28T08:49:19.677Z</time></trkpt><trkpt lat="37.9771726" lon="12.939062"><ele>172.0</ele><time>2026-04-28T08:49:20.677Z</time></trkpt><trkpt lat="37.9772581" lon="12.938993"><ele>172.0</ele><time>2026-04-28T08:49:21.675Z</time></trkpt><trkpt lat="37.9773449" lon="12.9389265"><ele>172.0</ele><time>2026-04-28T08:49:22.676Z</time></trkpt><trkpt lat="37.9774339" lon="12.9388705"><ele>172.0</ele><time>2026-04-28T08:49:23.676Z</time></trkpt><trkpt lat="37.9775227" lon="12.9388198"><ele>169.6</ele><time>2026-04-28T08:49:24.676Z</time></trkpt><trkpt lat="37.9776136" lon="12.9387798"><ele>167.2</ele><time>2026-04-28T08:49:25.677Z</time></trkpt><trkpt lat="37.9777008" lon="12.9387505"><ele>164.8</ele><time>2026-04-28T08:49:26.676Z</time></trkpt><trkpt lat="37.9777937" lon="12.938714"><ele>162.4</ele><time>2026-04-28T08:49:27.677Z</time></trkpt><trkpt lat="37.9778817" lon="12.938679"><ele>160.0</ele><time>2026-04-28T08:49:28.676Z</time></trkpt><trkpt lat="37.9779761" lon="12.9386487"><ele>160.0</ele><time>2026-04-28T08:49:29.676Z</time></trkpt><trkpt lat="37.9780704" lon="12.9386177"><ele>160.0</ele><time>2026-04-28T08:49:30.676Z</time></trkpt><trkpt lat="37.9781632" lon="12.9385802"><ele>160.0</ele><time>2026-04-28T08:49:31.677Z</time></trkpt><trkpt lat="37.9782534" lon="12.9385457"><ele>160.0</ele><time>2026-04-28T08:49:32.676Z</time></trkpt><trkpt lat="37.9783429" lon="12.9385065"><ele>160.0</ele><time>2026-04-28T08:49:33.676Z</time></trkpt><trkpt lat="37.9784302" lon="12.938461"><ele>158.8</ele><time>2026-04-28T08:49:34.676Z</time></trkpt><trkpt lat="37.9785077" lon="12.9384076"><ele>157.6</ele><time>2026-04-28T08:49:35.675Z</time></trkpt><trkpt lat="37.9785763" lon="12.9383365"><ele>156.4</ele><time>2026-04-28T08:49:36.676Z</time></trkpt><trkpt lat="37.9786365" lon="12.9382424"><ele>155.2</ele><time>2026-04-28T08:49:37.676Z</time></trkpt><trkpt lat="37.978685" lon="12.9381398"><ele>154.0</ele><time>2026-04-28T08:49:38.677Z</time></trkpt><trkpt lat="37.9787147" lon="12.9380281"><ele>154.0</ele><time>2026-04-28T08:49:39.677Z</time></trkpt><trkpt lat="37.9787308" lon="12.9379071"><ele>154.0</ele><time>2026-04-28T08:49:40.676Z</time></trkpt><trkpt lat="37.9787256" lon="12.9377726"><ele>154.0</ele><time>2026-04-28T08:49:41.675Z</time></trkpt><trkpt lat="37.9787129" lon="12.9376373"><ele>154.0</ele><time>2026-04-28T08:49:42.677Z</time></trkpt><trkpt lat="37.9786952" lon="12.9375029"><ele>154.0</ele><time>2026-04-28T08:49:43.676Z</time></trkpt><trkpt lat="37.9786721" lon="12.9373609"><ele>153.0</ele><time>2026-04-28T08:49:44.676Z</time></trkpt><trkpt lat="37.978649" lon="12.9372265"><ele>152.0</ele><time>2026-04-28T08:49:45.676Z</time></trkpt><trkpt lat="37.9786267" lon="12.9370823"><ele>151.0</ele><time>2026-04-28T08:49:46.675Z</time></trkpt><trkpt lat="37.9786088" lon="12.9369378"><ele>150.0</ele><time>2026-04-28T08:49:47.676Z</time></trkpt><trkpt lat="37.9785912" lon="12.9367936"><ele>147.0</ele><time>2026-04-28T08:49:48.676Z</time></trkpt><trkpt lat="37.9785718" lon="12.936649"><ele>144.0</ele><time>2026-04-28T08:49:49.676Z</time></trkpt><trkpt lat="37.978541" lon="12.9365041"><ele>141.0</ele><time>2026-04-28T08:49:50.677Z</time></trkpt><trkpt lat="37.9784988" lon="12.9363734"><ele>138.0</ele><time>2026-04-28T08:49:51.675Z</time></trkpt><trkpt lat="37.9784356" lon="12.9362466"><ele>138.0</ele><time>2026-04-28T08:49:52.676Z</time></trkpt><trkpt lat="37.9783581" lon="12.9361369"><ele>138.0</ele><time>2026-04-28T08:49:53.677Z</time></trkpt><trkpt lat="37.9782616" lon="12.936048"><ele>138.0</ele><time>2026-04-28T08:49:54.675Z</time></trkpt><trkpt lat="37.9781513" lon="12.9359775"><ele>138.0</ele><time>2026-04-28T08:49:55.677Z</time></trkpt><trkpt lat="37.9780287" lon="12.9359192"><ele>139.75</ele><time>2026-04-28T08:49:56.677Z</time></trkpt><trkpt lat="37.9779054" lon="12.9358794"><ele>141.5</ele><time>2026-04-28T08:49:57.677Z</time></trkpt><trkpt lat="37.9777755" lon="12.9358516"><ele>143.25</ele><time>2026-04-28T08:49:58.676Z</time></trkpt><trkpt lat="37.9776396" lon="12.9358253"><ele>145.0</ele><time>2026-04-28T08:49:59.675Z</time></trkpt><trkpt lat="37.9775045" lon="12.9357908"><ele>146.5</ele><time>2026-04-28T08:50:00.676Z</time></trkpt><trkpt lat="37.9773675" lon="12.935758"><ele>148.0</ele><time>2026-04-28T08:50:01.676Z</time></trkpt><trkpt lat="37.9772344" lon="12.9357105"><ele>149.5</ele><time>2026-04-28T08:50:02.676Z</time></trkpt><trkpt lat="37.9771014" lon="12.9356737"><ele>151.0</ele><time>2026-04-28T08:50:03.676Z</time></trkpt><trkpt lat="37.976968" lon="12.9356381"><ele>151.0</ele><time>2026-04-28T08:50:04.676Z</time></trkpt><trkpt lat="37.9768355" lon="12.9356081"><ele>151.0</ele><time>2026-04-28T08:50:05.676Z</time></trkpt><trkpt lat="37.9767021" lon="12.9355774"><ele>151.0</ele><time>2026-04-28T08:50:06.676Z</time></trkpt><trkpt lat="37.9765637" lon="12.9355604"><ele>151.0</ele><time>2026-04-28T08:50:07.676Z</time></trkpt><trkpt lat="37.9764251" lon="12.9355494"><ele>151.0</ele><time>2026-04-28T08:50:08.676Z</time></trkpt><trkpt lat="37.9762885" lon="12.9355498"><ele>151.0</ele><time>2026-04-28T08:50:09.676Z</time></trkpt><trkpt lat="37.9761482" lon="12.9355527"><ele>151.0</ele><time>2026-04-28T08:50:10.677Z</time></trkpt><trkpt lat="37.9760133" lon="12.9355602"><ele>151.0</ele><time>2026-04-28T08:50:11.676Z</time></trkpt><trkpt lat="37.9758768" lon="12.9355695"><ele>150.5</ele><time>2026-04-28T08:50:12.676Z</time></trkpt><trkpt lat="37.9757333" lon="12.935589"><ele>150.0</ele><time>2026-04-28T08:50:13.677Z</time></trkpt><trkpt lat="37.9755923" lon="12.9356066"><ele>149.5</ele><time>2026-04-28T08:50:14.675Z</time></trkpt><trkpt lat="37.9754495" lon="12.9356175"><ele>149.0</ele><time>2026-04-28T08:50:15.677Z</time></trkpt><trkpt lat="37.9753088" lon="12.9356312"><ele>149.0</ele><time>2026-04-28T08:50:16.678Z</time></trkpt><trkpt lat="37.9751659" lon="12.9356429"><ele>149.0</ele><time>2026-04-28T08:50:17.675Z</time></trkpt><trkpt lat="37.9750293" lon="12.9356521"><ele>149.0</ele><time>2026-04-28T08:50:18.676Z</time></trkpt><trkpt lat="37.9748801" lon="12.9356452"><ele>149.0</ele><time>2026-04-28T08:50:19.675Z</time></trkpt><trkpt lat="37.9747305" lon="12.9356259"><ele>145.33333333333331</ele><time>2026-04-28T08:50:20.676Z</time></trkpt><trkpt lat="37.9745815" lon="12.9355965"><ele>141.66666666666666</ele><time>2026-04-28T08:50:21.676Z</time></trkpt><trkpt lat="37.9744309" lon="12.9355543"><ele>138.0</ele><time>2026-04-28T08:50:22.678Z</time></trkpt><trkpt lat="37.9742821" lon="12.9355009"><ele>137.66666666666666</ele><time>2026-04-28T08:50:23.676Z</time></trkpt><trkpt lat="37.974137" lon="12.9354345"><ele>137.33333333333331</ele><time>2026-04-28T08:50:24.677Z</time></trkpt><trkpt lat="37.9739896" lon="12.9353604"><ele>137.0</ele><time>2026-04-28T08:50:25.676Z</time></trkpt><trkpt lat="37.9738443" lon="12.9352773"><ele>137.0</ele><time>2026-04-28T08:50:26.676Z</time></trkpt><trkpt lat="37.9737041" lon="12.9351737"><ele>137.0</ele><time>2026-04-28T08:50:27.677Z</time></trkpt><trkpt lat="37.9735725" lon="12.9350625"><ele>137.0</ele><time>2026-04-28T08:50:28.676Z</time></trkpt><trkpt lat="37.9734463" lon="12.9349419"><ele>136.0</ele><time>2026-04-28T08:50:29.677Z</time></trkpt><trkpt lat="37.9733238" lon="12.9348137"><ele>135.0</ele><time>2026-04-28T08:50:30.677Z</time></trkpt><trkpt lat="37.9732037" lon="12.934679"><ele>134.0</ele><time>2026-04-28T08:50:31.676Z</time></trkpt><trkpt lat="37.9730833" lon="12.9345376"><ele>134.0</ele><time>2026-04-28T08:50:32.676Z</time></trkpt><trkpt lat="37.9729645" lon="12.9343955"><ele>134.0</ele><time>2026-04-28T08:50:33.677Z</time></trkpt><trkpt lat="37.9728512" lon="12.9342488"><ele>134.0</ele><time>2026-04-28T08:50:34.677Z</time></trkpt><trkpt lat="37.9727308" lon="12.9340986"><ele>132.0</ele><time>2026-04-28T08:50:35.676Z</time></trkpt><trkpt lat="37.972609" lon="12.93394"><ele>130.0</ele><time>2026-04-28T08:50:36.677Z</time></trkpt><trkpt lat="37.972479" lon="12.9337821"><ele>128.0</ele><time>2026-04-28T08:50:37.677Z</time></trkpt><trkpt lat="37.972345" lon="12.933629"><ele>128.0</ele><time>2026-04-28T08:50:38.678Z</time></trkpt><trkpt lat="37.9722109" lon="12.933465"><ele>128.0</ele><time>2026-04-28T08:50:39.676Z</time></trkpt><trkpt lat="37.9720755" lon="12.9333041"><ele>128.0</ele><time>2026-04-28T08:50:40.677Z</time></trkpt><trkpt lat="37.9719319" lon="12.9331451"><ele>126.0</ele><time>2026-04-28T08:50:41.677Z</time></trkpt><trkpt lat="37.9717993" lon="12.9329801"><ele>124.0</ele><time>2026-04-28T08:50:42.677Z</time></trkpt><trkpt lat="37.9716633" lon="12.9328201"><ele>122.0</ele><time>2026-04-28T08:50:43.676Z</time></trkpt><trkpt lat="37.9715303" lon="12.9326615"><ele>119.66666666666666</ele><time>2026-04-28T08:50:44.675Z</time></trkpt><trkpt lat="37.9714032" lon="12.9325069"><ele>117.33333333333334</ele><time>2026-04-28T08:50:45.677Z</time></trkpt><trkpt lat="37.9712815" lon="12.9323446"><ele>115.0</ele><time>2026-04-28T08:50:46.676Z</time></trkpt><trkpt lat="37.9711699" lon="12.93218"><ele>115.0</ele><time>2026-04-28T08:50:47.675Z</time></trkpt><trkpt lat="37.9710668" lon="12.9319981"><ele>115.0</ele><time>2026-04-28T08:50:48.677Z</time></trkpt><trkpt lat="37.9709759" lon="12.931806"><ele>115.0</ele><time>2026-04-28T08:50:49.676Z</time></trkpt><trkpt lat="37.9708971" lon="12.9316015"><ele>112.0</ele><time>2026-04-28T08:50:50.676Z</time></trkpt><trkpt lat="37.9708342" lon="12.9313859"><ele>109.0</ele><time>2026-04-28T08:50:51.676Z</time></trkpt><trkpt lat="37.9707745" lon="12.9311577"><ele>106.0</ele><time>2026-04-28T08:50:52.676Z</time></trkpt><trkpt lat="37.9707229" lon="12.9309287"><ele>104.0</ele><time>2026-04-28T08:50:53.677Z</time></trkpt><trkpt lat="37.9706831" lon="12.9307005"><ele>102.0</ele><time>2026-04-28T08:50:54.676Z</time></trkpt><trkpt lat="37.9706464" lon="12.9304809"><ele>100.0</ele><time>2026-04-28T08:50:55.676Z</time></trkpt><trkpt lat="37.9706337" lon="12.9302732"><ele>100.0</ele><time>2026-04-28T08:50:56.677Z</time></trkpt><trkpt lat="37.9706361" lon="12.9300458"><ele>100.0</ele><time>2026-04-28T08:50:57.677Z</time></trkpt><trkpt lat="37.9706611" lon="12.9298408"><ele>100.0</ele><time>2026-04-28T08:50:58.676Z</time></trkpt><trkpt lat="37.9707094" lon="12.929631"><ele>100.0</ele><time>2026-04-28T08:50:59.677Z</time></trkpt><trkpt lat="37.970775" lon="12.9294297"><ele>100.0</ele><time>2026-04-28T08:51:00.676Z</time></trkpt><trkpt lat="37.970857" lon="12.929232"><ele>100.0</ele><time>2026-04-28T08:51:01.677Z</time></trkpt><trkpt lat="37.9709538" lon="12.9290389"><ele>99.0</ele><time>2026-04-28T08:51:02.676Z</time></trkpt><trkpt lat="37.9710672" lon="12.9288736"><ele>98.0</ele><time>2026-04-28T08:51:03.676Z</time></trkpt><trkpt lat="37.9711918" lon="12.9287254"><ele>97.0</ele><time>2026-04-28T08:51:04.677Z</time></trkpt><trkpt lat="37.9713245" lon="12.9285871"><ele>97.0</ele><time>2026-04-28T08:51:05.676Z</time></trkpt><trkpt lat="37.971459" lon="12.9284675"><ele>97.0</ele><time>2026-04-28T08:51:06.677Z</time></trkpt><trkpt lat="37.9715947" lon="12.9283448"><ele>97.0</ele><time>2026-04-28T08:51:07.676Z</time></trkpt><trkpt lat="37.9717327" lon="12.9282236"><ele>93.0</ele><time>2026-04-28T08:51:08.675Z</time></trkpt><trkpt lat="37.9718671" lon="12.9280988"><ele>89.0</ele><time>2026-04-28T08:51:09.678Z</time></trkpt><trkpt lat="37.9719967" lon="12.9279729"><ele>85.0</ele><time>2026-04-28T08:51:10.677Z</time></trkpt><trkpt lat="37.9721156" lon="12.9278507"><ele>85.0</ele><time>2026-04-28T08:51:11.676Z</time></trkpt><trkpt lat="37.9722203" lon="12.9277095"><ele>85.0</ele><time>2026-04-28T08:51:12.677Z</time></trkpt><trkpt lat="37.9723219" lon="12.9275537"><ele>85.0</ele><time>2026-04-28T08:51:13.677Z</time></trkpt><trkpt lat="37.9724186" lon="12.9273958"><ele>84.0</ele><time>2026-04-28T08:51:14.675Z</time></trkpt><trkpt lat="37.9724938" lon="12.9272296"><ele>83.0</ele><time>2026-04-28T08:51:15.677Z</time></trkpt><trkpt lat="37.9726007" lon="12.9268672"><ele>79.66666666666667</ele><time>2026-04-28T08:51:17.676Z</time></trkpt><trkpt lat="37.9726467" lon="12.9266831"><ele>76.33333333333333</ele><time>2026-04-28T08:51:18.677Z</time></trkpt><trkpt lat="37.9726946" lon="12.9264955"><ele>73.0</ele><time>2026-04-28T08:51:19.676Z</time></trkpt><trkpt lat="37.9727445" lon="12.9263139"><ele>73.0</ele><time>2026-04-28T08:51:20.678Z</time></trkpt><trkpt lat="37.9727818" lon="12.9261361"><ele>73.0</ele><time>2026-04-28T08:51:21.675Z</time></trkpt><trkpt lat="37.972801" lon="12.9259684"><ele>73.0</ele><time>2026-04-28T08:51:22.676Z</time></trkpt><trkpt lat="37.9727929" lon="12.9258026"><ele>73.0</ele><time>2026-04-28T08:51:23.676Z</time></trkpt><trkpt lat="37.9727478" lon="12.9256443"><ele>74.33333333333333</ele><time>2026-04-28T08:51:24.676Z</time></trkpt><trkpt lat="37.9726746" lon="12.9254865"><ele>75.66666666666667</ele><time>2026-04-28T08:51:25.677Z</time></trkpt><trkpt lat="37.9725569" lon="12.9253189"><ele>77.0</ele><time>2026-04-28T08:51:26.848Z</time></trkpt><trkpt lat="37.9723722" lon="12.9250793"><ele>75.25</ele><time>2026-04-28T08:51:28.675Z</time></trkpt><trkpt lat="37.9722642" lon="12.9249797"><ele>73.5</ele><time>2026-04-28T08:51:29.676Z</time></trkpt><trkpt lat="37.9721437" lon="12.9249105"><ele>71.75</ele><time>2026-04-28T08:51:30.675Z</time></trkpt><trkpt lat="37.9720123" lon="12.9248754"><ele>70.0</ele><time>2026-04-28T08:51:31.675Z</time></trkpt><trkpt lat="37.9718795" lon="12.9248513"><ele>70.0</ele><time>2026-04-28T08:51:32.675Z</time></trkpt><trkpt lat="37.9717642" lon="12.9248096"><ele>70.0</ele><time>2026-04-28T08:51:33.675Z</time></trkpt><trkpt lat="37.971663" lon="12.9247537"><ele>70.0</ele><time>2026-04-28T08:51:34.675Z</time></trkpt><trkpt lat="37.9715819" lon="12.9246742"><ele>70.0</ele><time>2026-04-28T08:51:35.676Z</time></trkpt><trkpt lat="37.9715292" lon="12.9245508"><ele>70.0</ele><time>2026-04-28T08:51:36.834Z</time></trkpt><trkpt lat="37.9715007" lon="12.9242795"><ele>68.25</ele><time>2026-04-28T08:51:38.676Z</time></trkpt><trkpt lat="37.9714961" lon="12.9241165"><ele>66.5</ele><time>2026-04-28T08:51:39.676Z</time></trkpt><trkpt lat="37.9714832" lon="12.923951"><ele>64.75</ele><time>2026-04-28T08:51:40.677Z</time></trkpt><trkpt lat="37.9714615" lon="12.9237936"><ele>63.0</ele><time>2026-04-28T08:51:41.677Z</time></trkpt><trkpt lat="37.9714183" lon="12.9236593"><ele>63.0</ele><time>2026-04-28T08:51:42.676Z</time></trkpt><trkpt lat="37.9713577" lon="12.9235456"><ele>63.0</ele><time>2026-04-28T08:51:43.677Z</time></trkpt><trkpt lat="37.9712734" lon="12.923444"><ele>63.0</ele><time>2026-04-28T08:51:44.676Z</time></trkpt><trkpt lat="37.9711742" lon="12.9233803"><ele>63.0</ele><time>2026-04-28T08:51:45.676Z</time></trkpt><trkpt lat="37.9710579" lon="12.9233409"><ele>62.25</ele><time>2026-04-28T08:51:46.676Z</time></trkpt><trkpt lat="37.9709301" lon="12.9233094"><ele>61.5</ele><time>2026-04-28T08:51:47.676Z</time></trkpt><trkpt lat="37.9707878" lon="12.9232893"><ele>60.75</ele><time>2026-04-28T08:51:48.677Z</time></trkpt><trkpt lat="37.9706484" lon="12.9232821"><ele>60.0</ele><time>2026-04-28T08:51:49.676Z</time></trkpt><trkpt lat="37.9705087" lon="12.9232693"><ele>60.0</ele><time>2026-04-28T08:51:50.676Z</time></trkpt><trkpt lat="37.9703796" lon="12.9232503"><ele>60.0</ele><time>2026-04-28T08:51:51.676Z</time></trkpt><trkpt lat="37.9702571" lon="12.9232184"><ele>60.0</ele><time>2026-04-28T08:51:52.677Z</time></trkpt><trkpt lat="37.9701474" lon="12.9231639"><ele>60.0</ele><time>2026-04-28T08:51:53.676Z</time></trkpt><trkpt lat="37.970043" lon="12.923085"><ele>59.75</ele><time>2026-04-28T08:51:54.676Z</time></trkpt><trkpt lat="37.9699398" lon="12.9229766"><ele>59.5</ele><time>2026-04-28T08:51:55.676Z</time></trkpt><trkpt lat="37.969843" lon="12.9228448"><ele>59.25</ele><time>2026-04-28T08:51:56.676Z</time></trkpt><trkpt lat="37.9697523" lon="12.9227013"><ele>59.0</ele><time>2026-04-28T08:51:57.676Z</time></trkpt><trkpt lat="37.9696582" lon="12.9225416"><ele>57.0</ele><time>2026-04-28T08:51:58.676Z</time></trkpt><trkpt lat="37.9695624" lon="12.9223806"><ele>55.0</ele><time>2026-04-28T08:51:59.676Z</time></trkpt><trkpt lat="37.9694679" lon="12.9222211"><ele>53.0</ele><time>2026-04-28T08:52:00.677Z</time></trkpt><trkpt lat="37.9693745" lon="12.9220565"><ele>53.0</ele><time>2026-04-28T08:52:01.677Z</time></trkpt><trkpt lat="37.9692828" lon="12.9218914"><ele>53.0</ele><time>2026-04-28T08:52:02.676Z</time></trkpt><trkpt lat="37.9691852" lon="12.9217275"><ele>53.0</ele><time>2026-04-28T08:52:03.676Z</time></trkpt><trkpt lat="37.9690861" lon="12.92156"><ele>53.66666666666667</ele><time>2026-04-28T08:52:04.676Z</time></trkpt><trkpt lat="37.9689866" lon="12.9213944"><ele>54.33333333333333</ele><time>2026-04-28T08:52:05.676Z</time></trkpt><trkpt lat="37.9688842" lon="12.9212289"><ele>55.0</ele><time>2026-04-28T08:52:06.678Z</time></trkpt><trkpt lat="37.968784" lon="12.9210615"><ele>53.5</ele><time>2026-04-28T08:52:07.676Z</time></trkpt><trkpt lat="37.9686825" lon="12.9208954"><ele>52.0</ele><time>2026-04-28T08:52:08.678Z</time></trkpt><trkpt lat="37.9686149" lon="12.9207723"><ele>50.5</ele><time>2026-04-28T08:52:09.678Z</time></trkpt><trkpt lat="37.9685242" lon="12.920625"><ele>49.0</ele><time>2026-04-28T08:52:10.676Z</time></trkpt><trkpt lat="37.9684354" lon="12.9204766"><ele>48.666666666666664</ele><time>2026-04-28T08:52:11.677Z</time></trkpt><trkpt lat="37.9683397" lon="12.9203208"><ele>48.33333333333333</ele><time>2026-04-28T08:52:12.677Z</time></trkpt><trkpt lat="37.9682513" lon="12.9201645"><ele>48.0</ele><time>2026-04-28T08:52:13.677Z</time></trkpt><trkpt lat="37.9681491" lon="12.9200023"><ele>48.0</ele><time>2026-04-28T08:52:14.677Z</time></trkpt><trkpt lat="37.9680659" lon="12.9198231"><ele>48.0</ele><time>2026-04-28T08:52:15.676Z</time></trkpt><trkpt lat="37.9680046" lon="12.9196255"><ele>48.0</ele><time>2026-04-28T08:52:16.677Z</time></trkpt><trkpt lat="37.9679593" lon="12.9194133"><ele>46.0</ele><time>2026-04-28T08:52:17.677Z</time></trkpt><trkpt lat="37.9679282" lon="12.9191889"><ele>44.0</ele><time>2026-04-28T08:52:18.677Z</time></trkpt><trkpt lat="37.9678974" lon="12.9189702"><ele>42.0</ele><time>2026-04-28T08:52:19.677Z</time></trkpt><trkpt lat="37.9678669" lon="12.9187605"><ele>42.0</ele><time>2026-04-28T08:52:20.676Z</time></trkpt><trkpt lat="37.9678391" lon="12.9185476"><ele>42.0</ele><time>2026-04-28T08:52:21.676Z</time></trkpt><trkpt lat="37.9678079" lon="12.9183381"><ele>42.0</ele><time>2026-04-28T08:52:22.675Z</time></trkpt><trkpt lat="37.9677813" lon="12.9181317"><ele>42.0</ele><time>2026-04-28T08:52:23.676Z</time></trkpt><trkpt lat="37.9677555" lon="12.9179245"><ele>42.0</ele><time>2026-04-28T08:52:24.676Z</time></trkpt><trkpt lat="37.9677341" lon="12.9177243"><ele>42.0</ele><time>2026-04-28T08:52:25.676Z</time></trkpt><trkpt lat="37.9677209" lon="12.9175153"><ele>42.0</ele><time>2026-04-28T08:52:26.678Z</time></trkpt><trkpt lat="37.9677139" lon="12.917301"><ele>42.0</ele><time>2026-04-28T08:52:27.677Z</time></trkpt><trkpt lat="37.967721" lon="12.9170876"><ele>42.0</ele><time>2026-04-28T08:52:28.677Z</time></trkpt><trkpt lat="37.9677381" lon="12.9166789"><ele>42.666666666666664</ele><time>2026-04-28T08:52:30.676Z</time></trkpt><trkpt lat="37.9677481" lon="12.9164766"><ele>43.33333333333333</ele><time>2026-04-28T08:52:31.676Z</time></trkpt><trkpt lat="37.9677601" lon="12.9162781"><ele>44.0</ele><time>2026-04-28T08:52:32.677Z</time></trkpt><trkpt lat="37.9677675" lon="12.9160749"><ele>43.666666666666664</ele><time>2026-04-28T08:52:33.676Z</time></trkpt><trkpt lat="37.9677757" lon="12.9158742"><ele>43.333333333333336</ele><time>2026-04-28T08:52:34.676Z</time></trkpt><trkpt lat="37.9677881" lon="12.9156747"><ele>43.0</ele><time>2026-04-28T08:52:35.677Z</time></trkpt><trkpt lat="37.9678001" lon="12.9154779"><ele>43.0</ele><time>2026-04-28T08:52:36.676Z</time></trkpt><trkpt lat="37.9678069" lon="12.9152923"><ele>43.0</ele><time>2026-04-28T08:52:37.676Z</time></trkpt><trkpt lat="37.9678139" lon="12.9151181"><ele>43.0</ele><time>2026-04-28T08:52:38.676Z</time></trkpt><trkpt lat="37.9678201" lon="12.9149525"><ele>43.0</ele><time>2026-04-28T08:52:39.676Z</time></trkpt><trkpt lat="37.9678337" lon="12.9147993"><ele>43.2</ele><time>2026-04-28T08:52:40.677Z</time></trkpt><trkpt lat="37.967842" lon="12.9146648"><ele>43.4</ele><time>2026-04-28T08:52:41.676Z</time></trkpt><trkpt lat="37.9678458" lon="12.9145343"><ele>43.6</ele><time>2026-04-28T08:52:42.676Z</time></trkpt><trkpt lat="37.9678545" lon="12.9144134"><ele>43.800000000000004</ele><time>2026-04-28T08:52:43.677Z</time></trkpt><trkpt lat="37.9678607" lon="12.9142978"><ele>44.0</ele><time>2026-04-28T08:52:44.676Z</time></trkpt><trkpt lat="37.967867" lon="12.9141715"><ele>44.0</ele><time>2026-04-28T08:52:45.677Z</time></trkpt><trkpt lat="37.9678691" lon="12.9140363"><ele>44.0</ele><time>2026-04-28T08:52:46.675Z</time></trkpt><trkpt lat="37.9678696" lon="12.9139074"><ele>44.0</ele><time>2026-04-28T08:52:47.676Z</time></trkpt><trkpt lat="37.9678683" lon="12.9137816"><ele>44.0</ele><time>2026-04-28T08:52:48.677Z</time></trkpt><trkpt lat="37.967874" lon="12.9136608"><ele>44.0</ele><time>2026-04-28T08:52:49.677Z</time></trkpt><trkpt lat="37.9678787" lon="12.9135484"><ele>44.0</ele><time>2026-04-28T08:52:50.676Z</time></trkpt><trkpt lat="37.9678843" lon="12.913451"><ele>44.0</ele><time>2026-04-28T08:52:51.678Z</time></trkpt><trkpt lat="37.9678959" lon="12.9133571"><ele>44.0</ele><time>2026-04-28T08:52:52.676Z</time></trkpt><trkpt lat="37.9678976" lon="12.9132757"><ele>44.0</ele><time>2026-04-28T08:52:53.676Z</time></trkpt><trkpt lat="37.9678962" lon="12.9131541"><ele>44.0</ele><time>2026-04-28T08:52:55.678Z</time></trkpt><trkpt lat="37.9679001" lon="12.9130491"><ele>44.0</ele><time>2026-04-28T08:52:57.676Z</time></trkpt><trkpt lat="37.9679093" lon="12.9129499"><ele>44.400000000000006</ele><time>2026-04-28T08:52:59.676Z</time></trkpt><trkpt lat="37.9679078" lon="12.912828"><ele>44.8</ele><time>2026-04-28T08:53:01.676Z</time></trkpt><trkpt lat="37.967915" lon="12.9126764"><ele>45.2</ele><time>2026-04-28T08:53:03.676Z</time></trkpt><trkpt lat="37.9679174" lon="12.9125813"><ele>45.599999999999994</ele><time>2026-04-28T08:53:04.678Z</time></trkpt><trkpt lat="37.9679221" lon="12.9124799"><ele>46.0</ele><time>2026-04-28T08:53:05.675Z</time></trkpt><trkpt lat="37.9679282" lon="12.9123569"><ele>46.8</ele><time>2026-04-28T08:53:06.676Z</time></trkpt><trkpt lat="37.9679385" lon="12.9122244"><ele>47.599999999999994</ele><time>2026-04-28T08:53:07.676Z</time></trkpt><trkpt lat="37.9679437" lon="12.9120913"><ele>48.4</ele><time>2026-04-28T08:53:08.676Z</time></trkpt><trkpt lat="37.9679466" lon="12.9119538"><ele>49.2</ele><time>2026-04-28T08:53:09.677Z</time></trkpt><trkpt lat="37.9679496" lon="12.9118136"><ele>50.0</ele><time>2026-04-28T08:53:10.677Z</time></trkpt><trkpt lat="37.9679556" lon="12.9116615"><ele>51.25</ele><time>2026-04-28T08:53:11.676Z</time></trkpt><trkpt lat="37.967958" lon="12.9114939"><ele>52.5</ele><time>2026-04-28T08:53:12.676Z</time></trkpt><trkpt lat="37.9679648" lon="12.9113207"><ele>53.75</ele><time>2026-04-28T08:53:13.678Z</time></trkpt><trkpt lat="37.9679726" lon="12.9111575"><ele>55.0</ele><time>2026-04-28T08:53:14.677Z</time></trkpt><trkpt lat="37.967984" lon="12.9109966"><ele>55.5</ele><time>2026-04-28T08:53:15.677Z</time></trkpt><trkpt lat="37.9679997" lon="12.9108435"><ele>56.0</ele><time>2026-04-28T08:53:16.677Z</time></trkpt><trkpt lat="37.9680308" lon="12.9106971"><ele>56.5</ele><time>2026-04-28T08:53:17.677Z</time></trkpt><trkpt lat="37.9680826" lon="12.9105743"><ele>57.0</ele><time>2026-04-28T08:53:18.676Z</time></trkpt><trkpt lat="37.9681412" lon="12.9104602"><ele>57.0</ele><time>2026-04-28T08:53:19.676Z</time></trkpt><trkpt lat="37.9682369" lon="12.9104077"><ele>57.0</ele><time>2026-04-28T08:53:20.676Z</time></trkpt><trkpt lat="37.9683455" lon="12.9103433"><ele>57.0</ele><time>2026-04-28T08:53:21.676Z</time></trkpt><trkpt lat="37.9684612" lon="12.9102752"><ele>57.0</ele><time>2026-04-28T08:53:22.677Z</time></trkpt><trkpt lat="37.9685905" lon="12.9101883"><ele>57.33333333333333</ele><time>2026-04-28T08:53:23.677Z</time></trkpt><trkpt lat="37.9687241" lon="12.9100895"><ele>57.666666666666664</ele><time>2026-04-28T08:53:24.677Z</time></trkpt><trkpt lat="37.9688549" lon="12.909992"><ele>58.0</ele><time>2026-04-28T08:53:25.677Z</time></trkpt><trkpt lat="37.9689873" lon="12.9098822"><ele>58.0</ele><time>2026-04-28T08:53:26.676Z</time></trkpt><trkpt lat="37.9691089" lon="12.9097447"><ele>58.0</ele><time>2026-04-28T08:53:27.676Z</time></trkpt><trkpt lat="37.9692122" lon="12.9095878"><ele>58.0</ele><time>2026-04-28T08:53:28.676Z</time></trkpt><trkpt lat="37.9693045" lon="12.9094231"><ele>61.33333333333333</ele><time>2026-04-28T08:53:29.677Z</time></trkpt><trkpt lat="37.9693858" lon="12.9092333"><ele>64.66666666666667</ele><time>2026-04-28T08:53:30.676Z</time></trkpt><trkpt lat="37.9694624" lon="12.9090385"><ele>68.0</ele><time>2026-04-28T08:53:31.677Z</time></trkpt><trkpt lat="37.9695374" lon="12.908837"><ele>68.0</ele><time>2026-04-28T08:53:32.676Z</time></trkpt><trkpt lat="37.9696198" lon="12.9086424"><ele>68.0</ele><time>2026-04-28T08:53:33.676Z</time></trkpt><trkpt lat="37.9697148" lon="12.9084506"><ele>68.0</ele><time>2026-04-28T08:53:34.676Z</time></trkpt><trkpt lat="37.9698141" lon="12.9082691"><ele>66.66666666666667</ele><time>2026-04-28T08:53:35.676Z</time></trkpt><trkpt lat="37.9699191" lon="12.9081065"><ele>65.33333333333333</ele><time>2026-04-28T08:53:36.676Z</time></trkpt><trkpt lat="37.9700266" lon="12.9079568"><ele>64.0</ele><time>2026-04-28T08:53:37.676Z</time></trkpt><trkpt lat="37.9701194" lon="12.9078161"><ele>65.5</ele><time>2026-04-28T08:53:38.677Z</time></trkpt><trkpt lat="37.9701836" lon="12.9076754"><ele>67.0</ele><time>2026-04-28T08:53:39.677Z</time></trkpt><trkpt lat="37.9702081" lon="12.9075179"><ele>68.5</ele><time>2026-04-28T08:53:40.677Z</time></trkpt><trkpt lat="37.9701948" lon="12.9073677"><ele>70.0</ele><time>2026-04-28T08:53:41.676Z</time></trkpt><trkpt lat="37.9701373" lon="12.9072221"><ele>70.0</ele><time>2026-04-28T08:53:42.677Z</time></trkpt><trkpt lat="37.9700501" lon="12.9070873"><ele>70.0</ele><time>2026-04-28T08:53:43.676Z</time></trkpt><trkpt lat="37.9699503" lon="12.9069564"><ele>70.0</ele><time>2026-04-28T08:53:44.676Z</time></trkpt><trkpt lat="37.9698745" lon="12.9068186"><ele>70.0</ele><time>2026-04-28T08:53:45.678Z</time></trkpt><trkpt lat="37.9698388" lon="12.9066718"><ele>69.5</ele><time>2026-04-28T08:53:46.677Z</time></trkpt><trkpt lat="37.9698386" lon="12.9065151"><ele>69.0</ele><time>2026-04-28T08:53:47.676Z</time></trkpt><trkpt lat="37.969875" lon="12.9063479"><ele>68.5</ele><time>2026-04-28T08:53:48.677Z</time></trkpt><trkpt lat="37.969939" lon="12.9061721"><ele>68.0</ele><time>2026-04-28T08:53:49.676Z</time></trkpt><trkpt lat="37.9700232" lon="12.9059902"><ele>72.0</ele><time>2026-04-28T08:53:50.677Z</time></trkpt><trkpt lat="37.9701102" lon="12.9057865"><ele>76.0</ele><time>2026-04-28T08:53:51.676Z</time></trkpt><trkpt lat="37.9701696" lon="12.9055681"><ele>80.0</ele><time>2026-04-28T08:53:52.678Z</time></trkpt><trkpt lat="37.970195" lon="12.9053379"><ele>80.0</ele><time>2026-04-28T08:53:53.677Z</time></trkpt><trkpt lat="37.9701841" lon="12.9051033"><ele>80.0</ele><time>2026-04-28T08:53:54.676Z</time></trkpt><trkpt lat="37.9701709" lon="12.9048719"><ele>80.0</ele><time>2026-04-28T08:53:55.677Z</time></trkpt><trkpt lat="37.970166" lon="12.9046404"><ele>82.33333333333334</ele><time>2026-04-28T08:53:56.676Z</time></trkpt><trkpt lat="37.9701725" lon="12.9044052"><ele>84.66666666666667</ele><time>2026-04-28T08:53:57.678Z</time></trkpt><trkpt lat="37.970178" lon="12.9041707"><ele>87.0</ele><time>2026-04-28T08:53:58.677Z</time></trkpt><trkpt lat="37.9701605" lon="12.9039506"><ele>88.0</ele><time>2026-04-28T08:53:59.677Z</time></trkpt><trkpt lat="37.9701076" lon="12.9037387"><ele>89.0</ele><time>2026-04-28T08:54:00.677Z</time></trkpt><trkpt lat="37.9700509" lon="12.9035241"><ele>90.0</ele><time>2026-04-28T08:54:01.676Z</time></trkpt><trkpt lat="37.9700222" lon="12.9033151"><ele>90.66666666666667</ele><time>2026-04-28T08:54:02.676Z</time></trkpt><trkpt lat="37.9700197" lon="12.903107"><ele>91.33333333333334</ele><time>2026-04-28T08:54:03.676Z</time></trkpt><trkpt lat="37.9700447" lon="12.9028953"><ele>92.0</ele><time>2026-04-28T08:54:04.677Z</time></trkpt><trkpt lat="37.9701001" lon="12.9026834"><ele>91.0</ele><time>2026-04-28T08:54:05.677Z</time></trkpt><trkpt lat="37.9701778" lon="12.9024784"><ele>90.0</ele><time>2026-04-28T08:54:06.677Z</time></trkpt><trkpt lat="37.9702697" lon="12.902281"><ele>89.0</ele><time>2026-04-28T08:54:07.676Z</time></trkpt><trkpt lat="37.9703525" lon="12.9020826"><ele>89.0</ele><time>2026-04-28T08:54:08.677Z</time></trkpt><trkpt lat="37.9704043" lon="12.9018714"><ele>89.0</ele><time>2026-04-28T08:54:09.678Z</time></trkpt><trkpt lat="37.9704309" lon="12.9016599"><ele>89.0</ele><time>2026-04-28T08:54:10.676Z</time></trkpt><trkpt lat="37.9704357" lon="12.9014389"><ele>86.66666666666667</ele><time>2026-04-28T08:54:11.676Z</time></trkpt><trkpt lat="37.9704368" lon="12.9012185"><ele>84.33333333333333</ele><time>2026-04-28T08:54:12.676Z</time></trkpt><trkpt lat="37.9704286" lon="12.9010039"><ele>82.0</ele><time>2026-04-28T08:54:13.677Z</time></trkpt><trkpt lat="37.9704026" lon="12.9007832"><ele>81.66666666666666</ele><time>2026-04-28T08:54:14.677Z</time></trkpt><trkpt lat="37.9703543" lon="12.9005672"><ele>81.33333333333333</ele><time>2026-04-28T08:54:15.676Z</time></trkpt><trkpt lat="37.9702907" lon="12.9003527"><ele>81.0</ele><time>2026-04-28T08:54:16.676Z</time></trkpt><trkpt lat="37.9701965" lon="12.9001593"><ele>79.33333333333333</ele><time>2026-04-28T08:54:17.677Z</time></trkpt><trkpt lat="37.9700936" lon="12.8999798"><ele>77.66666666666666</ele><time>2026-04-28T08:54:18.676Z</time></trkpt><trkpt lat="37.9699853" lon="12.8998013"><ele>76.0</ele><time>2026-04-28T08:54:19.677Z</time></trkpt><trkpt lat="37.9698697" lon="12.8996235"><ele>77.66666666666666</ele><time>2026-04-28T08:54:20.677Z</time></trkpt><trkpt lat="37.9697509" lon="12.8994355"><ele>79.33333333333333</ele><time>2026-04-28T08:54:21.677Z</time></trkpt><trkpt lat="37.9696315" lon="12.899255"><ele>81.0</ele><time>2026-04-28T08:54:22.676Z</time></trkpt><trkpt lat="37.9695133" lon="12.899073"><ele>81.0</ele><time>2026-04-28T08:54:23.676Z</time></trkpt><trkpt lat="37.9693963" lon="12.8988907"><ele>81.0</ele><time>2026-04-28T08:54:24.676Z</time></trkpt><trkpt lat="37.9692807" lon="12.8987084"><ele>81.0</ele><time>2026-04-28T08:54:25.677Z</time></trkpt><trkpt lat="37.9691631" lon="12.8985254"><ele>83.66666666666667</ele><time>2026-04-28T08:54:26.676Z</time></trkpt><trkpt lat="37.9690514" lon="12.8983459"><ele>86.33333333333334</ele><time>2026-04-28T08:54:27.677Z</time></trkpt><trkpt lat="37.9689326" lon="12.8981677"><ele>89.0</ele><time>2026-04-28T08:54:28.676Z</time></trkpt><trkpt lat="37.9688145" lon="12.8979942"><ele>89.0</ele><time>2026-04-28T08:54:29.676Z</time></trkpt><trkpt lat="37.9686985" lon="12.8978135"><ele>89.0</ele><time>2026-04-28T08:54:30.677Z</time></trkpt><trkpt lat="37.9685895" lon="12.8976202"><ele>89.0</ele><time>2026-04-28T08:54:31.677Z</time></trkpt><trkpt lat="37.9684889" lon="12.8974373"><ele>89.33333333333334</ele><time>2026-04-28T08:54:32.676Z</time></trkpt><trkpt lat="37.9683971" lon="12.8972396"><ele>89.66666666666667</ele><time>2026-04-28T08:54:33.676Z</time></trkpt><trkpt lat="37.9683088" lon="12.8970381"><ele>90.0</ele><time>2026-04-28T08:54:34.677Z</time></trkpt><trkpt lat="37.9682262" lon="12.8968363"><ele>89.0</ele><time>2026-04-28T08:54:35.677Z</time></trkpt><trkpt lat="37.9681368" lon="12.8966311"><ele>88.0</ele><time>2026-04-28T08:54:36.676Z</time></trkpt><trkpt lat="37.9680426" lon="12.8964252"><ele>87.0</ele><time>2026-04-28T08:54:37.677Z</time></trkpt><trkpt lat="37.9679472" lon="12.896221"><ele>87.0</ele><time>2026-04-28T08:54:38.677Z</time></trkpt><trkpt lat="37.9678488" lon="12.8960179"><ele>87.0</ele><time>2026-04-28T08:54:39.676Z</time></trkpt><trkpt lat="37.9677465" lon="12.8958104"><ele>87.0</ele><time>2026-04-28T08:54:40.676Z</time></trkpt><trkpt lat="37.9676435" lon="12.8956107"><ele>87.33333333333333</ele><time>2026-04-28T08:54:41.676Z</time></trkpt><trkpt lat="37.9675348" lon="12.8954115"><ele>87.66666666666666</ele><time>2026-04-28T08:54:42.677Z</time></trkpt><trkpt lat="37.9674276" lon="12.8952125"><ele>88.0</ele><time>2026-04-28T08:54:43.677Z</time></trkpt><trkpt lat="37.9673186" lon="12.8950151"><ele>87.0</ele><time>2026-04-28T08:54:44.677Z</time></trkpt><trkpt lat="37.9672127" lon="12.89482"><ele>86.0</ele><time>2026-04-28T08:54:45.676Z</time></trkpt><trkpt lat="37.9671025" lon="12.894633"><ele>85.0</ele><time>2026-04-28T08:54:46.678Z</time></trkpt><trkpt lat="37.9669987" lon="12.8944422"><ele>85.33333333333333</ele><time>2026-04-28T08:54:47.676Z</time></trkpt><trkpt lat="37.9668919" lon="12.8942498"><ele>85.66666666666667</ele><time>2026-04-28T08:54:48.676Z</time></trkpt><trkpt lat="37.9667906" lon="12.8940532"><ele>86.0</ele><time>2026-04-28T08:54:49.676Z</time></trkpt><trkpt lat="37.9666883" lon="12.8938615"><ele>86.0</ele><time>2026-04-28T08:54:50.676Z</time></trkpt><trkpt lat="37.9665859" lon="12.8936703"><ele>86.0</ele><time>2026-04-28T08:54:51.676Z</time></trkpt><trkpt lat="37.9664762" lon="12.89348"><ele>86.0</ele><time>2026-04-28T08:54:52.677Z</time></trkpt><trkpt lat="37.9663596" lon="12.893297"><ele>85.33333333333334</ele><time>2026-04-28T08:54:53.676Z</time></trkpt><trkpt lat="37.9662349" lon="12.8931324"><ele>84.66666666666667</ele><time>2026-04-28T08:54:54.677Z</time></trkpt><trkpt lat="37.9661012" lon="12.8929743"><ele>84.0</ele><time>2026-04-28T08:54:55.677Z</time></trkpt><trkpt lat="37.9659634" lon="12.8928226"><ele>84.0</ele><time>2026-04-28T08:54:56.676Z</time></trkpt><trkpt lat="37.9658169" lon="12.8926633"><ele>84.0</ele><time>2026-04-28T08:54:57.677Z</time></trkpt><trkpt lat="37.9656741" lon="12.8924928"><ele>84.0</ele><time>2026-04-28T08:54:58.677Z</time></trkpt><trkpt lat="37.9655245" lon="12.8923216"><ele>84.0</ele><time>2026-04-28T08:54:59.677Z</time></trkpt><trkpt lat="37.9653661" lon="12.892146"><ele>84.0</ele><time>2026-04-28T08:55:00.677Z</time></trkpt><trkpt lat="37.9652066" lon="12.8919591"><ele>84.0</ele><time>2026-04-28T08:55:01.677Z</time></trkpt><trkpt lat="37.965034" lon="12.8917674"><ele>84.5</ele><time>2026-04-28T08:55:02.677Z</time></trkpt><trkpt lat="37.9648578" lon="12.8915719"><ele>85.0</ele><time>2026-04-28T08:55:03.676Z</time></trkpt><trkpt lat="37.964675" lon="12.8913648"><ele>85.0</ele><time>2026-04-28T08:55:04.676Z</time></trkpt><trkpt lat="37.9644889" lon="12.8911524"><ele>85.0</ele><time>2026-04-28T08:55:05.676Z</time></trkpt><trkpt lat="37.9643002" lon="12.8909472"><ele>84.0</ele><time>2026-04-28T08:55:06.677Z</time></trkpt><trkpt lat="37.9641133" lon="12.8907407"><ele>83.0</ele><time>2026-04-28T08:55:07.677Z</time></trkpt><trkpt lat="37.9639326" lon="12.8905387"><ele>83.0</ele><time>2026-04-28T08:55:08.676Z</time></trkpt><trkpt lat="37.9637545" lon="12.8903348"><ele>83.0</ele><time>2026-04-28T08:55:09.676Z</time></trkpt><trkpt lat="37.9635899" lon="12.8901327"><ele>82.5</ele><time>2026-04-28T08:55:10.677Z</time></trkpt><trkpt lat="37.9634266" lon="12.8899369"><ele>82.0</ele><time>2026-04-28T08:55:11.676Z</time></trkpt><trkpt lat="37.9632623" lon="12.8897409"><ele>83.33333333333333</ele><time>2026-04-28T08:55:12.677Z</time></trkpt><trkpt lat="37.9631007" lon="12.8895489"><ele>84.66666666666667</ele><time>2026-04-28T08:55:13.678Z</time></trkpt><trkpt lat="37.9629362" lon="12.8893566"><ele>86.0</ele><time>2026-04-28T08:55:14.676Z</time></trkpt><trkpt lat="37.9627694" lon="12.8891713"><ele>86.0</ele><time>2026-04-28T08:55:15.677Z</time></trkpt><trkpt lat="37.96262" lon="12.8889935"><ele>86.0</ele><time>2026-04-28T08:55:16.678Z</time></trkpt><trkpt lat="37.962469" lon="12.8888218"><ele>86.0</ele><time>2026-04-28T08:55:17.677Z</time></trkpt><trkpt lat="37.9623495" lon="12.8886867"><ele>86.75</ele><time>2026-04-28T08:55:18.678Z</time></trkpt><trkpt lat="37.962245" lon="12.8885588"><ele>87.5</ele><time>2026-04-28T08:55:19.676Z</time></trkpt><trkpt lat="37.9621551" lon="12.8884351"><ele>88.25</ele><time>2026-04-28T08:55:20.676Z</time></trkpt><trkpt lat="37.9620928" lon="12.8882819"><ele>89.0</ele><time>2026-04-28T08:55:21.678Z</time></trkpt><trkpt lat="37.9620578" lon="12.888114"><ele>89.0</ele><time>2026-04-28T08:55:22.676Z</time></trkpt><trkpt lat="37.9620383" lon="12.8879217"><ele>89.0</ele><time>2026-04-28T08:55:23.677Z</time></trkpt><trkpt lat="37.962026" lon="12.8877045"><ele>89.0</ele><time>2026-04-28T08:55:24.676Z</time></trkpt><trkpt lat="37.9620122" lon="12.887477"><ele>89.0</ele><time>2026-04-28T08:55:25.677Z</time></trkpt><trkpt lat="37.9619955" lon="12.8872316"><ele>89.0</ele><time>2026-04-28T08:55:26.677Z</time></trkpt><trkpt lat="37.9619761" lon="12.8869863"><ele>89.0</ele><time>2026-04-28T08:55:27.677Z</time></trkpt><trkpt lat="37.9619618" lon="12.8867363"><ele>89.0</ele><time>2026-04-28T08:55:28.676Z</time></trkpt><trkpt lat="37.9619498" lon="12.8864882"><ele>89.0</ele><time>2026-04-28T08:55:29.676Z</time></trkpt><trkpt lat="37.961936" lon="12.8862414"><ele>89.0</ele><time>2026-04-28T08:55:30.676Z</time></trkpt><trkpt lat="37.9619192" lon="12.8859971"><ele>89.33333333333334</ele><time>2026-04-28T08:55:31.676Z</time></trkpt><trkpt lat="37.961904" lon="12.8857513"><ele>89.66666666666667</ele><time>2026-04-28T08:55:32.676Z</time></trkpt><trkpt lat="37.9618888" lon="12.8855085"><ele>90.0</ele><time>2026-04-28T08:55:33.677Z</time></trkpt><trkpt lat="37.9618725" lon="12.8852627"><ele>90.33333333333333</ele><time>2026-04-28T08:55:34.676Z</time></trkpt><trkpt lat="37.9618532" lon="12.8850274"><ele>90.66666666666666</ele><time>2026-04-28T08:55:35.676Z</time></trkpt><trkpt lat="37.9618131" lon="12.8848057"><ele>91.0</ele><time>2026-04-28T08:55:36.676Z</time></trkpt><trkpt lat="37.9617431" lon="12.8845895"><ele>94.0</ele><time>2026-04-28T08:55:37.677Z</time></trkpt><trkpt lat="37.9616557" lon="12.8843727"><ele>97.0</ele><time>2026-04-28T08:55:38.676Z</time></trkpt><trkpt lat="37.9615583" lon="12.8841449"><ele>100.0</ele><time>2026-04-28T08:55:39.676Z</time></trkpt><trkpt lat="37.9614591" lon="12.8839359"><ele>100.0</ele><time>2026-04-28T08:55:40.677Z</time></trkpt><trkpt lat="37.9613576" lon="12.8837451"><ele>100.0</ele><time>2026-04-28T08:55:41.676Z</time></trkpt><trkpt lat="37.9612535" lon="12.8835786"><ele>100.0</ele><time>2026-04-28T08:55:42.676Z</time></trkpt><trkpt lat="37.9611437" lon="12.8834424"><ele>101.33333333333334</ele><time>2026-04-28T08:55:43.677Z</time></trkpt><trkpt lat="37.961018" lon="12.8833459"><ele>102.66666666666666</ele><time>2026-04-28T08:55:44.677Z</time></trkpt><trkpt lat="37.9608705" lon="12.8832673"><ele>104.0</ele><time>2026-04-28T08:55:45.677Z</time></trkpt><trkpt lat="37.9607032" lon="12.8832238"><ele>104.0</ele><time>2026-04-28T08:55:46.676Z</time></trkpt><trkpt lat="37.9605218" lon="12.8831585"><ele>104.0</ele><time>2026-04-28T08:55:47.676Z</time></trkpt><trkpt lat="37.9603387" lon="12.8830678"><ele>104.0</ele><time>2026-04-28T08:55:48.678Z</time></trkpt><trkpt lat="37.960153" lon="12.8829697"><ele>107.0</ele><time>2026-04-28T08:55:49.676Z</time></trkpt><trkpt lat="37.9599698" lon="12.882845"><ele>110.0</ele><time>2026-04-28T08:55:50.677Z</time></trkpt><trkpt lat="37.9597973" lon="12.8827296"><ele>113.0</ele><time>2026-04-28T08:55:51.676Z</time></trkpt><trkpt lat="37.9596469" lon="12.8826244"><ele>111.75</ele><time>2026-04-28T08:55:52.676Z</time></trkpt><trkpt lat="37.9595189" lon="12.8825365"><ele>110.5</ele><time>2026-04-28T08:55:53.676Z</time></trkpt><trkpt lat="37.9594196" lon="12.8824428"><ele>109.25</ele><time>2026-04-28T08:55:54.677Z</time></trkpt><trkpt lat="37.9593457" lon="12.8823247"><ele>108.0</ele><time>2026-04-28T08:55:55.676Z</time></trkpt><trkpt lat="37.9592926" lon="12.8821811"><ele>108.0</ele><time>2026-04-28T08:55:56.676Z</time></trkpt><trkpt lat="37.9592702" lon="12.8820306"><ele>108.0</ele><time>2026-04-28T08:55:57.677Z</time></trkpt><trkpt lat="37.9592796" lon="12.8818642"><ele>108.0</ele><time>2026-04-28T08:55:58.676Z</time></trkpt><trkpt lat="37.9593171" lon="12.8817015"><ele>108.0</ele><time>2026-04-28T08:55:59.677Z</time></trkpt><trkpt lat="37.9593846" lon="12.8815359"><ele>107.33333333333334</ele><time>2026-04-28T08:56:00.677Z</time></trkpt><trkpt lat="37.959456" lon="12.8813568"><ele>106.66666666666667</ele><time>2026-04-28T08:56:01.677Z</time></trkpt><trkpt lat="37.959514" lon="12.8811715"><ele>106.0</ele><time>2026-04-28T08:56:02.677Z</time></trkpt><trkpt lat="37.9595596" lon="12.880983"><ele>106.66666666666667</ele><time>2026-04-28T08:56:03.676Z</time></trkpt><trkpt lat="37.9595926" lon="12.8807784"><ele>107.33333333333334</ele><time>2026-04-28T08:56:04.676Z</time></trkpt><trkpt lat="37.9596154" lon="12.8805604"><ele>108.0</ele><time>2026-04-28T08:56:05.677Z</time></trkpt><trkpt lat="37.9596073" lon="12.8803414"><ele>108.0</ele><time>2026-04-28T08:56:06.678Z</time></trkpt><trkpt lat="37.9595853" lon="12.8801109"><ele>108.0</ele><time>2026-04-28T08:56:07.676Z</time></trkpt><trkpt lat="37.9595607" lon="12.8798752"><ele>108.0</ele><time>2026-04-28T08:56:08.678Z</time></trkpt><trkpt lat="37.9595147" lon="12.8796509"><ele>107.66666666666666</ele><time>2026-04-28T08:56:09.677Z</time></trkpt><trkpt lat="37.9594597" lon="12.8794398"><ele>107.33333333333333</ele><time>2026-04-28T08:56:10.678Z</time></trkpt><trkpt lat="37.9593841" lon="12.8792346"><ele>107.0</ele><time>2026-04-28T08:56:11.676Z</time></trkpt><trkpt lat="37.9592717" lon="12.8790388"><ele>110.66666666666666</ele><time>2026-04-28T08:56:12.678Z</time></trkpt><trkpt lat="37.9591531" lon="12.878874"><ele>114.33333333333334</ele><time>2026-04-28T08:56:13.678Z</time></trkpt><trkpt lat="37.9590599" lon="12.8787197"><ele>118.0</ele><time>2026-04-28T08:56:14.677Z</time></trkpt><trkpt lat="37.9590014" lon="12.878555"><ele>117.33333333333334</ele><time>2026-04-28T08:56:15.677Z</time></trkpt><trkpt lat="37.958978" lon="12.878373"><ele>116.66666666666666</ele><time>2026-04-28T08:56:16.677Z</time></trkpt><trkpt lat="37.9589796" lon="12.8781699"><ele>116.0</ele><time>2026-04-28T08:56:17.676Z</time></trkpt><trkpt lat="37.9589816" lon="12.8779492"><ele>116.0</ele><time>2026-04-28T08:56:18.676Z</time></trkpt><trkpt lat="37.9589462" lon="12.8777234"><ele>116.0</ele><time>2026-04-28T08:56:19.676Z</time></trkpt><trkpt lat="37.9588886" lon="12.8775106"><ele>116.0</ele><time>2026-04-28T08:56:20.677Z</time></trkpt><trkpt lat="37.9588315" lon="12.8773119"><ele>116.33333333333333</ele><time>2026-04-28T08:56:21.678Z</time></trkpt><trkpt lat="37.9587819" lon="12.8771268"><ele>116.66666666666666</ele><time>2026-04-28T08:56:22.677Z</time></trkpt><trkpt lat="37.9587341" lon="12.8769361"><ele>117.0</ele><time>2026-04-28T08:56:23.677Z</time></trkpt><trkpt lat="37.9586992" lon="12.8767407"><ele>117.0</ele><time>2026-04-28T08:56:24.677Z</time></trkpt><trkpt lat="37.9586827" lon="12.8765428"><ele>117.0</ele><time>2026-04-28T08:56:25.678Z</time></trkpt><trkpt lat="37.9586839" lon="12.8763399"><ele>117.0</ele><time>2026-04-28T08:56:26.677Z</time></trkpt><trkpt lat="37.9586874" lon="12.8761306"><ele>118.0</ele><time>2026-04-28T08:56:27.677Z</time></trkpt><trkpt lat="37.9586935" lon="12.8759056"><ele>119.0</ele><time>2026-04-28T08:56:28.676Z</time></trkpt><trkpt lat="37.9586908" lon="12.875703"><ele>120.0</ele><time>2026-04-28T08:56:29.678Z</time></trkpt><trkpt lat="37.9586712" lon="12.8755149"><ele>120.0</ele><time>2026-04-28T08:56:30.678Z</time></trkpt><trkpt lat="37.9586164" lon="12.8753331"><ele>120.0</ele><time>2026-04-28T08:56:31.677Z</time></trkpt><trkpt lat="37.9585307" lon="12.8751484"><ele>120.0</ele><time>2026-04-28T08:56:32.677Z</time></trkpt><trkpt lat="37.9584248" lon="12.8749685"><ele>126.33333333333334</ele><time>2026-04-28T08:56:33.677Z</time></trkpt><trkpt lat="37.9583439" lon="12.8747733"><ele>132.66666666666669</ele><time>2026-04-28T08:56:34.678Z</time></trkpt><trkpt lat="37.9582901" lon="12.8745564"><ele>139.0</ele><time>2026-04-28T08:56:35.676Z</time></trkpt><trkpt lat="37.9582636" lon="12.8743152"><ele>140.33333333333334</ele><time>2026-04-28T08:56:36.677Z</time></trkpt><trkpt lat="37.9582526" lon="12.8740635"><ele>141.66666666666666</ele><time>2026-04-28T08:56:37.676Z</time></trkpt><trkpt lat="37.9582518" lon="12.8738031"><ele>143.0</ele><time>2026-04-28T08:56:38.678Z</time></trkpt><trkpt lat="37.9582541" lon="12.8735651"><ele>142.75</ele><time>2026-04-28T08:56:39.677Z</time></trkpt><trkpt lat="37.958258" lon="12.873358"><ele>142.5</ele><time>2026-04-28T08:56:40.678Z</time></trkpt><trkpt lat="37.9582703" lon="12.8731797"><ele>142.25</ele><time>2026-04-28T08:56:41.677Z</time></trkpt><trkpt lat="37.9583007" lon="12.8730206"><ele>142.0</ele><time>2026-04-28T08:56:42.678Z</time></trkpt><trkpt lat="37.9583742" lon="12.8728729"><ele>138.33333333333334</ele><time>2026-04-28T08:56:43.676Z</time></trkpt><trkpt lat="37.9584794" lon="12.8727362"><ele>134.66666666666666</ele><time>2026-04-28T08:56:44.677Z</time></trkpt><trkpt lat="37.9586215" lon="12.8725791"><ele>131.0</ele><time>2026-04-28T08:56:45.677Z</time></trkpt><trkpt lat="37.9587556" lon="12.8724416"><ele>131.0</ele><time>2026-04-28T08:56:46.676Z</time></trkpt><trkpt lat="37.9588615" lon="12.8723198"><ele>131.0</ele><time>2026-04-28T08:56:47.678Z</time></trkpt><trkpt lat="37.9589388" lon="12.8722024"><ele>131.0</ele><time>2026-04-28T08:56:48.676Z</time></trkpt><trkpt lat="37.9589771" lon="12.8720598"><ele>131.0</ele><time>2026-04-28T08:56:49.676Z</time></trkpt><trkpt lat="37.9589848" lon="12.8719017"><ele>132.33333333333331</ele><time>2026-04-28T08:56:50.677Z</time></trkpt><trkpt lat="37.9589722" lon="12.8717069"><ele>133.66666666666666</ele><time>2026-04-28T08:56:51.678Z</time></trkpt><trkpt lat="37.9589389" lon="12.8715018"><ele>135.0</ele><time>2026-04-28T08:56:52.677Z</time></trkpt><trkpt lat="37.9588855" lon="12.8712967"><ele>135.0</ele><time>2026-04-28T08:56:53.676Z</time></trkpt><trkpt lat="37.9588122" lon="12.8711061"><ele>135.0</ele><time>2026-04-28T08:56:54.676Z</time></trkpt><trkpt lat="37.9587435" lon="12.8709133"><ele>135.0</ele><time>2026-04-28T08:56:55.678Z</time></trkpt><trkpt lat="37.958692" lon="12.8707111"><ele>134.66666666666666</ele><time>2026-04-28T08:56:56.678Z</time></trkpt><trkpt lat="37.9586703" lon="12.8704939"><ele>134.33333333333331</ele><time>2026-04-28T08:56:57.676Z</time></trkpt><trkpt lat="37.9586746" lon="12.8702652"><ele>134.0</ele><time>2026-04-28T08:56:58.679Z</time></trkpt><trkpt lat="37.9586872" lon="12.8700355"><ele>135.0</ele><time>2026-04-28T08:56:59.677Z</time></trkpt><trkpt lat="37.9586907" lon="12.8698099"><ele>136.0</ele><time>2026-04-28T08:57:00.679Z</time></trkpt><trkpt lat="37.9586881" lon="12.8695992"><ele>137.0</ele><time>2026-04-28T08:57:01.677Z</time></trkpt><trkpt lat="37.9586804" lon="12.8693928"><ele>136.33333333333331</ele><time>2026-04-28T08:57:02.676Z</time></trkpt><trkpt lat="37.958627" lon="12.8692061"><ele>135.66666666666666</ele><time>2026-04-28T08:57:03.676Z</time></trkpt><trkpt lat="37.9585718" lon="12.8690217"><ele>135.0</ele><time>2026-04-28T08:57:04.677Z</time></trkpt><trkpt lat="37.9584908" lon="12.8688787"><ele>135.0</ele><time>2026-04-28T08:57:05.676Z</time></trkpt><trkpt lat="37.9584069" lon="12.8687628"><ele>135.0</ele><time>2026-04-28T08:57:06.679Z</time></trkpt><trkpt lat="37.9583121" lon="12.8686763"><ele>135.0</ele><time>2026-04-28T08:57:07.676Z</time></trkpt><trkpt lat="37.9582012" lon="12.8686543"><ele>135.0</ele><time>2026-04-28T08:57:08.676Z</time></trkpt><trkpt lat="37.958099" lon="12.8686571"><ele>139.0</ele><time>2026-04-28T08:57:09.679Z</time></trkpt><trkpt lat="37.958001" lon="12.8687261"><ele>143.0</ele><time>2026-04-28T08:57:10.677Z</time></trkpt><trkpt lat="37.9579024" lon="12.8688063"><ele>147.0</ele><time>2026-04-28T08:57:11.678Z</time></trkpt><trkpt lat="37.957794" lon="12.8688786"><ele>151.0</ele><time>2026-04-28T08:57:12.676Z</time></trkpt><trkpt lat="37.957679" lon="12.8689399"><ele>151.0</ele><time>2026-04-28T08:57:13.676Z</time></trkpt><trkpt lat="37.9575618" lon="12.8689794"><ele>151.0</ele><time>2026-04-28T08:57:14.676Z</time></trkpt><trkpt lat="37.957444" lon="12.86902"><ele>151.0</ele><time>2026-04-28T08:57:15.677Z</time></trkpt><trkpt lat="37.9573381" lon="12.8690659"><ele>151.0</ele><time>2026-04-28T08:57:16.677Z</time></trkpt><trkpt lat="37.9572386" lon="12.8691348"><ele>151.5</ele><time>2026-04-28T08:57:17.677Z</time></trkpt><trkpt lat="37.9571459" lon="12.8691976"><ele>152.0</ele><time>2026-04-28T08:57:18.676Z</time></trkpt><trkpt lat="37.9570647" lon="12.8692498"><ele>152.5</ele><time>2026-04-28T08:57:19.678Z</time></trkpt><trkpt lat="37.9569913" lon="12.8692781"><ele>153.0</ele><time>2026-04-28T08:57:20.677Z</time></trkpt><trkpt lat="37.9569166" lon="12.8692918"><ele>153.5</ele><time>2026-04-28T08:57:21.677Z</time></trkpt><trkpt lat="37.9568477" lon="12.8692739"><ele>154.0</ele><time>2026-04-28T08:57:22.677Z</time></trkpt><trkpt lat="37.9567793" lon="12.8692242"><ele>154.0</ele><time>2026-04-28T08:57:23.676Z</time></trkpt><trkpt lat="37.9567377" lon="12.8691495"><ele>154.0</ele><time>2026-04-28T08:57:24.678Z</time></trkpt><trkpt lat="37.9567295" lon="12.8690453"><ele>154.0</ele><time>2026-04-28T08:57:25.676Z</time></trkpt><trkpt lat="37.9567456" lon="12.8689332"><ele>154.0</ele><time>2026-04-28T08:57:26.676Z</time></trkpt><trkpt lat="37.956782" lon="12.8688205"><ele>154.0</ele><time>2026-04-28T08:57:27.677Z</time></trkpt><trkpt lat="37.9568174" lon="12.8687006"><ele>154.0</ele><time>2026-04-28T08:57:28.677Z</time></trkpt><trkpt lat="37.956846" lon="12.8685884"><ele>154.0</ele><time>2026-04-28T08:57:29.676Z</time></trkpt><trkpt lat="37.9568552" lon="12.8684666"><ele>154.0</ele><time>2026-04-28T08:57:30.677Z</time></trkpt><trkpt lat="37.9568397" lon="12.8683552"><ele>154.0</ele><time>2026-04-28T08:57:31.676Z</time></trkpt><trkpt lat="37.9567962" lon="12.8682412"><ele>154.0</ele><time>2026-04-28T08:57:32.677Z</time></trkpt><trkpt lat="37.9567327" lon="12.8681324"><ele>154.0</ele><time>2026-04-28T08:57:33.678Z</time></trkpt><trkpt lat="37.9566477" lon="12.8680388"><ele>154.75</ele><time>2026-04-28T08:57:34.678Z</time></trkpt><trkpt lat="37.9565471" lon="12.8679478"><ele>155.5</ele><time>2026-04-28T08:57:35.678Z</time></trkpt><trkpt lat="37.9564392" lon="12.8678625"><ele>156.25</ele><time>2026-04-28T08:57:36.678Z</time></trkpt><trkpt lat="37.9563282" lon="12.8677691"><ele>157.0</ele><time>2026-04-28T08:57:37.678Z</time></trkpt><trkpt lat="37.9562119" lon="12.8676711"><ele>153.66666666666669</ele><time>2026-04-28T08:57:38.676Z</time></trkpt><trkpt lat="37.9561003" lon="12.8675528"><ele>150.33333333333334</ele><time>2026-04-28T08:57:39.677Z</time></trkpt><trkpt lat="37.9559857" lon="12.867422"><ele>147.0</ele><time>2026-04-28T08:57:40.677Z</time></trkpt><trkpt lat="37.9558777" lon="12.8672769"><ele>151.33333333333334</ele><time>2026-04-28T08:57:41.677Z</time></trkpt><trkpt lat="37.9557705" lon="12.8671295"><ele>155.66666666666669</ele><time>2026-04-28T08:57:42.676Z</time></trkpt><trkpt lat="37.9556532" lon="12.866992"><ele>160.0</ele><time>2026-04-28T08:57:43.676Z</time></trkpt><trkpt lat="37.95554" lon="12.8668564"><ele>157.25</ele><time>2026-04-28T08:57:44.677Z</time></trkpt><trkpt lat="37.9554323" lon="12.8667286"><ele>154.5</ele><time>2026-04-28T08:57:45.677Z</time></trkpt><trkpt lat="37.9553313" lon="12.8666028"><ele>151.75</ele><time>2026-04-28T08:57:46.676Z</time></trkpt><trkpt lat="37.95524" lon="12.8664585"><ele>149.0</ele><time>2026-04-28T08:57:47.678Z</time></trkpt><trkpt lat="37.9551651" lon="12.8662981"><ele>149.0</ele><time>2026-04-28T08:57:48.677Z</time></trkpt><trkpt lat="37.9551011" lon="12.8661368"><ele>149.0</ele><time>2026-04-28T08:57:49.676Z</time></trkpt><trkpt lat="37.9550481" lon="12.8659847"><ele>149.0</ele><time>2026-04-28T08:57:50.677Z</time></trkpt><trkpt lat="37.954989" lon="12.8658335"><ele>149.0</ele><time>2026-04-28T08:57:51.676Z</time></trkpt><trkpt lat="37.9549199" lon="12.8656997"><ele>151.0</ele><time>2026-04-28T08:57:52.677Z</time></trkpt><trkpt lat="37.9548392" lon="12.8655778"><ele>153.0</ele><time>2026-04-28T08:57:53.679Z</time></trkpt><trkpt lat="37.9547436" lon="12.8654722"><ele>155.0</ele><time>2026-04-28T08:57:54.677Z</time></trkpt><trkpt lat="37.9545174" lon="12.8653463"><ele>155.0</ele><time>2026-04-28T08:57:56.676Z</time></trkpt><trkpt lat="37.9544033" lon="12.865302"><ele>155.0</ele><time>2026-04-28T08:57:57.677Z</time></trkpt><trkpt lat="37.9542932" lon="12.8652474"><ele>155.0</ele><time>2026-04-28T08:57:58.677Z</time></trkpt><trkpt lat="37.9541909" lon="12.8651714"><ele>155.0</ele><time>2026-04-28T08:57:59.678Z</time></trkpt><trkpt lat="37.9540877" lon="12.8650682"><ele>155.5</ele><time>2026-04-28T08:58:00.677Z</time></trkpt><trkpt lat="37.9540034" lon="12.8649354"><ele>156.0</ele><time>2026-04-28T08:58:01.676Z</time></trkpt><trkpt lat="37.9539246" lon="12.8647968"><ele>156.5</ele><time>2026-04-28T08:58:02.677Z</time></trkpt><trkpt lat="37.9538583" lon="12.8646529"><ele>157.0</ele><time>2026-04-28T08:58:03.677Z</time></trkpt><trkpt lat="37.9537895" lon="12.8645252"><ele>157.0</ele><time>2026-04-28T08:58:04.676Z</time></trkpt><trkpt lat="37.9537207" lon="12.8644152"><ele>157.0</ele><time>2026-04-28T08:58:05.676Z</time></trkpt><trkpt lat="37.9536529" lon="12.8643123"><ele>157.0</ele><time>2026-04-28T08:58:06.677Z</time></trkpt><trkpt lat="37.9535804" lon="12.8642262"><ele>157.0</ele><time>2026-04-28T08:58:07.677Z</time></trkpt><trkpt lat="37.9534904" lon="12.8641718"><ele>157.0</ele><time>2026-04-28T08:58:08.678Z</time></trkpt><trkpt lat="37.9533946" lon="12.8641433"><ele>156.66666666666669</ele><time>2026-04-28T08:58:09.676Z</time></trkpt><trkpt lat="37.9532985" lon="12.8641127"><ele>156.33333333333334</ele><time>2026-04-28T08:58:10.677Z</time></trkpt><trkpt lat="37.9532191" lon="12.8640642"><ele>156.0</ele><time>2026-04-28T08:58:11.676Z</time></trkpt><trkpt lat="37.9531589" lon="12.8639941"><ele>155.66666666666666</ele><time>2026-04-28T08:58:12.677Z</time></trkpt><trkpt lat="37.9531251" lon="12.8639036"><ele>155.33333333333331</ele><time>2026-04-28T08:58:13.678Z</time></trkpt><trkpt lat="37.9531067" lon="12.8638051"><ele>155.0</ele><time>2026-04-28T08:58:14.678Z</time></trkpt><trkpt lat="37.9531162" lon="12.863705"><ele>155.0</ele><time>2026-04-28T08:58:15.677Z</time></trkpt><trkpt lat="37.9531481" lon="12.8636094"><ele>155.0</ele><time>2026-04-28T08:58:16.677Z</time></trkpt><trkpt lat="37.9531863" lon="12.8635185"><ele>155.0</ele><time>2026-04-28T08:58:17.677Z</time></trkpt><trkpt lat="37.9532138" lon="12.8634273"><ele>155.0</ele><time>2026-04-28T08:58:18.676Z</time></trkpt><trkpt lat="37.9532328" lon="12.8633271"><ele>155.0</ele><time>2026-04-28T08:58:19.677Z</time></trkpt><trkpt lat="37.9532281" lon="12.8632174"><ele>155.0</ele><time>2026-04-28T08:58:20.676Z</time></trkpt><trkpt lat="37.9532028" lon="12.8631063"><ele>151.0</ele><time>2026-04-28T08:58:21.677Z</time></trkpt><trkpt lat="37.9530658" lon="12.8629131"><ele>147.0</ele><time>2026-04-28T08:58:23.676Z</time></trkpt><trkpt lat="37.9528499" lon="12.8627467"><ele>147.0</ele><time>2026-04-28T08:58:25.676Z</time></trkpt><trkpt lat="37.952726" lon="12.862661"><ele>147.0</ele><time>2026-04-28T08:58:26.677Z</time></trkpt><trkpt lat="37.9525926" lon="12.8625825"><ele>147.0</ele><time>2026-04-28T08:58:27.678Z</time></trkpt><trkpt lat="37.9524497" lon="12.8625177"><ele>147.0</ele><time>2026-04-28T08:58:28.677Z</time></trkpt><trkpt lat="37.9523001" lon="12.8624704"><ele>146.66666666666666</ele><time>2026-04-28T08:58:29.678Z</time></trkpt><trkpt lat="37.9521445" lon="12.8624347"><ele>146.33333333333331</ele><time>2026-04-28T08:58:30.678Z</time></trkpt><trkpt lat="37.9519774" lon="12.8624131"><ele>146.0</ele><time>2026-04-28T08:58:31.679Z</time></trkpt><trkpt lat="37.9518037" lon="12.8624068"><ele>147.66666666666666</ele><time>2026-04-28T08:58:32.677Z</time></trkpt><trkpt lat="37.9516214" lon="12.8623945"><ele>149.33333333333334</ele><time>2026-04-28T08:58:33.677Z</time></trkpt><trkpt lat="37.9514117" lon="12.862364"><ele>151.0</ele><time>2026-04-28T08:58:34.677Z</time></trkpt><trkpt lat="37.9511832" lon="12.8623165"><ele>156.0</ele><time>2026-04-28T08:58:35.677Z</time></trkpt><trkpt lat="37.9507065" lon="12.8621849"><ele>156.0</ele><time>2026-04-28T08:58:37.676Z</time></trkpt><trkpt lat="37.9504985" lon="12.8621258"><ele>156.0</ele><time>2026-04-28T08:58:38.676Z</time></trkpt><trkpt lat="37.9503085" lon="12.8620693"><ele>156.0</ele><time>2026-04-28T08:58:39.678Z</time></trkpt><trkpt lat="37.9501388" lon="12.8620125"><ele>155.75</ele><time>2026-04-28T08:58:40.677Z</time></trkpt><trkpt lat="37.9500015" lon="12.8619506"><ele>155.5</ele><time>2026-04-28T08:58:41.677Z</time></trkpt><trkpt lat="37.9498879" lon="12.8618792"><ele>155.25</ele><time>2026-04-28T08:58:42.676Z</time></trkpt><trkpt lat="37.9497857" lon="12.861794"><ele>155.0</ele><time>2026-04-28T08:58:43.676Z</time></trkpt><trkpt lat="37.9497186" lon="12.8616911"><ele>152.25</ele><time>2026-04-28T08:58:44.677Z</time></trkpt><trkpt lat="37.9496549" lon="12.861594"><ele>149.5</ele><time>2026-04-28T08:58:45.676Z</time></trkpt><trkpt lat="37.9495769" lon="12.8615158"><ele>146.75</ele><time>2026-04-28T08:58:46.676Z</time></trkpt><trkpt lat="37.9494714" lon="12.8614564"><ele>144.0</ele><time>2026-04-28T08:58:47.677Z</time></trkpt><trkpt lat="37.9493278" lon="12.8614319"><ele>145.0</ele><time>2026-04-28T08:58:48.677Z</time></trkpt><trkpt lat="37.9491512" lon="12.8614375"><ele>146.0</ele><time>2026-04-28T08:58:49.677Z</time></trkpt><trkpt lat="37.9489709" lon="12.8614692"><ele>147.0</ele><time>2026-04-28T08:58:50.676Z</time></trkpt><trkpt lat="37.948786" lon="12.861507"><ele>147.0</ele><time>2026-04-28T08:58:51.677Z</time></trkpt><trkpt lat="37.9485923" lon="12.8615293"><ele>147.0</ele><time>2026-04-28T08:58:52.677Z</time></trkpt><trkpt lat="37.9483924" lon="12.8615416"><ele>147.0</ele><time>2026-04-28T08:58:53.677Z</time></trkpt><trkpt lat="37.9481863" lon="12.8615512"><ele>146.66666666666666</ele><time>2026-04-28T08:58:54.677Z</time></trkpt><trkpt lat="37.9479728" lon="12.8615611"><ele>146.33333333333331</ele><time>2026-04-28T08:58:55.677Z</time></trkpt><trkpt lat="37.9477663" lon="12.8615697"><ele>146.0</ele><time>2026-04-28T08:58:56.677Z</time></trkpt><trkpt lat="37.9475612" lon="12.8615715"><ele>147.0</ele><time>2026-04-28T08:58:57.677Z</time></trkpt><trkpt lat="37.9473602" lon="12.8615595"><ele>148.0</ele><time>2026-04-28T08:58:58.677Z</time></trkpt><trkpt lat="37.9471589" lon="12.8615316"><ele>149.0</ele><time>2026-04-28T08:58:59.679Z</time></trkpt><trkpt lat="37.9469623" lon="12.8614947"><ele>149.0</ele><time>2026-04-28T08:59:00.677Z</time></trkpt><trkpt lat="37.9467674" lon="12.8614544"><ele>149.0</ele><time>2026-04-28T08:59:01.677Z</time></trkpt><trkpt lat="37.9465791" lon="12.8614139"><ele>149.0</ele><time>2026-04-28T08:59:02.678Z</time></trkpt><trkpt lat="37.9463804" lon="12.8613861"><ele>150.66666666666666</ele><time>2026-04-28T08:59:03.677Z</time></trkpt><trkpt lat="37.9461921" lon="12.861363"><ele>152.33333333333334</ele><time>2026-04-28T08:59:04.679Z</time></trkpt><trkpt lat="37.9460056" lon="12.8613435"><ele>154.0</ele><time>2026-04-28T08:59:05.678Z</time></trkpt><trkpt lat="37.9458222" lon="12.8613007"><ele>156.0</ele><time>2026-04-28T08:59:06.677Z</time></trkpt><trkpt lat="37.9456464" lon="12.8612362"><ele>158.0</ele><time>2026-04-28T08:59:07.676Z</time></trkpt><trkpt lat="37.9454784" lon="12.861158"><ele>160.0</ele><time>2026-04-28T08:59:08.678Z</time></trkpt><trkpt lat="37.945316" lon="12.8610786"><ele>160.0</ele><time>2026-04-28T08:59:09.676Z</time></trkpt><trkpt lat="37.9451591" lon="12.8610013"><ele>160.0</ele><time>2026-04-28T08:59:10.677Z</time></trkpt><trkpt lat="37.9450171" lon="12.8609325"><ele>160.0</ele><time>2026-04-28T08:59:11.676Z</time></trkpt><trkpt lat="37.9448842" lon="12.8608625"><ele>157.5</ele><time>2026-04-28T08:59:12.676Z</time></trkpt><trkpt lat="37.944777" lon="12.860779"><ele>155.0</ele><time>2026-04-28T08:59:13.677Z</time></trkpt><trkpt lat="37.9446788" lon="12.860685"><ele>152.5</ele><time>2026-04-28T08:59:14.677Z</time></trkpt><trkpt lat="37.9446063" lon="12.860535"><ele>150.0</ele><time>2026-04-28T08:59:15.676Z</time></trkpt><trkpt lat="37.9446193" lon="12.8603742"><ele>150.0</ele><time>2026-04-28T08:59:16.678Z</time></trkpt><trkpt lat="37.9446112" lon="12.8602117"><ele>150.0</ele><time>2026-04-28T08:59:17.677Z</time></trkpt><trkpt lat="37.9446209" lon="12.860061"><ele>150.0</ele><time>2026-04-28T08:59:18.677Z</time></trkpt><trkpt lat="37.9446014" lon="12.8599074"><ele>150.0</ele><time>2026-04-28T08:59:19.677Z</time></trkpt><trkpt lat="37.9445527" lon="12.85978"><ele>152.0</ele><time>2026-04-28T08:59:20.677Z</time></trkpt><trkpt lat="37.9444574" lon="12.859665"><ele>154.0</ele><time>2026-04-28T08:59:21.677Z</time></trkpt><trkpt lat="37.9443285" lon="12.8595728"><ele>156.0</ele><time>2026-04-28T08:59:22.677Z</time></trkpt><trkpt lat="37.9441724" lon="12.8594816"><ele>156.0</ele><time>2026-04-28T08:59:23.676Z</time></trkpt><trkpt lat="37.9440145" lon="12.8593988"><ele>156.0</ele><time>2026-04-28T08:59:24.676Z</time></trkpt><trkpt lat="37.943856" lon="12.8593348"><ele>156.0</ele><time>2026-04-28T08:59:25.677Z</time></trkpt><trkpt lat="37.9436909" lon="12.8592872"><ele>156.0</ele><time>2026-04-28T08:59:26.678Z</time></trkpt><trkpt lat="37.9435123" lon="12.859297"><ele>156.0</ele><time>2026-04-28T08:59:27.677Z</time></trkpt><trkpt lat="37.9433499" lon="12.8592894"><ele>156.0</ele><time>2026-04-28T08:59:28.676Z</time></trkpt><trkpt lat="37.9432026" lon="12.8592475"><ele>155.25</ele><time>2026-04-28T08:59:29.678Z</time></trkpt><trkpt lat="37.943074" lon="12.8591759"><ele>154.5</ele><time>2026-04-28T08:59:30.677Z</time></trkpt><trkpt lat="37.9429803" lon="12.8590991"><ele>153.75</ele><time>2026-04-28T08:59:31.677Z</time></trkpt><trkpt lat="37.9429394" lon="12.858982"><ele>153.0</ele><time>2026-04-28T08:59:32.676Z</time></trkpt><trkpt lat="37.9429205" lon="12.8588374"><ele>153.0</ele><time>2026-04-28T08:59:33.677Z</time></trkpt><trkpt lat="37.9429115" lon="12.8586929"><ele>153.0</ele><time>2026-04-28T08:59:34.676Z</time></trkpt><trkpt lat="37.9428822" lon="12.8585628"><ele>153.0</ele><time>2026-04-28T08:59:35.678Z</time></trkpt><trkpt lat="37.9428225" lon="12.8584517"><ele>153.0</ele><time>2026-04-28T08:59:36.677Z</time></trkpt><trkpt lat="37.9426031" lon="12.8582363"><ele>153.33333333333334</ele><time>2026-04-28T08:59:38.676Z</time></trkpt><trkpt lat="37.9424609" lon="12.8581138"><ele>153.66666666666669</ele><time>2026-04-28T08:59:39.676Z</time></trkpt><trkpt lat="37.942303" lon="12.8579638"><ele>154.0</ele><time>2026-04-28T08:59:40.678Z</time></trkpt><trkpt lat="37.9421336" lon="12.8578137"><ele>154.0</ele><time>2026-04-28T08:59:41.677Z</time></trkpt><trkpt lat="37.9419594" lon="12.8576477"><ele>154.0</ele><time>2026-04-28T08:59:42.676Z</time></trkpt><trkpt lat="37.9417844" lon="12.857485"><ele>154.0</ele><time>2026-04-28T08:59:43.677Z</time></trkpt><trkpt lat="37.9416034" lon="12.8573102"><ele>154.5</ele><time>2026-04-28T08:59:44.678Z</time></trkpt><trkpt lat="37.9414244" lon="12.8571268"><ele>155.0</ele><time>2026-04-28T08:59:45.676Z</time></trkpt><trkpt lat="37.9412419" lon="12.8569419"><ele>155.0</ele><time>2026-04-28T08:59:46.678Z</time></trkpt><trkpt lat="37.9410227" lon="12.85672"><ele>155.0</ele><time>2026-04-28T08:59:47.677Z</time></trkpt><trkpt lat="37.940806" lon="12.8565092"><ele>155.0</ele><time>2026-04-28T08:59:48.677Z</time></trkpt><trkpt lat="37.9405948" lon="12.8563038"><ele>155.0</ele><time>2026-04-28T08:59:49.677Z</time></trkpt><trkpt lat="37.9403896" lon="12.8561118"><ele>154.0</ele><time>2026-04-28T08:59:50.678Z</time></trkpt><trkpt lat="37.9401904" lon="12.8559232"><ele>153.0</ele><time>2026-04-28T08:59:51.677Z</time></trkpt><trkpt lat="37.939997" lon="12.8557468"><ele>155.5</ele><time>2026-04-28T08:59:52.677Z</time></trkpt><trkpt lat="37.9397892" lon="12.8555793"><ele>158.0</ele><time>2026-04-28T08:59:53.677Z</time></trkpt><trkpt lat="37.9395658" lon="12.8554343"><ele>158.0</ele><time>2026-04-28T08:59:54.676Z</time></trkpt><trkpt lat="37.9393324" lon="12.8553081"><ele>158.0</ele><time>2026-04-28T08:59:55.677Z</time></trkpt><trkpt lat="37.9391033" lon="12.8551951"><ele>158.0</ele><time>2026-04-28T08:59:56.677Z</time></trkpt><trkpt lat="37.938883" lon="12.8550956"><ele>158.0</ele><time>2026-04-28T08:59:57.676Z</time></trkpt><trkpt lat="37.9386632" lon="12.8550034"><ele>158.0</ele><time>2026-04-28T08:59:58.677Z</time></trkpt><trkpt lat="37.9384501" lon="12.8549182"><ele>158.0</ele><time>2026-04-28T08:59:59.676Z</time></trkpt><trkpt lat="37.938247" lon="12.8548278"><ele>158.0</ele><time>2026-04-28T09:00:00.678Z</time></trkpt><trkpt lat="37.9380484" lon="12.8547366"><ele>159.66666666666666</ele><time>2026-04-28T09:00:01.678Z</time></trkpt><trkpt lat="37.9378652" lon="12.854663"><ele>161.33333333333334</ele><time>2026-04-28T09:00:02.677Z</time></trkpt><trkpt lat="37.937691" lon="12.8545931"><ele>163.0</ele><time>2026-04-28T09:00:03.677Z</time></trkpt><trkpt lat="37.9375282" lon="12.8545303"><ele>163.25</ele><time>2026-04-28T09:00:04.676Z</time></trkpt><trkpt lat="37.9373866" lon="12.854458"><ele>163.5</ele><time>2026-04-28T09:00:05.678Z</time></trkpt><trkpt lat="37.9372592" lon="12.8543709"><ele>163.75</ele><time>2026-04-28T09:00:06.678Z</time></trkpt><trkpt lat="37.9371362" lon="12.8542654"><ele>164.0</ele><time>2026-04-28T09:00:07.677Z</time></trkpt><trkpt lat="37.9370115" lon="12.8541575"><ele>162.5</ele><time>2026-04-28T09:00:08.676Z</time></trkpt><trkpt lat="37.9367313" lon="12.8539297"><ele>161.0</ele><time>2026-04-28T09:00:10.677Z</time></trkpt><trkpt lat="37.9365682" lon="12.8538004"><ele>161.0</ele><time>2026-04-28T09:00:11.678Z</time></trkpt><trkpt lat="37.9363929" lon="12.8536769"><ele>161.0</ele><time>2026-04-28T09:00:12.677Z</time></trkpt><trkpt lat="37.9362034" lon="12.8535697"><ele>161.0</ele><time>2026-04-28T09:00:13.678Z</time></trkpt><trkpt lat="37.9360131" lon="12.8534738"><ele>160.0</ele><time>2026-04-28T09:00:14.677Z</time></trkpt><trkpt lat="37.9358222" lon="12.8533885"><ele>159.0</ele><time>2026-04-28T09:00:15.676Z</time></trkpt><trkpt lat="37.9354525" lon="12.8532052"><ele>159.0</ele><time>2026-04-28T09:00:17.677Z</time></trkpt><trkpt lat="37.9352838" lon="12.8530866"><ele>159.0</ele><time>2026-04-28T09:00:18.678Z</time></trkpt><trkpt lat="37.9351303" lon="12.852959"><ele>159.0</ele><time>2026-04-28T09:00:19.676Z</time></trkpt><trkpt lat="37.9349864" lon="12.8528051"><ele>159.33333333333334</ele><time>2026-04-28T09:00:20.676Z</time></trkpt><trkpt lat="37.9348567" lon="12.8526605"><ele>159.66666666666669</ele><time>2026-04-28T09:00:21.677Z</time></trkpt><trkpt lat="37.9347434" lon="12.8525243"><ele>160.0</ele><time>2026-04-28T09:00:22.676Z</time></trkpt><trkpt lat="37.9345252" lon="12.852324"><ele>160.0</ele><time>2026-04-28T09:00:24.677Z</time></trkpt><trkpt lat="37.9343897" lon="12.8522851"><ele>160.0</ele><time>2026-04-28T09:00:25.676Z</time></trkpt><trkpt lat="37.9342394" lon="12.8522857"><ele>160.0</ele><time>2026-04-28T09:00:26.676Z</time></trkpt><trkpt lat="37.9340832" lon="12.8523034"><ele>160.0</ele><time>2026-04-28T09:00:27.677Z</time></trkpt><trkpt lat="37.9339143" lon="12.8523369"><ele>162.33333333333334</ele><time>2026-04-28T09:00:28.677Z</time></trkpt><trkpt lat="37.9337422" lon="12.8523779"><ele>164.66666666666666</ele><time>2026-04-28T09:00:29.676Z</time></trkpt><trkpt lat="37.9335685" lon="12.8524197"><ele>167.0</ele><time>2026-04-28T09:00:30.678Z</time></trkpt><trkpt lat="37.9334043" lon="12.8524555"><ele>169.0</ele><time>2026-04-28T09:00:31.676Z</time></trkpt><trkpt lat="37.933244" lon="12.8524726"><ele>171.0</ele><time>2026-04-28T09:00:32.679Z</time></trkpt><trkpt lat="37.9330925" lon="12.8524777"><ele>173.0</ele><time>2026-04-28T09:00:33.678Z</time></trkpt><trkpt lat="37.9327914" lon="12.8523968"><ele>173.0</ele><time>2026-04-28T09:00:35.678Z</time></trkpt><trkpt lat="37.9326516" lon="12.8522921"><ele>173.0</ele><time>2026-04-28T09:00:36.676Z</time></trkpt><trkpt lat="37.9325166" lon="12.8521601"><ele>173.0</ele><time>2026-04-28T09:00:37.678Z</time></trkpt><trkpt lat="37.9323808" lon="12.8520168"><ele>171.66666666666666</ele><time>2026-04-28T09:00:38.677Z</time></trkpt><trkpt lat="37.9322371" lon="12.8518927"><ele>170.33333333333334</ele><time>2026-04-28T09:00:39.677Z</time></trkpt><trkpt lat="37.9320869" lon="12.8517891"><ele>169.0</ele><time>2026-04-28T09:00:40.677Z</time></trkpt><trkpt lat="37.9319361" lon="12.8517111"><ele>169.0</ele><time>2026-04-28T09:00:41.678Z</time></trkpt><trkpt lat="37.9317936" lon="12.8516478"><ele>169.0</ele><time>2026-04-28T09:00:42.677Z</time></trkpt><trkpt lat="37.9316725" lon="12.8515687"><ele>169.0</ele><time>2026-04-28T09:00:43.678Z</time></trkpt><trkpt lat="37.931556" lon="12.8514623"><ele>169.0</ele><time>2026-04-28T09:00:44.678Z</time></trkpt><trkpt lat="37.9314475" lon="12.8513248"><ele>171.0</ele><time>2026-04-28T09:00:45.677Z</time></trkpt><trkpt lat="37.9313485" lon="12.8511602"><ele>173.0</ele><time>2026-04-28T09:00:46.676Z</time></trkpt><trkpt lat="37.9312454" lon="12.8509825"><ele>175.0</ele><time>2026-04-28T09:00:47.678Z</time></trkpt><trkpt lat="37.9311274" lon="12.8508276"><ele>175.0</ele><time>2026-04-28T09:00:48.678Z</time></trkpt><trkpt lat="37.9309916" lon="12.8506914"><ele>175.0</ele><time>2026-04-28T09:00:49.677Z</time></trkpt><trkpt lat="37.9308317" lon="12.8505961"><ele>175.0</ele><time>2026-04-28T09:00:50.677Z</time></trkpt><trkpt lat="37.9306472" lon="12.8505299"><ele>179.33333333333334</ele><time>2026-04-28T09:00:51.676Z</time></trkpt><trkpt lat="37.9304515" lon="12.8504741"><ele>183.66666666666666</ele><time>2026-04-28T09:00:52.677Z</time></trkpt><trkpt lat="37.9302479" lon="12.8504347"><ele>188.0</ele><time>2026-04-28T09:00:53.677Z</time></trkpt><trkpt lat="37.9300415" lon="12.8503921"><ele>190.33333333333331</ele><time>2026-04-28T09:00:54.676Z</time></trkpt><trkpt lat="37.9298518" lon="12.8503478"><ele>192.66666666666666</ele><time>2026-04-28T09:00:55.677Z</time></trkpt><trkpt lat="37.9296823" lon="12.8503012"><ele>195.0</ele><time>2026-04-28T09:00:56.678Z</time></trkpt><trkpt lat="37.9295309" lon="12.8502223"><ele>195.0</ele><time>2026-04-28T09:00:57.677Z</time></trkpt><trkpt lat="37.9293851" lon="12.8501169"><ele>195.0</ele><time>2026-04-28T09:00:58.676Z</time></trkpt><trkpt lat="37.9292564" lon="12.8499616"><ele>195.0</ele><time>2026-04-28T09:00:59.677Z</time></trkpt><trkpt lat="37.9291425" lon="12.8498015"><ele>195.0</ele><time>2026-04-28T09:01:00.677Z</time></trkpt><trkpt lat="37.9290232" lon="12.8496566"><ele>195.0</ele><time>2026-04-28T09:01:01.676Z</time></trkpt><trkpt lat="37.9288757" lon="12.8495452"><ele>195.0</ele><time>2026-04-28T09:01:02.677Z</time></trkpt><trkpt lat="37.9287012" lon="12.8494617"><ele>195.0</ele><time>2026-04-28T09:01:03.677Z</time></trkpt><trkpt lat="37.9285057" lon="12.8493925"><ele>195.0</ele><time>2026-04-28T09:01:04.676Z</time></trkpt><trkpt lat="37.9283025" lon="12.8493292"><ele>195.0</ele><time>2026-04-28T09:01:05.676Z</time></trkpt><trkpt lat="37.9280956" lon="12.849265"><ele>195.33333333333331</ele><time>2026-04-28T09:01:06.677Z</time></trkpt><trkpt lat="37.9278929" lon="12.8492074"><ele>195.66666666666666</ele><time>2026-04-28T09:01:07.677Z</time></trkpt><trkpt lat="37.9276888" lon="12.8491648"><ele>196.0</ele><time>2026-04-28T09:01:08.677Z</time></trkpt><trkpt lat="37.9274865" lon="12.8491348"><ele>198.66666666666666</ele><time>2026-04-28T09:01:09.676Z</time></trkpt><trkpt lat="37.9272869" lon="12.8491207"><ele>201.33333333333331</ele><time>2026-04-28T09:01:10.677Z</time></trkpt><trkpt lat="37.9270953" lon="12.8491071"><ele>204.0</ele><time>2026-04-28T09:01:11.678Z</time></trkpt><trkpt lat="37.9269142" lon="12.8490953"><ele>204.0</ele><time>2026-04-28T09:01:12.677Z</time></trkpt><trkpt lat="37.926745" lon="12.8490767"><ele>204.0</ele><time>2026-04-28T09:01:13.678Z</time></trkpt><trkpt lat="37.9265835" lon="12.8490513"><ele>204.0</ele><time>2026-04-28T09:01:14.677Z</time></trkpt><trkpt lat="37.926434" lon="12.8490329"><ele>205.25</ele><time>2026-04-28T09:01:15.677Z</time></trkpt><trkpt lat="37.9262868" lon="12.8490186"><ele>206.5</ele><time>2026-04-28T09:01:16.678Z</time></trkpt><trkpt lat="37.9261583" lon="12.8489961"><ele>207.75</ele><time>2026-04-28T09:01:17.676Z</time></trkpt><trkpt lat="37.9260335" lon="12.8489882"><ele>209.0</ele><time>2026-04-28T09:01:18.676Z</time></trkpt><trkpt lat="37.9259168" lon="12.8489724"><ele>209.6</ele><time>2026-04-28T09:01:19.676Z</time></trkpt><trkpt lat="37.9258104" lon="12.848962"><ele>210.2</ele><time>2026-04-28T09:01:20.677Z</time></trkpt><trkpt lat="37.9257123" lon="12.8489776"><ele>210.79999999999998</ele><time>2026-04-28T09:01:21.678Z</time></trkpt><trkpt lat="37.9256234" lon="12.8490204"><ele>211.39999999999998</ele><time>2026-04-28T09:01:22.677Z</time></trkpt><trkpt lat="37.9255468" lon="12.8490859"><ele>212.0</ele><time>2026-04-28T09:01:23.678Z</time></trkpt><trkpt lat="37.9254765" lon="12.8491683"><ele>212.0</ele><time>2026-04-28T09:01:24.678Z</time></trkpt><trkpt lat="37.925416" lon="12.8492602"><ele>212.0</ele><time>2026-04-28T09:01:25.677Z</time></trkpt><trkpt lat="37.9253542" lon="12.8493538"><ele>212.0</ele><time>2026-04-28T09:01:26.678Z</time></trkpt><trkpt lat="37.9252899" lon="12.8494492"><ele>212.0</ele><time>2026-04-28T09:01:27.678Z</time></trkpt><trkpt lat="37.9252272" lon="12.8495392"><ele>212.0</ele><time>2026-04-28T09:01:28.677Z</time></trkpt><trkpt lat="37.9251563" lon="12.8496097"><ele>214.8</ele><time>2026-04-28T09:01:29.677Z</time></trkpt><trkpt lat="37.9250787" lon="12.8496636"><ele>217.6</ele><time>2026-04-28T09:01:30.678Z</time></trkpt><trkpt lat="37.9249951" lon="12.8496941"><ele>220.40000000000003</ele><time>2026-04-28T09:01:31.678Z</time></trkpt><trkpt lat="37.9249017" lon="12.8496934"><ele>223.20000000000002</ele><time>2026-04-28T09:01:32.676Z</time></trkpt><trkpt lat="37.9248058" lon="12.8496801"><ele>226.0</ele><time>2026-04-28T09:01:33.676Z</time></trkpt><trkpt lat="37.9247085" lon="12.8496634"><ele>226.0</ele><time>2026-04-28T09:01:34.678Z</time></trkpt><trkpt lat="37.9246183" lon="12.8496308"><ele>226.00000000000003</ele><time>2026-04-28T09:01:35.677Z</time></trkpt><trkpt lat="37.9245213" lon="12.8495885"><ele>226.00000000000003</ele><time>2026-04-28T09:01:36.677Z</time></trkpt><trkpt lat="37.9244247" lon="12.8495491"><ele>226.0</ele><time>2026-04-28T09:01:37.678Z</time></trkpt><trkpt lat="37.9243297" lon="12.8495064"><ele>226.0</ele><time>2026-04-28T09:01:38.678Z</time></trkpt><trkpt lat="37.9242298" lon="12.8494673"><ele>226.8</ele><time>2026-04-28T09:01:39.676Z</time></trkpt><trkpt lat="37.9241265" lon="12.849439"><ele>227.60000000000002</ele><time>2026-04-28T09:01:40.676Z</time></trkpt><trkpt lat="37.9240197" lon="12.849408"><ele>228.4</ele><time>2026-04-28T09:01:41.677Z</time></trkpt><trkpt lat="37.9239155" lon="12.8493898"><ele>229.2</ele><time>2026-04-28T09:01:42.677Z</time></trkpt><trkpt lat="37.9238066" lon="12.8493819"><ele>230.0</ele><time>2026-04-28T09:01:43.677Z</time></trkpt><trkpt lat="37.9236958" lon="12.8493972"><ele>230.0</ele><time>2026-04-28T09:01:44.676Z</time></trkpt><trkpt lat="37.9235977" lon="12.8494395"><ele>230.0</ele><time>2026-04-28T09:01:45.676Z</time></trkpt><trkpt lat="37.9235051" lon="12.8495133"><ele>230.0</ele><time>2026-04-28T09:01:46.676Z</time></trkpt><trkpt lat="37.9234125" lon="12.8496209"><ele>230.0</ele><time>2026-04-28T09:01:47.677Z</time></trkpt><trkpt lat="37.9233049" lon="12.849747"><ele>229.0</ele><time>2026-04-28T09:01:48.677Z</time></trkpt><trkpt lat="37.9231928" lon="12.8498894"><ele>228.0</ele><time>2026-04-28T09:01:49.677Z</time></trkpt><trkpt lat="37.9230676" lon="12.8500234"><ele>227.0</ele><time>2026-04-28T09:01:50.677Z</time></trkpt><trkpt lat="37.9229484" lon="12.8501461"><ele>226.75</ele><time>2026-04-28T09:01:51.678Z</time></trkpt><trkpt lat="37.9228305" lon="12.8502622"><ele>226.5</ele><time>2026-04-28T09:01:52.676Z</time></trkpt><trkpt lat="37.9227218" lon="12.8503721"><ele>226.25</ele><time>2026-04-28T09:01:53.677Z</time></trkpt><trkpt lat="37.9226162" lon="12.8504899"><ele>226.0</ele><time>2026-04-28T09:01:54.677Z</time></trkpt><trkpt lat="37.9225058" lon="12.8505874"><ele>226.0</ele><time>2026-04-28T09:01:55.678Z</time></trkpt><trkpt lat="37.9223981" lon="12.850685"><ele>226.0</ele><time>2026-04-28T09:01:56.679Z</time></trkpt><trkpt lat="37.922292" lon="12.8507808"><ele>226.0</ele><time>2026-04-28T09:01:57.679Z</time></trkpt><trkpt lat="37.9221734" lon="12.8508949"><ele>226.0</ele><time>2026-04-28T09:01:58.678Z</time></trkpt><trkpt lat="37.9220585" lon="12.8509999"><ele>228.33333333333331</ele><time>2026-04-28T09:01:59.678Z</time></trkpt><trkpt lat="37.9219197" lon="12.8511422"><ele>230.66666666666669</ele><time>2026-04-28T09:02:00.678Z</time></trkpt><trkpt lat="37.9218068" lon="12.8512809"><ele>233.0</ele><time>2026-04-28T09:02:01.677Z</time></trkpt><trkpt lat="37.9216975" lon="12.8514071"><ele>233.0</ele><time>2026-04-28T09:02:02.678Z</time></trkpt><trkpt lat="37.9215876" lon="12.8515383"><ele>233.0</ele><time>2026-04-28T09:02:03.677Z</time></trkpt><trkpt lat="37.9215165" lon="12.8516304"><ele>233.0</ele><time>2026-04-28T09:02:04.677Z</time></trkpt><trkpt lat="37.921425" lon="12.8517386"><ele>233.0</ele><time>2026-04-28T09:02:05.677Z</time></trkpt><trkpt lat="37.9213195" lon="12.851833"><ele>238.33333333333334</ele><time>2026-04-28T09:02:06.677Z</time></trkpt><trkpt lat="37.9211683" lon="12.8518669"><ele>243.66666666666669</ele><time>2026-04-28T09:02:07.678Z</time></trkpt><trkpt lat="37.9210082" lon="12.8518799"><ele>249.0</ele><time>2026-04-28T09:02:08.677Z</time></trkpt><trkpt lat="37.9208493" lon="12.8518938"><ele>249.0</ele><time>2026-04-28T09:02:09.677Z</time></trkpt><trkpt lat="37.9206937" lon="12.8518938"><ele>249.0</ele><time>2026-04-28T09:02:10.677Z</time></trkpt><trkpt lat="37.9205524" lon="12.8518947"><ele>249.0</ele><time>2026-04-28T09:02:11.677Z</time></trkpt><trkpt lat="37.9204247" lon="12.8518944"><ele>249.0</ele><time>2026-04-28T09:02:12.677Z</time></trkpt><trkpt lat="37.9203082" lon="12.8518991"><ele>249.0</ele><time>2026-04-28T09:02:13.678Z</time></trkpt><trkpt lat="37.9202" lon="12.8518991"><ele>248.99999999999997</ele><time>2026-04-28T09:02:14.678Z</time></trkpt><trkpt lat="37.9200987" lon="12.8519001"><ele>248.99999999999997</ele><time>2026-04-28T09:02:15.678Z</time></trkpt><trkpt lat="37.9199975" lon="12.851902"><ele>249.0</ele><time>2026-04-28T09:02:16.677Z</time></trkpt><trkpt lat="37.9199212" lon="12.8519107"><ele>249.0</ele><time>2026-04-28T09:02:17.677Z</time></trkpt><trkpt lat="37.9198447" lon="12.8519065"><ele>249.33333333333334</ele><time>2026-04-28T09:02:18.678Z</time></trkpt><trkpt lat="37.9197775" lon="12.8519096"><ele>249.66666666666669</ele><time>2026-04-28T09:02:19.676Z</time></trkpt><trkpt lat="37.91967" lon="12.8518993"><ele>250.0</ele><time>2026-04-28T09:02:21.68Z</time></trkpt><trkpt lat="37.9195899" lon="12.8519053"><ele>250.33333333333334</ele><time>2026-04-28T09:02:23.677Z</time></trkpt><trkpt lat="37.9194944" lon="12.851915"><ele>250.66666666666669</ele><time>2026-04-28T09:02:25.678Z</time></trkpt><trkpt lat="37.9194297" lon="12.8519316"><ele>251.0</ele><time>2026-04-28T09:02:26.677Z</time></trkpt><trkpt lat="37.9193657" lon="12.8519503"><ele>251.00000000000003</ele><time>2026-04-28T09:02:27.677Z</time></trkpt><trkpt lat="37.9192956" lon="12.8519786"><ele>251.0</ele><time>2026-04-28T09:02:28.677Z</time></trkpt><trkpt lat="37.919217" lon="12.8520088"><ele>251.0</ele><time>2026-04-28T09:02:29.677Z</time></trkpt><trkpt lat="37.9191393" lon="12.8520399"><ele>251.0</ele><time>2026-04-28T09:02:30.677Z</time></trkpt><trkpt lat="37.9190526" lon="12.8520901"><ele>251.00000000000003</ele><time>2026-04-28T09:02:31.677Z</time></trkpt><trkpt lat="37.9189681" lon="12.8521276"><ele>251.0</ele><time>2026-04-28T09:02:32.676Z</time></trkpt><trkpt lat="37.9188821" lon="12.8521548"><ele>250.4</ele><time>2026-04-28T09:02:33.677Z</time></trkpt><trkpt lat="37.9187847" lon="12.8521767"><ele>249.8</ele><time>2026-04-28T09:02:34.677Z</time></trkpt><trkpt lat="37.9187019" lon="12.8521696"><ele>249.20000000000002</ele><time>2026-04-28T09:02:35.677Z</time></trkpt><trkpt lat="37.9186054" lon="12.8521618"><ele>248.60000000000002</ele><time>2026-04-28T09:02:36.677Z</time></trkpt><trkpt lat="37.9185219" lon="12.8521322"><ele>248.0</ele><time>2026-04-28T09:02:37.676Z</time></trkpt><trkpt lat="37.9184228" lon="12.8521175"><ele>251.0</ele><time>2026-04-28T09:02:38.677Z</time></trkpt><trkpt lat="37.9183203" lon="12.8521023"><ele>254.0</ele><time>2026-04-28T09:02:39.678Z</time></trkpt><trkpt lat="37.9182205" lon="12.8520884"><ele>257.0</ele><time>2026-04-28T09:02:40.676Z</time></trkpt><trkpt lat="37.9181171" lon="12.8520703"><ele>260.0</ele><time>2026-04-28T09:02:41.677Z</time></trkpt><trkpt lat="37.9180165" lon="12.8520494"><ele>263.0</ele><time>2026-04-28T09:02:42.676Z</time></trkpt><trkpt lat="37.9179151" lon="12.8520161"><ele>263.0</ele><time>2026-04-28T09:02:43.676Z</time></trkpt><trkpt lat="37.9178232" lon="12.8519648"><ele>263.0</ele><time>2026-04-28T09:02:44.678Z</time></trkpt><trkpt lat="37.9177409" lon="12.8518981"><ele>263.0</ele><time>2026-04-28T09:02:45.677Z</time></trkpt><trkpt lat="37.9176732" lon="12.8518299"><ele>263.0</ele><time>2026-04-28T09:02:46.678Z</time></trkpt><trkpt lat="37.9176113" lon="12.8517605"><ele>263.0</ele><time>2026-04-28T09:02:47.677Z</time></trkpt><trkpt lat="37.9175522" lon="12.851692"><ele>263.0</ele><time>2026-04-28T09:02:48.677Z</time></trkpt><trkpt lat="37.9174931" lon="12.8516199"><ele>261.0</ele><time>2026-04-28T09:02:49.677Z</time></trkpt><trkpt lat="37.9174384" lon="12.8515475"><ele>259.0</ele><time>2026-04-28T09:02:50.676Z</time></trkpt><trkpt lat="37.9173878" lon="12.8514822"><ele>257.0</ele><time>2026-04-28T09:02:51.678Z</time></trkpt><trkpt lat="37.9173375" lon="12.8514179"><ele>255.0</ele><time>2026-04-28T09:02:52.678Z</time></trkpt><trkpt lat="37.9172764" lon="12.8513525"><ele>253.00000000000003</ele><time>2026-04-28T09:02:53.677Z</time></trkpt><trkpt lat="37.9171956" lon="12.8512944"><ele>251.0</ele><time>2026-04-28T09:02:54.678Z</time></trkpt><trkpt lat="37.9171119" lon="12.8512427"><ele>251.0</ele><time>2026-04-28T09:02:55.678Z</time></trkpt><trkpt lat="37.9170234" lon="12.8512039"><ele>251.00000000000003</ele><time>2026-04-28T09:02:56.678Z</time></trkpt><trkpt lat="37.9169251" lon="12.8511787"><ele>251.00000000000003</ele><time>2026-04-28T09:02:57.677Z</time></trkpt><trkpt lat="37.9168208" lon="12.8511773"><ele>251.0</ele><time>2026-04-28T09:02:58.678Z</time></trkpt><trkpt lat="37.9167145" lon="12.851203"><ele>251.0</ele><time>2026-04-28T09:02:59.678Z</time></trkpt><trkpt lat="37.91661" lon="12.8512458"><ele>252.60000000000002</ele><time>2026-04-28T09:03:00.677Z</time></trkpt><trkpt lat="37.9165207" lon="12.8513173"><ele>254.20000000000002</ele><time>2026-04-28T09:03:01.676Z</time></trkpt><trkpt lat="37.9164342" lon="12.8514011"><ele>255.79999999999998</ele><time>2026-04-28T09:03:02.677Z</time></trkpt><trkpt lat="37.9163703" lon="12.8515049"><ele>257.4</ele><time>2026-04-28T09:03:03.678Z</time></trkpt><trkpt lat="37.9163127" lon="12.8516221"><ele>259.0</ele><time>2026-04-28T09:03:04.677Z</time></trkpt><trkpt lat="37.9162673" lon="12.8517534"><ele>261.0</ele><time>2026-04-28T09:03:05.676Z</time></trkpt><trkpt lat="37.9162343" lon="12.8518818"><ele>263.0</ele><time>2026-04-28T09:03:06.678Z</time></trkpt><trkpt lat="37.9162045" lon="12.8520149"><ele>265.0</ele><time>2026-04-28T09:03:07.677Z</time></trkpt><trkpt lat="37.9161761" lon="12.8521421"><ele>267.0</ele><time>2026-04-28T09:03:08.677Z</time></trkpt><trkpt lat="37.9161388" lon="12.8522671"><ele>269.0</ele><time>2026-04-28T09:03:09.678Z</time></trkpt><trkpt lat="37.9161158" lon="12.8523822"><ele>269.0</ele><time>2026-04-28T09:03:10.677Z</time></trkpt><trkpt lat="37.9160743" lon="12.8524783"><ele>269.0</ele><time>2026-04-28T09:03:11.678Z</time></trkpt><trkpt lat="37.9160239" lon="12.8525744"><ele>269.0</ele><time>2026-04-28T09:03:12.677Z</time></trkpt><trkpt lat="37.9159671" lon="12.8526548"><ele>269.0</ele><time>2026-04-28T09:03:13.678Z</time></trkpt><trkpt lat="37.9159025" lon="12.8527382"><ele>269.0</ele><time>2026-04-28T09:03:14.677Z</time></trkpt><trkpt lat="37.915833" lon="12.8528198"><ele>265.2</ele><time>2026-04-28T09:03:15.678Z</time></trkpt><trkpt lat="37.9157711" lon="12.8529036"><ele>261.4</ele><time>2026-04-28T09:03:16.677Z</time></trkpt><trkpt lat="37.9157188" lon="12.8529976"><ele>257.6</ele><time>2026-04-28T09:03:17.678Z</time></trkpt><trkpt lat="37.915685" lon="12.8531091"><ele>253.8</ele><time>2026-04-28T09:03:18.677Z</time></trkpt><trkpt lat="37.9156616" lon="12.8532269"><ele>250.0</ele><time>2026-04-28T09:03:19.677Z</time></trkpt><trkpt lat="37.9156506" lon="12.8533497"><ele>250.16666666666666</ele><time>2026-04-28T09:03:20.678Z</time></trkpt><trkpt lat="37.915627" lon="12.8534698"><ele>250.33333333333331</ele><time>2026-04-28T09:03:21.677Z</time></trkpt><trkpt lat="37.915593" lon="12.8535762"><ele>250.5</ele><time>2026-04-28T09:03:22.677Z</time></trkpt><trkpt lat="37.9155452" lon="12.853664"><ele>250.66666666666669</ele><time>2026-04-28T09:03:23.678Z</time></trkpt><trkpt lat="37.9154774" lon="12.8537298"><ele>250.83333333333334</ele><time>2026-04-28T09:03:24.678Z</time></trkpt><trkpt lat="37.9153993" lon="12.8537729"><ele>251.0</ele><time>2026-04-28T09:03:25.678Z</time></trkpt><trkpt lat="37.9153127" lon="12.8537909"><ele>251.0</ele><time>2026-04-28T09:03:26.678Z</time></trkpt><trkpt lat="37.9152293" lon="12.8537728"><ele>251.00000000000003</ele><time>2026-04-28T09:03:27.678Z</time></trkpt><trkpt lat="37.915143" lon="12.8537281"><ele>251.00000000000003</ele><time>2026-04-28T09:03:28.678Z</time></trkpt><trkpt lat="37.9150638" lon="12.8536578"><ele>251.0</ele><time>2026-04-28T09:03:29.677Z</time></trkpt><trkpt lat="37.9149857" lon="12.8535766"><ele>251.0</ele><time>2026-04-28T09:03:30.677Z</time></trkpt><trkpt lat="37.9149251" lon="12.8534511"><ele>247.75</ele><time>2026-04-28T09:03:31.678Z</time></trkpt><trkpt lat="37.9148425" lon="12.8533273"><ele>244.5</ele><time>2026-04-28T09:03:32.678Z</time></trkpt><trkpt lat="37.9147539" lon="12.8531919"><ele>241.25</ele><time>2026-04-28T09:03:33.677Z</time></trkpt><trkpt lat="37.9146686" lon="12.8530578"><ele>238.0</ele><time>2026-04-28T09:03:34.677Z</time></trkpt><trkpt lat="37.9145809" lon="12.8529203"><ele>238.0</ele><time>2026-04-28T09:03:35.676Z</time></trkpt><trkpt lat="37.9144886" lon="12.8527804"><ele>238.0</ele><time>2026-04-28T09:03:36.676Z</time></trkpt><trkpt lat="37.9143965" lon="12.8526426"><ele>238.0</ele><time>2026-04-28T09:03:37.677Z</time></trkpt><trkpt lat="37.9142972" lon="12.8525202"><ele>238.0</ele><time>2026-04-28T09:03:38.677Z</time></trkpt><trkpt lat="37.9141879" lon="12.8524093"><ele>239.75</ele><time>2026-04-28T09:03:39.677Z</time></trkpt><trkpt lat="37.9140709" lon="12.8523071"><ele>241.5</ele><time>2026-04-28T09:03:40.678Z</time></trkpt><trkpt lat="37.9139525" lon="12.8522142"><ele>243.25</ele><time>2026-04-28T09:03:41.678Z</time></trkpt><trkpt lat="37.9138464" lon="12.8521166"><ele>245.0</ele><time>2026-04-28T09:03:42.677Z</time></trkpt><trkpt lat="37.9137559" lon="12.8520373"><ele>245.00000000000003</ele><time>2026-04-28T09:03:43.678Z</time></trkpt><trkpt lat="37.9136737" lon="12.8519599"><ele>245.0</ele><time>2026-04-28T09:03:44.677Z</time></trkpt><trkpt lat="37.9136078" lon="12.8518859"><ele>245.0</ele><time>2026-04-28T09:03:45.678Z</time></trkpt><trkpt lat="37.9135504" lon="12.8518154"><ele>245.0</ele><time>2026-04-28T09:03:46.676Z</time></trkpt><trkpt lat="37.9134865" lon="12.8517483"><ele>245.00000000000003</ele><time>2026-04-28T09:03:47.678Z</time></trkpt><trkpt lat="37.9134125" lon="12.851695"><ele>245.0</ele><time>2026-04-28T09:03:48.677Z</time></trkpt><trkpt lat="37.9133023" lon="12.8516602"><ele>243.0</ele><time>2026-04-28T09:03:49.677Z</time></trkpt><trkpt lat="37.9131881" lon="12.8516499"><ele>241.0</ele><time>2026-04-28T09:03:50.676Z</time></trkpt><trkpt lat="37.9130536" lon="12.8516576"><ele>239.0</ele><time>2026-04-28T09:03:51.676Z</time></trkpt><trkpt lat="37.9129199" lon="12.8516686"><ele>237.0</ele><time>2026-04-28T09:03:52.676Z</time></trkpt><trkpt lat="37.9127869" lon="12.8516685"><ele>237.0</ele><time>2026-04-28T09:03:53.676Z</time></trkpt><trkpt lat="37.9126597" lon="12.8516691"><ele>237.0</ele><time>2026-04-28T09:03:54.677Z</time></trkpt><trkpt lat="37.9125399" lon="12.8516704"><ele>237.0</ele><time>2026-04-28T09:03:55.676Z</time></trkpt><trkpt lat="37.9124218" lon="12.8516681"><ele>237.0</ele><time>2026-04-28T09:03:56.677Z</time></trkpt><trkpt lat="37.9123041" lon="12.8516683"><ele>236.2</ele><time>2026-04-28T09:03:57.677Z</time></trkpt><trkpt lat="37.9121992" lon="12.8516538"><ele>235.39999999999998</ele><time>2026-04-28T09:03:58.678Z</time></trkpt><trkpt lat="37.9120931" lon="12.8516366"><ele>234.60000000000002</ele><time>2026-04-28T09:03:59.678Z</time></trkpt><trkpt lat="37.911991" lon="12.8516144"><ele>233.8</ele><time>2026-04-28T09:04:00.678Z</time></trkpt><trkpt lat="37.9119041" lon="12.85157"><ele>233.0</ele><time>2026-04-28T09:04:01.677Z</time></trkpt><trkpt lat="37.9118195" lon="12.8515181"><ele>233.2</ele><time>2026-04-28T09:04:02.677Z</time></trkpt><trkpt lat="37.9117349" lon="12.8514648"><ele>233.4</ele><time>2026-04-28T09:04:03.677Z</time></trkpt><trkpt lat="37.9116483" lon="12.8514101"><ele>233.59999999999997</ele><time>2026-04-28T09:04:04.677Z</time></trkpt><trkpt lat="37.9115599" lon="12.851351"><ele>233.79999999999998</ele><time>2026-04-28T09:04:05.676Z</time></trkpt><trkpt lat="37.9114615" lon="12.8512975"><ele>234.0</ele><time>2026-04-28T09:04:06.678Z</time></trkpt><trkpt lat="37.9113579" lon="12.8512588"><ele>234.0</ele><time>2026-04-28T09:04:07.678Z</time></trkpt><trkpt lat="37.9112519" lon="12.8512288"><ele>234.0</ele><time>2026-04-28T09:04:08.677Z</time></trkpt><trkpt lat="37.9111367" lon="12.8512137"><ele>234.0</ele><time>2026-04-28T09:04:09.677Z</time></trkpt><trkpt lat="37.9110129" lon="12.8512027"><ele>234.0</ele><time>2026-04-28T09:04:10.678Z</time></trkpt><trkpt lat="37.9108852" lon="12.8512021"><ele>233.5</ele><time>2026-04-28T09:04:11.677Z</time></trkpt><trkpt lat="37.910756" lon="12.8512069"><ele>233.0</ele><time>2026-04-28T09:04:12.677Z</time></trkpt><trkpt lat="37.910625" lon="12.8511963"><ele>232.5</ele><time>2026-04-28T09:04:13.677Z</time></trkpt><trkpt lat="37.9104974" lon="12.8511833"><ele>232.0</ele><time>2026-04-28T09:04:14.678Z</time></trkpt><trkpt lat="37.9103811" lon="12.8511567"><ele>232.0</ele><time>2026-04-28T09:04:15.677Z</time></trkpt><trkpt lat="37.9102776" lon="12.8511224"><ele>232.0</ele><time>2026-04-28T09:04:16.677Z</time></trkpt><trkpt lat="37.9101849" lon="12.8510751"><ele>232.0</ele><time>2026-04-28T09:04:17.678Z</time></trkpt><trkpt lat="37.9101173" lon="12.8509982"><ele>232.0</ele><time>2026-04-28T09:04:18.678Z</time></trkpt><trkpt lat="37.9100547" lon="12.8509055"><ele>232.0</ele><time>2026-04-28T09:04:19.678Z</time></trkpt><trkpt lat="37.9100047" lon="12.8508045"><ele>229.25</ele><time>2026-04-28T09:04:20.679Z</time></trkpt><trkpt lat="37.9099513" lon="12.8506977"><ele>226.5</ele><time>2026-04-28T09:04:21.677Z</time></trkpt><trkpt lat="37.9098989" lon="12.8505702"><ele>223.75</ele><time>2026-04-28T09:04:22.722Z</time></trkpt><trkpt lat="37.9098373" lon="12.8504174"><ele>221.0</ele><time>2026-04-28T09:04:23.855Z</time></trkpt><trkpt lat="37.9097751" lon="12.8501434"><ele>220.75</ele><time>2026-04-28T09:04:25.677Z</time></trkpt><trkpt lat="37.9097661" lon="12.8499799"><ele>220.5</ele><time>2026-04-28T09:04:26.677Z</time></trkpt><trkpt lat="37.9097603" lon="12.8498127"><ele>220.25</ele><time>2026-04-28T09:04:27.677Z</time></trkpt><trkpt lat="37.9097479" lon="12.8496458"><ele>220.0</ele><time>2026-04-28T09:04:28.677Z</time></trkpt><trkpt lat="37.9097314" lon="12.8494827"><ele>220.0</ele><time>2026-04-28T09:04:29.676Z</time></trkpt><trkpt lat="37.9097141" lon="12.8493202"><ele>220.0</ele><time>2026-04-28T09:04:30.677Z</time></trkpt><trkpt lat="37.9096944" lon="12.8491585"><ele>220.0</ele><time>2026-04-28T09:04:31.676Z</time></trkpt><trkpt lat="37.9096763" lon="12.8490023"><ele>220.0</ele><time>2026-04-28T09:04:32.676Z</time></trkpt><trkpt lat="37.9096561" lon="12.8488543"><ele>220.4</ele><time>2026-04-28T09:04:33.676Z</time></trkpt><trkpt lat="37.9096374" lon="12.8487197"><ele>220.8</ele><time>2026-04-28T09:04:34.677Z</time></trkpt><trkpt lat="37.909617" lon="12.8485886"><ele>221.2</ele><time>2026-04-28T09:04:35.676Z</time></trkpt><trkpt lat="37.9095949" lon="12.8484575"><ele>221.6</ele><time>2026-04-28T09:04:36.676Z</time></trkpt><trkpt lat="37.9095612" lon="12.8483261"><ele>222.0</ele><time>2026-04-28T09:04:37.677Z</time></trkpt><trkpt lat="37.9095271" lon="12.8481903"><ele>222.0</ele><time>2026-04-28T09:04:38.677Z</time></trkpt><trkpt lat="37.9094937" lon="12.8480519"><ele>222.0</ele><time>2026-04-28T09:04:39.678Z</time></trkpt><trkpt lat="37.9094688" lon="12.8479122"><ele>222.0</ele><time>2026-04-28T09:04:40.677Z</time></trkpt><trkpt lat="37.9094502" lon="12.8477765"><ele>222.0</ele><time>2026-04-28T09:04:41.678Z</time></trkpt><trkpt lat="37.9094322" lon="12.8476413"><ele>222.0</ele><time>2026-04-28T09:04:42.677Z</time></trkpt><trkpt lat="37.909412" lon="12.8474999"><ele>221.8</ele><time>2026-04-28T09:04:43.677Z</time></trkpt><trkpt lat="37.9093908" lon="12.8473594"><ele>221.6</ele><time>2026-04-28T09:04:44.677Z</time></trkpt><trkpt lat="37.9093768" lon="12.8472322"><ele>221.40000000000003</ele><time>2026-04-28T09:04:45.678Z</time></trkpt><trkpt lat="37.9093617" lon="12.8471075"><ele>221.20000000000002</ele><time>2026-04-28T09:04:46.678Z</time></trkpt><trkpt lat="37.9093463" lon="12.8469887"><ele>221.0</ele><time>2026-04-28T09:04:47.678Z</time></trkpt><trkpt lat="37.9093214" lon="12.8468803"><ele>221.8</ele><time>2026-04-28T09:04:48.678Z</time></trkpt><trkpt lat="37.9092891" lon="12.8467738"><ele>222.60000000000002</ele><time>2026-04-28T09:04:49.678Z</time></trkpt><trkpt lat="37.9092556" lon="12.8466687"><ele>223.4</ele><time>2026-04-28T09:04:50.676Z</time></trkpt><trkpt lat="37.9092106" lon="12.8465619"><ele>224.2</ele><time>2026-04-28T09:04:51.679Z</time></trkpt><trkpt lat="37.9091621" lon="12.8464626"><ele>225.0</ele><time>2026-04-28T09:04:52.678Z</time></trkpt><trkpt lat="37.9091113" lon="12.8463563"><ele>227.33333333333334</ele><time>2026-04-28T09:04:53.677Z</time></trkpt><trkpt lat="37.909067" lon="12.8462638"><ele>229.66666666666669</ele><time>2026-04-28T09:04:54.677Z</time></trkpt><trkpt lat="37.9090261" lon="12.8461838"><ele>232.0</ele><time>2026-04-28T09:04:55.678Z</time></trkpt><trkpt lat="37.9089873" lon="12.8461188"><ele>234.33333333333334</ele><time>2026-04-28T09:04:56.677Z</time></trkpt><trkpt lat="37.9089088" lon="12.846056"><ele>236.66666666666669</ele><time>2026-04-28T09:04:58.677Z</time></trkpt><trkpt lat="37.9088233" lon="12.8460813"><ele>239.0</ele><time>2026-04-28T09:05:00.676Z</time></trkpt><trkpt lat="37.9087572" lon="12.8462001"><ele>239.0</ele><time>2026-04-28T09:05:02.677Z</time></trkpt><trkpt lat="37.9087972" lon="12.8463549"><ele>238.99999999999997</ele><time>2026-04-28T09:05:04.677Z</time></trkpt><trkpt lat="37.908837" lon="12.8464491"><ele>238.99999999999997</ele><time>2026-04-28T09:05:05.677Z</time></trkpt><trkpt lat="37.9088807" lon="12.8465472"><ele>239.0</ele><time>2026-04-28T09:05:06.677Z</time></trkpt><trkpt lat="37.9089208" lon="12.8466548"><ele>239.0</ele><time>2026-04-28T09:05:07.677Z</time></trkpt><trkpt lat="37.9089649" lon="12.8467776"><ele>240.5</ele><time>2026-04-28T09:05:08.677Z</time></trkpt><trkpt lat="37.9089965" lon="12.8469158"><ele>242.0</ele><time>2026-04-28T09:05:09.678Z</time></trkpt><trkpt lat="37.909031" lon="12.8470666"><ele>243.5</ele><time>2026-04-28T09:05:10.678Z</time></trkpt><trkpt lat="37.9090576" lon="12.847231"><ele>245.0</ele><time>2026-04-28T09:05:11.677Z</time></trkpt><trkpt lat="37.9090787" lon="12.8473882"><ele>245.0</ele><time>2026-04-28T09:05:12.678Z</time></trkpt><trkpt lat="37.90909" lon="12.8475373"><ele>245.0</ele><time>2026-04-28T09:05:13.677Z</time></trkpt><trkpt lat="37.9090887" lon="12.8476555"><ele>245.0</ele><time>2026-04-28T09:05:14.678Z</time></trkpt><trkpt lat="37.9090589" lon="12.8477385"><ele>245.0</ele><time>2026-04-28T09:05:15.678Z</time></trkpt><trkpt lat="37.9090046" lon="12.8477847"><ele>245.0</ele><time>2026-04-28T09:05:16.677Z</time></trkpt><trkpt lat="37.9089081" lon="12.8477282"><ele>245.0</ele><time>2026-04-28T09:05:18.677Z</time></trkpt><trkpt lat="37.908888" lon="12.8476358"><ele>245.0</ele><time>2026-04-28T09:05:19.677Z</time></trkpt><trkpt lat="37.9088795" lon="12.8475091"><ele>245.0</ele><time>2026-04-28T09:05:20.679Z</time></trkpt><trkpt lat="37.9088751" lon="12.8473628"><ele>245.0</ele><time>2026-04-28T09:05:21.677Z</time></trkpt><trkpt lat="37.908853" lon="12.8472253"><ele>245.0</ele><time>2026-04-28T09:05:22.676Z</time></trkpt><trkpt lat="37.9087989" lon="12.8470941"><ele>245.0</ele><time>2026-04-28T09:05:23.677Z</time></trkpt><trkpt lat="37.9087091" lon="12.8469747"><ele>245.0</ele><time>2026-04-28T09:05:24.677Z</time></trkpt><trkpt lat="37.9085902" lon="12.8468877"><ele>245.0</ele><time>2026-04-28T09:05:25.678Z</time></trkpt><trkpt lat="37.9084444" lon="12.8468317"><ele>245.0</ele><time>2026-04-28T09:05:26.677Z</time></trkpt><trkpt lat="37.9082916" lon="12.8467989"><ele>247.0</ele><time>2026-04-28T09:05:27.678Z</time></trkpt><trkpt lat="37.9081366" lon="12.8467749"><ele>249.0</ele><time>2026-04-28T09:05:28.678Z</time></trkpt><trkpt lat="37.9079843" lon="12.8467483"><ele>251.0</ele><time>2026-04-28T09:05:29.678Z</time></trkpt><trkpt lat="37.9078799" lon="12.8467319"><ele>253.0</ele><time>2026-04-28T09:05:30.677Z</time></trkpt><trkpt lat="37.9077758" lon="12.8467364"><ele>253.0</ele><time>2026-04-28T09:05:31.678Z</time></trkpt><trkpt lat="37.9077075" lon="12.8467757"><ele>253.0</ele><time>2026-04-28T09:05:32.677Z</time></trkpt><trkpt lat="37.9076874" lon="12.84692"><ele>253.0</ele><time>2026-04-28T09:05:34.677Z</time></trkpt><trkpt lat="37.9077415" lon="12.8469819"><ele>253.0</ele><time>2026-04-28T09:05:35.678Z</time></trkpt><trkpt lat="37.9078359" lon="12.8470301"><ele>253.0</ele><time>2026-04-28T09:05:36.677Z</time></trkpt><trkpt lat="37.9079426" lon="12.8470531"><ele>255.4</ele><time>2026-04-28T09:05:37.678Z</time></trkpt><trkpt lat="37.9080317" lon="12.8470905"><ele>257.8</ele><time>2026-04-28T09:05:38.677Z</time></trkpt><trkpt lat="37.9081123" lon="12.8471586"><ele>260.2</ele><time>2026-04-28T09:05:39.677Z</time></trkpt><trkpt lat="37.9081809" lon="12.8472595"><ele>262.6</ele><time>2026-04-28T09:05:40.678Z</time></trkpt><trkpt lat="37.9082531" lon="12.8473904"><ele>265.0</ele><time>2026-04-28T09:05:41.679Z</time></trkpt><trkpt lat="37.9083206" lon="12.8475241"><ele>266.25</ele><time>2026-04-28T09:05:42.678Z</time></trkpt><trkpt lat="37.9083733" lon="12.8476469"><ele>267.5</ele><time>2026-04-28T09:05:43.677Z</time></trkpt><trkpt lat="37.9083982" lon="12.8477789"><ele>268.75</ele><time>2026-04-28T09:05:44.678Z</time></trkpt><trkpt lat="37.908405" lon="12.8479317"><ele>270.0</ele><time>2026-04-28T09:05:45.677Z</time></trkpt><trkpt lat="37.9084021" lon="12.8480973"><ele>270.0</ele><time>2026-04-28T09:05:46.677Z</time></trkpt><trkpt lat="37.9083997" lon="12.8482497"><ele>270.0</ele><time>2026-04-28T09:05:47.677Z</time></trkpt><trkpt lat="37.9083884" lon="12.8483594"><ele>270.0</ele><time>2026-04-28T09:05:48.677Z</time></trkpt><trkpt lat="37.908356" lon="12.8484362"><ele>270.0</ele><time>2026-04-28T09:05:49.678Z</time></trkpt><trkpt lat="37.9082426" lon="12.848471"><ele>270.0</ele><time>2026-04-28T09:05:51.678Z</time></trkpt><trkpt lat="37.9081659" lon="12.8483667"><ele>270.0</ele><time>2026-04-28T09:05:53.678Z</time></trkpt><trkpt lat="37.9081541" lon="12.8482604"><ele>270.0</ele><time>2026-04-28T09:05:54.677Z</time></trkpt><trkpt lat="37.9081551" lon="12.8481483"><ele>270.0</ele><time>2026-04-28T09:05:55.676Z</time></trkpt><trkpt lat="37.9081412" lon="12.8480219"><ele>270.0</ele><time>2026-04-28T09:05:56.677Z</time></trkpt><trkpt lat="37.9081063" lon="12.8479043"><ele>270.0</ele><time>2026-04-28T09:05:57.677Z</time></trkpt><trkpt lat="37.9080412" lon="12.8477993"><ele>270.0</ele><time>2026-04-28T09:05:58.678Z</time></trkpt><trkpt lat="37.9079403" lon="12.8477146"><ele>270.0</ele><time>2026-04-28T09:05:59.677Z</time></trkpt><trkpt lat="37.9078193" lon="12.8476386"><ele>270.0</ele><time>2026-04-28T09:06:00.679Z</time></trkpt><trkpt lat="37.9076911" lon="12.8475797"><ele>270.0</ele><time>2026-04-28T09:06:01.677Z</time></trkpt><trkpt lat="37.9075726" lon="12.8475436"><ele>270.8333333333333</ele><time>2026-04-28T09:06:02.677Z</time></trkpt><trkpt lat="37.9074798" lon="12.8475346"><ele>271.6666666666667</ele><time>2026-04-28T09:06:03.677Z</time></trkpt><trkpt lat="37.9074108" lon="12.847569"><ele>272.5</ele><time>2026-04-28T09:06:04.677Z</time></trkpt><trkpt lat="37.9073666" lon="12.8476351"><ele>273.33333333333337</ele><time>2026-04-28T09:06:05.679Z</time></trkpt><trkpt lat="37.9073655" lon="12.8477249"><ele>274.1666666666667</ele><time>2026-04-28T09:06:06.678Z</time></trkpt><trkpt lat="37.9074011" lon="12.8478326"><ele>275.0</ele><time>2026-04-28T09:06:07.677Z</time></trkpt><trkpt lat="37.9074685" lon="12.8479533"><ele>274.0</ele><time>2026-04-28T09:06:08.677Z</time></trkpt><trkpt lat="37.9075559" lon="12.8480842"><ele>273.0</ele><time>2026-04-28T09:06:09.677Z</time></trkpt><trkpt lat="37.9076357" lon="12.8482001"><ele>272.0</ele><time>2026-04-28T09:06:10.677Z</time></trkpt><trkpt lat="37.9076965" lon="12.8483043"><ele>271.0</ele><time>2026-04-28T09:06:11.677Z</time></trkpt><trkpt lat="37.90773" lon="12.8484032"><ele>270.0</ele><time>2026-04-28T09:06:12.676Z</time></trkpt><trkpt lat="37.9077231" lon="12.8484832"><ele>269.0</ele><time>2026-04-28T09:06:13.677Z</time></trkpt><trkpt lat="37.907684" lon="12.8485465"><ele>268.0</ele><time>2026-04-28T09:06:14.677Z</time></trkpt><trkpt lat="37.9076142" lon="12.848579"><ele>267.0</ele><time>2026-04-28T09:06:15.678Z</time></trkpt><trkpt lat="37.9075402" lon="12.8485605"><ele>266.0</ele><time>2026-04-28T09:06:16.678Z</time></trkpt><trkpt lat="37.907473" lon="12.848487"><ele>265.0</ele><time>2026-04-28T09:06:17.677Z</time></trkpt><trkpt lat="37.9074125" lon="12.8483761"><ele>264.0</ele><time>2026-04-28T09:06:18.677Z</time></trkpt><trkpt lat="37.9073481" lon="12.8482543"><ele>269.25</ele><time>2026-04-28T09:06:19.677Z</time></trkpt><trkpt lat="37.9072704" lon="12.8481247"><ele>274.5</ele><time>2026-04-28T09:06:20.678Z</time></trkpt><trkpt lat="37.9071851" lon="12.8480117"><ele>279.75</ele><time>2026-04-28T09:06:21.676Z</time></trkpt><trkpt lat="37.9070701" lon="12.8479179"><ele>285.0</ele><time>2026-04-28T09:06:22.677Z</time></trkpt><trkpt lat="37.906945" lon="12.8478408"><ele>285.0</ele><time>2026-04-28T09:06:23.678Z</time></trkpt><trkpt lat="37.9068133" lon="12.8477606"><ele>285.0</ele><time>2026-04-28T09:06:24.677Z</time></trkpt><trkpt lat="37.906686" lon="12.8476723"><ele>285.0</ele><time>2026-04-28T09:06:25.677Z</time></trkpt><trkpt lat="37.9065645" lon="12.8475827"><ele>285.0</ele><time>2026-04-28T09:06:26.677Z</time></trkpt><trkpt lat="37.9064612" lon="12.847475"><ele>285.5</ele><time>2026-04-28T09:06:27.677Z</time></trkpt><trkpt lat="37.906387" lon="12.8473388"><ele>286.0</ele><time>2026-04-28T09:06:28.679Z</time></trkpt><trkpt lat="37.9063325" lon="12.8471767"><ele>286.5</ele><time>2026-04-28T09:06:29.677Z</time></trkpt><trkpt lat="37.9062873" lon="12.846992"><ele>287.0</ele><time>2026-04-28T09:06:30.678Z</time></trkpt><trkpt lat="37.906242" lon="12.8468054"><ele>286.6666666666667</ele><time>2026-04-28T09:06:31.676Z</time></trkpt><trkpt lat="37.9061966" lon="12.8466081"><ele>286.3333333333333</ele><time>2026-04-28T09:06:32.677Z</time></trkpt><trkpt lat="37.9061469" lon="12.8464034"><ele>286.0</ele><time>2026-04-28T09:06:33.677Z</time></trkpt><trkpt lat="37.9061029" lon="12.8462084"><ele>286.0</ele><time>2026-04-28T09:06:34.677Z</time></trkpt><trkpt lat="37.9060662" lon="12.8460388"><ele>286.0</ele><time>2026-04-28T09:06:35.677Z</time></trkpt><trkpt lat="37.906022" lon="12.8459002"><ele>286.0</ele><time>2026-04-28T09:06:36.678Z</time></trkpt><trkpt lat="37.9059191" lon="12.8457257"><ele>286.0</ele><time>2026-04-28T09:06:38.677Z</time></trkpt><trkpt lat="37.9058465" lon="12.8456548"><ele>290.25</ele><time>2026-04-28T09:06:39.678Z</time></trkpt><trkpt lat="37.9057498" lon="12.8455817"><ele>294.5</ele><time>2026-04-28T09:06:40.677Z</time></trkpt><trkpt lat="37.905633" lon="12.8454985"><ele>298.75</ele><time>2026-04-28T09:06:41.677Z</time></trkpt><trkpt lat="37.9055225" lon="12.8453861"><ele>303.0</ele><time>2026-04-28T09:06:42.677Z</time></trkpt><trkpt lat="37.9054249" lon="12.8452516"><ele>301.5</ele><time>2026-04-28T09:06:43.677Z</time></trkpt><trkpt lat="37.9053472" lon="12.8451255"><ele>300.0</ele><time>2026-04-28T09:06:44.677Z</time></trkpt><trkpt lat="37.9052771" lon="12.8450182"><ele>298.5</ele><time>2026-04-28T09:06:45.679Z</time></trkpt><trkpt lat="37.9051346" lon="12.8449475"><ele>297.0</ele><time>2026-04-28T09:06:47.678Z</time></trkpt><trkpt lat="37.9050757" lon="12.8449811"><ele>298.2</ele><time>2026-04-28T09:06:48.677Z</time></trkpt><trkpt lat="37.9050331" lon="12.8450492"><ele>299.4</ele><time>2026-04-28T09:06:49.678Z</time></trkpt><trkpt lat="37.9050199" lon="12.8451477"><ele>300.6</ele><time>2026-04-28T09:06:50.677Z</time></trkpt><trkpt lat="37.9050411" lon="12.8452615"><ele>301.8</ele><time>2026-04-28T09:06:51.677Z</time></trkpt><trkpt lat="37.9050944" lon="12.845377"><ele>303.0</ele><time>2026-04-28T09:06:52.677Z</time></trkpt><trkpt lat="37.9051795" lon="12.8454905"><ele>303.0</ele><time>2026-04-28T09:06:53.678Z</time></trkpt><trkpt lat="37.9052664" lon="12.845612"><ele>303.0</ele><time>2026-04-28T09:06:54.677Z</time></trkpt><trkpt lat="37.9053387" lon="12.8457352"><ele>303.0</ele><time>2026-04-28T09:06:55.677Z</time></trkpt><trkpt lat="37.9053844" lon="12.8458623"><ele>303.0</ele><time>2026-04-28T09:06:56.678Z</time></trkpt><trkpt lat="37.9054053" lon="12.8460047"><ele>303.8333333333333</ele><time>2026-04-28T09:06:57.677Z</time></trkpt><trkpt lat="37.9053947" lon="12.8461407"><ele>304.6666666666667</ele><time>2026-04-28T09:06:58.677Z</time></trkpt><trkpt lat="37.9053598" lon="12.8462504"><ele>305.5</ele><time>2026-04-28T09:06:59.677Z</time></trkpt><trkpt lat="37.9053073" lon="12.8463165"><ele>306.33333333333337</ele><time>2026-04-28T09:07:00.677Z</time></trkpt><trkpt lat="37.9052448" lon="12.8463463"><ele>307.1666666666667</ele><time>2026-04-28T09:07:01.677Z</time></trkpt><trkpt lat="37.9051876" lon="12.8463098"><ele>308.0</ele><time>2026-04-28T09:07:02.677Z</time></trkpt><trkpt lat="37.9051495" lon="12.8462399"><ele>308.0</ele><time>2026-04-28T09:07:03.676Z</time></trkpt><trkpt lat="37.9051385" lon="12.846133"><ele>308.0</ele><time>2026-04-28T09:07:04.679Z</time></trkpt><trkpt lat="37.905132" lon="12.8460083"><ele>308.0</ele><time>2026-04-28T09:07:05.676Z</time></trkpt><trkpt lat="37.9050983" lon="12.8458944"><ele>308.0</ele><time>2026-04-28T09:07:06.677Z</time></trkpt><trkpt lat="37.9050339" lon="12.8458035"><ele>308.0</ele><time>2026-04-28T09:07:07.678Z</time></trkpt><trkpt lat="37.904945" lon="12.8457396"><ele>311.75</ele><time>2026-04-28T09:07:08.678Z</time></trkpt><trkpt lat="37.9048416" lon="12.8456989"><ele>315.5</ele><time>2026-04-28T09:07:09.677Z</time></trkpt><trkpt lat="37.9047355" lon="12.8456597"><ele>319.25</ele><time>2026-04-28T09:07:10.678Z</time></trkpt><trkpt lat="37.904632" lon="12.8456145"><ele>323.0</ele><time>2026-04-28T09:07:11.678Z</time></trkpt><trkpt lat="37.9044286" lon="12.8454979"><ele>324.75</ele><time>2026-04-28T09:07:13.677Z</time></trkpt><trkpt lat="37.9042411" lon="12.8453497"><ele>326.5</ele><time>2026-04-28T09:07:15.678Z</time></trkpt><trkpt lat="37.9041614" lon="12.8452636"><ele>328.25</ele><time>2026-04-28T09:07:16.678Z</time></trkpt><trkpt lat="37.9040915" lon="12.8451546"><ele>330.0</ele><time>2026-04-28T09:07:17.679Z</time></trkpt><trkpt lat="37.9040313" lon="12.8450414"><ele>330.0</ele><time>2026-04-28T09:07:18.677Z</time></trkpt><trkpt lat="37.90398" lon="12.8449196"><ele>330.0</ele><time>2026-04-28T09:07:19.677Z</time></trkpt><trkpt lat="37.9039347" lon="12.8448032"><ele>330.0</ele><time>2026-04-28T09:07:20.678Z</time></trkpt><trkpt lat="37.9038951" lon="12.8447005"><ele>330.0</ele><time>2026-04-28T09:07:21.677Z</time></trkpt><trkpt lat="37.9038834" lon="12.8445684"><ele>330.0</ele><time>2026-04-28T09:07:22.678Z</time></trkpt><trkpt lat="37.9038951" lon="12.8444427"><ele>330.0</ele><time>2026-04-28T09:07:23.677Z</time></trkpt><trkpt lat="37.9039193" lon="12.8443298"><ele>330.0</ele><time>2026-04-28T09:07:24.677Z</time></trkpt><trkpt lat="37.9039523" lon="12.8442252"><ele>330.0</ele><time>2026-04-28T09:07:25.678Z</time></trkpt><trkpt lat="37.9039815" lon="12.8441128"><ele>330.0</ele><time>2026-04-28T09:07:26.677Z</time></trkpt><trkpt lat="37.9040056" lon="12.8440212"><ele>330.0</ele><time>2026-04-28T09:07:27.677Z</time></trkpt><trkpt lat="37.9040078" lon="12.8439406"><ele>330.0</ele><time>2026-04-28T09:07:28.678Z</time></trkpt><trkpt lat="37.9039386" lon="12.8438249"><ele>330.0</ele><time>2026-04-28T09:07:30.678Z</time></trkpt><trkpt lat="37.9038051" lon="12.8438426"><ele>330.0</ele><time>2026-04-28T09:07:32.677Z</time></trkpt><trkpt lat="37.9037342" lon="12.8438894"><ele>330.0</ele><time>2026-04-28T09:07:33.678Z</time></trkpt><trkpt lat="37.9035998" lon="12.8440246"><ele>330.0</ele><time>2026-04-28T09:07:35.677Z</time></trkpt><trkpt lat="37.9035358" lon="12.8440831"><ele>330.0</ele><time>2026-04-28T09:07:36.677Z</time></trkpt><trkpt lat="37.9034779" lon="12.8441155"><ele>330.0</ele><time>2026-04-28T09:07:37.678Z</time></trkpt><trkpt lat="37.9033685" lon="12.8440768"><ele>330.0</ele><time>2026-04-28T09:07:39.678Z</time></trkpt><trkpt lat="37.9033224" lon="12.8440017"><ele>330.0</ele><time>2026-04-28T09:07:40.677Z</time></trkpt><trkpt lat="37.9032847" lon="12.8439154"><ele>330.0</ele><time>2026-04-28T09:07:41.678Z</time></trkpt><trkpt lat="37.9032461" lon="12.8438164"><ele>330.0</ele><time>2026-04-28T09:07:42.679Z</time></trkpt><trkpt lat="37.9032152" lon="12.8437194"><ele>332.0</ele><time>2026-04-28T09:07:43.678Z</time></trkpt><trkpt lat="37.9031887" lon="12.8436067"><ele>334.0</ele><time>2026-04-28T09:07:44.678Z</time></trkpt><trkpt lat="37.9031838" lon="12.8434887"><ele>336.0</ele><time>2026-04-28T09:07:45.677Z</time></trkpt><trkpt lat="37.9031948" lon="12.843366"><ele>338.0</ele><time>2026-04-28T09:07:46.677Z</time></trkpt><trkpt lat="37.9032164" lon="12.843239"><ele>340.0</ele><time>2026-04-28T09:07:47.678Z</time></trkpt><trkpt lat="37.9032415" lon="12.8431136"><ele>341.75</ele><time>2026-04-28T09:07:48.678Z</time></trkpt><trkpt lat="37.9032679" lon="12.8429792"><ele>343.5</ele><time>2026-04-28T09:07:49.677Z</time></trkpt><trkpt lat="37.9033001" lon="12.8428488"><ele>345.25</ele><time>2026-04-28T09:07:50.677Z</time></trkpt><trkpt lat="37.9033402" lon="12.8425728"><ele>347.0</ele><time>2026-04-28T09:07:52.678Z</time></trkpt><trkpt lat="37.9033243" lon="12.8424334"><ele>347.25</ele><time>2026-04-28T09:07:53.677Z</time></trkpt><trkpt lat="37.9032788" lon="12.8423006"><ele>347.5</ele><time>2026-04-28T09:07:54.678Z</time></trkpt><trkpt lat="37.903209" lon="12.8421832"><ele>347.75</ele><time>2026-04-28T09:07:55.678Z</time></trkpt><trkpt lat="37.9031233" lon="12.8420647"><ele>348.0</ele><time>2026-04-28T09:07:56.678Z</time></trkpt><trkpt lat="37.9030371" lon="12.841945"><ele>348.0</ele><time>2026-04-28T09:07:57.679Z</time></trkpt><trkpt lat="37.9029506" lon="12.8418266"><ele>348.0</ele><time>2026-04-28T09:07:58.678Z</time></trkpt><trkpt lat="37.9028705" lon="12.8417006"><ele>348.0</ele><time>2026-04-28T09:07:59.677Z</time></trkpt><trkpt lat="37.9027864" lon="12.8415706"><ele>348.0</ele><time>2026-04-28T09:08:00.677Z</time></trkpt><trkpt lat="37.9027045" lon="12.8414407"><ele>348.0</ele><time>2026-04-28T09:08:01.677Z</time></trkpt><trkpt lat="37.9026247" lon="12.841301"><ele>348.0</ele><time>2026-04-28T09:08:02.678Z</time></trkpt><trkpt lat="37.9025619" lon="12.8411627"><ele>348.0</ele><time>2026-04-28T09:08:03.678Z</time></trkpt><trkpt lat="37.9025033" lon="12.841015"><ele>348.0</ele><time>2026-04-28T09:08:04.678Z</time></trkpt><trkpt lat="37.9024453" lon="12.840868"><ele>349.75</ele><time>2026-04-28T09:08:05.678Z</time></trkpt><trkpt lat="37.902385" lon="12.8407225"><ele>351.5</ele><time>2026-04-28T09:08:06.677Z</time></trkpt><trkpt lat="37.9023255" lon="12.8405816"><ele>353.25</ele><time>2026-04-28T09:08:07.677Z</time></trkpt><trkpt lat="37.9022679" lon="12.8404262"><ele>355.0</ele><time>2026-04-28T09:08:08.678Z</time></trkpt><trkpt lat="37.9022099" lon="12.8402796"><ele>354.75</ele><time>2026-04-28T09:08:09.678Z</time></trkpt><trkpt lat="37.9021463" lon="12.8401319"><ele>354.5</ele><time>2026-04-28T09:08:10.677Z</time></trkpt><trkpt lat="37.9020748" lon="12.8399947"><ele>354.25</ele><time>2026-04-28T09:08:11.677Z</time></trkpt><trkpt lat="37.902004" lon="12.8398582"><ele>354.0</ele><time>2026-04-28T09:08:12.677Z</time></trkpt><trkpt lat="37.9019186" lon="12.8397271"><ele>354.0</ele><time>2026-04-28T09:08:13.677Z</time></trkpt><trkpt lat="37.9018261" lon="12.8396023"><ele>354.0</ele><time>2026-04-28T09:08:14.679Z</time></trkpt><trkpt lat="37.9017239" lon="12.8394801"><ele>354.0</ele><time>2026-04-28T09:08:15.677Z</time></trkpt><trkpt lat="37.9016333" lon="12.8393552"><ele>354.0</ele><time>2026-04-28T09:08:16.678Z</time></trkpt><trkpt lat="37.9015505" lon="12.8392264"><ele>356.25</ele><time>2026-04-28T09:08:17.677Z</time></trkpt><trkpt lat="37.9014689" lon="12.8391027"><ele>358.5</ele><time>2026-04-28T09:08:18.678Z</time></trkpt><trkpt lat="37.901384" lon="12.8389775"><ele>360.75</ele><time>2026-04-28T09:08:19.677Z</time></trkpt><trkpt lat="37.9013064" lon="12.8388567"><ele>363.0</ele><time>2026-04-28T09:08:20.677Z</time></trkpt><trkpt lat="37.9012215" lon="12.8387352"><ele>363.0</ele><time>2026-04-28T09:08:21.677Z</time></trkpt><trkpt lat="37.9011363" lon="12.838617"><ele>363.0</ele><time>2026-04-28T09:08:22.677Z</time></trkpt><trkpt lat="37.9010474" lon="12.8384952"><ele>363.0</ele><time>2026-04-28T09:08:23.678Z</time></trkpt><trkpt lat="37.9009537" lon="12.838378"><ele>363.0</ele><time>2026-04-28T09:08:24.677Z</time></trkpt><trkpt lat="37.9008598" lon="12.8382725"><ele>366.0</ele><time>2026-04-28T09:08:25.677Z</time></trkpt><trkpt lat="37.900759" lon="12.838185"><ele>369.0</ele><time>2026-04-28T09:08:26.678Z</time></trkpt><trkpt lat="37.9006491" lon="12.8381197"><ele>372.0</ele><time>2026-04-28T09:08:27.678Z</time></trkpt><trkpt lat="37.9005368" lon="12.8380625"><ele>375.0</ele><time>2026-04-28T09:08:28.678Z</time></trkpt><trkpt lat="37.9004216" lon="12.8380095"><ele>375.0</ele><time>2026-04-28T09:08:29.678Z</time></trkpt><trkpt lat="37.9003042" lon="12.837963"><ele>375.0</ele><time>2026-04-28T09:08:30.679Z</time></trkpt><trkpt lat="37.9001854" lon="12.8379213"><ele>375.0</ele><time>2026-04-28T09:08:31.679Z</time></trkpt><trkpt lat="37.9000672" lon="12.8378947"><ele>375.0</ele><time>2026-04-28T09:08:32.678Z</time></trkpt><trkpt lat="37.899946" lon="12.8378731"><ele>375.0</ele><time>2026-04-28T09:08:33.677Z</time></trkpt><trkpt lat="37.8998279" lon="12.8378589"><ele>375.0</ele><time>2026-04-28T09:08:34.677Z</time></trkpt><trkpt lat="37.8997067" lon="12.8378441"><ele>375.0</ele><time>2026-04-28T09:08:35.679Z</time></trkpt><trkpt lat="37.899589" lon="12.8378416"><ele>375.0</ele><time>2026-04-28T09:08:36.677Z</time></trkpt><trkpt lat="37.8994706" lon="12.8378335"><ele>375.0</ele><time>2026-04-28T09:08:37.677Z</time></trkpt><trkpt lat="37.8993558" lon="12.8378223"><ele>375.0</ele><time>2026-04-28T09:08:38.678Z</time></trkpt><trkpt lat="37.8992421" lon="12.8378044"><ele>375.0</ele><time>2026-04-28T09:08:39.677Z</time></trkpt><trkpt lat="37.899129" lon="12.8377957"><ele>375.0</ele><time>2026-04-28T09:08:40.677Z</time></trkpt><trkpt lat="37.8990144" lon="12.837769"><ele>375.5</ele><time>2026-04-28T09:08:41.677Z</time></trkpt><trkpt lat="37.8989067" lon="12.83773"><ele>376.0</ele><time>2026-04-28T09:08:42.677Z</time></trkpt><trkpt lat="37.8987935" lon="12.8376715"><ele>376.5</ele><time>2026-04-28T09:08:43.677Z</time></trkpt><trkpt lat="37.8986932" lon="12.8375982"><ele>377.0</ele><time>2026-04-28T09:08:44.677Z</time></trkpt><trkpt lat="37.898585" lon="12.8375341"><ele>381.75</ele><time>2026-04-28T09:08:45.678Z</time></trkpt><trkpt lat="37.8984798" lon="12.837458"><ele>386.5</ele><time>2026-04-28T09:08:46.678Z</time></trkpt><trkpt lat="37.8983795" lon="12.8373803"><ele>391.25</ele><time>2026-04-28T09:08:47.677Z</time></trkpt><trkpt lat="37.8982838" lon="12.8373037"><ele>396.0</ele><time>2026-04-28T09:08:48.678Z</time></trkpt><trkpt lat="37.8981796" lon="12.837223"><ele>396.0</ele><time>2026-04-28T09:08:49.677Z</time></trkpt><trkpt lat="37.8980837" lon="12.8371575"><ele>396.0</ele><time>2026-04-28T09:08:50.677Z</time></trkpt><trkpt lat="37.8979812" lon="12.8371188"><ele>396.0</ele><time>2026-04-28T09:08:51.678Z</time></trkpt><trkpt lat="37.8978706" lon="12.8371006"><ele>396.0</ele><time>2026-04-28T09:08:52.678Z</time></trkpt><trkpt lat="37.8977565" lon="12.8371169"><ele>396.0</ele><time>2026-04-28T09:08:53.677Z</time></trkpt><trkpt lat="37.8976419" lon="12.8371617"><ele>396.4</ele><time>2026-04-28T09:08:54.678Z</time></trkpt><trkpt lat="37.897534" lon="12.8372108"><ele>396.8</ele><time>2026-04-28T09:08:55.678Z</time></trkpt><trkpt lat="37.8974331" lon="12.8372605"><ele>397.2</ele><time>2026-04-28T09:08:56.678Z</time></trkpt><trkpt lat="37.8973427" lon="12.8373104"><ele>397.59999999999997</ele><time>2026-04-28T09:08:57.677Z</time></trkpt><trkpt lat="37.8972641" lon="12.8373806"><ele>398.0</ele><time>2026-04-28T09:08:58.677Z</time></trkpt><trkpt lat="37.8971917" lon="12.8374553"><ele>398.0</ele><time>2026-04-28T09:08:59.678Z</time></trkpt><trkpt lat="37.8971165" lon="12.8375433"><ele>398.0</ele><time>2026-04-28T09:09:00.677Z</time></trkpt><trkpt lat="37.8970417" lon="12.8376383"><ele>398.0</ele><time>2026-04-28T09:09:01.677Z</time></trkpt><trkpt lat="37.8969714" lon="12.8377346"><ele>398.0</ele><time>2026-04-28T09:09:02.678Z</time></trkpt><trkpt lat="37.8969012" lon="12.837823"><ele>398.0</ele><time>2026-04-28T09:09:03.677Z</time></trkpt><trkpt lat="37.8968402" lon="12.8379135"><ele>398.4</ele><time>2026-04-28T09:09:04.677Z</time></trkpt><trkpt lat="37.8967725" lon="12.8380008"><ele>398.79999999999995</ele><time>2026-04-28T09:09:05.677Z</time></trkpt><trkpt lat="37.8967027" lon="12.838084"><ele>399.2</ele><time>2026-04-28T09:09:06.678Z</time></trkpt><trkpt lat="37.8966421" lon="12.8381733"><ele>399.6</ele><time>2026-04-28T09:09:07.677Z</time></trkpt><trkpt lat="37.8965761" lon="12.8382759"><ele>400.0</ele><time>2026-04-28T09:09:08.678Z</time></trkpt><trkpt lat="37.8965133" lon="12.8383746"><ele>397.6</ele><time>2026-04-28T09:09:09.677Z</time></trkpt><trkpt lat="37.8964432" lon="12.8384759"><ele>395.2</ele><time>2026-04-28T09:09:10.677Z</time></trkpt><trkpt lat="37.8963674" lon="12.8385492"><ele>392.79999999999995</ele><time>2026-04-28T09:09:11.678Z</time></trkpt><trkpt lat="37.8962733" lon="12.838592"><ele>390.4</ele><time>2026-04-28T09:09:12.677Z</time></trkpt><trkpt lat="37.8961651" lon="12.8386021"><ele>388.0</ele><time>2026-04-28T09:09:13.677Z</time></trkpt><trkpt lat="37.8960481" lon="12.8386043"><ele>388.0</ele><time>2026-04-28T09:09:14.679Z</time></trkpt><trkpt lat="37.8959223" lon="12.8385895"><ele>388.0</ele><time>2026-04-28T09:09:15.678Z</time></trkpt><trkpt lat="37.8958026" lon="12.8385655"><ele>388.0</ele><time>2026-04-28T09:09:16.678Z</time></trkpt><trkpt lat="37.8956693" lon="12.8385386"><ele>388.0</ele><time>2026-04-28T09:09:17.678Z</time></trkpt><trkpt lat="37.8955361" lon="12.8385224"><ele>388.0</ele><time>2026-04-28T09:09:18.678Z</time></trkpt><trkpt lat="37.8954078" lon="12.8385088"><ele>388.0</ele><time>2026-04-28T09:09:19.677Z</time></trkpt><trkpt lat="37.895281" lon="12.838504"><ele>388.0</ele><time>2026-04-28T09:09:20.677Z</time></trkpt><trkpt lat="37.895152" lon="12.8385168"><ele>388.0</ele><time>2026-04-28T09:09:21.678Z</time></trkpt><trkpt lat="37.8950248" lon="12.8385365"><ele>386.75</ele><time>2026-04-28T09:09:22.677Z</time></trkpt><trkpt lat="37.8948975" lon="12.838549"><ele>385.5</ele><time>2026-04-28T09:09:23.677Z</time></trkpt><trkpt lat="37.8947743" lon="12.8385754"><ele>384.25</ele><time>2026-04-28T09:09:24.678Z</time></trkpt><trkpt lat="37.89465" lon="12.8385851"><ele>383.0</ele><time>2026-04-28T09:09:25.679Z</time></trkpt><trkpt lat="37.8945136" lon="12.8386154"><ele>383.0</ele><time>2026-04-28T09:09:26.679Z</time></trkpt><trkpt lat="37.8942584" lon="12.8386849"><ele>383.0</ele><time>2026-04-28T09:09:28.677Z</time></trkpt><trkpt lat="37.8941348" lon="12.8387154"><ele>383.0</ele><time>2026-04-28T09:09:29.677Z</time></trkpt><trkpt lat="37.8940034" lon="12.8387361"><ele>383.75</ele><time>2026-04-28T09:09:30.678Z</time></trkpt><trkpt lat="37.8938696" lon="12.8387497"><ele>384.5</ele><time>2026-04-28T09:09:31.677Z</time></trkpt><trkpt lat="37.8937417" lon="12.8387525"><ele>385.25</ele><time>2026-04-28T09:09:32.678Z</time></trkpt><trkpt lat="37.8936158" lon="12.8387624"><ele>386.0</ele><time>2026-04-28T09:09:33.678Z</time></trkpt><trkpt lat="37.8934934" lon="12.8387766"><ele>386.25</ele><time>2026-04-28T09:09:34.678Z</time></trkpt><trkpt lat="37.8933749" lon="12.8388225"><ele>386.5</ele><time>2026-04-28T09:09:35.678Z</time></trkpt><trkpt lat="37.8932617" lon="12.8388865"><ele>386.75</ele><time>2026-04-28T09:09:36.678Z</time></trkpt><trkpt lat="37.8931561" lon="12.8389777"><ele>387.0</ele><time>2026-04-28T09:09:37.678Z</time></trkpt><trkpt lat="37.8930549" lon="12.8390704"><ele>387.0</ele><time>2026-04-28T09:09:38.678Z</time></trkpt><trkpt lat="37.8929491" lon="12.8391618"><ele>387.0</ele><time>2026-04-28T09:09:39.677Z</time></trkpt><trkpt lat="37.89284" lon="12.8392659"><ele>387.0</ele><time>2026-04-28T09:09:40.677Z</time></trkpt><trkpt lat="37.8927337" lon="12.8393591"><ele>387.0</ele><time>2026-04-28T09:09:41.677Z</time></trkpt><trkpt lat="37.8926287" lon="12.8394539"><ele>386.0</ele><time>2026-04-28T09:09:42.677Z</time></trkpt><trkpt lat="37.8925298" lon="12.83955"><ele>385.0</ele><time>2026-04-28T09:09:43.678Z</time></trkpt><trkpt lat="37.8924267" lon="12.8396559"><ele>384.0</ele><time>2026-04-28T09:09:44.677Z</time></trkpt><trkpt lat="37.8923345" lon="12.8397608"><ele>383.0</ele><time>2026-04-28T09:09:45.678Z</time></trkpt><trkpt lat="37.8922544" lon="12.8398883"><ele>383.0</ele><time>2026-04-28T09:09:46.677Z</time></trkpt><trkpt lat="37.8921801" lon="12.8400125"><ele>383.0</ele><time>2026-04-28T09:09:47.678Z</time></trkpt><trkpt lat="37.89211" lon="12.8401433"><ele>383.0</ele><time>2026-04-28T09:09:48.678Z</time></trkpt><trkpt lat="37.8920418" lon="12.8402761"><ele>383.0</ele><time>2026-04-28T09:09:49.678Z</time></trkpt><trkpt lat="37.8919784" lon="12.840402"><ele>383.2</ele><time>2026-04-28T09:09:50.678Z</time></trkpt><trkpt lat="37.8919212" lon="12.8405189"><ele>383.4</ele><time>2026-04-28T09:09:51.678Z</time></trkpt><trkpt lat="37.8918655" lon="12.8406101"><ele>383.59999999999997</ele><time>2026-04-28T09:09:52.678Z</time></trkpt><trkpt lat="37.8918" lon="12.8406726"><ele>383.79999999999995</ele><time>2026-04-28T09:09:53.677Z</time></trkpt><trkpt lat="37.8917221" lon="12.840709"><ele>384.0</ele><time>2026-04-28T09:09:54.677Z</time></trkpt><trkpt lat="37.8916341" lon="12.8407123"><ele>384.0</ele><time>2026-04-28T09:09:55.677Z</time></trkpt><trkpt lat="37.8915384" lon="12.8406821"><ele>384.0</ele><time>2026-04-28T09:09:56.677Z</time></trkpt><trkpt lat="37.8914408" lon="12.8406249"><ele>384.0</ele><time>2026-04-28T09:09:57.678Z</time></trkpt><trkpt lat="37.8913393" lon="12.8405631"><ele>384.0</ele><time>2026-04-28T09:09:58.678Z</time></trkpt><trkpt lat="37.8912342" lon="12.8405005"><ele>384.0</ele><time>2026-04-28T09:09:59.679Z</time></trkpt><trkpt lat="37.8911199" lon="12.8404434"><ele>384.0</ele><time>2026-04-28T09:10:00.677Z</time></trkpt><trkpt lat="37.8910111" lon="12.8403843"><ele>384.0</ele><time>2026-04-28T09:10:01.677Z</time></trkpt><trkpt lat="37.8908891" lon="12.8403439"><ele>384.0</ele><time>2026-04-28T09:10:02.677Z</time></trkpt><trkpt lat="37.8907666" lon="12.8403085"><ele>384.0</ele><time>2026-04-28T09:10:03.677Z</time></trkpt><trkpt lat="37.8905305" lon="12.8402376"><ele>382.25</ele><time>2026-04-28T09:10:05.678Z</time></trkpt><trkpt lat="37.8904071" lon="12.8402093"><ele>380.5</ele><time>2026-04-28T09:10:06.678Z</time></trkpt><trkpt lat="37.8902867" lon="12.8401914"><ele>378.75</ele><time>2026-04-28T09:10:07.677Z</time></trkpt><trkpt lat="37.8901607" lon="12.8401809"><ele>377.0</ele><time>2026-04-28T09:10:08.678Z</time></trkpt><trkpt lat="37.890039" lon="12.8401786"><ele>376.25</ele><time>2026-04-28T09:10:09.678Z</time></trkpt><trkpt lat="37.8899158" lon="12.8401664"><ele>375.5</ele><time>2026-04-28T09:10:10.677Z</time></trkpt><trkpt lat="37.8897965" lon="12.8401502"><ele>374.75</ele><time>2026-04-28T09:10:11.678Z</time></trkpt><trkpt lat="37.8896872" lon="12.8401193"><ele>374.0</ele><time>2026-04-28T09:10:12.679Z</time></trkpt><trkpt lat="37.8895883" lon="12.8400487"><ele>375.75</ele><time>2026-04-28T09:10:13.678Z</time></trkpt><trkpt lat="37.8895023" lon="12.8399632"><ele>377.5</ele><time>2026-04-28T09:10:14.678Z</time></trkpt><trkpt lat="37.8894148" lon="12.8398773"><ele>379.25</ele><time>2026-04-28T09:10:15.678Z</time></trkpt><trkpt lat="37.8893167" lon="12.8397976"><ele>381.0</ele><time>2026-04-28T09:10:16.678Z</time></trkpt><trkpt lat="37.889209" lon="12.8397393"><ele>384.0</ele><time>2026-04-28T09:10:17.678Z</time></trkpt><trkpt lat="37.8890924" lon="12.839695"><ele>387.0</ele><time>2026-04-28T09:10:18.678Z</time></trkpt><trkpt lat="37.8889661" lon="12.8396658"><ele>390.0</ele><time>2026-04-28T09:10:19.677Z</time></trkpt><trkpt lat="37.8888393" lon="12.8396735"><ele>393.0</ele><time>2026-04-28T09:10:20.678Z</time></trkpt><trkpt lat="37.8887178" lon="12.8396909"><ele>393.0</ele><time>2026-04-28T09:10:21.678Z</time></trkpt><trkpt lat="37.888592" lon="12.8397125"><ele>393.0</ele><time>2026-04-28T09:10:22.677Z</time></trkpt><trkpt lat="37.8884704" lon="12.8397394"><ele>393.0</ele><time>2026-04-28T09:10:23.678Z</time></trkpt><trkpt lat="37.8883555" lon="12.8397703"><ele>393.0</ele><time>2026-04-28T09:10:24.677Z</time></trkpt><trkpt lat="37.8882396" lon="12.8398099"><ele>395.0</ele><time>2026-04-28T09:10:25.678Z</time></trkpt><trkpt lat="37.888128" lon="12.8398503"><ele>397.0</ele><time>2026-04-28T09:10:26.678Z</time></trkpt><trkpt lat="37.8880117" lon="12.8399023"><ele>399.0</ele><time>2026-04-28T09:10:27.677Z</time></trkpt><trkpt lat="37.8878988" lon="12.8399522"><ele>401.0</ele><time>2026-04-28T09:10:28.678Z</time></trkpt><trkpt lat="37.8877873" lon="12.8400003"><ele>401.0</ele><time>2026-04-28T09:10:29.678Z</time></trkpt><trkpt lat="37.8876842" lon="12.8400416"><ele>401.0</ele><time>2026-04-28T09:10:30.677Z</time></trkpt><trkpt lat="37.8875764" lon="12.8400645"><ele>401.0</ele><time>2026-04-28T09:10:31.677Z</time></trkpt><trkpt lat="37.8874747" lon="12.840065"><ele>401.0</ele><time>2026-04-28T09:10:32.678Z</time></trkpt><trkpt lat="37.8873714" lon="12.840055"><ele>401.0</ele><time>2026-04-28T09:10:33.677Z</time></trkpt><trkpt lat="37.8872731" lon="12.8400288"><ele>402.4</ele><time>2026-04-28T09:10:34.677Z</time></trkpt><trkpt lat="37.8871677" lon="12.8400041"><ele>403.8</ele><time>2026-04-28T09:10:35.677Z</time></trkpt><trkpt lat="37.8870624" lon="12.8399808"><ele>405.2</ele><time>2026-04-28T09:10:36.677Z</time></trkpt><trkpt lat="37.8869567" lon="12.8399574"><ele>406.59999999999997</ele><time>2026-04-28T09:10:37.678Z</time></trkpt><trkpt lat="37.8868514" lon="12.8399303"><ele>408.0</ele><time>2026-04-28T09:10:38.678Z</time></trkpt><trkpt lat="37.8867481" lon="12.8398988"><ele>409.4</ele><time>2026-04-28T09:10:39.677Z</time></trkpt><trkpt lat="37.8866483" lon="12.8398657"><ele>410.79999999999995</ele><time>2026-04-28T09:10:40.678Z</time></trkpt><trkpt lat="37.8865467" lon="12.8398235"><ele>412.2</ele><time>2026-04-28T09:10:41.677Z</time></trkpt><trkpt lat="37.8864458" lon="12.839763"><ele>413.6</ele><time>2026-04-28T09:10:42.678Z</time></trkpt><trkpt lat="37.8863504" lon="12.8397047"><ele>415.0</ele><time>2026-04-28T09:10:43.678Z</time></trkpt><trkpt lat="37.8862587" lon="12.8396419"><ele>415.0</ele><time>2026-04-28T09:10:44.677Z</time></trkpt><trkpt lat="37.8861629" lon="12.8395698"><ele>415.0</ele><time>2026-04-28T09:10:45.677Z</time></trkpt><trkpt lat="37.8860648" lon="12.8395056"><ele>415.0</ele><time>2026-04-28T09:10:46.678Z</time></trkpt><trkpt lat="37.8859733" lon="12.8394346"><ele>415.0</ele><time>2026-04-28T09:10:47.679Z</time></trkpt><trkpt lat="37.8858932" lon="12.8393498"><ele>415.0</ele><time>2026-04-28T09:10:48.679Z</time></trkpt><trkpt lat="37.8858157" lon="12.8392481"><ele>416.25</ele><time>2026-04-28T09:10:49.678Z</time></trkpt><trkpt lat="37.8857431" lon="12.8391407"><ele>417.5</ele><time>2026-04-28T09:10:50.677Z</time></trkpt><trkpt lat="37.8856662" lon="12.8390303"><ele>418.75</ele><time>2026-04-28T09:10:51.678Z</time></trkpt><trkpt lat="37.8855981" lon="12.8389211"><ele>420.0</ele><time>2026-04-28T09:10:52.677Z</time></trkpt><trkpt lat="37.885519" lon="12.8388043"><ele>420.0</ele><time>2026-04-28T09:10:53.678Z</time></trkpt><trkpt lat="37.8854361" lon="12.8386849"><ele>420.0</ele><time>2026-04-28T09:10:54.678Z</time></trkpt><trkpt lat="37.885347" lon="12.8385648"><ele>420.0</ele><time>2026-04-28T09:10:55.678Z</time></trkpt><trkpt lat="37.8852531" lon="12.8384494"><ele>420.0</ele><time>2026-04-28T09:10:56.678Z</time></trkpt><trkpt lat="37.8851556" lon="12.8383356"><ele>420.75</ele><time>2026-04-28T09:10:57.677Z</time></trkpt><trkpt lat="37.8850516" lon="12.8382285"><ele>421.5</ele><time>2026-04-28T09:10:58.677Z</time></trkpt><trkpt lat="37.8849477" lon="12.8381139"><ele>422.25</ele><time>2026-04-28T09:10:59.678Z</time></trkpt><trkpt lat="37.8848415" lon="12.8379965"><ele>423.0</ele><time>2026-04-28T09:11:00.678Z</time></trkpt><trkpt lat="37.8847256" lon="12.8378911"><ele>423.0</ele><time>2026-04-28T09:11:01.677Z</time></trkpt><trkpt lat="37.8846097" lon="12.837795"><ele>423.0</ele><time>2026-04-28T09:11:02.677Z</time></trkpt><trkpt lat="37.8844892" lon="12.8377068"><ele>423.0</ele><time>2026-04-28T09:11:03.678Z</time></trkpt><trkpt lat="37.8843651" lon="12.8376108"><ele>423.0</ele><time>2026-04-28T09:11:04.68Z</time></trkpt><trkpt lat="37.8842401" lon="12.8375259"><ele>423.75</ele><time>2026-04-28T09:11:05.677Z</time></trkpt><trkpt lat="37.8841167" lon="12.837445"><ele>424.5</ele><time>2026-04-28T09:11:06.678Z</time></trkpt><trkpt lat="37.883991" lon="12.8373661"><ele>425.25</ele><time>2026-04-28T09:11:07.677Z</time></trkpt><trkpt lat="37.8838647" lon="12.837285"><ele>426.0</ele><time>2026-04-28T09:11:08.679Z</time></trkpt><trkpt lat="37.8837384" lon="12.8371972"><ele>426.0</ele><time>2026-04-28T09:11:09.677Z</time></trkpt><trkpt lat="37.8836143" lon="12.8371164"><ele>426.0</ele><time>2026-04-28T09:11:10.678Z</time></trkpt><trkpt lat="37.8834944" lon="12.8370492"><ele>426.0</ele><time>2026-04-28T09:11:11.68Z</time></trkpt><trkpt lat="37.8833769" lon="12.8369895"><ele>426.0</ele><time>2026-04-28T09:11:12.677Z</time></trkpt><trkpt lat="37.8832543" lon="12.8369528"><ele>426.5</ele><time>2026-04-28T09:11:13.677Z</time></trkpt><trkpt lat="37.8831288" lon="12.836946"><ele>427.0</ele><time>2026-04-28T09:11:14.679Z</time></trkpt><trkpt lat="37.8830003" lon="12.8369584"><ele>427.5</ele><time>2026-04-28T09:11:15.677Z</time></trkpt><trkpt lat="37.8828756" lon="12.8369691"><ele>428.0</ele><time>2026-04-28T09:11:16.678Z</time></trkpt><trkpt lat="37.8827514" lon="12.8369721"><ele>428.0</ele><time>2026-04-28T09:11:17.679Z</time></trkpt><trkpt lat="37.8826296" lon="12.8369634"><ele>428.0</ele><time>2026-04-28T09:11:18.677Z</time></trkpt><trkpt lat="37.882507" lon="12.8369275"><ele>428.0</ele><time>2026-04-28T09:11:19.677Z</time></trkpt><trkpt lat="37.8823854" lon="12.836878"><ele>428.0</ele><time>2026-04-28T09:11:20.678Z</time></trkpt><trkpt lat="37.8822623" lon="12.8368186"><ele>432.75</ele><time>2026-04-28T09:11:21.678Z</time></trkpt><trkpt lat="37.8821443" lon="12.8367565"><ele>437.5</ele><time>2026-04-28T09:11:22.677Z</time></trkpt><trkpt lat="37.8820109" lon="12.8366983"><ele>442.25</ele><time>2026-04-28T09:11:23.677Z</time></trkpt><trkpt lat="37.8818818" lon="12.8366455"><ele>447.0</ele><time>2026-04-28T09:11:24.678Z</time></trkpt><trkpt lat="37.881745" lon="12.8365955"><ele>447.75</ele><time>2026-04-28T09:11:25.677Z</time></trkpt><trkpt lat="37.8816065" lon="12.8365597"><ele>448.5</ele><time>2026-04-28T09:11:26.678Z</time></trkpt><trkpt lat="37.8814665" lon="12.836519"><ele>449.25</ele><time>2026-04-28T09:11:27.677Z</time></trkpt><trkpt lat="37.881329" lon="12.8364742"><ele>450.0</ele><time>2026-04-28T09:11:28.678Z</time></trkpt><trkpt lat="37.8811968" lon="12.8364392"><ele>450.0</ele><time>2026-04-28T09:11:29.677Z</time></trkpt><trkpt lat="37.8810715" lon="12.8364131"><ele>450.0</ele><time>2026-04-28T09:11:30.678Z</time></trkpt><trkpt lat="37.8809458" lon="12.8363786"><ele>450.0</ele><time>2026-04-28T09:11:31.678Z</time></trkpt><trkpt lat="37.8808194" lon="12.836347"><ele>450.0</ele><time>2026-04-28T09:11:32.678Z</time></trkpt><trkpt lat="37.8806897" lon="12.8363225"><ele>451.0</ele><time>2026-04-28T09:11:33.677Z</time></trkpt><trkpt lat="37.8805677" lon="12.8363095"><ele>452.0</ele><time>2026-04-28T09:11:34.677Z</time></trkpt><trkpt lat="37.8804492" lon="12.8363185"><ele>453.0</ele><time>2026-04-28T09:11:35.678Z</time></trkpt><trkpt lat="37.8803533" lon="12.8363603"><ele>454.0</ele><time>2026-04-28T09:11:36.679Z</time></trkpt><trkpt lat="37.8802768" lon="12.8364305"><ele>455.0</ele><time>2026-04-28T09:11:37.678Z</time></trkpt><trkpt lat="37.8802262" lon="12.836547"><ele>455.0</ele><time>2026-04-28T09:11:38.678Z</time></trkpt><trkpt lat="37.8801942" lon="12.8366808"><ele>455.0</ele><time>2026-04-28T09:11:39.679Z</time></trkpt><trkpt lat="37.8801652" lon="12.8368191"><ele>455.0</ele><time>2026-04-28T09:11:40.678Z</time></trkpt><trkpt lat="37.8801335" lon="12.8369528"><ele>455.0</ele><time>2026-04-28T09:11:41.677Z</time></trkpt><trkpt lat="37.8800868" lon="12.8370681"><ele>455.0</ele><time>2026-04-28T09:11:42.678Z</time></trkpt><trkpt lat="37.8800289" lon="12.837158"><ele>458.0</ele><time>2026-04-28T09:11:43.677Z</time></trkpt><trkpt lat="37.8799572" lon="12.8372089"><ele>461.0</ele><time>2026-04-28T09:11:44.679Z</time></trkpt><trkpt lat="37.8798772" lon="12.8372214"><ele>464.0</ele><time>2026-04-28T09:11:45.677Z</time></trkpt><trkpt lat="37.8797897" lon="12.8371942"><ele>467.0</ele><time>2026-04-28T09:11:46.679Z</time></trkpt><trkpt lat="37.8796947" lon="12.8371326"><ele>470.0</ele><time>2026-04-28T09:11:47.678Z</time></trkpt><trkpt lat="37.8795994" lon="12.8370487"><ele>470.0</ele><time>2026-04-28T09:11:48.678Z</time></trkpt><trkpt lat="37.8795078" lon="12.8369581"><ele>470.0</ele><time>2026-04-28T09:11:49.678Z</time></trkpt><trkpt lat="37.8794213" lon="12.8368748"><ele>470.0</ele><time>2026-04-28T09:11:50.677Z</time></trkpt><trkpt lat="37.8793432" lon="12.8367824"><ele>470.0</ele><time>2026-04-28T09:11:51.678Z</time></trkpt><trkpt lat="37.8792776" lon="12.8367009"><ele>470.0</ele><time>2026-04-28T09:11:52.677Z</time></trkpt><trkpt lat="37.8792232" lon="12.8366346"><ele>471.16666666666663</ele><time>2026-04-28T09:11:53.677Z</time></trkpt><trkpt lat="37.8791574" lon="12.8365631"><ele>472.3333333333333</ele><time>2026-04-28T09:11:55.677Z</time></trkpt><trkpt lat="37.8790952" lon="12.8365171"><ele>473.5</ele><time>2026-04-28T09:13:52.678Z</time></trkpt><trkpt lat="37.8790268" lon="12.8365272"><ele>474.66666666666663</ele><time>2026-04-28T09:13:54.679Z</time></trkpt><trkpt lat="37.8789193" lon="12.836538"><ele>475.8333333333333</ele><time>2026-04-28T09:13:56.679Z</time></trkpt><trkpt lat="37.8788545" lon="12.8365492"><ele>477.0</ele><time>2026-04-28T09:13:57.678Z</time></trkpt><trkpt lat="37.8787901" lon="12.8365634"><ele>477.0</ele><time>2026-04-28T09:13:58.678Z</time></trkpt><trkpt lat="37.8787247" lon="12.8365806"><ele>476.99999999999994</ele><time>2026-04-28T09:13:59.678Z</time></trkpt><trkpt lat="37.8786582" lon="12.836599"><ele>477.0</ele><time>2026-04-28T09:14:00.677Z</time></trkpt><trkpt lat="37.8785897" lon="12.8366107"><ele>477.0</ele><time>2026-04-28T09:14:01.678Z</time></trkpt><trkpt lat="37.8785181" lon="12.8366415"><ele>476.99999999999994</ele><time>2026-04-28T09:14:02.677Z</time></trkpt><trkpt lat="37.8784478" lon="12.8366798"><ele>477.0</ele><time>2026-04-28T09:14:03.677Z</time></trkpt><trkpt lat="37.8783829" lon="12.8367385"><ele>477.0</ele><time>2026-04-28T09:14:04.678Z</time></trkpt><trkpt lat="37.8783094" lon="12.8368076"><ele>478.6666666666667</ele><time>2026-04-28T09:14:05.678Z</time></trkpt><trkpt lat="37.8782486" lon="12.8368867"><ele>480.33333333333337</ele><time>2026-04-28T09:14:06.677Z</time></trkpt><trkpt lat="37.8781945" lon="12.8369647"><ele>482.0</ele><time>2026-04-28T09:14:07.679Z</time></trkpt><trkpt lat="37.8781321" lon="12.8370531"><ele>483.6666666666667</ele><time>2026-04-28T09:14:08.679Z</time></trkpt><trkpt lat="37.8780616" lon="12.8371267"><ele>485.33333333333337</ele><time>2026-04-28T09:14:09.677Z</time></trkpt><trkpt lat="37.8779884" lon="12.8371933"><ele>487.0</ele><time>2026-04-28T09:14:10.678Z</time></trkpt><trkpt lat="37.8779083" lon="12.8372414"><ele>487.0</ele><time>2026-04-28T09:14:11.678Z</time></trkpt><trkpt lat="37.8778204" lon="12.8372607"><ele>487.00000000000006</ele><time>2026-04-28T09:14:12.677Z</time></trkpt><trkpt lat="37.8777258" lon="12.8372688"><ele>487.00000000000006</ele><time>2026-04-28T09:14:13.678Z</time></trkpt><trkpt lat="37.8776311" lon="12.8372653"><ele>487.0</ele><time>2026-04-28T09:14:14.677Z</time></trkpt><trkpt lat="37.8775356" lon="12.8372506"><ele>487.0</ele><time>2026-04-28T09:14:15.677Z</time></trkpt><trkpt lat="37.8774359" lon="12.83724"><ele>485.6</ele><time>2026-04-28T09:14:16.678Z</time></trkpt><trkpt lat="37.877341" lon="12.8372504"><ele>484.20000000000005</ele><time>2026-04-28T09:14:17.679Z</time></trkpt><trkpt lat="37.8772527" lon="12.8372729"><ele>482.8</ele><time>2026-04-28T09:14:18.678Z</time></trkpt><trkpt lat="37.8771705" lon="12.8373191"><ele>481.4</ele><time>2026-04-28T09:14:19.677Z</time></trkpt><trkpt lat="37.8770925" lon="12.8373807"><ele>480.0</ele><time>2026-04-28T09:14:20.678Z</time></trkpt><trkpt lat="37.8770065" lon="12.837434"><ele>480.0</ele><time>2026-04-28T09:14:21.677Z</time></trkpt><trkpt lat="37.8769091" lon="12.8374807"><ele>480.0</ele><time>2026-04-28T09:14:22.677Z</time></trkpt><trkpt lat="37.8768009" lon="12.8375233"><ele>480.0</ele><time>2026-04-28T09:14:23.679Z</time></trkpt><trkpt lat="37.8766932" lon="12.8375648"><ele>480.0</ele><time>2026-04-28T09:14:24.678Z</time></trkpt><trkpt lat="37.8765839" lon="12.8376102"><ele>480.0</ele><time>2026-04-28T09:14:25.678Z</time></trkpt><trkpt lat="37.876471" lon="12.837652"><ele>483.5</ele><time>2026-04-28T09:14:26.678Z</time></trkpt><trkpt lat="37.8763585" lon="12.8377006"><ele>487.0</ele><time>2026-04-28T09:14:27.677Z</time></trkpt><trkpt lat="37.8762431" lon="12.8377475"><ele>490.5</ele><time>2026-04-28T09:14:28.678Z</time></trkpt><trkpt lat="37.8761281" lon="12.8377852"><ele>494.0</ele><time>2026-04-28T09:14:29.678Z</time></trkpt><trkpt lat="37.8760071" lon="12.8378307"><ele>492.75</ele><time>2026-04-28T09:14:30.679Z</time></trkpt><trkpt lat="37.8758873" lon="12.8378662"><ele>491.5</ele><time>2026-04-28T09:14:31.679Z</time></trkpt><trkpt lat="37.875763" lon="12.8379"><ele>490.25</ele><time>2026-04-28T09:14:32.678Z</time></trkpt><trkpt lat="37.8756375" lon="12.8379373"><ele>489.0</ele><time>2026-04-28T09:14:33.678Z</time></trkpt><trkpt lat="37.8755143" lon="12.8379782"><ele>489.0</ele><time>2026-04-28T09:14:34.678Z</time></trkpt><trkpt lat="37.8753971" lon="12.8380081"><ele>489.0</ele><time>2026-04-28T09:14:35.677Z</time></trkpt><trkpt lat="37.8752885" lon="12.8380277"><ele>489.0</ele><time>2026-04-28T09:14:36.678Z</time></trkpt><trkpt lat="37.8751923" lon="12.8380342"><ele>489.0</ele><time>2026-04-28T09:14:37.679Z</time></trkpt><trkpt lat="37.8750964" lon="12.8380247"><ele>489.0</ele><time>2026-04-28T09:14:38.677Z</time></trkpt><trkpt lat="37.8749999" lon="12.8379882"><ele>487.5</ele><time>2026-04-28T09:14:39.678Z</time></trkpt><trkpt lat="37.8749076" lon="12.8379294"><ele>486.0</ele><time>2026-04-28T09:14:40.678Z</time></trkpt><trkpt lat="37.8748083" lon="12.837864"><ele>484.5</ele><time>2026-04-28T09:14:41.677Z</time></trkpt><trkpt lat="37.8747032" lon="12.8377951"><ele>483.0</ele><time>2026-04-28T09:14:42.678Z</time></trkpt><trkpt lat="37.8745967" lon="12.8377238"><ele>483.0</ele><time>2026-04-28T09:14:43.678Z</time></trkpt><trkpt lat="37.8744935" lon="12.8376607"><ele>483.0</ele><time>2026-04-28T09:14:44.678Z</time></trkpt><trkpt lat="37.8743893" lon="12.8375934"><ele>483.0</ele><time>2026-04-28T09:14:45.678Z</time></trkpt><trkpt lat="37.8742837" lon="12.8375245"><ele>483.0</ele><time>2026-04-28T09:14:46.677Z</time></trkpt><trkpt lat="37.8741772" lon="12.8374586"><ele>481.25</ele><time>2026-04-28T09:14:47.677Z</time></trkpt><trkpt lat="37.8740744" lon="12.8373966"><ele>479.5</ele><time>2026-04-28T09:14:48.678Z</time></trkpt><trkpt lat="37.8739715" lon="12.8373261"><ele>477.75</ele><time>2026-04-28T09:14:49.677Z</time></trkpt><trkpt lat="37.8738659" lon="12.8372499"><ele>476.0</ele><time>2026-04-28T09:14:50.678Z</time></trkpt><trkpt lat="37.8737522" lon="12.8371732"><ele>476.0</ele><time>2026-04-28T09:14:51.678Z</time></trkpt><trkpt lat="37.8736422" lon="12.8370955"><ele>476.0</ele><time>2026-04-28T09:14:52.677Z</time></trkpt><trkpt lat="37.8735303" lon="12.8370184"><ele>476.0</ele><time>2026-04-28T09:14:53.677Z</time></trkpt><trkpt lat="37.8734148" lon="12.8369437"><ele>476.0</ele><time>2026-04-28T09:14:54.677Z</time></trkpt><trkpt lat="37.8732983" lon="12.8368644"><ele>474.0</ele><time>2026-04-28T09:14:55.678Z</time></trkpt><trkpt lat="37.8731795" lon="12.836791"><ele>472.0</ele><time>2026-04-28T09:14:56.679Z</time></trkpt><trkpt lat="37.8730668" lon="12.8367171"><ele>470.0</ele><time>2026-04-28T09:14:57.678Z</time></trkpt><trkpt lat="37.8729549" lon="12.8366604"><ele>468.0</ele><time>2026-04-28T09:14:58.678Z</time></trkpt><trkpt lat="37.8728398" lon="12.8366084"><ele>468.0</ele><time>2026-04-28T09:14:59.677Z</time></trkpt><trkpt lat="37.8727208" lon="12.8365523"><ele>468.0</ele><time>2026-04-28T09:15:00.677Z</time></trkpt><trkpt lat="37.8726148" lon="12.8365185"><ele>468.0</ele><time>2026-04-28T09:15:01.678Z</time></trkpt><trkpt lat="37.8725088" lon="12.8364889"><ele>468.0</ele><time>2026-04-28T09:15:02.678Z</time></trkpt><trkpt lat="37.8724041" lon="12.8364774"><ele>467.79999999999995</ele><time>2026-04-28T09:15:03.678Z</time></trkpt><trkpt lat="37.8722964" lon="12.8364872"><ele>467.59999999999997</ele><time>2026-04-28T09:15:04.679Z</time></trkpt><trkpt lat="37.8721841" lon="12.8365119"><ele>467.40000000000003</ele><time>2026-04-28T09:15:05.679Z</time></trkpt><trkpt lat="37.8720672" lon="12.8365332"><ele>467.20000000000005</ele><time>2026-04-28T09:15:06.677Z</time></trkpt><trkpt lat="37.8719608" lon="12.8365462"><ele>467.0</ele><time>2026-04-28T09:15:07.68Z</time></trkpt><trkpt lat="37.8718577" lon="12.8365429"><ele>465.6</ele><time>2026-04-28T09:15:08.677Z</time></trkpt><trkpt lat="37.871764" lon="12.8365062"><ele>464.20000000000005</ele><time>2026-04-28T09:15:09.677Z</time></trkpt><trkpt lat="37.8716702" lon="12.8364313"><ele>462.8</ele><time>2026-04-28T09:15:10.678Z</time></trkpt><trkpt lat="37.8715949" lon="12.8363245"><ele>461.4</ele><time>2026-04-28T09:15:11.678Z</time></trkpt><trkpt lat="37.8715393" lon="12.836192"><ele>460.0</ele><time>2026-04-28T09:15:12.678Z</time></trkpt><trkpt lat="37.8714977" lon="12.8360518"><ele>458.5</ele><time>2026-04-28T09:15:13.677Z</time></trkpt><trkpt lat="37.8714675" lon="12.8359038"><ele>457.0</ele><time>2026-04-28T09:15:14.678Z</time></trkpt><trkpt lat="37.8714357" lon="12.8357439"><ele>455.5</ele><time>2026-04-28T09:15:15.679Z</time></trkpt><trkpt lat="37.8713992" lon="12.8355987"><ele>454.0</ele><time>2026-04-28T09:15:16.678Z</time></trkpt><trkpt lat="37.8713554" lon="12.8354632"><ele>454.0</ele><time>2026-04-28T09:15:17.677Z</time></trkpt><trkpt lat="37.8712993" lon="12.8353359"><ele>454.0</ele><time>2026-04-28T09:15:18.678Z</time></trkpt><trkpt lat="37.8712202" lon="12.8352244"><ele>454.0</ele><time>2026-04-28T09:15:19.677Z</time></trkpt><trkpt lat="37.8711201" lon="12.8351328"><ele>454.0</ele><time>2026-04-28T09:15:20.677Z</time></trkpt><trkpt lat="37.8710045" lon="12.8350344"><ele>451.25</ele><time>2026-04-28T09:15:21.678Z</time></trkpt><trkpt lat="37.8708969" lon="12.8349448"><ele>448.5</ele><time>2026-04-28T09:15:22.679Z</time></trkpt><trkpt lat="37.8707767" lon="12.834857"><ele>445.75</ele><time>2026-04-28T09:15:23.678Z</time></trkpt><trkpt lat="37.8706739" lon="12.8347737"><ele>443.0</ele><time>2026-04-28T09:15:24.678Z</time></trkpt><trkpt lat="37.8705766" lon="12.8346801"><ele>443.0</ele><time>2026-04-28T09:15:25.679Z</time></trkpt><trkpt lat="37.8704989" lon="12.8345843"><ele>442.99999999999994</ele><time>2026-04-28T09:15:26.678Z</time></trkpt><trkpt lat="37.8704328" lon="12.8344951"><ele>442.99999999999994</ele><time>2026-04-28T09:15:27.678Z</time></trkpt><trkpt lat="37.870378" lon="12.8344086"><ele>443.0</ele><time>2026-04-28T09:15:28.677Z</time></trkpt><trkpt lat="37.8703442" lon="12.8343363"><ele>443.0</ele><time>2026-04-28T09:15:29.678Z</time></trkpt><trkpt lat="37.8703489" lon="12.834193"><ele>441.79999999999995</ele><time>2026-04-28T09:15:31.677Z</time></trkpt><trkpt lat="37.8703774" lon="12.8341131"><ele>440.59999999999997</ele><time>2026-04-28T09:15:32.678Z</time></trkpt><trkpt lat="37.8704228" lon="12.8340205"><ele>439.40000000000003</ele><time>2026-04-28T09:15:33.68Z</time></trkpt><trkpt lat="37.8704761" lon="12.8339164"><ele>438.20000000000005</ele><time>2026-04-28T09:15:34.677Z</time></trkpt><trkpt lat="37.8705356" lon="12.8337948"><ele>437.0</ele><time>2026-04-28T09:15:35.678Z</time></trkpt><trkpt lat="37.8706023" lon="12.8336727"><ele>437.0</ele><time>2026-04-28T09:15:36.679Z</time></trkpt><trkpt lat="37.8706651" lon="12.8335466"><ele>437.0</ele><time>2026-04-28T09:15:37.677Z</time></trkpt><trkpt lat="37.8707299" lon="12.8334036"><ele>437.0</ele><time>2026-04-28T09:15:38.677Z</time></trkpt><trkpt lat="37.8707937" lon="12.8332504"><ele>437.0</ele><time>2026-04-28T09:15:39.677Z</time></trkpt><trkpt lat="37.8708579" lon="12.8330935"><ele>437.25</ele><time>2026-04-28T09:15:40.678Z</time></trkpt><trkpt lat="37.8709244" lon="12.8329469"><ele>437.5</ele><time>2026-04-28T09:15:41.677Z</time></trkpt><trkpt lat="37.8709703" lon="12.832799"><ele>437.75</ele><time>2026-04-28T09:15:42.678Z</time></trkpt><trkpt lat="37.8709926" lon="12.8326505"><ele>438.0</ele><time>2026-04-28T09:15:43.679Z</time></trkpt><trkpt lat="37.8709848" lon="12.8324986"><ele>437.5</ele><time>2026-04-28T09:15:44.677Z</time></trkpt><trkpt lat="37.8709559" lon="12.83235"><ele>437.0</ele><time>2026-04-28T09:15:45.679Z</time></trkpt><trkpt lat="37.8709301" lon="12.8322002"><ele>436.5</ele><time>2026-04-28T09:15:46.678Z</time></trkpt><trkpt lat="37.8709285" lon="12.8320527"><ele>436.0</ele><time>2026-04-28T09:15:47.677Z</time></trkpt><trkpt lat="37.8709511" lon="12.8319061"><ele>434.5</ele><time>2026-04-28T09:15:48.678Z</time></trkpt><trkpt lat="37.8709875" lon="12.8317594"><ele>433.0</ele><time>2026-04-28T09:15:49.678Z</time></trkpt><trkpt lat="37.8710259" lon="12.8316052"><ele>431.5</ele><time>2026-04-28T09:15:50.677Z</time></trkpt><trkpt lat="37.8710527" lon="12.8314319"><ele>430.0</ele><time>2026-04-28T09:15:51.677Z</time></trkpt><trkpt lat="37.8710757" lon="12.8312391"><ele>430.0</ele><time>2026-04-28T09:15:52.677Z</time></trkpt><trkpt lat="37.8710742" lon="12.8310672"><ele>430.0</ele><time>2026-04-28T09:15:53.678Z</time></trkpt><trkpt lat="37.8710497" lon="12.8308972"><ele>430.0</ele><time>2026-04-28T09:15:54.678Z</time></trkpt><trkpt lat="37.8710207" lon="12.8307233"><ele>430.0</ele><time>2026-04-28T09:15:55.678Z</time></trkpt><trkpt lat="37.8709656" lon="12.8305598"><ele>432.5</ele><time>2026-04-28T09:15:56.678Z</time></trkpt><trkpt lat="37.8708969" lon="12.8304045"><ele>435.0</ele><time>2026-04-28T09:15:57.678Z</time></trkpt><trkpt lat="37.8708227" lon="12.8302472"><ele>437.5</ele><time>2026-04-28T09:15:58.678Z</time></trkpt><trkpt lat="37.8707657" lon="12.8300859"><ele>440.0</ele><time>2026-04-28T09:15:59.678Z</time></trkpt><trkpt lat="37.8707228" lon="12.8299393"><ele>440.0</ele><time>2026-04-28T09:16:00.677Z</time></trkpt><trkpt lat="37.870711" lon="12.829798"><ele>440.0</ele><time>2026-04-28T09:16:01.678Z</time></trkpt><trkpt lat="37.8707346" lon="12.8296567"><ele>440.0</ele><time>2026-04-28T09:16:02.678Z</time></trkpt><trkpt lat="37.8707891" lon="12.8294987"><ele>440.0</ele><time>2026-04-28T09:16:03.678Z</time></trkpt><trkpt lat="37.8708621" lon="12.8293394"><ele>441.3333333333333</ele><time>2026-04-28T09:16:04.678Z</time></trkpt><trkpt lat="37.8709345" lon="12.829173"><ele>442.66666666666663</ele><time>2026-04-28T09:16:05.677Z</time></trkpt><trkpt lat="37.871011" lon="12.8289979"><ele>444.0</ele><time>2026-04-28T09:16:06.678Z</time></trkpt><trkpt lat="37.8710795" lon="12.8288292"><ele>443.25</ele><time>2026-04-28T09:16:07.679Z</time></trkpt><trkpt lat="37.8711357" lon="12.8286558"><ele>442.5</ele><time>2026-04-28T09:16:08.677Z</time></trkpt><trkpt lat="37.8711752" lon="12.8284783"><ele>441.75</ele><time>2026-04-28T09:16:09.678Z</time></trkpt><trkpt lat="37.8712138" lon="12.8283069"><ele>441.0</ele><time>2026-04-28T09:16:10.678Z</time></trkpt><trkpt lat="37.87125" lon="12.8281386"><ele>441.0</ele><time>2026-04-28T09:16:11.677Z</time></trkpt><trkpt lat="37.8712882" lon="12.8279867"><ele>441.0</ele><time>2026-04-28T09:16:12.678Z</time></trkpt><trkpt lat="37.8713299" lon="12.8278336"><ele>441.0</ele><time>2026-04-28T09:16:13.679Z</time></trkpt><trkpt lat="37.8713847" lon="12.827677"><ele>441.0</ele><time>2026-04-28T09:16:14.677Z</time></trkpt><trkpt lat="37.8714386" lon="12.8275208"><ele>440.25</ele><time>2026-04-28T09:16:15.678Z</time></trkpt><trkpt lat="37.8714935" lon="12.8273649"><ele>439.5</ele><time>2026-04-28T09:16:16.677Z</time></trkpt><trkpt lat="37.8715435" lon="12.827219"><ele>438.75</ele><time>2026-04-28T09:16:17.677Z</time></trkpt><trkpt lat="37.8715834" lon="12.8270798"><ele>438.0</ele><time>2026-04-28T09:16:18.677Z</time></trkpt><trkpt lat="37.8716088" lon="12.8269521"><ele>438.0</ele><time>2026-04-28T09:16:19.678Z</time></trkpt><trkpt lat="37.8716089" lon="12.8268227"><ele>438.0</ele><time>2026-04-28T09:16:20.678Z</time></trkpt><trkpt lat="37.871584" lon="12.8266999"><ele>438.0</ele><time>2026-04-28T09:16:21.678Z</time></trkpt><trkpt lat="37.8715468" lon="12.8265904"><ele>438.0</ele><time>2026-04-28T09:16:22.678Z</time></trkpt><trkpt lat="37.8715218" lon="12.826502"><ele>438.0</ele><time>2026-04-28T09:16:23.677Z</time></trkpt><trkpt lat="37.8715109" lon="12.8264071"><ele>438.0</ele><time>2026-04-28T09:16:24.678Z</time></trkpt><trkpt lat="37.8715095" lon="12.8263249"><ele>437.5</ele><time>2026-04-28T09:16:25.677Z</time></trkpt><trkpt lat="37.8715429" lon="12.8262163"><ele>437.0</ele><time>2026-04-28T09:16:27.677Z</time></trkpt><trkpt lat="37.871627" lon="12.8261754"><ele>436.5</ele><time>2026-04-28T09:16:29.679Z</time></trkpt><trkpt lat="37.8716901" lon="12.8261505"><ele>436.0</ele><time>2026-04-28T09:16:30.677Z</time></trkpt><trkpt lat="37.8717584" lon="12.8261133"><ele>435.5</ele><time>2026-04-28T09:16:31.678Z</time></trkpt><trkpt lat="37.8718349" lon="12.826054"><ele>435.0</ele><time>2026-04-28T09:16:32.679Z</time></trkpt><trkpt lat="37.871922" lon="12.8259868"><ele>433.0</ele><time>2026-04-28T09:16:33.678Z</time></trkpt><trkpt lat="37.8720178" lon="12.8258996"><ele>431.0</ele><time>2026-04-28T09:16:34.677Z</time></trkpt><trkpt lat="37.8721181" lon="12.8258112"><ele>429.0</ele><time>2026-04-28T09:16:35.679Z</time></trkpt><trkpt lat="37.872227" lon="12.8257027"><ele>427.0</ele><time>2026-04-28T09:16:36.679Z</time></trkpt><trkpt lat="37.8723444" lon="12.8255842"><ele>427.0</ele><time>2026-04-28T09:16:37.678Z</time></trkpt><trkpt lat="37.8724712" lon="12.8254538"><ele>427.0</ele><time>2026-04-28T09:16:38.677Z</time></trkpt><trkpt lat="37.872605" lon="12.8253259"><ele>427.0</ele><time>2026-04-28T09:16:39.678Z</time></trkpt><trkpt lat="37.8727358" lon="12.8251892"><ele>428.0</ele><time>2026-04-28T09:16:40.677Z</time></trkpt><trkpt lat="37.8728615" lon="12.8250631"><ele>429.0</ele><time>2026-04-28T09:16:41.678Z</time></trkpt><trkpt lat="37.8729817" lon="12.8249367"><ele>430.0</ele><time>2026-04-28T09:16:42.677Z</time></trkpt><trkpt lat="37.8730969" lon="12.8248184"><ele>430.0</ele><time>2026-04-28T09:16:43.678Z</time></trkpt><trkpt lat="37.8732092" lon="12.824711"><ele>430.0</ele><time>2026-04-28T09:16:44.677Z</time></trkpt><trkpt lat="37.8733082" lon="12.8246127"><ele>430.0</ele><time>2026-04-28T09:16:45.679Z</time></trkpt><trkpt lat="37.8733906" lon="12.8245357"><ele>430.0</ele><time>2026-04-28T09:16:46.678Z</time></trkpt><trkpt lat="37.8734569" lon="12.8244786"><ele>430.0</ele><time>2026-04-28T09:16:47.677Z</time></trkpt><trkpt lat="37.8735112" lon="12.824395"><ele>431.6</ele><time>2026-04-28T09:16:49.678Z</time></trkpt><trkpt lat="37.8734906" lon="12.8243115"><ele>433.2</ele><time>2026-04-28T09:16:52.677Z</time></trkpt><trkpt lat="37.8734055" lon="12.8242166"><ele>434.79999999999995</ele><time>2026-04-28T09:16:54.677Z</time></trkpt><trkpt lat="37.8733336" lon="12.8241754"><ele>436.4</ele><time>2026-04-28T09:16:55.679Z</time></trkpt><trkpt lat="37.8732398" lon="12.8241285"><ele>438.0</ele><time>2026-04-28T09:16:56.679Z</time></trkpt><trkpt lat="37.873139" lon="12.8240633"><ele>438.0</ele><time>2026-04-28T09:16:57.679Z</time></trkpt><trkpt lat="37.8730268" lon="12.8239847"><ele>438.0</ele><time>2026-04-28T09:16:58.678Z</time></trkpt><trkpt lat="37.8729095" lon="12.8238871"><ele>438.0</ele><time>2026-04-28T09:16:59.679Z</time></trkpt><trkpt lat="37.872783" lon="12.8237748"><ele>438.0</ele><time>2026-04-28T09:17:00.679Z</time></trkpt><trkpt lat="37.8726615" lon="12.8236433"><ele>438.66666666666663</ele><time>2026-04-28T09:17:01.678Z</time></trkpt><trkpt lat="37.8725464" lon="12.8234906"><ele>439.3333333333333</ele><time>2026-04-28T09:17:02.677Z</time></trkpt><trkpt lat="37.8724338" lon="12.8233174"><ele>440.0</ele><time>2026-04-28T09:17:03.677Z</time></trkpt><trkpt lat="37.8723249" lon="12.8231401"><ele>440.66666666666663</ele><time>2026-04-28T09:17:04.677Z</time></trkpt><trkpt lat="37.8722252" lon="12.8229354"><ele>441.33333333333337</ele><time>2026-04-28T09:17:05.678Z</time></trkpt><trkpt lat="37.8721226" lon="12.8227343"><ele>442.0</ele><time>2026-04-28T09:17:06.679Z</time></trkpt><trkpt lat="37.8720287" lon="12.8225222"><ele>442.33333333333337</ele><time>2026-04-28T09:17:07.677Z</time></trkpt><trkpt lat="37.8719313" lon="12.8223065"><ele>442.66666666666663</ele><time>2026-04-28T09:17:08.677Z</time></trkpt><trkpt lat="37.871829" lon="12.822094"><ele>443.0</ele><time>2026-04-28T09:17:09.678Z</time></trkpt><trkpt lat="37.8717169" lon="12.821851"><ele>440.66666666666663</ele><time>2026-04-28T09:17:10.678Z</time></trkpt><trkpt lat="37.871605" lon="12.8216339"><ele>438.33333333333337</ele><time>2026-04-28T09:17:11.677Z</time></trkpt><trkpt lat="37.871497" lon="12.8214168"><ele>436.0</ele><time>2026-04-28T09:17:12.678Z</time></trkpt><trkpt lat="37.8713899" lon="12.8211882"><ele>435.0</ele><time>2026-04-28T09:17:13.678Z</time></trkpt><trkpt lat="37.8712926" lon="12.8209495"><ele>434.0</ele><time>2026-04-28T09:17:14.679Z</time></trkpt><trkpt lat="37.8711808" lon="12.8207189"><ele>433.0</ele><time>2026-04-28T09:17:15.678Z</time></trkpt><trkpt lat="37.8710803" lon="12.8204836"><ele>433.0</ele><time>2026-04-28T09:17:16.677Z</time></trkpt><trkpt lat="37.8709717" lon="12.8202556"><ele>433.0</ele><time>2026-04-28T09:17:17.679Z</time></trkpt><trkpt lat="37.8708656" lon="12.8200331"><ele>433.0</ele><time>2026-04-28T09:17:18.677Z</time></trkpt><trkpt lat="37.8707603" lon="12.8198219"><ele>431.6666666666667</ele><time>2026-04-28T09:17:19.677Z</time></trkpt><trkpt lat="37.870655" lon="12.8195874"><ele>430.33333333333337</ele><time>2026-04-28T09:17:20.677Z</time></trkpt><trkpt lat="37.8705279" lon="12.819365"><ele>429.0</ele><time>2026-04-28T09:17:21.679Z</time></trkpt><trkpt lat="37.8704079" lon="12.8191509"><ele>428.33333333333337</ele><time>2026-04-28T09:17:22.677Z</time></trkpt><trkpt lat="37.8702762" lon="12.8189391"><ele>427.6666666666667</ele><time>2026-04-28T09:17:23.677Z</time></trkpt><trkpt lat="37.8701344" lon="12.8187224"><ele>427.0</ele><time>2026-04-28T09:17:24.678Z</time></trkpt><trkpt lat="37.8699864" lon="12.818514"><ele>431.33333333333337</ele><time>2026-04-28T09:17:25.677Z</time></trkpt><trkpt lat="37.8698305" lon="12.81832"><ele>435.66666666666663</ele><time>2026-04-28T09:17:26.678Z</time></trkpt><trkpt lat="37.8696773" lon="12.8181269"><ele>440.0</ele><time>2026-04-28T09:17:27.677Z</time></trkpt><trkpt lat="37.8695268" lon="12.8179456"><ele>440.0</ele><time>2026-04-28T09:17:28.678Z</time></trkpt><trkpt lat="37.8693836" lon="12.8177697"><ele>440.0</ele><time>2026-04-28T09:17:29.679Z</time></trkpt><trkpt lat="37.8692489" lon="12.8175996"><ele>440.0</ele><time>2026-04-28T09:17:30.677Z</time></trkpt><trkpt lat="37.8691193" lon="12.81745"><ele>437.0</ele><time>2026-04-28T09:17:31.678Z</time></trkpt><trkpt lat="37.8689741" lon="12.8173002"><ele>434.0</ele><time>2026-04-28T09:17:32.679Z</time></trkpt><trkpt lat="37.8688125" lon="12.8171964"><ele>431.0</ele><time>2026-04-28T09:17:33.677Z</time></trkpt><trkpt lat="37.8686303" lon="12.8171275"><ele>426.3333333333333</ele><time>2026-04-28T09:17:34.679Z</time></trkpt><trkpt lat="37.8684375" lon="12.8171032"><ele>421.66666666666663</ele><time>2026-04-28T09:17:35.677Z</time></trkpt><trkpt lat="37.8682387" lon="12.817115"><ele>417.0</ele><time>2026-04-28T09:17:36.678Z</time></trkpt><trkpt lat="37.8680399" lon="12.8171568"><ele>417.0</ele><time>2026-04-28T09:17:37.677Z</time></trkpt><trkpt lat="37.8678535" lon="12.8172441"><ele>417.0</ele><time>2026-04-28T09:17:38.679Z</time></trkpt><trkpt lat="37.8676767" lon="12.8173635"><ele>417.0</ele><time>2026-04-28T09:17:39.678Z</time></trkpt><trkpt lat="37.8675119" lon="12.8175162"><ele>415.0</ele><time>2026-04-28T09:17:40.677Z</time></trkpt><trkpt lat="37.8673533" lon="12.8176818"><ele>413.0</ele><time>2026-04-28T09:17:41.677Z</time></trkpt><trkpt lat="37.8671948" lon="12.8178574"><ele>411.0</ele><time>2026-04-28T09:17:42.678Z</time></trkpt><trkpt lat="37.8670393" lon="12.8180095"><ele>411.0</ele><time>2026-04-28T09:17:43.678Z</time></trkpt><trkpt lat="37.8668853" lon="12.8181329"><ele>411.0</ele><time>2026-04-28T09:17:44.678Z</time></trkpt><trkpt lat="37.8667203" lon="12.818214"><ele>411.0</ele><time>2026-04-28T09:17:45.678Z</time></trkpt><trkpt lat="37.8665392" lon="12.8182464"><ele>414.33333333333337</ele><time>2026-04-28T09:17:46.677Z</time></trkpt><trkpt lat="37.8663498" lon="12.8182459"><ele>417.6666666666667</ele><time>2026-04-28T09:17:47.678Z</time></trkpt><trkpt lat="37.8661412" lon="12.8182393"><ele>421.0</ele><time>2026-04-28T09:17:48.679Z</time></trkpt><trkpt lat="37.8659263" lon="12.8182251"><ele>421.33333333333337</ele><time>2026-04-28T09:17:49.679Z</time></trkpt><trkpt lat="37.8657144" lon="12.8182128"><ele>421.66666666666663</ele><time>2026-04-28T09:17:50.677Z</time></trkpt><trkpt lat="37.8654926" lon="12.8182001"><ele>422.0</ele><time>2026-04-28T09:17:51.678Z</time></trkpt><trkpt lat="37.8652682" lon="12.8181867"><ele>421.66666666666663</ele><time>2026-04-28T09:17:52.679Z</time></trkpt><trkpt lat="37.8650561" lon="12.8181715"><ele>421.33333333333337</ele><time>2026-04-28T09:17:53.677Z</time></trkpt><trkpt lat="37.8648509" lon="12.8181478"><ele>421.0</ele><time>2026-04-28T09:17:54.678Z</time></trkpt><trkpt lat="37.8646561" lon="12.8180864"><ele>421.0</ele><time>2026-04-28T09:17:55.677Z</time></trkpt><trkpt lat="37.8644629" lon="12.8179834"><ele>421.0</ele><time>2026-04-28T09:17:56.677Z</time></trkpt><trkpt lat="37.8642769" lon="12.8178628"><ele>421.0</ele><time>2026-04-28T09:17:57.68Z</time></trkpt><trkpt lat="37.8641011" lon="12.8177213"><ele>422.0</ele><time>2026-04-28T09:17:58.677Z</time></trkpt><trkpt lat="37.8639264" lon="12.8175643"><ele>423.0</ele><time>2026-04-28T09:17:59.678Z</time></trkpt><trkpt lat="37.8637581" lon="12.8174012"><ele>424.0</ele><time>2026-04-28T09:18:00.678Z</time></trkpt><trkpt lat="37.8635879" lon="12.8172423"><ele>424.33333333333337</ele><time>2026-04-28T09:18:01.678Z</time></trkpt><trkpt lat="37.8634168" lon="12.8170848"><ele>424.66666666666663</ele><time>2026-04-28T09:18:02.678Z</time></trkpt><trkpt lat="37.8632498" lon="12.8169231"><ele>425.0</ele><time>2026-04-28T09:18:03.678Z</time></trkpt><trkpt lat="37.8630767" lon="12.8167588"><ele>425.0</ele><time>2026-04-28T09:18:04.678Z</time></trkpt><trkpt lat="37.8629138" lon="12.8165932"><ele>425.0</ele><time>2026-04-28T09:18:05.678Z</time></trkpt><trkpt lat="37.8627527" lon="12.8164211"><ele>425.0</ele><time>2026-04-28T09:18:06.677Z</time></trkpt><trkpt lat="37.8625972" lon="12.8162498"><ele>426.0</ele><time>2026-04-28T09:18:07.679Z</time></trkpt><trkpt lat="37.8624395" lon="12.8160755"><ele>427.0</ele><time>2026-04-28T09:18:08.678Z</time></trkpt><trkpt lat="37.8622804" lon="12.8159022"><ele>428.0</ele><time>2026-04-28T09:18:09.679Z</time></trkpt><trkpt lat="37.8621222" lon="12.8157334"><ele>428.0</ele><time>2026-04-28T09:18:10.679Z</time></trkpt><trkpt lat="37.8619642" lon="12.8155714"><ele>428.0</ele><time>2026-04-28T09:18:11.677Z</time></trkpt><trkpt lat="37.8618135" lon="12.8154244"><ele>428.0</ele><time>2026-04-28T09:18:12.677Z</time></trkpt><trkpt lat="37.8616594" lon="12.8152873"><ele>426.66666666666663</ele><time>2026-04-28T09:18:13.678Z</time></trkpt><trkpt lat="37.8614857" lon="12.8151924"><ele>425.33333333333337</ele><time>2026-04-28T09:18:14.677Z</time></trkpt><trkpt lat="37.8613008" lon="12.8151391"><ele>424.0</ele><time>2026-04-28T09:18:15.679Z</time></trkpt><trkpt lat="37.8611001" lon="12.8151243"><ele>419.0</ele><time>2026-04-28T09:18:16.678Z</time></trkpt><trkpt lat="37.8608866" lon="12.8151728"><ele>414.0</ele><time>2026-04-28T09:18:17.678Z</time></trkpt><trkpt lat="37.8606518" lon="12.8152599"><ele>414.0</ele><time>2026-04-28T09:18:18.679Z</time></trkpt><trkpt lat="37.8604167" lon="12.8153482"><ele>414.0</ele><time>2026-04-28T09:18:19.678Z</time></trkpt><trkpt lat="37.860188" lon="12.8154236"><ele>415.66666666666663</ele><time>2026-04-28T09:18:20.679Z</time></trkpt><trkpt lat="37.8599755" lon="12.8154933"><ele>417.3333333333333</ele><time>2026-04-28T09:18:21.677Z</time></trkpt><trkpt lat="37.8597747" lon="12.8155427"><ele>419.0</ele><time>2026-04-28T09:18:22.679Z</time></trkpt><trkpt lat="37.8595738" lon="12.8155497"><ele>419.0</ele><time>2026-04-28T09:18:23.677Z</time></trkpt><trkpt lat="37.8593795" lon="12.8155159"><ele>419.0</ele><time>2026-04-28T09:18:24.678Z</time></trkpt><trkpt lat="37.8591993" lon="12.815442"><ele>419.0</ele><time>2026-04-28T09:18:25.678Z</time></trkpt><trkpt lat="37.859027" lon="12.8153273"><ele>420.0</ele><time>2026-04-28T09:18:26.677Z</time></trkpt><trkpt lat="37.8588741" lon="12.815169"><ele>421.0</ele><time>2026-04-28T09:18:27.678Z</time></trkpt><trkpt lat="37.8586495" lon="12.8147728"><ele>423.0</ele><time>2026-04-28T09:18:29.679Z</time></trkpt><trkpt lat="37.8585842" lon="12.8145397"><ele>425.0</ele><time>2026-04-28T09:18:30.678Z</time></trkpt><trkpt lat="37.8585527" lon="12.8142937"><ele>427.0</ele><time>2026-04-28T09:18:31.678Z</time></trkpt><trkpt lat="37.8585432" lon="12.8140362"><ele>428.0</ele><time>2026-04-28T09:18:32.679Z</time></trkpt><trkpt lat="37.8585781" lon="12.8137825"><ele>429.0</ele><time>2026-04-28T09:18:33.679Z</time></trkpt><trkpt lat="37.8586252" lon="12.8135233"><ele>430.0</ele><time>2026-04-28T09:18:34.678Z</time></trkpt><trkpt lat="37.8586727" lon="12.8132705"><ele>430.0</ele><time>2026-04-28T09:18:35.677Z</time></trkpt><trkpt lat="37.8587225" lon="12.8130256"><ele>430.0</ele><time>2026-04-28T09:18:36.678Z</time></trkpt><trkpt lat="37.8587685" lon="12.8127802"><ele>430.0</ele><time>2026-04-28T09:18:37.677Z</time></trkpt><trkpt lat="37.8588183" lon="12.8125314"><ele>427.6666666666667</ele><time>2026-04-28T09:18:38.678Z</time></trkpt><trkpt lat="37.8588655" lon="12.8122784"><ele>425.33333333333337</ele><time>2026-04-28T09:18:39.677Z</time></trkpt><trkpt lat="37.8589202" lon="12.8120238"><ele>423.0</ele><time>2026-04-28T09:18:40.678Z</time></trkpt><trkpt lat="37.85897" lon="12.8117685"><ele>422.33333333333337</ele><time>2026-04-28T09:18:41.677Z</time></trkpt><trkpt lat="37.8590171" lon="12.8115231"><ele>421.6666666666667</ele><time>2026-04-28T09:18:42.678Z</time></trkpt><trkpt lat="37.8590541" lon="12.8112892"><ele>421.0</ele><time>2026-04-28T09:18:43.677Z</time></trkpt><trkpt lat="37.8590773" lon="12.8110619"><ele>420.33333333333337</ele><time>2026-04-28T09:18:44.678Z</time></trkpt><trkpt lat="37.8590853" lon="12.8108193"><ele>419.66666666666663</ele><time>2026-04-28T09:18:45.678Z</time></trkpt><trkpt lat="37.8590651" lon="12.8105781"><ele>419.0</ele><time>2026-04-28T09:18:46.678Z</time></trkpt><trkpt lat="37.8590258" lon="12.810337"><ele>418.0</ele><time>2026-04-28T09:18:47.677Z</time></trkpt><trkpt lat="37.8589674" lon="12.8101046"><ele>417.0</ele><time>2026-04-28T09:18:48.678Z</time></trkpt><trkpt lat="37.8588979" lon="12.8098793"><ele>416.0</ele><time>2026-04-28T09:18:49.678Z</time></trkpt><trkpt lat="37.8588052" lon="12.8096605"><ele>416.0</ele><time>2026-04-28T09:18:50.678Z</time></trkpt><trkpt lat="37.8586964" lon="12.8094511"><ele>416.0</ele><time>2026-04-28T09:18:51.678Z</time></trkpt><trkpt lat="37.8585681" lon="12.8092604"><ele>416.0</ele><time>2026-04-28T09:18:52.678Z</time></trkpt><trkpt lat="37.8584255" lon="12.8090905"><ele>415.0</ele><time>2026-04-28T09:18:53.678Z</time></trkpt><trkpt lat="37.8582693" lon="12.8089377"><ele>414.0</ele><time>2026-04-28T09:18:54.677Z</time></trkpt><trkpt lat="37.8580994" lon="12.8088079"><ele>413.0</ele><time>2026-04-28T09:18:55.678Z</time></trkpt><trkpt lat="37.8579163" lon="12.8087022"><ele>413.0</ele><time>2026-04-28T09:18:56.679Z</time></trkpt><trkpt lat="37.8577226" lon="12.8086191"><ele>413.0</ele><time>2026-04-28T09:18:57.677Z</time></trkpt><trkpt lat="37.8575327" lon="12.8085502"><ele>413.0</ele><time>2026-04-28T09:18:58.677Z</time></trkpt><trkpt lat="37.8573495" lon="12.8084763"><ele>408.0</ele><time>2026-04-28T09:18:59.679Z</time></trkpt><trkpt lat="37.8571743" lon="12.8083823"><ele>403.0</ele><time>2026-04-28T09:19:00.678Z</time></trkpt><trkpt lat="37.8568759" lon="12.8081626"><ele>403.5</ele><time>2026-04-28T09:19:02.677Z</time></trkpt><trkpt lat="37.8567487" lon="12.8080824"><ele>404.0</ele><time>2026-04-28T09:19:03.678Z</time></trkpt><trkpt lat="37.8566074" lon="12.8080321"><ele>404.5</ele><time>2026-04-28T09:19:04.678Z</time></trkpt><trkpt lat="37.8564714" lon="12.8080069"><ele>405.0</ele><time>2026-04-28T09:19:05.678Z</time></trkpt><trkpt lat="37.8563268" lon="12.8080169"><ele>405.0</ele><time>2026-04-28T09:19:06.678Z</time></trkpt><trkpt lat="37.8561842" lon="12.8080016"><ele>405.0</ele><time>2026-04-28T09:19:07.678Z</time></trkpt><trkpt lat="37.8560461" lon="12.8079549"><ele>405.0</ele><time>2026-04-28T09:19:08.679Z</time></trkpt><trkpt lat="37.8558983" lon="12.8078632"><ele>406.66666666666663</ele><time>2026-04-28T09:19:09.677Z</time></trkpt><trkpt lat="37.855737" lon="12.8077579"><ele>408.3333333333333</ele><time>2026-04-28T09:19:10.679Z</time></trkpt><trkpt lat="37.85559" lon="12.8076417"><ele>410.0</ele><time>2026-04-28T09:19:11.677Z</time></trkpt><trkpt lat="37.8554524" lon="12.8075272"><ele>407.5</ele><time>2026-04-28T09:19:12.679Z</time></trkpt><trkpt lat="37.8553243" lon="12.8074344"><ele>405.0</ele><time>2026-04-28T09:19:13.677Z</time></trkpt><trkpt lat="37.8551839" lon="12.8073835"><ele>402.5</ele><time>2026-04-28T09:19:14.677Z</time></trkpt><trkpt lat="37.8550317" lon="12.8073483"><ele>400.0</ele><time>2026-04-28T09:19:15.677Z</time></trkpt><trkpt lat="37.8548689" lon="12.807324"><ele>400.0</ele><time>2026-04-28T09:19:16.677Z</time></trkpt><trkpt lat="37.8547022" lon="12.807282"><ele>400.0</ele><time>2026-04-28T09:19:17.677Z</time></trkpt><trkpt lat="37.8543556" lon="12.8071789"><ele>400.33333333333337</ele><time>2026-04-28T09:19:19.678Z</time></trkpt><trkpt lat="37.8541789" lon="12.8071316"><ele>400.66666666666663</ele><time>2026-04-28T09:19:20.678Z</time></trkpt><trkpt lat="37.8540029" lon="12.8070721"><ele>401.0</ele><time>2026-04-28T09:19:21.677Z</time></trkpt><trkpt lat="37.8538199" lon="12.8070061"><ele>401.0</ele><time>2026-04-28T09:19:22.677Z</time></trkpt><trkpt lat="37.8536387" lon="12.8069262"><ele>401.0</ele><time>2026-04-28T09:19:23.677Z</time></trkpt><trkpt lat="37.8534576" lon="12.806834"><ele>401.0</ele><time>2026-04-28T09:19:24.677Z</time></trkpt><trkpt lat="37.8532799" lon="12.8067335"><ele>398.0</ele><time>2026-04-28T09:19:25.678Z</time></trkpt><trkpt lat="37.8531024" lon="12.8066341"><ele>395.0</ele><time>2026-04-28T09:19:26.677Z</time></trkpt><trkpt lat="37.8529198" lon="12.8065309"><ele>392.0</ele><time>2026-04-28T09:19:27.678Z</time></trkpt><trkpt lat="37.8527688" lon="12.8064363"><ele>392.0</ele><time>2026-04-28T09:19:28.677Z</time></trkpt><trkpt lat="37.8526268" lon="12.8063173"><ele>392.0</ele><time>2026-04-28T09:19:29.678Z</time></trkpt><trkpt lat="37.8524979" lon="12.8061705"><ele>392.0</ele><time>2026-04-28T09:19:30.678Z</time></trkpt><trkpt lat="37.852371" lon="12.8060232"><ele>390.66666666666663</ele><time>2026-04-28T09:19:31.68Z</time></trkpt><trkpt lat="37.8522448" lon="12.8058656"><ele>389.33333333333337</ele><time>2026-04-28T09:19:32.677Z</time></trkpt><trkpt lat="37.8521211" lon="12.8057076"><ele>388.0</ele><time>2026-04-28T09:19:33.678Z</time></trkpt><trkpt lat="37.852003" lon="12.8055484"><ele>388.0</ele><time>2026-04-28T09:19:34.677Z</time></trkpt><trkpt lat="37.8519015" lon="12.8054106"><ele>388.0</ele><time>2026-04-28T09:19:35.677Z</time></trkpt><trkpt lat="37.8517982" lon="12.8053079"><ele>388.0</ele><time>2026-04-28T09:19:36.678Z</time></trkpt><trkpt lat="37.8516805" lon="12.8052314"><ele>388.0</ele><time>2026-04-28T09:19:37.679Z</time></trkpt><trkpt lat="37.8515385" lon="12.805163"><ele>385.33333333333337</ele><time>2026-04-28T09:19:38.677Z</time></trkpt><trkpt lat="37.8513838" lon="12.8051292"><ele>382.6666666666667</ele><time>2026-04-28T09:19:39.678Z</time></trkpt><trkpt lat="37.8512175" lon="12.8051039"><ele>380.0</ele><time>2026-04-28T09:19:40.677Z</time></trkpt><trkpt lat="37.851038" lon="12.8050982"><ele>379.6666666666667</ele><time>2026-04-28T09:19:41.677Z</time></trkpt><trkpt lat="37.8508782" lon="12.8051104"><ele>379.3333333333333</ele><time>2026-04-28T09:19:42.677Z</time></trkpt><trkpt lat="37.8507177" lon="12.8051358"><ele>379.0</ele><time>2026-04-28T09:19:43.679Z</time></trkpt><trkpt lat="37.8505634" lon="12.805161"><ele>381.0</ele><time>2026-04-28T09:19:44.678Z</time></trkpt><trkpt lat="37.8504416" lon="12.8051821"><ele>383.0</ele><time>2026-04-28T09:19:45.678Z</time></trkpt><trkpt lat="37.8503025" lon="12.8052192"><ele>385.0</ele><time>2026-04-28T09:19:46.679Z</time></trkpt><trkpt lat="37.8501535" lon="12.8052604"><ele>387.0</ele><time>2026-04-28T09:19:47.678Z</time></trkpt><trkpt lat="37.8498518" lon="12.805362"><ele>387.0</ele><time>2026-04-28T09:19:49.679Z</time></trkpt><trkpt lat="37.8497096" lon="12.8053892"><ele>387.0</ele><time>2026-04-28T09:19:50.679Z</time></trkpt><trkpt lat="37.8495584" lon="12.8054"><ele>387.0</ele><time>2026-04-28T09:19:51.679Z</time></trkpt><trkpt lat="37.8494028" lon="12.8054047"><ele>384.3333333333333</ele><time>2026-04-28T09:19:52.677Z</time></trkpt><trkpt lat="37.8492557" lon="12.8053931"><ele>381.66666666666663</ele><time>2026-04-28T09:19:53.678Z</time></trkpt><trkpt lat="37.8491011" lon="12.8053869"><ele>379.0</ele><time>2026-04-28T09:19:54.678Z</time></trkpt><trkpt lat="37.8489476" lon="12.8053802"><ele>379.0</ele><time>2026-04-28T09:19:55.677Z</time></trkpt><trkpt lat="37.8487975" lon="12.8053774"><ele>379.0</ele><time>2026-04-28T09:19:56.678Z</time></trkpt><trkpt lat="37.8486496" lon="12.8053707"><ele>379.0</ele><time>2026-04-28T09:19:57.678Z</time></trkpt><trkpt lat="37.8485058" lon="12.8053628"><ele>379.0</ele><time>2026-04-28T09:19:58.678Z</time></trkpt><trkpt lat="37.8483648" lon="12.8053448"><ele>377.25</ele><time>2026-04-28T09:19:59.677Z</time></trkpt><trkpt lat="37.8482188" lon="12.8053378"><ele>375.5</ele><time>2026-04-28T09:20:00.678Z</time></trkpt><trkpt lat="37.8480697" lon="12.8053395"><ele>373.75</ele><time>2026-04-28T09:20:01.678Z</time></trkpt><trkpt lat="37.8479294" lon="12.8053339"><ele>372.0</ele><time>2026-04-28T09:20:02.679Z</time></trkpt><trkpt lat="37.8477963" lon="12.8053159"><ele>372.0</ele><time>2026-04-28T09:20:03.678Z</time></trkpt><trkpt lat="37.8476659" lon="12.8052726"><ele>372.0</ele><time>2026-04-28T09:20:04.678Z</time></trkpt><trkpt lat="37.8475437" lon="12.8052039"><ele>372.0</ele><time>2026-04-28T09:20:05.677Z</time></trkpt><trkpt lat="37.8474224" lon="12.8051255"><ele>372.0</ele><time>2026-04-28T09:20:06.678Z</time></trkpt><trkpt lat="37.8472912" lon="12.8050277"><ele>368.3333333333333</ele><time>2026-04-28T09:20:07.677Z</time></trkpt><trkpt lat="37.8471588" lon="12.8049305"><ele>364.66666666666663</ele><time>2026-04-28T09:20:08.677Z</time></trkpt><trkpt lat="37.8470235" lon="12.8048227"><ele>361.0</ele><time>2026-04-28T09:20:09.678Z</time></trkpt><trkpt lat="37.8468783" lon="12.8047135"><ele>360.3333333333333</ele><time>2026-04-28T09:20:10.677Z</time></trkpt><trkpt lat="37.8467342" lon="12.8046007"><ele>359.6666666666667</ele><time>2026-04-28T09:20:11.678Z</time></trkpt><trkpt lat="37.8465837" lon="12.8044872"><ele>359.0</ele><time>2026-04-28T09:20:12.677Z</time></trkpt><trkpt lat="37.846445" lon="12.8043799"><ele>359.6666666666667</ele><time>2026-04-28T09:20:13.678Z</time></trkpt><trkpt lat="37.8462932" lon="12.8042907"><ele>360.3333333333333</ele><time>2026-04-28T09:20:14.677Z</time></trkpt><trkpt lat="37.8461321" lon="12.8042113"><ele>361.0</ele><time>2026-04-28T09:20:15.679Z</time></trkpt><trkpt lat="37.8459717" lon="12.8041396"><ele>360.0</ele><time>2026-04-28T09:20:16.679Z</time></trkpt><trkpt lat="37.8458134" lon="12.8040832"><ele>359.0</ele><time>2026-04-28T09:20:17.678Z</time></trkpt><trkpt lat="37.8456549" lon="12.8040254"><ele>358.0</ele><time>2026-04-28T09:20:18.68Z</time></trkpt><trkpt lat="37.8454938" lon="12.8039729"><ele>358.0</ele><time>2026-04-28T09:20:19.677Z</time></trkpt><trkpt lat="37.8453376" lon="12.8039215"><ele>358.0</ele><time>2026-04-28T09:20:20.679Z</time></trkpt><trkpt lat="37.8451851" lon="12.803871"><ele>358.0</ele><time>2026-04-28T09:20:21.679Z</time></trkpt><trkpt lat="37.8450382" lon="12.8038275"><ele>356.75</ele><time>2026-04-28T09:20:22.677Z</time></trkpt><trkpt lat="37.8448988" lon="12.8038045"><ele>355.5</ele><time>2026-04-28T09:20:23.678Z</time></trkpt><trkpt lat="37.8447531" lon="12.8037856"><ele>354.25</ele><time>2026-04-28T09:20:24.678Z</time></trkpt><trkpt lat="37.8446194" lon="12.8037992"><ele>353.0</ele><time>2026-04-28T09:20:25.678Z</time></trkpt><trkpt lat="37.8444957" lon="12.8037999"><ele>353.0</ele><time>2026-04-28T09:20:26.679Z</time></trkpt><trkpt lat="37.8443657" lon="12.8038134"><ele>353.0</ele><time>2026-04-28T09:20:27.678Z</time></trkpt><trkpt lat="37.8442431" lon="12.8038258"><ele>353.0</ele><time>2026-04-28T09:20:28.677Z</time></trkpt><trkpt lat="37.8441258" lon="12.8038336"><ele>353.0</ele><time>2026-04-28T09:20:29.678Z</time></trkpt><trkpt lat="37.8440139" lon="12.8038241"><ele>352.5</ele><time>2026-04-28T09:20:30.678Z</time></trkpt><trkpt lat="37.8439" lon="12.8037794"><ele>352.0</ele><time>2026-04-28T09:20:31.678Z</time></trkpt><trkpt lat="37.8437905" lon="12.8037223"><ele>351.5</ele><time>2026-04-28T09:20:32.678Z</time></trkpt><trkpt lat="37.8436832" lon="12.8036459"><ele>351.0</ele><time>2026-04-28T09:20:33.677Z</time></trkpt><trkpt lat="37.8435739" lon="12.8035624"><ele>353.0</ele><time>2026-04-28T09:20:34.678Z</time></trkpt><trkpt lat="37.8434644" lon="12.8034791"><ele>355.0</ele><time>2026-04-28T09:20:35.677Z</time></trkpt><trkpt lat="37.8433498" lon="12.8034092"><ele>357.0</ele><time>2026-04-28T09:20:36.679Z</time></trkpt><trkpt lat="37.8432198" lon="12.8033625"><ele>359.0</ele><time>2026-04-28T09:20:37.678Z</time></trkpt><trkpt lat="37.8430865" lon="12.8033364"><ele>359.0</ele><time>2026-04-28T09:20:38.678Z</time></trkpt><trkpt lat="37.842939" lon="12.8033109"><ele>359.0</ele><time>2026-04-28T09:20:39.678Z</time></trkpt><trkpt lat="37.8427615" lon="12.8032961"><ele>359.0</ele><time>2026-04-28T09:20:40.679Z</time></trkpt><trkpt lat="37.8425692" lon="12.8032727"><ele>357.33333333333337</ele><time>2026-04-28T09:20:41.677Z</time></trkpt><trkpt lat="37.8423803" lon="12.8032533"><ele>355.6666666666667</ele><time>2026-04-28T09:20:42.677Z</time></trkpt><trkpt lat="37.842194" lon="12.8032256"><ele>354.0</ele><time>2026-04-28T09:20:43.679Z</time></trkpt><trkpt lat="37.8420175" lon="12.8032128"><ele>354.0</ele><time>2026-04-28T09:20:44.678Z</time></trkpt><trkpt lat="37.8418513" lon="12.8032215"><ele>354.0</ele><time>2026-04-28T09:20:45.678Z</time></trkpt><trkpt lat="37.8417002" lon="12.803231"><ele>354.0</ele><time>2026-04-28T09:20:46.679Z</time></trkpt><trkpt lat="37.8415597" lon="12.8032478"><ele>354.0</ele><time>2026-04-28T09:20:47.678Z</time></trkpt><trkpt lat="37.8414306" lon="12.8032485"><ele>354.0</ele><time>2026-04-28T09:20:48.679Z</time></trkpt><trkpt lat="37.8413133" lon="12.8032376"><ele>354.0</ele><time>2026-04-28T09:20:49.677Z</time></trkpt><trkpt lat="37.8411967" lon="12.8032046"><ele>354.0</ele><time>2026-04-28T09:20:50.677Z</time></trkpt><trkpt lat="37.8410768" lon="12.8031574"><ele>353.25</ele><time>2026-04-28T09:20:51.678Z</time></trkpt><trkpt lat="37.8409517" lon="12.8031163"><ele>352.5</ele><time>2026-04-28T09:20:52.678Z</time></trkpt><trkpt lat="37.8408238" lon="12.8030924"><ele>351.75</ele><time>2026-04-28T09:20:53.678Z</time></trkpt><trkpt lat="37.8406795" lon="12.803083"><ele>351.0</ele><time>2026-04-28T09:20:54.678Z</time></trkpt><trkpt lat="37.8405202" lon="12.803077"><ele>351.0</ele><time>2026-04-28T09:20:55.678Z</time></trkpt><trkpt lat="37.8403312" lon="12.8030939"><ele>351.0</ele><time>2026-04-28T09:20:56.677Z</time></trkpt><trkpt lat="37.8401325" lon="12.8031209"><ele>351.0</ele><time>2026-04-28T09:20:57.677Z</time></trkpt><trkpt lat="37.8399346" lon="12.8031533"><ele>350.3333333333333</ele><time>2026-04-28T09:20:58.678Z</time></trkpt><trkpt lat="37.8397398" lon="12.8031817"><ele>349.66666666666663</ele><time>2026-04-28T09:20:59.678Z</time></trkpt><trkpt lat="37.8395522" lon="12.8031815"><ele>349.0</ele><time>2026-04-28T09:21:00.677Z</time></trkpt><trkpt lat="37.8393737" lon="12.80318"><ele>348.3333333333333</ele><time>2026-04-28T09:21:01.677Z</time></trkpt><trkpt lat="37.8392024" lon="12.8031747"><ele>347.6666666666667</ele><time>2026-04-28T09:21:02.678Z</time></trkpt><trkpt lat="37.8390475" lon="12.8032045"><ele>347.0</ele><time>2026-04-28T09:21:03.678Z</time></trkpt><trkpt lat="37.8388981" lon="12.8032625"><ele>347.0</ele><time>2026-04-28T09:21:04.677Z</time></trkpt><trkpt lat="37.838755" lon="12.8033663"><ele>347.0</ele><time>2026-04-28T09:21:05.677Z</time></trkpt><trkpt lat="37.8386446" lon="12.8035058"><ele>347.0</ele><time>2026-04-28T09:21:06.679Z</time></trkpt><trkpt lat="37.8385403" lon="12.8036963"><ele>346.5</ele><time>2026-04-28T09:21:07.678Z</time></trkpt><trkpt lat="37.838439" lon="12.8038523"><ele>346.0</ele><time>2026-04-28T09:21:08.679Z</time></trkpt><trkpt lat="37.8383342" lon="12.80398"><ele>345.5</ele><time>2026-04-28T09:21:09.677Z</time></trkpt><trkpt lat="37.8382236" lon="12.8040919"><ele>345.0</ele><time>2026-04-28T09:21:10.678Z</time></trkpt><trkpt lat="37.8381085" lon="12.8041757"><ele>345.0</ele><time>2026-04-28T09:21:11.678Z</time></trkpt><trkpt lat="37.8379718" lon="12.8042205"><ele>345.0</ele><time>2026-04-28T09:21:12.677Z</time></trkpt><trkpt lat="37.8378365" lon="12.8042491"><ele>345.0</ele><time>2026-04-28T09:21:13.679Z</time></trkpt><trkpt lat="37.8376798" lon="12.8042338"><ele>345.0</ele><time>2026-04-28T09:21:14.678Z</time></trkpt><trkpt lat="37.8375089" lon="12.8041929"><ele>345.3333333333333</ele><time>2026-04-28T09:21:15.679Z</time></trkpt><trkpt lat="37.8373336" lon="12.8041685"><ele>345.66666666666663</ele><time>2026-04-28T09:21:16.679Z</time></trkpt><trkpt lat="37.8371449" lon="12.8041492"><ele>346.0</ele><time>2026-04-28T09:21:17.678Z</time></trkpt><trkpt lat="37.8369478" lon="12.8041629"><ele>343.66666666666663</ele><time>2026-04-28T09:21:18.678Z</time></trkpt><trkpt lat="37.8367487" lon="12.8041958"><ele>341.3333333333333</ele><time>2026-04-28T09:21:19.679Z</time></trkpt><trkpt lat="37.8365495" lon="12.8042546"><ele>339.0</ele><time>2026-04-28T09:21:20.678Z</time></trkpt><trkpt lat="37.8363376" lon="12.8043302"><ele>335.0</ele><time>2026-04-28T09:21:21.678Z</time></trkpt><trkpt lat="37.8361312" lon="12.8044032"><ele>331.0</ele><time>2026-04-28T09:21:22.679Z</time></trkpt><trkpt lat="37.8359125" lon="12.8044821"><ele>327.0</ele><time>2026-04-28T09:21:23.679Z</time></trkpt><trkpt lat="37.8357019" lon="12.804561"><ele>324.5</ele><time>2026-04-28T09:21:24.679Z</time></trkpt><trkpt lat="37.8354876" lon="12.8046434"><ele>322.0</ele><time>2026-04-28T09:21:25.677Z</time></trkpt><trkpt lat="37.8352547" lon="12.804699"><ele>321.3333333333333</ele><time>2026-04-28T09:21:26.679Z</time></trkpt><trkpt lat="37.8350422" lon="12.804752"><ele>320.6666666666667</ele><time>2026-04-28T09:21:27.677Z</time></trkpt><trkpt lat="37.8348175" lon="12.8047977"><ele>320.0</ele><time>2026-04-28T09:21:28.678Z</time></trkpt><trkpt lat="37.8346051" lon="12.8048365"><ele>320.0</ele><time>2026-04-28T09:21:29.678Z</time></trkpt><trkpt lat="37.8343952" lon="12.8048708"><ele>320.0</ele><time>2026-04-28T09:21:30.678Z</time></trkpt><trkpt lat="37.8341922" lon="12.8049025"><ele>320.0</ele><time>2026-04-28T09:21:31.68Z</time></trkpt><trkpt lat="37.8340002" lon="12.8049105"><ele>320.0</ele><time>2026-04-28T09:21:32.678Z</time></trkpt><trkpt lat="37.8338034" lon="12.8049347"><ele>320.0</ele><time>2026-04-28T09:21:33.677Z</time></trkpt><trkpt lat="37.8336114" lon="12.804958"><ele>320.0</ele><time>2026-04-28T09:21:34.678Z</time></trkpt><trkpt lat="37.8334206" lon="12.8049682"><ele>320.0</ele><time>2026-04-28T09:21:35.679Z</time></trkpt><trkpt lat="37.8332365" lon="12.804974"><ele>320.0</ele><time>2026-04-28T09:21:36.679Z</time></trkpt><trkpt lat="37.8330555" lon="12.8049885"><ele>320.0</ele><time>2026-04-28T09:21:37.678Z</time></trkpt><trkpt lat="37.8328764" lon="12.8049957"><ele>320.0</ele><time>2026-04-28T09:21:38.678Z</time></trkpt><trkpt lat="37.8326991" lon="12.8050019"><ele>320.0</ele><time>2026-04-28T09:21:39.677Z</time></trkpt><trkpt lat="37.8325247" lon="12.8050018"><ele>320.0</ele><time>2026-04-28T09:21:40.678Z</time></trkpt><trkpt lat="37.8323417" lon="12.8050069"><ele>320.0</ele><time>2026-04-28T09:21:41.677Z</time></trkpt><trkpt lat="37.8321566" lon="12.8050206"><ele>320.0</ele><time>2026-04-28T09:21:42.678Z</time></trkpt><trkpt lat="37.8319681" lon="12.8050303"><ele>320.0</ele><time>2026-04-28T09:21:43.679Z</time></trkpt><trkpt lat="37.8317823" lon="12.80503"><ele>320.0</ele><time>2026-04-28T09:21:44.677Z</time></trkpt><trkpt lat="37.8315938" lon="12.8050284"><ele>320.0</ele><time>2026-04-28T09:21:45.679Z</time></trkpt><trkpt lat="37.8314207" lon="12.8050226"><ele>320.0</ele><time>2026-04-28T09:21:46.678Z</time></trkpt><trkpt lat="37.8312472" lon="12.8049949"><ele>320.0</ele><time>2026-04-28T09:21:47.678Z</time></trkpt><trkpt lat="37.8310797" lon="12.8049583"><ele>320.0</ele><time>2026-04-28T09:21:48.678Z</time></trkpt><trkpt lat="37.8309159" lon="12.8049076"><ele>320.0</ele><time>2026-04-28T09:21:49.677Z</time></trkpt><trkpt lat="37.830754" lon="12.8048318"><ele>321.6666666666667</ele><time>2026-04-28T09:21:50.679Z</time></trkpt><trkpt lat="37.8305881" lon="12.8047438"><ele>323.3333333333333</ele><time>2026-04-28T09:21:51.678Z</time></trkpt><trkpt lat="37.8304191" lon="12.8046561"><ele>325.0</ele><time>2026-04-28T09:21:52.678Z</time></trkpt><trkpt lat="37.8302521" lon="12.8045635"><ele>327.0</ele><time>2026-04-28T09:21:53.677Z</time></trkpt><trkpt lat="37.8300891" lon="12.804481"><ele>329.0</ele><time>2026-04-28T09:21:54.679Z</time></trkpt><trkpt lat="37.8299156" lon="12.8044184"><ele>331.0</ele><time>2026-04-28T09:21:55.678Z</time></trkpt><trkpt lat="37.8297365" lon="12.8043753"><ele>331.0</ele><time>2026-04-28T09:21:56.679Z</time></trkpt><trkpt lat="37.8295596" lon="12.8043464"><ele>331.0</ele><time>2026-04-28T09:21:57.678Z</time></trkpt><trkpt lat="37.8293811" lon="12.8043192"><ele>331.0</ele><time>2026-04-28T09:21:58.679Z</time></trkpt><trkpt lat="37.8292059" lon="12.8043182"><ele>333.66666666666663</ele><time>2026-04-28T09:21:59.679Z</time></trkpt><trkpt lat="37.8290155" lon="12.8042828"><ele>336.3333333333333</ele><time>2026-04-28T09:22:00.679Z</time></trkpt><trkpt lat="37.828838" lon="12.8042701"><ele>339.0</ele><time>2026-04-28T09:22:01.678Z</time></trkpt><trkpt lat="37.8286577" lon="12.804264"><ele>337.3333333333333</ele><time>2026-04-28T09:22:02.679Z</time></trkpt><trkpt lat="37.8284706" lon="12.8042719"><ele>335.66666666666663</ele><time>2026-04-28T09:22:03.677Z</time></trkpt><trkpt lat="37.828285" lon="12.8042972"><ele>334.0</ele><time>2026-04-28T09:22:04.68Z</time></trkpt><trkpt lat="37.8281092" lon="12.8043265"><ele>334.0</ele><time>2026-04-28T09:22:05.678Z</time></trkpt><trkpt lat="37.8279285" lon="12.8043644"><ele>334.0</ele><time>2026-04-28T09:22:06.678Z</time></trkpt><trkpt lat="37.8277541" lon="12.8044027"><ele>334.0</ele><time>2026-04-28T09:22:07.678Z</time></trkpt><trkpt lat="37.8275734" lon="12.8044583"><ele>333.3333333333333</ele><time>2026-04-28T09:22:08.678Z</time></trkpt><trkpt lat="37.8273964" lon="12.804502"><ele>332.6666666666667</ele><time>2026-04-28T09:22:09.678Z</time></trkpt><trkpt lat="37.8272149" lon="12.8045476"><ele>332.0</ele><time>2026-04-28T09:22:10.678Z</time></trkpt><trkpt lat="37.8270335" lon="12.8045806"><ele>332.0</ele><time>2026-04-28T09:22:11.678Z</time></trkpt><trkpt lat="37.8268606" lon="12.8046271"><ele>332.0</ele><time>2026-04-28T09:22:12.679Z</time></trkpt><trkpt lat="37.8266893" lon="12.804672"><ele>332.0</ele><time>2026-04-28T09:22:13.677Z</time></trkpt><trkpt lat="37.8265242" lon="12.8047138"><ele>332.6666666666667</ele><time>2026-04-28T09:22:14.677Z</time></trkpt><trkpt lat="37.8263604" lon="12.8047529"><ele>333.3333333333333</ele><time>2026-04-28T09:22:15.678Z</time></trkpt><trkpt lat="37.8262093" lon="12.8047889"><ele>334.0</ele><time>2026-04-28T09:22:16.677Z</time></trkpt><trkpt lat="37.8260814" lon="12.8048209"><ele>334.4</ele><time>2026-04-28T09:22:17.677Z</time></trkpt><trkpt lat="37.8259729" lon="12.8048422"><ele>334.79999999999995</ele><time>2026-04-28T09:22:18.678Z</time></trkpt><trkpt lat="37.825879" lon="12.8048529"><ele>335.20000000000005</ele><time>2026-04-28T09:22:19.679Z</time></trkpt><trkpt lat="37.8257902" lon="12.8048503"><ele>335.6</ele><time>2026-04-28T09:22:20.678Z</time></trkpt><trkpt lat="37.825703" lon="12.8048239"><ele>336.0</ele><time>2026-04-28T09:22:21.678Z</time></trkpt><trkpt lat="37.8256172" lon="12.8047774"><ele>336.0</ele><time>2026-04-28T09:22:22.678Z</time></trkpt><trkpt lat="37.8255381" lon="12.8047259"><ele>336.0</ele><time>2026-04-28T09:22:23.679Z</time></trkpt><trkpt lat="37.8254629" lon="12.8046615"><ele>336.0</ele><time>2026-04-28T09:22:24.678Z</time></trkpt><trkpt lat="37.8253965" lon="12.8045929"><ele>336.0</ele><time>2026-04-28T09:22:25.678Z</time></trkpt><trkpt lat="37.8253244" lon="12.804532"><ele>336.0</ele><time>2026-04-28T09:22:26.678Z</time></trkpt><trkpt lat="37.8252462" lon="12.804463"><ele>336.0</ele><time>2026-04-28T09:22:27.677Z</time></trkpt><trkpt lat="37.8251658" lon="12.8043985"><ele>335.8333333333333</ele><time>2026-04-28T09:22:28.678Z</time></trkpt><trkpt lat="37.8250949" lon="12.8043286"><ele>335.6666666666667</ele><time>2026-04-28T09:22:29.678Z</time></trkpt><trkpt lat="37.8250194" lon="12.8042746"><ele>335.5</ele><time>2026-04-28T09:22:30.678Z</time></trkpt><trkpt lat="37.824955" lon="12.8042228"><ele>335.33333333333337</ele><time>2026-04-28T09:22:31.677Z</time></trkpt><trkpt lat="37.8248957" lon="12.8041229"><ele>335.1666666666667</ele><time>2026-04-28T09:22:33.678Z</time></trkpt><trkpt lat="37.8249224" lon="12.8040157"><ele>335.0</ele><time>2026-04-28T09:22:35.678Z</time></trkpt><trkpt lat="37.8250382" lon="12.803948"><ele>335.0</ele><time>2026-04-28T09:22:37.678Z</time></trkpt><trkpt lat="37.825106" lon="12.8039196"><ele>335.0</ele><time>2026-04-28T09:22:38.679Z</time></trkpt><trkpt lat="37.8251843" lon="12.8038859"><ele>335.0</ele><time>2026-04-28T09:22:39.678Z</time></trkpt><trkpt lat="37.825273" lon="12.8038365"><ele>335.0</ele><time>2026-04-28T09:22:40.679Z</time></trkpt><trkpt lat="37.8253623" lon="12.8037983"><ele>335.0</ele><time>2026-04-28T09:22:41.677Z</time></trkpt><trkpt lat="37.825464" lon="12.8037578"><ele>335.0</ele><time>2026-04-28T09:22:42.679Z</time></trkpt><trkpt lat="37.8255703" lon="12.8037131"><ele>335.0</ele><time>2026-04-28T09:22:43.677Z</time></trkpt><trkpt lat="37.8256837" lon="12.8036715"><ele>335.0</ele><time>2026-04-28T09:22:44.678Z</time></trkpt><trkpt lat="37.825811" lon="12.8036401"><ele>335.0</ele><time>2026-04-28T09:22:45.677Z</time></trkpt><trkpt lat="37.8259318" lon="12.8036038"><ele>334.75</ele><time>2026-04-28T09:22:46.679Z</time></trkpt><trkpt lat="37.8260527" lon="12.8035583"><ele>334.5</ele><time>2026-04-28T09:22:47.679Z</time></trkpt><trkpt lat="37.8261745" lon="12.8035134"><ele>334.25</ele><time>2026-04-28T09:22:48.677Z</time></trkpt><trkpt lat="37.8262979" lon="12.8034606"><ele>334.0</ele><time>2026-04-28T09:22:49.679Z</time></trkpt><trkpt lat="37.8264293" lon="12.8034058"><ele>336.0</ele><time>2026-04-28T09:22:50.678Z</time></trkpt><trkpt lat="37.8265611" lon="12.8033521"><ele>338.0</ele><time>2026-04-28T09:22:51.677Z</time></trkpt><trkpt lat="37.8267068" lon="12.8032819"><ele>340.0</ele><time>2026-04-28T09:22:52.678Z</time></trkpt><trkpt lat="37.8268381" lon="12.8032311"><ele>342.0</ele><time>2026-04-28T09:22:53.678Z</time></trkpt><trkpt lat="37.8269727" lon="12.8031815"><ele>342.0</ele><time>2026-04-28T09:22:54.678Z</time></trkpt><trkpt lat="37.8270952" lon="12.8031087"><ele>342.0</ele><time>2026-04-28T09:22:55.678Z</time></trkpt><trkpt lat="37.8272231" lon="12.8030202"><ele>342.0</ele><time>2026-04-28T09:22:56.679Z</time></trkpt><trkpt lat="37.8273613" lon="12.8029177"><ele>342.0</ele><time>2026-04-28T09:22:57.678Z</time></trkpt><trkpt lat="37.8274823" lon="12.8028091"><ele>342.0</ele><time>2026-04-28T09:22:58.679Z</time></trkpt><trkpt lat="37.8276003" lon="12.8026836"><ele>342.0</ele><time>2026-04-28T09:22:59.678Z</time></trkpt><trkpt lat="37.8277149" lon="12.8025484"><ele>342.0</ele><time>2026-04-28T09:23:00.677Z</time></trkpt><trkpt lat="37.8278262" lon="12.8024136"><ele>346.0</ele><time>2026-04-28T09:23:01.678Z</time></trkpt><trkpt lat="37.8279451" lon="12.8022781"><ele>350.0</ele><time>2026-04-28T09:23:02.678Z</time></trkpt><trkpt lat="37.8280594" lon="12.8021421"><ele>354.0</ele><time>2026-04-28T09:23:03.678Z</time></trkpt><trkpt lat="37.828166" lon="12.8020045"><ele>354.0</ele><time>2026-04-28T09:23:04.678Z</time></trkpt><trkpt lat="37.8282696" lon="12.8018691"><ele>354.0</ele><time>2026-04-28T09:23:05.677Z</time></trkpt><trkpt lat="37.8283803" lon="12.8017317"><ele>354.0</ele><time>2026-04-28T09:23:06.678Z</time></trkpt><trkpt lat="37.828491" lon="12.8016098"><ele>356.25</ele><time>2026-04-28T09:23:07.679Z</time></trkpt><trkpt lat="37.828605" lon="12.8015073"><ele>358.5</ele><time>2026-04-28T09:23:08.678Z</time></trkpt><trkpt lat="37.8287329" lon="12.8014348"><ele>360.75</ele><time>2026-04-28T09:23:09.678Z</time></trkpt><trkpt lat="37.8288638" lon="12.8013862"><ele>363.0</ele><time>2026-04-28T09:23:10.677Z</time></trkpt><trkpt lat="37.8290006" lon="12.8013506"><ele>363.0</ele><time>2026-04-28T09:23:11.679Z</time></trkpt><trkpt lat="37.8291343" lon="12.8013107"><ele>363.0</ele><time>2026-04-28T09:23:12.678Z</time></trkpt><trkpt lat="37.8292731" lon="12.8012733"><ele>363.0</ele><time>2026-04-28T09:23:13.679Z</time></trkpt><trkpt lat="37.8294054" lon="12.8012319"><ele>363.0</ele><time>2026-04-28T09:23:14.678Z</time></trkpt><trkpt lat="37.8295262" lon="12.8011948"><ele>364.0</ele><time>2026-04-28T09:23:15.68Z</time></trkpt><trkpt lat="37.8296429" lon="12.8011586"><ele>365.0</ele><time>2026-04-28T09:23:16.678Z</time></trkpt><trkpt lat="37.8297487" lon="12.801111"><ele>366.0</ele><time>2026-04-28T09:23:17.678Z</time></trkpt><trkpt lat="37.8298444" lon="12.8010613"><ele>367.0</ele><time>2026-04-28T09:23:18.679Z</time></trkpt><trkpt lat="37.8299237" lon="12.8009962"><ele>368.0</ele><time>2026-04-28T09:23:19.679Z</time></trkpt><trkpt lat="37.8299979" lon="12.8009046"><ele>369.4</ele><time>2026-04-28T09:23:20.677Z</time></trkpt><trkpt lat="37.8300599" lon="12.800799"><ele>370.79999999999995</ele><time>2026-04-28T09:23:21.68Z</time></trkpt><trkpt lat="37.8301229" lon="12.8006826"><ele>372.2</ele><time>2026-04-28T09:23:22.679Z</time></trkpt><trkpt lat="37.830196" lon="12.8005662"><ele>373.6</ele><time>2026-04-28T09:23:23.678Z</time></trkpt><trkpt lat="37.8302512" lon="12.8004402"><ele>375.0</ele><time>2026-04-28T09:23:24.679Z</time></trkpt><trkpt lat="37.8303143" lon="12.8003063"><ele>374.5</ele><time>2026-04-28T09:23:25.678Z</time></trkpt><trkpt lat="37.8303819" lon="12.8001848"><ele>374.0</ele><time>2026-04-28T09:23:26.679Z</time></trkpt><trkpt lat="37.8304427" lon="12.8000643"><ele>373.5</ele><time>2026-04-28T09:23:27.679Z</time></trkpt><trkpt lat="37.8305052" lon="12.7999298"><ele>373.0</ele><time>2026-04-28T09:23:28.679Z</time></trkpt><trkpt lat="37.8305731" lon="12.7998034"><ele>373.0</ele><time>2026-04-28T09:23:29.678Z</time></trkpt><trkpt lat="37.8306446" lon="12.7996633"><ele>373.0</ele><time>2026-04-28T09:23:30.679Z</time></trkpt><trkpt lat="37.8306983" lon="12.7995199"><ele>373.0</ele><time>2026-04-28T09:23:31.679Z</time></trkpt><trkpt lat="37.8307375" lon="12.7993657"><ele>373.0</ele><time>2026-04-28T09:23:32.679Z</time></trkpt><trkpt lat="37.8307608" lon="12.7992072"><ele>375.75</ele><time>2026-04-28T09:23:33.678Z</time></trkpt><trkpt lat="37.8307697" lon="12.7990423"><ele>378.5</ele><time>2026-04-28T09:23:34.679Z</time></trkpt><trkpt lat="37.8307748" lon="12.7988865"><ele>381.25</ele><time>2026-04-28T09:23:35.678Z</time></trkpt><trkpt lat="37.8307723" lon="12.7987476"><ele>384.0</ele><time>2026-04-28T09:23:36.679Z</time></trkpt><trkpt lat="37.8307656" lon="12.7986263"><ele>384.0</ele><time>2026-04-28T09:23:37.678Z</time></trkpt><trkpt lat="37.8307238" lon="12.7985422"><ele>384.0</ele><time>2026-04-28T09:23:38.678Z</time></trkpt><trkpt lat="37.8306718" lon="12.7984598"><ele>384.0</ele><time>2026-04-28T09:23:39.677Z</time></trkpt><trkpt lat="37.8305954" lon="12.7983975"><ele>384.0</ele><time>2026-04-28T09:23:40.678Z</time></trkpt><trkpt lat="37.8305084" lon="12.798347"><ele>384.0</ele><time>2026-04-28T09:23:41.679Z</time></trkpt><trkpt lat="37.8304255" lon="12.7983006"><ele>384.0</ele><time>2026-04-28T09:23:42.678Z</time></trkpt><trkpt lat="37.8303397" lon="12.7982556"><ele>384.4</ele><time>2026-04-28T09:23:43.678Z</time></trkpt><trkpt lat="37.830251" lon="12.7982139"><ele>384.79999999999995</ele><time>2026-04-28T09:23:44.678Z</time></trkpt><trkpt lat="37.8301578" lon="12.7981672"><ele>385.20000000000005</ele><time>2026-04-28T09:23:45.678Z</time></trkpt><trkpt lat="37.8300721" lon="12.7981082"><ele>385.6</ele><time>2026-04-28T09:23:46.678Z</time></trkpt><trkpt lat="37.8299965" lon="12.7980235"><ele>386.0</ele><time>2026-04-28T09:23:47.677Z</time></trkpt><trkpt lat="37.8299274" lon="12.7979166"><ele>387.6</ele><time>2026-04-28T09:23:48.678Z</time></trkpt><trkpt lat="37.8298571" lon="12.7977982"><ele>389.20000000000005</ele><time>2026-04-28T09:23:49.678Z</time></trkpt><trkpt lat="37.8298109" lon="12.7976729"><ele>390.79999999999995</ele><time>2026-04-28T09:23:50.679Z</time></trkpt><trkpt lat="37.8297471" lon="12.7975539"><ele>392.4</ele><time>2026-04-28T09:23:51.678Z</time></trkpt><trkpt lat="37.8297012" lon="12.7974444"><ele>394.0</ele><time>2026-04-28T09:23:52.679Z</time></trkpt><trkpt lat="37.8296398" lon="12.7973252"><ele>394.0</ele><time>2026-04-28T09:23:53.679Z</time></trkpt><trkpt lat="37.8295826" lon="12.7972156"><ele>394.0</ele><time>2026-04-28T09:23:54.679Z</time></trkpt><trkpt lat="37.8295261" lon="12.797102"><ele>394.0</ele><time>2026-04-28T09:23:55.678Z</time></trkpt><trkpt lat="37.8294533" lon="12.7969835"><ele>394.0</ele><time>2026-04-28T09:23:56.678Z</time></trkpt><trkpt lat="37.8293767" lon="12.7968547"><ele>397.5</ele><time>2026-04-28T09:23:57.679Z</time></trkpt><trkpt lat="37.8293037" lon="12.7967161"><ele>401.0</ele><time>2026-04-28T09:23:58.679Z</time></trkpt><trkpt lat="37.829234" lon="12.7965774"><ele>404.5</ele><time>2026-04-28T09:23:59.678Z</time></trkpt><trkpt lat="37.8291728" lon="12.7964442"><ele>408.0</ele><time>2026-04-28T09:24:00.677Z</time></trkpt><trkpt lat="37.8291179" lon="12.7963237"><ele>408.0</ele><time>2026-04-28T09:24:01.678Z</time></trkpt><trkpt lat="37.829064" lon="12.7962142"><ele>408.0</ele><time>2026-04-28T09:24:02.678Z</time></trkpt><trkpt lat="37.829013" lon="12.7960988"><ele>408.0</ele><time>2026-04-28T09:24:03.679Z</time></trkpt><trkpt lat="37.8289681" lon="12.7959838"><ele>408.0</ele><time>2026-04-28T09:24:04.679Z</time></trkpt><trkpt lat="37.8289376" lon="12.7958664"><ele>408.0</ele><time>2026-04-28T09:24:05.678Z</time></trkpt><trkpt lat="37.8289243" lon="12.7957508"><ele>407.59999999999997</ele><time>2026-04-28T09:24:06.678Z</time></trkpt><trkpt lat="37.8289266" lon="12.7956251"><ele>407.2</ele><time>2026-04-28T09:24:07.678Z</time></trkpt><trkpt lat="37.8289421" lon="12.7955019"><ele>406.8</ele><time>2026-04-28T09:24:08.678Z</time></trkpt><trkpt lat="37.8289683" lon="12.7953838"><ele>406.4</ele><time>2026-04-28T09:24:09.679Z</time></trkpt><trkpt lat="37.8289907" lon="12.7952681"><ele>406.0</ele><time>2026-04-28T09:24:10.678Z</time></trkpt><trkpt lat="37.8290053" lon="12.7951605"><ele>405.6666666666667</ele><time>2026-04-28T09:24:11.678Z</time></trkpt><trkpt lat="37.8289998" lon="12.7950491"><ele>405.33333333333337</ele><time>2026-04-28T09:24:12.679Z</time></trkpt><trkpt lat="37.8289731" lon="12.7949471"><ele>405.0</ele><time>2026-04-28T09:24:13.677Z</time></trkpt><trkpt lat="37.8289302" lon="12.7948625"><ele>404.66666666666663</ele><time>2026-04-28T09:24:14.677Z</time></trkpt><trkpt lat="37.8288625" lon="12.7948126"><ele>404.3333333333333</ele><time>2026-04-28T09:24:15.678Z</time></trkpt><trkpt lat="37.8287878" lon="12.7947747"><ele>404.0</ele><time>2026-04-28T09:24:16.679Z</time></trkpt><trkpt lat="37.8287155" lon="12.79478"><ele>404.0</ele><time>2026-04-28T09:24:17.679Z</time></trkpt><trkpt lat="37.8286524" lon="12.7948262"><ele>404.0</ele><time>2026-04-28T09:24:18.678Z</time></trkpt><trkpt lat="37.8286022" lon="12.794906"><ele>404.0</ele><time>2026-04-28T09:24:19.679Z</time></trkpt><trkpt lat="37.8285679" lon="12.7950244"><ele>404.0</ele><time>2026-04-28T09:24:20.679Z</time></trkpt><trkpt lat="37.8285289" lon="12.7953163"><ele>404.5</ele><time>2026-04-28T09:24:22.679Z</time></trkpt><trkpt lat="37.828514" lon="12.7954903"><ele>405.0</ele><time>2026-04-28T09:24:23.678Z</time></trkpt><trkpt lat="37.8284959" lon="12.7956611"><ele>405.5</ele><time>2026-04-28T09:24:24.678Z</time></trkpt><trkpt lat="37.8284765" lon="12.7958465"><ele>406.0</ele><time>2026-04-28T09:24:25.678Z</time></trkpt><trkpt lat="37.8284476" lon="12.7960341"><ele>412.6666666666667</ele><time>2026-04-28T09:24:26.679Z</time></trkpt><trkpt lat="37.8284189" lon="12.7962246"><ele>419.33333333333337</ele><time>2026-04-28T09:24:27.678Z</time></trkpt><trkpt lat="37.8283848" lon="12.7964239"><ele>426.0</ele><time>2026-04-28T09:24:28.678Z</time></trkpt><trkpt lat="37.8283469" lon="12.796642"><ele>426.0</ele><time>2026-04-28T09:24:29.679Z</time></trkpt><trkpt lat="37.8283149" lon="12.7968684"><ele>426.0</ele><time>2026-04-28T09:24:30.678Z</time></trkpt><trkpt lat="37.8282793" lon="12.7971041"><ele>426.0</ele><time>2026-04-28T09:24:31.679Z</time></trkpt><trkpt lat="37.8282516" lon="12.7973544"><ele>426.0</ele><time>2026-04-28T09:24:32.678Z</time></trkpt><trkpt lat="37.8282252" lon="12.7976025"><ele>426.0</ele><time>2026-04-28T09:24:33.679Z</time></trkpt><trkpt lat="37.8282013" lon="12.7978358"><ele>426.0</ele><time>2026-04-28T09:24:34.678Z</time></trkpt><trkpt lat="37.8281404" lon="12.7982451"><ele>425.66666666666663</ele><time>2026-04-28T09:24:36.68Z</time></trkpt><trkpt lat="37.828082" lon="12.7984164"><ele>425.3333333333333</ele><time>2026-04-28T09:24:37.678Z</time></trkpt><trkpt lat="37.8279104" lon="12.7987079"><ele>425.0</ele><time>2026-04-28T09:24:39.678Z</time></trkpt><trkpt lat="37.8278134" lon="12.7988251"><ele>424.16666666666663</ele><time>2026-04-28T09:24:40.678Z</time></trkpt><trkpt lat="37.8277208" lon="12.7989095"><ele>423.3333333333333</ele><time>2026-04-28T09:24:41.679Z</time></trkpt><trkpt lat="37.82764" lon="12.7989561"><ele>422.5</ele><time>2026-04-28T09:24:42.678Z</time></trkpt><trkpt lat="37.827554" lon="12.7989772"><ele>421.66666666666663</ele><time>2026-04-28T09:24:43.677Z</time></trkpt><trkpt lat="37.8274752" lon="12.7989858"><ele>420.8333333333333</ele><time>2026-04-28T09:24:44.678Z</time></trkpt><trkpt lat="37.8274116" lon="12.7989495"><ele>420.0</ele><time>2026-04-28T09:24:45.678Z</time></trkpt><trkpt lat="37.8273547" lon="12.7988893"><ele>420.8333333333333</ele><time>2026-04-28T09:24:47.678Z</time></trkpt><trkpt lat="37.8273897" lon="12.7987928"><ele>421.66666666666663</ele><time>2026-04-28T09:24:50.678Z</time></trkpt><trkpt lat="37.8274717" lon="12.7987405"><ele>422.5</ele><time>2026-04-28T09:24:52.679Z</time></trkpt><trkpt lat="37.827526" lon="12.7986971"><ele>423.3333333333333</ele><time>2026-04-28T09:24:53.678Z</time></trkpt><trkpt lat="37.8275794" lon="12.7986403"><ele>424.16666666666663</ele><time>2026-04-28T09:24:54.679Z</time></trkpt><trkpt lat="37.8276293" lon="12.7985551"><ele>425.0</ele><time>2026-04-28T09:24:55.678Z</time></trkpt><trkpt lat="37.8276831" lon="12.798442"><ele>425.0</ele><time>2026-04-28T09:24:56.678Z</time></trkpt><trkpt lat="37.8277191" lon="12.7983127"><ele>425.0</ele><time>2026-04-28T09:24:57.678Z</time></trkpt><trkpt lat="37.8277387" lon="12.7981554"><ele>425.0</ele><time>2026-04-28T09:24:58.68Z</time></trkpt><trkpt lat="37.8277425" lon="12.7980098"><ele>425.0</ele><time>2026-04-28T09:24:59.678Z</time></trkpt><trkpt lat="37.8277306" lon="12.7978857"><ele>425.0</ele><time>2026-04-28T09:25:00.678Z</time></trkpt><trkpt lat="37.8277123" lon="12.7977709"><ele>425.25</ele><time>2026-04-28T09:25:01.678Z</time></trkpt><trkpt lat="37.8276826" lon="12.7976476"><ele>425.5</ele><time>2026-04-28T09:25:02.678Z</time></trkpt><trkpt lat="37.8276468" lon="12.7974971"><ele>425.75</ele><time>2026-04-28T09:25:03.678Z</time></trkpt><trkpt lat="37.8276044" lon="12.7973281"><ele>426.0</ele><time>2026-04-28T09:25:04.678Z</time></trkpt><trkpt lat="37.8275513" lon="12.7971411"><ele>432.66666666666663</ele><time>2026-04-28T09:25:05.679Z</time></trkpt><trkpt lat="37.8274881" lon="12.7969497"><ele>439.3333333333333</ele><time>2026-04-28T09:25:06.679Z</time></trkpt><trkpt lat="37.8274137" lon="12.7967484"><ele>446.0</ele><time>2026-04-28T09:25:07.678Z</time></trkpt><trkpt lat="37.8273272" lon="12.7965329"><ele>446.0</ele><time>2026-04-28T09:25:08.678Z</time></trkpt><trkpt lat="37.8272284" lon="12.7963137"><ele>446.0</ele><time>2026-04-28T09:25:09.678Z</time></trkpt><trkpt lat="37.8271246" lon="12.7960917"><ele>446.0</ele><time>2026-04-28T09:25:10.678Z</time></trkpt><trkpt lat="37.8270174" lon="12.7958573"><ele>444.0</ele><time>2026-04-28T09:25:11.678Z</time></trkpt><trkpt lat="37.8269244" lon="12.7956096"><ele>442.0</ele><time>2026-04-28T09:25:12.678Z</time></trkpt><trkpt lat="37.8268482" lon="12.7953589"><ele>440.0</ele><time>2026-04-28T09:25:13.679Z</time></trkpt><trkpt lat="37.826776" lon="12.7951034"><ele>445.0</ele><time>2026-04-28T09:25:14.679Z</time></trkpt><trkpt lat="37.8267175" lon="12.7948566"><ele>450.0</ele><time>2026-04-28T09:25:15.678Z</time></trkpt><trkpt lat="37.8266683" lon="12.7946104"><ele>455.0</ele><time>2026-04-28T09:25:16.679Z</time></trkpt><trkpt lat="37.8266266" lon="12.7943605"><ele>454.3333333333333</ele><time>2026-04-28T09:25:17.678Z</time></trkpt><trkpt lat="37.8265979" lon="12.7941171"><ele>453.66666666666663</ele><time>2026-04-28T09:25:18.678Z</time></trkpt><trkpt lat="37.8265663" lon="12.7938723"><ele>453.0</ele><time>2026-04-28T09:25:19.679Z</time></trkpt><trkpt lat="37.8265374" lon="12.7936309"><ele>452.66666666666663</ele><time>2026-04-28T09:25:20.678Z</time></trkpt><trkpt lat="37.826487" lon="12.793402"><ele>452.3333333333333</ele><time>2026-04-28T09:25:21.677Z</time></trkpt><trkpt lat="37.8264125" lon="12.7931566"><ele>452.0</ele><time>2026-04-28T09:25:22.679Z</time></trkpt><trkpt lat="37.8263296" lon="12.7929233"><ele>452.0</ele><time>2026-04-28T09:25:23.679Z</time></trkpt><trkpt lat="37.8262325" lon="12.7926816"><ele>452.0</ele><time>2026-04-28T09:25:24.678Z</time></trkpt><trkpt lat="37.826125" lon="12.7924365"><ele>452.0</ele><time>2026-04-28T09:25:25.679Z</time></trkpt><trkpt lat="37.8260148" lon="12.7921989"><ele>453.3333333333333</ele><time>2026-04-28T09:25:26.68Z</time></trkpt><trkpt lat="37.8259" lon="12.7919656"><ele>454.66666666666663</ele><time>2026-04-28T09:25:27.678Z</time></trkpt><trkpt lat="37.8257896" lon="12.7917575"><ele>456.0</ele><time>2026-04-28T09:25:28.678Z</time></trkpt><trkpt lat="37.8256925" lon="12.7915751"><ele>456.0</ele><time>2026-04-28T09:25:29.678Z</time></trkpt><trkpt lat="37.8256163" lon="12.7914135"><ele>456.0</ele><time>2026-04-28T09:25:30.679Z</time></trkpt><trkpt lat="37.8255143" lon="12.7911049"><ele>456.0</ele><time>2026-04-28T09:25:32.678Z</time></trkpt><trkpt lat="37.8255304" lon="12.7909651"><ele>457.25</ele><time>2026-04-28T09:25:33.679Z</time></trkpt><trkpt lat="37.8255581" lon="12.7908213"><ele>458.5</ele><time>2026-04-28T09:25:34.679Z</time></trkpt><trkpt lat="37.8256298" lon="12.7906999"><ele>459.75</ele><time>2026-04-28T09:25:35.678Z</time></trkpt><trkpt lat="37.8257296" lon="12.790588"><ele>461.0</ele><time>2026-04-28T09:25:36.679Z</time></trkpt><trkpt lat="37.8258448" lon="12.7904886"><ele>460.0</ele><time>2026-04-28T09:25:37.679Z</time></trkpt><trkpt lat="37.8259865" lon="12.7903465"><ele>459.0</ele><time>2026-04-28T09:25:38.678Z</time></trkpt><trkpt lat="37.8261326" lon="12.7901991"><ele>458.0</ele><time>2026-04-28T09:25:39.679Z</time></trkpt><trkpt lat="37.8262847" lon="12.7900501"><ele>458.0</ele><time>2026-04-28T09:25:40.678Z</time></trkpt><trkpt lat="37.8264334" lon="12.7898917"><ele>458.0</ele><time>2026-04-28T09:25:41.679Z</time></trkpt><trkpt lat="37.8265687" lon="12.7897379"><ele>458.0</ele><time>2026-04-28T09:25:42.679Z</time></trkpt><trkpt lat="37.8266963" lon="12.789581"><ele>458.0</ele><time>2026-04-28T09:25:43.678Z</time></trkpt><trkpt lat="37.8267946" lon="12.7894129"><ele>458.0</ele><time>2026-04-28T09:25:44.679Z</time></trkpt><trkpt lat="37.8268703" lon="12.7892342"><ele>458.0</ele><time>2026-04-28T09:25:45.677Z</time></trkpt><trkpt lat="37.8269173" lon="12.7890571"><ele>458.75</ele><time>2026-04-28T09:25:46.679Z</time></trkpt><trkpt lat="37.8269531" lon="12.7888924"><ele>459.5</ele><time>2026-04-28T09:25:47.678Z</time></trkpt><trkpt lat="37.8269633" lon="12.7887382"><ele>460.25</ele><time>2026-04-28T09:25:48.68Z</time></trkpt><trkpt lat="37.8269673" lon="12.7885936"><ele>461.0</ele><time>2026-04-28T09:25:49.678Z</time></trkpt><trkpt lat="37.8269685" lon="12.788456"><ele>463.6</ele><time>2026-04-28T09:25:50.678Z</time></trkpt><trkpt lat="37.8269735" lon="12.7883295"><ele>466.20000000000005</ele><time>2026-04-28T09:25:51.679Z</time></trkpt><trkpt lat="37.8269699" lon="12.7882238"><ele>468.79999999999995</ele><time>2026-04-28T09:25:52.678Z</time></trkpt><trkpt lat="37.8269683" lon="12.7881375"><ele>471.4</ele><time>2026-04-28T09:25:53.678Z</time></trkpt><trkpt lat="37.8269523" lon="12.7879763"><ele>474.0</ele><time>2026-04-28T09:25:55.679Z</time></trkpt><trkpt lat="37.8269572" lon="12.787866"><ele>474.0</ele><time>2026-04-28T09:25:57.678Z</time></trkpt><trkpt lat="37.8269311" lon="12.7877773"><ele>474.0</ele><time>2026-04-28T09:26:42.678Z</time></trkpt><trkpt lat="37.8269015" lon="12.7876832"><ele>474.0</ele><time>2026-04-28T09:26:44.678Z</time></trkpt><trkpt lat="37.8268671" lon="12.7875294"><ele>474.0</ele><time>2026-04-28T09:26:46.678Z</time></trkpt><trkpt lat="37.8268471" lon="12.7874399"><ele>474.0</ele><time>2026-04-28T09:26:47.678Z</time></trkpt><trkpt lat="37.8268262" lon="12.7873287"><ele>474.0</ele><time>2026-04-28T09:26:48.678Z</time></trkpt><trkpt lat="37.826795" lon="12.7872164"><ele>474.0</ele><time>2026-04-28T09:26:49.678Z</time></trkpt><trkpt lat="37.826768" lon="12.7871094"><ele>474.0</ele><time>2026-04-28T09:26:50.678Z</time></trkpt><trkpt lat="37.8267457" lon="12.7869871"><ele>474.0</ele><time>2026-04-28T09:26:51.678Z</time></trkpt><trkpt lat="37.8267205" lon="12.7868689"><ele>474.0</ele><time>2026-04-28T09:26:52.679Z</time></trkpt><trkpt lat="37.8266939" lon="12.7867534"><ele>474.0</ele><time>2026-04-28T09:26:53.678Z</time></trkpt><trkpt lat="37.8266651" lon="12.7866254"><ele>474.0</ele><time>2026-04-28T09:26:54.678Z</time></trkpt><trkpt lat="37.8266428" lon="12.786508"><ele>474.0</ele><time>2026-04-28T09:26:55.68Z</time></trkpt><trkpt lat="37.8266124" lon="12.786383"><ele>474.0</ele><time>2026-04-28T09:26:56.679Z</time></trkpt><trkpt lat="37.8265913" lon="12.7862496"><ele>474.0</ele><time>2026-04-28T09:26:57.679Z</time></trkpt><trkpt lat="37.8265679" lon="12.7861176"><ele>474.0</ele><time>2026-04-28T09:26:58.679Z</time></trkpt><trkpt lat="37.8265443" lon="12.7859862"><ele>473.25</ele><time>2026-04-28T09:26:59.679Z</time></trkpt><trkpt lat="37.8265224" lon="12.7858554"><ele>472.5</ele><time>2026-04-28T09:27:00.679Z</time></trkpt><trkpt lat="37.8265033" lon="12.7857082"><ele>471.75</ele><time>2026-04-28T09:27:01.678Z</time></trkpt><trkpt lat="37.8264945" lon="12.7855514"><ele>471.0</ele><time>2026-04-28T09:27:02.679Z</time></trkpt><trkpt lat="37.8264902" lon="12.7853957"><ele>471.0</ele><time>2026-04-28T09:27:03.678Z</time></trkpt><trkpt lat="37.8264983" lon="12.7852463"><ele>471.0</ele><time>2026-04-28T09:27:04.678Z</time></trkpt><trkpt lat="37.82651" lon="12.7851054"><ele>471.0</ele><time>2026-04-28T09:27:05.678Z</time></trkpt><trkpt lat="37.8265209" lon="12.7849743"><ele>471.0</ele><time>2026-04-28T09:27:06.679Z</time></trkpt><trkpt lat="37.8265367" lon="12.7848536"><ele>471.0</ele><time>2026-04-28T09:27:07.677Z</time></trkpt><trkpt lat="37.826552" lon="12.7847569"><ele>470.6</ele><time>2026-04-28T09:27:08.679Z</time></trkpt><trkpt lat="37.8265671" lon="12.7846606"><ele>470.20000000000005</ele><time>2026-04-28T09:27:09.678Z</time></trkpt><trkpt lat="37.8265847" lon="12.784567"><ele>469.79999999999995</ele><time>2026-04-28T09:27:10.678Z</time></trkpt><trkpt lat="37.8266036" lon="12.7844774"><ele>469.4</ele><time>2026-04-28T09:27:11.678Z</time></trkpt><trkpt lat="37.8266274" lon="12.7843688"><ele>469.0</ele><time>2026-04-28T09:27:12.678Z</time></trkpt><trkpt lat="37.8266863" lon="12.7841486"><ele>469.0</ele><time>2026-04-28T09:27:14.678Z</time></trkpt><trkpt lat="37.8267205" lon="12.7840325"><ele>469.0</ele><time>2026-04-28T09:27:15.678Z</time></trkpt><trkpt lat="37.8267608" lon="12.7839183"><ele>469.0</ele><time>2026-04-28T09:27:16.678Z</time></trkpt><trkpt lat="37.8268009" lon="12.7838194"><ele>469.0</ele><time>2026-04-28T09:27:17.679Z</time></trkpt><trkpt lat="37.8268508" lon="12.7837115"><ele>469.0</ele><time>2026-04-28T09:27:18.678Z</time></trkpt><trkpt lat="37.8269052" lon="12.7835913"><ele>468.6</ele><time>2026-04-28T09:27:19.679Z</time></trkpt><trkpt lat="37.8269681" lon="12.7834712"><ele>468.2</ele><time>2026-04-28T09:27:20.679Z</time></trkpt><trkpt lat="37.8270231" lon="12.7833593"><ele>467.80000000000007</ele><time>2026-04-28T09:27:21.678Z</time></trkpt><trkpt lat="37.8270826" lon="12.7832406"><ele>467.40000000000003</ele><time>2026-04-28T09:27:22.679Z</time></trkpt><trkpt lat="37.8271361" lon="12.7831291"><ele>467.0</ele><time>2026-04-28T09:27:23.679Z</time></trkpt><trkpt lat="37.827186" lon="12.7830106"><ele>467.0</ele><time>2026-04-28T09:27:24.677Z</time></trkpt><trkpt lat="37.8272452" lon="12.7828807"><ele>467.0</ele><time>2026-04-28T09:27:25.679Z</time></trkpt><trkpt lat="37.8272939" lon="12.782745"><ele>467.0</ele><time>2026-04-28T09:27:26.678Z</time></trkpt><trkpt lat="37.8273305" lon="12.7826139"><ele>467.0</ele><time>2026-04-28T09:27:27.677Z</time></trkpt><trkpt lat="37.8273697" lon="12.7824688"><ele>466.5</ele><time>2026-04-28T09:27:28.678Z</time></trkpt><trkpt lat="37.8274027" lon="12.7823072"><ele>466.0</ele><time>2026-04-28T09:27:29.679Z</time></trkpt><trkpt lat="37.8274349" lon="12.7821439"><ele>465.5</ele><time>2026-04-28T09:27:30.678Z</time></trkpt><trkpt lat="37.827461" lon="12.7819819"><ele>465.0</ele><time>2026-04-28T09:27:31.678Z</time></trkpt><trkpt lat="37.8274855" lon="12.7818237"><ele>464.5</ele><time>2026-04-28T09:27:32.679Z</time></trkpt><trkpt lat="37.8275081" lon="12.781668"><ele>464.0</ele><time>2026-04-28T09:27:33.678Z</time></trkpt><trkpt lat="37.8275225" lon="12.7815082"><ele>463.5</ele><time>2026-04-28T09:27:34.678Z</time></trkpt><trkpt lat="37.8275623" lon="12.7813733"><ele>463.0</ele><time>2026-04-28T09:27:35.678Z</time></trkpt><trkpt lat="37.8275666" lon="12.7812431"><ele>463.0</ele><time>2026-04-28T09:27:36.677Z</time></trkpt><trkpt lat="37.8275634" lon="12.781104"><ele>463.0</ele><time>2026-04-28T09:27:37.677Z</time></trkpt><trkpt lat="37.8275519" lon="12.7809441"><ele>463.0</ele><time>2026-04-28T09:27:38.678Z</time></trkpt><trkpt lat="37.8275316" lon="12.7807732"><ele>463.0</ele><time>2026-04-28T09:27:39.679Z</time></trkpt><trkpt lat="37.8275013" lon="12.7805896"><ele>461.6666666666667</ele><time>2026-04-28T09:27:40.679Z</time></trkpt><trkpt lat="37.8274569" lon="12.7803787"><ele>460.33333333333337</ele><time>2026-04-28T09:27:41.679Z</time></trkpt><trkpt lat="37.8274253" lon="12.7801647"><ele>459.0</ele><time>2026-04-28T09:27:42.679Z</time></trkpt><trkpt lat="37.8273817" lon="12.7799448"><ele>459.0</ele><time>2026-04-28T09:27:43.678Z</time></trkpt><trkpt lat="37.8272829" lon="12.7794527"><ele>459.0</ele><time>2026-04-28T09:27:45.679Z</time></trkpt><trkpt lat="37.8272283" lon="12.779206"><ele>458.66666666666663</ele><time>2026-04-28T09:27:46.678Z</time></trkpt><trkpt lat="37.8271754" lon="12.7789566"><ele>458.3333333333333</ele><time>2026-04-28T09:27:47.679Z</time></trkpt><trkpt lat="37.8271308" lon="12.7787234"><ele>458.0</ele><time>2026-04-28T09:27:48.679Z</time></trkpt><trkpt lat="37.827086" lon="12.77849"><ele>456.66666666666663</ele><time>2026-04-28T09:27:49.678Z</time></trkpt><trkpt lat="37.8270434" lon="12.7782719"><ele>455.33333333333337</ele><time>2026-04-28T09:27:50.679Z</time></trkpt><trkpt lat="37.8270019" lon="12.7780642"><ele>454.0</ele><time>2026-04-28T09:27:51.679Z</time></trkpt><trkpt lat="37.826962" lon="12.777867"><ele>454.33333333333337</ele><time>2026-04-28T09:27:52.678Z</time></trkpt><trkpt lat="37.8269295" lon="12.777672"><ele>454.66666666666663</ele><time>2026-04-28T09:27:53.679Z</time></trkpt><trkpt lat="37.8268937" lon="12.7774825"><ele>455.0</ele><time>2026-04-28T09:27:54.678Z</time></trkpt><trkpt lat="37.82686" lon="12.7772842"><ele>455.0</ele><time>2026-04-28T09:27:55.68Z</time></trkpt><trkpt lat="37.8268248" lon="12.7770946"><ele>455.0</ele><time>2026-04-28T09:27:56.678Z</time></trkpt><trkpt lat="37.8267952" lon="12.7769257"><ele>455.0</ele><time>2026-04-28T09:27:57.679Z</time></trkpt><trkpt lat="37.8267648" lon="12.7767763"><ele>455.0</ele><time>2026-04-28T09:27:58.679Z</time></trkpt><trkpt lat="37.8267391" lon="12.7766333"><ele>453.2</ele><time>2026-04-28T09:27:59.678Z</time></trkpt><trkpt lat="37.8267152" lon="12.7765128"><ele>451.4</ele><time>2026-04-28T09:28:00.679Z</time></trkpt><trkpt lat="37.8266932" lon="12.7763959"><ele>449.6</ele><time>2026-04-28T09:28:01.68Z</time></trkpt><trkpt lat="37.8266681" lon="12.7762829"><ele>447.8</ele><time>2026-04-28T09:28:02.678Z</time></trkpt><trkpt lat="37.8266473" lon="12.7761672"><ele>446.0</ele><time>2026-04-28T09:28:03.678Z</time></trkpt><trkpt lat="37.8266195" lon="12.7760568"><ele>445.16666666666663</ele><time>2026-04-28T09:28:04.679Z</time></trkpt><trkpt lat="37.826595" lon="12.7759425"><ele>444.3333333333333</ele><time>2026-04-28T09:28:05.68Z</time></trkpt><trkpt lat="37.8265817" lon="12.7758394"><ele>443.5</ele><time>2026-04-28T09:28:06.678Z</time></trkpt><trkpt lat="37.8265617" lon="12.7757364"><ele>442.66666666666663</ele><time>2026-04-28T09:28:07.679Z</time></trkpt><trkpt lat="37.8265449" lon="12.7756413"><ele>441.8333333333333</ele><time>2026-04-28T09:28:08.68Z</time></trkpt><trkpt lat="37.826524" lon="12.7755455"><ele>441.0</ele><time>2026-04-28T09:28:09.678Z</time></trkpt><trkpt lat="37.8265056" lon="12.7754455"><ele>441.0</ele><time>2026-04-28T09:28:10.678Z</time></trkpt><trkpt lat="37.8264889" lon="12.7753463"><ele>441.0</ele><time>2026-04-28T09:28:11.679Z</time></trkpt><trkpt lat="37.8264701" lon="12.7752515"><ele>441.0</ele><time>2026-04-28T09:28:12.679Z</time></trkpt><trkpt lat="37.8264528" lon="12.7751538"><ele>441.0</ele><time>2026-04-28T09:28:13.678Z</time></trkpt><trkpt lat="37.8264365" lon="12.7750734"><ele>441.0</ele><time>2026-04-28T09:28:14.678Z</time></trkpt><trkpt lat="37.8264197" lon="12.7749858"><ele>441.0</ele><time>2026-04-28T09:28:15.678Z</time></trkpt><trkpt lat="37.8264041" lon="12.7749056"><ele>441.0</ele><time>2026-04-28T09:28:16.679Z</time></trkpt><trkpt lat="37.8263927" lon="12.7748234"><ele>440.5</ele><time>2026-04-28T09:28:17.678Z</time></trkpt><trkpt lat="37.8263681" lon="12.7747012"><ele>440.0</ele><time>2026-04-28T09:28:19.678Z</time></trkpt><trkpt lat="37.8263462" lon="12.7746056"><ele>439.5</ele><time>2026-04-28T09:28:21.678Z</time></trkpt><trkpt lat="37.8263085" lon="12.7744764"><ele>439.0</ele><time>2026-04-28T09:28:23.678Z</time></trkpt><trkpt lat="37.8262887" lon="12.7743894"><ele>438.5</ele><time>2026-04-28T09:28:24.679Z</time></trkpt><trkpt lat="37.8262719" lon="12.7743007"><ele>438.0</ele><time>2026-04-28T09:28:25.679Z</time></trkpt><trkpt lat="37.8262603" lon="12.7741926"><ele>437.75</ele><time>2026-04-28T09:28:26.679Z</time></trkpt><trkpt lat="37.8262393" lon="12.7740666"><ele>437.5</ele><time>2026-04-28T09:28:27.679Z</time></trkpt><trkpt lat="37.8262188" lon="12.7739256"><ele>437.25</ele><time>2026-04-28T09:28:28.678Z</time></trkpt><trkpt lat="37.8261981" lon="12.7737571"><ele>437.0</ele><time>2026-04-28T09:28:29.678Z</time></trkpt><trkpt lat="37.8261716" lon="12.7735984"><ele>436.0</ele><time>2026-04-28T09:28:30.678Z</time></trkpt><trkpt lat="37.8261312" lon="12.7734282"><ele>435.0</ele><time>2026-04-28T09:28:31.678Z</time></trkpt><trkpt lat="37.8260985" lon="12.7732605"><ele>434.0</ele><time>2026-04-28T09:28:32.679Z</time></trkpt><trkpt lat="37.8260745" lon="12.7730876"><ele>433.0</ele><time>2026-04-28T09:28:33.679Z</time></trkpt><trkpt lat="37.8260626" lon="12.7729244"><ele>433.0</ele><time>2026-04-28T09:28:34.678Z</time></trkpt><trkpt lat="37.826064" lon="12.7727634"><ele>433.0</ele><time>2026-04-28T09:28:35.68Z</time></trkpt><trkpt lat="37.826085" lon="12.7726205"><ele>433.0</ele><time>2026-04-28T09:28:36.678Z</time></trkpt><trkpt lat="37.8261309" lon="12.7724916"><ele>433.0</ele><time>2026-04-28T09:28:37.679Z</time></trkpt><trkpt lat="37.82621" lon="12.7723826"><ele>430.5</ele><time>2026-04-28T09:28:38.678Z</time></trkpt><trkpt lat="37.8263225" lon="12.7722972"><ele>428.0</ele><time>2026-04-28T09:28:39.679Z</time></trkpt><trkpt lat="37.8264564" lon="12.7722242"><ele>425.5</ele><time>2026-04-28T09:28:40.679Z</time></trkpt><trkpt lat="37.826608" lon="12.7721472"><ele>423.0</ele><time>2026-04-28T09:28:41.678Z</time></trkpt><trkpt lat="37.8267782" lon="12.7720617"><ele>421.66666666666663</ele><time>2026-04-28T09:28:42.679Z</time></trkpt><trkpt lat="37.8269703" lon="12.7719856"><ele>420.3333333333333</ele><time>2026-04-28T09:28:43.678Z</time></trkpt><trkpt lat="37.8271543" lon="12.771897"><ele>419.0</ele><time>2026-04-28T09:28:44.678Z</time></trkpt><trkpt lat="37.8273374" lon="12.7718134"><ele>419.0</ele><time>2026-04-28T09:28:45.678Z</time></trkpt><trkpt lat="37.8275196" lon="12.7717419"><ele>419.0</ele><time>2026-04-28T09:28:46.678Z</time></trkpt><trkpt lat="37.8276935" lon="12.7716626"><ele>419.0</ele><time>2026-04-28T09:28:47.679Z</time></trkpt><trkpt lat="37.82785" lon="12.7715867"><ele>417.25</ele><time>2026-04-28T09:28:48.678Z</time></trkpt><trkpt lat="37.8279941" lon="12.7715174"><ele>415.5</ele><time>2026-04-28T09:28:49.678Z</time></trkpt><trkpt lat="37.828128" lon="12.7714492"><ele>413.75</ele><time>2026-04-28T09:28:50.679Z</time></trkpt><trkpt lat="37.8282393" lon="12.7713584"><ele>412.0</ele><time>2026-04-28T09:28:51.678Z</time></trkpt><trkpt lat="37.8283386" lon="12.7712423"><ele>412.0</ele><time>2026-04-28T09:28:52.678Z</time></trkpt><trkpt lat="37.8284184" lon="12.7710961"><ele>412.0</ele><time>2026-04-28T09:28:53.68Z</time></trkpt><trkpt lat="37.8284834" lon="12.7709169"><ele>412.0</ele><time>2026-04-28T09:28:54.678Z</time></trkpt><trkpt lat="37.8285379" lon="12.770712"><ele>408.6666666666667</ele><time>2026-04-28T09:28:55.678Z</time></trkpt><trkpt lat="37.8286019" lon="12.7704975"><ele>405.33333333333337</ele><time>2026-04-28T09:28:56.679Z</time></trkpt><trkpt lat="37.8286574" lon="12.7702718"><ele>402.0</ele><time>2026-04-28T09:28:57.679Z</time></trkpt><trkpt lat="37.8287038" lon="12.7700764"><ele>401.0</ele><time>2026-04-28T09:28:58.679Z</time></trkpt><trkpt lat="37.8287399" lon="12.769887"><ele>400.0</ele><time>2026-04-28T09:28:59.678Z</time></trkpt><trkpt lat="37.8287572" lon="12.7696803"><ele>399.0</ele><time>2026-04-28T09:29:00.678Z</time></trkpt><trkpt lat="37.8287682" lon="12.7694588"><ele>398.66666666666663</ele><time>2026-04-28T09:29:01.679Z</time></trkpt><trkpt lat="37.8287785" lon="12.7692224"><ele>398.3333333333333</ele><time>2026-04-28T09:29:02.678Z</time></trkpt><trkpt lat="37.828785" lon="12.7689921"><ele>398.0</ele><time>2026-04-28T09:29:03.679Z</time></trkpt><trkpt lat="37.8287915" lon="12.7687776"><ele>398.0</ele><time>2026-04-28T09:29:04.679Z</time></trkpt><trkpt lat="37.8287895" lon="12.768616"><ele>398.0</ele><time>2026-04-28T09:29:05.678Z</time></trkpt><trkpt lat="37.8287873" lon="12.7684579"><ele>398.0</ele><time>2026-04-28T09:29:06.679Z</time></trkpt><trkpt lat="37.8287882" lon="12.7683108"><ele>398.0</ele><time>2026-04-28T09:29:07.679Z</time></trkpt><trkpt lat="37.828813" lon="12.7681937"><ele>396.79999999999995</ele><time>2026-04-28T09:29:08.678Z</time></trkpt><trkpt lat="37.8288562" lon="12.7680908"><ele>395.6</ele><time>2026-04-28T09:29:09.678Z</time></trkpt><trkpt lat="37.8289288" lon="12.7680393"><ele>394.4</ele><time>2026-04-28T09:29:10.678Z</time></trkpt><trkpt lat="37.8290276" lon="12.7680104"><ele>393.20000000000005</ele><time>2026-04-28T09:29:11.678Z</time></trkpt><trkpt lat="37.8291502" lon="12.767966"><ele>392.0</ele><time>2026-04-28T09:29:12.679Z</time></trkpt><trkpt lat="37.8292938" lon="12.7679203"><ele>394.0</ele><time>2026-04-28T09:29:13.679Z</time></trkpt><trkpt lat="37.8294329" lon="12.7678839"><ele>396.0</ele><time>2026-04-28T09:29:14.678Z</time></trkpt><trkpt lat="37.8295479" lon="12.7678507"><ele>398.0</ele><time>2026-04-28T09:29:15.678Z</time></trkpt><trkpt lat="37.8296365" lon="12.767799"><ele>400.0</ele><time>2026-04-28T09:29:16.679Z</time></trkpt><trkpt lat="37.8297001" lon="12.7677214"><ele>402.0</ele><time>2026-04-28T09:29:17.679Z</time></trkpt><trkpt lat="37.8297251" lon="12.7676277"><ele>402.75</ele><time>2026-04-28T09:29:18.679Z</time></trkpt><trkpt lat="37.8297273" lon="12.7674928"><ele>403.5</ele><time>2026-04-28T09:29:19.678Z</time></trkpt><trkpt lat="37.8296909" lon="12.7673357"><ele>404.25</ele><time>2026-04-28T09:29:20.679Z</time></trkpt><trkpt lat="37.8296374" lon="12.7671563"><ele>405.0</ele><time>2026-04-28T09:29:21.678Z</time></trkpt><trkpt lat="37.8295663" lon="12.7669576"><ele>408.0</ele><time>2026-04-28T09:29:22.68Z</time></trkpt><trkpt lat="37.8294835" lon="12.7667473"><ele>411.0</ele><time>2026-04-28T09:29:23.678Z</time></trkpt><trkpt lat="37.8293915" lon="12.7665249"><ele>414.0</ele><time>2026-04-28T09:29:24.678Z</time></trkpt><trkpt lat="37.8293161" lon="12.7663018"><ele>407.0</ele><time>2026-04-28T09:29:25.679Z</time></trkpt><trkpt lat="37.8292405" lon="12.7660727"><ele>400.0</ele><time>2026-04-28T09:29:26.678Z</time></trkpt><trkpt lat="37.8291652" lon="12.7658493"><ele>393.0</ele><time>2026-04-28T09:29:27.678Z</time></trkpt><trkpt lat="37.8291027" lon="12.7656267"><ele>393.0</ele><time>2026-04-28T09:29:28.679Z</time></trkpt><trkpt lat="37.8290594" lon="12.7654104"><ele>393.0</ele><time>2026-04-28T09:29:29.678Z</time></trkpt><trkpt lat="37.8290274" lon="12.7651824"><ele>393.0</ele><time>2026-04-28T09:29:30.678Z</time></trkpt><trkpt lat="37.8290032" lon="12.7649466"><ele>394.0</ele><time>2026-04-28T09:29:31.679Z</time></trkpt><trkpt lat="37.8289931" lon="12.764708"><ele>395.0</ele><time>2026-04-28T09:29:32.68Z</time></trkpt><trkpt lat="37.8289901" lon="12.7644749"><ele>396.0</ele><time>2026-04-28T09:29:33.678Z</time></trkpt><trkpt lat="37.8289904" lon="12.7642565"><ele>396.0</ele><time>2026-04-28T09:29:34.678Z</time></trkpt><trkpt lat="37.8289939" lon="12.7640491"><ele>396.0</ele><time>2026-04-28T09:29:35.679Z</time></trkpt><trkpt lat="37.8289784" lon="12.7638345"><ele>396.0</ele><time>2026-04-28T09:29:36.678Z</time></trkpt><trkpt lat="37.8289505" lon="12.763615"><ele>398.0</ele><time>2026-04-28T09:29:37.678Z</time></trkpt><trkpt lat="37.8289037" lon="12.7633893"><ele>400.0</ele><time>2026-04-28T09:29:38.679Z</time></trkpt><trkpt lat="37.82885" lon="12.7631734"><ele>402.0</ele><time>2026-04-28T09:29:39.678Z</time></trkpt><trkpt lat="37.8287808" lon="12.7629765"><ele>402.0</ele><time>2026-04-28T09:29:40.679Z</time></trkpt><trkpt lat="37.8286815" lon="12.7627655"><ele>402.0</ele><time>2026-04-28T09:29:41.678Z</time></trkpt><trkpt lat="37.8285707" lon="12.7625608"><ele>402.0</ele><time>2026-04-28T09:29:42.679Z</time></trkpt><trkpt lat="37.8284421" lon="12.7623407"><ele>399.0</ele><time>2026-04-28T09:29:43.678Z</time></trkpt><trkpt lat="37.8283203" lon="12.7621312"><ele>396.0</ele><time>2026-04-28T09:29:44.679Z</time></trkpt><trkpt lat="37.8281896" lon="12.761928"><ele>393.0</ele><time>2026-04-28T09:29:45.679Z</time></trkpt><trkpt lat="37.8280781" lon="12.7617404"><ele>393.0</ele><time>2026-04-28T09:29:46.679Z</time></trkpt><trkpt lat="37.827962" lon="12.7615478"><ele>393.0</ele><time>2026-04-28T09:29:47.678Z</time></trkpt><trkpt lat="37.8278517" lon="12.7613539"><ele>393.0</ele><time>2026-04-28T09:29:48.679Z</time></trkpt><trkpt lat="37.8277455" lon="12.761147"><ele>395.66666666666663</ele><time>2026-04-28T09:29:49.678Z</time></trkpt><trkpt lat="37.8276533" lon="12.760941"><ele>398.3333333333333</ele><time>2026-04-28T09:29:50.679Z</time></trkpt><trkpt lat="37.8275652" lon="12.7607299"><ele>401.0</ele><time>2026-04-28T09:29:51.679Z</time></trkpt><trkpt lat="37.8274836" lon="12.7605377"><ele>397.0</ele><time>2026-04-28T09:29:52.678Z</time></trkpt><trkpt lat="37.8273988" lon="12.7603637"><ele>393.0</ele><time>2026-04-28T09:29:53.68Z</time></trkpt><trkpt lat="37.8272991" lon="12.760204"><ele>389.0</ele><time>2026-04-28T09:29:54.678Z</time></trkpt><trkpt lat="37.8271809" lon="12.7600609"><ele>389.0</ele><time>2026-04-28T09:29:55.678Z</time></trkpt><trkpt lat="37.8270419" lon="12.7599306"><ele>389.0</ele><time>2026-04-28T09:29:56.678Z</time></trkpt><trkpt lat="37.8268896" lon="12.7598075"><ele>389.0</ele><time>2026-04-28T09:29:57.678Z</time></trkpt><trkpt lat="37.8267438" lon="12.7596953"><ele>380.0</ele><time>2026-04-28T09:29:58.679Z</time></trkpt><trkpt lat="37.8265732" lon="12.7595909"><ele>371.0</ele><time>2026-04-28T09:29:59.679Z</time></trkpt><trkpt lat="37.8263907" lon="12.7595059"><ele>362.0</ele><time>2026-04-28T09:30:00.679Z</time></trkpt><trkpt lat="37.8261938" lon="12.7594298"><ele>366.0</ele><time>2026-04-28T09:30:01.679Z</time></trkpt><trkpt lat="37.825996" lon="12.7593627"><ele>370.0</ele><time>2026-04-28T09:30:02.678Z</time></trkpt><trkpt lat="37.8258206" lon="12.7593034"><ele>374.0</ele><time>2026-04-28T09:30:03.679Z</time></trkpt><trkpt lat="37.8256555" lon="12.7592548"><ele>374.0</ele><time>2026-04-28T09:30:04.679Z</time></trkpt><trkpt lat="37.8255055" lon="12.7592083"><ele>374.0</ele><time>2026-04-28T09:30:05.679Z</time></trkpt><trkpt lat="37.8253697" lon="12.7591508"><ele>374.0</ele><time>2026-04-28T09:30:06.678Z</time></trkpt><trkpt lat="37.8252525" lon="12.75907"><ele>374.0</ele><time>2026-04-28T09:30:07.678Z</time></trkpt><trkpt lat="37.8251402" lon="12.7589586"><ele>372.33333333333337</ele><time>2026-04-28T09:30:08.679Z</time></trkpt><trkpt lat="37.8250412" lon="12.7588044"><ele>370.6666666666667</ele><time>2026-04-28T09:30:09.678Z</time></trkpt><trkpt lat="37.8249453" lon="12.7586216"><ele>369.0</ele><time>2026-04-28T09:30:10.679Z</time></trkpt><trkpt lat="37.8248486" lon="12.7584313"><ele>369.0</ele><time>2026-04-28T09:30:11.678Z</time></trkpt><trkpt lat="37.8247377" lon="12.758234"><ele>369.0</ele><time>2026-04-28T09:30:12.679Z</time></trkpt><trkpt lat="37.824615" lon="12.7580239"><ele>369.0</ele><time>2026-04-28T09:30:13.678Z</time></trkpt><trkpt lat="37.8244906" lon="12.7578201"><ele>373.3333333333333</ele><time>2026-04-28T09:30:14.678Z</time></trkpt><trkpt lat="37.8243685" lon="12.7576037"><ele>377.66666666666663</ele><time>2026-04-28T09:30:15.679Z</time></trkpt><trkpt lat="37.8242472" lon="12.7573663"><ele>382.0</ele><time>2026-04-28T09:30:16.678Z</time></trkpt><trkpt lat="37.8241408" lon="12.7571312"><ele>376.3333333333333</ele><time>2026-04-28T09:30:17.679Z</time></trkpt><trkpt lat="37.824043" lon="12.7569072"><ele>370.6666666666667</ele><time>2026-04-28T09:30:18.678Z</time></trkpt><trkpt lat="37.8239443" lon="12.7566928"><ele>365.0</ele><time>2026-04-28T09:30:19.678Z</time></trkpt><trkpt lat="37.8238459" lon="12.7564915"><ele>365.0</ele><time>2026-04-28T09:30:20.678Z</time></trkpt><trkpt lat="37.8237473" lon="12.756301"><ele>365.0</ele><time>2026-04-28T09:30:21.678Z</time></trkpt><trkpt lat="37.8236521" lon="12.756104"><ele>365.0</ele><time>2026-04-28T09:30:22.679Z</time></trkpt><trkpt lat="37.8235657" lon="12.7558897"><ele>362.6666666666667</ele><time>2026-04-28T09:30:23.678Z</time></trkpt><trkpt lat="37.8234749" lon="12.7556451"><ele>360.3333333333333</ele><time>2026-04-28T09:30:24.68Z</time></trkpt><trkpt lat="37.8233811" lon="12.7553942"><ele>358.0</ele><time>2026-04-28T09:30:25.679Z</time></trkpt><trkpt lat="37.8232851" lon="12.7551536"><ele>358.0</ele><time>2026-04-28T09:30:26.679Z</time></trkpt><trkpt lat="37.8231789" lon="12.7549165"><ele>358.0</ele><time>2026-04-28T09:30:27.678Z</time></trkpt><trkpt lat="37.8230726" lon="12.7546952"><ele>358.0</ele><time>2026-04-28T09:30:28.678Z</time></trkpt><trkpt lat="37.822973" lon="12.7544836"><ele>361.66666666666663</ele><time>2026-04-28T09:30:29.679Z</time></trkpt><trkpt lat="37.8228741" lon="12.7542893"><ele>365.3333333333333</ele><time>2026-04-28T09:30:30.678Z</time></trkpt><trkpt lat="37.8227754" lon="12.7541038"><ele>369.0</ele><time>2026-04-28T09:30:31.679Z</time></trkpt><trkpt lat="37.8226547" lon="12.7539418"><ele>357.6666666666667</ele><time>2026-04-28T09:30:32.679Z</time></trkpt><trkpt lat="37.8225268" lon="12.753799"><ele>346.33333333333337</ele><time>2026-04-28T09:30:33.678Z</time></trkpt><trkpt lat="37.822382" lon="12.7536663"><ele>335.0</ele><time>2026-04-28T09:30:34.679Z</time></trkpt><trkpt lat="37.8222179" lon="12.7535565"><ele>335.6666666666667</ele><time>2026-04-28T09:30:35.678Z</time></trkpt><trkpt lat="37.8220295" lon="12.7534532"><ele>336.3333333333333</ele><time>2026-04-28T09:30:36.679Z</time></trkpt><trkpt lat="37.8218218" lon="12.7533781"><ele>337.0</ele><time>2026-04-28T09:30:37.678Z</time></trkpt><trkpt lat="37.8216015" lon="12.7532984"><ele>337.0</ele><time>2026-04-28T09:30:38.678Z</time></trkpt><trkpt lat="37.8213881" lon="12.7532223"><ele>337.0</ele><time>2026-04-28T09:30:39.679Z</time></trkpt><trkpt lat="37.8211878" lon="12.7531512"><ele>337.0</ele><time>2026-04-28T09:30:40.678Z</time></trkpt><trkpt lat="37.8210007" lon="12.7530882"><ele>333.66666666666663</ele><time>2026-04-28T09:30:41.678Z</time></trkpt><trkpt lat="37.8208338" lon="12.7530253"><ele>330.3333333333333</ele><time>2026-04-28T09:30:42.678Z</time></trkpt><trkpt lat="37.8206794" lon="12.7529714"><ele>327.0</ele><time>2026-04-28T09:30:43.679Z</time></trkpt><trkpt lat="37.8205405" lon="12.7529086"><ele>327.0</ele><time>2026-04-28T09:30:44.678Z</time></trkpt><trkpt lat="37.8204211" lon="12.7528316"><ele>327.0</ele><time>2026-04-28T09:30:45.678Z</time></trkpt><trkpt lat="37.8203193" lon="12.7527286"><ele>327.0</ele><time>2026-04-28T09:30:46.678Z</time></trkpt><trkpt lat="37.8202341" lon="12.7525857"><ele>327.0</ele><time>2026-04-28T09:30:47.68Z</time></trkpt><trkpt lat="37.8201641" lon="12.7524079"><ele>327.6666666666667</ele><time>2026-04-28T09:30:48.678Z</time></trkpt><trkpt lat="37.8200964" lon="12.7522042"><ele>328.33333333333337</ele><time>2026-04-28T09:30:49.679Z</time></trkpt><trkpt lat="37.8200333" lon="12.7520064"><ele>329.0</ele><time>2026-04-28T09:30:50.678Z</time></trkpt><trkpt lat="37.8199761" lon="12.7518174"><ele>329.0</ele><time>2026-04-28T09:30:51.679Z</time></trkpt><trkpt lat="37.8199348" lon="12.7516427"><ele>329.0</ele><time>2026-04-28T09:30:52.678Z</time></trkpt><trkpt lat="37.8199181" lon="12.7514627"><ele>329.0</ele><time>2026-04-28T09:30:53.679Z</time></trkpt><trkpt lat="37.8199172" lon="12.7512693"><ele>329.0</ele><time>2026-04-28T09:30:54.678Z</time></trkpt><trkpt lat="37.8199377" lon="12.7510597"><ele>327.33333333333337</ele><time>2026-04-28T09:30:55.68Z</time></trkpt><trkpt lat="37.8199808" lon="12.7508437"><ele>325.6666666666667</ele><time>2026-04-28T09:30:56.678Z</time></trkpt><trkpt lat="37.820043" lon="12.7506109"><ele>324.0</ele><time>2026-04-28T09:30:57.678Z</time></trkpt><trkpt lat="37.8201114" lon="12.7503668"><ele>329.3333333333333</ele><time>2026-04-28T09:30:58.678Z</time></trkpt><trkpt lat="37.8201831" lon="12.7501148"><ele>334.66666666666663</ele><time>2026-04-28T09:30:59.678Z</time></trkpt><trkpt lat="37.8202615" lon="12.7498531"><ele>340.0</ele><time>2026-04-28T09:31:00.679Z</time></trkpt><trkpt lat="37.8203362" lon="12.7495951"><ele>335.0</ele><time>2026-04-28T09:31:01.678Z</time></trkpt><trkpt lat="37.8204142" lon="12.7493525"><ele>330.0</ele><time>2026-04-28T09:31:02.679Z</time></trkpt><trkpt lat="37.8204863" lon="12.7491181"><ele>325.0</ele><time>2026-04-28T09:31:03.679Z</time></trkpt><trkpt lat="37.8205611" lon="12.7488951"><ele>325.0</ele><time>2026-04-28T09:31:04.678Z</time></trkpt><trkpt lat="37.8206423" lon="12.7486663"><ele>325.0</ele><time>2026-04-28T09:31:05.679Z</time></trkpt><trkpt lat="37.8207373" lon="12.748443"><ele>325.0</ele><time>2026-04-28T09:31:06.679Z</time></trkpt><trkpt lat="37.8208266" lon="12.748218"><ele>327.0</ele><time>2026-04-28T09:31:07.679Z</time></trkpt><trkpt lat="37.8209237" lon="12.7479977"><ele>329.0</ele><time>2026-04-28T09:31:08.679Z</time></trkpt><trkpt lat="37.8210046" lon="12.7477978"><ele>331.0</ele><time>2026-04-28T09:31:09.678Z</time></trkpt><trkpt lat="37.8210943" lon="12.7476081"><ele>326.66666666666663</ele><time>2026-04-28T09:31:10.678Z</time></trkpt><trkpt lat="37.8211846" lon="12.7474382"><ele>322.3333333333333</ele><time>2026-04-28T09:31:11.678Z</time></trkpt><trkpt lat="37.8212907" lon="12.7472765"><ele>318.0</ele><time>2026-04-28T09:31:12.679Z</time></trkpt><trkpt lat="37.8214169" lon="12.7471196"><ele>318.0</ele><time>2026-04-28T09:31:13.678Z</time></trkpt><trkpt lat="37.8215526" lon="12.7469669"><ele>318.0</ele><time>2026-04-28T09:31:14.678Z</time></trkpt><trkpt lat="37.8216803" lon="12.746821"><ele>318.0</ele><time>2026-04-28T09:31:15.678Z</time></trkpt><trkpt lat="37.821809" lon="12.7466745"><ele>316.6666666666667</ele><time>2026-04-28T09:31:16.678Z</time></trkpt><trkpt lat="37.8219342" lon="12.7465051"><ele>315.33333333333337</ele><time>2026-04-28T09:31:17.68Z</time></trkpt><trkpt lat="37.8220539" lon="12.7463096"><ele>314.0</ele><time>2026-04-28T09:31:18.678Z</time></trkpt><trkpt lat="37.8221739" lon="12.7460952"><ele>307.5</ele><time>2026-04-28T09:31:19.678Z</time></trkpt><trkpt lat="37.8223037" lon="12.7458514"><ele>301.0</ele><time>2026-04-28T09:31:20.679Z</time></trkpt><trkpt lat="37.8224384" lon="12.7455923"><ele>301.0</ele><time>2026-04-28T09:31:21.678Z</time></trkpt><trkpt lat="37.8225666" lon="12.7453251"><ele>301.0</ele><time>2026-04-28T09:31:22.679Z</time></trkpt><trkpt lat="37.8226876" lon="12.7450954"><ele>300.0</ele><time>2026-04-28T09:31:23.678Z</time></trkpt><trkpt lat="37.8227975" lon="12.7448771"><ele>299.0</ele><time>2026-04-28T09:31:24.679Z</time></trkpt><trkpt lat="37.8229058" lon="12.7446825"><ele>298.0</ele><time>2026-04-28T09:31:25.678Z</time></trkpt><trkpt lat="37.8230095" lon="12.7444959"><ele>295.0</ele><time>2026-04-28T09:31:26.679Z</time></trkpt><trkpt lat="37.8230995" lon="12.744323"><ele>292.0</ele><time>2026-04-28T09:31:27.678Z</time></trkpt><trkpt lat="37.8231851" lon="12.7441597"><ele>289.0</ele><time>2026-04-28T09:31:28.679Z</time></trkpt><trkpt lat="37.8232648" lon="12.7440012"><ele>289.0</ele><time>2026-04-28T09:31:29.678Z</time></trkpt><trkpt lat="37.8233186" lon="12.7438514"><ele>289.0</ele><time>2026-04-28T09:31:30.678Z</time></trkpt><trkpt lat="37.8233472" lon="12.7437058"><ele>289.0</ele><time>2026-04-28T09:31:31.678Z</time></trkpt><trkpt lat="37.8233598" lon="12.7435755"><ele>289.0</ele><time>2026-04-28T09:31:32.679Z</time></trkpt><trkpt lat="37.8233466" lon="12.7434659"><ele>289.0</ele><time>2026-04-28T09:31:33.679Z</time></trkpt><trkpt lat="37.8233005" lon="12.7433669"><ele>289.5</ele><time>2026-04-28T09:31:34.68Z</time></trkpt><trkpt lat="37.8232148" lon="12.743285"><ele>290.0</ele><time>2026-04-28T09:31:35.68Z</time></trkpt><trkpt lat="37.8230869" lon="12.743204"><ele>290.5</ele><time>2026-04-28T09:31:36.678Z</time></trkpt><trkpt lat="37.8229333" lon="12.743114"><ele>291.0</ele><time>2026-04-28T09:31:37.678Z</time></trkpt><trkpt lat="37.8227503" lon="12.7430254"><ele>288.6666666666667</ele><time>2026-04-28T09:31:38.678Z</time></trkpt><trkpt lat="37.8225491" lon="12.7429224"><ele>286.33333333333337</ele><time>2026-04-28T09:31:39.678Z</time></trkpt><trkpt lat="37.8223497" lon="12.7428211"><ele>284.0</ele><time>2026-04-28T09:31:40.678Z</time></trkpt><trkpt lat="37.8221611" lon="12.7427125"><ele>285.6666666666667</ele><time>2026-04-28T09:31:41.679Z</time></trkpt><trkpt lat="37.8219761" lon="12.7425844"><ele>287.3333333333333</ele><time>2026-04-28T09:31:42.679Z</time></trkpt><trkpt lat="37.8217892" lon="12.7424341"><ele>289.0</ele><time>2026-04-28T09:31:43.678Z</time></trkpt><trkpt lat="37.8216032" lon="12.7422758"><ele>289.0</ele><time>2026-04-28T09:31:44.678Z</time></trkpt><trkpt lat="37.8214322" lon="12.7421247"><ele>289.0</ele><time>2026-04-28T09:31:45.679Z</time></trkpt><trkpt lat="37.8212786" lon="12.7419803"><ele>289.0</ele><time>2026-04-28T09:31:46.679Z</time></trkpt><trkpt lat="37.821141" lon="12.7418493"><ele>289.0</ele><time>2026-04-28T09:31:47.678Z</time></trkpt><trkpt lat="37.8210092" lon="12.7417418"><ele>289.0</ele><time>2026-04-28T09:31:48.678Z</time></trkpt><trkpt lat="37.8208711" lon="12.741669"><ele>289.0</ele><time>2026-04-28T09:31:49.678Z</time></trkpt><trkpt lat="37.8207074" lon="12.7416266"><ele>289.0</ele><time>2026-04-28T09:31:50.68Z</time></trkpt><trkpt lat="37.8205275" lon="12.7416068"><ele>289.0</ele><time>2026-04-28T09:31:51.678Z</time></trkpt><trkpt lat="37.8203509" lon="12.7415964"><ele>289.0</ele><time>2026-04-28T09:31:52.678Z</time></trkpt><trkpt lat="37.8201874" lon="12.7415762"><ele>287.0</ele><time>2026-04-28T09:31:53.678Z</time></trkpt><trkpt lat="37.820014" lon="12.7415356"><ele>285.0</ele><time>2026-04-28T09:31:54.678Z</time></trkpt><trkpt lat="37.8198364" lon="12.7414626"><ele>283.0</ele><time>2026-04-28T09:31:55.679Z</time></trkpt><trkpt lat="37.8196754" lon="12.7413819"><ele>283.0</ele><time>2026-04-28T09:31:56.68Z</time></trkpt><trkpt lat="37.8195205" lon="12.7413011"><ele>283.0</ele><time>2026-04-28T09:31:57.678Z</time></trkpt><trkpt lat="37.8193848" lon="12.741218"><ele>283.0</ele><time>2026-04-28T09:31:58.678Z</time></trkpt><trkpt lat="37.8192759" lon="12.7411092"><ele>285.0</ele><time>2026-04-28T09:31:59.678Z</time></trkpt><trkpt lat="37.8191755" lon="12.740973"><ele>287.0</ele><time>2026-04-28T09:32:00.679Z</time></trkpt><trkpt lat="37.8190945" lon="12.740798"><ele>289.0</ele><time>2026-04-28T09:32:01.678Z</time></trkpt><trkpt lat="37.8190247" lon="12.7405882"><ele>289.0</ele><time>2026-04-28T09:32:02.68Z</time></trkpt><trkpt lat="37.8189622" lon="12.7403418"><ele>289.0</ele><time>2026-04-28T09:32:03.678Z</time></trkpt><trkpt lat="37.8189073" lon="12.7401018"><ele>289.0</ele><time>2026-04-28T09:32:04.68Z</time></trkpt><trkpt lat="37.8188641" lon="12.7398622"><ele>289.3333333333333</ele><time>2026-04-28T09:32:05.678Z</time></trkpt><trkpt lat="37.8188221" lon="12.7396184"><ele>289.6666666666667</ele><time>2026-04-28T09:32:06.678Z</time></trkpt><trkpt lat="37.8188016" lon="12.7393571"><ele>290.0</ele><time>2026-04-28T09:32:07.679Z</time></trkpt><trkpt lat="37.8187939" lon="12.7390922"><ele>290.5</ele><time>2026-04-28T09:32:08.679Z</time></trkpt><trkpt lat="37.8187859" lon="12.738803"><ele>291.0</ele><time>2026-04-28T09:32:09.678Z</time></trkpt><trkpt lat="37.8187806" lon="12.7385088"><ele>289.0</ele><time>2026-04-28T09:32:10.679Z</time></trkpt><trkpt lat="37.8187755" lon="12.7381783"><ele>287.0</ele><time>2026-04-28T09:32:11.679Z</time></trkpt><trkpt lat="37.8187736" lon="12.7378882"><ele>285.6666666666667</ele><time>2026-04-28T09:32:12.678Z</time></trkpt><trkpt lat="37.8187674" lon="12.7376053"><ele>284.3333333333333</ele><time>2026-04-28T09:32:13.679Z</time></trkpt><trkpt lat="37.8187685" lon="12.7373284"><ele>283.0</ele><time>2026-04-28T09:32:14.679Z</time></trkpt><trkpt lat="37.8187621" lon="12.737053"><ele>282.0</ele><time>2026-04-28T09:32:15.679Z</time></trkpt><trkpt lat="37.8187565" lon="12.73678"><ele>281.0</ele><time>2026-04-28T09:32:16.678Z</time></trkpt><trkpt lat="37.8187502" lon="12.7365057"><ele>280.0</ele><time>2026-04-28T09:32:17.678Z</time></trkpt><trkpt lat="37.8187443" lon="12.7362359"><ele>279.0</ele><time>2026-04-28T09:32:18.678Z</time></trkpt><trkpt lat="37.8187393" lon="12.73597"><ele>278.0</ele><time>2026-04-28T09:32:19.678Z</time></trkpt><trkpt lat="37.8187307" lon="12.7357151"><ele>277.0</ele><time>2026-04-28T09:32:20.679Z</time></trkpt><trkpt lat="37.818726" lon="12.7354825"><ele>277.0</ele><time>2026-04-28T09:32:21.68Z</time></trkpt><trkpt lat="37.8187212" lon="12.7352742"><ele>277.0</ele><time>2026-04-28T09:32:22.68Z</time></trkpt><trkpt lat="37.8187033" lon="12.7350772"><ele>277.0</ele><time>2026-04-28T09:32:23.679Z</time></trkpt><trkpt lat="37.8186641" lon="12.7348996"><ele>276.0</ele><time>2026-04-28T09:32:24.678Z</time></trkpt><trkpt lat="37.8185957" lon="12.7347221"><ele>275.0</ele><time>2026-04-28T09:32:25.678Z</time></trkpt><trkpt lat="37.8184922" lon="12.7345654"><ele>274.0</ele><time>2026-04-28T09:32:26.679Z</time></trkpt><trkpt lat="37.8183615" lon="12.7344174"><ele>271.3333333333333</ele><time>2026-04-28T09:32:27.678Z</time></trkpt><trkpt lat="37.8182146" lon="12.7342932"><ele>268.6666666666667</ele><time>2026-04-28T09:32:28.679Z</time></trkpt><trkpt lat="37.8180685" lon="12.7341818"><ele>266.0</ele><time>2026-04-28T09:32:29.678Z</time></trkpt><trkpt lat="37.8179389" lon="12.7340768"><ele>266.0</ele><time>2026-04-28T09:32:30.678Z</time></trkpt><trkpt lat="37.8178304" lon="12.7339795"><ele>266.0</ele><time>2026-04-28T09:32:31.678Z</time></trkpt><trkpt lat="37.8177423" lon="12.7338566"><ele>266.0</ele><time>2026-04-28T09:32:32.679Z</time></trkpt><trkpt lat="37.8176726" lon="12.7337195"><ele>266.0</ele><time>2026-04-28T09:32:33.678Z</time></trkpt><trkpt lat="37.8176258" lon="12.7335542"><ele>263.6666666666667</ele><time>2026-04-28T09:32:34.68Z</time></trkpt><trkpt lat="37.8175943" lon="12.7333504"><ele>261.3333333333333</ele><time>2026-04-28T09:32:35.678Z</time></trkpt><trkpt lat="37.8175718" lon="12.7331119"><ele>259.0</ele><time>2026-04-28T09:32:36.678Z</time></trkpt><trkpt lat="37.8175491" lon="12.7328388"><ele>258.0</ele><time>2026-04-28T09:32:37.679Z</time></trkpt><trkpt lat="37.8175328" lon="12.7325479"><ele>257.0</ele><time>2026-04-28T09:32:38.679Z</time></trkpt><trkpt lat="37.8175105" lon="12.7322844"><ele>256.0</ele><time>2026-04-28T09:32:39.678Z</time></trkpt><trkpt lat="37.8174941" lon="12.7320264"><ele>255.66666666666666</ele><time>2026-04-28T09:32:40.679Z</time></trkpt><trkpt lat="37.8174807" lon="12.7317839"><ele>255.33333333333331</ele><time>2026-04-28T09:32:41.678Z</time></trkpt><trkpt lat="37.8174543" lon="12.7315618"><ele>255.0</ele><time>2026-04-28T09:32:42.679Z</time></trkpt><trkpt lat="37.8174152" lon="12.7313522"><ele>255.0</ele><time>2026-04-28T09:32:43.678Z</time></trkpt><trkpt lat="37.8173512" lon="12.7311482"><ele>255.0</ele><time>2026-04-28T09:32:44.679Z</time></trkpt><trkpt lat="37.8172569" lon="12.7309408"><ele>255.0</ele><time>2026-04-28T09:32:45.68Z</time></trkpt><trkpt lat="37.8171391" lon="12.7307332"><ele>255.0</ele><time>2026-04-28T09:32:46.679Z</time></trkpt><trkpt lat="37.8170046" lon="12.7305151"><ele>255.0</ele><time>2026-04-28T09:32:47.679Z</time></trkpt><trkpt lat="37.8168666" lon="12.7302986"><ele>255.0</ele><time>2026-04-28T09:32:48.679Z</time></trkpt><trkpt lat="37.8167193" lon="12.7300723"><ele>251.0</ele><time>2026-04-28T09:32:49.68Z</time></trkpt><trkpt lat="37.8165744" lon="12.7298439"><ele>247.0</ele><time>2026-04-28T09:32:50.678Z</time></trkpt><trkpt lat="37.816405" lon="12.729589"><ele>246.0</ele><time>2026-04-28T09:32:51.68Z</time></trkpt><trkpt lat="37.816241" lon="12.7293173"><ele>245.0</ele><time>2026-04-28T09:32:52.679Z</time></trkpt><trkpt lat="37.8160681" lon="12.7290449"><ele>243.5</ele><time>2026-04-28T09:32:53.68Z</time></trkpt><trkpt lat="37.8158912" lon="12.7287484"><ele>242.0</ele><time>2026-04-28T09:32:54.678Z</time></trkpt><trkpt lat="37.8157115" lon="12.7284598"><ele>241.5</ele><time>2026-04-28T09:32:55.679Z</time></trkpt><trkpt lat="37.8155398" lon="12.7281734"><ele>241.0</ele><time>2026-04-28T09:32:56.679Z</time></trkpt><trkpt lat="37.8153622" lon="12.7278847"><ele>240.0</ele><time>2026-04-28T09:32:57.678Z</time></trkpt><trkpt lat="37.8151859" lon="12.7275973"><ele>239.0</ele><time>2026-04-28T09:32:58.679Z</time></trkpt><trkpt lat="37.8150077" lon="12.7273191"><ele>239.0</ele><time>2026-04-28T09:32:59.68Z</time></trkpt><trkpt lat="37.8148353" lon="12.7270392"><ele>239.0</ele><time>2026-04-28T09:33:00.678Z</time></trkpt><trkpt lat="37.8146591" lon="12.726758"><ele>238.0</ele><time>2026-04-28T09:33:01.679Z</time></trkpt><trkpt lat="37.8144892" lon="12.7264864"><ele>237.0</ele><time>2026-04-28T09:33:02.679Z</time></trkpt><trkpt lat="37.8143127" lon="12.7262108"><ele>235.0</ele><time>2026-04-28T09:33:03.68Z</time></trkpt><trkpt lat="37.814135" lon="12.7259205"><ele>233.0</ele><time>2026-04-28T09:33:04.68Z</time></trkpt><trkpt lat="37.813955" lon="12.7256361"><ele>233.0</ele><time>2026-04-28T09:33:05.679Z</time></trkpt><trkpt lat="37.8137743" lon="12.7253497"><ele>233.0</ele><time>2026-04-28T09:33:06.678Z</time></trkpt><trkpt lat="37.8135904" lon="12.7250628"><ele>231.0</ele><time>2026-04-28T09:33:07.679Z</time></trkpt><trkpt lat="37.8134132" lon="12.724785"><ele>229.0</ele><time>2026-04-28T09:33:08.679Z</time></trkpt><trkpt lat="37.8132473" lon="12.7245165"><ele>228.5</ele><time>2026-04-28T09:33:09.68Z</time></trkpt><trkpt lat="37.8130902" lon="12.7242521"><ele>228.0</ele><time>2026-04-28T09:33:10.679Z</time></trkpt><trkpt lat="37.8129353" lon="12.7239988"><ele>228.0</ele><time>2026-04-28T09:33:11.679Z</time></trkpt><trkpt lat="37.8127761" lon="12.7237434"><ele>228.0</ele><time>2026-04-28T09:33:12.679Z</time></trkpt><trkpt lat="37.8126345" lon="12.7235007"><ele>226.66666666666669</ele><time>2026-04-28T09:33:13.679Z</time></trkpt><trkpt lat="37.8124948" lon="12.7232722"><ele>225.33333333333334</ele><time>2026-04-28T09:33:14.68Z</time></trkpt><trkpt lat="37.8123618" lon="12.7230587"><ele>224.0</ele><time>2026-04-28T09:33:15.678Z</time></trkpt><trkpt lat="37.8122383" lon="12.722862"><ele>224.33333333333334</ele><time>2026-04-28T09:33:16.679Z</time></trkpt><trkpt lat="37.8121082" lon="12.7226878"><ele>224.66666666666669</ele><time>2026-04-28T09:33:17.679Z</time></trkpt><trkpt lat="37.81196" lon="12.7225324"><ele>225.0</ele><time>2026-04-28T09:33:18.679Z</time></trkpt><trkpt lat="37.8118011" lon="12.7223899"><ele>225.0</ele><time>2026-04-28T09:33:19.679Z</time></trkpt><trkpt lat="37.811652" lon="12.7222302"><ele>225.0</ele><time>2026-04-28T09:33:20.679Z</time></trkpt><trkpt lat="37.8115071" lon="12.7220645"><ele>225.0</ele><time>2026-04-28T09:33:21.679Z</time></trkpt><trkpt lat="37.8113765" lon="12.7218768"><ele>228.66666666666669</ele><time>2026-04-28T09:33:22.679Z</time></trkpt><trkpt lat="37.8112544" lon="12.721672"><ele>232.33333333333334</ele><time>2026-04-28T09:33:23.678Z</time></trkpt><trkpt lat="37.8111489" lon="12.721465"><ele>236.0</ele><time>2026-04-28T09:33:24.678Z</time></trkpt><trkpt lat="37.8110487" lon="12.7212651"><ele>235.66666666666669</ele><time>2026-04-28T09:33:25.679Z</time></trkpt><trkpt lat="37.8109557" lon="12.721074"><ele>235.33333333333331</ele><time>2026-04-28T09:33:26.678Z</time></trkpt><trkpt lat="37.8108748" lon="12.7209038"><ele>235.0</ele><time>2026-04-28T09:33:27.678Z</time></trkpt><trkpt lat="37.8107934" lon="12.7207327"><ele>235.0</ele><time>2026-04-28T09:33:28.679Z</time></trkpt><trkpt lat="37.8107195" lon="12.720564"><ele>235.0</ele><time>2026-04-28T09:33:29.679Z</time></trkpt><trkpt lat="37.8106462" lon="12.7204053"><ele>235.0</ele><time>2026-04-28T09:33:30.679Z</time></trkpt><trkpt lat="37.8105691" lon="12.7202675"><ele>235.0</ele><time>2026-04-28T09:33:31.68Z</time></trkpt><trkpt lat="37.8104823" lon="12.7201361"><ele>234.66666666666666</ele><time>2026-04-28T09:33:32.679Z</time></trkpt><trkpt lat="37.8103701" lon="12.7200283"><ele>234.33333333333331</ele><time>2026-04-28T09:33:33.678Z</time></trkpt><trkpt lat="37.8102316" lon="12.7199271"><ele>234.0</ele><time>2026-04-28T09:33:34.679Z</time></trkpt><trkpt lat="37.8100656" lon="12.7198398"><ele>234.0</ele><time>2026-04-28T09:33:35.679Z</time></trkpt><trkpt lat="37.8098731" lon="12.7197636"><ele>234.0</ele><time>2026-04-28T09:33:36.678Z</time></trkpt><trkpt lat="37.8096506" lon="12.7196803"><ele>234.0</ele><time>2026-04-28T09:33:37.679Z</time></trkpt><trkpt lat="37.8094171" lon="12.7195904"><ele>232.33333333333331</ele><time>2026-04-28T09:33:38.68Z</time></trkpt><trkpt lat="37.8091993" lon="12.7195074"><ele>230.66666666666666</ele><time>2026-04-28T09:33:39.678Z</time></trkpt><trkpt lat="37.8090025" lon="12.7194321"><ele>229.0</ele><time>2026-04-28T09:33:40.678Z</time></trkpt><trkpt lat="37.8088245" lon="12.719363"><ele>233.0</ele><time>2026-04-28T09:33:41.679Z</time></trkpt><trkpt lat="37.8086656" lon="12.7192993"><ele>237.0</ele><time>2026-04-28T09:33:42.678Z</time></trkpt><trkpt lat="37.8085164" lon="12.7192391"><ele>241.0</ele><time>2026-04-28T09:33:43.678Z</time></trkpt><trkpt lat="37.8083902" lon="12.7191642"><ele>241.0</ele><time>2026-04-28T09:33:44.678Z</time></trkpt><trkpt lat="37.808275" lon="12.719073"><ele>241.0</ele><time>2026-04-28T09:33:45.678Z</time></trkpt><trkpt lat="37.8081858" lon="12.7189593"><ele>241.0</ele><time>2026-04-28T09:33:46.679Z</time></trkpt><trkpt lat="37.8081261" lon="12.7188316"><ele>241.0</ele><time>2026-04-28T09:33:47.679Z</time></trkpt><trkpt lat="37.8080826" lon="12.7186647"><ele>244.0</ele><time>2026-04-28T09:33:48.679Z</time></trkpt><trkpt lat="37.8080706" lon="12.7184855"><ele>247.0</ele><time>2026-04-28T09:33:49.679Z</time></trkpt><trkpt lat="37.8080918" lon="12.718304"><ele>250.0</ele><time>2026-04-28T09:33:50.678Z</time></trkpt><trkpt lat="37.8081414" lon="12.7181141"><ele>253.0</ele><time>2026-04-28T09:33:51.679Z</time></trkpt><trkpt lat="37.8082229" lon="12.7179147"><ele>253.0</ele><time>2026-04-28T09:33:52.678Z</time></trkpt><trkpt lat="37.8083058" lon="12.7176984"><ele>253.0</ele><time>2026-04-28T09:33:53.68Z</time></trkpt><trkpt lat="37.8083858" lon="12.7174915"><ele>253.0</ele><time>2026-04-28T09:33:54.679Z</time></trkpt><trkpt lat="37.8084562" lon="12.7173033"><ele>253.5</ele><time>2026-04-28T09:33:55.679Z</time></trkpt><trkpt lat="37.808506" lon="12.717132"><ele>254.0</ele><time>2026-04-28T09:33:56.678Z</time></trkpt><trkpt lat="37.80853" lon="12.7169689"><ele>254.5</ele><time>2026-04-28T09:33:57.678Z</time></trkpt><trkpt lat="37.8085239" lon="12.7167944"><ele>255.0</ele><time>2026-04-28T09:33:58.678Z</time></trkpt><trkpt lat="37.8084772" lon="12.7166115"><ele>254.66666666666669</ele><time>2026-04-28T09:33:59.68Z</time></trkpt><trkpt lat="37.8083985" lon="12.7164124"><ele>254.33333333333334</ele><time>2026-04-28T09:34:00.679Z</time></trkpt><trkpt lat="37.808308" lon="12.7161782"><ele>254.0</ele><time>2026-04-28T09:34:01.678Z</time></trkpt><trkpt lat="37.8081967" lon="12.715907"><ele>254.0</ele><time>2026-04-28T09:34:02.678Z</time></trkpt><trkpt lat="37.808074" lon="12.7155868"><ele>254.0</ele><time>2026-04-28T09:34:03.678Z</time></trkpt><trkpt lat="37.8079438" lon="12.7152615"><ele>255.5</ele><time>2026-04-28T09:34:04.679Z</time></trkpt><trkpt lat="37.8078197" lon="12.7149544"><ele>257.0</ele><time>2026-04-28T09:34:05.678Z</time></trkpt><trkpt lat="37.8076939" lon="12.7146489"><ele>253.0</ele><time>2026-04-28T09:34:06.68Z</time></trkpt><trkpt lat="37.8075734" lon="12.7143456"><ele>249.0</ele><time>2026-04-28T09:34:07.678Z</time></trkpt><trkpt lat="37.8074463" lon="12.7140554"><ele>249.0</ele><time>2026-04-28T09:34:08.678Z</time></trkpt><trkpt lat="37.8073065" lon="12.7137729"><ele>249.0</ele><time>2026-04-28T09:34:09.679Z</time></trkpt><trkpt lat="37.8071627" lon="12.7134935"><ele>250.5</ele><time>2026-04-28T09:34:10.678Z</time></trkpt><trkpt lat="37.8070185" lon="12.7132313"><ele>252.0</ele><time>2026-04-28T09:34:11.678Z</time></trkpt><trkpt lat="37.806873" lon="12.7129713"><ele>246.0</ele><time>2026-04-28T09:34:12.679Z</time></trkpt><trkpt lat="37.8067237" lon="12.7127153"><ele>240.0</ele><time>2026-04-28T09:34:13.679Z</time></trkpt><trkpt lat="37.8065659" lon="12.712453"><ele>240.0</ele><time>2026-04-28T09:34:14.678Z</time></trkpt><trkpt lat="37.8064006" lon="12.7121948"><ele>240.0</ele><time>2026-04-28T09:34:15.68Z</time></trkpt><trkpt lat="37.8062237" lon="12.7119395"><ele>242.0</ele><time>2026-04-28T09:34:16.68Z</time></trkpt><trkpt lat="37.8060458" lon="12.7116878"><ele>244.0</ele><time>2026-04-28T09:34:17.679Z</time></trkpt><trkpt lat="37.8058597" lon="12.71144"><ele>242.5</ele><time>2026-04-28T09:34:18.68Z</time></trkpt><trkpt lat="37.8056689" lon="12.711194"><ele>241.0</ele><time>2026-04-28T09:34:19.678Z</time></trkpt><trkpt lat="37.8054812" lon="12.7109613"><ele>241.0</ele><time>2026-04-28T09:34:20.679Z</time></trkpt><trkpt lat="37.8053015" lon="12.7107305"><ele>241.0</ele><time>2026-04-28T09:34:21.68Z</time></trkpt><trkpt lat="37.8051288" lon="12.7105149"><ele>237.5</ele><time>2026-04-28T09:34:22.678Z</time></trkpt><trkpt lat="37.8049535" lon="12.7102922"><ele>234.0</ele><time>2026-04-28T09:34:23.679Z</time></trkpt><trkpt lat="37.8047843" lon="12.7100777"><ele>234.0</ele><time>2026-04-28T09:34:24.678Z</time></trkpt><trkpt lat="37.8046286" lon="12.7098686"><ele>234.0</ele><time>2026-04-28T09:34:25.678Z</time></trkpt><trkpt lat="37.8044768" lon="12.7096737"><ele>234.0</ele><time>2026-04-28T09:34:26.68Z</time></trkpt><trkpt lat="37.8043428" lon="12.7094797"><ele>232.0</ele><time>2026-04-28T09:34:27.679Z</time></trkpt><trkpt lat="37.8042179" lon="12.7092843"><ele>230.0</ele><time>2026-04-28T09:34:28.679Z</time></trkpt><trkpt lat="37.804107" lon="12.709071"><ele>228.0</ele><time>2026-04-28T09:34:29.679Z</time></trkpt><trkpt lat="37.8040064" lon="12.7088368"><ele>228.0</ele><time>2026-04-28T09:34:30.679Z</time></trkpt><trkpt lat="37.8039214" lon="12.7085783"><ele>228.0</ele><time>2026-04-28T09:34:31.679Z</time></trkpt><trkpt lat="37.8038532" lon="12.7082968"><ele>229.5</ele><time>2026-04-28T09:34:32.678Z</time></trkpt><trkpt lat="37.8037875" lon="12.7079903"><ele>231.0</ele><time>2026-04-28T09:34:33.679Z</time></trkpt><trkpt lat="37.8037147" lon="12.7076811"><ele>231.5</ele><time>2026-04-28T09:34:34.68Z</time></trkpt><trkpt lat="37.8036298" lon="12.7073732"><ele>232.0</ele><time>2026-04-28T09:34:35.678Z</time></trkpt><trkpt lat="37.803527" lon="12.7070597"><ele>224.0</ele><time>2026-04-28T09:34:36.679Z</time></trkpt><trkpt lat="37.8034077" lon="12.7067446"><ele>216.0</ele><time>2026-04-28T09:34:37.678Z</time></trkpt><trkpt lat="37.8032827" lon="12.7064429"><ele>216.0</ele><time>2026-04-28T09:34:38.678Z</time></trkpt><trkpt lat="37.8031602" lon="12.7061595"><ele>216.0</ele><time>2026-04-28T09:34:39.678Z</time></trkpt><trkpt lat="37.8030469" lon="12.7058889"><ele>216.66666666666669</ele><time>2026-04-28T09:34:40.681Z</time></trkpt><trkpt lat="37.8029385" lon="12.7056342"><ele>217.33333333333334</ele><time>2026-04-28T09:34:41.679Z</time></trkpt><trkpt lat="37.8028381" lon="12.7053907"><ele>218.0</ele><time>2026-04-28T09:34:42.679Z</time></trkpt><trkpt lat="37.8027424" lon="12.7051595"><ele>215.0</ele><time>2026-04-28T09:34:43.678Z</time></trkpt><trkpt lat="37.8026488" lon="12.704935"><ele>212.0</ele><time>2026-04-28T09:34:44.679Z</time></trkpt><trkpt lat="37.8025689" lon="12.7047138"><ele>209.0</ele><time>2026-04-28T09:34:45.678Z</time></trkpt><trkpt lat="37.8025053" lon="12.7044926"><ele>209.33333333333334</ele><time>2026-04-28T09:34:46.68Z</time></trkpt><trkpt lat="37.8024678" lon="12.7042705"><ele>209.66666666666669</ele><time>2026-04-28T09:34:47.678Z</time></trkpt><trkpt lat="37.802452" lon="12.704029"><ele>210.0</ele><time>2026-04-28T09:34:48.679Z</time></trkpt><trkpt lat="37.8024624" lon="12.7037842"><ele>208.33333333333331</ele><time>2026-04-28T09:34:49.678Z</time></trkpt><trkpt lat="37.8025053" lon="12.7035386"><ele>206.66666666666666</ele><time>2026-04-28T09:34:50.679Z</time></trkpt><trkpt lat="37.8025816" lon="12.7032833"><ele>205.0</ele><time>2026-04-28T09:34:51.679Z</time></trkpt><trkpt lat="37.8026825" lon="12.7030184"><ele>206.0</ele><time>2026-04-28T09:34:52.678Z</time></trkpt><trkpt lat="37.802791" lon="12.7027561"><ele>207.0</ele><time>2026-04-28T09:34:53.678Z</time></trkpt><trkpt lat="37.8028856" lon="12.7024952"><ele>207.0</ele><time>2026-04-28T09:34:54.678Z</time></trkpt><trkpt lat="37.802963" lon="12.7022217"><ele>207.0</ele><time>2026-04-28T09:34:55.678Z</time></trkpt><trkpt lat="37.8030288" lon="12.7019371"><ele>205.0</ele><time>2026-04-28T09:34:56.679Z</time></trkpt><trkpt lat="37.8030795" lon="12.7016534"><ele>203.0</ele><time>2026-04-28T09:34:57.678Z</time></trkpt><trkpt lat="37.8031193" lon="12.7013668"><ele>204.0</ele><time>2026-04-28T09:34:58.679Z</time></trkpt><trkpt lat="37.8031121" lon="12.7010618"><ele>205.0</ele><time>2026-04-28T09:34:59.681Z</time></trkpt><trkpt lat="37.8030917" lon="12.700762"><ele>205.0</ele><time>2026-04-28T09:35:00.678Z</time></trkpt><trkpt lat="37.8030507" lon="12.7004587"><ele>205.0</ele><time>2026-04-28T09:35:01.678Z</time></trkpt><trkpt lat="37.8029941" lon="12.7001446"><ele>204.5</ele><time>2026-04-28T09:35:02.678Z</time></trkpt><trkpt lat="37.8029129" lon="12.6998104"><ele>204.0</ele><time>2026-04-28T09:35:03.68Z</time></trkpt><trkpt lat="37.8028226" lon="12.6994806"><ele>208.0</ele><time>2026-04-28T09:35:04.678Z</time></trkpt><trkpt lat="37.8027314" lon="12.6991454"><ele>212.0</ele><time>2026-04-28T09:35:05.68Z</time></trkpt><trkpt lat="37.802646" lon="12.698812"><ele>202.5</ele><time>2026-04-28T09:35:06.679Z</time></trkpt><trkpt lat="37.8025743" lon="12.6984806"><ele>193.0</ele><time>2026-04-28T09:35:07.681Z</time></trkpt><trkpt lat="37.8025057" lon="12.6981311"><ele>193.0</ele><time>2026-04-28T09:35:08.679Z</time></trkpt><trkpt lat="37.8024512" lon="12.6977853"><ele>193.0</ele><time>2026-04-28T09:35:09.678Z</time></trkpt><trkpt lat="37.8023942" lon="12.6974318"><ele>193.0</ele><time>2026-04-28T09:35:10.678Z</time></trkpt><trkpt lat="37.8023381" lon="12.6971011"><ele>193.0</ele><time>2026-04-28T09:35:11.679Z</time></trkpt><trkpt lat="37.8022783" lon="12.6967871"><ele>192.0</ele><time>2026-04-28T09:35:12.68Z</time></trkpt><trkpt lat="37.8022162" lon="12.6964699"><ele>191.0</ele><time>2026-04-28T09:35:13.679Z</time></trkpt><trkpt lat="37.8021478" lon="12.6961559"><ele>190.5</ele><time>2026-04-28T09:35:14.678Z</time></trkpt><trkpt lat="37.8020723" lon="12.6958377"><ele>190.0</ele><time>2026-04-28T09:35:15.679Z</time></trkpt><trkpt lat="37.8019951" lon="12.6955266"><ele>190.5</ele><time>2026-04-28T09:35:16.679Z</time></trkpt><trkpt lat="37.801922" lon="12.6952311"><ele>191.0</ele><time>2026-04-28T09:35:17.678Z</time></trkpt><trkpt lat="37.8018535" lon="12.6949663"><ele>188.33333333333331</ele><time>2026-04-28T09:35:18.68Z</time></trkpt><trkpt lat="37.8017892" lon="12.6947223"><ele>185.66666666666666</ele><time>2026-04-28T09:35:19.679Z</time></trkpt><trkpt lat="37.8017381" lon="12.6944984"><ele>183.0</ele><time>2026-04-28T09:35:20.679Z</time></trkpt><trkpt lat="37.8016818" lon="12.6942897"><ele>183.0</ele><time>2026-04-28T09:35:21.678Z</time></trkpt><trkpt lat="37.801637" lon="12.694092"><ele>183.0</ele><time>2026-04-28T09:35:22.679Z</time></trkpt><trkpt lat="37.8015965" lon="12.693921"><ele>183.0</ele><time>2026-04-28T09:35:23.679Z</time></trkpt><trkpt lat="37.8015436" lon="12.6937612"><ele>183.0</ele><time>2026-04-28T09:35:24.679Z</time></trkpt><trkpt lat="37.8014755" lon="12.6936102"><ele>181.33333333333334</ele><time>2026-04-28T09:35:25.679Z</time></trkpt><trkpt lat="37.8013855" lon="12.6934526"><ele>179.66666666666669</ele><time>2026-04-28T09:35:26.678Z</time></trkpt><trkpt lat="37.8012723" lon="12.6932939"><ele>178.0</ele><time>2026-04-28T09:35:27.679Z</time></trkpt><trkpt lat="37.8011392" lon="12.6931203"><ele>178.0</ele><time>2026-04-28T09:35:28.678Z</time></trkpt><trkpt lat="37.8010013" lon="12.6929401"><ele>178.0</ele><time>2026-04-28T09:35:29.679Z</time></trkpt><trkpt lat="37.8008549" lon="12.692761"><ele>178.0</ele><time>2026-04-28T09:35:30.679Z</time></trkpt><trkpt lat="37.8007232" lon="12.6926019"><ele>176.66666666666669</ele><time>2026-04-28T09:35:31.678Z</time></trkpt><trkpt lat="37.8005876" lon="12.6924438"><ele>175.33333333333334</ele><time>2026-04-28T09:35:32.679Z</time></trkpt><trkpt lat="37.8004481" lon="12.6923036"><ele>174.0</ele><time>2026-04-28T09:35:33.679Z</time></trkpt><trkpt lat="37.8002892" lon="12.6921727"><ele>172.66666666666666</ele><time>2026-04-28T09:35:34.679Z</time></trkpt><trkpt lat="37.8001109" lon="12.6920471"><ele>171.33333333333331</ele><time>2026-04-28T09:35:35.679Z</time></trkpt><trkpt lat="37.7999095" lon="12.6919362"><ele>170.0</ele><time>2026-04-28T09:35:36.678Z</time></trkpt><trkpt lat="37.7996918" lon="12.6918191"><ele>170.0</ele><time>2026-04-28T09:35:37.679Z</time></trkpt><trkpt lat="37.7994882" lon="12.691711"><ele>170.0</ele><time>2026-04-28T09:35:38.678Z</time></trkpt><trkpt lat="37.7992982" lon="12.6916125"><ele>170.0</ele><time>2026-04-28T09:35:39.678Z</time></trkpt><trkpt lat="37.7991207" lon="12.6915205"><ele>170.33333333333331</ele><time>2026-04-28T09:35:40.681Z</time></trkpt><trkpt lat="37.7989514" lon="12.6914358"><ele>170.66666666666666</ele><time>2026-04-28T09:35:41.678Z</time></trkpt><trkpt lat="37.7987917" lon="12.6913485"><ele>171.0</ele><time>2026-04-28T09:35:42.679Z</time></trkpt><trkpt lat="37.7986357" lon="12.6912479"><ele>169.33333333333334</ele><time>2026-04-28T09:35:43.679Z</time></trkpt><trkpt lat="37.7984959" lon="12.6911375"><ele>167.66666666666669</ele><time>2026-04-28T09:35:44.679Z</time></trkpt><trkpt lat="37.7983747" lon="12.6909917"><ele>166.0</ele><time>2026-04-28T09:35:45.679Z</time></trkpt><trkpt lat="37.7982555" lon="12.6908147"><ele>165.0</ele><time>2026-04-28T09:35:46.679Z</time></trkpt><trkpt lat="37.7981331" lon="12.6906045"><ele>164.0</ele><time>2026-04-28T09:35:47.679Z</time></trkpt><trkpt lat="37.7980179" lon="12.6903735"><ele>163.0</ele><time>2026-04-28T09:35:48.68Z</time></trkpt><trkpt lat="37.7979132" lon="12.6901566"><ele>163.0</ele><time>2026-04-28T09:35:49.679Z</time></trkpt><trkpt lat="37.7978099" lon="12.689953"><ele>163.0</ele><time>2026-04-28T09:35:50.679Z</time></trkpt><trkpt lat="37.7977181" lon="12.6897609"><ele>163.0</ele><time>2026-04-28T09:35:51.678Z</time></trkpt><trkpt lat="37.7976287" lon="12.6895913"><ele>163.0</ele><time>2026-04-28T09:35:52.679Z</time></trkpt><trkpt lat="37.7975438" lon="12.6894486"><ele>163.0</ele><time>2026-04-28T09:35:53.679Z</time></trkpt><trkpt lat="37.797458" lon="12.6893343"><ele>163.0</ele><time>2026-04-28T09:35:54.679Z</time></trkpt><trkpt lat="37.7973635" lon="12.689245"><ele>163.0</ele><time>2026-04-28T09:35:55.678Z</time></trkpt><trkpt lat="37.7972444" lon="12.6891738"><ele>164.33333333333334</ele><time>2026-04-28T09:35:56.679Z</time></trkpt><trkpt lat="37.7970973" lon="12.6891102"><ele>165.66666666666666</ele><time>2026-04-28T09:35:57.679Z</time></trkpt><trkpt lat="37.7969255" lon="12.6890487"><ele>167.0</ele><time>2026-04-28T09:35:58.679Z</time></trkpt><trkpt lat="37.7967338" lon="12.6889947"><ele>167.0</ele><time>2026-04-28T09:35:59.68Z</time></trkpt><trkpt lat="37.7965264" lon="12.6889396"><ele>167.0</ele><time>2026-04-28T09:36:00.68Z</time></trkpt><trkpt lat="37.7963143" lon="12.6888767"><ele>167.0</ele><time>2026-04-28T09:36:01.678Z</time></trkpt><trkpt lat="37.7960993" lon="12.6888282"><ele>166.0</ele><time>2026-04-28T09:36:02.679Z</time></trkpt><trkpt lat="37.7958882" lon="12.6887723"><ele>165.0</ele><time>2026-04-28T09:36:03.678Z</time></trkpt><trkpt lat="37.7956923" lon="12.6887183"><ele>164.0</ele><time>2026-04-28T09:36:04.679Z</time></trkpt><trkpt lat="37.7955097" lon="12.6886734"><ele>164.0</ele><time>2026-04-28T09:36:05.679Z</time></trkpt><trkpt lat="37.7953382" lon="12.6886322"><ele>164.0</ele><time>2026-04-28T09:36:06.681Z</time></trkpt><trkpt lat="37.7951638" lon="12.6885867"><ele>164.0</ele><time>2026-04-28T09:36:07.68Z</time></trkpt><trkpt lat="37.794995" lon="12.6885429"><ele>167.33333333333331</ele><time>2026-04-28T09:36:08.678Z</time></trkpt><trkpt lat="37.7948298" lon="12.6884888"><ele>170.66666666666666</ele><time>2026-04-28T09:36:09.679Z</time></trkpt><trkpt lat="37.7946657" lon="12.6884092"><ele>174.0</ele><time>2026-04-28T09:36:10.679Z</time></trkpt><trkpt lat="37.7945071" lon="12.6883176"><ele>174.0</ele><time>2026-04-28T09:36:11.678Z</time></trkpt><trkpt lat="37.7943562" lon="12.6882139"><ele>174.0</ele><time>2026-04-28T09:36:12.678Z</time></trkpt><trkpt lat="37.794221" lon="12.688096"><ele>174.0</ele><time>2026-04-28T09:36:13.679Z</time></trkpt><trkpt lat="37.7940793" lon="12.6879531"><ele>173.33333333333334</ele><time>2026-04-28T09:36:14.68Z</time></trkpt><trkpt lat="37.7939544" lon="12.6877931"><ele>172.66666666666669</ele><time>2026-04-28T09:36:15.679Z</time></trkpt><trkpt lat="37.7938445" lon="12.6876246"><ele>172.0</ele><time>2026-04-28T09:36:16.678Z</time></trkpt><trkpt lat="37.7937472" lon="12.6874356"><ele>173.66666666666669</ele><time>2026-04-28T09:36:17.678Z</time></trkpt><trkpt lat="37.7936685" lon="12.6872405"><ele>175.33333333333334</ele><time>2026-04-28T09:36:18.68Z</time></trkpt><trkpt lat="37.7935962" lon="12.6870292"><ele>177.0</ele><time>2026-04-28T09:36:19.68Z</time></trkpt><trkpt lat="37.7935477" lon="12.686814"><ele>177.33333333333334</ele><time>2026-04-28T09:36:20.678Z</time></trkpt><trkpt lat="37.7935124" lon="12.6866106"><ele>177.66666666666669</ele><time>2026-04-28T09:36:21.68Z</time></trkpt><trkpt lat="37.7935011" lon="12.6864082"><ele>178.0</ele><time>2026-04-28T09:36:22.678Z</time></trkpt><trkpt lat="37.7935029" lon="12.6862065"><ele>178.33333333333334</ele><time>2026-04-28T09:36:23.68Z</time></trkpt><trkpt lat="37.793521" lon="12.6860092"><ele>178.66666666666666</ele><time>2026-04-28T09:36:24.68Z</time></trkpt><trkpt lat="37.7935652" lon="12.6858144"><ele>179.0</ele><time>2026-04-28T09:36:25.679Z</time></trkpt><trkpt lat="37.7936091" lon="12.685603"><ele>179.0</ele><time>2026-04-28T09:36:26.679Z</time></trkpt><trkpt lat="37.7936827" lon="12.6853892"><ele>179.0</ele><time>2026-04-28T09:36:27.679Z</time></trkpt><trkpt lat="37.7937661" lon="12.685153"><ele>179.0</ele><time>2026-04-28T09:36:28.68Z</time></trkpt><trkpt lat="37.7938717" lon="12.6848991"><ele>177.5</ele><time>2026-04-28T09:36:29.68Z</time></trkpt><trkpt lat="37.794007" lon="12.684621"><ele>176.0</ele><time>2026-04-28T09:36:30.679Z</time></trkpt><trkpt lat="37.7941484" lon="12.6843204"><ele>175.5</ele><time>2026-04-28T09:36:31.678Z</time></trkpt><trkpt lat="37.7942954" lon="12.6839954"><ele>175.0</ele><time>2026-04-28T09:36:32.678Z</time></trkpt><trkpt lat="37.794457" lon="12.6836678"><ele>173.0</ele><time>2026-04-28T09:36:33.678Z</time></trkpt><trkpt lat="37.7946077" lon="12.6833425"><ele>171.0</ele><time>2026-04-28T09:36:34.68Z</time></trkpt><trkpt lat="37.7947502" lon="12.6830317"><ele>168.5</ele><time>2026-04-28T09:36:35.679Z</time></trkpt><trkpt lat="37.794888" lon="12.6827313"><ele>166.0</ele><time>2026-04-28T09:36:36.68Z</time></trkpt><trkpt lat="37.7950222" lon="12.6824348"><ele>166.0</ele><time>2026-04-28T09:36:37.679Z</time></trkpt><trkpt lat="37.7951608" lon="12.6821453"><ele>166.0</ele><time>2026-04-28T09:36:38.679Z</time></trkpt><trkpt lat="37.7953052" lon="12.6818527"><ele>167.5</ele><time>2026-04-28T09:36:39.679Z</time></trkpt><trkpt lat="37.7954585" lon="12.6815637"><ele>169.0</ele><time>2026-04-28T09:36:40.679Z</time></trkpt><trkpt lat="37.7956252" lon="12.6812724"><ele>165.5</ele><time>2026-04-28T09:36:41.68Z</time></trkpt><trkpt lat="37.7957896" lon="12.6809947"><ele>162.0</ele><time>2026-04-28T09:36:42.68Z</time></trkpt><trkpt lat="37.7959633" lon="12.680703"><ele>161.0</ele><time>2026-04-28T09:36:43.678Z</time></trkpt><trkpt lat="37.796148" lon="12.6804094"><ele>160.0</ele><time>2026-04-28T09:36:44.678Z</time></trkpt><trkpt lat="37.7963314" lon="12.6801147"><ele>160.0</ele><time>2026-04-28T09:36:45.679Z</time></trkpt><trkpt lat="37.7965147" lon="12.6798263"><ele>160.0</ele><time>2026-04-28T09:36:46.678Z</time></trkpt><trkpt lat="37.7967026" lon="12.6795387"><ele>158.0</ele><time>2026-04-28T09:36:47.678Z</time></trkpt><trkpt lat="37.796887" lon="12.6792526"><ele>156.0</ele><time>2026-04-28T09:36:48.681Z</time></trkpt><trkpt lat="37.7970715" lon="12.6789641"><ele>156.0</ele><time>2026-04-28T09:36:49.68Z</time></trkpt><trkpt lat="37.7972569" lon="12.6786751"><ele>156.0</ele><time>2026-04-28T09:36:50.68Z</time></trkpt><trkpt lat="37.7974424" lon="12.6783849"><ele>155.0</ele><time>2026-04-28T09:36:51.679Z</time></trkpt><trkpt lat="37.7976281" lon="12.6780956"><ele>154.0</ele><time>2026-04-28T09:36:52.681Z</time></trkpt><trkpt lat="37.797812" lon="12.6778086"><ele>154.5</ele><time>2026-04-28T09:36:53.678Z</time></trkpt><trkpt lat="37.7979985" lon="12.6775211"><ele>155.0</ele><time>2026-04-28T09:36:54.68Z</time></trkpt><trkpt lat="37.7981862" lon="12.677241"><ele>155.0</ele><time>2026-04-28T09:36:55.68Z</time></trkpt><trkpt lat="37.7983651" lon="12.6769559"><ele>155.0</ele><time>2026-04-28T09:36:56.68Z</time></trkpt><trkpt lat="37.7985447" lon="12.6766687"><ele>153.0</ele><time>2026-04-28T09:36:57.68Z</time></trkpt><trkpt lat="37.7987294" lon="12.6763903"><ele>151.0</ele><time>2026-04-28T09:36:58.679Z</time></trkpt><trkpt lat="37.7989134" lon="12.6761178"><ele>148.5</ele><time>2026-04-28T09:36:59.679Z</time></trkpt><trkpt lat="37.7990849" lon="12.6758434"><ele>146.0</ele><time>2026-04-28T09:37:00.68Z</time></trkpt><trkpt lat="37.7992486" lon="12.6755866"><ele>146.5</ele><time>2026-04-28T09:37:01.679Z</time></trkpt><trkpt lat="37.7994105" lon="12.6753307"><ele>147.0</ele><time>2026-04-28T09:37:02.678Z</time></trkpt><trkpt lat="37.7995713" lon="12.6750727"><ele>145.0</ele><time>2026-04-28T09:37:03.68Z</time></trkpt><trkpt lat="37.7997352" lon="12.6748218"><ele>143.0</ele><time>2026-04-28T09:37:04.679Z</time></trkpt><trkpt lat="37.7998959" lon="12.6745846"><ele>143.0</ele><time>2026-04-28T09:37:05.679Z</time></trkpt><trkpt lat="37.8000533" lon="12.6743446"><ele>143.0</ele><time>2026-04-28T09:37:06.679Z</time></trkpt><trkpt lat="37.8001986" lon="12.6741"><ele>143.0</ele><time>2026-04-28T09:37:07.68Z</time></trkpt><trkpt lat="37.8003501" lon="12.673864"><ele>143.0</ele><time>2026-04-28T09:37:08.678Z</time></trkpt><trkpt lat="37.8004932" lon="12.6736361"><ele>142.0</ele><time>2026-04-28T09:37:09.68Z</time></trkpt><trkpt lat="37.800638" lon="12.6734093"><ele>141.0</ele><time>2026-04-28T09:37:10.678Z</time></trkpt><trkpt lat="37.8007808" lon="12.67318"><ele>141.0</ele><time>2026-04-28T09:37:11.679Z</time></trkpt><trkpt lat="37.800927" lon="12.6729531"><ele>141.0</ele><time>2026-04-28T09:37:12.681Z</time></trkpt><trkpt lat="37.8010723" lon="12.6727256"><ele>141.0</ele><time>2026-04-28T09:37:13.679Z</time></trkpt><trkpt lat="37.8012195" lon="12.6725075"><ele>141.0</ele><time>2026-04-28T09:37:14.68Z</time></trkpt><trkpt lat="37.8013604" lon="12.6722863"><ele>141.0</ele><time>2026-04-28T09:37:15.68Z</time></trkpt><trkpt lat="37.8014975" lon="12.672074"><ele>141.0</ele><time>2026-04-28T09:37:16.68Z</time></trkpt><trkpt lat="37.8016307" lon="12.6718696"><ele>141.0</ele><time>2026-04-28T09:37:17.679Z</time></trkpt><trkpt lat="37.8017629" lon="12.6716637"><ele>143.0</ele><time>2026-04-28T09:37:18.679Z</time></trkpt><trkpt lat="37.801893" lon="12.6714513"><ele>145.0</ele><time>2026-04-28T09:37:19.679Z</time></trkpt><trkpt lat="37.8020199" lon="12.6712405"><ele>147.0</ele><time>2026-04-28T09:37:20.68Z</time></trkpt><trkpt lat="37.8021342" lon="12.671027"><ele>147.66666666666666</ele><time>2026-04-28T09:37:21.679Z</time></trkpt><trkpt lat="37.8022493" lon="12.6708037"><ele>148.33333333333331</ele><time>2026-04-28T09:37:22.68Z</time></trkpt><trkpt lat="37.8023554" lon="12.6705791"><ele>149.0</ele><time>2026-04-28T09:37:23.679Z</time></trkpt><trkpt lat="37.8024556" lon="12.6703452"><ele>148.33333333333331</ele><time>2026-04-28T09:37:24.678Z</time></trkpt><trkpt lat="37.8025486" lon="12.6701044"><ele>147.66666666666666</ele><time>2026-04-28T09:37:25.68Z</time></trkpt><trkpt lat="37.8026396" lon="12.6698614"><ele>147.0</ele><time>2026-04-28T09:37:26.678Z</time></trkpt><trkpt lat="37.802729" lon="12.6696175"><ele>147.0</ele><time>2026-04-28T09:37:27.679Z</time></trkpt><trkpt lat="37.8028161" lon="12.6693674"><ele>147.0</ele><time>2026-04-28T09:37:28.678Z</time></trkpt><trkpt lat="37.8029033" lon="12.6691113"><ele>147.0</ele><time>2026-04-28T09:37:29.68Z</time></trkpt><trkpt lat="37.8029844" lon="12.6688624"><ele>147.0</ele><time>2026-04-28T09:37:30.679Z</time></trkpt><trkpt lat="37.8030702" lon="12.6686137"><ele>147.0</ele><time>2026-04-28T09:37:31.679Z</time></trkpt><trkpt lat="37.8031533" lon="12.6683627"><ele>147.0</ele><time>2026-04-28T09:37:32.679Z</time></trkpt><trkpt lat="37.8032322" lon="12.6681154"><ele>146.0</ele><time>2026-04-28T09:37:33.68Z</time></trkpt><trkpt lat="37.8033066" lon="12.667865"><ele>145.0</ele><time>2026-04-28T09:37:34.679Z</time></trkpt><trkpt lat="37.8033704" lon="12.6676151"><ele>144.0</ele><time>2026-04-28T09:37:35.678Z</time></trkpt><trkpt lat="37.8034325" lon="12.6673654"><ele>144.0</ele><time>2026-04-28T09:37:36.679Z</time></trkpt><trkpt lat="37.8034847" lon="12.6671091"><ele>144.0</ele><time>2026-04-28T09:37:37.679Z</time></trkpt><trkpt lat="37.8035052" lon="12.666837"><ele>144.0</ele><time>2026-04-28T09:37:38.68Z</time></trkpt><trkpt lat="37.803524" lon="12.6665715"><ele>146.0</ele><time>2026-04-28T09:37:39.678Z</time></trkpt><trkpt lat="37.8035278" lon="12.666311"><ele>148.0</ele><time>2026-04-28T09:37:40.679Z</time></trkpt><trkpt lat="37.8035262" lon="12.6660508"><ele>150.0</ele><time>2026-04-28T09:37:41.68Z</time></trkpt><trkpt lat="37.8035205" lon="12.6657838"><ele>150.0</ele><time>2026-04-28T09:37:42.68Z</time></trkpt><trkpt lat="37.8035152" lon="12.6655205"><ele>150.0</ele><time>2026-04-28T09:37:43.678Z</time></trkpt><trkpt lat="37.8035003" lon="12.6652484"><ele>150.0</ele><time>2026-04-28T09:37:44.68Z</time></trkpt><trkpt lat="37.8034779" lon="12.6649713"><ele>150.0</ele><time>2026-04-28T09:37:45.68Z</time></trkpt><trkpt lat="37.8034643" lon="12.6646946"><ele>150.0</ele><time>2026-04-28T09:37:46.68Z</time></trkpt><trkpt lat="37.8034476" lon="12.6644183"><ele>150.0</ele><time>2026-04-28T09:37:47.679Z</time></trkpt><trkpt lat="37.8034297" lon="12.6641433"><ele>150.66666666666666</ele><time>2026-04-28T09:37:48.679Z</time></trkpt><trkpt lat="37.8034132" lon="12.6638737"><ele>151.33333333333331</ele><time>2026-04-28T09:37:49.678Z</time></trkpt><trkpt lat="37.8033982" lon="12.6636034"><ele>152.0</ele><time>2026-04-28T09:37:50.68Z</time></trkpt><trkpt lat="37.8033818" lon="12.6633341"><ele>152.0</ele><time>2026-04-28T09:37:51.678Z</time></trkpt><trkpt lat="37.8033622" lon="12.6630671"><ele>152.0</ele><time>2026-04-28T09:37:52.68Z</time></trkpt><trkpt lat="37.8033453" lon="12.6627893"><ele>152.0</ele><time>2026-04-28T09:37:53.678Z</time></trkpt><trkpt lat="37.8033244" lon="12.6625175"><ele>152.0</ele><time>2026-04-28T09:37:54.678Z</time></trkpt><trkpt lat="37.8033099" lon="12.6622495"><ele>152.0</ele><time>2026-04-28T09:37:55.678Z</time></trkpt><trkpt lat="37.8032943" lon="12.6619803"><ele>152.0</ele><time>2026-04-28T09:37:56.678Z</time></trkpt><trkpt lat="37.8032787" lon="12.6617094"><ele>152.0</ele><time>2026-04-28T09:37:57.679Z</time></trkpt><trkpt lat="37.8032567" lon="12.6614292"><ele>152.0</ele><time>2026-04-28T09:37:58.678Z</time></trkpt><trkpt lat="37.8032405" lon="12.6611617"><ele>152.0</ele><time>2026-04-28T09:37:59.679Z</time></trkpt><trkpt lat="37.8032228" lon="12.6608865"><ele>152.0</ele><time>2026-04-28T09:38:00.679Z</time></trkpt><trkpt lat="37.8032136" lon="12.6606245"><ele>152.0</ele><time>2026-04-28T09:38:01.679Z</time></trkpt><trkpt lat="37.8031958" lon="12.6603594"><ele>152.0</ele><time>2026-04-28T09:38:02.679Z</time></trkpt><trkpt lat="37.8031807" lon="12.6600899"><ele>151.66666666666666</ele><time>2026-04-28T09:38:03.68Z</time></trkpt><trkpt lat="37.8031608" lon="12.6598217"><ele>151.33333333333334</ele><time>2026-04-28T09:38:04.68Z</time></trkpt><trkpt lat="37.8031445" lon="12.6595587"><ele>151.0</ele><time>2026-04-28T09:38:05.679Z</time></trkpt><trkpt lat="37.8031284" lon="12.6592895"><ele>150.33333333333334</ele><time>2026-04-28T09:38:06.679Z</time></trkpt><trkpt lat="37.8031124" lon="12.659013"><ele>149.66666666666666</ele><time>2026-04-28T09:38:07.679Z</time></trkpt><trkpt lat="37.8030936" lon="12.6587326"><ele>149.0</ele><time>2026-04-28T09:38:08.679Z</time></trkpt><trkpt lat="37.803075" lon="12.658452"><ele>148.66666666666666</ele><time>2026-04-28T09:38:09.68Z</time></trkpt><trkpt lat="37.8030543" lon="12.6581783"><ele>148.33333333333334</ele><time>2026-04-28T09:38:10.678Z</time></trkpt><trkpt lat="37.8030338" lon="12.6579017"><ele>148.0</ele><time>2026-04-28T09:38:11.68Z</time></trkpt><trkpt lat="37.8030201" lon="12.657633"><ele>147.66666666666669</ele><time>2026-04-28T09:38:12.679Z</time></trkpt><trkpt lat="37.8030047" lon="12.6573584"><ele>147.33333333333334</ele><time>2026-04-28T09:38:13.679Z</time></trkpt><trkpt lat="37.8029853" lon="12.6570893"><ele>147.0</ele><time>2026-04-28T09:38:14.679Z</time></trkpt><trkpt lat="37.802965" lon="12.6568172"><ele>147.33333333333334</ele><time>2026-04-28T09:38:15.68Z</time></trkpt><trkpt lat="37.8029445" lon="12.6565466"><ele>147.66666666666669</ele><time>2026-04-28T09:38:16.679Z</time></trkpt><trkpt lat="37.8029274" lon="12.6562719"><ele>148.0</ele><time>2026-04-28T09:38:17.678Z</time></trkpt><trkpt lat="37.8029121" lon="12.6560033"><ele>148.0</ele><time>2026-04-28T09:38:18.678Z</time></trkpt><trkpt lat="37.8028958" lon="12.6557268"><ele>148.0</ele><time>2026-04-28T09:38:19.678Z</time></trkpt><trkpt lat="37.8028795" lon="12.6554574"><ele>148.0</ele><time>2026-04-28T09:38:20.68Z</time></trkpt><trkpt lat="37.8028608" lon="12.655186"><ele>147.66666666666669</ele><time>2026-04-28T09:38:21.678Z</time></trkpt><trkpt lat="37.8028451" lon="12.6549166"><ele>147.33333333333334</ele><time>2026-04-28T09:38:22.68Z</time></trkpt><trkpt lat="37.8028242" lon="12.6546372"><ele>147.0</ele><time>2026-04-28T09:38:23.679Z</time></trkpt><trkpt lat="37.8028027" lon="12.6543624"><ele>147.0</ele><time>2026-04-28T09:38:24.679Z</time></trkpt><trkpt lat="37.8027932" lon="12.6540914"><ele>147.0</ele><time>2026-04-28T09:38:25.678Z</time></trkpt><trkpt lat="37.8027728" lon="12.6538152"><ele>147.0</ele><time>2026-04-28T09:38:26.678Z</time></trkpt><trkpt lat="37.8027588" lon="12.6535395"><ele>147.0</ele><time>2026-04-28T09:38:27.68Z</time></trkpt><trkpt lat="37.8027464" lon="12.6532559"><ele>147.0</ele><time>2026-04-28T09:38:28.678Z</time></trkpt><trkpt lat="37.8027294" lon="12.6529785"><ele>147.0</ele><time>2026-04-28T09:38:29.678Z</time></trkpt><trkpt lat="37.8027122" lon="12.652704"><ele>146.66666666666666</ele><time>2026-04-28T09:38:30.68Z</time></trkpt><trkpt lat="37.802697" lon="12.6524311"><ele>146.33333333333331</ele><time>2026-04-28T09:38:31.678Z</time></trkpt><trkpt lat="37.802681" lon="12.6521554"><ele>146.0</ele><time>2026-04-28T09:38:32.68Z</time></trkpt><trkpt lat="37.8026633" lon="12.6518739"><ele>144.0</ele><time>2026-04-28T09:38:33.681Z</time></trkpt><trkpt lat="37.8026471" lon="12.6515894"><ele>142.0</ele><time>2026-04-28T09:38:34.681Z</time></trkpt><trkpt lat="37.8026275" lon="12.6513036"><ele>142.0</ele><time>2026-04-28T09:38:35.679Z</time></trkpt><trkpt lat="37.8026086" lon="12.6510212"><ele>142.0</ele><time>2026-04-28T09:38:36.679Z</time></trkpt><trkpt lat="37.8025887" lon="12.6507436"><ele>142.0</ele><time>2026-04-28T09:38:37.679Z</time></trkpt><trkpt lat="37.8025728" lon="12.6504656"><ele>142.33333333333334</ele><time>2026-04-28T09:38:38.679Z</time></trkpt><trkpt lat="37.8025556" lon="12.6501923"><ele>142.66666666666666</ele><time>2026-04-28T09:38:39.68Z</time></trkpt><trkpt lat="37.8025419" lon="12.6499164"><ele>143.0</ele><time>2026-04-28T09:38:40.679Z</time></trkpt><trkpt lat="37.8025254" lon="12.6496379"><ele>143.0</ele><time>2026-04-28T09:38:41.679Z</time></trkpt><trkpt lat="37.8025048" lon="12.6493614"><ele>143.0</ele><time>2026-04-28T09:38:42.679Z</time></trkpt><trkpt lat="37.802487" lon="12.6490821"><ele>143.0</ele><time>2026-04-28T09:38:43.678Z</time></trkpt><trkpt lat="37.8024727" lon="12.648793"><ele>143.0</ele><time>2026-04-28T09:38:44.68Z</time></trkpt><trkpt lat="37.8024521" lon="12.6485095"><ele>143.0</ele><time>2026-04-28T09:38:45.678Z</time></trkpt><trkpt lat="37.8024346" lon="12.6482299"><ele>143.0</ele><time>2026-04-28T09:38:46.68Z</time></trkpt><trkpt lat="37.8024143" lon="12.6479508"><ele>143.0</ele><time>2026-04-28T09:38:47.679Z</time></trkpt><trkpt lat="37.8024015" lon="12.6476779"><ele>143.0</ele><time>2026-04-28T09:38:48.678Z</time></trkpt><trkpt lat="37.8023844" lon="12.6473979"><ele>143.0</ele><time>2026-04-28T09:38:49.678Z</time></trkpt><trkpt lat="37.802368" lon="12.6471189"><ele>143.33333333333331</ele><time>2026-04-28T09:38:50.679Z</time></trkpt><trkpt lat="37.8023501" lon="12.6468378"><ele>143.66666666666666</ele><time>2026-04-28T09:38:51.679Z</time></trkpt><trkpt lat="37.8023292" lon="12.6465558"><ele>144.0</ele><time>2026-04-28T09:38:52.68Z</time></trkpt><trkpt lat="37.8023115" lon="12.646272"><ele>144.5</ele><time>2026-04-28T09:38:53.679Z</time></trkpt><trkpt lat="37.8022885" lon="12.6459783"><ele>145.0</ele><time>2026-04-28T09:38:54.68Z</time></trkpt><trkpt lat="37.8022721" lon="12.6456889"><ele>145.0</ele><time>2026-04-28T09:38:55.679Z</time></trkpt><trkpt lat="37.802254" lon="12.6453978"><ele>145.0</ele><time>2026-04-28T09:38:56.679Z</time></trkpt><trkpt lat="37.8022318" lon="12.6451119"><ele>144.5</ele><time>2026-04-28T09:38:57.679Z</time></trkpt><trkpt lat="37.8022183" lon="12.6448269"><ele>144.0</ele><time>2026-04-28T09:38:58.679Z</time></trkpt><trkpt lat="37.8022032" lon="12.6445419"><ele>144.5</ele><time>2026-04-28T09:38:59.68Z</time></trkpt><trkpt lat="37.802184" lon="12.6442549"><ele>145.0</ele><time>2026-04-28T09:39:00.679Z</time></trkpt><trkpt lat="37.8021664" lon="12.6439678"><ele>145.0</ele><time>2026-04-28T09:39:01.679Z</time></trkpt><trkpt lat="37.8021485" lon="12.6436817"><ele>145.0</ele><time>2026-04-28T09:39:02.678Z</time></trkpt><trkpt lat="37.8021271" lon="12.6433932"><ele>144.0</ele><time>2026-04-28T09:39:03.681Z</time></trkpt><trkpt lat="37.8021108" lon="12.6431127"><ele>143.0</ele><time>2026-04-28T09:39:04.679Z</time></trkpt><trkpt lat="37.8020918" lon="12.6428196"><ele>143.5</ele><time>2026-04-28T09:39:05.679Z</time></trkpt><trkpt lat="37.8020742" lon="12.6425339"><ele>144.0</ele><time>2026-04-28T09:39:06.68Z</time></trkpt><trkpt lat="37.8020611" lon="12.6422508"><ele>144.0</ele><time>2026-04-28T09:39:07.679Z</time></trkpt><trkpt lat="37.8020484" lon="12.6419786"><ele>144.0</ele><time>2026-04-28T09:39:08.678Z</time></trkpt><trkpt lat="37.8020317" lon="12.6416964"><ele>144.0</ele><time>2026-04-28T09:39:09.68Z</time></trkpt><trkpt lat="37.8020147" lon="12.6414174"><ele>144.5</ele><time>2026-04-28T09:39:10.679Z</time></trkpt><trkpt lat="37.8019936" lon="12.6411369"><ele>145.0</ele><time>2026-04-28T09:39:11.679Z</time></trkpt><trkpt lat="37.8019771" lon="12.6408476"><ele>143.5</ele><time>2026-04-28T09:39:12.679Z</time></trkpt><trkpt lat="37.801959" lon="12.640565"><ele>142.0</ele><time>2026-04-28T09:39:13.68Z</time></trkpt><trkpt lat="37.8019367" lon="12.6402758"><ele>142.0</ele><time>2026-04-28T09:39:14.679Z</time></trkpt><trkpt lat="37.8019182" lon="12.6399981"><ele>142.0</ele><time>2026-04-28T09:39:15.679Z</time></trkpt><trkpt lat="37.801901" lon="12.6397178"><ele>142.0</ele><time>2026-04-28T09:39:16.68Z</time></trkpt><trkpt lat="37.8018847" lon="12.6394386"><ele>141.66666666666669</ele><time>2026-04-28T09:39:17.679Z</time></trkpt><trkpt lat="37.8018681" lon="12.6391572"><ele>141.33333333333334</ele><time>2026-04-28T09:39:18.679Z</time></trkpt><trkpt lat="37.8018454" lon="12.638881"><ele>141.0</ele><time>2026-04-28T09:39:19.678Z</time></trkpt><trkpt lat="37.8018164" lon="12.6386108"><ele>140.5</ele><time>2026-04-28T09:39:20.679Z</time></trkpt><trkpt lat="37.8017771" lon="12.6383324"><ele>140.0</ele><time>2026-04-28T09:39:21.679Z</time></trkpt><trkpt lat="37.8017303" lon="12.6380475"><ele>138.0</ele><time>2026-04-28T09:39:22.68Z</time></trkpt><trkpt lat="37.8016755" lon="12.6377749"><ele>136.0</ele><time>2026-04-28T09:39:23.678Z</time></trkpt><trkpt lat="37.8016013" lon="12.637498"><ele>136.0</ele><time>2026-04-28T09:39:24.679Z</time></trkpt><trkpt lat="37.8015217" lon="12.6372217"><ele>136.0</ele><time>2026-04-28T09:39:25.68Z</time></trkpt><trkpt lat="37.8014358" lon="12.6369518"><ele>133.0</ele><time>2026-04-28T09:39:26.679Z</time></trkpt><trkpt lat="37.8013455" lon="12.6366818"><ele>130.0</ele><time>2026-04-28T09:39:27.679Z</time></trkpt><trkpt lat="37.8012526" lon="12.6364152"><ele>130.0</ele><time>2026-04-28T09:39:28.68Z</time></trkpt><trkpt lat="37.801157" lon="12.6361522"><ele>130.0</ele><time>2026-04-28T09:39:29.678Z</time></trkpt><trkpt lat="37.8010659" lon="12.6358849"><ele>130.0</ele><time>2026-04-28T09:39:30.679Z</time></trkpt><trkpt lat="37.8009617" lon="12.6356285"><ele>130.0</ele><time>2026-04-28T09:39:31.678Z</time></trkpt><trkpt lat="37.8008448" lon="12.6353827"><ele>127.5</ele><time>2026-04-28T09:39:32.679Z</time></trkpt><trkpt lat="37.8007149" lon="12.6351428"><ele>125.0</ele><time>2026-04-28T09:39:33.679Z</time></trkpt><trkpt lat="37.8005831" lon="12.6349162"><ele>125.0</ele><time>2026-04-28T09:39:34.679Z</time></trkpt><trkpt lat="37.8004444" lon="12.6346895"><ele>125.0</ele><time>2026-04-28T09:39:35.679Z</time></trkpt><trkpt lat="37.8003091" lon="12.6344631"><ele>125.0</ele><time>2026-04-28T09:39:36.679Z</time></trkpt><trkpt lat="37.8001781" lon="12.6342428"><ele>125.0</ele><time>2026-04-28T09:39:37.68Z</time></trkpt><trkpt lat="37.8000471" lon="12.634008"><ele>125.0</ele><time>2026-04-28T09:39:38.68Z</time></trkpt><trkpt lat="37.7999242" lon="12.6337635"><ele>121.0</ele><time>2026-04-28T09:39:39.679Z</time></trkpt><trkpt lat="37.7998102" lon="12.6335145"><ele>117.0</ele><time>2026-04-28T09:39:40.68Z</time></trkpt><trkpt lat="37.7997025" lon="12.6332568"><ele>117.0</ele><time>2026-04-28T09:39:41.679Z</time></trkpt><trkpt lat="37.7996112" lon="12.6329892"><ele>117.0</ele><time>2026-04-28T09:39:42.681Z</time></trkpt><trkpt lat="37.7995306" lon="12.6327184"><ele>114.5</ele><time>2026-04-28T09:39:43.679Z</time></trkpt><trkpt lat="37.7994613" lon="12.6324437"><ele>112.0</ele><time>2026-04-28T09:39:44.679Z</time></trkpt><trkpt lat="37.7993978" lon="12.6321647"><ele>112.0</ele><time>2026-04-28T09:39:45.678Z</time></trkpt><trkpt lat="37.7993493" lon="12.6318753"><ele>112.0</ele><time>2026-04-28T09:39:46.679Z</time></trkpt><trkpt lat="37.7993136" lon="12.6315785"><ele>112.0</ele><time>2026-04-28T09:39:47.679Z</time></trkpt><trkpt lat="37.7992914" lon="12.631271"><ele>112.0</ele><time>2026-04-28T09:39:48.679Z</time></trkpt><trkpt lat="37.7992771" lon="12.6309495"><ele>111.0</ele><time>2026-04-28T09:39:49.679Z</time></trkpt><trkpt lat="37.7992831" lon="12.6306273"><ele>110.0</ele><time>2026-04-28T09:39:50.679Z</time></trkpt><trkpt lat="37.7992932" lon="12.6303191"><ele>109.5</ele><time>2026-04-28T09:39:51.679Z</time></trkpt><trkpt lat="37.7993124" lon="12.6300244"><ele>109.0</ele><time>2026-04-28T09:39:52.679Z</time></trkpt><trkpt lat="37.7993308" lon="12.6297307"><ele>109.0</ele><time>2026-04-28T09:39:53.68Z</time></trkpt><trkpt lat="37.7993546" lon="12.6294336"><ele>109.0</ele><time>2026-04-28T09:39:54.68Z</time></trkpt><trkpt lat="37.7993832" lon="12.6291388"><ele>109.0</ele><time>2026-04-28T09:39:55.68Z</time></trkpt><trkpt lat="37.7994029" lon="12.6288289"><ele>109.0</ele><time>2026-04-28T09:39:56.678Z</time></trkpt><trkpt lat="37.7994315" lon="12.6285025"><ele>108.5</ele><time>2026-04-28T09:39:57.679Z</time></trkpt><trkpt lat="37.7994539" lon="12.628188"><ele>108.0</ele><time>2026-04-28T09:39:58.678Z</time></trkpt><trkpt lat="37.7994801" lon="12.6278781"><ele>107.0</ele><time>2026-04-28T09:39:59.679Z</time></trkpt><trkpt lat="37.7994993" lon="12.627587"><ele>106.0</ele><time>2026-04-28T09:40:00.68Z</time></trkpt><trkpt lat="37.7995156" lon="12.6273154"><ele>105.0</ele><time>2026-04-28T09:40:01.68Z</time></trkpt><trkpt lat="37.7995385" lon="12.6270444"><ele>105.5</ele><time>2026-04-28T09:40:02.679Z</time></trkpt><trkpt lat="37.7995599" lon="12.6267623"><ele>106.0</ele><time>2026-04-28T09:40:03.678Z</time></trkpt><trkpt lat="37.7996009" lon="12.6264733"><ele>106.0</ele><time>2026-04-28T09:40:04.68Z</time></trkpt><trkpt lat="37.7996465" lon="12.626174"><ele>106.0</ele><time>2026-04-28T09:40:05.679Z</time></trkpt><trkpt lat="37.7996995" lon="12.6258785"><ele>107.5</ele><time>2026-04-28T09:40:06.679Z</time></trkpt><trkpt lat="37.7997642" lon="12.6255785"><ele>109.0</ele><time>2026-04-28T09:40:07.679Z</time></trkpt><trkpt lat="37.7998396" lon="12.6252858"><ele>109.0</ele><time>2026-04-28T09:40:08.68Z</time></trkpt><trkpt lat="37.7999301" lon="12.6250014"><ele>109.0</ele><time>2026-04-28T09:40:09.681Z</time></trkpt><trkpt lat="37.8000345" lon="12.6247227"><ele>107.5</ele><time>2026-04-28T09:40:10.679Z</time></trkpt><trkpt lat="37.8001561" lon="12.6244429"><ele>106.0</ele><time>2026-04-28T09:40:11.678Z</time></trkpt><trkpt lat="37.8002811" lon="12.6241724"><ele>104.5</ele><time>2026-04-28T09:40:12.679Z</time></trkpt><trkpt lat="37.800416" lon="12.6239055"><ele>103.0</ele><time>2026-04-28T09:40:13.679Z</time></trkpt><trkpt lat="37.8005512" lon="12.6236453"><ele>101.5</ele><time>2026-04-28T09:40:14.679Z</time></trkpt><trkpt lat="37.8006884" lon="12.6233845"><ele>100.0</ele><time>2026-04-28T09:40:15.68Z</time></trkpt><trkpt lat="37.8008235" lon="12.6231343"><ele>100.0</ele><time>2026-04-28T09:40:16.679Z</time></trkpt><trkpt lat="37.8009558" lon="12.6228879"><ele>100.0</ele><time>2026-04-28T09:40:17.679Z</time></trkpt><trkpt lat="37.8010874" lon="12.6226495"><ele>99.66666666666667</ele><time>2026-04-28T09:40:18.679Z</time></trkpt><trkpt lat="37.8012096" lon="12.6224191"><ele>99.33333333333334</ele><time>2026-04-28T09:40:19.679Z</time></trkpt><trkpt lat="37.8013299" lon="12.6221782"><ele>99.0</ele><time>2026-04-28T09:40:20.679Z</time></trkpt><trkpt lat="37.8014421" lon="12.6219298"><ele>99.66666666666666</ele><time>2026-04-28T09:40:21.68Z</time></trkpt><trkpt lat="37.8015429" lon="12.6216776"><ele>100.33333333333333</ele><time>2026-04-28T09:40:22.68Z</time></trkpt><trkpt lat="37.801622" lon="12.6214413"><ele>101.0</ele><time>2026-04-28T09:40:23.679Z</time></trkpt><trkpt lat="37.8016863" lon="12.6212168"><ele>101.33333333333333</ele><time>2026-04-28T09:40:24.678Z</time></trkpt><trkpt lat="37.8017413" lon="12.6210025"><ele>101.66666666666666</ele><time>2026-04-28T09:40:25.68Z</time></trkpt><trkpt lat="37.801784" lon="12.6207771"><ele>102.0</ele><time>2026-04-28T09:40:26.679Z</time></trkpt><trkpt lat="37.8018198" lon="12.6205319"><ele>100.33333333333334</ele><time>2026-04-28T09:40:27.679Z</time></trkpt><trkpt lat="37.8018404" lon="12.6202793"><ele>98.66666666666667</ele><time>2026-04-28T09:40:28.679Z</time></trkpt><trkpt lat="37.8018472" lon="12.6200179"><ele>97.0</ele><time>2026-04-28T09:40:29.679Z</time></trkpt><trkpt lat="37.8018406" lon="12.6197502"><ele>95.33333333333334</ele><time>2026-04-28T09:40:30.679Z</time></trkpt><trkpt lat="37.8018178" lon="12.6194828"><ele>93.66666666666667</ele><time>2026-04-28T09:40:31.679Z</time></trkpt><trkpt lat="37.8017891" lon="12.6192085"><ele>92.0</ele><time>2026-04-28T09:40:32.68Z</time></trkpt><trkpt lat="37.8017466" lon="12.6189155"><ele>90.0</ele><time>2026-04-28T09:40:33.679Z</time></trkpt><trkpt lat="37.8016878" lon="12.6186208"><ele>88.0</ele><time>2026-04-28T09:40:34.678Z</time></trkpt><trkpt lat="37.8016207" lon="12.6183318"><ele>88.0</ele><time>2026-04-28T09:40:35.679Z</time></trkpt><trkpt lat="37.8015642" lon="12.6180562"><ele>88.0</ele><time>2026-04-28T09:40:36.68Z</time></trkpt><trkpt lat="37.8015078" lon="12.6177762"><ele>86.33333333333333</ele><time>2026-04-28T09:40:37.679Z</time></trkpt><trkpt lat="37.8014546" lon="12.6175048"><ele>84.66666666666667</ele><time>2026-04-28T09:40:38.68Z</time></trkpt><trkpt lat="37.8014138" lon="12.6172331"><ele>83.0</ele><time>2026-04-28T09:40:39.679Z</time></trkpt><trkpt lat="37.8013766" lon="12.616953"><ele>81.5</ele><time>2026-04-28T09:40:40.68Z</time></trkpt><trkpt lat="37.8013513" lon="12.6166627"><ele>80.0</ele><time>2026-04-28T09:40:41.679Z</time></trkpt><trkpt lat="37.8013303" lon="12.6160593"><ele>80.0</ele><time>2026-04-28T09:40:43.68Z</time></trkpt><trkpt lat="37.8013418" lon="12.6157492"><ele>80.0</ele><time>2026-04-28T09:40:44.68Z</time></trkpt><trkpt lat="37.8013833" lon="12.6154526"><ele>79.0</ele><time>2026-04-28T09:40:45.679Z</time></trkpt><trkpt lat="37.8014197" lon="12.6151411"><ele>78.0</ele><time>2026-04-28T09:40:46.68Z</time></trkpt><trkpt lat="37.801462" lon="12.614822"><ele>78.0</ele><time>2026-04-28T09:40:47.679Z</time></trkpt><trkpt lat="37.801499" lon="12.6145068"><ele>78.0</ele><time>2026-04-28T09:40:48.679Z</time></trkpt><trkpt lat="37.8015431" lon="12.6141778"><ele>77.0</ele><time>2026-04-28T09:40:49.679Z</time></trkpt><trkpt lat="37.8015883" lon="12.6138339"><ele>76.0</ele><time>2026-04-28T09:40:50.678Z</time></trkpt><trkpt lat="37.8016353" lon="12.6134798"><ele>75.0</ele><time>2026-04-28T09:40:51.68Z</time></trkpt><trkpt lat="37.8016722" lon="12.6131142"><ele>74.0</ele><time>2026-04-28T09:40:52.679Z</time></trkpt><trkpt lat="37.8017115" lon="12.6127516"><ele>73.0</ele><time>2026-04-28T09:40:53.679Z</time></trkpt><trkpt lat="37.8017502" lon="12.6123906"><ele>72.0</ele><time>2026-04-28T09:40:54.678Z</time></trkpt><trkpt lat="37.8018252" lon="12.6116739"><ele>71.0</ele><time>2026-04-28T09:40:56.679Z</time></trkpt><trkpt lat="37.8018691" lon="12.6113228"><ele>70.0</ele><time>2026-04-28T09:40:57.679Z</time></trkpt><trkpt lat="37.8019128" lon="12.6109758"><ele>70.0</ele><time>2026-04-28T09:40:58.679Z</time></trkpt><trkpt lat="37.8019519" lon="12.6106195"><ele>70.0</ele><time>2026-04-28T09:40:59.68Z</time></trkpt><trkpt lat="37.8019885" lon="12.6102687"><ele>70.0</ele><time>2026-04-28T09:41:00.679Z</time></trkpt><trkpt lat="37.8020263" lon="12.6099187"><ele>70.0</ele><time>2026-04-28T09:41:01.679Z</time></trkpt><trkpt lat="37.8020654" lon="12.6095662"><ele>70.5</ele><time>2026-04-28T09:41:02.679Z</time></trkpt><trkpt lat="37.8021067" lon="12.6092162"><ele>71.0</ele><time>2026-04-28T09:41:03.68Z</time></trkpt><trkpt lat="37.8021406" lon="12.6088581"><ele>70.5</ele><time>2026-04-28T09:41:04.679Z</time></trkpt><trkpt lat="37.8021859" lon="12.6084989"><ele>70.0</ele><time>2026-04-28T09:41:05.679Z</time></trkpt><trkpt lat="37.8022261" lon="12.608133"><ele>69.0</ele><time>2026-04-28T09:41:06.679Z</time></trkpt><trkpt lat="37.8022829" lon="12.6077729"><ele>68.0</ele><time>2026-04-28T09:41:07.679Z</time></trkpt><trkpt lat="37.8023283" lon="12.6074031"><ele>68.0</ele><time>2026-04-28T09:41:08.679Z</time></trkpt><trkpt lat="37.8023779" lon="12.6070352"><ele>68.0</ele><time>2026-04-28T09:41:09.68Z</time></trkpt><trkpt lat="37.8024308" lon="12.6066785"><ele>67.0</ele><time>2026-04-28T09:41:10.679Z</time></trkpt><trkpt lat="37.8024779" lon="12.6063166"><ele>66.0</ele><time>2026-04-28T09:41:11.68Z</time></trkpt><trkpt lat="37.8025224" lon="12.6059603"><ele>65.5</ele><time>2026-04-28T09:41:12.678Z</time></trkpt><trkpt lat="37.80256" lon="12.6056024"><ele>65.0</ele><time>2026-04-28T09:41:13.679Z</time></trkpt><trkpt lat="37.8026042" lon="12.6052469"><ele>66.0</ele><time>2026-04-28T09:41:14.678Z</time></trkpt><trkpt lat="37.8026459" lon="12.6049081"><ele>67.0</ele><time>2026-04-28T09:41:15.68Z</time></trkpt><trkpt lat="37.8026864" lon="12.6045659"><ele>67.0</ele><time>2026-04-28T09:41:16.679Z</time></trkpt><trkpt lat="37.8027143" lon="12.6042371"><ele>67.0</ele><time>2026-04-28T09:41:17.68Z</time></trkpt><trkpt lat="37.8027533" lon="12.6039057"><ele>67.0</ele><time>2026-04-28T09:41:18.679Z</time></trkpt><trkpt lat="37.8027953" lon="12.60357"><ele>67.0</ele><time>2026-04-28T09:41:19.679Z</time></trkpt><trkpt lat="37.8028345" lon="12.6032432"><ele>67.0</ele><time>2026-04-28T09:41:20.679Z</time></trkpt><trkpt lat="37.8028693" lon="12.6029098"><ele>67.0</ele><time>2026-04-28T09:41:21.68Z</time></trkpt><trkpt lat="37.8029119" lon="12.60258"><ele>66.0</ele><time>2026-04-28T09:41:22.68Z</time></trkpt><trkpt lat="37.8029462" lon="12.6022466"><ele>65.0</ele><time>2026-04-28T09:41:23.679Z</time></trkpt><trkpt lat="37.802982" lon="12.6019075"><ele>64.5</ele><time>2026-04-28T09:41:24.678Z</time></trkpt><trkpt lat="37.8030177" lon="12.601581"><ele>64.0</ele><time>2026-04-28T09:41:25.68Z</time></trkpt><trkpt lat="37.8030524" lon="12.6012501"><ele>65.5</ele><time>2026-04-28T09:41:26.68Z</time></trkpt><trkpt lat="37.8030882" lon="12.6009209"><ele>67.0</ele><time>2026-04-28T09:41:27.678Z</time></trkpt><trkpt lat="37.8031317" lon="12.6005957"><ele>66.5</ele><time>2026-04-28T09:41:28.68Z</time></trkpt><trkpt lat="37.8031662" lon="12.6002759"><ele>66.0</ele><time>2026-04-28T09:41:29.679Z</time></trkpt><trkpt lat="37.8032032" lon="12.5999629"><ele>66.0</ele><time>2026-04-28T09:41:30.68Z</time></trkpt><trkpt lat="37.8032377" lon="12.5996455"><ele>66.0</ele><time>2026-04-28T09:41:31.678Z</time></trkpt><trkpt lat="37.8032725" lon="12.5993278"><ele>66.5</ele><time>2026-04-28T09:41:32.681Z</time></trkpt><trkpt lat="37.8033102" lon="12.5990053"><ele>67.0</ele><time>2026-04-28T09:41:33.68Z</time></trkpt><trkpt lat="37.8033469" lon="12.5986897"><ele>67.0</ele><time>2026-04-28T09:41:34.68Z</time></trkpt><trkpt lat="37.8033849" lon="12.598369"><ele>67.0</ele><time>2026-04-28T09:41:35.68Z</time></trkpt><trkpt lat="37.8034251" lon="12.5980541"><ele>68.5</ele><time>2026-04-28T09:41:36.679Z</time></trkpt><trkpt lat="37.8034587" lon="12.5977424"><ele>70.0</ele><time>2026-04-28T09:41:37.68Z</time></trkpt><trkpt lat="37.8034962" lon="12.5974318"><ele>68.0</ele><time>2026-04-28T09:41:38.679Z</time></trkpt><trkpt lat="37.803534" lon="12.5971285"><ele>66.0</ele><time>2026-04-28T09:41:39.68Z</time></trkpt><trkpt lat="37.8035735" lon="12.5968265"><ele>66.0</ele><time>2026-04-28T09:41:40.68Z</time></trkpt><trkpt lat="37.8036145" lon="12.5965218"><ele>66.0</ele><time>2026-04-28T09:41:41.681Z</time></trkpt><trkpt lat="37.8036457" lon="12.5962163"><ele>66.5</ele><time>2026-04-28T09:41:42.681Z</time></trkpt><trkpt lat="37.8036804" lon="12.5959108"><ele>67.0</ele><time>2026-04-28T09:41:43.68Z</time></trkpt><trkpt lat="37.8037185" lon="12.5956112"><ele>68.0</ele><time>2026-04-28T09:41:44.678Z</time></trkpt><trkpt lat="37.8037545" lon="12.5953084"><ele>69.0</ele><time>2026-04-28T09:41:45.68Z</time></trkpt><trkpt lat="37.8037949" lon="12.5950113"><ele>69.0</ele><time>2026-04-28T09:41:46.68Z</time></trkpt><trkpt lat="37.8038239" lon="12.5947176"><ele>69.0</ele><time>2026-04-28T09:41:47.68Z</time></trkpt><trkpt lat="37.803844" lon="12.5944298"><ele>71.0</ele><time>2026-04-28T09:41:48.678Z</time></trkpt><trkpt lat="37.8038571" lon="12.5941338"><ele>73.0</ele><time>2026-04-28T09:41:49.679Z</time></trkpt><trkpt lat="37.8038514" lon="12.5938358"><ele>74.5</ele><time>2026-04-28T09:41:50.68Z</time></trkpt><trkpt lat="37.8038383" lon="12.593543"><ele>76.0</ele><time>2026-04-28T09:41:51.68Z</time></trkpt><trkpt lat="37.8038102" lon="12.5932462"><ele>76.0</ele><time>2026-04-28T09:41:52.679Z</time></trkpt><trkpt lat="37.8037745" lon="12.5929488"><ele>76.0</ele><time>2026-04-28T09:41:53.679Z</time></trkpt><trkpt lat="37.8037252" lon="12.5926561"><ele>76.0</ele><time>2026-04-28T09:41:54.68Z</time></trkpt><trkpt lat="37.8036593" lon="12.5923578"><ele>76.0</ele><time>2026-04-28T09:41:55.68Z</time></trkpt><trkpt lat="37.8035824" lon="12.5920603"><ele>78.5</ele><time>2026-04-28T09:41:56.679Z</time></trkpt><trkpt lat="37.8034879" lon="12.5917641"><ele>81.0</ele><time>2026-04-28T09:41:57.679Z</time></trkpt><trkpt lat="37.8033799" lon="12.5914709"><ele>81.0</ele><time>2026-04-28T09:41:58.679Z</time></trkpt><trkpt lat="37.8032714" lon="12.5911905"><ele>81.0</ele><time>2026-04-28T09:41:59.678Z</time></trkpt><trkpt lat="37.8031506" lon="12.5909041"><ele>81.0</ele><time>2026-04-28T09:42:00.679Z</time></trkpt><trkpt lat="37.8030268" lon="12.5906141"><ele>81.0</ele><time>2026-04-28T09:42:01.68Z</time></trkpt><trkpt lat="37.8029047" lon="12.5903238"><ele>82.0</ele><time>2026-04-28T09:42:02.679Z</time></trkpt><trkpt lat="37.8027834" lon="12.5900249"><ele>83.0</ele><time>2026-04-28T09:42:03.678Z</time></trkpt><trkpt lat="37.80266" lon="12.5897307"><ele>82.5</ele><time>2026-04-28T09:42:04.68Z</time></trkpt><trkpt lat="37.8025362" lon="12.5894438"><ele>82.0</ele><time>2026-04-28T09:42:05.679Z</time></trkpt><trkpt lat="37.8024171" lon="12.589158"><ele>82.0</ele><time>2026-04-28T09:42:06.679Z</time></trkpt><trkpt lat="37.802299" lon="12.5888771"><ele>82.0</ele><time>2026-04-28T09:42:07.679Z</time></trkpt><trkpt lat="37.8021788" lon="12.5886025"><ele>83.5</ele><time>2026-04-28T09:42:08.678Z</time></trkpt><trkpt lat="37.802055" lon="12.5883196"><ele>85.0</ele><time>2026-04-28T09:42:09.679Z</time></trkpt><trkpt lat="37.8019318" lon="12.5880305"><ele>85.0</ele><time>2026-04-28T09:42:10.679Z</time></trkpt><trkpt lat="37.8018018" lon="12.5877358"><ele>85.0</ele><time>2026-04-28T09:42:11.68Z</time></trkpt><trkpt lat="37.8016749" lon="12.5874244"><ele>85.0</ele><time>2026-04-28T09:42:12.679Z</time></trkpt><trkpt lat="37.8015524" lon="12.5871399"><ele>85.0</ele><time>2026-04-28T09:42:13.68Z</time></trkpt><trkpt lat="37.8014355" lon="12.5868583"><ele>86.5</ele><time>2026-04-28T09:42:14.68Z</time></trkpt><trkpt lat="37.801321" lon="12.5865836"><ele>88.0</ele><time>2026-04-28T09:42:15.679Z</time></trkpt><trkpt lat="37.8012065" lon="12.5863077"><ele>89.0</ele><time>2026-04-28T09:42:16.679Z</time></trkpt><trkpt lat="37.801092" lon="12.5860405"><ele>90.0</ele><time>2026-04-28T09:42:17.68Z</time></trkpt><trkpt lat="37.8009768" lon="12.5857638"><ele>90.0</ele><time>2026-04-28T09:42:18.68Z</time></trkpt><trkpt lat="37.8008513" lon="12.5854955"><ele>90.0</ele><time>2026-04-28T09:42:19.68Z</time></trkpt><trkpt lat="37.8007233" lon="12.5852233"><ele>89.0</ele><time>2026-04-28T09:42:20.679Z</time></trkpt><trkpt lat="37.8005921" lon="12.5849438"><ele>88.0</ele><time>2026-04-28T09:42:21.679Z</time></trkpt><trkpt lat="37.8004503" lon="12.5846619"><ele>87.0</ele><time>2026-04-28T09:42:22.679Z</time></trkpt><trkpt lat="37.8003115" lon="12.584395"><ele>86.0</ele><time>2026-04-28T09:42:23.679Z</time></trkpt><trkpt lat="37.8001791" lon="12.5841323"><ele>86.5</ele><time>2026-04-28T09:42:24.681Z</time></trkpt><trkpt lat="37.8000489" lon="12.5838771"><ele>87.0</ele><time>2026-04-28T09:42:25.679Z</time></trkpt><trkpt lat="37.7999305" lon="12.5836416"><ele>87.0</ele><time>2026-04-28T09:42:26.679Z</time></trkpt><trkpt lat="37.799802" lon="12.5833999"><ele>87.0</ele><time>2026-04-28T09:42:27.679Z</time></trkpt><trkpt lat="37.7996854" lon="12.5831571"><ele>87.0</ele><time>2026-04-28T09:42:28.68Z</time></trkpt><trkpt lat="37.7995686" lon="12.5829043"><ele>87.0</ele><time>2026-04-28T09:42:29.679Z</time></trkpt><trkpt lat="37.7994651" lon="12.5826423"><ele>87.0</ele><time>2026-04-28T09:42:30.678Z</time></trkpt><trkpt lat="37.7993757" lon="12.5823591"><ele>87.0</ele><time>2026-04-28T09:42:31.68Z</time></trkpt><trkpt lat="37.7992894" lon="12.5820754"><ele>88.5</ele><time>2026-04-28T09:42:32.679Z</time></trkpt><trkpt lat="37.7992492" lon="12.58176"><ele>90.0</ele><time>2026-04-28T09:42:33.681Z</time></trkpt><trkpt lat="37.7991947" lon="12.5814562"><ele>90.5</ele><time>2026-04-28T09:42:34.679Z</time></trkpt><trkpt lat="37.7992056" lon="12.5811064"><ele>91.0</ele><time>2026-04-28T09:42:35.68Z</time></trkpt><trkpt lat="37.7991887" lon="12.5807741"><ele>91.0</ele><time>2026-04-28T09:42:36.68Z</time></trkpt><trkpt lat="37.7991928" lon="12.5804191"><ele>91.0</ele><time>2026-04-28T09:42:37.681Z</time></trkpt><trkpt lat="37.7991917" lon="12.5800786"><ele>91.0</ele><time>2026-04-28T09:42:38.68Z</time></trkpt><trkpt lat="37.7991936" lon="12.5797448"><ele>91.0</ele><time>2026-04-28T09:42:39.679Z</time></trkpt><trkpt lat="37.7991897" lon="12.5794026"><ele>91.5</ele><time>2026-04-28T09:42:40.679Z</time></trkpt><trkpt lat="37.7991989" lon="12.5790778"><ele>92.0</ele><time>2026-04-28T09:42:41.679Z</time></trkpt><trkpt lat="37.7992092" lon="12.5787437"><ele>92.5</ele><time>2026-04-28T09:42:42.679Z</time></trkpt><trkpt lat="37.7992095" lon="12.5784146"><ele>93.0</ele><time>2026-04-28T09:42:43.68Z</time></trkpt><trkpt lat="37.799214" lon="12.5781067"><ele>94.0</ele><time>2026-04-28T09:42:44.681Z</time></trkpt><trkpt lat="37.799212" lon="12.5778004"><ele>95.0</ele><time>2026-04-28T09:42:45.68Z</time></trkpt><trkpt lat="37.7992135" lon="12.5774924"><ele>95.0</ele><time>2026-04-28T09:42:46.679Z</time></trkpt><trkpt lat="37.7992142" lon="12.5771947"><ele>95.0</ele><time>2026-04-28T09:42:47.679Z</time></trkpt><trkpt lat="37.799216" lon="12.5768951"><ele>95.0</ele><time>2026-04-28T09:42:48.679Z</time></trkpt><trkpt lat="37.7992132" lon="12.5765966"><ele>95.0</ele><time>2026-04-28T09:42:49.68Z</time></trkpt><trkpt lat="37.799218" lon="12.5762935"><ele>95.5</ele><time>2026-04-28T09:42:50.68Z</time></trkpt><trkpt lat="37.7992208" lon="12.5759823"><ele>96.0</ele><time>2026-04-28T09:42:51.678Z</time></trkpt><trkpt lat="37.7992312" lon="12.5756632"><ele>95.5</ele><time>2026-04-28T09:42:52.68Z</time></trkpt><trkpt lat="37.7992388" lon="12.5753243"><ele>95.0</ele><time>2026-04-28T09:42:53.679Z</time></trkpt><trkpt lat="37.799237" lon="12.5749916"><ele>95.0</ele><time>2026-04-28T09:42:54.679Z</time></trkpt><trkpt lat="37.7992419" lon="12.5746616"><ele>95.0</ele><time>2026-04-28T09:42:55.681Z</time></trkpt><trkpt lat="37.7992541" lon="12.5743352"><ele>96.0</ele><time>2026-04-28T09:42:56.68Z</time></trkpt><trkpt lat="37.7992726" lon="12.5740126"><ele>97.0</ele><time>2026-04-28T09:42:57.68Z</time></trkpt><trkpt lat="37.7993041" lon="12.5737"><ele>96.5</ele><time>2026-04-28T09:42:58.68Z</time></trkpt><trkpt lat="37.7993433" lon="12.573386"><ele>96.0</ele><time>2026-04-28T09:42:59.68Z</time></trkpt><trkpt lat="37.7994082" lon="12.5730787"><ele>97.5</ele><time>2026-04-28T09:43:00.679Z</time></trkpt><trkpt lat="37.7994867" lon="12.5727814"><ele>99.0</ele><time>2026-04-28T09:43:01.679Z</time></trkpt><trkpt lat="37.7995787" lon="12.5724807"><ele>99.0</ele><time>2026-04-28T09:43:02.679Z</time></trkpt><trkpt lat="37.7996783" lon="12.572186"><ele>99.0</ele><time>2026-04-28T09:43:03.68Z</time></trkpt><trkpt lat="37.7997839" lon="12.5718891"><ele>102.5</ele><time>2026-04-28T09:43:04.679Z</time></trkpt><trkpt lat="37.7998879" lon="12.571594"><ele>106.0</ele><time>2026-04-28T09:43:05.68Z</time></trkpt><trkpt lat="37.7999934" lon="12.571296"><ele>106.0</ele><time>2026-04-28T09:43:06.68Z</time></trkpt><trkpt lat="37.8000938" lon="12.5709952"><ele>106.0</ele><time>2026-04-28T09:43:07.68Z</time></trkpt><trkpt lat="37.8001864" lon="12.5706848"><ele>106.0</ele><time>2026-04-28T09:43:08.678Z</time></trkpt><trkpt lat="37.8002675" lon="12.5703713"><ele>106.0</ele><time>2026-04-28T09:43:09.679Z</time></trkpt><trkpt lat="37.8003411" lon="12.5700564"><ele>109.5</ele><time>2026-04-28T09:43:10.68Z</time></trkpt><trkpt lat="37.800401" lon="12.5697469"><ele>113.0</ele><time>2026-04-28T09:43:11.68Z</time></trkpt><trkpt lat="37.8004584" lon="12.5694483"><ele>115.0</ele><time>2026-04-28T09:43:12.679Z</time></trkpt><trkpt lat="37.8004969" lon="12.5691591"><ele>117.0</ele><time>2026-04-28T09:43:13.679Z</time></trkpt><trkpt lat="37.8005267" lon="12.5688682"><ele>115.5</ele><time>2026-04-28T09:43:14.679Z</time></trkpt><trkpt lat="37.8005541" lon="12.5685847"><ele>114.0</ele><time>2026-04-28T09:43:15.68Z</time></trkpt><trkpt lat="37.8005643" lon="12.5682892"><ele>114.0</ele><time>2026-04-28T09:43:16.679Z</time></trkpt><trkpt lat="37.8005634" lon="12.5679939"><ele>114.0</ele><time>2026-04-28T09:43:17.679Z</time></trkpt><trkpt lat="37.8005444" lon="12.567697"><ele>114.0</ele><time>2026-04-28T09:43:18.68Z</time></trkpt><trkpt lat="37.8005182" lon="12.567402"><ele>114.0</ele><time>2026-04-28T09:43:19.679Z</time></trkpt><trkpt lat="37.8004769" lon="12.5670954"><ele>113.0</ele><time>2026-04-28T09:43:20.68Z</time></trkpt><trkpt lat="37.8004174" lon="12.5667913"><ele>112.0</ele><time>2026-04-28T09:43:21.679Z</time></trkpt><trkpt lat="37.8003501" lon="12.5664985"><ele>112.0</ele><time>2026-04-28T09:43:22.679Z</time></trkpt><trkpt lat="37.8002601" lon="12.5662082"><ele>112.0</ele><time>2026-04-28T09:43:23.68Z</time></trkpt><trkpt lat="37.8001497" lon="12.565915"><ele>112.0</ele><time>2026-04-28T09:43:24.678Z</time></trkpt><trkpt lat="37.8000259" lon="12.5656253"><ele>112.0</ele><time>2026-04-28T09:43:25.678Z</time></trkpt><trkpt lat="37.799896" lon="12.5653476"><ele>112.0</ele><time>2026-04-28T09:43:26.681Z</time></trkpt><trkpt lat="37.7997479" lon="12.5650636"><ele>112.0</ele><time>2026-04-28T09:43:27.68Z</time></trkpt><trkpt lat="37.7995968" lon="12.5647827"><ele>111.5</ele><time>2026-04-28T09:43:28.68Z</time></trkpt><trkpt lat="37.7994519" lon="12.5645079"><ele>111.0</ele><time>2026-04-28T09:43:29.68Z</time></trkpt><trkpt lat="37.799309" lon="12.5642494"><ele>111.0</ele><time>2026-04-28T09:43:30.681Z</time></trkpt><trkpt lat="37.7991828" lon="12.5640147"><ele>111.0</ele><time>2026-04-28T09:43:31.679Z</time></trkpt><trkpt lat="37.799062" lon="12.5637908"><ele>111.0</ele><time>2026-04-28T09:43:32.679Z</time></trkpt><trkpt lat="37.7989356" lon="12.5635662"><ele>112.33333333333334</ele><time>2026-04-28T09:43:33.68Z</time></trkpt><trkpt lat="37.7988092" lon="12.5633385"><ele>113.66666666666667</ele><time>2026-04-28T09:43:34.68Z</time></trkpt><trkpt lat="37.7986921" lon="12.5631204"><ele>115.0</ele><time>2026-04-28T09:43:35.679Z</time></trkpt><trkpt lat="37.7985782" lon="12.5629003"><ele>115.0</ele><time>2026-04-28T09:43:36.679Z</time></trkpt><trkpt lat="37.7984774" lon="12.5626674"><ele>115.0</ele><time>2026-04-28T09:43:37.678Z</time></trkpt><trkpt lat="37.7983833" lon="12.5624292"><ele>115.0</ele><time>2026-04-28T09:43:38.679Z</time></trkpt><trkpt lat="37.798304" lon="12.5621877"><ele>116.0</ele><time>2026-04-28T09:43:39.68Z</time></trkpt><trkpt lat="37.7982477" lon="12.5619557"><ele>117.0</ele><time>2026-04-28T09:43:40.679Z</time></trkpt><trkpt lat="37.7982046" lon="12.5617263"><ele>118.0</ele><time>2026-04-28T09:43:41.679Z</time></trkpt><trkpt lat="37.7981679" lon="12.5614863"><ele>118.0</ele><time>2026-04-28T09:43:42.68Z</time></trkpt><trkpt lat="37.7981562" lon="12.561243"><ele>118.0</ele><time>2026-04-28T09:43:43.68Z</time></trkpt><trkpt lat="37.7981601" lon="12.5609808"><ele>118.0</ele><time>2026-04-28T09:43:44.679Z</time></trkpt><trkpt lat="37.7981736" lon="12.5607093"><ele>118.0</ele><time>2026-04-28T09:43:45.679Z</time></trkpt><trkpt lat="37.7981936" lon="12.5604469"><ele>118.0</ele><time>2026-04-28T09:43:46.68Z</time></trkpt><trkpt lat="37.7982166" lon="12.5602013"><ele>118.0</ele><time>2026-04-28T09:43:47.679Z</time></trkpt><trkpt lat="37.7982385" lon="12.5599653"><ele>118.0</ele><time>2026-04-28T09:43:48.681Z</time></trkpt><trkpt lat="37.7982691" lon="12.559739"><ele>118.0</ele><time>2026-04-28T09:43:49.679Z</time></trkpt><trkpt lat="37.7983268" lon="12.5595084"><ele>118.0</ele><time>2026-04-28T09:43:50.68Z</time></trkpt><trkpt lat="37.7983981" lon="12.5592702"><ele>118.0</ele><time>2026-04-28T09:43:51.68Z</time></trkpt><trkpt lat="37.7984916" lon="12.5590284"><ele>118.0</ele><time>2026-04-28T09:43:52.68Z</time></trkpt><trkpt lat="37.7986003" lon="12.5587763"><ele>118.0</ele><time>2026-04-28T09:43:53.679Z</time></trkpt><trkpt lat="37.7987232" lon="12.5585155"><ele>115.5</ele><time>2026-04-28T09:43:54.678Z</time></trkpt><trkpt lat="37.7988573" lon="12.5582552"><ele>113.0</ele><time>2026-04-28T09:43:55.679Z</time></trkpt><trkpt lat="37.7989967" lon="12.5579907"><ele>112.0</ele><time>2026-04-28T09:43:56.681Z</time></trkpt><trkpt lat="37.7991371" lon="12.5577288"><ele>111.0</ele><time>2026-04-28T09:43:57.679Z</time></trkpt><trkpt lat="37.7992683" lon="12.5574462"><ele>111.0</ele><time>2026-04-28T09:43:58.679Z</time></trkpt><trkpt lat="37.7993915" lon="12.5571465"><ele>111.0</ele><time>2026-04-28T09:43:59.679Z</time></trkpt><trkpt lat="37.7995114" lon="12.5568295"><ele>111.0</ele><time>2026-04-28T09:44:00.679Z</time></trkpt><trkpt lat="37.7996297" lon="12.5564956"><ele>111.0</ele><time>2026-04-28T09:44:01.68Z</time></trkpt><trkpt lat="37.7997485" lon="12.5561408"><ele>111.0</ele><time>2026-04-28T09:44:02.68Z</time></trkpt><trkpt lat="37.7998691" lon="12.5557944"><ele>111.0</ele><time>2026-04-28T09:44:03.679Z</time></trkpt><trkpt lat="37.7999864" lon="12.5554591"><ele>110.0</ele><time>2026-04-28T09:44:04.68Z</time></trkpt><trkpt lat="37.8000952" lon="12.5551387"><ele>109.0</ele><time>2026-04-28T09:44:05.679Z</time></trkpt><trkpt lat="37.8002065" lon="12.554831"><ele>111.5</ele><time>2026-04-28T09:44:06.68Z</time></trkpt><trkpt lat="37.8003115" lon="12.5545195"><ele>114.0</ele><time>2026-04-28T09:44:07.679Z</time></trkpt><trkpt lat="37.8004044" lon="12.5542313"><ele>114.0</ele><time>2026-04-28T09:44:08.679Z</time></trkpt><trkpt lat="37.8004977" lon="12.5539387"><ele>114.0</ele><time>2026-04-28T09:44:09.679Z</time></trkpt><trkpt lat="37.8005908" lon="12.5536533"><ele>114.0</ele><time>2026-04-28T09:44:10.679Z</time></trkpt><trkpt lat="37.8006737" lon="12.5533624"><ele>114.0</ele><time>2026-04-28T09:44:11.68Z</time></trkpt><trkpt lat="37.8007647" lon="12.5530569"><ele>113.0</ele><time>2026-04-28T09:44:12.679Z</time></trkpt><trkpt lat="37.8008449" lon="12.55274"><ele>112.0</ele><time>2026-04-28T09:44:13.679Z</time></trkpt><trkpt lat="37.8009352" lon="12.5524136"><ele>112.5</ele><time>2026-04-28T09:44:14.68Z</time></trkpt><trkpt lat="37.8010236" lon="12.5520687"><ele>113.0</ele><time>2026-04-28T09:44:15.678Z</time></trkpt><trkpt lat="37.8011107" lon="12.5517287"><ele>113.5</ele><time>2026-04-28T09:44:16.68Z</time></trkpt><trkpt lat="37.801203" lon="12.5514089"><ele>114.0</ele><time>2026-04-28T09:44:17.68Z</time></trkpt><trkpt lat="37.8012828" lon="12.551105"><ele>115.0</ele><time>2026-04-28T09:44:18.679Z</time></trkpt><trkpt lat="37.8013564" lon="12.5508137"><ele>116.0</ele><time>2026-04-28T09:44:19.679Z</time></trkpt><trkpt lat="37.8014399" lon="12.550526"><ele>114.5</ele><time>2026-04-28T09:44:20.679Z</time></trkpt><trkpt lat="37.8015115" lon="12.550233"><ele>113.0</ele><time>2026-04-28T09:44:21.68Z</time></trkpt><trkpt lat="37.8015964" lon="12.549939"><ele>113.0</ele><time>2026-04-28T09:44:22.68Z</time></trkpt><trkpt lat="37.8016861" lon="12.5496421"><ele>113.0</ele><time>2026-04-28T09:44:23.679Z</time></trkpt><trkpt lat="37.8017816" lon="12.5493371"><ele>115.0</ele><time>2026-04-28T09:44:24.679Z</time></trkpt><trkpt lat="37.8018767" lon="12.549026"><ele>117.0</ele><time>2026-04-28T09:44:25.679Z</time></trkpt><trkpt lat="37.8019741" lon="12.5487147"><ele>117.0</ele><time>2026-04-28T09:44:26.679Z</time></trkpt><trkpt lat="37.8020825" lon="12.5484059"><ele>117.0</ele><time>2026-04-28T09:44:27.679Z</time></trkpt><trkpt lat="37.8021797" lon="12.5480963"><ele>115.0</ele><time>2026-04-28T09:44:28.679Z</time></trkpt><trkpt lat="37.8022797" lon="12.5478056"><ele>113.0</ele><time>2026-04-28T09:44:29.679Z</time></trkpt><trkpt lat="37.8023761" lon="12.5475237"><ele>113.0</ele><time>2026-04-28T09:44:30.679Z</time></trkpt><trkpt lat="37.8024641" lon="12.547256"><ele>113.0</ele><time>2026-04-28T09:44:31.68Z</time></trkpt><trkpt lat="37.8025512" lon="12.5469881"><ele>112.5</ele><time>2026-04-28T09:44:32.679Z</time></trkpt><trkpt lat="37.8026344" lon="12.5467184"><ele>112.0</ele><time>2026-04-28T09:44:33.679Z</time></trkpt><trkpt lat="37.8027213" lon="12.5464529"><ele>111.33333333333334</ele><time>2026-04-28T09:44:34.679Z</time></trkpt><trkpt lat="37.8028063" lon="12.5461994"><ele>110.66666666666666</ele><time>2026-04-28T09:44:35.679Z</time></trkpt><trkpt lat="37.8028871" lon="12.5459503"><ele>110.0</ele><time>2026-04-28T09:44:36.68Z</time></trkpt><trkpt lat="37.8029747" lon="12.5457008"><ele>110.0</ele><time>2026-04-28T09:44:37.681Z</time></trkpt><trkpt lat="37.8030563" lon="12.5454475"><ele>110.0</ele><time>2026-04-28T09:44:38.68Z</time></trkpt><trkpt lat="37.8031373" lon="12.5451983"><ele>110.0</ele><time>2026-04-28T09:44:39.679Z</time></trkpt><trkpt lat="37.8032188" lon="12.5449678"><ele>110.0</ele><time>2026-04-28T09:44:40.68Z</time></trkpt><trkpt lat="37.8032919" lon="12.544719"><ele>110.0</ele><time>2026-04-28T09:44:41.679Z</time></trkpt><trkpt lat="37.8033558" lon="12.5444629"><ele>110.0</ele><time>2026-04-28T09:44:42.68Z</time></trkpt><trkpt lat="37.8034164" lon="12.5442009"><ele>109.33333333333333</ele><time>2026-04-28T09:44:43.679Z</time></trkpt><trkpt lat="37.8034734" lon="12.5439318"><ele>108.66666666666666</ele><time>2026-04-28T09:44:44.68Z</time></trkpt><trkpt lat="37.8035225" lon="12.5436586"><ele>108.0</ele><time>2026-04-28T09:44:45.679Z</time></trkpt><trkpt lat="37.8035721" lon="12.5433927"><ele>109.66666666666666</ele><time>2026-04-28T09:44:46.681Z</time></trkpt><trkpt lat="37.8036195" lon="12.5431288"><ele>111.33333333333333</ele><time>2026-04-28T09:44:47.679Z</time></trkpt><trkpt lat="37.8036658" lon="12.5428592"><ele>113.0</ele><time>2026-04-28T09:44:48.68Z</time></trkpt><trkpt lat="37.8037175" lon="12.5425891"><ele>113.0</ele><time>2026-04-28T09:44:49.679Z</time></trkpt><trkpt lat="37.8037662" lon="12.5423152"><ele>113.0</ele><time>2026-04-28T09:44:50.68Z</time></trkpt><trkpt lat="37.8038188" lon="12.542042"><ele>113.0</ele><time>2026-04-28T09:44:51.679Z</time></trkpt><trkpt lat="37.8038695" lon="12.5417655"><ele>113.0</ele><time>2026-04-28T09:44:52.68Z</time></trkpt><trkpt lat="37.8039212" lon="12.5414878"><ele>113.0</ele><time>2026-04-28T09:44:53.68Z</time></trkpt><trkpt lat="37.8039692" lon="12.5412155"><ele>113.0</ele><time>2026-04-28T09:44:54.68Z</time></trkpt><trkpt lat="37.8040168" lon="12.5409523"><ele>113.0</ele><time>2026-04-28T09:44:55.68Z</time></trkpt><trkpt lat="37.8040658" lon="12.5406858"><ele>113.0</ele><time>2026-04-28T09:44:56.679Z</time></trkpt><trkpt lat="37.8041151" lon="12.5404221"><ele>113.0</ele><time>2026-04-28T09:44:57.679Z</time></trkpt><trkpt lat="37.8041676" lon="12.5401512"><ele>111.66666666666666</ele><time>2026-04-28T09:44:58.68Z</time></trkpt><trkpt lat="37.8042132" lon="12.5398767"><ele>110.33333333333334</ele><time>2026-04-28T09:44:59.68Z</time></trkpt><trkpt lat="37.8042316" lon="12.539602"><ele>109.0</ele><time>2026-04-28T09:45:00.679Z</time></trkpt><trkpt lat="37.8042367" lon="12.5393177"><ele>108.0</ele><time>2026-04-28T09:45:01.68Z</time></trkpt><trkpt lat="37.8042222" lon="12.5390273"><ele>107.0</ele><time>2026-04-28T09:45:02.679Z</time></trkpt><trkpt lat="37.8041988" lon="12.5387326"><ele>106.5</ele><time>2026-04-28T09:45:03.68Z</time></trkpt><trkpt lat="37.8041761" lon="12.5384391"><ele>106.0</ele><time>2026-04-28T09:45:04.679Z</time></trkpt><trkpt lat="37.8041464" lon="12.5381374"><ele>106.5</ele><time>2026-04-28T09:45:05.68Z</time></trkpt><trkpt lat="37.8041185" lon="12.5378278"><ele>107.0</ele><time>2026-04-28T09:45:06.679Z</time></trkpt><trkpt lat="37.8040964" lon="12.5375222"><ele>107.0</ele><time>2026-04-28T09:45:07.679Z</time></trkpt><trkpt lat="37.8040607" lon="12.537212"><ele>107.0</ele><time>2026-04-28T09:45:08.679Z</time></trkpt><trkpt lat="37.8040336" lon="12.5369108"><ele>107.5</ele><time>2026-04-28T09:45:09.679Z</time></trkpt><trkpt lat="37.8040054" lon="12.536608"><ele>108.0</ele><time>2026-04-28T09:45:10.68Z</time></trkpt><trkpt lat="37.8039837" lon="12.5363076"><ele>111.0</ele><time>2026-04-28T09:45:11.679Z</time></trkpt><trkpt lat="37.8039505" lon="12.5360153"><ele>114.0</ele><time>2026-04-28T09:45:12.679Z</time></trkpt><trkpt lat="37.8039239" lon="12.5357318"><ele>114.0</ele><time>2026-04-28T09:45:13.679Z</time></trkpt><trkpt lat="37.8038962" lon="12.5354469"><ele>114.0</ele><time>2026-04-28T09:45:14.68Z</time></trkpt><trkpt lat="37.8038639" lon="12.5351667"><ele>116.33333333333334</ele><time>2026-04-28T09:45:15.679Z</time></trkpt><trkpt lat="37.8038458" lon="12.5348998"><ele>118.66666666666667</ele><time>2026-04-28T09:45:16.679Z</time></trkpt><trkpt lat="37.8038179" lon="12.5346481"><ele>121.0</ele><time>2026-04-28T09:45:17.679Z</time></trkpt><trkpt lat="37.8037859" lon="12.5344029"><ele>122.66666666666667</ele><time>2026-04-28T09:45:18.681Z</time></trkpt><trkpt lat="37.8037641" lon="12.5341777"><ele>124.33333333333334</ele><time>2026-04-28T09:45:19.679Z</time></trkpt><trkpt lat="37.803752" lon="12.5339673"><ele>126.0</ele><time>2026-04-28T09:45:20.68Z</time></trkpt><trkpt lat="37.8037575" lon="12.5337818"><ele>126.33333333333334</ele><time>2026-04-28T09:45:21.679Z</time></trkpt><trkpt lat="37.8037816" lon="12.5335909"><ele>126.66666666666667</ele><time>2026-04-28T09:45:22.68Z</time></trkpt><trkpt lat="37.8038365" lon="12.5333911"><ele>127.0</ele><time>2026-04-28T09:45:23.679Z</time></trkpt><trkpt lat="37.8039194" lon="12.5331819"><ele>127.0</ele><time>2026-04-28T09:45:24.68Z</time></trkpt><trkpt lat="37.8040195" lon="12.5329623"><ele>127.0</ele><time>2026-04-28T09:45:25.68Z</time></trkpt><trkpt lat="37.8041189" lon="12.5327503"><ele>127.0</ele><time>2026-04-28T09:45:26.679Z</time></trkpt><trkpt lat="37.8041971" lon="12.5325404"><ele>127.33333333333334</ele><time>2026-04-28T09:45:27.68Z</time></trkpt><trkpt lat="37.8042642" lon="12.53234"><ele>127.66666666666666</ele><time>2026-04-28T09:45:28.68Z</time></trkpt><trkpt lat="37.8043191" lon="12.532147"><ele>128.0</ele><time>2026-04-28T09:45:29.68Z</time></trkpt><trkpt lat="37.8043694" lon="12.5319667"><ele>128.0</ele><time>2026-04-28T09:45:30.68Z</time></trkpt><trkpt lat="37.8044094" lon="12.5317922"><ele>128.0</ele><time>2026-04-28T09:45:31.68Z</time></trkpt><trkpt lat="37.8044452" lon="12.5316329"><ele>128.0</ele><time>2026-04-28T09:45:32.679Z</time></trkpt><trkpt lat="37.8044746" lon="12.531482"><ele>128.0</ele><time>2026-04-28T09:45:33.68Z</time></trkpt><trkpt lat="37.804505" lon="12.5313409"><ele>127.75</ele><time>2026-04-28T09:45:34.68Z</time></trkpt><trkpt lat="37.8045315" lon="12.5311895"><ele>127.5</ele><time>2026-04-28T09:45:35.68Z</time></trkpt><trkpt lat="37.8045558" lon="12.5310564"><ele>127.25</ele><time>2026-04-28T09:45:36.68Z</time></trkpt><trkpt lat="37.804571" lon="12.5309187"><ele>127.0</ele><time>2026-04-28T09:45:37.679Z</time></trkpt><trkpt lat="37.8045699" lon="12.5307716"><ele>127.0</ele><time>2026-04-28T09:45:38.679Z</time></trkpt><trkpt lat="37.8045447" lon="12.5306041"><ele>127.0</ele><time>2026-04-28T09:45:39.68Z</time></trkpt><trkpt lat="37.8045015" lon="12.5304044"><ele>127.0</ele><time>2026-04-28T09:45:40.679Z</time></trkpt><trkpt lat="37.804453" lon="12.530181"><ele>126.66666666666667</ele><time>2026-04-28T09:45:41.679Z</time></trkpt><trkpt lat="37.8044085" lon="12.5299231"><ele>126.33333333333334</ele><time>2026-04-28T09:45:42.679Z</time></trkpt><trkpt lat="37.8043612" lon="12.5296497"><ele>126.0</ele><time>2026-04-28T09:45:43.681Z</time></trkpt><trkpt lat="37.8043068" lon="12.5293495"><ele>124.0</ele><time>2026-04-28T09:45:44.679Z</time></trkpt><trkpt lat="37.8042572" lon="12.5290336"><ele>122.0</ele><time>2026-04-28T09:45:45.679Z</time></trkpt><trkpt lat="37.8041978" lon="12.5287055"><ele>122.0</ele><time>2026-04-28T09:45:46.68Z</time></trkpt><trkpt lat="37.8041346" lon="12.5283793"><ele>122.0</ele><time>2026-04-28T09:45:47.679Z</time></trkpt><trkpt lat="37.8040798" lon="12.5280743"><ele>122.5</ele><time>2026-04-28T09:45:48.68Z</time></trkpt><trkpt lat="37.8040245" lon="12.5277749"><ele>123.0</ele><time>2026-04-28T09:45:49.679Z</time></trkpt><trkpt lat="37.8039678" lon="12.5274698"><ele>123.0</ele><time>2026-04-28T09:45:50.679Z</time></trkpt><trkpt lat="37.8039114" lon="12.5271695"><ele>123.0</ele><time>2026-04-28T09:45:51.68Z</time></trkpt><trkpt lat="37.8038532" lon="12.5268597"><ele>123.5</ele><time>2026-04-28T09:45:52.679Z</time></trkpt><trkpt lat="37.8037964" lon="12.526552"><ele>124.0</ele><time>2026-04-28T09:45:53.68Z</time></trkpt><trkpt lat="37.8037362" lon="12.5262524"><ele>122.0</ele><time>2026-04-28T09:45:54.68Z</time></trkpt><trkpt lat="37.80368" lon="12.5259594"><ele>120.0</ele><time>2026-04-28T09:45:55.679Z</time></trkpt><trkpt lat="37.8036265" lon="12.5256686"><ele>119.5</ele><time>2026-04-28T09:45:56.68Z</time></trkpt><trkpt lat="37.8035588" lon="12.5253789"><ele>119.0</ele><time>2026-04-28T09:45:57.679Z</time></trkpt><trkpt lat="37.8034814" lon="12.5250844"><ele>123.0</ele><time>2026-04-28T09:45:58.679Z</time></trkpt><trkpt lat="37.8032957" lon="12.5244706"><ele>123.0</ele><time>2026-04-28T09:46:00.679Z</time></trkpt><trkpt lat="37.8032043" lon="12.5241825"><ele>123.0</ele><time>2026-04-28T09:46:01.68Z</time></trkpt><trkpt lat="37.8031146" lon="12.5239049"><ele>122.0</ele><time>2026-04-28T09:46:02.679Z</time></trkpt><trkpt lat="37.803029" lon="12.523637"><ele>121.0</ele><time>2026-04-28T09:46:03.679Z</time></trkpt><trkpt lat="37.8028738" lon="12.5231119"><ele>121.33333333333334</ele><time>2026-04-28T09:46:05.679Z</time></trkpt><trkpt lat="37.8027886" lon="12.5228466"><ele>121.66666666666666</ele><time>2026-04-28T09:46:06.68Z</time></trkpt><trkpt lat="37.8027033" lon="12.5225864"><ele>122.0</ele><time>2026-04-28T09:46:07.679Z</time></trkpt><trkpt lat="37.8026175" lon="12.5223257"><ele>122.0</ele><time>2026-04-28T09:46:08.679Z</time></trkpt><trkpt lat="37.8025359" lon="12.5220738"><ele>122.0</ele><time>2026-04-28T09:46:09.68Z</time></trkpt><trkpt lat="37.8024557" lon="12.5218299"><ele>122.0</ele><time>2026-04-28T09:46:10.679Z</time></trkpt><trkpt lat="37.8023681" lon="12.5215865"><ele>121.33333333333333</ele><time>2026-04-28T09:46:11.681Z</time></trkpt><trkpt lat="37.8022697" lon="12.5213475"><ele>120.66666666666666</ele><time>2026-04-28T09:46:12.679Z</time></trkpt><trkpt lat="37.8021581" lon="12.5211047"><ele>120.0</ele><time>2026-04-28T09:46:13.68Z</time></trkpt><trkpt lat="37.8020253" lon="12.5208519"><ele>119.5</ele><time>2026-04-28T09:46:14.679Z</time></trkpt><trkpt lat="37.8018802" lon="12.520606"><ele>119.0</ele><time>2026-04-28T09:46:15.68Z</time></trkpt><trkpt lat="37.8017329" lon="12.5203652"><ele>119.0</ele><time>2026-04-28T09:46:16.679Z</time></trkpt><trkpt lat="37.8015849" lon="12.5201169"><ele>119.0</ele><time>2026-04-28T09:46:17.68Z</time></trkpt><trkpt lat="37.8014417" lon="12.5198727"><ele>119.0</ele><time>2026-04-28T09:46:18.679Z</time></trkpt><trkpt lat="37.8013014" lon="12.5196357"><ele>119.0</ele><time>2026-04-28T09:46:19.68Z</time></trkpt><trkpt lat="37.8011591" lon="12.5193983"><ele>119.0</ele><time>2026-04-28T09:46:20.679Z</time></trkpt><trkpt lat="37.8010263" lon="12.5191603"><ele>119.0</ele><time>2026-04-28T09:46:21.679Z</time></trkpt><trkpt lat="37.8008953" lon="12.5189301"><ele>119.33333333333333</ele><time>2026-04-28T09:46:22.68Z</time></trkpt><trkpt lat="37.8007716" lon="12.5187098"><ele>119.66666666666666</ele><time>2026-04-28T09:46:23.68Z</time></trkpt><trkpt lat="37.8006555" lon="12.5184917"><ele>120.0</ele><time>2026-04-28T09:46:24.679Z</time></trkpt><trkpt lat="37.8005321" lon="12.5182643"><ele>120.0</ele><time>2026-04-28T09:46:25.68Z</time></trkpt><trkpt lat="37.80042" lon="12.5180479"><ele>120.0</ele><time>2026-04-28T09:46:26.679Z</time></trkpt><trkpt lat="37.800317" lon="12.5178382"><ele>120.0</ele><time>2026-04-28T09:46:27.679Z</time></trkpt><trkpt lat="37.8002214" lon="12.5176383"><ele>119.33333333333334</ele><time>2026-04-28T09:46:28.682Z</time></trkpt><trkpt lat="37.8001225" lon="12.5174357"><ele>118.66666666666667</ele><time>2026-04-28T09:46:29.68Z</time></trkpt><trkpt lat="37.8000316" lon="12.5172325"><ele>118.0</ele><time>2026-04-28T09:46:30.679Z</time></trkpt><trkpt lat="37.7999432" lon="12.5170215"><ele>117.0</ele><time>2026-04-28T09:46:31.68Z</time></trkpt><trkpt lat="37.7998488" lon="12.5168063"><ele>116.0</ele><time>2026-04-28T09:46:32.679Z</time></trkpt><trkpt lat="37.7996819" lon="12.5163641"><ele>116.66666666666666</ele><time>2026-04-28T09:46:34.68Z</time></trkpt><trkpt lat="37.7996023" lon="12.5161369"><ele>117.33333333333334</ele><time>2026-04-28T09:46:35.679Z</time></trkpt><trkpt lat="37.7995263" lon="12.5159127"><ele>118.0</ele><time>2026-04-28T09:46:36.68Z</time></trkpt><trkpt lat="37.7994646" lon="12.5157136"><ele>118.0</ele><time>2026-04-28T09:46:37.68Z</time></trkpt><trkpt lat="37.7994048" lon="12.5155172"><ele>118.0</ele><time>2026-04-28T09:46:38.68Z</time></trkpt><trkpt lat="37.7993464" lon="12.5153329"><ele>118.0</ele><time>2026-04-28T09:46:39.68Z</time></trkpt><trkpt lat="37.7992868" lon="12.515145"><ele>117.33333333333334</ele><time>2026-04-28T09:46:40.679Z</time></trkpt><trkpt lat="37.7992243" lon="12.5149569"><ele>116.66666666666666</ele><time>2026-04-28T09:46:41.68Z</time></trkpt><trkpt lat="37.7991584" lon="12.5147578"><ele>116.0</ele><time>2026-04-28T09:46:42.681Z</time></trkpt><trkpt lat="37.7990917" lon="12.5145639"><ele>115.33333333333333</ele><time>2026-04-28T09:46:43.68Z</time></trkpt><trkpt lat="37.7990297" lon="12.5143778"><ele>114.66666666666666</ele><time>2026-04-28T09:46:44.679Z</time></trkpt><trkpt lat="37.7989669" lon="12.5141818"><ele>114.0</ele><time>2026-04-28T09:46:45.68Z</time></trkpt><trkpt lat="37.7988999" lon="12.5139791"><ele>114.0</ele><time>2026-04-28T09:46:46.679Z</time></trkpt><trkpt lat="37.7988238" lon="12.5137572"><ele>114.0</ele><time>2026-04-28T09:46:47.68Z</time></trkpt><trkpt lat="37.7987527" lon="12.513534"><ele>114.0</ele><time>2026-04-28T09:46:48.681Z</time></trkpt><trkpt lat="37.7986855" lon="12.5133147"><ele>113.66666666666666</ele><time>2026-04-28T09:46:49.68Z</time></trkpt><trkpt lat="37.7986222" lon="12.5131064"><ele>113.33333333333333</ele><time>2026-04-28T09:46:50.679Z</time></trkpt><trkpt lat="37.7985652" lon="12.5129046"><ele>113.0</ele><time>2026-04-28T09:46:51.679Z</time></trkpt><trkpt lat="37.7985078" lon="12.5127206"><ele>112.0</ele><time>2026-04-28T09:46:52.679Z</time></trkpt><trkpt lat="37.7984558" lon="12.5125371"><ele>111.0</ele><time>2026-04-28T09:46:53.68Z</time></trkpt><trkpt lat="37.7984069" lon="12.5123563"><ele>110.0</ele><time>2026-04-28T09:46:54.679Z</time></trkpt><trkpt lat="37.7983531" lon="12.5121645"><ele>110.33333333333333</ele><time>2026-04-28T09:46:55.68Z</time></trkpt><trkpt lat="37.7983046" lon="12.5119738"><ele>110.66666666666666</ele><time>2026-04-28T09:46:56.679Z</time></trkpt><trkpt lat="37.7982621" lon="12.5117839"><ele>111.0</ele><time>2026-04-28T09:46:57.68Z</time></trkpt><trkpt lat="37.7982273" lon="12.5115948"><ele>111.0</ele><time>2026-04-28T09:46:58.679Z</time></trkpt><trkpt lat="37.7981834" lon="12.5114051"><ele>111.0</ele><time>2026-04-28T09:46:59.679Z</time></trkpt><trkpt lat="37.7981371" lon="12.5112067"><ele>111.0</ele><time>2026-04-28T09:47:00.679Z</time></trkpt><trkpt lat="37.7980916" lon="12.5110132"><ele>110.0</ele><time>2026-04-28T09:47:01.68Z</time></trkpt><trkpt lat="37.7980416" lon="12.5108255"><ele>109.0</ele><time>2026-04-28T09:47:02.679Z</time></trkpt><trkpt lat="37.7979918" lon="12.5106403"><ele>108.0</ele><time>2026-04-28T09:47:03.68Z</time></trkpt><trkpt lat="37.7979425" lon="12.5104519"><ele>107.66666666666666</ele><time>2026-04-28T09:47:04.679Z</time></trkpt><trkpt lat="37.7978963" lon="12.5102661"><ele>107.33333333333333</ele><time>2026-04-28T09:47:05.68Z</time></trkpt><trkpt lat="37.7978464" lon="12.5100812"><ele>107.0</ele><time>2026-04-28T09:47:06.679Z</time></trkpt><trkpt lat="37.7977902" lon="12.5098877"><ele>107.0</ele><time>2026-04-28T09:47:07.679Z</time></trkpt><trkpt lat="37.797732" lon="12.5096964"><ele>107.0</ele><time>2026-04-28T09:47:08.68Z</time></trkpt><trkpt lat="37.7976757" lon="12.5095085"><ele>107.0</ele><time>2026-04-28T09:47:09.68Z</time></trkpt><trkpt lat="37.7976272" lon="12.5093244"><ele>106.0</ele><time>2026-04-28T09:47:10.68Z</time></trkpt><trkpt lat="37.797569" lon="12.5091317"><ele>105.0</ele><time>2026-04-28T09:47:11.679Z</time></trkpt><trkpt lat="37.7975121" lon="12.5089395"><ele>104.0</ele><time>2026-04-28T09:47:12.679Z</time></trkpt><trkpt lat="37.7974571" lon="12.5087439"><ele>103.66666666666666</ele><time>2026-04-28T09:47:13.681Z</time></trkpt><trkpt lat="37.7974037" lon="12.5085495"><ele>103.33333333333334</ele><time>2026-04-28T09:47:14.679Z</time></trkpt><trkpt lat="37.7973543" lon="12.5083555"><ele>103.0</ele><time>2026-04-28T09:47:15.681Z</time></trkpt><trkpt lat="37.7973031" lon="12.5081692"><ele>103.0</ele><time>2026-04-28T09:47:16.679Z</time></trkpt><trkpt lat="37.7972508" lon="12.5079789"><ele>103.0</ele><time>2026-04-28T09:47:17.679Z</time></trkpt><trkpt lat="37.7971491" lon="12.5075914"><ele>102.33333333333334</ele><time>2026-04-28T09:47:19.68Z</time></trkpt><trkpt lat="37.7971031" lon="12.5073964"><ele>101.66666666666666</ele><time>2026-04-28T09:47:20.68Z</time></trkpt><trkpt lat="37.7970604" lon="12.5071959"><ele>101.0</ele><time>2026-04-28T09:47:21.679Z</time></trkpt><trkpt lat="37.7970229" lon="12.5069864"><ele>100.0</ele><time>2026-04-28T09:47:22.68Z</time></trkpt><trkpt lat="37.7969886" lon="12.5067772"><ele>99.0</ele><time>2026-04-28T09:47:23.68Z</time></trkpt><trkpt lat="37.7969604" lon="12.5065639"><ele>98.0</ele><time>2026-04-28T09:47:24.679Z</time></trkpt><trkpt lat="37.7969389" lon="12.5063503"><ele>98.0</ele><time>2026-04-28T09:47:25.679Z</time></trkpt><trkpt lat="37.796917" lon="12.5061361"><ele>98.0</ele><time>2026-04-28T09:47:26.679Z</time></trkpt><trkpt lat="37.7968945" lon="12.5059199"><ele>98.0</ele><time>2026-04-28T09:47:27.68Z</time></trkpt><trkpt lat="37.7968744" lon="12.5057154"><ele>98.0</ele><time>2026-04-28T09:47:28.68Z</time></trkpt><trkpt lat="37.7968532" lon="12.5055015"><ele>98.0</ele><time>2026-04-28T09:47:29.681Z</time></trkpt><trkpt lat="37.7968311" lon="12.5052796"><ele>98.0</ele><time>2026-04-28T09:47:30.679Z</time></trkpt><trkpt lat="37.7968081" lon="12.5050667"><ele>97.33333333333333</ele><time>2026-04-28T09:47:31.679Z</time></trkpt><trkpt lat="37.7967865" lon="12.5048566"><ele>96.66666666666666</ele><time>2026-04-28T09:47:32.679Z</time></trkpt><trkpt lat="37.7967639" lon="12.504645"><ele>96.0</ele><time>2026-04-28T09:47:33.68Z</time></trkpt><trkpt lat="37.7967444" lon="12.5044268"><ele>95.66666666666667</ele><time>2026-04-28T09:47:34.679Z</time></trkpt><trkpt lat="37.7967178" lon="12.5042059"><ele>95.33333333333334</ele><time>2026-04-28T09:47:35.679Z</time></trkpt><trkpt lat="37.7966991" lon="12.5039912"><ele>95.0</ele><time>2026-04-28T09:47:36.679Z</time></trkpt><trkpt lat="37.7966786" lon="12.5037758"><ele>94.66666666666667</ele><time>2026-04-28T09:47:37.679Z</time></trkpt><trkpt lat="37.7966573" lon="12.5035619"><ele>94.33333333333333</ele><time>2026-04-28T09:47:38.68Z</time></trkpt><trkpt lat="37.7966358" lon="12.5033494"><ele>94.0</ele><time>2026-04-28T09:47:39.68Z</time></trkpt><trkpt lat="37.7966127" lon="12.5031314"><ele>94.0</ele><time>2026-04-28T09:47:40.679Z</time></trkpt><trkpt lat="37.7965909" lon="12.5029171"><ele>94.0</ele><time>2026-04-28T09:47:41.679Z</time></trkpt><trkpt lat="37.7965673" lon="12.5027071"><ele>94.0</ele><time>2026-04-28T09:47:42.679Z</time></trkpt><trkpt lat="37.7965509" lon="12.5025045"><ele>94.0</ele><time>2026-04-28T09:47:43.68Z</time></trkpt><trkpt lat="37.7965258" lon="12.5022975"><ele>94.0</ele><time>2026-04-28T09:47:44.679Z</time></trkpt><trkpt lat="37.7965054" lon="12.5020894"><ele>94.0</ele><time>2026-04-28T09:47:45.679Z</time></trkpt><trkpt lat="37.7964802" lon="12.5018864"><ele>94.0</ele><time>2026-04-28T09:47:46.679Z</time></trkpt><trkpt lat="37.7964533" lon="12.5016733"><ele>94.0</ele><time>2026-04-28T09:47:47.68Z</time></trkpt><trkpt lat="37.7964263" lon="12.5014399"><ele>94.0</ele><time>2026-04-28T09:47:48.679Z</time></trkpt><trkpt lat="37.7964006" lon="12.5011898"><ele>94.0</ele><time>2026-04-28T09:47:49.679Z</time></trkpt><trkpt lat="37.7963758" lon="12.5009297"><ele>94.0</ele><time>2026-04-28T09:47:50.681Z</time></trkpt><trkpt lat="37.7963507" lon="12.5006502"><ele>94.0</ele><time>2026-04-28T09:47:51.679Z</time></trkpt><trkpt lat="37.7963233" lon="12.500365"><ele>92.0</ele><time>2026-04-28T09:47:52.68Z</time></trkpt><trkpt lat="37.7963027" lon="12.5000918"><ele>90.0</ele><time>2026-04-28T09:47:53.679Z</time></trkpt><trkpt lat="37.7962873" lon="12.4998374"><ele>88.0</ele><time>2026-04-28T09:47:54.679Z</time></trkpt><trkpt lat="37.7962699" lon="12.4995985"><ele>86.66666666666666</ele><time>2026-04-28T09:47:55.68Z</time></trkpt><trkpt lat="37.7962481" lon="12.4993851"><ele>85.33333333333333</ele><time>2026-04-28T09:47:56.679Z</time></trkpt><trkpt lat="37.7962302" lon="12.4991843"><ele>84.0</ele><time>2026-04-28T09:47:57.679Z</time></trkpt><trkpt lat="37.7962165" lon="12.4990016"><ele>84.0</ele><time>2026-04-28T09:47:58.68Z</time></trkpt><trkpt lat="37.7962042" lon="12.4988347"><ele>84.0</ele><time>2026-04-28T09:47:59.68Z</time></trkpt><trkpt lat="37.7961925" lon="12.4986741"><ele>84.0</ele><time>2026-04-28T09:48:00.679Z</time></trkpt><trkpt lat="37.7961677" lon="12.498488"><ele>84.0</ele><time>2026-04-28T09:48:01.679Z</time></trkpt><trkpt lat="37.7961458" lon="12.4982706"><ele>82.66666666666667</ele><time>2026-04-28T09:48:02.68Z</time></trkpt><trkpt lat="37.7961316" lon="12.4980701"><ele>81.33333333333334</ele><time>2026-04-28T09:48:03.679Z</time></trkpt><trkpt lat="37.7961178" lon="12.4978778"><ele>80.0</ele><time>2026-04-28T09:48:04.681Z</time></trkpt><trkpt lat="37.7961072" lon="12.4976886"><ele>80.0</ele><time>2026-04-28T09:48:05.679Z</time></trkpt><trkpt lat="37.7960938" lon="12.4975309"><ele>80.0</ele><time>2026-04-28T09:48:06.68Z</time></trkpt><trkpt lat="37.7960841" lon="12.497337"><ele>80.0</ele><time>2026-04-28T09:48:07.679Z</time></trkpt><trkpt lat="37.7960672" lon="12.4971259"><ele>80.0</ele><time>2026-04-28T09:48:08.679Z</time></trkpt><trkpt lat="37.7960391" lon="12.4968852"><ele>80.0</ele><time>2026-04-28T09:48:09.681Z</time></trkpt><trkpt lat="37.796007" lon="12.4965957"><ele>80.0</ele><time>2026-04-28T09:48:10.681Z</time></trkpt><trkpt lat="37.7959818" lon="12.4963006"><ele>79.0</ele><time>2026-04-28T09:48:11.679Z</time></trkpt><trkpt lat="37.7959569" lon="12.4960074"><ele>78.0</ele><time>2026-04-28T09:48:12.681Z</time></trkpt><trkpt lat="37.7959334" lon="12.4957301"><ele>78.0</ele><time>2026-04-28T09:48:13.679Z</time></trkpt><trkpt lat="37.7959142" lon="12.4954601"><ele>78.0</ele><time>2026-04-28T09:48:14.679Z</time></trkpt><trkpt lat="37.7958923" lon="12.4952029"><ele>78.0</ele><time>2026-04-28T09:48:15.68Z</time></trkpt><trkpt lat="37.7958718" lon="12.4949674"><ele>77.66666666666667</ele><time>2026-04-28T09:48:16.68Z</time></trkpt><trkpt lat="37.7958542" lon="12.494741"><ele>77.33333333333334</ele><time>2026-04-28T09:48:17.68Z</time></trkpt><trkpt lat="37.7958286" lon="12.4945114"><ele>77.0</ele><time>2026-04-28T09:48:18.68Z</time></trkpt><trkpt lat="37.7958054" lon="12.4942767"><ele>76.0</ele><time>2026-04-28T09:48:19.68Z</time></trkpt><trkpt lat="37.79578" lon="12.49402"><ele>75.0</ele><time>2026-04-28T09:48:20.68Z</time></trkpt><trkpt lat="37.7957539" lon="12.4937544"><ele>74.0</ele><time>2026-04-28T09:48:21.679Z</time></trkpt><trkpt lat="37.7957297" lon="12.4934959"><ele>73.0</ele><time>2026-04-28T09:48:22.679Z</time></trkpt><trkpt lat="37.7957073" lon="12.4932494"><ele>72.0</ele><time>2026-04-28T09:48:23.68Z</time></trkpt><trkpt lat="37.795685" lon="12.4930095"><ele>71.0</ele><time>2026-04-28T09:48:24.68Z</time></trkpt><trkpt lat="37.7956644" lon="12.4927957"><ele>70.66666666666667</ele><time>2026-04-28T09:48:25.679Z</time></trkpt><trkpt lat="37.7956455" lon="12.4925868"><ele>70.33333333333333</ele><time>2026-04-28T09:48:26.679Z</time></trkpt><trkpt lat="37.7956276" lon="12.4923785"><ele>70.0</ele><time>2026-04-28T09:48:27.681Z</time></trkpt><trkpt lat="37.7956114" lon="12.4921631"><ele>69.33333333333333</ele><time>2026-04-28T09:48:28.68Z</time></trkpt><trkpt lat="37.7955936" lon="12.4919468"><ele>68.66666666666667</ele><time>2026-04-28T09:48:29.681Z</time></trkpt><trkpt lat="37.7955766" lon="12.4917289"><ele>68.0</ele><time>2026-04-28T09:48:30.679Z</time></trkpt><trkpt lat="37.7955565" lon="12.4915233"><ele>68.0</ele><time>2026-04-28T09:48:31.68Z</time></trkpt><trkpt lat="37.7955431" lon="12.4913308"><ele>68.0</ele><time>2026-04-28T09:48:32.679Z</time></trkpt><trkpt lat="37.7955309" lon="12.4911447"><ele>68.0</ele><time>2026-04-28T09:48:33.681Z</time></trkpt><trkpt lat="37.7955122" lon="12.4909527"><ele>67.0</ele><time>2026-04-28T09:48:34.679Z</time></trkpt><trkpt lat="37.7954957" lon="12.4907679"><ele>66.0</ele><time>2026-04-28T09:48:35.68Z</time></trkpt><trkpt lat="37.7954839" lon="12.4905952"><ele>65.0</ele><time>2026-04-28T09:48:36.68Z</time></trkpt><trkpt lat="37.7954736" lon="12.490424"><ele>64.0</ele><time>2026-04-28T09:48:37.68Z</time></trkpt><trkpt lat="37.7954695" lon="12.4902592"><ele>64.0</ele><time>2026-04-28T09:48:38.679Z</time></trkpt><trkpt lat="37.7954558" lon="12.4901058"><ele>64.0</ele><time>2026-04-28T09:48:39.679Z</time></trkpt><trkpt lat="37.7954429" lon="12.4899666"><ele>64.0</ele><time>2026-04-28T09:48:40.68Z</time></trkpt><trkpt lat="37.7954342" lon="12.4898586"><ele>64.0</ele><time>2026-04-28T09:48:41.679Z</time></trkpt><trkpt lat="37.7954269" lon="12.489752"><ele>64.0</ele><time>2026-04-28T09:48:43.679Z</time></trkpt><trkpt lat="37.7954195" lon="12.4896571"><ele>63.857142857142854</ele><time>2026-04-28T09:48:46.679Z</time></trkpt><trkpt lat="37.7954243" lon="12.4895774"><ele>63.71428571428571</ele><time>2026-04-28T09:48:50.679Z</time></trkpt><trkpt lat="37.7954192" lon="12.4894811"><ele>63.57142857142857</ele><time>2026-04-28T09:48:54.682Z</time></trkpt><trkpt lat="37.795403" lon="12.4893974"><ele>63.42857142857143</ele><time>2026-04-28T09:48:58.679Z</time></trkpt><trkpt lat="37.7953935" lon="12.4893111"><ele>63.285714285714285</ele><time>2026-04-28T09:49:01.68Z</time></trkpt><trkpt lat="37.7953771" lon="12.4892327"><ele>63.14285714285714</ele><time>2026-04-28T09:49:03.679Z</time></trkpt><trkpt lat="37.7953632" lon="12.4891028"><ele>63.0</ele><time>2026-04-28T09:49:05.68Z</time></trkpt><trkpt lat="37.7953528" lon="12.4889559"><ele>63.0</ele><time>2026-04-28T09:49:07.681Z</time></trkpt><trkpt lat="37.795341" lon="12.4887986"><ele>63.0</ele><time>2026-04-28T09:49:09.679Z</time></trkpt><trkpt lat="37.7953338" lon="12.4887048"><ele>63.0</ele><time>2026-04-28T09:49:10.68Z</time></trkpt><trkpt lat="37.7953259" lon="12.488594"><ele>63.0</ele><time>2026-04-28T09:49:11.679Z</time></trkpt><trkpt lat="37.7953194" lon="12.4884711"><ele>63.0</ele><time>2026-04-28T09:49:12.681Z</time></trkpt><trkpt lat="37.7953067" lon="12.4883461"><ele>62.4</ele><time>2026-04-28T09:49:13.679Z</time></trkpt><trkpt lat="37.795297" lon="12.4882272"><ele>61.8</ele><time>2026-04-28T09:49:14.681Z</time></trkpt><trkpt lat="37.7952824" lon="12.4881049"><ele>61.2</ele><time>2026-04-28T09:49:15.68Z</time></trkpt><trkpt lat="37.7952713" lon="12.4879786"><ele>60.6</ele><time>2026-04-28T09:49:16.679Z</time></trkpt><trkpt lat="37.7952664" lon="12.487845"><ele>60.0</ele><time>2026-04-28T09:49:17.679Z</time></trkpt><trkpt lat="37.7952533" lon="12.4877074"><ele>59.75</ele><time>2026-04-28T09:49:18.68Z</time></trkpt><trkpt lat="37.7952416" lon="12.4875704"><ele>59.5</ele><time>2026-04-28T09:49:19.679Z</time></trkpt><trkpt lat="37.7952264" lon="12.4874256"><ele>59.25</ele><time>2026-04-28T09:49:20.679Z</time></trkpt><trkpt lat="37.7952179" lon="12.4872675"><ele>59.0</ele><time>2026-04-28T09:49:21.68Z</time></trkpt><trkpt lat="37.7952006" lon="12.4871183"><ele>59.0</ele><time>2026-04-28T09:49:22.68Z</time></trkpt><trkpt lat="37.7951879" lon="12.4869479"><ele>59.0</ele><time>2026-04-28T09:49:23.679Z</time></trkpt><trkpt lat="37.7951699" lon="12.4867745"><ele>59.0</ele><time>2026-04-28T09:49:24.68Z</time></trkpt><trkpt lat="37.7951538" lon="12.4866077"><ele>59.0</ele><time>2026-04-28T09:49:25.68Z</time></trkpt><trkpt lat="37.7951366" lon="12.4864436"><ele>58.800000000000004</ele><time>2026-04-28T09:49:26.679Z</time></trkpt><trkpt lat="37.7951267" lon="12.4862955"><ele>58.60000000000001</ele><time>2026-04-28T09:49:27.68Z</time></trkpt><trkpt lat="37.7951159" lon="12.486166"><ele>58.4</ele><time>2026-04-28T09:49:28.68Z</time></trkpt><trkpt lat="37.7951115" lon="12.4860474"><ele>58.2</ele><time>2026-04-28T09:49:29.68Z</time></trkpt><trkpt lat="37.7951051" lon="12.4859425"><ele>58.0</ele><time>2026-04-28T09:49:30.68Z</time></trkpt><trkpt lat="37.7950959" lon="12.4858412"><ele>57.25</ele><time>2026-04-28T09:49:31.679Z</time></trkpt><trkpt lat="37.795077" lon="12.4857129"><ele>56.5</ele><time>2026-04-28T09:49:32.679Z</time></trkpt><trkpt lat="37.7950561" lon="12.4855472"><ele>55.75</ele><time>2026-04-28T09:49:33.68Z</time></trkpt><trkpt lat="37.7950325" lon="12.4853369"><ele>55.0</ele><time>2026-04-28T09:49:34.681Z</time></trkpt><trkpt lat="37.7950086" lon="12.4850894"><ele>54.0</ele><time>2026-04-28T09:49:35.679Z</time></trkpt><trkpt lat="37.7949913" lon="12.4848533"><ele>53.0</ele><time>2026-04-28T09:49:36.68Z</time></trkpt><trkpt lat="37.7949746" lon="12.4846473"><ele>52.0</ele><time>2026-04-28T09:49:37.679Z</time></trkpt><trkpt lat="37.7949631" lon="12.484446"><ele>51.666666666666664</ele><time>2026-04-28T09:49:38.68Z</time></trkpt><trkpt lat="37.7949481" lon="12.4842552"><ele>51.33333333333333</ele><time>2026-04-28T09:49:39.679Z</time></trkpt><trkpt lat="37.7949332" lon="12.4840423"><ele>51.0</ele><time>2026-04-28T09:49:40.681Z</time></trkpt><trkpt lat="37.7949106" lon="12.4838355"><ele>50.33333333333333</ele><time>2026-04-28T09:49:41.68Z</time></trkpt><trkpt lat="37.7948908" lon="12.4836435"><ele>49.666666666666664</ele><time>2026-04-28T09:49:42.679Z</time></trkpt><trkpt lat="37.794875" lon="12.4834586"><ele>49.0</ele><time>2026-04-28T09:49:43.681Z</time></trkpt><trkpt lat="37.7948586" lon="12.4832665"><ele>49.0</ele><time>2026-04-28T09:49:44.681Z</time></trkpt><trkpt lat="37.7948451" lon="12.4830674"><ele>49.0</ele><time>2026-04-28T09:49:45.679Z</time></trkpt><trkpt lat="37.7948235" lon="12.4828573"><ele>49.0</ele><time>2026-04-28T09:49:46.679Z</time></trkpt><trkpt lat="37.7948018" lon="12.4826383"><ele>49.0</ele><time>2026-04-28T09:49:47.68Z</time></trkpt><trkpt lat="37.7947828" lon="12.4824027"><ele>49.0</ele><time>2026-04-28T09:49:48.68Z</time></trkpt><trkpt lat="37.7947636" lon="12.482178"><ele>49.0</ele><time>2026-04-28T09:49:49.679Z</time></trkpt><trkpt lat="37.7947499" lon="12.4819709"><ele>49.33333333333333</ele><time>2026-04-28T09:49:50.679Z</time></trkpt><trkpt lat="37.7947369" lon="12.4817757"><ele>49.66666666666667</ele><time>2026-04-28T09:49:51.68Z</time></trkpt><trkpt lat="37.7947211" lon="12.4815779"><ele>50.0</ele><time>2026-04-28T09:49:52.68Z</time></trkpt><trkpt lat="37.7947014" lon="12.4813755"><ele>49.66666666666667</ele><time>2026-04-28T09:49:53.679Z</time></trkpt><trkpt lat="37.7946895" lon="12.4811586"><ele>49.33333333333333</ele><time>2026-04-28T09:49:54.68Z</time></trkpt><trkpt lat="37.7946712" lon="12.480954"><ele>49.0</ele><time>2026-04-28T09:49:55.679Z</time></trkpt><trkpt lat="37.7946511" lon="12.4807429"><ele>49.0</ele><time>2026-04-28T09:49:56.68Z</time></trkpt><trkpt lat="37.7946361" lon="12.4805403"><ele>49.0</ele><time>2026-04-28T09:49:57.681Z</time></trkpt><trkpt lat="37.794629" lon="12.4803539"><ele>49.0</ele><time>2026-04-28T09:49:58.68Z</time></trkpt><trkpt lat="37.7946154" lon="12.4801722"><ele>48.5</ele><time>2026-04-28T09:49:59.682Z</time></trkpt><trkpt lat="37.7945998" lon="12.4799885"><ele>48.0</ele><time>2026-04-28T09:50:00.68Z</time></trkpt><trkpt lat="37.794587" lon="12.4798122"><ele>47.5</ele><time>2026-04-28T09:50:01.68Z</time></trkpt><trkpt lat="37.7945726" lon="12.4796262"><ele>47.0</ele><time>2026-04-28T09:50:02.679Z</time></trkpt><trkpt lat="37.7945618" lon="12.4794441"><ele>46.25</ele><time>2026-04-28T09:50:03.681Z</time></trkpt><trkpt lat="37.794546" lon="12.4792607"><ele>45.5</ele><time>2026-04-28T09:50:04.679Z</time></trkpt><trkpt lat="37.7945311" lon="12.479094"><ele>44.75</ele><time>2026-04-28T09:50:05.679Z</time></trkpt><trkpt lat="37.7945167" lon="12.4789399"><ele>44.0</ele><time>2026-04-28T09:50:06.68Z</time></trkpt><trkpt lat="37.7945055" lon="12.4787947"><ele>44.0</ele><time>2026-04-28T09:50:07.68Z</time></trkpt><trkpt lat="37.7944883" lon="12.4786568"><ele>44.0</ele><time>2026-04-28T09:50:08.68Z</time></trkpt><trkpt lat="37.7944793" lon="12.478524"><ele>44.0</ele><time>2026-04-28T09:50:09.679Z</time></trkpt><trkpt lat="37.7944684" lon="12.4784096"><ele>44.0</ele><time>2026-04-28T09:50:10.679Z</time></trkpt><trkpt lat="37.7944605" lon="12.4782982"><ele>44.0</ele><time>2026-04-28T09:50:11.68Z</time></trkpt><trkpt lat="37.7944547" lon="12.4781989"><ele>44.0</ele><time>2026-04-28T09:50:12.679Z</time></trkpt><trkpt lat="37.7944503" lon="12.4781029"><ele>44.0</ele><time>2026-04-28T09:50:13.68Z</time></trkpt><trkpt lat="37.7944505" lon="12.4780168"><ele>44.0</ele><time>2026-04-28T09:50:14.68Z</time></trkpt><trkpt lat="37.7944403" lon="12.4778624"><ele>44.0</ele><time>2026-04-28T09:50:16.681Z</time></trkpt><trkpt lat="37.7944227" lon="12.4777383"><ele>44.0</ele><time>2026-04-28T09:50:18.68Z</time></trkpt><trkpt lat="37.7944136" lon="12.4776407"><ele>44.0</ele><time>2026-04-28T09:50:20.679Z</time></trkpt><trkpt lat="37.7944034" lon="12.4775473"><ele>43.6</ele><time>2026-04-28T09:50:22.681Z</time></trkpt><trkpt lat="37.7943965" lon="12.4774378"><ele>43.2</ele><time>2026-04-28T09:50:24.679Z</time></trkpt><trkpt lat="37.7944154" lon="12.4773083"><ele>42.800000000000004</ele><time>2026-04-28T09:50:26.679Z</time></trkpt><trkpt lat="37.794475" lon="12.4771826"><ele>42.400000000000006</ele><time>2026-04-28T09:50:28.68Z</time></trkpt><trkpt lat="37.794529" lon="12.4771157"><ele>42.0</ele><time>2026-04-28T09:50:29.68Z</time></trkpt><trkpt lat="37.7945771" lon="12.4770327"><ele>41.8</ele><time>2026-04-28T09:50:30.68Z</time></trkpt><trkpt lat="37.7946365" lon="12.47694"><ele>41.6</ele><time>2026-04-28T09:50:31.679Z</time></trkpt><trkpt lat="37.7946977" lon="12.4768448"><ele>41.4</ele><time>2026-04-28T09:50:32.679Z</time></trkpt><trkpt lat="37.7947666" lon="12.4767504"><ele>41.199999999999996</ele><time>2026-04-28T09:50:33.68Z</time></trkpt><trkpt lat="37.7948408" lon="12.4766469"><ele>41.0</ele><time>2026-04-28T09:50:34.68Z</time></trkpt><trkpt lat="37.7949277" lon="12.476532"><ele>41.0</ele><time>2026-04-28T09:50:35.682Z</time></trkpt><trkpt lat="37.7950279" lon="12.4764063"><ele>41.0</ele><time>2026-04-28T09:50:36.681Z</time></trkpt><trkpt lat="37.7951362" lon="12.4762758"><ele>41.0</ele><time>2026-04-28T09:50:37.679Z</time></trkpt><trkpt lat="37.7952367" lon="12.4761573"><ele>41.0</ele><time>2026-04-28T09:50:38.68Z</time></trkpt><trkpt lat="37.795335" lon="12.4760394"><ele>41.75</ele><time>2026-04-28T09:50:39.682Z</time></trkpt><trkpt lat="37.7954358" lon="12.4759199"><ele>42.5</ele><time>2026-04-28T09:50:40.679Z</time></trkpt><trkpt lat="37.7955399" lon="12.475793"><ele>43.25</ele><time>2026-04-28T09:50:41.68Z</time></trkpt><trkpt lat="37.7956473" lon="12.4756583"><ele>44.0</ele><time>2026-04-28T09:50:42.679Z</time></trkpt><trkpt lat="37.7957543" lon="12.4755104"><ele>43.0</ele><time>2026-04-28T09:50:43.679Z</time></trkpt><trkpt lat="37.7958602" lon="12.4753488"><ele>42.0</ele><time>2026-04-28T09:50:44.68Z</time></trkpt><trkpt lat="37.7959815" lon="12.4751766"><ele>41.0</ele><time>2026-04-28T09:50:45.681Z</time></trkpt><trkpt lat="37.796101" lon="12.4750033"><ele>41.0</ele><time>2026-04-28T09:50:46.68Z</time></trkpt><trkpt lat="37.7962116" lon="12.4748301"><ele>41.0</ele><time>2026-04-28T09:50:47.679Z</time></trkpt><trkpt lat="37.7963262" lon="12.4746575"><ele>41.0</ele><time>2026-04-28T09:50:48.681Z</time></trkpt><trkpt lat="37.7964343" lon="12.4744758"><ele>41.0</ele><time>2026-04-28T09:50:49.68Z</time></trkpt><trkpt lat="37.7965401" lon="12.4742741"><ele>41.0</ele><time>2026-04-28T09:50:50.68Z</time></trkpt><trkpt lat="37.7966304" lon="12.4740851"><ele>41.0</ele><time>2026-04-28T09:50:51.679Z</time></trkpt><trkpt lat="37.796712" lon="12.4739094"><ele>40.75</ele><time>2026-04-28T09:50:52.679Z</time></trkpt><trkpt lat="37.7967764" lon="12.4737352"><ele>40.5</ele><time>2026-04-28T09:50:53.68Z</time></trkpt><trkpt lat="37.7968286" lon="12.4735765"><ele>40.25</ele><time>2026-04-28T09:50:54.679Z</time></trkpt><trkpt lat="37.7968792" lon="12.473428"><ele>40.0</ele><time>2026-04-28T09:50:55.68Z</time></trkpt><trkpt lat="37.7969265" lon="12.4732734"><ele>40.66666666666667</ele><time>2026-04-28T09:50:56.679Z</time></trkpt><trkpt lat="37.7969802" lon="12.4731069"><ele>41.333333333333336</ele><time>2026-04-28T09:50:57.68Z</time></trkpt><trkpt lat="37.7970339" lon="12.4729078"><ele>42.0</ele><time>2026-04-28T09:50:58.681Z</time></trkpt><trkpt lat="37.7970865" lon="12.4727272"><ele>42.0</ele><time>2026-04-28T09:50:59.679Z</time></trkpt><trkpt lat="37.7971379" lon="12.4725653"><ele>42.0</ele><time>2026-04-28T09:51:00.681Z</time></trkpt><trkpt lat="37.7971959" lon="12.472417"><ele>42.0</ele><time>2026-04-28T09:51:01.68Z</time></trkpt><trkpt lat="37.7972879" lon="12.4722769"><ele>42.0</ele><time>2026-04-28T09:51:02.681Z</time></trkpt><trkpt lat="37.7974067" lon="12.4721428"><ele>41.666666666666664</ele><time>2026-04-28T09:51:03.681Z</time></trkpt><trkpt lat="37.7975312" lon="12.4720051"><ele>41.33333333333333</ele><time>2026-04-28T09:51:04.68Z</time></trkpt><trkpt lat="37.7976553" lon="12.4718768"><ele>41.0</ele><time>2026-04-28T09:51:05.68Z</time></trkpt><trkpt lat="37.7977814" lon="12.471754"><ele>41.0</ele><time>2026-04-28T09:51:06.681Z</time></trkpt><trkpt lat="37.7978992" lon="12.4716489"><ele>41.0</ele><time>2026-04-28T09:51:07.68Z</time></trkpt><trkpt lat="37.7980081" lon="12.4715438"><ele>41.0</ele><time>2026-04-28T09:51:08.679Z</time></trkpt><trkpt lat="37.7981074" lon="12.4714493"><ele>41.0</ele><time>2026-04-28T09:51:09.681Z</time></trkpt><trkpt lat="37.7982025" lon="12.4713633"><ele>40.75</ele><time>2026-04-28T09:51:10.679Z</time></trkpt><trkpt lat="37.7982834" lon="12.4712707"><ele>40.5</ele><time>2026-04-28T09:51:11.679Z</time></trkpt><trkpt lat="37.7983665" lon="12.471177"><ele>40.25</ele><time>2026-04-28T09:51:12.679Z</time></trkpt><trkpt lat="37.7984489" lon="12.4710864"><ele>40.0</ele><time>2026-04-28T09:51:13.68Z</time></trkpt><trkpt lat="37.7985365" lon="12.4709808"><ele>40.75</ele><time>2026-04-28T09:51:14.68Z</time></trkpt><trkpt lat="37.7986253" lon="12.4708677"><ele>41.5</ele><time>2026-04-28T09:51:15.679Z</time></trkpt><trkpt lat="37.7987128" lon="12.4707629"><ele>42.25</ele><time>2026-04-28T09:51:16.68Z</time></trkpt><trkpt lat="37.7987994" lon="12.4706542"><ele>43.0</ele><time>2026-04-28T09:51:17.679Z</time></trkpt><trkpt lat="37.7988906" lon="12.4705429"><ele>42.25</ele><time>2026-04-28T09:51:18.68Z</time></trkpt><trkpt lat="37.7989849" lon="12.4704303"><ele>41.5</ele><time>2026-04-28T09:51:19.681Z</time></trkpt><trkpt lat="37.7990717" lon="12.4703044"><ele>40.75</ele><time>2026-04-28T09:51:20.68Z</time></trkpt><trkpt lat="37.7991439" lon="12.4701495"><ele>40.0</ele><time>2026-04-28T09:51:21.681Z</time></trkpt><trkpt lat="37.799214" lon="12.4699692"><ele>40.0</ele><time>2026-04-28T09:51:22.679Z</time></trkpt><trkpt lat="37.7992757" lon="12.4697645"><ele>40.0</ele><time>2026-04-28T09:51:23.68Z</time></trkpt><trkpt lat="37.7993377" lon="12.4695539"><ele>40.0</ele><time>2026-04-28T09:51:24.68Z</time></trkpt><trkpt lat="37.799404" lon="12.4693351"><ele>40.0</ele><time>2026-04-28T09:51:25.681Z</time></trkpt><trkpt lat="37.7994655" lon="12.4691016"><ele>40.0</ele><time>2026-04-28T09:51:26.679Z</time></trkpt><trkpt lat="37.7995295" lon="12.4688669"><ele>40.0</ele><time>2026-04-28T09:51:27.68Z</time></trkpt><trkpt lat="37.7995957" lon="12.4686439"><ele>40.0</ele><time>2026-04-28T09:51:28.68Z</time></trkpt><trkpt lat="37.7996573" lon="12.4684204"><ele>40.0</ele><time>2026-04-28T09:51:29.68Z</time></trkpt><trkpt lat="37.7997185" lon="12.4682144"><ele>40.0</ele><time>2026-04-28T09:51:30.679Z</time></trkpt><trkpt lat="37.7997769" lon="12.4680181"><ele>40.0</ele><time>2026-04-28T09:51:31.68Z</time></trkpt><trkpt lat="37.7998345" lon="12.467833"><ele>40.0</ele><time>2026-04-28T09:51:32.68Z</time></trkpt><trkpt lat="37.7998886" lon="12.4676577"><ele>40.0</ele><time>2026-04-28T09:51:33.68Z</time></trkpt><trkpt lat="37.7999445" lon="12.4674962"><ele>40.0</ele><time>2026-04-28T09:51:34.68Z</time></trkpt><trkpt lat="37.7999947" lon="12.4673516"><ele>40.0</ele><time>2026-04-28T09:51:35.68Z</time></trkpt><trkpt lat="37.8000268" lon="12.4672183"><ele>40.0</ele><time>2026-04-28T09:51:36.679Z</time></trkpt><trkpt lat="37.8000578" lon="12.4670976"><ele>40.0</ele><time>2026-04-28T09:51:37.681Z</time></trkpt><trkpt lat="37.800089" lon="12.466969"><ele>40.0</ele><time>2026-04-28T09:51:38.679Z</time></trkpt><trkpt lat="37.8001294" lon="12.4668369"><ele>40.0</ele><time>2026-04-28T09:51:39.681Z</time></trkpt><trkpt lat="37.8001641" lon="12.4667133"><ele>39.75</ele><time>2026-04-28T09:51:40.68Z</time></trkpt><trkpt lat="37.8002312" lon="12.4664607"><ele>39.5</ele><time>2026-04-28T09:51:42.68Z</time></trkpt><trkpt lat="37.8002599" lon="12.4663491"><ele>39.25</ele><time>2026-04-28T09:51:43.68Z</time></trkpt><trkpt lat="37.8002977" lon="12.4662479"><ele>39.0</ele><time>2026-04-28T09:51:44.679Z</time></trkpt><trkpt lat="37.8003343" lon="12.466151"><ele>39.0</ele><time>2026-04-28T09:51:45.682Z</time></trkpt><trkpt lat="37.8003737" lon="12.4660712"><ele>39.0</ele><time>2026-04-28T09:51:46.679Z</time></trkpt><trkpt lat="37.8004165" lon="12.4660115"><ele>39.0</ele><time>2026-04-28T09:51:47.681Z</time></trkpt><trkpt lat="37.8004759" lon="12.4659542"><ele>39.0</ele><time>2026-04-28T09:51:48.68Z</time></trkpt><trkpt lat="37.8005335" lon="12.4659193"><ele>39.0</ele><time>2026-04-28T09:51:49.68Z</time></trkpt><trkpt lat="37.8006164" lon="12.4658911"><ele>39.0</ele><time>2026-04-28T09:51:51.68Z</time></trkpt><trkpt lat="37.8006798" lon="12.4658411"><ele>39.0</ele><time>2026-04-28T09:51:54.679Z</time></trkpt><trkpt lat="37.8007382" lon="12.4657481"><ele>39.0</ele><time>2026-04-28T09:51:56.681Z</time></trkpt><trkpt lat="37.8007812" lon="12.4655909"><ele>39.0</ele><time>2026-04-28T09:51:58.68Z</time></trkpt><trkpt lat="37.800807" lon="12.4654861"><ele>39.0</ele><time>2026-04-28T09:51:59.68Z</time></trkpt><trkpt lat="37.8008333" lon="12.4653669"><ele>39.0</ele><time>2026-04-28T09:52:00.682Z</time></trkpt><trkpt lat="37.8008663" lon="12.4652501"><ele>39.0</ele><time>2026-04-28T09:52:01.679Z</time></trkpt><trkpt lat="37.8009067" lon="12.4651463"><ele>39.0</ele><time>2026-04-28T09:52:02.679Z</time></trkpt><trkpt lat="37.8009373" lon="12.4650374"><ele>39.0</ele><time>2026-04-28T09:52:03.681Z</time></trkpt><trkpt lat="37.8009717" lon="12.4649204"><ele>39.0</ele><time>2026-04-28T09:52:04.68Z</time></trkpt><trkpt lat="37.8010119" lon="12.4648023"><ele>39.0</ele><time>2026-04-28T09:52:05.679Z</time></trkpt><trkpt lat="37.8010477" lon="12.4647047"><ele>39.0</ele><time>2026-04-28T09:52:06.68Z</time></trkpt><trkpt lat="37.8011028" lon="12.4646021"><ele>38.8</ele><time>2026-04-28T09:52:07.679Z</time></trkpt><trkpt lat="37.801156" lon="12.4644885"><ele>38.599999999999994</ele><time>2026-04-28T09:52:08.68Z</time></trkpt><trkpt lat="37.8012155" lon="12.4643662"><ele>38.4</ele><time>2026-04-28T09:52:09.68Z</time></trkpt><trkpt lat="37.8012773" lon="12.4642512"><ele>38.199999999999996</ele><time>2026-04-28T09:52:10.68Z</time></trkpt><trkpt lat="37.8013218" lon="12.464138"><ele>38.0</ele><time>2026-04-28T09:52:11.681Z</time></trkpt><trkpt lat="37.8013713" lon="12.4640396"><ele>38.0</ele><time>2026-04-28T09:52:12.679Z</time></trkpt><trkpt lat="37.8014161" lon="12.4639369"><ele>38.0</ele><time>2026-04-28T09:52:13.68Z</time></trkpt><trkpt lat="37.8014499" lon="12.463838"><ele>38.0</ele><time>2026-04-28T09:52:14.681Z</time></trkpt><trkpt lat="37.801484" lon="12.4637368"><ele>38.0</ele><time>2026-04-28T09:52:15.68Z</time></trkpt><trkpt lat="37.8015126" lon="12.4636376"><ele>38.0</ele><time>2026-04-28T09:52:16.681Z</time></trkpt><trkpt lat="37.8015452" lon="12.4635408"><ele>38.0</ele><time>2026-04-28T09:52:17.681Z</time></trkpt><trkpt lat="37.8015806" lon="12.4634412"><ele>37.8</ele><time>2026-04-28T09:52:18.679Z</time></trkpt><trkpt lat="37.8016259" lon="12.4633133"><ele>37.599999999999994</ele><time>2026-04-28T09:52:19.682Z</time></trkpt><trkpt lat="37.8016709" lon="12.4632003"><ele>37.400000000000006</ele><time>2026-04-28T09:52:20.679Z</time></trkpt><trkpt lat="37.8017217" lon="12.4630993"><ele>37.2</ele><time>2026-04-28T09:52:21.681Z</time></trkpt><trkpt lat="37.8017746" lon="12.4630214"><ele>37.0</ele><time>2026-04-28T09:52:22.68Z</time></trkpt><trkpt lat="37.8018217" lon="12.4629387"><ele>36.0</ele><time>2026-04-28T09:52:23.68Z</time></trkpt><trkpt lat="37.8018716" lon="12.4628507"><ele>35.0</ele><time>2026-04-28T09:52:24.68Z</time></trkpt><trkpt lat="37.8019073" lon="12.4627491"><ele>34.0</ele><time>2026-04-28T09:52:25.679Z</time></trkpt><trkpt lat="37.801939" lon="12.462618"><ele>33.0</ele><time>2026-04-28T09:52:26.68Z</time></trkpt><trkpt lat="37.8019684" lon="12.4624825"><ele>32.0</ele><time>2026-04-28T09:52:27.679Z</time></trkpt><trkpt lat="37.8019953" lon="12.4623663"><ele>32.0</ele><time>2026-04-28T09:52:28.681Z</time></trkpt><trkpt lat="37.8020289" lon="12.4622485"><ele>32.0</ele><time>2026-04-28T09:52:29.681Z</time></trkpt><trkpt lat="37.8020736" lon="12.4621204"><ele>32.0</ele><time>2026-04-28T09:52:30.68Z</time></trkpt><trkpt lat="37.8021228" lon="12.461977"><ele>32.0</ele><time>2026-04-28T09:52:31.68Z</time></trkpt><trkpt lat="37.8021733" lon="12.4618456"><ele>32.0</ele><time>2026-04-28T09:52:32.68Z</time></trkpt><trkpt lat="37.8022214" lon="12.461715"><ele>32.0</ele><time>2026-04-28T09:52:33.679Z</time></trkpt><trkpt lat="37.8022665" lon="12.461585"><ele>32.0</ele><time>2026-04-28T09:52:34.68Z</time></trkpt><trkpt lat="37.8023214" lon="12.4614229"><ele>32.0</ele><time>2026-04-28T09:52:35.68Z</time></trkpt><trkpt lat="37.8023847" lon="12.4612463"><ele>32.0</ele><time>2026-04-28T09:52:36.681Z</time></trkpt><trkpt lat="37.8024648" lon="12.4610535"><ele>32.666666666666664</ele><time>2026-04-28T09:52:37.68Z</time></trkpt><trkpt lat="37.8025445" lon="12.460848"><ele>33.333333333333336</ele><time>2026-04-28T09:52:38.68Z</time></trkpt><trkpt lat="37.8026321" lon="12.4606055"><ele>34.0</ele><time>2026-04-28T09:52:39.68Z</time></trkpt><trkpt lat="37.80272" lon="12.4603555"><ele>32.66666666666667</ele><time>2026-04-28T09:52:40.68Z</time></trkpt><trkpt lat="37.8027929" lon="12.4601252"><ele>31.333333333333336</ele><time>2026-04-28T09:52:41.679Z</time></trkpt><trkpt lat="37.8028677" lon="12.4599161"><ele>30.0</ele><time>2026-04-28T09:52:42.681Z</time></trkpt><trkpt lat="37.8029331" lon="12.4597133"><ele>30.333333333333336</ele><time>2026-04-28T09:52:43.681Z</time></trkpt><trkpt lat="37.8029935" lon="12.4595156"><ele>30.666666666666668</ele><time>2026-04-28T09:52:44.68Z</time></trkpt><trkpt lat="37.803049" lon="12.4593305"><ele>31.0</ele><time>2026-04-28T09:52:45.68Z</time></trkpt><trkpt lat="37.8031053" lon="12.4591524"><ele>31.0</ele><time>2026-04-28T09:52:46.682Z</time></trkpt><trkpt lat="37.8031561" lon="12.458976"><ele>31.0</ele><time>2026-04-28T09:52:47.68Z</time></trkpt><trkpt lat="37.8032053" lon="12.4587971"><ele>31.0</ele><time>2026-04-28T09:52:48.68Z</time></trkpt><trkpt lat="37.8032647" lon="12.4586115"><ele>31.666666666666668</ele><time>2026-04-28T09:52:49.68Z</time></trkpt><trkpt lat="37.8033349" lon="12.4584282"><ele>32.333333333333336</ele><time>2026-04-28T09:52:50.68Z</time></trkpt><trkpt lat="37.8033979" lon="12.4582394"><ele>33.0</ele><time>2026-04-28T09:52:51.68Z</time></trkpt><trkpt lat="37.8034614" lon="12.4580697"><ele>32.75</ele><time>2026-04-28T09:52:52.681Z</time></trkpt><trkpt lat="37.8035225" lon="12.4579061"><ele>32.5</ele><time>2026-04-28T09:52:53.679Z</time></trkpt><trkpt lat="37.8035782" lon="12.4577549"><ele>32.25</ele><time>2026-04-28T09:52:54.68Z</time></trkpt><trkpt lat="37.8036331" lon="12.4576174"><ele>32.0</ele><time>2026-04-28T09:52:55.681Z</time></trkpt><trkpt lat="37.8036859" lon="12.457495"><ele>32.0</ele><time>2026-04-28T09:52:56.681Z</time></trkpt><trkpt lat="37.8037359" lon="12.4573836"><ele>32.0</ele><time>2026-04-28T09:52:57.681Z</time></trkpt><trkpt lat="37.8037842" lon="12.4572819"><ele>32.0</ele><time>2026-04-28T09:52:58.68Z</time></trkpt><trkpt lat="37.8038242" lon="12.4571907"><ele>32.0</ele><time>2026-04-28T09:52:59.68Z</time></trkpt><trkpt lat="37.8038532" lon="12.4570683"><ele>32.0</ele><time>2026-04-28T09:53:01.682Z</time></trkpt><trkpt lat="37.8037856" lon="12.4569798"><ele>32.0</ele><time>2026-04-28T09:53:03.68Z</time></trkpt><trkpt lat="37.8036983" lon="12.4569215"><ele>32.0</ele><time>2026-04-28T09:53:04.679Z</time></trkpt><trkpt lat="37.8035677" lon="12.4568578"><ele>32.0</ele><time>2026-04-28T09:53:05.68Z</time></trkpt><trkpt lat="37.8034313" lon="12.4567976"><ele>32.0</ele><time>2026-04-28T09:53:06.68Z</time></trkpt><trkpt lat="37.8032969" lon="12.4567315"><ele>32.0</ele><time>2026-04-28T09:53:07.68Z</time></trkpt><trkpt lat="37.803157" lon="12.4566645"><ele>32.0</ele><time>2026-04-28T09:53:08.679Z</time></trkpt><trkpt lat="37.8030074" lon="12.4565938"><ele>32.0</ele><time>2026-04-28T09:53:09.681Z</time></trkpt><trkpt lat="37.8028529" lon="12.4565241"><ele>32.0</ele><time>2026-04-28T09:53:10.68Z</time></trkpt><trkpt lat="37.8026974" lon="12.4564487"><ele>32.0</ele><time>2026-04-28T09:53:11.681Z</time></trkpt><trkpt lat="37.8025486" lon="12.4563822"><ele>32.0</ele><time>2026-04-28T09:53:12.68Z</time></trkpt><trkpt lat="37.802406" lon="12.4563221"><ele>32.0</ele><time>2026-04-28T09:53:13.68Z</time></trkpt><trkpt lat="37.8022541" lon="12.4562501"><ele>32.0</ele><time>2026-04-28T09:53:14.679Z</time></trkpt><trkpt lat="37.8020985" lon="12.4561781"><ele>32.0</ele><time>2026-04-28T09:53:15.681Z</time></trkpt><trkpt lat="37.8019541" lon="12.4561106"><ele>32.0</ele><time>2026-04-28T09:53:16.679Z</time></trkpt><trkpt lat="37.801822" lon="12.4560457"><ele>32.0</ele><time>2026-04-28T09:53:17.679Z</time></trkpt><trkpt lat="37.8016833" lon="12.4559889"><ele>32.0</ele><time>2026-04-28T09:53:18.68Z</time></trkpt><trkpt lat="37.8015363" lon="12.4559262"><ele>32.0</ele><time>2026-04-28T09:53:19.68Z</time></trkpt><trkpt lat="37.8013884" lon="12.4558584"><ele>32.0</ele><time>2026-04-28T09:53:20.68Z</time></trkpt><trkpt lat="37.8012345" lon="12.4557858"><ele>32.0</ele><time>2026-04-28T09:53:21.68Z</time></trkpt><trkpt lat="37.801073" lon="12.455715"><ele>32.0</ele><time>2026-04-28T09:53:22.68Z</time></trkpt><trkpt lat="37.8009233" lon="12.4556486"><ele>31.75</ele><time>2026-04-28T09:53:23.68Z</time></trkpt><trkpt lat="37.8007788" lon="12.4555782"><ele>31.5</ele><time>2026-04-28T09:53:24.68Z</time></trkpt><trkpt lat="37.800648" lon="12.4555229"><ele>31.25</ele><time>2026-04-28T09:53:25.679Z</time></trkpt><trkpt lat="37.8005279" lon="12.4554718"><ele>31.0</ele><time>2026-04-28T09:53:26.681Z</time></trkpt><trkpt lat="37.8004217" lon="12.4554093"><ele>30.8</ele><time>2026-04-28T09:53:27.68Z</time></trkpt><trkpt lat="37.8003445" lon="12.4553495"><ele>30.6</ele><time>2026-04-28T09:53:28.679Z</time></trkpt><trkpt lat="37.8002778" lon="12.455265"><ele>30.4</ele><time>2026-04-28T09:53:29.681Z</time></trkpt><trkpt lat="37.8002319" lon="12.4551645"><ele>30.2</ele><time>2026-04-28T09:53:30.68Z</time></trkpt><trkpt lat="37.8002099" lon="12.4550541"><ele>30.0</ele><time>2026-04-28T09:53:31.679Z</time></trkpt><trkpt lat="37.8002135" lon="12.4549325"><ele>30.0</ele><time>2026-04-28T09:53:32.68Z</time></trkpt><trkpt lat="37.80024" lon="12.454798"><ele>30.0</ele><time>2026-04-28T09:53:33.681Z</time></trkpt><trkpt lat="37.8002929" lon="12.4546449"><ele>30.0</ele><time>2026-04-28T09:53:34.681Z</time></trkpt><trkpt lat="37.8003777" lon="12.4544718"><ele>30.0</ele><time>2026-04-28T09:53:35.681Z</time></trkpt><trkpt lat="37.8004614" lon="12.4542808"><ele>30.0</ele><time>2026-04-28T09:53:36.68Z</time></trkpt><trkpt lat="37.8005439" lon="12.4540826"><ele>30.0</ele><time>2026-04-28T09:53:37.68Z</time></trkpt><trkpt lat="37.8006257" lon="12.4538957"><ele>30.0</ele><time>2026-04-28T09:53:38.68Z</time></trkpt><trkpt lat="37.8007079" lon="12.4537028"><ele>30.0</ele><time>2026-04-28T09:53:39.68Z</time></trkpt><trkpt lat="37.8007942" lon="12.4535105"><ele>30.0</ele><time>2026-04-28T09:53:40.679Z</time></trkpt><trkpt lat="37.8008678" lon="12.4533379"><ele>30.0</ele><time>2026-04-28T09:53:41.681Z</time></trkpt><trkpt lat="37.8009352" lon="12.4531757"><ele>30.0</ele><time>2026-04-28T09:53:42.68Z</time></trkpt><trkpt lat="37.800996" lon="12.4530254"><ele>30.0</ele><time>2026-04-28T09:53:43.681Z</time></trkpt><trkpt lat="37.801052" lon="12.4528808"><ele>30.0</ele><time>2026-04-28T09:53:44.681Z</time></trkpt><trkpt lat="37.8011024" lon="12.4527587"><ele>30.0</ele><time>2026-04-28T09:53:45.679Z</time></trkpt><trkpt lat="37.8011375" lon="12.4526391"><ele>30.0</ele><time>2026-04-28T09:53:46.68Z</time></trkpt><trkpt lat="37.8011624" lon="12.452503"><ele>30.0</ele><time>2026-04-28T09:53:47.679Z</time></trkpt><trkpt lat="37.8011551" lon="12.4523576"><ele>30.0</ele><time>2026-04-28T09:53:48.679Z</time></trkpt><trkpt lat="37.8011193" lon="12.4521921"><ele>30.0</ele><time>2026-04-28T09:53:49.681Z</time></trkpt><trkpt lat="37.8010651" lon="12.4519949"><ele>30.0</ele><time>2026-04-28T09:53:50.679Z</time></trkpt><trkpt lat="37.8010192" lon="12.4518032"><ele>30.0</ele><time>2026-04-28T09:53:51.679Z</time></trkpt><trkpt lat="37.8009762" lon="12.4515887"><ele>30.0</ele><time>2026-04-28T09:53:52.681Z</time></trkpt><trkpt lat="37.8009328" lon="12.4513738"><ele>30.0</ele><time>2026-04-28T09:53:53.68Z</time></trkpt><trkpt lat="37.8009027" lon="12.4511847"><ele>30.0</ele><time>2026-04-28T09:53:54.681Z</time></trkpt><trkpt lat="37.8008873" lon="12.4509946"><ele>30.0</ele><time>2026-04-28T09:53:55.681Z</time></trkpt><trkpt lat="37.8008758" lon="12.4508008"><ele>30.0</ele><time>2026-04-28T09:53:56.681Z</time></trkpt><trkpt lat="37.8008654" lon="12.4506013"><ele>30.0</ele><time>2026-04-28T09:53:57.679Z</time></trkpt><trkpt lat="37.8008551" lon="12.4503885"><ele>30.0</ele><time>2026-04-28T09:53:58.679Z</time></trkpt><trkpt lat="37.8008417" lon="12.4501627"><ele>30.0</ele><time>2026-04-28T09:53:59.681Z</time></trkpt><trkpt lat="37.8008422" lon="12.4499282"><ele>30.0</ele><time>2026-04-28T09:54:00.68Z</time></trkpt><trkpt lat="37.8008387" lon="12.4496932"><ele>30.0</ele><time>2026-04-28T09:54:01.679Z</time></trkpt><trkpt lat="37.8008348" lon="12.4494804"><ele>30.25</ele><time>2026-04-28T09:54:02.68Z</time></trkpt><trkpt lat="37.8008281" lon="12.4492837"><ele>30.5</ele><time>2026-04-28T09:54:03.68Z</time></trkpt><trkpt lat="37.8008377" lon="12.4491024"><ele>30.75</ele><time>2026-04-28T09:54:04.679Z</time></trkpt><trkpt lat="37.800861" lon="12.4489311"><ele>31.0</ele><time>2026-04-28T09:54:05.68Z</time></trkpt><trkpt lat="37.8008902" lon="12.4487702"><ele>31.0</ele><time>2026-04-28T09:54:06.68Z</time></trkpt><trkpt lat="37.8009043" lon="12.448611"><ele>31.0</ele><time>2026-04-28T09:54:07.68Z</time></trkpt><trkpt lat="37.8009023" lon="12.4484468"><ele>31.0</ele><time>2026-04-28T09:54:08.68Z</time></trkpt><trkpt lat="37.8008893" lon="12.4482853"><ele>31.0</ele><time>2026-04-28T09:54:09.68Z</time></trkpt><trkpt lat="37.8008788" lon="12.448142"><ele>31.000000000000004</ele><time>2026-04-28T09:54:10.68Z</time></trkpt><trkpt lat="37.8008689" lon="12.4480148"><ele>31.0</ele><time>2026-04-28T09:54:11.681Z</time></trkpt><trkpt lat="37.8008691" lon="12.4479072"><ele>31.0</ele><time>2026-04-28T09:54:12.681Z</time></trkpt><trkpt lat="37.8008615" lon="12.4478215"><ele>31.0</ele><time>2026-04-28T09:54:13.681Z</time></trkpt><trkpt lat="37.8008695" lon="12.4476927"><ele>31.000000000000004</ele><time>2026-04-28T09:54:15.68Z</time></trkpt><trkpt lat="37.8009171" lon="12.4476061"><ele>31.0</ele><time>2026-04-28T09:54:17.681Z</time></trkpt><trkpt lat="37.8010413" lon="12.4475805"><ele>31.6</ele><time>2026-04-28T09:54:19.681Z</time></trkpt><trkpt lat="37.8011709" lon="12.4476226"><ele>32.2</ele><time>2026-04-28T09:54:21.68Z</time></trkpt><trkpt lat="37.8012428" lon="12.4476413"><ele>32.8</ele><time>2026-04-28T09:54:22.68Z</time></trkpt><trkpt lat="37.8013075" lon="12.447648"><ele>33.4</ele><time>2026-04-28T09:54:23.679Z</time></trkpt><trkpt lat="37.8014198" lon="12.4476504"><ele>34.0</ele><time>2026-04-28T09:54:25.681Z</time></trkpt><trkpt lat="37.801528" lon="12.447642"><ele>34.0</ele><time>2026-04-28T09:54:27.681Z</time></trkpt><trkpt lat="37.8016545" lon="12.4476428"><ele>34.0</ele><time>2026-04-28T09:54:29.68Z</time></trkpt><trkpt lat="37.8017764" lon="12.4476233"><ele>34.0</ele><time>2026-04-28T09:54:31.68Z</time></trkpt><trkpt lat="37.8018406" lon="12.4476222"><ele>34.0</ele><time>2026-04-28T09:54:32.681Z</time></trkpt><trkpt lat="37.8019061" lon="12.4476167"><ele>34.0</ele><time>2026-04-28T09:54:33.68Z</time></trkpt><trkpt lat="37.8020192" lon="12.4476181"><ele>33.4</ele><time>2026-04-28T09:54:35.681Z</time></trkpt><trkpt lat="37.8021188" lon="12.4476091"><ele>32.8</ele><time>2026-04-28T09:54:37.681Z</time></trkpt><trkpt lat="37.8022157" lon="12.4475986"><ele>32.2</ele><time>2026-04-28T09:54:39.68Z</time></trkpt><trkpt lat="37.80233" lon="12.4475953"><ele>31.6</ele><time>2026-04-28T09:54:41.681Z</time></trkpt><trkpt lat="37.8024401" lon="12.4475924"><ele>31.0</ele><time>2026-04-28T09:54:43.68Z</time></trkpt><trkpt lat="37.8025176" lon="12.4475594"><ele>31.0</ele><time>2026-04-28T09:54:45.68Z</time></trkpt><trkpt lat="37.8025509" lon="12.4474512"><ele>31.0</ele><time>2026-04-28T09:54:47.681Z</time></trkpt><trkpt lat="37.8025722" lon="12.4472855"><ele>31.0</ele><time>2026-04-28T09:54:49.682Z</time></trkpt><trkpt lat="37.8025814" lon="12.4471868"><ele>31.0</ele><time>2026-04-28T09:54:50.681Z</time></trkpt><trkpt lat="37.8025959" lon="12.4470748"><ele>31.0</ele><time>2026-04-28T09:54:51.68Z</time></trkpt><trkpt lat="37.8026039" lon="12.4469764"><ele>30.8</ele><time>2026-04-28T09:54:52.68Z</time></trkpt><trkpt lat="37.8026222" lon="12.4468854"><ele>30.6</ele><time>2026-04-28T09:54:53.681Z</time></trkpt><trkpt lat="37.8026403" lon="12.4467387"><ele>30.4</ele><time>2026-04-28T09:54:55.68Z</time></trkpt><trkpt lat="37.8026465" lon="12.4466237"><ele>30.2</ele><time>2026-04-28T09:54:57.679Z</time></trkpt><trkpt lat="37.8026548" lon="12.4465115"><ele>30.0</ele><time>2026-04-28T09:54:59.682Z</time></trkpt><trkpt lat="37.8026619" lon="12.4464028"><ele>29.4</ele><time>2026-04-28T09:55:01.681Z</time></trkpt><trkpt lat="37.802677" lon="12.4462915"><ele>28.8</ele><time>2026-04-28T09:55:03.68Z</time></trkpt><trkpt lat="37.802687" lon="12.4461819"><ele>28.200000000000003</ele><time>2026-04-28T09:55:05.68Z</time></trkpt><trkpt lat="37.8027093" lon="12.446068"><ele>27.6</ele><time>2026-04-28T09:55:07.68Z</time></trkpt><trkpt lat="37.8027182" lon="12.4459192"><ele>27.0</ele><time>2026-04-28T09:55:09.679Z</time></trkpt><trkpt lat="37.802727" lon="12.4458328"><ele>27.0</ele><time>2026-04-28T09:55:10.681Z</time></trkpt><trkpt lat="37.8027342" lon="12.4457514"><ele>27.0</ele><time>2026-04-28T09:55:11.68Z</time></trkpt><trkpt lat="37.8027435" lon="12.4456674"><ele>27.0</ele><time>2026-04-28T09:55:12.681Z</time></trkpt><trkpt lat="37.8027603" lon="12.4455869"><ele>27.0</ele><time>2026-04-28T09:55:13.68Z</time></trkpt><trkpt lat="37.8027873" lon="12.445453"><ele>27.0</ele><time>2026-04-28T09:55:15.681Z</time></trkpt><trkpt lat="37.8027995" lon="12.4453464"><ele>27.0</ele><time>2026-04-28T09:55:17.681Z</time></trkpt><trkpt lat="37.802807" lon="12.4452195"><ele>27.0</ele><time>2026-04-28T09:55:19.68Z</time></trkpt><trkpt lat="37.8028153" lon="12.4451399"><ele>27.000000000000004</ele><time>2026-04-28T09:55:20.68Z</time></trkpt><trkpt lat="37.802836" lon="12.4449971"><ele>27.000000000000004</ele><time>2026-04-28T09:55:22.681Z</time></trkpt><trkpt lat="37.8028534" lon="12.4448613"><ele>27.0</ele><time>2026-04-28T09:55:24.679Z</time></trkpt><trkpt lat="37.8028638" lon="12.4447302"><ele>27.0</ele><time>2026-04-28T09:55:26.681Z</time></trkpt><trkpt lat="37.8028719" lon="12.4446125"><ele>27.0</ele><time>2026-04-28T09:55:28.68Z</time></trkpt><trkpt lat="37.8028901" lon="12.44448"><ele>27.000000000000004</ele><time>2026-04-28T09:55:31.681Z</time></trkpt><trkpt lat="37.8029069" lon="12.4443757"><ele>27.000000000000004</ele><time>2026-04-28T09:55:34.679Z</time></trkpt><trkpt lat="37.802876" lon="12.4442706"><ele>27.0</ele><time>2026-04-28T10:04:27.68Z</time></trkpt><trkpt lat="37.8028924" lon="12.4441426"><ele>27.0</ele><time>2026-04-28T10:04:29.68Z</time></trkpt><trkpt lat="37.8029194" lon="12.4439999"><ele>27.0</ele><time>2026-04-28T10:04:31.679Z</time></trkpt><trkpt lat="37.8029423" lon="12.4438706"><ele>27.000000000000004</ele><time>2026-04-28T10:04:33.68Z</time></trkpt><trkpt lat="37.8029669" lon="12.4437537"><ele>27.000000000000004</ele><time>2026-04-28T10:04:35.68Z</time></trkpt><trkpt lat="37.803015" lon="12.4436475"><ele>27.0</ele><time>2026-04-28T10:04:37.68Z</time></trkpt><trkpt lat="37.803072" lon="12.4435645"><ele>27.0</ele><time>2026-04-28T10:04:39.68Z</time></trkpt><trkpt lat="37.8030899" lon="12.4434691"><ele>27.0</ele><time>2026-04-28T10:04:41.68Z</time></trkpt><trkpt lat="37.8031131" lon="12.4433506"><ele>27.0</ele><time>2026-04-28T10:04:43.68Z</time></trkpt><trkpt lat="37.8031001" lon="12.4432512"><ele>27.0</ele><time>2026-04-28T10:04:45.681Z</time></trkpt><trkpt lat="37.8030856" lon="12.4431545"><ele>27.0</ele><time>2026-04-28T10:04:47.679Z</time></trkpt><trkpt lat="37.8030662" lon="12.443045"><ele>27.0</ele><time>2026-04-28T10:04:49.68Z</time></trkpt><trkpt lat="37.8030449" lon="12.442919"><ele>27.0</ele><time>2026-04-28T10:04:51.679Z</time></trkpt><trkpt lat="37.8030341" lon="12.4427825"><ele>27.200000000000003</ele><time>2026-04-28T10:04:53.68Z</time></trkpt><trkpt lat="37.8030545" lon="12.4426827"><ele>27.400000000000002</ele><time>2026-04-28T10:04:55.679Z</time></trkpt><trkpt lat="37.8031168" lon="12.4425974"><ele>27.599999999999998</ele><time>2026-04-28T10:04:57.68Z</time></trkpt><trkpt lat="37.8032244" lon="12.4425014"><ele>27.799999999999997</ele><time>2026-04-28T10:04:59.679Z</time></trkpt><trkpt lat="37.8033383" lon="12.4423903"><ele>28.0</ele><time>2026-04-28T10:05:01.679Z</time></trkpt><trkpt lat="37.8033948" lon="12.4423301"><ele>28.000000000000004</ele><time>2026-04-28T10:05:02.679Z</time></trkpt><trkpt lat="37.8034598" lon="12.4422552"><ele>28.0</ele><time>2026-04-28T10:05:03.679Z</time></trkpt><trkpt lat="37.8035257" lon="12.4421829"><ele>28.0</ele><time>2026-04-28T10:05:04.68Z</time></trkpt><trkpt lat="37.8035924" lon="12.4421151"><ele>28.0</ele><time>2026-04-28T10:05:05.68Z</time></trkpt><trkpt lat="37.8036582" lon="12.4420503"><ele>28.000000000000004</ele><time>2026-04-28T10:05:06.68Z</time></trkpt><trkpt lat="37.803725" lon="12.4419867"><ele>28.0</ele><time>2026-04-28T10:05:07.68Z</time></trkpt><trkpt lat="37.8037897" lon="12.4419176"><ele>27.166666666666668</ele><time>2026-04-28T10:05:08.679Z</time></trkpt><trkpt lat="37.8038548" lon="12.4418538"><ele>26.333333333333336</ele><time>2026-04-28T10:05:09.681Z</time></trkpt><trkpt lat="37.8039225" lon="12.4417873"><ele>25.5</ele><time>2026-04-28T10:05:10.679Z</time></trkpt><trkpt lat="37.8039895" lon="12.4417202"><ele>24.666666666666668</ele><time>2026-04-28T10:05:11.679Z</time></trkpt><trkpt lat="37.8040585" lon="12.4416498"><ele>23.833333333333336</ele><time>2026-04-28T10:05:12.681Z</time></trkpt><trkpt lat="37.8041335" lon="12.4415829"><ele>23.0</ele><time>2026-04-28T10:05:13.68Z</time></trkpt><trkpt lat="37.8042243" lon="12.4415267"><ele>23.0</ele><time>2026-04-28T10:05:14.68Z</time></trkpt><trkpt lat="37.8042924" lon="12.4414605"><ele>23.0</ele><time>2026-04-28T10:05:15.679Z</time></trkpt><trkpt lat="37.8043601" lon="12.4413957"><ele>23.0</ele><time>2026-04-28T10:05:16.68Z</time></trkpt><trkpt lat="37.8044089" lon="12.4413403"><ele>23.0</ele><time>2026-04-28T10:05:17.681Z</time></trkpt><trkpt lat="37.8044893" lon="12.4412719"><ele>23.0</ele><time>2026-04-28T10:05:19.68Z</time></trkpt><trkpt lat="37.8045587" lon="12.4412693"><ele>23.0</ele><time>2026-04-28T10:05:21.681Z</time></trkpt><trkpt lat="37.8046405" lon="12.4413638"><ele>22.5</ele><time>2026-04-28T10:05:23.679Z</time></trkpt><trkpt lat="37.8046891" lon="12.4414219"><ele>22.0</ele><time>2026-04-28T10:05:24.68Z</time></trkpt><trkpt lat="37.8047351" lon="12.4414848"><ele>21.5</ele><time>2026-04-28T10:05:25.679Z</time></trkpt><trkpt lat="37.8047875" lon="12.4415493"><ele>21.0</ele><time>2026-04-28T10:05:26.681Z</time></trkpt><trkpt lat="37.8048232" lon="12.4416282"><ele>20.5</ele><time>2026-04-28T10:05:27.68Z</time></trkpt><trkpt lat="37.8048411" lon="12.4417664"><ele>20.0</ele><time>2026-04-28T10:05:28.681Z</time></trkpt><trkpt lat="37.8048557" lon="12.4418821"><ele>20.0</ele><time>2026-04-28T10:05:29.68Z</time></trkpt><trkpt lat="37.8048649" lon="12.4420083"><ele>20.0</ele><time>2026-04-28T10:05:30.679Z</time></trkpt><trkpt lat="37.8048744" lon="12.4421349"><ele>20.0</ele><time>2026-04-28T10:05:31.679Z</time></trkpt><trkpt lat="37.8048805" lon="12.4422633"><ele>20.0</ele><time>2026-04-28T10:05:32.68Z</time></trkpt><trkpt lat="37.8048838" lon="12.4423857"><ele>20.0</ele><time>2026-04-28T10:05:33.679Z</time></trkpt><trkpt lat="37.8048814" lon="12.4424992"><ele>19.833333333333336</ele><time>2026-04-28T10:05:34.68Z</time></trkpt><trkpt lat="37.8048887" lon="12.4426035"><ele>19.666666666666668</ele><time>2026-04-28T10:05:35.681Z</time></trkpt><trkpt lat="37.8048945" lon="12.442705"><ele>19.5</ele><time>2026-04-28T10:05:36.68Z</time></trkpt><trkpt lat="37.8048955" lon="12.4428239"><ele>19.333333333333332</ele><time>2026-04-28T10:05:38.679Z</time></trkpt><trkpt lat="37.8048927" lon="12.4429094"><ele>19.166666666666664</ele><time>2026-04-28T10:05:40.68Z</time></trkpt><trkpt lat="37.8049017" lon="12.4429995"><ele>19.0</ele><time>2026-04-28T10:05:42.68Z</time></trkpt><trkpt lat="37.8048959" lon="12.443089"><ele>19.333333333333332</ele><time>2026-04-28T10:05:47.68Z</time></trkpt><trkpt lat="37.8049028" lon="12.4431735"><ele>19.666666666666664</ele><time>2026-04-28T10:05:49.68Z</time></trkpt><trkpt lat="37.804917" lon="12.4433265"><ele>20.0</ele><time>2026-04-28T10:05:51.68Z</time></trkpt><trkpt lat="37.8049215" lon="12.443416"><ele>20.333333333333332</ele><time>2026-04-28T10:05:52.681Z</time></trkpt><trkpt lat="37.8049267" lon="12.443515"><ele>20.666666666666668</ele><time>2026-04-28T10:05:53.681Z</time></trkpt><trkpt lat="37.8049329" lon="12.4436111"><ele>21.0</ele><time>2026-04-28T10:05:54.68Z</time></trkpt><trkpt lat="37.8049358" lon="12.4437054"><ele>21.0</ele><time>2026-04-28T10:05:55.68Z</time></trkpt><trkpt lat="37.8049351" lon="12.4437939"><ele>21.0</ele><time>2026-04-28T10:05:56.68Z</time></trkpt><trkpt lat="37.8049488" lon="12.4438742"><ele>21.0</ele><time>2026-04-28T10:05:57.68Z</time></trkpt><trkpt lat="37.8050132" lon="12.4440019"><ele>21.0</ele><time>2026-04-28T10:05:59.68Z</time></trkpt><trkpt lat="37.8050772" lon="12.4441155"><ele>21.0</ele><time>2026-04-28T10:06:01.679Z</time></trkpt><trkpt lat="37.805092" lon="12.4442003"><ele>21.0</ele><time>2026-04-28T10:06:02.679Z</time></trkpt><trkpt lat="37.8051046" lon="12.444296"><ele>20.8</ele><time>2026-04-28T10:06:03.679Z</time></trkpt><trkpt lat="37.8051327" lon="12.4444"><ele>20.6</ele><time>2026-04-28T10:06:04.68Z</time></trkpt><trkpt lat="37.8051631" lon="12.4445112"><ele>20.4</ele><time>2026-04-28T10:06:05.679Z</time></trkpt><trkpt lat="37.8051956" lon="12.4446289"><ele>20.2</ele><time>2026-04-28T10:06:06.68Z</time></trkpt><trkpt lat="37.8052382" lon="12.4447486"><ele>20.0</ele><time>2026-04-28T10:06:07.68Z</time></trkpt><trkpt lat="37.8052909" lon="12.4448738"><ele>19.25</ele><time>2026-04-28T10:06:08.679Z</time></trkpt><trkpt lat="37.8053664" lon="12.4449948"><ele>18.5</ele><time>2026-04-28T10:06:09.68Z</time></trkpt><trkpt lat="37.8054382" lon="12.4451104"><ele>17.75</ele><time>2026-04-28T10:06:10.68Z</time></trkpt><trkpt lat="37.8055162" lon="12.4452246"><ele>17.0</ele><time>2026-04-28T10:06:11.679Z</time></trkpt><trkpt lat="37.8055836" lon="12.445324"><ele>17.0</ele><time>2026-04-28T10:06:12.679Z</time></trkpt><trkpt lat="37.8056458" lon="12.4454205"><ele>17.0</ele><time>2026-04-28T10:06:13.68Z</time></trkpt><trkpt lat="37.8057092" lon="12.4455162"><ele>17.0</ele><time>2026-04-28T10:06:14.68Z</time></trkpt><trkpt lat="37.8057761" lon="12.4456157"><ele>17.0</ele><time>2026-04-28T10:06:15.68Z</time></trkpt><trkpt lat="37.8058352" lon="12.4457227"><ele>17.0</ele><time>2026-04-28T10:06:16.679Z</time></trkpt><trkpt lat="37.8058912" lon="12.4458363"><ele>17.0</ele><time>2026-04-28T10:06:17.68Z</time></trkpt><trkpt lat="37.8059562" lon="12.4459573"><ele>17.0</ele><time>2026-04-28T10:06:18.68Z</time></trkpt><trkpt lat="37.8060168" lon="12.4460774"><ele>17.0</ele><time>2026-04-28T10:06:19.68Z</time></trkpt><trkpt lat="37.806078" lon="12.4461882"><ele>17.0</ele><time>2026-04-28T10:06:20.679Z</time></trkpt><trkpt lat="37.8061383" lon="12.4463048"><ele>17.0</ele><time>2026-04-28T10:06:21.679Z</time></trkpt><trkpt lat="37.8061929" lon="12.4463976"><ele>17.0</ele><time>2026-04-28T10:06:22.68Z</time></trkpt><trkpt lat="37.8062547" lon="12.4464832"><ele>17.0</ele><time>2026-04-28T10:06:23.679Z</time></trkpt><trkpt lat="37.8063217" lon="12.4465776"><ele>17.0</ele><time>2026-04-28T10:06:24.679Z</time></trkpt><trkpt lat="37.8063774" lon="12.4466623"><ele>17.0</ele><time>2026-04-28T10:06:25.68Z</time></trkpt><trkpt lat="37.806447" lon="12.446735"><ele>17.0</ele><time>2026-04-28T10:06:26.68Z</time></trkpt><trkpt lat="37.8065149" lon="12.4468018"><ele>17.0</ele><time>2026-04-28T10:06:27.68Z</time></trkpt><trkpt lat="37.8065995" lon="12.4468659"><ele>17.0</ele><time>2026-04-28T10:06:28.681Z</time></trkpt><trkpt lat="37.8066744" lon="12.4469253"><ele>17.0</ele><time>2026-04-28T10:06:29.679Z</time></trkpt><trkpt lat="37.8067644" lon="12.4469929"><ele>17.0</ele><time>2026-04-28T10:06:30.68Z</time></trkpt><trkpt lat="37.8068521" lon="12.4470548"><ele>17.0</ele><time>2026-04-28T10:06:31.68Z</time></trkpt><trkpt lat="37.8069485" lon="12.4471222"><ele>16.6</ele><time>2026-04-28T10:06:32.68Z</time></trkpt><trkpt lat="37.8070414" lon="12.4471902"><ele>16.2</ele><time>2026-04-28T10:06:33.679Z</time></trkpt><trkpt lat="37.8071314" lon="12.4472548"><ele>15.8</ele><time>2026-04-28T10:06:34.679Z</time></trkpt><trkpt lat="37.8072289" lon="12.4473146"><ele>15.4</ele><time>2026-04-28T10:06:35.68Z</time></trkpt><trkpt lat="37.8073212" lon="12.4473857"><ele>15.0</ele><time>2026-04-28T10:06:36.679Z</time></trkpt><trkpt lat="37.8074147" lon="12.4474586"><ele>15.0</ele><time>2026-04-28T10:06:37.68Z</time></trkpt><trkpt lat="37.8075139" lon="12.4475266"><ele>15.0</ele><time>2026-04-28T10:06:38.68Z</time></trkpt><trkpt lat="37.80761" lon="12.4475963"><ele>15.0</ele><time>2026-04-28T10:06:39.679Z</time></trkpt><trkpt lat="37.8077015" lon="12.4476556"><ele>15.0</ele><time>2026-04-28T10:06:40.679Z</time></trkpt><trkpt lat="37.8077894" lon="12.4477123"><ele>15.0</ele><time>2026-04-28T10:06:41.679Z</time></trkpt><trkpt lat="37.8078626" lon="12.4477633"><ele>15.2</ele><time>2026-04-28T10:06:42.681Z</time></trkpt><trkpt lat="37.8079208" lon="12.4478027"><ele>15.4</ele><time>2026-04-28T10:06:43.679Z</time></trkpt><trkpt lat="37.8080282" lon="12.4478535"><ele>15.600000000000001</ele><time>2026-04-28T10:06:45.679Z</time></trkpt><trkpt lat="37.8081233" lon="12.4479051"><ele>15.8</ele><time>2026-04-28T10:06:47.68Z</time></trkpt><trkpt lat="37.8082561" lon="12.4479584"><ele>16.0</ele><time>2026-04-28T10:06:49.679Z</time></trkpt><trkpt lat="37.8083482" lon="12.4479956"><ele>16.0</ele><time>2026-04-28T10:06:50.679Z</time></trkpt><trkpt lat="37.8084598" lon="12.4480416"><ele>16.0</ele><time>2026-04-28T10:06:51.679Z</time></trkpt><trkpt lat="37.8085852" lon="12.4481023"><ele>16.0</ele><time>2026-04-28T10:06:52.68Z</time></trkpt><trkpt lat="37.8087072" lon="12.4481672"><ele>16.0</ele><time>2026-04-28T10:06:53.679Z</time></trkpt><trkpt lat="37.808835" lon="12.4482427"><ele>15.25</ele><time>2026-04-28T10:06:54.681Z</time></trkpt><trkpt lat="37.8089605" lon="12.4483092"><ele>14.5</ele><time>2026-04-28T10:06:55.68Z</time></trkpt><trkpt lat="37.809089" lon="12.4483654"><ele>13.75</ele><time>2026-04-28T10:06:56.679Z</time></trkpt><trkpt lat="37.8091977" lon="12.4484206"><ele>13.0</ele><time>2026-04-28T10:06:57.68Z</time></trkpt><trkpt lat="37.8092952" lon="12.4484699"><ele>12.333333333333332</ele><time>2026-04-28T10:06:58.68Z</time></trkpt><trkpt lat="37.8093726" lon="12.4485077"><ele>11.666666666666666</ele><time>2026-04-28T10:06:59.679Z</time></trkpt><trkpt lat="37.8094377" lon="12.4485585"><ele>11.0</ele><time>2026-04-28T10:07:00.679Z</time></trkpt><trkpt lat="37.8094941" lon="12.4486305"><ele>10.333333333333332</ele><time>2026-04-28T10:07:01.679Z</time></trkpt><trkpt lat="37.8095623" lon="12.4487229"><ele>9.666666666666666</ele><time>2026-04-28T10:07:02.679Z</time></trkpt><trkpt lat="37.8096271" lon="12.4488347"><ele>9.0</ele><time>2026-04-28T10:07:03.68Z</time></trkpt><trkpt lat="37.8096839" lon="12.4489688"><ele>8.75</ele><time>2026-04-28T10:07:04.681Z</time></trkpt><trkpt lat="37.8097375" lon="12.4491263"><ele>8.5</ele><time>2026-04-28T10:07:05.68Z</time></trkpt><trkpt lat="37.8097857" lon="12.4492906"><ele>8.25</ele><time>2026-04-28T10:07:06.68Z</time></trkpt><trkpt lat="37.8098359" lon="12.4494571"><ele>8.0</ele><time>2026-04-28T10:07:07.68Z</time></trkpt><trkpt lat="37.8098696" lon="12.4496373"><ele>9.0</ele><time>2026-04-28T10:07:08.68Z</time></trkpt><trkpt lat="37.8098881" lon="12.4498302"><ele>10.0</ele><time>2026-04-28T10:07:09.68Z</time></trkpt><trkpt lat="37.8098832" lon="12.4500454"><ele>11.0</ele><time>2026-04-28T10:07:10.679Z</time></trkpt><trkpt lat="37.8098818" lon="12.4502623"><ele>11.666666666666666</ele><time>2026-04-28T10:07:11.679Z</time></trkpt><trkpt lat="37.8098881" lon="12.4504789"><ele>12.333333333333332</ele><time>2026-04-28T10:07:12.681Z</time></trkpt><trkpt lat="37.8098899" lon="12.4506937"><ele>13.0</ele><time>2026-04-28T10:07:13.68Z</time></trkpt><trkpt lat="37.8098972" lon="12.4509096"><ele>13.0</ele><time>2026-04-28T10:07:14.679Z</time></trkpt><trkpt lat="37.8099042" lon="12.4511058"><ele>13.0</ele><time>2026-04-28T10:07:15.68Z</time></trkpt><trkpt lat="37.8099223" lon="12.4512823"><ele>13.0</ele><time>2026-04-28T10:07:16.681Z</time></trkpt><trkpt lat="37.8099513" lon="12.4514368"><ele>13.0</ele><time>2026-04-28T10:07:17.68Z</time></trkpt><trkpt lat="37.8099966" lon="12.4515879"><ele>12.75</ele><time>2026-04-28T10:07:18.68Z</time></trkpt><trkpt lat="37.8100642" lon="12.4517374"><ele>12.5</ele><time>2026-04-28T10:07:19.679Z</time></trkpt><trkpt lat="37.8101433" lon="12.4518944"><ele>12.25</ele><time>2026-04-28T10:07:20.679Z</time></trkpt><trkpt lat="37.8102272" lon="12.4520648"><ele>12.0</ele><time>2026-04-28T10:07:21.681Z</time></trkpt><trkpt lat="37.8103214" lon="12.4522446"><ele>11.666666666666666</ele><time>2026-04-28T10:07:22.679Z</time></trkpt><trkpt lat="37.8104214" lon="12.452435"><ele>11.333333333333332</ele><time>2026-04-28T10:07:23.68Z</time></trkpt><trkpt lat="37.8105217" lon="12.4526453"><ele>11.0</ele><time>2026-04-28T10:07:24.681Z</time></trkpt><trkpt lat="37.8106187" lon="12.4528603"><ele>11.0</ele><time>2026-04-28T10:07:25.68Z</time></trkpt><trkpt lat="37.8107224" lon="12.4530705"><ele>11.0</ele><time>2026-04-28T10:07:26.679Z</time></trkpt><trkpt lat="37.810835" lon="12.4532862"><ele>11.0</ele><time>2026-04-28T10:07:27.68Z</time></trkpt><trkpt lat="37.810949" lon="12.4535149"><ele>10.333333333333332</ele><time>2026-04-28T10:07:28.681Z</time></trkpt><trkpt lat="37.8110578" lon="12.4537409"><ele>9.666666666666666</ele><time>2026-04-28T10:07:29.68Z</time></trkpt><trkpt lat="37.8111706" lon="12.4539596"><ele>9.0</ele><time>2026-04-28T10:07:30.68Z</time></trkpt><trkpt lat="37.8112791" lon="12.454175"><ele>8.333333333333334</ele><time>2026-04-28T10:07:31.679Z</time></trkpt><trkpt lat="37.8113878" lon="12.4543956"><ele>7.666666666666667</ele><time>2026-04-28T10:07:32.68Z</time></trkpt><trkpt lat="37.8115013" lon="12.4546165"><ele>7.0</ele><time>2026-04-28T10:07:33.681Z</time></trkpt><trkpt lat="37.8116116" lon="12.4548415"><ele>6.666666666666667</ele><time>2026-04-28T10:07:34.679Z</time></trkpt><trkpt lat="37.8117198" lon="12.4550566"><ele>6.333333333333334</ele><time>2026-04-28T10:07:35.68Z</time></trkpt><trkpt lat="37.8118289" lon="12.4552758"><ele>6.0</ele><time>2026-04-28T10:07:36.68Z</time></trkpt><trkpt lat="37.8119348" lon="12.455496"><ele>5.666666666666667</ele><time>2026-04-28T10:07:37.68Z</time></trkpt><trkpt lat="37.8120466" lon="12.4557254"><ele>5.333333333333334</ele><time>2026-04-28T10:07:38.681Z</time></trkpt><trkpt lat="37.8121503" lon="12.455943"><ele>5.0</ele><time>2026-04-28T10:07:39.68Z</time></trkpt><trkpt lat="37.8122504" lon="12.4561458"><ele>5.333333333333334</ele><time>2026-04-28T10:07:40.679Z</time></trkpt><trkpt lat="37.8123429" lon="12.4563385"><ele>5.666666666666667</ele><time>2026-04-28T10:07:41.679Z</time></trkpt><trkpt lat="37.8124277" lon="12.4565095"><ele>6.0</ele><time>2026-04-28T10:07:42.679Z</time></trkpt><trkpt lat="37.8125226" lon="12.4566591"><ele>6.0</ele><time>2026-04-28T10:07:43.68Z</time></trkpt><trkpt lat="37.8126355" lon="12.4567872"><ele>6.0</ele><time>2026-04-28T10:07:44.679Z</time></trkpt><trkpt lat="37.8127629" lon="12.4569051"><ele>6.0</ele><time>2026-04-28T10:07:45.679Z</time></trkpt><trkpt lat="37.8129016" lon="12.4570295"><ele>5.666666666666667</ele><time>2026-04-28T10:07:46.679Z</time></trkpt><trkpt lat="37.8130547" lon="12.4571589"><ele>5.333333333333334</ele><time>2026-04-28T10:07:47.68Z</time></trkpt><trkpt lat="37.8132062" lon="12.4572912"><ele>5.0</ele><time>2026-04-28T10:07:48.679Z</time></trkpt><trkpt lat="37.8133438" lon="12.4574132"><ele>5.0</ele><time>2026-04-28T10:07:49.68Z</time></trkpt><trkpt lat="37.813473" lon="12.4575309"><ele>5.0</ele><time>2026-04-28T10:07:50.679Z</time></trkpt><trkpt lat="37.8135951" lon="12.4576425"><ele>5.0</ele><time>2026-04-28T10:07:51.679Z</time></trkpt><trkpt lat="37.8137169" lon="12.4577524"><ele>4.5</ele><time>2026-04-28T10:07:52.68Z</time></trkpt><trkpt lat="37.8138408" lon="12.4578627"><ele>4.0</ele><time>2026-04-28T10:07:53.679Z</time></trkpt><trkpt lat="37.8139575" lon="12.4579708"><ele>3.5</ele><time>2026-04-28T10:07:54.68Z</time></trkpt><trkpt lat="37.8140828" lon="12.4580758"><ele>3.0</ele><time>2026-04-28T10:07:55.68Z</time></trkpt><trkpt lat="37.8142082" lon="12.4581869"><ele>2.3333333333333335</ele><time>2026-04-28T10:07:56.68Z</time></trkpt><trkpt lat="37.8143336" lon="12.458294"><ele>1.6666666666666665</ele><time>2026-04-28T10:07:57.681Z</time></trkpt><trkpt lat="37.814466" lon="12.4584044"><ele>1.0</ele><time>2026-04-28T10:07:58.679Z</time></trkpt><trkpt lat="37.8146127" lon="12.4585161"><ele>1.0</ele><time>2026-04-28T10:07:59.679Z</time></trkpt><trkpt lat="37.8147501" lon="12.4586346"><ele>1.0</ele><time>2026-04-28T10:08:00.68Z</time></trkpt><trkpt lat="37.8148842" lon="12.4587565"><ele>1.0</ele><time>2026-04-28T10:08:01.679Z</time></trkpt><trkpt lat="37.8150072" lon="12.4588729"><ele>1.75</ele><time>2026-04-28T10:08:02.679Z</time></trkpt><trkpt lat="37.8151169" lon="12.4589853"><ele>2.5</ele><time>2026-04-28T10:08:03.679Z</time></trkpt><trkpt lat="37.8152164" lon="12.4591139"><ele>3.25</ele><time>2026-04-28T10:08:04.68Z</time></trkpt><trkpt lat="37.8152951" lon="12.4592415"><ele>4.0</ele><time>2026-04-28T10:08:05.679Z</time></trkpt><trkpt lat="37.8153623" lon="12.4593668"><ele>4.0</ele><time>2026-04-28T10:08:06.679Z</time></trkpt><trkpt lat="37.8154274" lon="12.4594947"><ele>4.0</ele><time>2026-04-28T10:08:07.679Z</time></trkpt><trkpt lat="37.8154902" lon="12.4596292"><ele>4.0</ele><time>2026-04-28T10:08:08.681Z</time></trkpt><trkpt lat="37.8155422" lon="12.4597556"><ele>4.0</ele><time>2026-04-28T10:08:09.68Z</time></trkpt><trkpt lat="37.8155922" lon="12.4598794"><ele>4.0</ele><time>2026-04-28T10:08:10.679Z</time></trkpt><trkpt lat="37.8156325" lon="12.4600085"><ele>4.0</ele><time>2026-04-28T10:08:11.68Z</time></trkpt><trkpt lat="37.8156614" lon="12.4601353"><ele>4.0</ele><time>2026-04-28T10:08:12.679Z</time></trkpt><trkpt lat="37.8156797" lon="12.4602617"><ele>4.0</ele><time>2026-04-28T10:08:13.679Z</time></trkpt><trkpt lat="37.8156897" lon="12.4603938"><ele>4.0</ele><time>2026-04-28T10:08:14.679Z</time></trkpt><trkpt lat="37.815698" lon="12.4605384"><ele>4.0</ele><time>2026-04-28T10:08:15.68Z</time></trkpt><trkpt lat="37.8157059" lon="12.4606909"><ele>4.0</ele><time>2026-04-28T10:08:16.68Z</time></trkpt><trkpt lat="37.8157178" lon="12.4608525"><ele>4.0</ele><time>2026-04-28T10:08:17.68Z</time></trkpt><trkpt lat="37.8157331" lon="12.4610157"><ele>4.0</ele><time>2026-04-28T10:08:18.68Z</time></trkpt><trkpt lat="37.8157532" lon="12.4611988"><ele>3.6666666666666665</ele><time>2026-04-28T10:08:19.68Z</time></trkpt><trkpt lat="37.8157631" lon="12.4613946"><ele>3.333333333333333</ele><time>2026-04-28T10:08:20.68Z</time></trkpt><trkpt lat="37.8157752" lon="12.4616128"><ele>3.0</ele><time>2026-04-28T10:08:21.682Z</time></trkpt><trkpt lat="37.8157843" lon="12.4618319"><ele>3.0</ele><time>2026-04-28T10:08:22.679Z</time></trkpt><trkpt lat="37.8158041" lon="12.4620524"><ele>3.0</ele><time>2026-04-28T10:08:23.68Z</time></trkpt><trkpt lat="37.8158428" lon="12.4622747"><ele>3.0</ele><time>2026-04-28T10:08:24.679Z</time></trkpt><trkpt lat="37.8159069" lon="12.4624943"><ele>3.0</ele><time>2026-04-28T10:08:25.68Z</time></trkpt><trkpt lat="37.8159858" lon="12.4627036"><ele>3.0</ele><time>2026-04-28T10:08:26.68Z</time></trkpt><trkpt lat="37.8160704" lon="12.4629115"><ele>3.0</ele><time>2026-04-28T10:08:27.68Z</time></trkpt><trkpt lat="37.8161603" lon="12.4630996"><ele>3.5</ele><time>2026-04-28T10:08:28.679Z</time></trkpt><trkpt lat="37.8163082" lon="12.4634619"><ele>4.0</ele><time>2026-04-28T10:08:30.679Z</time></trkpt><trkpt lat="37.8163515" lon="12.4636597"><ele>4.333333333333333</ele><time>2026-04-28T10:08:31.679Z</time></trkpt><trkpt lat="37.8163703" lon="12.4638697"><ele>4.666666666666667</ele><time>2026-04-28T10:08:32.679Z</time></trkpt><trkpt lat="37.8163882" lon="12.4640845"><ele>5.0</ele><time>2026-04-28T10:08:33.68Z</time></trkpt><trkpt lat="37.8164226" lon="12.4642845"><ele>5.0</ele><time>2026-04-28T10:08:34.679Z</time></trkpt><trkpt lat="37.8164787" lon="12.4644706"><ele>5.0</ele><time>2026-04-28T10:08:35.68Z</time></trkpt><trkpt lat="37.8165569" lon="12.4646443"><ele>5.0</ele><time>2026-04-28T10:08:36.68Z</time></trkpt><trkpt lat="37.8166576" lon="12.4647991"><ele>4.666666666666667</ele><time>2026-04-28T10:08:37.68Z</time></trkpt><trkpt lat="37.8167739" lon="12.4649292"><ele>4.333333333333333</ele><time>2026-04-28T10:08:38.681Z</time></trkpt><trkpt lat="37.8169042" lon="12.4650484"><ele>4.0</ele><time>2026-04-28T10:08:39.68Z</time></trkpt><trkpt lat="37.8170431" lon="12.465148"><ele>3.6666666666666665</ele><time>2026-04-28T10:08:40.679Z</time></trkpt><trkpt lat="37.8171861" lon="12.4652299"><ele>3.333333333333333</ele><time>2026-04-28T10:08:41.679Z</time></trkpt><trkpt lat="37.8173368" lon="12.4652887"><ele>3.0</ele><time>2026-04-28T10:08:42.68Z</time></trkpt><trkpt lat="37.8174924" lon="12.465318"><ele>3.0</ele><time>2026-04-28T10:08:43.68Z</time></trkpt><trkpt lat="37.8176323" lon="12.4653144"><ele>3.0</ele><time>2026-04-28T10:08:44.679Z</time></trkpt><trkpt lat="37.817766" lon="12.4652756"><ele>3.0</ele><time>2026-04-28T10:08:45.68Z</time></trkpt><trkpt lat="37.817892" lon="12.4651992"><ele>3.0</ele><time>2026-04-28T10:08:46.679Z</time></trkpt><trkpt lat="37.8180112" lon="12.4650971"><ele>3.0</ele><time>2026-04-28T10:08:47.679Z</time></trkpt><trkpt lat="37.8181315" lon="12.4650281"><ele>3.0</ele><time>2026-04-28T10:08:48.68Z</time></trkpt><trkpt lat="37.8182579" lon="12.464988"><ele>3.0</ele><time>2026-04-28T10:08:49.679Z</time></trkpt><trkpt lat="37.8183894" lon="12.4650005"><ele>3.0</ele><time>2026-04-28T10:08:50.68Z</time></trkpt><trkpt lat="37.8185305" lon="12.4650401"><ele>2.3333333333333335</ele><time>2026-04-28T10:08:51.679Z</time></trkpt><trkpt lat="37.8186806" lon="12.4650912"><ele>1.6666666666666665</ele><time>2026-04-28T10:08:52.68Z</time></trkpt><trkpt lat="37.818845" lon="12.4651547"><ele>1.0</ele><time>2026-04-28T10:08:53.679Z</time></trkpt><trkpt lat="37.8190124" lon="12.4652091"><ele>1.0</ele><time>2026-04-28T10:08:54.679Z</time></trkpt><trkpt lat="37.8191802" lon="12.4652745"><ele>1.0</ele><time>2026-04-28T10:08:55.68Z</time></trkpt><trkpt lat="37.8193398" lon="12.4653454"><ele>1.0</ele><time>2026-04-28T10:08:56.679Z</time></trkpt><trkpt lat="37.8194904" lon="12.4654462"><ele>1.3333333333333333</ele><time>2026-04-28T10:08:57.68Z</time></trkpt><trkpt lat="37.8196274" lon="12.4655886"><ele>1.6666666666666665</ele><time>2026-04-28T10:08:58.679Z</time></trkpt><trkpt lat="37.8197607" lon="12.465767"><ele>2.0</ele><time>2026-04-28T10:08:59.679Z</time></trkpt><trkpt lat="37.8198798" lon="12.4659526"><ele>2.0</ele><time>2026-04-28T10:09:00.68Z</time></trkpt><trkpt lat="37.8199978" lon="12.4661433"><ele>2.0</ele><time>2026-04-28T10:09:01.679Z</time></trkpt><trkpt lat="37.8201097" lon="12.4663383"><ele>2.0</ele><time>2026-04-28T10:09:02.68Z</time></trkpt><trkpt lat="37.8202104" lon="12.4665174"><ele>2.5</ele><time>2026-04-28T10:09:03.679Z</time></trkpt><trkpt lat="37.8203094" lon="12.4666808"><ele>3.0</ele><time>2026-04-28T10:09:04.681Z</time></trkpt><trkpt lat="37.8204141" lon="12.4668117"><ele>3.5</ele><time>2026-04-28T10:09:05.68Z</time></trkpt><trkpt lat="37.82053" lon="12.4669081"><ele>4.0</ele><time>2026-04-28T10:09:06.679Z</time></trkpt><trkpt lat="37.8206529" lon="12.4669766"><ele>4.0</ele><time>2026-04-28T10:09:07.679Z</time></trkpt><trkpt lat="37.8209349" lon="12.4670498"><ele>4.0</ele><time>2026-04-28T10:09:09.679Z</time></trkpt><trkpt lat="37.821094" lon="12.4670291"><ele>4.0</ele><time>2026-04-28T10:09:10.679Z</time></trkpt><trkpt lat="37.821257" lon="12.4669754"><ele>3.6666666666666665</ele><time>2026-04-28T10:09:11.679Z</time></trkpt><trkpt lat="37.8214155" lon="12.4669114"><ele>3.333333333333333</ele><time>2026-04-28T10:09:12.68Z</time></trkpt><trkpt lat="37.8215744" lon="12.4668612"><ele>3.0</ele><time>2026-04-28T10:09:13.68Z</time></trkpt><trkpt lat="37.821736" lon="12.4668411"><ele>2.6666666666666665</ele><time>2026-04-28T10:09:14.68Z</time></trkpt><trkpt lat="37.8219004" lon="12.4668488"><ele>2.333333333333333</ele><time>2026-04-28T10:09:15.68Z</time></trkpt><trkpt lat="37.8220766" lon="12.4668748"><ele>2.0</ele><time>2026-04-28T10:09:16.68Z</time></trkpt><trkpt lat="37.8222468" lon="12.4669073"><ele>2.0</ele><time>2026-04-28T10:09:17.68Z</time></trkpt><trkpt lat="37.8224197" lon="12.466966"><ele>2.0</ele><time>2026-04-28T10:09:18.68Z</time></trkpt><trkpt lat="37.8225873" lon="12.4670499"><ele>2.0</ele><time>2026-04-28T10:09:19.679Z</time></trkpt><trkpt lat="37.8227535" lon="12.4671584"><ele>2.333333333333333</ele><time>2026-04-28T10:09:20.68Z</time></trkpt><trkpt lat="37.822915" lon="12.4672737"><ele>2.6666666666666665</ele><time>2026-04-28T10:09:21.679Z</time></trkpt><trkpt lat="37.8230772" lon="12.4673984"><ele>3.0</ele><time>2026-04-28T10:09:22.679Z</time></trkpt><trkpt lat="37.8232462" lon="12.4675292"><ele>3.0</ele><time>2026-04-28T10:09:23.68Z</time></trkpt><trkpt lat="37.823414" lon="12.467649"><ele>3.0</ele><time>2026-04-28T10:09:24.679Z</time></trkpt><trkpt lat="37.8235858" lon="12.4677708"><ele>3.0</ele><time>2026-04-28T10:09:25.679Z</time></trkpt><trkpt lat="37.8237593" lon="12.4678761"><ele>3.0</ele><time>2026-04-28T10:09:26.68Z</time></trkpt><trkpt lat="37.823945" lon="12.4679723"><ele>3.0</ele><time>2026-04-28T10:09:27.679Z</time></trkpt><trkpt lat="37.8241263" lon="12.4680709"><ele>3.0</ele><time>2026-04-28T10:09:28.679Z</time></trkpt><trkpt lat="37.8243123" lon="12.4681647"><ele>3.0</ele><time>2026-04-28T10:09:29.68Z</time></trkpt><trkpt lat="37.8245022" lon="12.468265"><ele>3.0</ele><time>2026-04-28T10:09:30.68Z</time></trkpt><trkpt lat="37.8246822" lon="12.4683593"><ele>3.0</ele><time>2026-04-28T10:09:31.679Z</time></trkpt><trkpt lat="37.8248562" lon="12.4684499"><ele>3.0</ele><time>2026-04-28T10:09:32.679Z</time></trkpt><trkpt lat="37.8250331" lon="12.46853"><ele>3.0</ele><time>2026-04-28T10:09:33.679Z</time></trkpt><trkpt lat="37.8251999" lon="12.4686135"><ele>3.0</ele><time>2026-04-28T10:09:34.681Z</time></trkpt><trkpt lat="37.8253593" lon="12.468694"><ele>2.25</ele><time>2026-04-28T10:09:35.679Z</time></trkpt><trkpt lat="37.8255054" lon="12.4687665"><ele>1.5</ele><time>2026-04-28T10:09:36.68Z</time></trkpt><trkpt lat="37.8256412" lon="12.4688373"><ele>0.75</ele><time>2026-04-28T10:09:37.68Z</time></trkpt><trkpt lat="37.8257681" lon="12.4688964"><ele>0.0</ele><time>2026-04-28T10:09:38.68Z</time></trkpt><trkpt lat="37.8258808" lon="12.4689469"><ele>0.0</ele><time>2026-04-28T10:09:39.68Z</time></trkpt><trkpt lat="37.8259908" lon="12.4689664"><ele>0.0</ele><time>2026-04-28T10:09:40.68Z</time></trkpt><trkpt lat="37.8261054" lon="12.4689708"><ele>0.0</ele><time>2026-04-28T10:09:41.679Z</time></trkpt><trkpt lat="37.8262217" lon="12.4689349"><ele>0.0</ele><time>2026-04-28T10:09:42.68Z</time></trkpt><trkpt lat="37.8263403" lon="12.4689005"><ele>0.0</ele><time>2026-04-28T10:09:43.68Z</time></trkpt><trkpt lat="37.8264592" lon="12.4688717"><ele>0.0</ele><time>2026-04-28T10:09:44.679Z</time></trkpt><trkpt lat="37.8265794" lon="12.4688488"><ele>0.0</ele><time>2026-04-28T10:09:45.679Z</time></trkpt><trkpt lat="37.8267061" lon="12.4688297"><ele>0.0</ele><time>2026-04-28T10:09:46.68Z</time></trkpt><trkpt lat="37.8268384" lon="12.4688135"><ele>0.5</ele><time>2026-04-28T10:09:47.68Z</time></trkpt><trkpt lat="37.8269701" lon="12.4688006"><ele>1.0</ele><time>2026-04-28T10:09:48.681Z</time></trkpt><trkpt lat="37.8271049" lon="12.4687898"><ele>1.5</ele><time>2026-04-28T10:09:49.681Z</time></trkpt><trkpt lat="37.8272385" lon="12.4687841"><ele>2.0</ele><time>2026-04-28T10:09:50.681Z</time></trkpt><trkpt lat="37.8273729" lon="12.4687866"><ele>2.0</ele><time>2026-04-28T10:09:51.679Z</time></trkpt><trkpt lat="37.8275113" lon="12.4687851"><ele>2.0</ele><time>2026-04-28T10:09:52.679Z</time></trkpt><trkpt lat="37.8276491" lon="12.4687891"><ele>2.0</ele><time>2026-04-28T10:09:53.679Z</time></trkpt><trkpt lat="37.8277838" lon="12.4687921"><ele>2.0</ele><time>2026-04-28T10:09:54.679Z</time></trkpt><trkpt lat="37.8279241" lon="12.4687978"><ele>1.75</ele><time>2026-04-28T10:09:55.682Z</time></trkpt><trkpt lat="37.8280556" lon="12.4688017"><ele>1.5</ele><time>2026-04-28T10:09:56.681Z</time></trkpt><trkpt lat="37.82819" lon="12.4687967"><ele>1.25</ele><time>2026-04-28T10:09:57.68Z</time></trkpt><trkpt lat="37.8283317" lon="12.4687847"><ele>1.0</ele><time>2026-04-28T10:09:58.68Z</time></trkpt><trkpt lat="37.8284758" lon="12.4687763"><ele>2.0</ele><time>2026-04-28T10:09:59.679Z</time></trkpt><trkpt lat="37.8286162" lon="12.4687612"><ele>3.0</ele><time>2026-04-28T10:10:00.679Z</time></trkpt><trkpt lat="37.8287622" lon="12.4687327"><ele>4.0</ele><time>2026-04-28T10:10:01.679Z</time></trkpt><trkpt lat="37.828905" lon="12.4686825"><ele>5.0</ele><time>2026-04-28T10:10:02.679Z</time></trkpt><trkpt lat="37.8290435" lon="12.468615"><ele>5.0</ele><time>2026-04-28T10:10:03.681Z</time></trkpt><trkpt lat="37.8291729" lon="12.4685361"><ele>5.0</ele><time>2026-04-28T10:10:04.68Z</time></trkpt><trkpt lat="37.8293023" lon="12.4684496"><ele>5.0</ele><time>2026-04-28T10:10:05.681Z</time></trkpt><trkpt lat="37.8294319" lon="12.4683572"><ele>5.0</ele><time>2026-04-28T10:10:06.679Z</time></trkpt><trkpt lat="37.8295481" lon="12.4682613"><ele>4.5</ele><time>2026-04-28T10:10:07.68Z</time></trkpt><trkpt lat="37.8296676" lon="12.4681864"><ele>4.0</ele><time>2026-04-28T10:10:08.679Z</time></trkpt><trkpt lat="37.8297995" lon="12.4681477"><ele>3.5</ele><time>2026-04-28T10:10:09.68Z</time></trkpt><trkpt lat="37.8299408" lon="12.4681333"><ele>3.0</ele><time>2026-04-28T10:10:10.68Z</time></trkpt><trkpt lat="37.8300897" lon="12.4681443"><ele>2.75</ele><time>2026-04-28T10:10:11.68Z</time></trkpt><trkpt lat="37.8302302" lon="12.4681597"><ele>2.5</ele><time>2026-04-28T10:10:12.679Z</time></trkpt><trkpt lat="37.830369" lon="12.468171"><ele>2.25</ele><time>2026-04-28T10:10:13.68Z</time></trkpt><trkpt lat="37.8305121" lon="12.4681842"><ele>2.0</ele><time>2026-04-28T10:10:14.679Z</time></trkpt><trkpt lat="37.8306492" lon="12.4681995"><ele>2.0</ele><time>2026-04-28T10:10:15.68Z</time></trkpt><trkpt lat="37.8307872" lon="12.4682091"><ele>2.0</ele><time>2026-04-28T10:10:16.68Z</time></trkpt><trkpt lat="37.8309269" lon="12.468227"><ele>2.0</ele><time>2026-04-28T10:10:17.68Z</time></trkpt><trkpt lat="37.8310696" lon="12.4682331"><ele>2.0</ele><time>2026-04-28T10:10:18.68Z</time></trkpt><trkpt lat="37.8312166" lon="12.4682432"><ele>2.0</ele><time>2026-04-28T10:10:19.679Z</time></trkpt><trkpt lat="37.8313638" lon="12.4682522"><ele>2.0</ele><time>2026-04-28T10:10:20.68Z</time></trkpt><trkpt lat="37.8315073" lon="12.4682666"><ele>2.0</ele><time>2026-04-28T10:10:21.68Z</time></trkpt><trkpt lat="37.831649" lon="12.4682805"><ele>2.0</ele><time>2026-04-28T10:10:22.682Z</time></trkpt><trkpt lat="37.8317949" lon="12.4682916"><ele>1.75</ele><time>2026-04-28T10:10:23.68Z</time></trkpt><trkpt lat="37.8319413" lon="12.4683074"><ele>1.5</ele><time>2026-04-28T10:10:24.68Z</time></trkpt><trkpt lat="37.83209" lon="12.4683193"><ele>1.25</ele><time>2026-04-28T10:10:25.681Z</time></trkpt><trkpt lat="37.8322404" lon="12.4683297"><ele>1.0</ele><time>2026-04-28T10:10:26.679Z</time></trkpt><trkpt lat="37.8323886" lon="12.4683405"><ele>1.0</ele><time>2026-04-28T10:10:27.68Z</time></trkpt><trkpt lat="37.8325335" lon="12.468351"><ele>1.0</ele><time>2026-04-28T10:10:28.681Z</time></trkpt><trkpt lat="37.8326879" lon="12.468358"><ele>1.0</ele><time>2026-04-28T10:10:29.679Z</time></trkpt><trkpt lat="37.8328401" lon="12.4683728"><ele>1.0</ele><time>2026-04-28T10:10:30.679Z</time></trkpt><trkpt lat="37.8329946" lon="12.4683836"><ele>1.0</ele><time>2026-04-28T10:10:31.679Z</time></trkpt><trkpt lat="37.8331534" lon="12.4684019"><ele>1.0</ele><time>2026-04-28T10:10:32.68Z</time></trkpt><trkpt lat="37.8333044" lon="12.4684113"><ele>1.0</ele><time>2026-04-28T10:10:33.679Z</time></trkpt><trkpt lat="37.8334538" lon="12.4684258"><ele>1.0</ele><time>2026-04-28T10:10:34.679Z</time></trkpt><trkpt lat="37.8336049" lon="12.4684559"><ele>1.0</ele><time>2026-04-28T10:10:35.681Z</time></trkpt><trkpt lat="37.8337486" lon="12.4684928"><ele>1.0</ele><time>2026-04-28T10:10:36.68Z</time></trkpt><trkpt lat="37.8338914" lon="12.4685386"><ele>1.0</ele><time>2026-04-28T10:10:37.68Z</time></trkpt><trkpt lat="37.834033" lon="12.4685888"><ele>1.0</ele><time>2026-04-28T10:10:38.68Z</time></trkpt><trkpt lat="37.834178" lon="12.4686364"><ele>1.0</ele><time>2026-04-28T10:10:39.679Z</time></trkpt><trkpt lat="37.8343142" lon="12.4686823"><ele>1.0</ele><time>2026-04-28T10:10:40.68Z</time></trkpt><trkpt lat="37.8344414" lon="12.4687263"><ele>1.0</ele><time>2026-04-28T10:10:41.679Z</time></trkpt><trkpt lat="37.83457" lon="12.4687641"><ele>1.0</ele><time>2026-04-28T10:10:42.68Z</time></trkpt><trkpt lat="37.8346953" lon="12.4687999"><ele>1.0</ele><time>2026-04-28T10:10:43.679Z</time></trkpt><trkpt lat="37.8348175" lon="12.4688255"><ele>1.0</ele><time>2026-04-28T10:10:44.68Z</time></trkpt><trkpt lat="37.8349453" lon="12.4688519"><ele>0.75</ele><time>2026-04-28T10:10:45.681Z</time></trkpt><trkpt lat="37.8350843" lon="12.4688713"><ele>0.5</ele><time>2026-04-28T10:10:46.679Z</time></trkpt><trkpt lat="37.8352231" lon="12.4688911"><ele>0.25</ele><time>2026-04-28T10:10:47.679Z</time></trkpt><trkpt lat="37.8353542" lon="12.4689194"><ele>0.0</ele><time>2026-04-28T10:10:48.679Z</time></trkpt><trkpt lat="37.8354876" lon="12.4689423"><ele>1.0</ele><time>2026-04-28T10:10:49.679Z</time></trkpt><trkpt lat="37.8356098" lon="12.468957"><ele>2.0</ele><time>2026-04-28T10:10:50.679Z</time></trkpt><trkpt lat="37.8357243" lon="12.468951"><ele>3.0</ele><time>2026-04-28T10:10:51.68Z</time></trkpt><trkpt lat="37.8358387" lon="12.4689323"><ele>4.0</ele><time>2026-04-28T10:10:52.679Z</time></trkpt><trkpt lat="37.8359569" lon="12.4688937"><ele>4.2</ele><time>2026-04-28T10:10:53.68Z</time></trkpt><trkpt lat="37.8360702" lon="12.4688507"><ele>4.4</ele><time>2026-04-28T10:10:54.679Z</time></trkpt><trkpt lat="37.8361768" lon="12.4688036"><ele>4.6</ele><time>2026-04-28T10:10:55.679Z</time></trkpt><trkpt lat="37.8362771" lon="12.4687361"><ele>4.8</ele><time>2026-04-28T10:10:56.681Z</time></trkpt><trkpt lat="37.8363564" lon="12.4686518"><ele>5.0</ele><time>2026-04-28T10:10:57.68Z</time></trkpt><trkpt lat="37.8364262" lon="12.4685496"><ele>5.2</ele><time>2026-04-28T10:10:58.681Z</time></trkpt><trkpt lat="37.8364858" lon="12.4684447"><ele>5.4</ele><time>2026-04-28T10:10:59.679Z</time></trkpt><trkpt lat="37.8365409" lon="12.4683291"><ele>5.6</ele><time>2026-04-28T10:11:00.68Z</time></trkpt><trkpt lat="37.8366119" lon="12.4682266"><ele>5.8</ele><time>2026-04-28T10:11:01.68Z</time></trkpt><trkpt lat="37.8367016" lon="12.4681517"><ele>6.0</ele><time>2026-04-28T10:11:02.68Z</time></trkpt><trkpt lat="37.8368141" lon="12.4680978"><ele>6.0</ele><time>2026-04-28T10:11:03.681Z</time></trkpt><trkpt lat="37.8369304" lon="12.4680867"><ele>6.0</ele><time>2026-04-28T10:11:04.679Z</time></trkpt><trkpt lat="37.8370582" lon="12.4680982"><ele>6.0</ele><time>2026-04-28T10:11:05.679Z</time></trkpt><trkpt lat="37.8371912" lon="12.4681325"><ele>6.0</ele><time>2026-04-28T10:11:06.679Z</time></trkpt><trkpt lat="37.8373313" lon="12.4681751"><ele>6.0</ele><time>2026-04-28T10:11:07.679Z</time></trkpt><trkpt lat="37.8374682" lon="12.468224"><ele>6.0</ele><time>2026-04-28T10:11:08.679Z</time></trkpt><trkpt lat="37.837607" lon="12.4682638"><ele>6.0</ele><time>2026-04-28T10:11:09.679Z</time></trkpt><trkpt lat="37.8377642" lon="12.4682819"><ele>6.0</ele><time>2026-04-28T10:11:10.679Z</time></trkpt><trkpt lat="37.8379172" lon="12.4682885"><ele>5.75</ele><time>2026-04-28T10:11:11.68Z</time></trkpt><trkpt lat="37.8380583" lon="12.4682948"><ele>5.5</ele><time>2026-04-28T10:11:12.681Z</time></trkpt><trkpt lat="37.8381981" lon="12.4682829"><ele>5.25</ele><time>2026-04-28T10:11:13.68Z</time></trkpt><trkpt lat="37.8383382" lon="12.4682521"><ele>5.0</ele><time>2026-04-28T10:11:14.68Z</time></trkpt><trkpt lat="37.8384705" lon="12.468206"><ele>4.75</ele><time>2026-04-28T10:11:15.679Z</time></trkpt><trkpt lat="37.8386052" lon="12.4681455"><ele>4.5</ele><time>2026-04-28T10:11:16.681Z</time></trkpt><trkpt lat="37.8387311" lon="12.4680804"><ele>4.25</ele><time>2026-04-28T10:11:17.679Z</time></trkpt><trkpt lat="37.8388529" lon="12.4680008"><ele>4.0</ele><time>2026-04-28T10:11:18.68Z</time></trkpt><trkpt lat="37.8389691" lon="12.4679087"><ele>3.75</ele><time>2026-04-28T10:11:19.68Z</time></trkpt><trkpt lat="37.839079" lon="12.4677996"><ele>3.5</ele><time>2026-04-28T10:11:20.679Z</time></trkpt><trkpt lat="37.8391838" lon="12.4676905"><ele>3.25</ele><time>2026-04-28T10:11:21.68Z</time></trkpt><trkpt lat="37.8392803" lon="12.4675827"><ele>3.0</ele><time>2026-04-28T10:11:22.68Z</time></trkpt><trkpt lat="37.8393767" lon="12.4674837"><ele>3.0</ele><time>2026-04-28T10:11:23.679Z</time></trkpt><trkpt lat="37.8394799" lon="12.4674018"><ele>3.0</ele><time>2026-04-28T10:11:24.679Z</time></trkpt><trkpt lat="37.8395899" lon="12.4673431"><ele>3.0</ele><time>2026-04-28T10:11:25.68Z</time></trkpt><trkpt lat="37.8397124" lon="12.4673106"><ele>3.0</ele><time>2026-04-28T10:11:26.68Z</time></trkpt><trkpt lat="37.8398363" lon="12.4672829"><ele>3.0</ele><time>2026-04-28T10:11:27.68Z</time></trkpt><trkpt lat="37.8399622" lon="12.4672483"><ele>3.0</ele><time>2026-04-28T10:11:28.68Z</time></trkpt><trkpt lat="37.8400856" lon="12.4672072"><ele>3.0</ele><time>2026-04-28T10:11:29.68Z</time></trkpt><trkpt lat="37.8402015" lon="12.4671709"><ele>3.0</ele><time>2026-04-28T10:11:30.679Z</time></trkpt><trkpt lat="37.840311" lon="12.4671171"><ele>3.25</ele><time>2026-04-28T10:11:31.68Z</time></trkpt><trkpt lat="37.8404202" lon="12.467056"><ele>3.5</ele><time>2026-04-28T10:11:32.679Z</time></trkpt><trkpt lat="37.8405198" lon="12.4669827"><ele>3.75</ele><time>2026-04-28T10:11:33.681Z</time></trkpt><trkpt lat="37.8406164" lon="12.4669072"><ele>4.0</ele><time>2026-04-28T10:11:34.68Z</time></trkpt><trkpt lat="37.8407055" lon="12.4668269"><ele>4.0</ele><time>2026-04-28T10:11:35.679Z</time></trkpt><trkpt lat="37.840797" lon="12.4667432"><ele>4.0</ele><time>2026-04-28T10:11:36.681Z</time></trkpt><trkpt lat="37.8408864" lon="12.4666537"><ele>4.0</ele><time>2026-04-28T10:11:37.681Z</time></trkpt><trkpt lat="37.8409669" lon="12.4665569"><ele>4.0</ele><time>2026-04-28T10:11:38.681Z</time></trkpt><trkpt lat="37.8410416" lon="12.4664671"><ele>4.0</ele><time>2026-04-28T10:11:39.679Z</time></trkpt><trkpt lat="37.8411013" lon="12.4663721"><ele>4.0</ele><time>2026-04-28T10:11:40.679Z</time></trkpt><trkpt lat="37.8411484" lon="12.4662672"><ele>4.0</ele><time>2026-04-28T10:11:41.68Z</time></trkpt><trkpt lat="37.8411982" lon="12.46616"><ele>4.0</ele><time>2026-04-28T10:11:42.68Z</time></trkpt><trkpt lat="37.8412432" lon="12.4660489"><ele>4.0</ele><time>2026-04-28T10:11:43.679Z</time></trkpt><trkpt lat="37.8412863" lon="12.4659367"><ele>4.0</ele><time>2026-04-28T10:11:44.68Z</time></trkpt><trkpt lat="37.841321" lon="12.4658314"><ele>4.0</ele><time>2026-04-28T10:11:45.679Z</time></trkpt><trkpt lat="37.8413492" lon="12.4657276"><ele>4.0</ele><time>2026-04-28T10:11:46.68Z</time></trkpt><trkpt lat="37.8413748" lon="12.4656102"><ele>4.0</ele><time>2026-04-28T10:11:47.679Z</time></trkpt><trkpt lat="37.8414091" lon="12.4654793"><ele>4.0</ele><time>2026-04-28T10:11:48.679Z</time></trkpt><trkpt lat="37.841452" lon="12.4653507"><ele>4.0</ele><time>2026-04-28T10:11:49.679Z</time></trkpt><trkpt lat="37.841495" lon="12.4652126"><ele>4.25</ele><time>2026-04-28T10:11:50.681Z</time></trkpt><trkpt lat="37.841539" lon="12.4650792"><ele>4.5</ele><time>2026-04-28T10:11:51.679Z</time></trkpt><trkpt lat="37.8415869" lon="12.4649444"><ele>4.75</ele><time>2026-04-28T10:11:52.679Z</time></trkpt><trkpt lat="37.8416222" lon="12.4647972"><ele>5.0</ele><time>2026-04-28T10:11:53.68Z</time></trkpt><trkpt lat="37.8416442" lon="12.46466"><ele>5.5</ele><time>2026-04-28T10:11:54.679Z</time></trkpt><trkpt lat="37.8416555" lon="12.4645119"><ele>6.0</ele><time>2026-04-28T10:11:55.68Z</time></trkpt><trkpt lat="37.8416539" lon="12.464358"><ele>6.5</ele><time>2026-04-28T10:11:56.679Z</time></trkpt><trkpt lat="37.8416519" lon="12.4642137"><ele>7.0</ele><time>2026-04-28T10:11:57.679Z</time></trkpt><trkpt lat="37.8416572" lon="12.4639639"><ele>7.000000000000001</ele><time>2026-04-28T10:11:59.679Z</time></trkpt><trkpt lat="37.8416939" lon="12.463879"><ele>7.0</ele><time>2026-04-28T10:12:00.679Z</time></trkpt><trkpt lat="37.841754" lon="12.4638258"><ele>7.0</ele><time>2026-04-28T10:12:01.68Z</time></trkpt><trkpt lat="37.8418317" lon="12.4638135"><ele>7.0</ele><time>2026-04-28T10:12:02.679Z</time></trkpt><trkpt lat="37.8419308" lon="12.4638412"><ele>7.000000000000001</ele><time>2026-04-28T10:12:03.68Z</time></trkpt><trkpt lat="37.8420409" lon="12.4639009"><ele>7.0</ele><time>2026-04-28T10:12:04.679Z</time></trkpt><trkpt lat="37.8421625" lon="12.4639682"><ele>6.0</ele><time>2026-04-28T10:12:05.681Z</time></trkpt><trkpt lat="37.8422852" lon="12.4640495"><ele>5.0</ele><time>2026-04-28T10:12:06.68Z</time></trkpt><trkpt lat="37.842408" lon="12.4641281"><ele>4.0</ele><time>2026-04-28T10:12:07.679Z</time></trkpt><trkpt lat="37.8425457" lon="12.464207"><ele>3.0</ele><time>2026-04-28T10:12:08.679Z</time></trkpt><trkpt lat="37.842688" lon="12.4642754"><ele>2.75</ele><time>2026-04-28T10:12:09.679Z</time></trkpt><trkpt lat="37.8428266" lon="12.4643402"><ele>2.5</ele><time>2026-04-28T10:12:10.679Z</time></trkpt><trkpt lat="37.8429619" lon="12.4643978"><ele>2.25</ele><time>2026-04-28T10:12:11.681Z</time></trkpt><trkpt lat="37.8430967" lon="12.4644465"><ele>2.0</ele><time>2026-04-28T10:12:12.679Z</time></trkpt><trkpt lat="37.8432339" lon="12.4644983"><ele>2.0</ele><time>2026-04-28T10:12:13.68Z</time></trkpt><trkpt lat="37.8433764" lon="12.4645367"><ele>2.0</ele><time>2026-04-28T10:12:14.679Z</time></trkpt><trkpt lat="37.8435153" lon="12.4645876"><ele>2.0</ele><time>2026-04-28T10:12:15.68Z</time></trkpt><trkpt lat="37.8436535" lon="12.4646343"><ele>2.0</ele><time>2026-04-28T10:12:16.679Z</time></trkpt><trkpt lat="37.843784" lon="12.4646816"><ele>2.5</ele><time>2026-04-28T10:12:17.68Z</time></trkpt><trkpt lat="37.8439057" lon="12.46471"><ele>3.0</ele><time>2026-04-28T10:12:18.68Z</time></trkpt><trkpt lat="37.8440261" lon="12.4647282"><ele>3.5</ele><time>2026-04-28T10:12:19.68Z</time></trkpt><trkpt lat="37.8441514" lon="12.4647329"><ele>4.0</ele><time>2026-04-28T10:12:20.679Z</time></trkpt><trkpt lat="37.8442768" lon="12.464738"><ele>4.2</ele><time>2026-04-28T10:12:21.68Z</time></trkpt><trkpt lat="37.8443944" lon="12.4647331"><ele>4.4</ele><time>2026-04-28T10:12:22.68Z</time></trkpt><trkpt lat="37.8445068" lon="12.4647155"><ele>4.6</ele><time>2026-04-28T10:12:23.679Z</time></trkpt><trkpt lat="37.8446155" lon="12.464707"><ele>4.8</ele><time>2026-04-28T10:12:24.68Z</time></trkpt><trkpt lat="37.8447042" lon="12.4647097"><ele>5.0</ele><time>2026-04-28T10:12:25.679Z</time></trkpt><trkpt lat="37.8447881" lon="12.4647133"><ele>5.0</ele><time>2026-04-28T10:12:26.68Z</time></trkpt><trkpt lat="37.8448647" lon="12.4647271"><ele>5.0</ele><time>2026-04-28T10:12:27.68Z</time></trkpt><trkpt lat="37.8449367" lon="12.4647374"><ele>5.0</ele><time>2026-04-28T10:12:28.68Z</time></trkpt><trkpt lat="37.8450109" lon="12.4647461"><ele>5.0</ele><time>2026-04-28T10:12:29.68Z</time></trkpt><trkpt lat="37.8450883" lon="12.4647548"><ele>5.0</ele><time>2026-04-28T10:12:30.679Z</time></trkpt><trkpt lat="37.8451672" lon="12.4647616"><ele>5.0</ele><time>2026-04-28T10:12:31.68Z</time></trkpt><trkpt lat="37.8452524" lon="12.4647618"><ele>5.0</ele><time>2026-04-28T10:12:32.679Z</time></trkpt><trkpt lat="37.8453434" lon="12.464762"><ele>5.0</ele><time>2026-04-28T10:12:33.681Z</time></trkpt><trkpt lat="37.845437" lon="12.4647731"><ele>5.0</ele><time>2026-04-28T10:12:34.679Z</time></trkpt><trkpt lat="37.8455459" lon="12.4647903"><ele>5.0</ele><time>2026-04-28T10:12:35.68Z</time></trkpt><trkpt lat="37.8456524" lon="12.4648258"><ele>5.0</ele><time>2026-04-28T10:12:36.681Z</time></trkpt><trkpt lat="37.8457637" lon="12.4648757"><ele>5.0</ele><time>2026-04-28T10:12:37.679Z</time></trkpt><trkpt lat="37.8458832" lon="12.4649112"><ele>5.0</ele><time>2026-04-28T10:12:38.679Z</time></trkpt><trkpt lat="37.8460063" lon="12.4649354"><ele>5.0</ele><time>2026-04-28T10:12:39.679Z</time></trkpt><trkpt lat="37.846143" lon="12.4649374"><ele>5.0</ele><time>2026-04-28T10:12:40.68Z</time></trkpt><trkpt lat="37.8462724" lon="12.4649335"><ele>4.75</ele><time>2026-04-28T10:12:41.681Z</time></trkpt><trkpt lat="37.8463976" lon="12.4649219"><ele>4.5</ele><time>2026-04-28T10:12:42.68Z</time></trkpt><trkpt lat="37.8465252" lon="12.4649031"><ele>4.25</ele><time>2026-04-28T10:12:43.679Z</time></trkpt><trkpt lat="37.8466555" lon="12.4648802"><ele>4.0</ele><time>2026-04-28T10:12:44.68Z</time></trkpt><trkpt lat="37.8467809" lon="12.4648641"><ele>3.75</ele><time>2026-04-28T10:12:45.68Z</time></trkpt><trkpt lat="37.8469059" lon="12.4648485"><ele>3.5</ele><time>2026-04-28T10:12:46.679Z</time></trkpt><trkpt lat="37.8470298" lon="12.4648348"><ele>3.25</ele><time>2026-04-28T10:12:47.681Z</time></trkpt><trkpt lat="37.8471492" lon="12.464831"><ele>3.0</ele><time>2026-04-28T10:12:48.68Z</time></trkpt><trkpt lat="37.8472695" lon="12.4648315"><ele>3.0</ele><time>2026-04-28T10:12:49.679Z</time></trkpt><trkpt lat="37.8473812" lon="12.4648488"><ele>3.0</ele><time>2026-04-28T10:12:50.68Z</time></trkpt><trkpt lat="37.8474814" lon="12.4648854"><ele>3.0</ele><time>2026-04-28T10:12:51.68Z</time></trkpt><trkpt lat="37.847574" lon="12.4649414"><ele>3.0</ele><time>2026-04-28T10:12:52.68Z</time></trkpt><trkpt lat="37.8476575" lon="12.4650349"><ele>3.0</ele><time>2026-04-28T10:12:53.679Z</time></trkpt><trkpt lat="37.8477494" lon="12.4651618"><ele>3.25</ele><time>2026-04-28T10:12:54.68Z</time></trkpt><trkpt lat="37.8478318" lon="12.4652939"><ele>3.5</ele><time>2026-04-28T10:12:55.68Z</time></trkpt><trkpt lat="37.8479281" lon="12.4654298"><ele>3.75</ele><time>2026-04-28T10:12:56.679Z</time></trkpt><trkpt lat="37.8480284" lon="12.465552"><ele>4.0</ele><time>2026-04-28T10:12:57.679Z</time></trkpt><trkpt lat="37.8481371" lon="12.4656659"><ele>4.0</ele><time>2026-04-28T10:12:58.679Z</time></trkpt><trkpt lat="37.8482536" lon="12.4657774"><ele>4.0</ele><time>2026-04-28T10:12:59.679Z</time></trkpt><trkpt lat="37.8483585" lon="12.4658882"><ele>4.0</ele><time>2026-04-28T10:13:00.679Z</time></trkpt><trkpt lat="37.8484575" lon="12.4659968"><ele>4.0</ele><time>2026-04-28T10:13:01.681Z</time></trkpt><trkpt lat="37.8485517" lon="12.4661193"><ele>3.5</ele><time>2026-04-28T10:13:02.679Z</time></trkpt><trkpt lat="37.8486307" lon="12.4662412"><ele>3.0</ele><time>2026-04-28T10:13:03.68Z</time></trkpt><trkpt lat="37.8487101" lon="12.4663556"><ele>2.5</ele><time>2026-04-28T10:13:04.679Z</time></trkpt><trkpt lat="37.8487808" lon="12.4664668"><ele>2.0</ele><time>2026-04-28T10:13:05.681Z</time></trkpt><trkpt lat="37.8488289" lon="12.466583"><ele>2.0</ele><time>2026-04-28T10:13:06.679Z</time></trkpt><trkpt lat="37.848867" lon="12.4667057"><ele>2.0</ele><time>2026-04-28T10:13:07.679Z</time></trkpt><trkpt lat="37.8489013" lon="12.4668341"><ele>2.0</ele><time>2026-04-28T10:13:08.681Z</time></trkpt><trkpt lat="37.84894" lon="12.4669701"><ele>2.0</ele><time>2026-04-28T10:13:09.679Z</time></trkpt><trkpt lat="37.8489767" lon="12.4671104"><ele>2.0</ele><time>2026-04-28T10:13:10.679Z</time></trkpt><trkpt lat="37.8490035" lon="12.4672565"><ele>2.0</ele><time>2026-04-28T10:13:11.679Z</time></trkpt><trkpt lat="37.8490124" lon="12.467399"><ele>2.0</ele><time>2026-04-28T10:13:12.68Z</time></trkpt><trkpt lat="37.8490066" lon="12.4675493"><ele>2.0</ele><time>2026-04-28T10:13:13.679Z</time></trkpt><trkpt lat="37.8489717" lon="12.4676838"><ele>2.0</ele><time>2026-04-28T10:13:14.68Z</time></trkpt><trkpt lat="37.8489471" lon="12.4678285"><ele>2.25</ele><time>2026-04-28T10:13:15.681Z</time></trkpt><trkpt lat="37.8489547" lon="12.4679803"><ele>2.5</ele><time>2026-04-28T10:13:16.681Z</time></trkpt><trkpt lat="37.848982" lon="12.4681355"><ele>2.75</ele><time>2026-04-28T10:13:17.68Z</time></trkpt><trkpt lat="37.8490201" lon="12.4683006"><ele>3.0</ele><time>2026-04-28T10:13:18.68Z</time></trkpt><trkpt lat="37.849042" lon="12.4684665"><ele>3.0</ele><time>2026-04-28T10:13:19.679Z</time></trkpt><trkpt lat="37.8490568" lon="12.4686451"><ele>3.0</ele><time>2026-04-28T10:13:20.68Z</time></trkpt><trkpt lat="37.8490567" lon="12.4688282"><ele>3.0</ele><time>2026-04-28T10:13:21.68Z</time></trkpt><trkpt lat="37.8490677" lon="12.4690093"><ele>3.0</ele><time>2026-04-28T10:13:22.68Z</time></trkpt><trkpt lat="37.8491002" lon="12.4691862"><ele>3.25</ele><time>2026-04-28T10:13:23.679Z</time></trkpt><trkpt lat="37.8491544" lon="12.4693565"><ele>3.5</ele><time>2026-04-28T10:13:24.68Z</time></trkpt><trkpt lat="37.849233" lon="12.4695215"><ele>3.75</ele><time>2026-04-28T10:13:25.679Z</time></trkpt><trkpt lat="37.8493283" lon="12.4696689"><ele>4.0</ele><time>2026-04-28T10:13:26.68Z</time></trkpt><trkpt lat="37.8494344" lon="12.4698035"><ele>3.2</ele><time>2026-04-28T10:13:27.679Z</time></trkpt><trkpt lat="37.8495362" lon="12.4699249"><ele>2.4000000000000004</ele><time>2026-04-28T10:13:28.681Z</time></trkpt><trkpt lat="37.8496218" lon="12.4700322"><ele>1.6</ele><time>2026-04-28T10:13:29.679Z</time></trkpt><trkpt lat="37.8496858" lon="12.4701287"><ele>0.8</ele><time>2026-04-28T10:13:30.68Z</time></trkpt><trkpt lat="37.849721" lon="12.4702288"><ele>0.0</ele><time>2026-04-28T10:13:31.681Z</time></trkpt><trkpt lat="37.8497304" lon="12.4703461"><ele>0.5</ele><time>2026-04-28T10:13:32.679Z</time></trkpt><trkpt lat="37.8497156" lon="12.47047"><ele>1.0</ele><time>2026-04-28T10:13:33.68Z</time></trkpt><trkpt lat="37.8496731" lon="12.4706034"><ele>1.5</ele><time>2026-04-28T10:13:34.68Z</time></trkpt><trkpt lat="37.8496195" lon="12.4707495"><ele>2.0</ele><time>2026-04-28T10:13:35.679Z</time></trkpt><trkpt lat="37.8495717" lon="12.4708965"><ele>2.0</ele><time>2026-04-28T10:13:36.68Z</time></trkpt><trkpt lat="37.8495568" lon="12.4710623"><ele>2.0</ele><time>2026-04-28T10:13:37.68Z</time></trkpt><trkpt lat="37.8495681" lon="12.4712316"><ele>2.0</ele><time>2026-04-28T10:13:38.679Z</time></trkpt><trkpt lat="37.8496163" lon="12.4714001"><ele>2.0</ele><time>2026-04-28T10:13:39.68Z</time></trkpt><trkpt lat="37.8496777" lon="12.4715727"><ele>2.6666666666666665</ele><time>2026-04-28T10:13:40.679Z</time></trkpt><trkpt lat="37.8497145" lon="12.4717642"><ele>3.333333333333333</ele><time>2026-04-28T10:13:41.679Z</time></trkpt><trkpt lat="37.849722" lon="12.4719579"><ele>4.0</ele><time>2026-04-28T10:13:42.679Z</time></trkpt><trkpt lat="37.8497144" lon="12.4721551"><ele>4.666666666666666</ele><time>2026-04-28T10:13:43.68Z</time></trkpt><trkpt lat="37.8497336" lon="12.4723439"><ele>5.333333333333333</ele><time>2026-04-28T10:13:44.68Z</time></trkpt><trkpt lat="37.8497909" lon="12.4725231"><ele>6.0</ele><time>2026-04-28T10:13:45.68Z</time></trkpt><trkpt lat="37.8498899" lon="12.4726832"><ele>6.0</ele><time>2026-04-28T10:13:46.679Z</time></trkpt><trkpt lat="37.8500148" lon="12.4728314"><ele>6.0</ele><time>2026-04-28T10:13:47.679Z</time></trkpt><trkpt lat="37.8501452" lon="12.4729799"><ele>6.0</ele><time>2026-04-28T10:13:48.679Z</time></trkpt><trkpt lat="37.8502748" lon="12.4731118"><ele>4.333333333333333</ele><time>2026-04-28T10:13:49.68Z</time></trkpt><trkpt lat="37.8504172" lon="12.4732375"><ele>2.6666666666666665</ele><time>2026-04-28T10:13:50.68Z</time></trkpt><trkpt lat="37.850558" lon="12.4733529"><ele>1.0</ele><time>2026-04-28T10:13:51.68Z</time></trkpt><trkpt lat="37.8506974" lon="12.4734651"><ele>1.0</ele><time>2026-04-28T10:13:52.68Z</time></trkpt><trkpt lat="37.8508353" lon="12.4735792"><ele>1.0</ele><time>2026-04-28T10:13:53.68Z</time></trkpt><trkpt lat="37.8509662" lon="12.473695"><ele>1.0</ele><time>2026-04-28T10:13:54.681Z</time></trkpt><trkpt lat="37.8510915" lon="12.4738121"><ele>1.6666666666666665</ele><time>2026-04-28T10:13:55.68Z</time></trkpt><trkpt lat="37.8512145" lon="12.4739425"><ele>2.3333333333333335</ele><time>2026-04-28T10:13:56.68Z</time></trkpt><trkpt lat="37.8513308" lon="12.4740805"><ele>3.0</ele><time>2026-04-28T10:13:57.68Z</time></trkpt><trkpt lat="37.8514501" lon="12.4742158"><ele>3.0</ele><time>2026-04-28T10:13:58.68Z</time></trkpt><trkpt lat="37.8515759" lon="12.4743271"><ele>3.0</ele><time>2026-04-28T10:13:59.68Z</time></trkpt><trkpt lat="37.8517087" lon="12.474429"><ele>3.0</ele><time>2026-04-28T10:14:00.679Z</time></trkpt><trkpt lat="37.8518376" lon="12.4745273"><ele>3.0</ele><time>2026-04-28T10:14:01.68Z</time></trkpt><trkpt lat="37.8519596" lon="12.4746292"><ele>3.0</ele><time>2026-04-28T10:14:02.679Z</time></trkpt><trkpt lat="37.8520801" lon="12.4747393"><ele>3.0</ele><time>2026-04-28T10:14:03.679Z</time></trkpt><trkpt lat="37.8521981" lon="12.4748533"><ele>3.0</ele><time>2026-04-28T10:14:04.68Z</time></trkpt><trkpt lat="37.852337" lon="12.4749722"><ele>3.0</ele><time>2026-04-28T10:14:05.679Z</time></trkpt><trkpt lat="37.8524704" lon="12.4750617"><ele>3.0</ele><time>2026-04-28T10:14:06.679Z</time></trkpt><trkpt lat="37.8526043" lon="12.4751415"><ele>3.0</ele><time>2026-04-28T10:14:07.68Z</time></trkpt><trkpt lat="37.8527436" lon="12.4752361"><ele>2.5</ele><time>2026-04-28T10:14:08.679Z</time></trkpt><trkpt lat="37.85287" lon="12.4753345"><ele>2.0</ele><time>2026-04-28T10:14:09.681Z</time></trkpt><trkpt lat="37.8529945" lon="12.4754432"><ele>1.5</ele><time>2026-04-28T10:14:10.68Z</time></trkpt><trkpt lat="37.8531014" lon="12.4755574"><ele>1.0</ele><time>2026-04-28T10:14:11.68Z</time></trkpt><trkpt lat="37.8531968" lon="12.4756722"><ele>0.75</ele><time>2026-04-28T10:14:12.68Z</time></trkpt><trkpt lat="37.8532845" lon="12.4757738"><ele>0.5</ele><time>2026-04-28T10:14:13.679Z</time></trkpt><trkpt lat="37.853377" lon="12.4758646"><ele>0.25</ele><time>2026-04-28T10:14:14.679Z</time></trkpt><trkpt lat="37.853474" lon="12.47595"><ele>0.0</ele><time>2026-04-28T10:14:15.679Z</time></trkpt><trkpt lat="37.8535807" lon="12.4760115"><ele>0.0</ele><time>2026-04-28T10:14:16.679Z</time></trkpt><trkpt lat="37.8536963" lon="12.476068"><ele>0.0</ele><time>2026-04-28T10:14:17.681Z</time></trkpt><trkpt lat="37.8538174" lon="12.4761227"><ele>0.0</ele><time>2026-04-28T10:14:18.681Z</time></trkpt><trkpt lat="37.8539412" lon="12.4761727"><ele>0.0</ele><time>2026-04-28T10:14:19.68Z</time></trkpt><trkpt lat="37.8540658" lon="12.4762245"><ele>0.5</ele><time>2026-04-28T10:14:20.679Z</time></trkpt><trkpt lat="37.8541854" lon="12.4762772"><ele>1.0</ele><time>2026-04-28T10:14:21.681Z</time></trkpt><trkpt lat="37.8543008" lon="12.4763312"><ele>1.5</ele><time>2026-04-28T10:14:22.681Z</time></trkpt><trkpt lat="37.8544158" lon="12.4763829"><ele>2.0</ele><time>2026-04-28T10:14:23.68Z</time></trkpt><trkpt lat="37.8545321" lon="12.4764276"><ele>2.0</ele><time>2026-04-28T10:14:24.68Z</time></trkpt><trkpt lat="37.8546516" lon="12.4764641"><ele>2.0</ele><time>2026-04-28T10:14:25.681Z</time></trkpt><trkpt lat="37.8547778" lon="12.4765054"><ele>2.0</ele><time>2026-04-28T10:14:26.679Z</time></trkpt><trkpt lat="37.8548976" lon="12.4765413"><ele>2.0</ele><time>2026-04-28T10:14:27.679Z</time></trkpt><trkpt lat="37.8550146" lon="12.4765857"><ele>1.3333333333333333</ele><time>2026-04-28T10:14:28.681Z</time></trkpt><trkpt lat="37.8551354" lon="12.4766456"><ele>0.6666666666666666</ele><time>2026-04-28T10:14:29.681Z</time></trkpt><trkpt lat="37.8553485" lon="12.4768057"><ele>0.0</ele><time>2026-04-28T10:14:31.679Z</time></trkpt><trkpt lat="37.8554419" lon="12.4769007"><ele>0.0</ele><time>2026-04-28T10:14:32.679Z</time></trkpt><trkpt lat="37.8555402" lon="12.4770087"><ele>0.0</ele><time>2026-04-28T10:14:33.681Z</time></trkpt><trkpt lat="37.8556292" lon="12.4771048"><ele>0.0</ele><time>2026-04-28T10:14:34.681Z</time></trkpt><trkpt lat="37.8557287" lon="12.477197"><ele>0.0</ele><time>2026-04-28T10:14:35.679Z</time></trkpt><trkpt lat="37.8558279" lon="12.4772964"><ele>0.25</ele><time>2026-04-28T10:14:36.679Z</time></trkpt><trkpt lat="37.8559215" lon="12.4773975"><ele>0.5</ele><time>2026-04-28T10:14:37.68Z</time></trkpt><trkpt lat="37.8560134" lon="12.4774876"><ele>0.75</ele><time>2026-04-28T10:14:38.679Z</time></trkpt><trkpt lat="37.8561156" lon="12.4775526"><ele>1.0</ele><time>2026-04-28T10:14:39.68Z</time></trkpt><trkpt lat="37.8562176" lon="12.4776144"><ele>0.9999999999999999</ele><time>2026-04-28T10:14:40.68Z</time></trkpt><trkpt lat="37.8563087" lon="12.4776741"><ele>1.0</ele><time>2026-04-28T10:14:41.68Z</time></trkpt><trkpt lat="37.8563923" lon="12.4777319"><ele>1.0</ele><time>2026-04-28T10:14:42.68Z</time></trkpt><trkpt lat="37.8564648" lon="12.4777996"><ele>1.0</ele><time>2026-04-28T10:14:43.679Z</time></trkpt><trkpt lat="37.856519" lon="12.4778703"><ele>0.9999999999999999</ele><time>2026-04-28T10:14:44.68Z</time></trkpt><trkpt lat="37.8565627" lon="12.4779475"><ele>1.0</ele><time>2026-04-28T10:14:45.68Z</time></trkpt><trkpt lat="37.8565943" lon="12.4780364"><ele>1.3333333333333333</ele><time>2026-04-28T10:14:46.68Z</time></trkpt><trkpt lat="37.8566225" lon="12.4781353"><ele>1.6666666666666665</ele><time>2026-04-28T10:14:47.68Z</time></trkpt><trkpt lat="37.85663" lon="12.4782291"><ele>2.0</ele><time>2026-04-28T10:14:48.682Z</time></trkpt><trkpt lat="37.8566264" lon="12.4783314"><ele>2.3333333333333335</ele><time>2026-04-28T10:14:49.679Z</time></trkpt><trkpt lat="37.8566213" lon="12.4784512"><ele>2.6666666666666665</ele><time>2026-04-28T10:14:50.68Z</time></trkpt><trkpt lat="37.8566223" lon="12.4785748"><ele>3.0</ele><time>2026-04-28T10:14:51.68Z</time></trkpt><trkpt lat="37.8566403" lon="12.4787051"><ele>3.25</ele><time>2026-04-28T10:14:52.68Z</time></trkpt><trkpt lat="37.8566708" lon="12.4788428"><ele>3.5</ele><time>2026-04-28T10:14:53.679Z</time></trkpt><trkpt lat="37.8567107" lon="12.4789921"><ele>3.75</ele><time>2026-04-28T10:14:54.682Z</time></trkpt><trkpt lat="37.8567449" lon="12.4791485"><ele>4.0</ele><time>2026-04-28T10:14:55.68Z</time></trkpt><trkpt lat="37.8567612" lon="12.4792969"><ele>4.0</ele><time>2026-04-28T10:14:56.681Z</time></trkpt><trkpt lat="37.8567553" lon="12.4794474"><ele>4.0</ele><time>2026-04-28T10:14:57.68Z</time></trkpt><trkpt lat="37.8567467" lon="12.4796058"><ele>4.0</ele><time>2026-04-28T10:14:58.679Z</time></trkpt><trkpt lat="37.8567533" lon="12.4797745"><ele>4.0</ele><time>2026-04-28T10:14:59.681Z</time></trkpt><trkpt lat="37.8568193" lon="12.4800972"><ele>3.5</ele><time>2026-04-28T10:15:01.68Z</time></trkpt><trkpt lat="37.8568612" lon="12.4802577"><ele>3.0</ele><time>2026-04-28T10:15:02.68Z</time></trkpt><trkpt lat="37.8569004" lon="12.4804207"><ele>2.5</ele><time>2026-04-28T10:15:03.68Z</time></trkpt><trkpt lat="37.8569285" lon="12.4805945"><ele>2.0</ele><time>2026-04-28T10:15:04.679Z</time></trkpt><trkpt lat="37.8569559" lon="12.480766"><ele>2.0</ele><time>2026-04-28T10:15:05.679Z</time></trkpt><trkpt lat="37.85697" lon="12.4809406"><ele>2.0</ele><time>2026-04-28T10:15:06.681Z</time></trkpt><trkpt lat="37.8569652" lon="12.4811127"><ele>2.0</ele><time>2026-04-28T10:15:07.68Z</time></trkpt><trkpt lat="37.8569583" lon="12.4812878"><ele>2.0</ele><time>2026-04-28T10:15:08.679Z</time></trkpt><trkpt lat="37.8569602" lon="12.4814722"><ele>2.0</ele><time>2026-04-28T10:15:09.681Z</time></trkpt><trkpt lat="37.8569648" lon="12.4816462"><ele>2.0</ele><time>2026-04-28T10:15:10.68Z</time></trkpt><trkpt lat="37.8569802" lon="12.4818238"><ele>2.0</ele><time>2026-04-28T10:15:11.679Z</time></trkpt><trkpt lat="37.8570016" lon="12.4820042"><ele>2.0</ele><time>2026-04-28T10:15:12.68Z</time></trkpt><trkpt lat="37.8570177" lon="12.4821812"><ele>1.75</ele><time>2026-04-28T10:15:13.679Z</time></trkpt><trkpt lat="37.857044" lon="12.4823643"><ele>1.5</ele><time>2026-04-28T10:15:14.679Z</time></trkpt><trkpt lat="37.8570802" lon="12.4825456"><ele>1.25</ele><time>2026-04-28T10:15:15.68Z</time></trkpt><trkpt lat="37.8571337" lon="12.4827257"><ele>1.0</ele><time>2026-04-28T10:15:16.679Z</time></trkpt><trkpt lat="37.8571941" lon="12.4829043"><ele>1.6666666666666665</ele><time>2026-04-28T10:15:17.679Z</time></trkpt><trkpt lat="37.8573099" lon="12.4832479"><ele>2.3333333333333335</ele><time>2026-04-28T10:15:19.681Z</time></trkpt><trkpt lat="37.8573608" lon="12.4834108"><ele>3.0</ele><time>2026-04-28T10:15:20.681Z</time></trkpt><trkpt lat="37.8574055" lon="12.4835516"><ele>3.0</ele><time>2026-04-28T10:15:21.679Z</time></trkpt><trkpt lat="37.8574456" lon="12.4836794"><ele>3.0</ele><time>2026-04-28T10:15:22.681Z</time></trkpt><trkpt lat="37.8574737" lon="12.48379"><ele>3.0</ele><time>2026-04-28T10:15:23.681Z</time></trkpt><trkpt lat="37.8574763" lon="12.4838897"><ele>3.0</ele><time>2026-04-28T10:15:24.68Z</time></trkpt><trkpt lat="37.8574513" lon="12.4839931"><ele>3.0</ele><time>2026-04-28T10:15:25.68Z</time></trkpt><trkpt lat="37.8574035" lon="12.4840925"><ele>3.25</ele><time>2026-04-28T10:15:26.68Z</time></trkpt><trkpt lat="37.8573316" lon="12.4841859"><ele>3.5</ele><time>2026-04-28T10:15:27.68Z</time></trkpt><trkpt lat="37.8572594" lon="12.4843021"><ele>3.75</ele><time>2026-04-28T10:15:28.68Z</time></trkpt><trkpt lat="37.8571898" lon="12.4844207"><ele>4.0</ele><time>2026-04-28T10:15:29.681Z</time></trkpt><trkpt lat="37.8571166" lon="12.484545"><ele>4.25</ele><time>2026-04-28T10:15:30.68Z</time></trkpt><trkpt lat="37.857037" lon="12.4846755"><ele>4.5</ele><time>2026-04-28T10:15:31.681Z</time></trkpt><trkpt lat="37.8569526" lon="12.4848133"><ele>4.75</ele><time>2026-04-28T10:15:32.68Z</time></trkpt><trkpt lat="37.8568587" lon="12.4849664"><ele>5.0</ele><time>2026-04-28T10:15:33.679Z</time></trkpt><trkpt lat="37.8567663" lon="12.4851139"><ele>5.0</ele><time>2026-04-28T10:15:34.679Z</time></trkpt><trkpt lat="37.8566731" lon="12.4852559"><ele>5.0</ele><time>2026-04-28T10:15:35.68Z</time></trkpt><trkpt lat="37.8565866" lon="12.4854029"><ele>5.0</ele><time>2026-04-28T10:15:36.679Z</time></trkpt><trkpt lat="37.8564995" lon="12.4855566"><ele>5.0</ele><time>2026-04-28T10:15:37.681Z</time></trkpt><trkpt lat="37.8564127" lon="12.4857016"><ele>5.5</ele><time>2026-04-28T10:15:38.68Z</time></trkpt><trkpt lat="37.8563234" lon="12.4858535"><ele>6.0</ele><time>2026-04-28T10:15:39.679Z</time></trkpt><trkpt lat="37.8562307" lon="12.4860014"><ele>6.5</ele><time>2026-04-28T10:15:40.679Z</time></trkpt><trkpt lat="37.8561414" lon="12.4861477"><ele>7.0</ele><time>2026-04-28T10:15:41.681Z</time></trkpt><trkpt lat="37.856063" lon="12.4862788"><ele>7.5</ele><time>2026-04-28T10:15:42.68Z</time></trkpt><trkpt lat="37.8559839" lon="12.4864051"><ele>8.0</ele><time>2026-04-28T10:15:43.681Z</time></trkpt><trkpt lat="37.8559123" lon="12.4865266"><ele>8.5</ele><time>2026-04-28T10:15:44.681Z</time></trkpt><trkpt lat="37.8558458" lon="12.4866471"><ele>9.0</ele><time>2026-04-28T10:15:45.679Z</time></trkpt><trkpt lat="37.8557797" lon="12.4867546"><ele>9.333333333333334</ele><time>2026-04-28T10:15:46.68Z</time></trkpt><trkpt lat="37.855725" lon="12.4868479"><ele>9.666666666666666</ele><time>2026-04-28T10:15:47.68Z</time></trkpt><trkpt lat="37.8556903" lon="12.4869204"><ele>10.0</ele><time>2026-04-28T10:15:48.679Z</time></trkpt><trkpt lat="37.8556377" lon="12.4870032"><ele>10.333333333333332</ele><time>2026-04-28T10:15:50.681Z</time></trkpt><trkpt lat="37.8556217" lon="12.4870812"><ele>10.666666666666666</ele><time>2026-04-28T10:15:55.681Z</time></trkpt><trkpt lat="37.8555853" lon="12.4871662"><ele>11.0</ele><time>2026-04-28T10:15:59.68Z</time></trkpt><trkpt lat="37.8555482" lon="12.487249"><ele>11.0</ele><time>2026-04-28T10:17:30.679Z</time></trkpt><trkpt lat="37.8554766" lon="12.4874075"><ele>11.0</ele><time>2026-04-28T10:17:32.681Z</time></trkpt><trkpt lat="37.8554297" lon="12.487502"><ele>11.0</ele><time>2026-04-28T10:17:33.679Z</time></trkpt><trkpt lat="37.8553822" lon="12.4876153"><ele>11.0</ele><time>2026-04-28T10:17:34.681Z</time></trkpt><trkpt lat="37.8553177" lon="12.487735"><ele>11.0</ele><time>2026-04-28T10:17:35.679Z</time></trkpt><trkpt lat="37.8552479" lon="12.4878696"><ele>11.0</ele><time>2026-04-28T10:17:36.68Z</time></trkpt><trkpt lat="37.8551749" lon="12.4880264"><ele>11.0</ele><time>2026-04-28T10:17:37.679Z</time></trkpt><trkpt lat="37.855091" lon="12.4881862"><ele>11.0</ele><time>2026-04-28T10:17:38.68Z</time></trkpt><trkpt lat="37.8550074" lon="12.4883546"><ele>11.0</ele><time>2026-04-28T10:17:39.679Z</time></trkpt><trkpt lat="37.8549243" lon="12.4885304"><ele>11.0</ele><time>2026-04-28T10:17:40.681Z</time></trkpt><trkpt lat="37.8548384" lon="12.488708"><ele>11.0</ele><time>2026-04-28T10:17:41.681Z</time></trkpt><trkpt lat="37.8547543" lon="12.4888769"><ele>11.333333333333332</ele><time>2026-04-28T10:17:42.68Z</time></trkpt><trkpt lat="37.8546748" lon="12.4890496"><ele>11.666666666666666</ele><time>2026-04-28T10:17:43.68Z</time></trkpt><trkpt lat="37.8545986" lon="12.4892164"><ele>12.0</ele><time>2026-04-28T10:17:44.679Z</time></trkpt><trkpt lat="37.8545135" lon="12.4893776"><ele>12.0</ele><time>2026-04-28T10:17:45.68Z</time></trkpt><trkpt lat="37.8544347" lon="12.4895442"><ele>12.0</ele><time>2026-04-28T10:17:46.681Z</time></trkpt><trkpt lat="37.8543513" lon="12.4897069"><ele>12.0</ele><time>2026-04-28T10:17:47.681Z</time></trkpt><trkpt lat="37.8542643" lon="12.4898797"><ele>13.0</ele><time>2026-04-28T10:17:48.679Z</time></trkpt><trkpt lat="37.8541724" lon="12.490043"><ele>14.0</ele><time>2026-04-28T10:17:49.68Z</time></trkpt><trkpt lat="37.8540876" lon="12.4902093"><ele>15.0</ele><time>2026-04-28T10:17:50.681Z</time></trkpt><trkpt lat="37.8540036" lon="12.4903704"><ele>15.5</ele><time>2026-04-28T10:17:51.681Z</time></trkpt><trkpt lat="37.853917" lon="12.4905209"><ele>16.0</ele><time>2026-04-28T10:17:52.679Z</time></trkpt><trkpt lat="37.8538331" lon="12.490651"><ele>16.5</ele><time>2026-04-28T10:17:53.68Z</time></trkpt><trkpt lat="37.8537362" lon="12.4907753"><ele>17.0</ele><time>2026-04-28T10:17:54.679Z</time></trkpt><trkpt lat="37.8536255" lon="12.4908953"><ele>17.0</ele><time>2026-04-28T10:17:55.681Z</time></trkpt><trkpt lat="37.8535158" lon="12.4910203"><ele>17.0</ele><time>2026-04-28T10:17:56.679Z</time></trkpt><trkpt lat="37.8534005" lon="12.4911412"><ele>17.0</ele><time>2026-04-28T10:17:57.679Z</time></trkpt><trkpt lat="37.8532856" lon="12.4912653"><ele>17.0</ele><time>2026-04-28T10:17:58.68Z</time></trkpt><trkpt lat="37.8531741" lon="12.4913923"><ele>16.333333333333336</ele><time>2026-04-28T10:17:59.68Z</time></trkpt><trkpt lat="37.8530682" lon="12.4915156"><ele>15.666666666666668</ele><time>2026-04-28T10:18:00.68Z</time></trkpt><trkpt lat="37.852955" lon="12.4916368"><ele>15.0</ele><time>2026-04-28T10:18:01.679Z</time></trkpt><trkpt lat="37.8528331" lon="12.4917638"><ele>15.0</ele><time>2026-04-28T10:18:02.679Z</time></trkpt><trkpt lat="37.8527229" lon="12.4918893"><ele>15.0</ele><time>2026-04-28T10:18:03.68Z</time></trkpt><trkpt lat="37.8526212" lon="12.4920005"><ele>15.0</ele><time>2026-04-28T10:18:04.68Z</time></trkpt><trkpt lat="37.8525267" lon="12.492099"><ele>15.0</ele><time>2026-04-28T10:18:05.679Z</time></trkpt><trkpt lat="37.8524468" lon="12.4921914"><ele>19.0</ele><time>2026-04-28T10:18:06.679Z</time></trkpt><trkpt lat="37.8523872" lon="12.4922644"><ele>19.0</ele><time>2026-04-28T10:18:07.68Z</time></trkpt><trkpt lat="37.8523347" lon="12.4923785"><ele>19.0</ele><time>2026-04-28T10:18:09.68Z</time></trkpt><trkpt lat="37.8523335" lon="12.4924639"><ele>19.0</ele><time>2026-04-28T10:18:11.679Z</time></trkpt><trkpt lat="37.8523746" lon="12.4925412"><ele>19.0</ele><time>2026-04-28T10:18:14.682Z</time></trkpt></trkseg></trk></gpx>